﻿<?xml version="1.0" encoding="utf-8"?><gpx creator="Garmin Desktop App" version="1.1" xsi:schemaLocation="http://www.topografix.com/GPX/1/1 http://www.topografix.com/GPX/1/1/gpx.xsd http://www.garmin.com/xmlschemas/WaypointExtension/v1 http://www8.garmin.com/xmlschemas/WaypointExtensionv1.xsd http://www.garmin.com/xmlschemas/TrackPointExtension/v1 http://www.garmin.com/xmlschemas/TrackPointExtensionv1.xsd http://www.garmin.com/xmlschemas/GpxExtensions/v3 http://www8.garmin.com/xmlschemas/GpxExtensionsv3.xsd http://www.garmin.com/xmlschemas/ActivityExtension/v1 http://www8.garmin.com/xmlschemas/ActivityExtensionv1.xsd http://www.garmin.com/xmlschemas/AdventuresExtensions/v1 http://www8.garmin.com/xmlschemas/AdventuresExtensionv1.xsd http://www.garmin.com/xmlschemas/PressureExtension/v1 http://www.garmin.com/xmlschemas/PressureExtensionv1.xsd http://www.garmin.com/xmlschemas/TripExtensions/v1 http://www.garmin.com/xmlschemas/TripExtensionsv1.xsd http://www.garmin.com/xmlschemas/TripMetaDataExtensions/v1 http://www.garmin.com/xmlschemas/TripMetaDataExtensionsv1.xsd http://www.garmin.com/xmlschemas/ViaPointTransportationModeExtensions/v1 http://www.garmin.com/xmlschemas/ViaPointTransportationModeExtensionsv1.xsd http://www.garmin.com/xmlschemas/CreationTimeExtension/v1 http://www.garmin.com/xmlschemas/CreationTimeExtensionsv1.xsd http://www.garmin.com/xmlschemas/AccelerationExtension/v1 http://www.garmin.com/xmlschemas/AccelerationExtensionv1.xsd http://www.garmin.com/xmlschemas/PowerExtension/v1 http://www.garmin.com/xmlschemas/PowerExtensionv1.xsd http://www.garmin.com/xmlschemas/VideoExtension/v1 http://www.garmin.com/xmlschemas/VideoExtensionv1.xsd" xmlns="http://www.topografix.com/GPX/1/1" xmlns:xsi="http://www.w3.org/2001/XMLSchema-instance" xmlns:wptx1="http://www.garmin.com/xmlschemas/WaypointExtension/v1" xmlns:gpxtrx="http://www.garmin.com/xmlschemas/GpxExtensions/v3" xmlns:gpxtpx="http://www.garmin.com/xmlschemas/TrackPointExtension/v1" xmlns:gpxx="http://www.garmin.com/xmlschemas/GpxExtensions/v3" xmlns:trp="http://www.garmin.com/xmlschemas/TripExtensions/v1" xmlns:adv="http://www.garmin.com/xmlschemas/AdventuresExtensions/v1" xmlns:prs="http://www.garmin.com/xmlschemas/PressureExtension/v1" xmlns:tmd="http://www.garmin.com/xmlschemas/TripMetaDataExtensions/v1" xmlns:vptm="http://www.garmin.com/xmlschemas/ViaPointTransportationModeExtensions/v1" xmlns:ctx="http://www.garmin.com/xmlschemas/CreationTimeExtension/v1" xmlns:gpxacc="http://www.garmin.com/xmlschemas/AccelerationExtension/v1" xmlns:gpxpx="http://www.garmin.com/xmlschemas/PowerExtension/v1" xmlns:vidx1="http://www.garmin.com/xmlschemas/VideoExtension/v1">

  <metadata>
    <link href="http://www.garmin.com">
      <text>Garmin International</text>
    </link>
    <time>2017-10-30T19:59:36Z</time>
    <bounds maxlat="52.339572021737695" maxlon="9.649000000208616" minlat="51.401199018582702" minlon="8.755589034408331" />
  </metadata>

  <trk>
    <name>Track vom: 2017-10-30 08:46</name>
    <extensions>
      <gpxx:TrackExtension>
        <gpxx:DisplayColor>DarkGray</gpxx:DisplayColor>
      </gpxx:TrackExtension>
    </extensions>
    <trkseg>
      <trkpt lat="52.056227987632155" lon="9.059028010815382">
        <ele>340.92000000000002</ele>
        <time>2017-10-30T07:46:06Z</time>
      </trkpt>
      <trkpt lat="52.056411970406771" lon="9.059018958359957">
        <ele>340.44</ele>
        <time>2017-10-30T07:46:24Z</time>
      </trkpt>
      <trkpt lat="52.056412976235151" lon="9.058988029137254">
        <ele>339.95999999999998</ele>
        <time>2017-10-30T07:46:25Z</time>
      </trkpt>
      <trkpt lat="52.056413982063532" lon="9.058947041630745">
        <ele>339.48000000000002</ele>
        <time>2017-10-30T07:46:26Z</time>
      </trkpt>
      <trkpt lat="52.056414987891912" lon="9.058904964476824">
        <ele>339</ele>
        <time>2017-10-30T07:46:27Z</time>
      </trkpt>
      <trkpt lat="52.056415993720293" lon="9.058870011940599">
        <ele>338.51999999999998</ele>
        <time>2017-10-30T07:46:28Z</time>
      </trkpt>
      <trkpt lat="52.056416999548674" lon="9.058846039697528">
        <ele>338.51999999999998</ele>
        <time>2017-10-30T07:46:29Z</time>
      </trkpt>
      <trkpt lat="52.056416999548674" lon="9.058826006948948">
        <ele>338.04000000000002</ele>
        <time>2017-10-30T07:46:30Z</time>
      </trkpt>
      <trkpt lat="52.056418005377054" lon="9.058816032484174">
        <ele>337.56</ele>
        <time>2017-10-30T07:46:31Z</time>
      </trkpt>
      <trkpt lat="52.056420017033815" lon="9.058720981702209">
        <ele>334.19999999999999</ele>
        <time>2017-10-30T07:46:44Z</time>
      </trkpt>
      <trkpt lat="52.056420017033815" lon="9.058720981702209">
        <ele>333.23000000000002</ele>
        <time>2017-10-30T07:46:59Z</time>
      </trkpt>
      <trkpt lat="52.056418005377054" lon="9.058812009170651">
        <ele>333.23000000000002</ele>
        <time>2017-10-30T07:47:01Z</time>
      </trkpt>
      <trkpt lat="52.056416999548674" lon="9.058834975585342">
        <ele>331.79000000000002</ele>
        <time>2017-10-30T07:47:02Z</time>
      </trkpt>
      <trkpt lat="52.056414987891912" lon="9.058892978355289">
        <ele>329.38999999999999</ele>
        <time>2017-10-30T07:47:03Z</time>
      </trkpt>
      <trkpt lat="52.056412976235151" lon="9.058971013873816">
        <ele>327.94999999999999</ele>
        <time>2017-10-30T07:47:04Z</time>
      </trkpt>
      <trkpt lat="52.05640995875001" lon="9.059062041342259">
        <ele>326.99000000000001</ele>
        <time>2017-10-30T07:47:05Z</time>
      </trkpt>
      <trkpt lat="52.056471984833479" lon="9.060066025704145">
        <ele>315.44999999999999</ele>
        <time>2017-10-30T07:47:15Z</time>
      </trkpt>
      <trkpt lat="52.056490005925298" lon="9.060180019587278">
        <ele>314.49000000000001</ele>
        <time>2017-10-30T07:47:16Z</time>
      </trkpt>
      <trkpt lat="52.056506015360355" lon="9.060287978500128">
        <ele>313.52999999999997</ele>
        <time>2017-10-30T07:47:17Z</time>
      </trkpt>
      <trkpt lat="52.0565589889884" lon="9.060386968776584">
        <ele>312.56999999999999</ele>
        <time>2017-10-30T07:47:18Z</time>
      </trkpt>
      <trkpt lat="52.056611962616444" lon="9.06048595905304">
        <ele>311.60000000000002</ele>
        <time>2017-10-30T07:47:19Z</time>
      </trkpt>
      <trkpt lat="52.056664014235139" lon="9.060585033148527">
        <ele>310.63999999999999</ele>
        <time>2017-10-30T07:47:20Z</time>
      </trkpt>
      <trkpt lat="52.056698966771364" lon="9.060652004554868">
        <ele>310.16000000000003</ele>
        <time>2017-10-30T07:47:21Z</time>
      </trkpt>
      <trkpt lat="52.056773984804749" lon="9.060682011768222">
        <ele>309.19999999999999</ele>
        <time>2017-10-30T07:47:22Z</time>
      </trkpt>
      <trkpt lat="52.056835005059838" lon="9.060705984011293">
        <ele>308.72000000000003</ele>
        <time>2017-10-30T07:47:23Z</time>
      </trkpt>
      <trkpt lat="52.056879010051489" lon="9.060722999274731">
        <ele>307.75999999999999</ele>
        <time>2017-10-30T07:47:24Z</time>
      </trkpt>
      <trkpt lat="52.05690398812294" lon="9.060732973739505">
        <ele>306.80000000000001</ele>
        <time>2017-10-30T07:47:25Z</time>
      </trkpt>
      <trkpt lat="52.056918991729617" lon="9.060739008709788">
        <ele>306.31999999999999</ele>
        <time>2017-10-30T07:47:26Z</time>
      </trkpt>
      <trkpt lat="52.056931983679533" lon="9.060744037851691">
        <ele>305.83999999999997</ele>
        <time>2017-10-30T07:47:27Z</time>
      </trkpt>
      <trkpt lat="52.056931983679533" lon="9.060744037851691">
        <ele>303.43000000000001</ele>
        <time>2017-10-30T07:47:36Z</time>
      </trkpt>
      <trkpt lat="52.056973977014422" lon="9.060759963467717">
        <ele>302.94999999999999</ele>
        <time>2017-10-30T07:47:44Z</time>
      </trkpt>
      <trkpt lat="52.056976994499564" lon="9.060761975124478">
        <ele>302.47000000000003</ele>
        <time>2017-10-30T07:47:45Z</time>
      </trkpt>
      <trkpt lat="52.056928966194391" lon="9.060743032023311">
        <ele>302.47000000000003</ele>
        <time>2017-10-30T07:47:47Z</time>
      </trkpt>
      <trkpt lat="52.056907005608082" lon="9.060733979567885">
        <ele>302.47000000000003</ele>
        <time>2017-10-30T07:47:48Z</time>
      </trkpt>
      <trkpt lat="52.056742971763015" lon="9.060669019818306">
        <ele>301.99000000000001</ele>
        <time>2017-10-30T07:47:52Z</time>
      </trkpt>
      <trkpt lat="52.056686980649829" lon="9.060629038140178">
        <ele>301.99000000000001</ele>
        <time>2017-10-30T07:47:53Z</time>
      </trkpt>
      <trkpt lat="52.056642975658178" lon="9.060545973479748">
        <ele>301.99000000000001</ele>
        <time>2017-10-30T07:47:54Z</time>
      </trkpt>
      <trkpt lat="52.056595031172037" lon="9.060455029830337">
        <ele>301.99000000000001</ele>
        <time>2017-10-30T07:47:55Z</time>
      </trkpt>
      <trkpt lat="52.056544991210103" lon="9.060360984876752">
        <ele>302.47000000000003</ele>
        <time>2017-10-30T07:47:56Z</time>
      </trkpt>
      <trkpt lat="52.056499980390072" lon="9.060246990993619">
        <ele>302.47000000000003</ele>
        <time>2017-10-30T07:47:57Z</time>
      </trkpt>
      <trkpt lat="52.056481037288904" lon="9.060125034302473">
        <ele>302.94999999999999</ele>
        <time>2017-10-30T07:47:58Z</time>
      </trkpt>
      <trkpt lat="52.056463016197085" lon="9.060000982135534">
        <ele>303.43000000000001</ele>
        <time>2017-10-30T07:47:59Z</time>
      </trkpt>
      <trkpt lat="52.056405013427138" lon="9.059502007439733">
        <ele>304.88</ele>
        <time>2017-10-30T07:48:03Z</time>
      </trkpt>
      <trkpt lat="52.056409036740661" lon="9.059119038283825">
        <ele>306.31999999999999</ele>
        <time>2017-10-30T07:48:06Z</time>
      </trkpt>
      <trkpt lat="52.056411970406771" lon="9.059018036350608">
        <ele>306.80000000000001</ele>
        <time>2017-10-30T07:48:07Z</time>
      </trkpt>
      <trkpt lat="52.056413982063532" lon="9.058928014710546">
        <ele>307.27999999999997</ele>
        <time>2017-10-30T07:48:08Z</time>
      </trkpt>
      <trkpt lat="52.056415993720293" lon="9.058860037475824">
        <ele>308.24000000000001</ele>
        <time>2017-10-30T07:48:09Z</time>
      </trkpt>
      <trkpt lat="52.056418005377054" lon="9.058814020827413">
        <ele>308.72000000000003</ele>
        <time>2017-10-30T07:48:10Z</time>
      </trkpt>
      <trkpt lat="52.056419011205435" lon="9.058780996128917">
        <ele>309.19999999999999</ele>
        <time>2017-10-30T07:48:11Z</time>
      </trkpt>
      <trkpt lat="52.056419011205435" lon="9.058780996128917">
        <ele>310.16000000000003</ele>
        <time>2017-10-30T07:48:20Z</time>
      </trkpt>
      <trkpt lat="52.056419011205435" lon="9.058780996128917">
        <ele>310.16000000000003</ele>
        <time>2017-10-30T07:48:41Z</time>
      </trkpt>
      <trkpt lat="52.05640803091228" lon="9.058640012517571">
        <ele>312.08999999999997</ele>
        <time>2017-10-30T07:48:43Z</time>
      </trkpt>
      <trkpt lat="52.056354973465204" lon="9.05831404030323">
        <ele>314.97000000000003</ele>
        <time>2017-10-30T07:48:46Z</time>
      </trkpt>
      <trkpt lat="52.056334018707275" lon="9.058182025328279">
        <ele>315.93000000000001</ele>
        <time>2017-10-30T07:48:47Z</time>
      </trkpt>
      <trkpt lat="52.055857004597783" lon="9.056559959426522">
        <ele>327.47000000000003</ele>
        <time>2017-10-30T07:48:59Z</time>
      </trkpt>
      <trkpt lat="52.055717026814818" lon="9.056062996387482">
        <ele>331.79000000000002</ele>
        <time>2017-10-30T07:49:05Z</time>
      </trkpt>
      <trkpt lat="52.055752985179424" lon="9.056030977517366">
        <ele>332.26999999999998</ele>
        <time>2017-10-30T07:49:06Z</time>
      </trkpt>
      <trkpt lat="52.055853987112641" lon="9.055949002504349">
        <ele>333.70999999999998</ele>
        <time>2017-10-30T07:49:08Z</time>
      </trkpt>
      <trkpt lat="52.056007040664554" lon="9.055898040533066">
        <ele>334.68000000000001</ele>
        <time>2017-10-30T07:49:10Z</time>
      </trkpt>
      <trkpt lat="52.056102007627487" lon="9.055866021662951">
        <ele>335.16000000000003</ele>
        <time>2017-10-30T07:49:11Z</time>
      </trkpt>
      <trkpt lat="52.056208038702607" lon="9.055849006399512">
        <ele>335.16000000000003</ele>
        <time>2017-10-30T07:49:12Z</time>
      </trkpt>
      <trkpt lat="52.056320020928979" lon="9.055855041369796">
        <ele>335.16000000000003</ele>
        <time>2017-10-30T07:49:13Z</time>
      </trkpt>
      <trkpt lat="52.056435020640492" lon="9.055863004177809">
        <ele>334.68000000000001</ele>
        <time>2017-10-30T07:49:14Z</time>
      </trkpt>
      <trkpt lat="52.057994976639748" lon="9.055955037474632">
        <ele>334.19999999999999</ele>
        <time>2017-10-30T07:49:26Z</time>
      </trkpt>
      <trkpt lat="52.058984041213989" lon="9.055921006947756">
        <ele>329.87</ele>
        <time>2017-10-30T07:49:32Z</time>
      </trkpt>
      <trkpt lat="52.059156037867069" lon="9.055872978642583">
        <ele>328.91000000000003</ele>
        <time>2017-10-30T07:49:33Z</time>
      </trkpt>
      <trkpt lat="52.061238018795848" lon="9.054845022037625">
        <ele>321.69999999999999</ele>
        <time>2017-10-30T07:49:45Z</time>
      </trkpt>
      <trkpt lat="52.062814990058541" lon="9.054450988769531">
        <ele>327.47000000000003</ele>
        <time>2017-10-30T07:49:55Z</time>
      </trkpt>
      <trkpt lat="52.063056975603104" lon="9.054285027086735">
        <ele>327.47000000000003</ele>
        <time>2017-10-30T07:49:57Z</time>
      </trkpt>
      <trkpt lat="52.063179016113281" lon="9.054201962426305">
        <ele>326.99000000000001</ele>
        <time>2017-10-30T07:49:58Z</time>
      </trkpt>
      <trkpt lat="52.064461028203368" lon="9.053152967244387">
        <ele>321.22000000000003</ele>
        <time>2017-10-30T07:50:07Z</time>
      </trkpt>
      <trkpt lat="52.065804982557893" lon="9.052014034241438">
        <ele>315.93000000000001</ele>
        <time>2017-10-30T07:50:16Z</time>
      </trkpt>
      <trkpt lat="52.066906029358506" lon="9.050895972177386">
        <ele>313.05000000000001</ele>
        <time>2017-10-30T07:50:24Z</time>
      </trkpt>
      <trkpt lat="52.067932980135083" lon="9.049848988652229">
        <ele>311.12</ele>
        <time>2017-10-30T07:50:32Z</time>
      </trkpt>
      <trkpt lat="52.068052003160119" lon="9.049676991999149">
        <ele>311.60000000000002</ele>
        <time>2017-10-30T07:50:33Z</time>
      </trkpt>
      <trkpt lat="52.069136034697294" lon="9.047735994681716">
        <ele>312.08999999999997</ele>
        <time>2017-10-30T07:50:43Z</time>
      </trkpt>
      <trkpt lat="52.069625034928322" lon="9.046940971165896">
        <ele>312.08999999999997</ele>
        <time>2017-10-30T07:50:48Z</time>
      </trkpt>
      <trkpt lat="52.069944972172379" lon="9.04667099006474">
        <ele>311.60000000000002</ele>
        <time>2017-10-30T07:50:51Z</time>
      </trkpt>
      <trkpt lat="52.071037972345948" lon="9.045903962105513">
        <ele>312.08999999999997</ele>
        <time>2017-10-30T07:51:00Z</time>
      </trkpt>
      <trkpt lat="52.071278030052781" lon="9.045735988765955">
        <ele>312.08999999999997</ele>
        <time>2017-10-30T07:51:03Z</time>
      </trkpt>
      <trkpt lat="52.071349024772644" lon="9.045686032623053">
        <ele>312.56999999999999</ele>
        <time>2017-10-30T07:51:04Z</time>
      </trkpt>
      <trkpt lat="52.071417002007365" lon="9.04563800431788">
        <ele>312.56999999999999</ele>
        <time>2017-10-30T07:51:05Z</time>
      </trkpt>
      <trkpt lat="52.071612970903516" lon="9.045500960201025">
        <ele>313.52999999999997</ele>
        <time>2017-10-30T07:51:09Z</time>
      </trkpt>
      <trkpt lat="52.071638032793999" lon="9.045484028756619">
        <ele>313.52999999999997</ele>
        <time>2017-10-30T07:51:10Z</time>
      </trkpt>
      <trkpt lat="52.071667034178972" lon="9.045463996008039">
        <ele>313.52999999999997</ele>
        <time>2017-10-30T07:51:11Z</time>
      </trkpt>
      <trkpt lat="52.071686983108521" lon="9.045448992401362">
        <ele>313.52999999999997</ele>
        <time>2017-10-30T07:51:12Z</time>
      </trkpt>
      <trkpt lat="52.071705004200339" lon="9.045437006279826">
        <ele>313.52999999999997</ele>
        <time>2017-10-30T07:51:13Z</time>
      </trkpt>
      <trkpt lat="52.071727970615029" lon="9.045420996844769">
        <ele>314.00999999999999</ele>
        <time>2017-10-30T07:51:14Z</time>
      </trkpt>
      <trkpt lat="52.071754960343242" lon="9.045401969924569">
        <ele>314.00999999999999</ele>
        <time>2017-10-30T07:51:15Z</time>
      </trkpt>
      <trkpt lat="52.071798965334892" lon="9.045371040701866">
        <ele>314.49000000000001</ele>
        <time>2017-10-30T07:51:17Z</time>
      </trkpt>
      <trkpt lat="52.071798965334892" lon="9.045371040701866">
        <ele>314.97000000000003</ele>
        <time>2017-10-30T07:51:32Z</time>
      </trkpt>
      <trkpt lat="52.071798965334892" lon="9.045371040701866">
        <ele>314.97000000000003</ele>
        <time>2017-10-30T07:52:16Z</time>
      </trkpt>
      <trkpt lat="52.07183500751853" lon="9.045345978811383">
        <ele>315.93000000000001</ele>
        <time>2017-10-30T07:52:22Z</time>
      </trkpt>
      <trkpt lat="52.071923017501831" lon="9.045284036546946">
        <ele>316.88999999999999</ele>
        <time>2017-10-30T07:52:24Z</time>
      </trkpt>
      <trkpt lat="52.072275979444385" lon="9.045046996325254">
        <ele>318.32999999999998</ele>
        <time>2017-10-30T07:52:28Z</time>
      </trkpt>
      <trkpt lat="52.073377026244998" lon="9.04428600333631">
        <ele>317.85000000000002</ele>
        <time>2017-10-30T07:52:38Z</time>
      </trkpt>
      <trkpt lat="52.073592022061348" lon="9.04411300085485">
        <ele>318.32999999999998</ele>
        <time>2017-10-30T07:52:40Z</time>
      </trkpt>
      <trkpt lat="52.073862003162503" lon="9.043706981465221">
        <ele>319.77999999999997</ele>
        <time>2017-10-30T07:52:43Z</time>
      </trkpt>
      <trkpt lat="52.074098959565163" lon="9.043188979849219">
        <ele>321.22000000000003</ele>
        <time>2017-10-30T07:52:46Z</time>
      </trkpt>
      <trkpt lat="52.074823994189501" lon="9.040874987840653">
        <ele>320.74000000000001</ele>
        <time>2017-10-30T07:52:56Z</time>
      </trkpt>
      <trkpt lat="52.075255997478962" lon="9.039314026013017">
        <ele>319.77999999999997</ele>
        <time>2017-10-30T07:53:03Z</time>
      </trkpt>
      <trkpt lat="52.075289022177458" lon="9.039112022146583">
        <ele>319.77999999999997</ele>
        <time>2017-10-30T07:53:04Z</time>
      </trkpt>
      <trkpt lat="52.075298996642232" lon="9.03889199718833">
        <ele>319.30000000000001</ele>
        <time>2017-10-30T07:53:05Z</time>
      </trkpt>
      <trkpt lat="52.075291033834219" lon="9.038668032735586">
        <ele>319.30000000000001</ele>
        <time>2017-10-30T07:53:06Z</time>
      </trkpt>
      <trkpt lat="52.075282987207174" lon="9.038436021655798">
        <ele>319.30000000000001</ele>
        <time>2017-10-30T07:53:07Z</time>
      </trkpt>
      <trkpt lat="52.075278041884303" lon="9.03715199790895">
        <ele>318.32999999999998</ele>
        <time>2017-10-30T07:53:13Z</time>
      </trkpt>
      <trkpt lat="52.075289022177458" lon="9.036967009305954">
        <ele>317.85000000000002</ele>
        <time>2017-10-30T07:53:14Z</time>
      </trkpt>
      <trkpt lat="52.075318023562431" lon="9.036805992946029">
        <ele>317.85000000000002</ele>
        <time>2017-10-30T07:53:15Z</time>
      </trkpt>
      <trkpt lat="52.075389018282294" lon="9.036657968536019">
        <ele>317.37</ele>
        <time>2017-10-30T07:53:16Z</time>
      </trkpt>
      <trkpt lat="52.075461018830538" lon="9.036534000188112">
        <ele>316.88999999999999</ele>
        <time>2017-10-30T07:53:17Z</time>
      </trkpt>
      <trkpt lat="52.075532013550401" lon="9.036411959677935">
        <ele>316.41000000000003</ele>
        <time>2017-10-30T07:53:18Z</time>
      </trkpt>
      <trkpt lat="52.07574600353837" lon="9.036020021885634">
        <ele>314.49000000000001</ele>
        <time>2017-10-30T07:53:22Z</time>
      </trkpt>
      <trkpt lat="52.075778022408485" lon="9.035962019115686">
        <ele>314.49000000000001</ele>
        <time>2017-10-30T07:53:23Z</time>
      </trkpt>
      <trkpt lat="52.075805012136698" lon="9.035910973325372">
        <ele>314.00999999999999</ele>
        <time>2017-10-30T07:53:24Z</time>
      </trkpt>
      <trkpt lat="52.075882963836193" lon="9.035883983597159">
        <ele>313.52999999999997</ele>
        <time>2017-10-30T07:53:25Z</time>
      </trkpt>
      <trkpt lat="52.075925962999463" lon="9.035920025780797">
        <ele>313.05000000000001</ele>
        <time>2017-10-30T07:53:26Z</time>
      </trkpt>
      <trkpt lat="52.075984971597791" lon="9.035969981923699">
        <ele>312.56999999999999</ele>
        <time>2017-10-30T07:53:27Z</time>
      </trkpt>
      <trkpt lat="52.076055966317654" lon="9.036029996350408">
        <ele>312.56999999999999</ele>
        <time>2017-10-30T07:53:28Z</time>
      </trkpt>
      <trkpt lat="52.076130984351039" lon="9.036111971363425">
        <ele>312.56999999999999</ele>
        <time>2017-10-30T07:53:29Z</time>
      </trkpt>
      <trkpt lat="52.07619602791965" lon="9.036259995773435">
        <ele>312.56999999999999</ele>
        <time>2017-10-30T07:53:30Z</time>
      </trkpt>
      <trkpt lat="52.076266016811132" lon="9.03642101213336">
        <ele>312.56999999999999</ele>
        <time>2017-10-30T07:53:31Z</time>
      </trkpt>
      <trkpt lat="52.076423009857535" lon="9.036783026531339">
        <ele>313.05000000000001</ele>
        <time>2017-10-30T07:53:33Z</time>
      </trkpt>
      <trkpt lat="52.076508002355695" lon="9.036978995427489">
        <ele>313.05000000000001</ele>
        <time>2017-10-30T07:53:34Z</time>
      </trkpt>
      <trkpt lat="52.076581008732319" lon="9.037192985415459">
        <ele>312.56999999999999</ele>
        <time>2017-10-30T07:53:35Z</time>
      </trkpt>
      <trkpt lat="52.077350970357656" lon="9.040051968768239">
        <ele>304.88</ele>
        <time>2017-10-30T07:53:46Z</time>
      </trkpt>
      <trkpt lat="52.077470999211073" lon="9.040565025061369">
        <ele>302.94999999999999</ele>
        <time>2017-10-30T07:53:48Z</time>
      </trkpt>
      <trkpt lat="52.077505029737949" lon="9.040834000334144">
        <ele>301.99000000000001</ele>
        <time>2017-10-30T07:53:49Z</time>
      </trkpt>
      <trkpt lat="52.077596979215741" lon="9.042182983830571">
        <ele>296.22000000000003</ele>
        <time>2017-10-30T07:53:54Z</time>
      </trkpt>
      <trkpt lat="52.077770987525582" lon="9.045114973559976">
        <ele>285.64999999999998</ele>
        <time>2017-10-30T07:54:05Z</time>
      </trkpt>
      <trkpt lat="52.077871989458799" lon="9.046257007867098">
        <ele>281.80000000000001</ele>
        <time>2017-10-30T07:54:10Z</time>
      </trkpt>
      <trkpt lat="52.077920017763972" lon="9.046429004520178">
        <ele>281.31999999999999</ele>
        <time>2017-10-30T07:54:11Z</time>
      </trkpt>
      <trkpt lat="52.077995035797358" lon="9.046564036980271">
        <ele>280.83999999999997</ele>
        <time>2017-10-30T07:54:12Z</time>
      </trkpt>
      <trkpt lat="52.078095031902194" lon="9.046664033085108">
        <ele>280.36000000000001</ele>
        <time>2017-10-30T07:54:13Z</time>
      </trkpt>
      <trkpt lat="52.078201984986663" lon="9.046770986169577">
        <ele>279.88</ele>
        <time>2017-10-30T07:54:14Z</time>
      </trkpt>
      <trkpt lat="52.078327964991331" lon="9.04684198088944">
        <ele>279.39999999999998</ele>
        <time>2017-10-30T07:54:15Z</time>
      </trkpt>
      <trkpt lat="52.079649036750197" lon="9.047771031036973">
        <ele>272.19</ele>
        <time>2017-10-30T07:54:24Z</time>
      </trkpt>
      <trkpt lat="52.07978499121964" lon="9.047951996326447">
        <ele>271.70999999999998</ele>
        <time>2017-10-30T07:54:25Z</time>
      </trkpt>
      <trkpt lat="52.079918012022972" lon="9.048140002414584">
        <ele>271.23000000000002</ele>
        <time>2017-10-30T07:54:26Z</time>
      </trkpt>
      <trkpt lat="52.080950997769833" lon="9.050401020795107">
        <ele>267.86000000000001</ele>
        <time>2017-10-30T07:54:36Z</time>
      </trkpt>
      <trkpt lat="52.081562038511038" lon="9.051789985969663">
        <ele>266.42000000000002</ele>
        <time>2017-10-30T07:54:44Z</time>
      </trkpt>
      <trkpt lat="52.081659017130733" lon="9.052086034789681">
        <ele>266.42000000000002</ele>
        <time>2017-10-30T07:54:46Z</time>
      </trkpt>
      <trkpt lat="52.081744009628892" lon="9.052142025902867">
        <ele>266.42000000000002</ele>
        <time>2017-10-30T07:54:47Z</time>
      </trkpt>
      <trkpt lat="52.081838976591825" lon="9.052203968167305">
        <ele>266.42000000000002</ele>
        <time>2017-10-30T07:54:48Z</time>
      </trkpt>
      <trkpt lat="52.08307296037674" lon="9.053012989461422">
        <ele>263.54000000000002</ele>
        <time>2017-10-30T07:54:59Z</time>
      </trkpt>
      <trkpt lat="52.08412597887218" lon="9.053689995780587">
        <ele>260.64999999999998</ele>
        <time>2017-10-30T07:55:07Z</time>
      </trkpt>
      <trkpt lat="52.085340013727546" lon="9.054261976853013">
        <ele>259.69</ele>
        <time>2017-10-30T07:55:15Z</time>
      </trkpt>
      <trkpt lat="52.086590006947517" lon="9.054837981238961">
        <ele>260.64999999999998</ele>
        <time>2017-10-30T07:55:24Z</time>
      </trkpt>
      <trkpt lat="52.086684973910451" lon="9.054932026192546">
        <ele>260.64999999999998</ele>
        <time>2017-10-30T07:55:25Z</time>
      </trkpt>
      <trkpt lat="52.086730990558863" lon="9.055075021460652">
        <ele>260.64999999999998</ele>
        <time>2017-10-30T07:55:26Z</time>
      </trkpt>
      <trkpt lat="52.086772983893752" lon="9.055233020335436">
        <ele>261.13999999999999</ele>
        <time>2017-10-30T07:55:27Z</time>
      </trkpt>
      <trkpt lat="52.086808020249009" lon="9.055405016988516">
        <ele>261.13999999999999</ele>
        <time>2017-10-30T07:55:28Z</time>
      </trkpt>
      <trkpt lat="52.086822018027306" lon="9.055608026683331">
        <ele>261.62</ele>
        <time>2017-10-30T07:55:29Z</time>
      </trkpt>
      <trkpt lat="52.086968030780554" lon="9.057638961821795">
        <ele>261.13999999999999</ele>
        <time>2017-10-30T07:55:38Z</time>
      </trkpt>
      <trkpt lat="52.086993008852005" lon="9.057822022587061">
        <ele>260.64999999999998</ele>
        <time>2017-10-30T07:55:39Z</time>
      </trkpt>
      <trkpt lat="52.087018992751837" lon="9.058012962341309">
        <ele>260.17000000000002</ele>
        <time>2017-10-30T07:55:40Z</time>
      </trkpt>
      <trkpt lat="52.087061991915107" lon="9.058119999244809">
        <ele>259.69</ele>
        <time>2017-10-30T07:55:41Z</time>
      </trkpt>
      <trkpt lat="52.087172968313098" lon="9.058168027549982">
        <ele>259.20999999999998</ele>
        <time>2017-10-30T07:55:42Z</time>
      </trkpt>
      <trkpt lat="52.087270030751824" lon="9.058175990357995">
        <ele>258.73000000000002</ele>
        <time>2017-10-30T07:55:43Z</time>
      </trkpt>
      <trkpt lat="52.087381007149816" lon="9.058159980922937">
        <ele>257.76999999999998</ele>
        <time>2017-10-30T07:55:44Z</time>
      </trkpt>
      <trkpt lat="52.087503969669342" lon="9.058141959831119">
        <ele>257.29000000000002</ele>
        <time>2017-10-30T07:55:45Z</time>
      </trkpt>
      <trkpt lat="52.088027000427246" lon="9.058066019788384">
        <ele>253.93000000000001</ele>
        <time>2017-10-30T07:55:49Z</time>
      </trkpt>
      <trkpt lat="52.088128002360463" lon="9.058085968717933">
        <ele>252.47999999999999</ele>
        <time>2017-10-30T07:55:50Z</time>
      </trkpt>
      <trkpt lat="52.0882089715451" lon="9.058153023943305">
        <ele>251.03999999999999</ele>
        <time>2017-10-30T07:55:51Z</time>
      </trkpt>
      <trkpt lat="52.088258005678654" lon="9.058275986462832">
        <ele>249.59999999999999</ele>
        <time>2017-10-30T07:55:52Z</time>
      </trkpt>
      <trkpt lat="52.088307039812207" lon="9.05842300504446">
        <ele>248.63999999999999</ele>
        <time>2017-10-30T07:55:53Z</time>
      </trkpt>
      <trkpt lat="52.088321037590504" lon="9.058606987819076">
        <ele>247.68000000000001</ele>
        <time>2017-10-30T07:55:54Z</time>
      </trkpt>
      <trkpt lat="52.088336041197181" lon="9.05880999751389">
        <ele>246.72</ele>
        <time>2017-10-30T07:55:55Z</time>
      </trkpt>
      <trkpt lat="52.088352972641587" lon="9.059022981673479">
        <ele>245.75</ele>
        <time>2017-10-30T07:55:56Z</time>
      </trkpt>
      <trkpt lat="52.08852899260819" lon="9.061320964246988">
        <ele>238.53999999999999</ele>
        <time>2017-10-30T07:56:05Z</time>
      </trkpt>
      <trkpt lat="52.088770978152752" lon="9.064478008076549">
        <ele>230.84999999999999</ele>
        <time>2017-10-30T07:56:17Z</time>
      </trkpt>
      <trkpt lat="52.088827975094318" lon="9.065214022994041">
        <ele>228.44999999999999</ele>
        <time>2017-10-30T07:56:20Z</time>
      </trkpt>
      <trkpt lat="52.088845996186137" lon="9.06544997356832">
        <ele>227.49000000000001</ele>
        <time>2017-10-30T07:56:21Z</time>
      </trkpt>
      <trkpt lat="52.088864017277956" lon="9.06568500213325">
        <ele>226.05000000000001</ele>
        <time>2017-10-30T07:56:22Z</time>
      </trkpt>
      <trkpt lat="52.088891007006168" lon="9.065905027091503">
        <ele>225.09</ele>
        <time>2017-10-30T07:56:23Z</time>
      </trkpt>
      <trkpt lat="52.088928977027535" lon="9.066109964624047">
        <ele>224.61000000000001</ele>
        <time>2017-10-30T07:56:24Z</time>
      </trkpt>
      <trkpt lat="52.088988991454244" lon="9.066305011510849">
        <ele>223.63999999999999</ele>
        <time>2017-10-30T07:56:25Z</time>
      </trkpt>
      <trkpt lat="52.089048000052571" lon="9.066496035084128">
        <ele>223.16</ele>
        <time>2017-10-30T07:56:26Z</time>
      </trkpt>
      <trkpt lat="52.089165011420846" lon="9.066881015896797">
        <ele>222.68000000000001</ele>
        <time>2017-10-30T07:56:28Z</time>
      </trkpt>
      <trkpt lat="52.089228965342045" lon="9.067089976742864">
        <ele>222.19999999999999</ele>
        <time>2017-10-30T07:56:29Z</time>
      </trkpt>
      <trkpt lat="52.089241035282612" lon="9.067298015579581">
        <ele>222.19999999999999</ele>
        <time>2017-10-30T07:56:30Z</time>
      </trkpt>
      <trkpt lat="52.089294008910656" lon="9.068227987736464">
        <ele>221.24000000000001</ele>
        <time>2017-10-30T07:56:34Z</time>
      </trkpt>
      <trkpt lat="52.089308006688952" lon="9.068467039614916">
        <ele>220.75999999999999</ele>
        <time>2017-10-30T07:56:35Z</time>
      </trkpt>
      <trkpt lat="52.089609000831842" lon="9.070461010560393">
        <ele>215.94999999999999</ele>
        <time>2017-10-30T07:56:43Z</time>
      </trkpt>
      <trkpt lat="52.090044021606445" lon="9.07266796566546">
        <ele>209.22</ele>
        <time>2017-10-30T07:56:52Z</time>
      </trkpt>
      <trkpt lat="52.090238984674215" lon="9.073446979746223">
        <ele>206.34</ele>
        <time>2017-10-30T07:56:56Z</time>
      </trkpt>
      <trkpt lat="52.090422967448831" lon="9.07393497414887">
        <ele>205.38</ele>
        <time>2017-10-30T07:56:59Z</time>
      </trkpt>
      <trkpt lat="52.090746005997062" lon="9.074565041810274">
        <ele>203.46000000000001</ele>
        <time>2017-10-30T07:57:03Z</time>
      </trkpt>
      <trkpt lat="52.090853964909911" lon="9.07466696575284">
        <ele>203.46000000000001</ele>
        <time>2017-10-30T07:57:04Z</time>
      </trkpt>
      <trkpt lat="52.090973993763328" lon="9.074774002656341">
        <ele>202.97999999999999</ele>
        <time>2017-10-30T07:57:05Z</time>
      </trkpt>
      <trkpt lat="52.091244980692863" lon="9.074968965724111">
        <ele>202.49000000000001</ele>
        <time>2017-10-30T07:57:07Z</time>
      </trkpt>
      <trkpt lat="52.091391999274492" lon="9.075049012899399">
        <ele>202.00999999999999</ele>
        <time>2017-10-30T07:57:08Z</time>
      </trkpt>
      <trkpt lat="52.092906022444367" lon="9.075883012264967">
        <ele>195.77000000000001</ele>
        <time>2017-10-30T07:57:18Z</time>
      </trkpt>
      <trkpt lat="52.094132965430617" lon="9.076353991404176">
        <ele>193.36000000000001</ele>
        <time>2017-10-30T07:57:26Z</time>
      </trkpt>
      <trkpt lat="52.094751968979836" lon="9.07674802467227">
        <ele>191.91999999999999</ele>
        <time>2017-10-30T07:57:31Z</time>
      </trkpt>
      <trkpt lat="52.094879960641265" lon="9.07679102383554">
        <ele>191.44</ele>
        <time>2017-10-30T07:57:32Z</time>
      </trkpt>
      <trkpt lat="52.095015998929739" lon="9.076778031885624">
        <ele>191.44</ele>
        <time>2017-10-30T07:57:33Z</time>
      </trkpt>
      <trkpt lat="52.095155976712704" lon="9.076722040772438">
        <ele>190.47999999999999</ele>
        <time>2017-10-30T07:57:34Z</time>
      </trkpt>
      <trkpt lat="52.095296960324049" lon="9.076647022739053">
        <ele>190</ele>
        <time>2017-10-30T07:57:35Z</time>
      </trkpt>
      <trkpt lat="52.09542696364224" lon="9.076530011370778">
        <ele>189.03999999999999</ele>
        <time>2017-10-30T07:57:36Z</time>
      </trkpt>
      <trkpt lat="52.095550009980798" lon="9.076394978910685">
        <ele>188.56</ele>
        <time>2017-10-30T07:57:37Z</time>
      </trkpt>
      <trkpt lat="52.095671966671944" lon="9.076248966157436">
        <ele>188.08000000000001</ele>
        <time>2017-10-30T07:57:38Z</time>
      </trkpt>
      <trkpt lat="52.096942998468876" lon="9.074717005714774">
        <ele>183.27000000000001</ele>
        <time>2017-10-30T07:57:49Z</time>
      </trkpt>
      <trkpt lat="52.09731699898839" lon="9.074377035722137">
        <ele>180.38</ele>
        <time>2017-10-30T07:57:53Z</time>
      </trkpt>
      <trkpt lat="52.097388999536633" lon="9.07438600435853">
        <ele>179.41999999999999</ele>
        <time>2017-10-30T07:57:54Z</time>
      </trkpt>
      <trkpt lat="52.097470974549651" lon="9.074422968551517">
        <ele>178.46000000000001</ele>
        <time>2017-10-30T07:57:55Z</time>
      </trkpt>
      <trkpt lat="52.097557978704572" lon="9.074463034048677">
        <ele>177.5</ele>
        <time>2017-10-30T07:57:56Z</time>
      </trkpt>
      <trkpt lat="52.097630985081196" lon="9.074544003233314">
        <ele>176.06</ele>
        <time>2017-10-30T07:57:57Z</time>
      </trkpt>
      <trkpt lat="52.097721006721258" lon="9.07466403208673">
        <ele>175.09999999999999</ele>
        <time>2017-10-30T07:57:58Z</time>
      </trkpt>
      <trkpt lat="52.097817985340953" lon="9.07479302957654">
        <ele>174.13999999999999</ele>
        <time>2017-10-30T07:57:59Z</time>
      </trkpt>
      <trkpt lat="52.097915969789028" lon="9.074924038723111">
        <ele>173.16999999999999</ele>
        <time>2017-10-30T07:58:00Z</time>
      </trkpt>
      <trkpt lat="52.098216963931918" lon="9.075296027585864">
        <ele>170.28999999999999</ele>
        <time>2017-10-30T07:58:03Z</time>
      </trkpt>
      <trkpt lat="52.099309964105487" lon="9.075917964801192">
        <ele>165.47999999999999</ele>
        <time>2017-10-30T07:58:12Z</time>
      </trkpt>
      <trkpt lat="52.100603962317109" lon="9.076710976660252">
        <ele>160.19999999999999</ele>
        <time>2017-10-30T07:58:24Z</time>
      </trkpt>
      <trkpt lat="52.101715989410877" lon="9.077198971062899">
        <ele>155.87</ele>
        <time>2017-10-30T07:58:34Z</time>
      </trkpt>
      <trkpt lat="52.10320302285254" lon="9.077444979920983">
        <ele>152.03</ele>
        <time>2017-10-30T07:58:47Z</time>
      </trkpt>
      <trkpt lat="52.104808995500207" lon="9.077395023778081">
        <ele>141.93000000000001</ele>
        <time>2017-10-30T07:59:02Z</time>
      </trkpt>
      <trkpt lat="52.105194982141256" lon="9.077334003522992">
        <ele>138.56999999999999</ele>
        <time>2017-10-30T07:59:08Z</time>
      </trkpt>
      <trkpt lat="52.105230018496513" lon="9.077326040714979">
        <ele>138.09</ele>
        <time>2017-10-30T07:59:09Z</time>
      </trkpt>
      <trkpt lat="52.105236975476146" lon="9.07728798687458">
        <ele>137.61000000000001</ele>
        <time>2017-10-30T07:59:10Z</time>
      </trkpt>
      <trkpt lat="52.105236975476146" lon="9.077194025740027">
        <ele>137.13</ele>
        <time>2017-10-30T07:59:11Z</time>
      </trkpt>
      <trkpt lat="52.105236975476146" lon="9.077083971351385">
        <ele>137.13</ele>
        <time>2017-10-30T07:59:12Z</time>
      </trkpt>
      <trkpt lat="52.105248961597681" lon="9.07694298774004">
        <ele>136.63999999999999</ele>
        <time>2017-10-30T07:59:13Z</time>
      </trkpt>
      <trkpt lat="52.105275029316545" lon="9.07681399025023">
        <ele>136.63999999999999</ele>
        <time>2017-10-30T07:59:14Z</time>
      </trkpt>
      <trkpt lat="52.105304030701518" lon="9.076668983325362">
        <ele>136.63999999999999</ele>
        <time>2017-10-30T07:59:15Z</time>
      </trkpt>
      <trkpt lat="52.105340994894505" lon="9.076522970572114">
        <ele>136.63999999999999</ele>
        <time>2017-10-30T07:59:16Z</time>
      </trkpt>
      <trkpt lat="52.105478039011359" lon="9.075680002570152">
        <ele>138.09</ele>
        <time>2017-10-30T07:59:21Z</time>
      </trkpt>
      <trkpt lat="52.105472004041076" lon="9.073534989729524">
        <ele>140.97</ele>
        <time>2017-10-30T07:59:31Z</time>
      </trkpt>
      <trkpt lat="52.105418024584651" lon="9.070716993883252">
        <ele>144.34</ele>
        <time>2017-10-30T07:59:42Z</time>
      </trkpt>
      <trkpt lat="52.105427999049425" lon="9.069167012348771">
        <ele>142.88999999999999</ele>
        <time>2017-10-30T07:59:49Z</time>
      </trkpt>
      <trkpt lat="52.105513997375965" lon="9.068883033469319">
        <ele>142.88999999999999</ele>
        <time>2017-10-30T07:59:50Z</time>
      </trkpt>
      <trkpt lat="52.105597984045744" lon="9.068830981850624">
        <ele>142.88999999999999</ele>
        <time>2017-10-30T07:59:51Z</time>
      </trkpt>
      <trkpt lat="52.105704015120864" lon="9.068766022101045">
        <ele>142.88999999999999</ele>
        <time>2017-10-30T07:59:52Z</time>
      </trkpt>
      <trkpt lat="52.1058230381459" lon="9.06869200989604">
        <ele>142.88999999999999</ele>
        <time>2017-10-30T07:59:53Z</time>
      </trkpt>
      <trkpt lat="52.105951029807329" lon="9.068612968549132">
        <ele>143.37</ele>
        <time>2017-10-30T07:59:54Z</time>
      </trkpt>
      <trkpt lat="52.106865998357534" lon="9.067605966702104">
        <ele>144.34</ele>
        <time>2017-10-30T08:00:01Z</time>
      </trkpt>
      <trkpt lat="52.107463041320443" lon="9.066262012347579">
        <ele>145.30000000000001</ele>
        <time>2017-10-30T08:00:07Z</time>
      </trkpt>
      <trkpt lat="52.108483035117388" lon="9.063051994889975">
        <ele>150.09999999999999</ele>
        <time>2017-10-30T08:00:20Z</time>
      </trkpt>
      <trkpt lat="52.109030960127711" lon="9.060511020943523">
        <ele>153.94999999999999</ele>
        <time>2017-10-30T08:00:30Z</time>
      </trkpt>
      <trkpt lat="52.108955020084977" lon="9.058333989232779">
        <ele>155.38999999999999</ele>
        <time>2017-10-30T08:00:38Z</time>
      </trkpt>
      <trkpt lat="52.108910009264946" lon="9.055945985019207">
        <ele>153.94999999999999</ele>
        <time>2017-10-30T08:00:47Z</time>
      </trkpt>
      <trkpt lat="52.10913497954607" lon="9.054373959079385">
        <ele>149.62</ele>
        <time>2017-10-30T08:00:54Z</time>
      </trkpt>
      <trkpt lat="52.109175967052579" lon="9.054187964648008">
        <ele>148.66</ele>
        <time>2017-10-30T08:00:55Z</time>
      </trkpt>
      <trkpt lat="52.109242016449571" lon="9.054041029885411">
        <ele>148.18000000000001</ele>
        <time>2017-10-30T08:00:56Z</time>
      </trkpt>
      <trkpt lat="52.109391968697309" lon="9.0538240224123">
        <ele>146.25999999999999</ele>
        <time>2017-10-30T08:00:58Z</time>
      </trkpt>
      <trkpt lat="52.109472015872598" lon="9.053723020479083">
        <ele>145.30000000000001</ele>
        <time>2017-10-30T08:00:59Z</time>
      </trkpt>
      <trkpt lat="52.109560025855899" lon="9.05365202575922">
        <ele>144.34</ele>
        <time>2017-10-30T08:01:00Z</time>
      </trkpt>
      <trkpt lat="52.109662033617496" lon="9.053600979968905">
        <ele>143.37</ele>
        <time>2017-10-30T08:01:01Z</time>
      </trkpt>
      <trkpt lat="52.109765969216824" lon="9.053558986634016">
        <ele>142.41</ele>
        <time>2017-10-30T08:01:02Z</time>
      </trkpt>
      <trkpt lat="52.111029038205743" lon="9.053195966407657">
        <ele>137.13</ele>
        <time>2017-10-30T08:01:13Z</time>
      </trkpt>
      <trkpt lat="52.111931014806032" lon="9.052933026105166">
        <ele>134.72</ele>
        <time>2017-10-30T08:01:21Z</time>
      </trkpt>
      <trkpt lat="52.112482963129878" lon="9.052705960348249">
        <ele>133.28</ele>
        <time>2017-10-30T08:01:26Z</time>
      </trkpt>
      <trkpt lat="52.112597040832043" lon="9.052627002820373">
        <ele>133.28</ele>
        <time>2017-10-30T08:01:27Z</time>
      </trkpt>
      <trkpt lat="52.112665018066764" lon="9.05251300893724">
        <ele>133.28</ele>
        <time>2017-10-30T08:01:28Z</time>
      </trkpt>
      <trkpt lat="52.112737018615007" lon="9.052380993962288">
        <ele>133.28</ele>
        <time>2017-10-30T08:01:29Z</time>
      </trkpt>
      <trkpt lat="52.112792003899813" lon="9.052231041714549">
        <ele>133.28</ele>
        <time>2017-10-30T08:01:30Z</time>
      </trkpt>
      <trkpt lat="52.112818993628025" lon="9.052060972899199">
        <ele>133.28</ele>
        <time>2017-10-30T08:01:31Z</time>
      </trkpt>
      <trkpt lat="52.112831985577941" lon="9.051886964589357">
        <ele>133.28</ele>
        <time>2017-10-30T08:01:32Z</time>
      </trkpt>
      <trkpt lat="52.112811030820012" lon="9.051717985421419">
        <ele>133.28</ele>
        <time>2017-10-30T08:01:33Z</time>
      </trkpt>
      <trkpt lat="52.11278697475791" lon="9.051543977111578">
        <ele>133.28</ele>
        <time>2017-10-30T08:01:34Z</time>
      </trkpt>
      <trkpt lat="52.112763002514839" lon="9.051368962973356">
        <ele>133.75999999999999</ele>
        <time>2017-10-30T08:01:35Z</time>
      </trkpt>
      <trkpt lat="52.112738024443388" lon="9.051191015169025">
        <ele>134.24000000000001</ele>
        <time>2017-10-30T08:01:36Z</time>
      </trkpt>
      <trkpt lat="52.112634005025029" lon="9.05047201551497">
        <ele>137.13</ele>
        <time>2017-10-30T08:01:40Z</time>
      </trkpt>
      <trkpt lat="52.112617995589972" lon="9.050295995548368">
        <ele>137.61000000000001</ele>
        <time>2017-10-30T08:01:41Z</time>
      </trkpt>
      <trkpt lat="52.112617995589972" lon="9.050116958096623">
        <ele>138.56999999999999</ele>
        <time>2017-10-30T08:01:42Z</time>
      </trkpt>
      <trkpt lat="52.112654959782958" lon="9.049947978928685">
        <ele>139.53</ele>
        <time>2017-10-30T08:01:43Z</time>
      </trkpt>
      <trkpt lat="52.112693013623357" lon="9.049780005589128">
        <ele>140.49000000000001</ele>
        <time>2017-10-30T08:01:44Z</time>
      </trkpt>
      <trkpt lat="52.112770965322852" lon="9.049644973129034">
        <ele>140.97</ele>
        <time>2017-10-30T08:01:45Z</time>
      </trkpt>
      <trkpt lat="52.112860986962914" lon="9.049531985074282">
        <ele>141.93000000000001</ele>
        <time>2017-10-30T08:01:46Z</time>
      </trkpt>
      <trkpt lat="52.112952014431357" lon="9.049416985362768">
        <ele>142.41</ele>
        <time>2017-10-30T08:01:47Z</time>
      </trkpt>
      <trkpt lat="52.113148989155889" lon="9.049260998144746">
        <ele>143.37</ele>
        <time>2017-10-30T08:01:49Z</time>
      </trkpt>
      <trkpt lat="52.113256026059389" lon="9.049214981496334">
        <ele>143.84999999999999</ele>
        <time>2017-10-30T08:01:50Z</time>
      </trkpt>
      <trkpt lat="52.113364990800619" lon="9.049214981496334">
        <ele>144.34</ele>
        <time>2017-10-30T08:01:51Z</time>
      </trkpt>
      <trkpt lat="52.11347496137023" lon="9.049237025901675">
        <ele>144.34</ele>
        <time>2017-10-30T08:01:52Z</time>
      </trkpt>
      <trkpt lat="52.113587027415633" lon="9.049266027286649">
        <ele>144.81999999999999</ele>
        <time>2017-10-30T08:01:53Z</time>
      </trkpt>
      <trkpt lat="52.114174012094736" lon="9.04948596842587">
        <ele>144.81999999999999</ele>
        <time>2017-10-30T08:01:58Z</time>
      </trkpt>
      <trkpt lat="52.11428901180625" lon="9.049553023651242">
        <ele>144.34</ele>
        <time>2017-10-30T08:01:59Z</time>
      </trkpt>
      <trkpt lat="52.114385990425944" lon="9.049656037241221">
        <ele>143.84999999999999</ele>
        <time>2017-10-30T08:02:00Z</time>
      </trkpt>
      <trkpt lat="52.115198029205203" lon="9.050852973014116">
        <ele>138.56999999999999</ele>
        <time>2017-10-30T08:02:07Z</time>
      </trkpt>
      <trkpt lat="52.117020003497601" lon="9.053594022989273">
        <ele>129.43000000000001</ele>
        <time>2017-10-30T08:02:20Z</time>
      </trkpt>
      <trkpt lat="52.119054039940238" lon="9.056679988279939">
        <ele>123.19</ele>
        <time>2017-10-30T08:02:35Z</time>
      </trkpt>
      <trkpt lat="52.120590023696423" lon="9.058995991945267">
        <ele>116.94</ele>
        <time>2017-10-30T08:02:48Z</time>
      </trkpt>
      <trkpt lat="52.12176600471139" lon="9.060770021751523">
        <ele>114.53</ele>
        <time>2017-10-30T08:03:02Z</time>
      </trkpt>
      <trkpt lat="52.123279022052884" lon="9.063062975183129">
        <ele>112.61</ele>
        <time>2017-10-30T08:03:20Z</time>
      </trkpt>
      <trkpt lat="52.124364981427789" lon="9.064713036641479">
        <ele>109.25</ele>
        <time>2017-10-30T08:03:33Z</time>
      </trkpt>
      <trkpt lat="52.125626960769296" lon="9.066636012867093">
        <ele>106.84</ele>
        <time>2017-10-30T08:03:48Z</time>
      </trkpt>
      <trkpt lat="52.126489039510489" lon="9.067541006952524">
        <ele>104.92</ele>
        <time>2017-10-30T08:03:57Z</time>
      </trkpt>
      <trkpt lat="52.126602027565241" lon="9.067561961710453">
        <ele>104.92</ele>
        <time>2017-10-30T08:03:58Z</time>
      </trkpt>
      <trkpt lat="52.126714009791613" lon="9.067584006115794">
        <ele>104.92</ele>
        <time>2017-10-30T08:03:59Z</time>
      </trkpt>
      <trkpt lat="52.126822974532843" lon="9.067604960873723">
        <ele>104.92</ele>
        <time>2017-10-30T08:04:00Z</time>
      </trkpt>
      <trkpt lat="52.126933028921485" lon="9.067572019994259">
        <ele>104.92</ele>
        <time>2017-10-30T08:04:01Z</time>
      </trkpt>
      <trkpt lat="52.127040987834334" lon="9.067538995295763">
        <ele>104.92</ele>
        <time>2017-10-30T08:04:02Z</time>
      </trkpt>
      <trkpt lat="52.127146013081074" lon="9.067484010010958">
        <ele>104.92</ele>
        <time>2017-10-30T08:04:03Z</time>
      </trkpt>
      <trkpt lat="52.129114000126719" lon="9.066482959315181">
        <ele>115.01000000000001</ele>
        <time>2017-10-30T08:04:21Z</time>
      </trkpt>
      <trkpt lat="52.129570981487632" lon="9.066299982368946">
        <ele>115.5</ele>
        <time>2017-10-30T08:04:25Z</time>
      </trkpt>
      <trkpt lat="52.130362987518311" lon="9.066238962113857">
        <ele>114.05</ele>
        <time>2017-10-30T08:04:32Z</time>
      </trkpt>
      <trkpt lat="52.13049097917974" lon="9.066272992640734">
        <ele>113.56999999999999</ele>
        <time>2017-10-30T08:04:33Z</time>
      </trkpt>
      <trkpt lat="52.130620982497931" lon="9.066327977925539">
        <ele>113.56999999999999</ele>
        <time>2017-10-30T08:04:34Z</time>
      </trkpt>
      <trkpt lat="52.130750985816121" lon="9.066427974030376">
        <ele>113.56999999999999</ele>
        <time>2017-10-30T08:04:35Z</time>
      </trkpt>
      <trkpt lat="52.130886018276215" lon="9.066530987620354">
        <ele>113.56999999999999</ele>
        <time>2017-10-30T08:04:36Z</time>
      </trkpt>
      <trkpt lat="52.131018033251166" lon="9.066655039787293">
        <ele>113.56999999999999</ele>
        <time>2017-10-30T08:04:37Z</time>
      </trkpt>
      <trkpt lat="52.131149964407086" lon="9.066795017570257">
        <ele>113.56999999999999</ele>
        <time>2017-10-30T08:04:38Z</time>
      </trkpt>
      <trkpt lat="52.132425019517541" lon="9.067691965028644">
        <ele>117.90000000000001</ele>
        <time>2017-10-30T08:04:47Z</time>
      </trkpt>
      <trkpt lat="52.13356101885438" lon="9.067690037190914">
        <ele>119.81999999999999</ele>
        <time>2017-10-30T08:04:55Z</time>
      </trkpt>
      <trkpt lat="52.134504988789558" lon="9.067540001124144">
        <ele>122.70999999999999</ele>
        <time>2017-10-30T08:05:03Z</time>
      </trkpt>
      <trkpt lat="52.134719984605908" lon="9.067427013069391">
        <ele>122.70999999999999</ele>
        <time>2017-10-30T08:05:05Z</time>
      </trkpt>
      <trkpt lat="52.13482802733779" lon="9.067370016127825">
        <ele>122.22</ele>
        <time>2017-10-30T08:05:06Z</time>
      </trkpt>
      <trkpt lat="52.134927017614245" lon="9.067310001701117">
        <ele>122.22</ele>
        <time>2017-10-30T08:05:07Z</time>
      </trkpt>
      <trkpt lat="52.13510999456048" lon="9.067107997834683">
        <ele>122.22</ele>
        <time>2017-10-30T08:05:09Z</time>
      </trkpt>
      <trkpt lat="52.135561024770141" lon="9.066514978185296">
        <ele>122.22</ele>
        <time>2017-10-30T08:05:14Z</time>
      </trkpt>
      <trkpt lat="52.136329980567098" lon="9.065305972471833">
        <ele>116.94</ele>
        <time>2017-10-30T08:05:23Z</time>
      </trkpt>
      <trkpt lat="52.136760978028178" lon="9.06467498280108">
        <ele>113.56999999999999</ele>
        <time>2017-10-30T08:05:28Z</time>
      </trkpt>
      <trkpt lat="52.136843958869576" lon="9.064552020281553">
        <ele>112.61</ele>
        <time>2017-10-30T08:05:29Z</time>
      </trkpt>
      <trkpt lat="52.136928029358387" lon="9.064428973942995">
        <ele>111.65000000000001</ele>
        <time>2017-10-30T08:05:30Z</time>
      </trkpt>
      <trkpt lat="52.137000029906631" lon="9.064297964796424">
        <ele>111.17</ele>
        <time>2017-10-30T08:05:31Z</time>
      </trkpt>
      <trkpt lat="52.137060966342688" lon="9.064151030033827">
        <ele>110.20999999999999</ele>
        <time>2017-10-30T08:05:32Z</time>
      </trkpt>
      <trkpt lat="52.137392973527312" lon="9.06342800706625">
        <ele>107.81</ele>
        <time>2017-10-30T08:05:37Z</time>
      </trkpt>
      <trkpt lat="52.137769991531968" lon="9.062795005738735">
        <ele>106.36</ele>
        <time>2017-10-30T08:05:44Z</time>
      </trkpt>
      <trkpt lat="52.137789018452168" lon="9.062764998525381">
        <ele>106.36</ele>
        <time>2017-10-30T08:05:49Z</time>
      </trkpt>
      <trkpt lat="52.137799998745322" lon="9.062695009633899">
        <ele>106.36</ele>
        <time>2017-10-30T08:05:50Z</time>
      </trkpt>
      <trkpt lat="52.137786000967026" lon="9.062634995207191">
        <ele>106.36</ele>
        <time>2017-10-30T08:05:51Z</time>
      </trkpt>
      <trkpt lat="52.137766974046826" lon="9.062556959688664">
        <ele>106.36</ele>
        <time>2017-10-30T08:05:52Z</time>
      </trkpt>
      <trkpt lat="52.137749036774039" lon="9.06248202547431">
        <ele>106.36</ele>
        <time>2017-10-30T08:05:53Z</time>
      </trkpt>
      <trkpt lat="52.137726992368698" lon="9.062389992177486">
        <ele>106.36</ele>
        <time>2017-10-30T08:05:55Z</time>
      </trkpt>
      <trkpt lat="52.137721963226795" lon="9.062371971085668">
        <ele>106.36</ele>
        <time>2017-10-30T08:05:56Z</time>
      </trkpt>
      <trkpt lat="52.137719029560685" lon="9.062357973307371">
        <ele>106.36</ele>
        <time>2017-10-30T08:05:57Z</time>
      </trkpt>
      <trkpt lat="52.137719029560685" lon="9.062357973307371">
        <ele>106.36</ele>
        <time>2017-10-30T08:06:09Z</time>
      </trkpt>
      <trkpt lat="52.137719029560685" lon="9.062357973307371">
        <ele>105.88</ele>
        <time>2017-10-30T08:06:54Z</time>
      </trkpt>
      <trkpt lat="52.137811984866858" lon="9.062407007440925">
        <ele>126.06999999999999</ele>
        <time>2017-10-30T08:09:50Z</time>
      </trkpt>
      <trkpt lat="52.137760017067194" lon="9.062259988859296">
        <ele>110.69</ele>
        <time>2017-10-30T08:10:25Z</time>
      </trkpt>
      <trkpt lat="52.137772003188729" lon="9.062295025214553">
        <ele>114.05</ele>
        <time>2017-10-30T08:11:19Z</time>
      </trkpt>
      <trkpt lat="52.137775020673871" lon="9.062257977202535">
        <ele>113.09</ele>
        <time>2017-10-30T08:12:17Z</time>
      </trkpt>
      <trkpt lat="52.137777032330632" lon="9.062258983030915">
        <ele>113.56999999999999</ele>
        <time>2017-10-30T08:13:08Z</time>
      </trkpt>
      <trkpt lat="52.137776026502252" lon="9.062270969152451">
        <ele>113.56999999999999</ele>
        <time>2017-10-30T08:13:59Z</time>
      </trkpt>
      <trkpt lat="52.137777032330632" lon="9.062281027436256">
        <ele>113.56999999999999</ele>
        <time>2017-10-30T08:14:44Z</time>
      </trkpt>
      <trkpt lat="52.137777032330632" lon="9.062284966930747">
        <ele>114.05</ele>
        <time>2017-10-30T08:14:54Z</time>
      </trkpt>
      <trkpt lat="52.137706037610769" lon="9.062302988022566">
        <ele>114.05</ele>
        <time>2017-10-30T08:14:56Z</time>
      </trkpt>
      <trkpt lat="52.137693967670202" lon="9.062256971374154">
        <ele>114.53</ele>
        <time>2017-10-30T08:14:57Z</time>
      </trkpt>
      <trkpt lat="52.1376440115273" lon="9.06186000443995">
        <ele>114.53</ele>
        <time>2017-10-30T08:15:01Z</time>
      </trkpt>
      <trkpt lat="52.137528005987406" lon="9.060552008450031">
        <ele>112.61</ele>
        <time>2017-10-30T08:15:11Z</time>
      </trkpt>
      <trkpt lat="52.137186024338007" lon="9.059060029685497">
        <ele>115.5</ele>
        <time>2017-10-30T08:15:21Z</time>
      </trkpt>
      <trkpt lat="52.137159034609795" lon="9.058898007497191">
        <ele>115.98</ele>
        <time>2017-10-30T08:15:22Z</time>
      </trkpt>
      <trkpt lat="52.137099020183086" lon="9.058581003919244">
        <ele>117.90000000000001</ele>
        <time>2017-10-30T08:15:24Z</time>
      </trkpt>
      <trkpt lat="52.137067001312971" lon="9.05842199921608">
        <ele>118.86</ele>
        <time>2017-10-30T08:15:25Z</time>
      </trkpt>
      <trkpt lat="52.137030037119985" lon="9.058256037533283">
        <ele>119.81999999999999</ele>
        <time>2017-10-30T08:15:26Z</time>
      </trkpt>
      <trkpt lat="52.136237025260925" lon="9.056465998291969">
        <ele>128.47</ele>
        <time>2017-10-30T08:15:37Z</time>
      </trkpt>
      <trkpt lat="52.135864030569792" lon="9.054794982075691">
        <ele>136.16</ele>
        <time>2017-10-30T08:15:44Z</time>
      </trkpt>
      <trkpt lat="52.1356460172683" lon="9.053362011909485">
        <ele>142.41</ele>
        <time>2017-10-30T08:15:50Z</time>
      </trkpt>
      <trkpt lat="52.135598994791508" lon="9.053169982507825">
        <ele>143.37</ele>
        <time>2017-10-30T08:15:51Z</time>
      </trkpt>
      <trkpt lat="52.135060960426927" lon="9.05176299624145">
        <ele>150.58000000000001</ele>
        <time>2017-10-30T08:16:00Z</time>
      </trkpt>
      <trkpt lat="52.134719984605908" lon="9.050390040501952">
        <ele>154.43000000000001</ele>
        <time>2017-10-30T08:16:08Z</time>
      </trkpt>
      <trkpt lat="52.134719984605908" lon="9.05019398778677">
        <ele>154.91</ele>
        <time>2017-10-30T08:16:09Z</time>
      </trkpt>
      <trkpt lat="52.134672040119767" lon="9.048372013494372">
        <ele>159.24000000000001</ele>
        <time>2017-10-30T08:16:16Z</time>
      </trkpt>
      <trkpt lat="52.134184967726469" lon="9.04495001770556">
        <ele>166.93000000000001</ele>
        <time>2017-10-30T08:16:27Z</time>
      </trkpt>
      <trkpt lat="52.133460016921163" lon="9.041635980829597">
        <ele>173.66</ele>
        <time>2017-10-30T08:16:38Z</time>
      </trkpt>
      <trkpt lat="52.132653007283807" lon="9.039254011586309">
        <ele>179.41999999999999</ele>
        <time>2017-10-30T08:16:47Z</time>
      </trkpt>
      <trkpt lat="52.131818002089858" lon="9.036939013749361">
        <ele>182.78999999999999</ele>
        <time>2017-10-30T08:16:56Z</time>
      </trkpt>
      <trkpt lat="52.131696967408061" lon="9.036370972171426">
        <ele>182.78999999999999</ele>
        <time>2017-10-30T08:16:58Z</time>
      </trkpt>
      <trkpt lat="52.131636030972004" lon="9.036085987463594">
        <ele>182.78999999999999</ele>
        <time>2017-10-30T08:16:59Z</time>
      </trkpt>
      <trkpt lat="52.131324978545308" lon="9.032744960859418">
        <ele>183.27000000000001</ele>
        <time>2017-10-30T08:17:10Z</time>
      </trkpt>
      <trkpt lat="52.13100696913898" lon="9.029835015535355">
        <ele>189.03999999999999</ele>
        <time>2017-10-30T08:17:20Z</time>
      </trkpt>
      <trkpt lat="52.130600027740002" lon="9.026748966425657">
        <ele>200.56999999999999</ele>
        <time>2017-10-30T08:17:31Z</time>
      </trkpt>
      <trkpt lat="52.130647972226143" lon="9.026557020843029">
        <ele>201.05000000000001</ele>
        <time>2017-10-30T08:17:32Z</time>
      </trkpt>
      <trkpt lat="52.130686026066542" lon="9.026403967291117">
        <ele>202.00999999999999</ele>
        <time>2017-10-30T08:17:33Z</time>
      </trkpt>
      <trkpt lat="52.130738999694586" lon="9.026278993114829">
        <ele>202.97999999999999</ele>
        <time>2017-10-30T08:17:34Z</time>
      </trkpt>
      <trkpt lat="52.130831032991409" lon="9.026158964261413">
        <ele>203.94</ele>
        <time>2017-10-30T08:17:35Z</time>
      </trkpt>
      <trkpt lat="52.130933040753007" lon="9.026027033105493">
        <ele>205.38</ele>
        <time>2017-10-30T08:17:36Z</time>
      </trkpt>
      <trkpt lat="52.131799980998039" lon="9.024921040982008">
        <ele>214.50999999999999</ele>
        <time>2017-10-30T08:17:43Z</time>
      </trkpt>
      <trkpt lat="52.132074991241097" lon="9.02445400133729">
        <ele>218.36000000000001</ele>
        <time>2017-10-30T08:17:46Z</time>
      </trkpt>
      <trkpt lat="52.132106004282832" lon="9.024259960278869">
        <ele>219.80000000000001</ele>
        <time>2017-10-30T08:17:47Z</time>
      </trkpt>
      <trkpt lat="52.132113967090845" lon="9.024038007482886">
        <ele>220.75999999999999</ele>
        <time>2017-10-30T08:17:48Z</time>
      </trkpt>
      <trkpt lat="52.132120002061129" lon="9.023796021938324">
        <ele>221.72</ele>
        <time>2017-10-30T08:17:49Z</time>
      </trkpt>
      <trkpt lat="52.13205998763442" lon="9.023555964231491">
        <ele>223.16</ele>
        <time>2017-10-30T08:17:50Z</time>
      </trkpt>
      <trkpt lat="52.132000979036093" lon="9.023319007828832">
        <ele>224.12</ele>
        <time>2017-10-30T08:17:51Z</time>
      </trkpt>
      <trkpt lat="52.131923027336597" lon="9.023082973435521">
        <ele>225.09</ele>
        <time>2017-10-30T08:17:52Z</time>
      </trkpt>
      <trkpt lat="52.131804004311562" lon="9.022919023409486">
        <ele>226.53</ele>
        <time>2017-10-30T08:17:53Z</time>
      </trkpt>
      <trkpt lat="52.131681963801384" lon="9.022749038413167">
        <ele>227.49000000000001</ele>
        <time>2017-10-30T08:17:54Z</time>
      </trkpt>
      <trkpt lat="52.131541986018419" lon="9.022605959326029">
        <ele>228.44999999999999</ele>
        <time>2017-10-30T08:17:55Z</time>
      </trkpt>
      <trkpt lat="52.131393039599061" lon="9.022457012906671">
        <ele>229.88999999999999</ele>
        <time>2017-10-30T08:17:56Z</time>
      </trkpt>
      <trkpt lat="52.131239986047149" lon="9.022303959354758">
        <ele>231.33000000000001</ele>
        <time>2017-10-30T08:17:57Z</time>
      </trkpt>
      <trkpt lat="52.131080981343985" lon="9.022159036248922">
        <ele>232.78</ele>
        <time>2017-10-30T08:17:58Z</time>
      </trkpt>
      <trkpt lat="52.129729986190796" lon="9.021062012761831">
        <ele>241.91</ele>
        <time>2017-10-30T08:18:06Z</time>
      </trkpt>
      <trkpt lat="52.129560001194477" lon="9.020960005000234">
        <ele>243.34999999999999</ele>
        <time>2017-10-30T08:18:07Z</time>
      </trkpt>
      <trkpt lat="52.129380041733384" lon="9.020903008058667">
        <ele>244.78999999999999</ele>
        <time>2017-10-30T08:18:08Z</time>
      </trkpt>
      <trkpt lat="52.128230966627598" lon="9.020536970347166">
        <ele>253.44</ele>
        <time>2017-10-30T08:18:15Z</time>
      </trkpt>
      <trkpt lat="52.128086965531111" lon="9.02045700699091">
        <ele>254.41</ele>
        <time>2017-10-30T08:18:16Z</time>
      </trkpt>
      <trkpt lat="52.127965008839965" lon="9.020325997844338">
        <ele>255.37</ele>
        <time>2017-10-30T08:18:17Z</time>
      </trkpt>
      <trkpt lat="52.127841040492058" lon="9.020192977041006">
        <ele>256.81</ele>
        <time>2017-10-30T08:18:18Z</time>
      </trkpt>
      <trkpt lat="52.127734003588557" lon="9.020008994266391">
        <ele>257.76999999999998</ele>
        <time>2017-10-30T08:18:19Z</time>
      </trkpt>
      <trkpt lat="52.127625960856676" lon="9.019806990399957">
        <ele>259.20999999999998</ele>
        <time>2017-10-30T08:18:20Z</time>
      </trkpt>
      <trkpt lat="52.127537028864026" lon="9.019568022340536">
        <ele>260.64999999999998</ele>
        <time>2017-10-30T08:18:21Z</time>
      </trkpt>
      <trkpt lat="52.127444995567203" lon="9.019323019310832">
        <ele>261.62</ele>
        <time>2017-10-30T08:18:22Z</time>
      </trkpt>
      <trkpt lat="52.12735204026103" lon="9.019074998795986">
        <ele>262.57999999999998</ele>
        <time>2017-10-30T08:18:23Z</time>
      </trkpt>
      <trkpt lat="52.126981979236007" lon="9.017659965902567">
        <ele>264.01999999999998</ele>
        <time>2017-10-30T08:18:29Z</time>
      </trkpt>
      <trkpt lat="52.126959012821317" lon="9.017486041411758">
        <ele>264.01999999999998</ele>
        <time>2017-10-30T08:18:30Z</time>
      </trkpt>
      <trkpt lat="52.126951972022653" lon="9.017343968153">
        <ele>263.54000000000002</ele>
        <time>2017-10-30T08:18:31Z</time>
      </trkpt>
      <trkpt lat="52.126951972022653" lon="9.017187980934978">
        <ele>263.06</ele>
        <time>2017-10-30T08:18:32Z</time>
      </trkpt>
      <trkpt lat="52.126951972022653" lon="9.017027970403433">
        <ele>262.57999999999998</ele>
        <time>2017-10-30T08:18:33Z</time>
      </trkpt>
      <trkpt lat="52.126995977014303" lon="9.016868965700269">
        <ele>262.57999999999998</ele>
        <time>2017-10-30T08:18:34Z</time>
      </trkpt>
      <trkpt lat="52.127044005319476" lon="9.016695963218808">
        <ele>262.10000000000002</ele>
        <time>2017-10-30T08:18:35Z</time>
      </trkpt>
      <trkpt lat="52.127120029181242" lon="9.016522038727999">
        <ele>261.62</ele>
        <time>2017-10-30T08:18:36Z</time>
      </trkpt>
      <trkpt lat="52.127630989998579" lon="9.015557030215859">
        <ele>256.81</ele>
        <time>2017-10-30T08:18:42Z</time>
      </trkpt>
      <trkpt lat="52.127712965011597" lon="9.01543197222054">
        <ele>255.84999999999999</ele>
        <time>2017-10-30T08:18:43Z</time>
      </trkpt>
      <trkpt lat="52.127788988873363" lon="9.015316972509027">
        <ele>254.88999999999999</ele>
        <time>2017-10-30T08:18:44Z</time>
      </trkpt>
      <trkpt lat="52.128045978024602" lon="9.014926040545106">
        <ele>252.47999999999999</ele>
        <time>2017-10-30T08:18:48Z</time>
      </trkpt>
      <trkpt lat="52.128079002723098" lon="9.014794025570154">
        <ele>252</ele>
        <time>2017-10-30T08:18:49Z</time>
      </trkpt>
      <trkpt lat="52.128106998279691" lon="9.014683971181512">
        <ele>251.52000000000001</ele>
        <time>2017-10-30T08:18:50Z</time>
      </trkpt>
      <trkpt lat="52.128100041300058" lon="9.014596967026591">
        <ele>250.56</ele>
        <time>2017-10-30T08:18:51Z</time>
      </trkpt>
      <trkpt lat="52.12808595970273" lon="9.01450602337718">
        <ele>249.59999999999999</ele>
        <time>2017-10-30T08:18:52Z</time>
      </trkpt>
      <trkpt lat="52.128056036308408" lon="9.01437995955348">
        <ele>248.63999999999999</ele>
        <time>2017-10-30T08:18:53Z</time>
      </trkpt>
      <trkpt lat="52.127974983304739" lon="9.014311982318759">
        <ele>247.68000000000001</ele>
        <time>2017-10-30T08:18:54Z</time>
      </trkpt>
      <trkpt lat="52.127866018563509" lon="9.014279041439295">
        <ele>246.22999999999999</ele>
        <time>2017-10-30T08:18:55Z</time>
      </trkpt>
      <trkpt lat="52.127751018851995" lon="9.014273006469011">
        <ele>245.27000000000001</ele>
        <time>2017-10-30T08:18:56Z</time>
      </trkpt>
      <trkpt lat="52.126736976206303" lon="9.014262026175857">
        <ele>236.62</ele>
        <time>2017-10-30T08:19:03Z</time>
      </trkpt>
      <trkpt lat="52.125455969944596" lon="9.014187008142471">
        <ele>227.97</ele>
        <time>2017-10-30T08:19:11Z</time>
      </trkpt>
      <trkpt lat="52.124808970838785" lon="9.013804038986564">
        <ele>223.16</ele>
        <time>2017-10-30T08:19:16Z</time>
      </trkpt>
      <trkpt lat="52.124381996691227" lon="9.013240020722151">
        <ele>221.24000000000001</ele>
        <time>2017-10-30T08:19:20Z</time>
      </trkpt>
      <trkpt lat="52.124275965616107" lon="9.013054026290774">
        <ele>221.24000000000001</ele>
        <time>2017-10-30T08:19:21Z</time>
      </trkpt>
      <trkpt lat="52.124165995046496" lon="9.012860991060734">
        <ele>220.75999999999999</ele>
        <time>2017-10-30T08:19:22Z</time>
      </trkpt>
      <trkpt lat="52.124054012820125" lon="9.012666027992964">
        <ele>220.75999999999999</ele>
        <time>2017-10-30T08:19:23Z</time>
      </trkpt>
      <trkpt lat="52.123947981745005" lon="9.012480033561587">
        <ele>220.28</ele>
        <time>2017-10-30T08:19:24Z</time>
      </trkpt>
      <trkpt lat="52.123368037864566" lon="9.011259963735938">
        <ele>218.36000000000001</ele>
        <time>2017-10-30T08:19:30Z</time>
      </trkpt>
      <trkpt lat="52.123267035931349" lon="9.01106902398169">
        <ele>217.88</ele>
        <time>2017-10-30T08:19:31Z</time>
      </trkpt>
      <trkpt lat="52.122817011550069" lon="9.009962026029825">
        <ele>212.59</ele>
        <time>2017-10-30T08:19:38Z</time>
      </trkpt>
      <trkpt lat="52.122779041528702" lon="9.009938975796104">
        <ele>211.15000000000001</ele>
        <time>2017-10-30T08:19:39Z</time>
      </trkpt>
      <trkpt lat="52.122709974646568" lon="9.009919026866555">
        <ele>210.19</ele>
        <time>2017-10-30T08:19:40Z</time>
      </trkpt>
      <trkpt lat="52.122660018503666" lon="9.009905029088259">
        <ele>209.22</ele>
        <time>2017-10-30T08:19:41Z</time>
      </trkpt>
      <trkpt lat="52.122623976320028" lon="9.009947022423148">
        <ele>208.25999999999999</ele>
        <time>2017-10-30T08:19:42Z</time>
      </trkpt>
      <trkpt lat="52.122532026842237" lon="9.010054981335998">
        <ele>207.30000000000001</ele>
        <time>2017-10-30T08:19:43Z</time>
      </trkpt>
      <trkpt lat="52.122506964951754" lon="9.010120024904609">
        <ele>205.86000000000001</ele>
        <time>2017-10-30T08:19:44Z</time>
      </trkpt>
      <trkpt lat="52.122466983273625" lon="9.010263020172715">
        <ele>204.90000000000001</ele>
        <time>2017-10-30T08:19:45Z</time>
      </trkpt>
      <trkpt lat="52.122470000758767" lon="9.010436022654176">
        <ele>203.46000000000001</ele>
        <time>2017-10-30T08:19:46Z</time>
      </trkpt>
      <trkpt lat="52.122503025457263" lon="9.01059796102345">
        <ele>202.00999999999999</ele>
        <time>2017-10-30T08:19:47Z</time>
      </trkpt>
      <trkpt lat="52.122534038498998" lon="9.010755037888885">
        <ele>201.05000000000001</ele>
        <time>2017-10-30T08:19:48Z</time>
      </trkpt>
      <trkpt lat="52.122566979378462" lon="9.010902978479862">
        <ele>200.09</ele>
        <time>2017-10-30T08:19:49Z</time>
      </trkpt>
      <trkpt lat="52.122683990746737" lon="9.011430032551289">
        <ele>196.72999999999999</ele>
        <time>2017-10-30T08:19:53Z</time>
      </trkpt>
      <trkpt lat="52.122717015445232" lon="9.011656008660793">
        <ele>195.77000000000001</ele>
        <time>2017-10-30T08:19:55Z</time>
      </trkpt>
      <trkpt lat="52.122709974646568" lon="9.011768996715546">
        <ele>195.28</ele>
        <time>2017-10-30T08:19:56Z</time>
      </trkpt>
      <trkpt lat="52.122672004625201" lon="9.011871004477143">
        <ele>194.80000000000001</ele>
        <time>2017-10-30T08:19:57Z</time>
      </trkpt>
      <trkpt lat="52.122610984370112" lon="9.011919032782316">
        <ele>193.84</ele>
        <time>2017-10-30T08:19:58Z</time>
      </trkpt>
      <trkpt lat="52.122537977993488" lon="9.011946022510529">
        <ele>192.88</ele>
        <time>2017-10-30T08:19:59Z</time>
      </trkpt>
      <trkpt lat="52.122448040172458" lon="9.011943005025387">
        <ele>191.91999999999999</ele>
        <time>2017-10-30T08:20:00Z</time>
      </trkpt>
      <trkpt lat="52.122344020754099" lon="9.011888019740582">
        <ele>190.47999999999999</ele>
        <time>2017-10-30T08:20:01Z</time>
      </trkpt>
      <trkpt lat="52.122232038527727" lon="9.011828005313873">
        <ele>189.52000000000001</ele>
        <time>2017-10-30T08:20:02Z</time>
      </trkpt>
      <trkpt lat="52.121492000296712" lon="9.011053014546633">
        <ele>181.83000000000001</ele>
        <time>2017-10-30T08:20:08Z</time>
      </trkpt>
      <trkpt lat="52.120817005634308" lon="9.009956996887922">
        <ele>174.62</ele>
        <time>2017-10-30T08:20:15Z</time>
      </trkpt>
      <trkpt lat="52.1207569912076" lon="9.009792963042855">
        <ele>173.66</ele>
        <time>2017-10-30T08:20:16Z</time>
      </trkpt>
      <trkpt lat="52.120716003701091" lon="9.009617026895285">
        <ele>172.69</ele>
        <time>2017-10-30T08:20:17Z</time>
      </trkpt>
      <trkpt lat="52.120682979002595" lon="9.009432038292289">
        <ele>172.21000000000001</ele>
        <time>2017-10-30T08:20:18Z</time>
      </trkpt>
      <trkpt lat="52.120667975395918" lon="9.009233973920345">
        <ele>171.25</ele>
        <time>2017-10-30T08:20:19Z</time>
      </trkpt>
      <trkpt lat="52.120652971789241" lon="9.009032975882292">
        <ele>170.28999999999999</ele>
        <time>2017-10-30T08:20:20Z</time>
      </trkpt>
      <trkpt lat="52.120642997324467" lon="9.008833989501">
        <ele>169.33000000000001</ele>
        <time>2017-10-30T08:20:21Z</time>
      </trkpt>
      <trkpt lat="52.120597986504436" lon="9.007453992962837">
        <ele>165</ele>
        <time>2017-10-30T08:20:29Z</time>
      </trkpt>
      <trkpt lat="52.120616007596254" lon="9.005650039762259">
        <ele>158.75</ele>
        <time>2017-10-30T08:20:39Z</time>
      </trkpt>
      <trkpt lat="52.120540989562869" lon="9.004910001531243">
        <ele>156.34999999999999</ele>
        <time>2017-10-30T08:20:43Z</time>
      </trkpt>
      <trkpt lat="52.12043596431613" lon="9.004407003521919">
        <ele>153.94999999999999</ele>
        <time>2017-10-30T08:20:46Z</time>
      </trkpt>
      <trkpt lat="52.120423978194594" lon="9.004241041839123">
        <ele>153.47</ele>
        <time>2017-10-30T08:20:47Z</time>
      </trkpt>
      <trkpt lat="52.120418027043343" lon="9.004062004387379">
        <ele>152.99000000000001</ele>
        <time>2017-10-30T08:20:48Z</time>
      </trkpt>
      <trkpt lat="52.120410986244678" lon="9.003877015784383">
        <ele>152.50999999999999</ele>
        <time>2017-10-30T08:20:49Z</time>
      </trkpt>
      <trkpt lat="52.120410986244678" lon="9.003694038838148">
        <ele>152.03</ele>
        <time>2017-10-30T08:20:50Z</time>
      </trkpt>
      <trkpt lat="52.120421966537833" lon="9.00350502692163">
        <ele>151.53999999999999</ele>
        <time>2017-10-30T08:20:51Z</time>
      </trkpt>
      <trkpt lat="52.120483992621303" lon="9.002366010099649">
        <ele>148.66</ele>
        <time>2017-10-30T08:20:59Z</time>
      </trkpt>
      <trkpt lat="52.120534032583237" lon="9.002204993739724">
        <ele>147.69999999999999</ele>
        <time>2017-10-30T08:21:01Z</time>
      </trkpt>
      <trkpt lat="52.120568985119462" lon="9.002208011224866">
        <ele>147.69999999999999</ele>
        <time>2017-10-30T08:21:02Z</time>
      </trkpt>
      <trkpt lat="52.120621958747506" lon="9.002213040366769">
        <ele>147.22</ele>
        <time>2017-10-30T08:21:03Z</time>
      </trkpt>
      <trkpt lat="52.120838966220617" lon="9.002232989296317">
        <ele>146.74000000000001</ele>
        <time>2017-10-30T08:21:06Z</time>
      </trkpt>
      <trkpt lat="52.121741026639938" lon="9.002276994287968">
        <ele>146.25999999999999</ele>
        <time>2017-10-30T08:21:15Z</time>
      </trkpt>
      <trkpt lat="52.122271014377475" lon="9.002058980986476">
        <ele>146.74000000000001</ele>
        <time>2017-10-30T08:21:20Z</time>
      </trkpt>
      <trkpt lat="52.122376961633563" lon="9.002010030671954">
        <ele>146.74000000000001</ele>
        <time>2017-10-30T08:21:21Z</time>
      </trkpt>
      <trkpt lat="52.122689019888639" lon="9.001865023747087">
        <ele>147.22</ele>
        <time>2017-10-30T08:21:24Z</time>
      </trkpt>
      <trkpt lat="52.122956989333034" lon="9.00157299824059">
        <ele>146.74000000000001</ele>
        <time>2017-10-30T08:21:27Z</time>
      </trkpt>
      <trkpt lat="52.123047010973096" lon="9.001471996307373">
        <ele>146.74000000000001</ele>
        <time>2017-10-30T08:21:28Z</time>
      </trkpt>
      <trkpt lat="52.123954016715288" lon="9.00019601918757">
        <ele>144.81999999999999</ele>
        <time>2017-10-30T08:21:38Z</time>
      </trkpt>
      <trkpt lat="52.125078029930592" lon="8.998894980177283">
        <ele>143.37</ele>
        <time>2017-10-30T08:21:49Z</time>
      </trkpt>
      <trkpt lat="52.12518498301506" lon="8.998804036527872">
        <ele>143.37</ele>
        <time>2017-10-30T08:21:50Z</time>
      </trkpt>
      <trkpt lat="52.125295037403703" lon="8.998743016272783">
        <ele>142.88999999999999</ele>
        <time>2017-10-30T08:21:51Z</time>
      </trkpt>
      <trkpt lat="52.125400984659791" lon="8.998684007674456">
        <ele>142.88999999999999</ele>
        <time>2017-10-30T08:21:52Z</time>
      </trkpt>
      <trkpt lat="52.125606006011367" lon="8.998570013791323">
        <ele>143.37</ele>
        <time>2017-10-30T08:21:54Z</time>
      </trkpt>
      <trkpt lat="52.125692004337907" lon="8.99852198548615">
        <ele>143.84999999999999</ele>
        <time>2017-10-30T08:21:55Z</time>
      </trkpt>
      <trkpt lat="52.125769034028053" lon="8.998453002423048">
        <ele>144.34</ele>
        <time>2017-10-30T08:21:56Z</time>
      </trkpt>
      <trkpt lat="52.12582997046411" lon="8.998333979398012">
        <ele>144.34</ele>
        <time>2017-10-30T08:21:57Z</time>
      </trkpt>
      <trkpt lat="52.125896019861102" lon="8.998203976079822">
        <ele>144.34</ele>
        <time>2017-10-30T08:21:58Z</time>
      </trkpt>
      <trkpt lat="52.125965002924204" lon="8.99806902743876">
        <ele>143.84999999999999</ele>
        <time>2017-10-30T08:21:59Z</time>
      </trkpt>
      <trkpt lat="52.126334980130196" lon="8.997369976714253">
        <ele>142.88999999999999</ele>
        <time>2017-10-30T08:22:04Z</time>
      </trkpt>
      <trkpt lat="52.126650977879763" lon="8.996927998960018">
        <ele>143.37</ele>
        <time>2017-10-30T08:22:07Z</time>
      </trkpt>
      <trkpt lat="52.126767989248037" lon="8.996764970943332">
        <ele>143.37</ele>
        <time>2017-10-30T08:22:08Z</time>
      </trkpt>
      <trkpt lat="52.126886006444693" lon="8.996599009260535">
        <ele>143.37</ele>
        <time>2017-10-30T08:22:09Z</time>
      </trkpt>
      <trkpt lat="52.127555971965194" lon="8.995829969644547">
        <ele>143.84999999999999</ele>
        <time>2017-10-30T08:22:14Z</time>
      </trkpt>
      <trkpt lat="52.128142034634948" lon="8.995383968576789">
        <ele>143.84999999999999</ele>
        <time>2017-10-30T08:22:19Z</time>
      </trkpt>
      <trkpt lat="52.128245970234275" lon="8.995332000777125">
        <ele>143.37</ele>
        <time>2017-10-30T08:22:20Z</time>
      </trkpt>
      <trkpt lat="52.128353007137775" lon="8.995335018262267">
        <ele>143.37</ele>
        <time>2017-10-30T08:22:21Z</time>
      </trkpt>
      <trkpt lat="52.128468006849289" lon="8.995370976626873">
        <ele>142.88999999999999</ele>
        <time>2017-10-30T08:22:22Z</time>
      </trkpt>
      <trkpt lat="52.128592981025577" lon="8.995412969961762">
        <ele>142.88999999999999</ele>
        <time>2017-10-30T08:22:23Z</time>
      </trkpt>
      <trkpt lat="52.128719966858625" lon="8.995467033237219">
        <ele>142.41</ele>
        <time>2017-10-30T08:22:24Z</time>
      </trkpt>
      <trkpt lat="52.129644993692636" lon="8.995828041806817">
        <ele>140.49000000000001</ele>
        <time>2017-10-30T08:22:32Z</time>
      </trkpt>
      <trkpt lat="52.130632968619466" lon="8.995862994343042">
        <ele>140.49000000000001</ele>
        <time>2017-10-30T08:22:41Z</time>
      </trkpt>
      <trkpt lat="52.130924994125962" lon="8.995826030150056">
        <ele>140.00999999999999</ele>
        <time>2017-10-30T08:22:44Z</time>
      </trkpt>
      <trkpt lat="52.131009986624122" lon="8.995761992409825">
        <ele>140.00999999999999</ele>
        <time>2017-10-30T08:22:45Z</time>
      </trkpt>
      <trkpt lat="52.131096990779042" lon="8.995693009346724">
        <ele>140.00999999999999</ele>
        <time>2017-10-30T08:22:46Z</time>
      </trkpt>
      <trkpt lat="52.131153987720609" lon="8.995567029342055">
        <ele>140.00999999999999</ele>
        <time>2017-10-30T08:22:47Z</time>
      </trkpt>
      <trkpt lat="52.13122196495533" lon="8.995421016588807">
        <ele>140.00999999999999</ele>
        <time>2017-10-30T08:22:48Z</time>
      </trkpt>
      <trkpt lat="52.131229005753994" lon="8.995281960815191">
        <ele>140.00999999999999</ele>
        <time>2017-10-30T08:22:49Z</time>
      </trkpt>
      <trkpt lat="52.131237974390388" lon="8.995119016617537">
        <ele>139.53</ele>
        <time>2017-10-30T08:22:50Z</time>
      </trkpt>
      <trkpt lat="52.131236968562007" lon="8.994950037449598">
        <ele>139.53</ele>
        <time>2017-10-30T08:22:51Z</time>
      </trkpt>
      <trkpt lat="52.131218025460839" lon="8.994778040796518">
        <ele>139.05000000000001</ele>
        <time>2017-10-30T08:22:52Z</time>
      </trkpt>
      <trkpt lat="52.13115599937737" lon="8.994059041142464">
        <ele>138.09</ele>
        <time>2017-10-30T08:22:56Z</time>
      </trkpt>
      <trkpt lat="52.131144013255835" lon="8.993871035054326">
        <ele>138.09</ele>
        <time>2017-10-30T08:22:57Z</time>
      </trkpt>
      <trkpt lat="52.131118029356003" lon="8.993324032053351">
        <ele>137.13</ele>
        <time>2017-10-30T08:23:00Z</time>
      </trkpt>
      <trkpt lat="52.131088022142649" lon="8.993151029571891">
        <ele>136.63999999999999</ele>
        <time>2017-10-30T08:23:01Z</time>
      </trkpt>
      <trkpt lat="52.131040999665856" lon="8.993006022647023">
        <ele>136.63999999999999</ele>
        <time>2017-10-30T08:23:02Z</time>
      </trkpt>
      <trkpt lat="52.130970004945993" lon="8.992875013500452">
        <ele>136.63999999999999</ele>
        <time>2017-10-30T08:23:03Z</time>
      </trkpt>
      <trkpt lat="52.13089901022613" lon="8.992745010182262">
        <ele>136.16</ele>
        <time>2017-10-30T08:23:04Z</time>
      </trkpt>
      <trkpt lat="52.130658030509949" lon="8.99218300357461">
        <ele>134.72</ele>
        <time>2017-10-30T08:23:08Z</time>
      </trkpt>
      <trkpt lat="52.130509000271559" lon="8.991526030004025">
        <ele>133.28</ele>
        <time>2017-10-30T08:23:12Z</time>
      </trkpt>
      <trkpt lat="52.130428031086922" lon="8.991171978414059">
        <ele>132.31999999999999</ele>
        <time>2017-10-30T08:23:14Z</time>
      </trkpt>
      <trkpt lat="52.130419984459877" lon="8.991019008681178">
        <ele>132.31999999999999</ele>
        <time>2017-10-30T08:23:15Z</time>
      </trkpt>
      <trkpt lat="52.130364999175072" lon="8.99001301266253">
        <ele>133.28</ele>
        <time>2017-10-30T08:23:21Z</time>
      </trkpt>
      <trkpt lat="52.130383020266891" lon="8.989889966323972">
        <ele>133.28</ele>
        <time>2017-10-30T08:23:22Z</time>
      </trkpt>
      <trkpt lat="52.130402969196439" lon="8.989783013239503">
        <ele>132.80000000000001</ele>
        <time>2017-10-30T08:23:23Z</time>
      </trkpt>
      <trkpt lat="52.130420990288258" lon="8.989684022963047">
        <ele>132.80000000000001</ele>
        <time>2017-10-30T08:23:24Z</time>
      </trkpt>
      <trkpt lat="52.130466001108289" lon="8.989628031849861">
        <ele>132.80000000000001</ele>
        <time>2017-10-30T08:23:25Z</time>
      </trkpt>
      <trkpt lat="52.130532972514629" lon="8.989591989666224">
        <ele>132.31999999999999</ele>
        <time>2017-10-30T08:23:26Z</time>
      </trkpt>
      <trkpt lat="52.130604973062873" lon="8.989552007988095">
        <ele>132.31999999999999</ele>
        <time>2017-10-30T08:23:27Z</time>
      </trkpt>
      <trkpt lat="52.130689965561032" lon="8.989518983289599">
        <ele>132.31999999999999</ele>
        <time>2017-10-30T08:23:28Z</time>
      </trkpt>
      <trkpt lat="52.131365966051817" lon="8.989618979394436">
        <ele>131.36000000000001</ele>
        <time>2017-10-30T08:23:34Z</time>
      </trkpt>
      <trkpt lat="52.131491024047136" lon="8.989676982164383">
        <ele>130.88</ele>
        <time>2017-10-30T08:23:35Z</time>
      </trkpt>
      <trkpt lat="52.132084965705872" lon="8.989974036812782">
        <ele>130.40000000000001</ele>
        <time>2017-10-30T08:23:39Z</time>
      </trkpt>
      <trkpt lat="52.133363960310817" lon="8.990005971863866">
        <ele>129.91999999999999</ele>
        <time>2017-10-30T08:23:47Z</time>
      </trkpt>
      <trkpt lat="52.133829994127154" lon="8.989957021549344">
        <ele>129.43000000000001</ele>
        <time>2017-10-30T08:23:50Z</time>
      </trkpt>
      <trkpt lat="52.133967960253358" lon="8.989850990474224">
        <ele>129.43000000000001</ele>
        <time>2017-10-30T08:23:51Z</time>
      </trkpt>
      <trkpt lat="52.13409997522831" lon="8.989729033783078">
        <ele>128.94999999999999</ele>
        <time>2017-10-30T08:23:52Z</time>
      </trkpt>
      <trkpt lat="52.13418697938323" lon="8.989574974402785">
        <ele>128.94999999999999</ele>
        <time>2017-10-30T08:23:53Z</time>
      </trkpt>
      <trkpt lat="52.134266020730138" lon="8.989376993849874">
        <ele>128.94999999999999</ele>
        <time>2017-10-30T08:23:54Z</time>
      </trkpt>
      <trkpt lat="52.134325029328465" lon="8.989179013296962">
        <ele>128.47</ele>
        <time>2017-10-30T08:23:55Z</time>
      </trkpt>
      <trkpt lat="52.134364005178213" lon="8.988939039409161">
        <ele>128.47</ele>
        <time>2017-10-30T08:23:56Z</time>
      </trkpt>
      <trkpt lat="52.134403986856341" lon="8.988693030551076">
        <ele>128.47</ele>
        <time>2017-10-30T08:23:57Z</time>
      </trkpt>
      <trkpt lat="52.134574977681041" lon="8.987737996503711">
        <ele>128.47</ele>
        <time>2017-10-30T08:24:01Z</time>
      </trkpt>
      <trkpt lat="52.134682014584541" lon="8.987312028184533">
        <ele>128.94999999999999</ele>
        <time>2017-10-30T08:24:03Z</time>
      </trkpt>
      <trkpt lat="52.134756026789546" lon="8.987151011824608">
        <ele>128.94999999999999</ele>
        <time>2017-10-30T08:24:04Z</time>
      </trkpt>
      <trkpt lat="52.134825009852648" lon="8.986998964101076">
        <ele>128.94999999999999</ele>
        <time>2017-10-30T08:24:05Z</time>
      </trkpt>
      <trkpt lat="52.134890975430608" lon="8.98685404099524">
        <ele>128.94999999999999</ele>
        <time>2017-10-30T08:24:06Z</time>
      </trkpt>
      <trkpt lat="52.134953001514077" lon="8.986718002706766">
        <ele>128.47</ele>
        <time>2017-10-30T08:24:07Z</time>
      </trkpt>
      <trkpt lat="52.135572005063295" lon="8.985363990068436">
        <ele>127.03</ele>
        <time>2017-10-30T08:24:15Z</time>
      </trkpt>
      <trkpt lat="52.135878028348088" lon="8.984692012891173">
        <ele>125.11</ele>
        <time>2017-10-30T08:24:19Z</time>
      </trkpt>
      <trkpt lat="52.135900994762778" lon="8.984499983489513">
        <ele>124.63</ele>
        <time>2017-10-30T08:24:20Z</time>
      </trkpt>
      <trkpt lat="52.135923961177468" lon="8.984313989058137">
        <ele>124.63</ele>
        <time>2017-10-30T08:24:21Z</time>
      </trkpt>
      <trkpt lat="52.135942988097668" lon="8.984155990183353">
        <ele>124.15000000000001</ele>
        <time>2017-10-30T08:24:22Z</time>
      </trkpt>
      <trkpt lat="52.135898983106017" lon="8.983960021287203">
        <ele>124.15000000000001</ele>
        <time>2017-10-30T08:24:23Z</time>
      </trkpt>
      <trkpt lat="52.135856989771128" lon="8.983772015199065">
        <ele>124.15000000000001</ele>
        <time>2017-10-30T08:24:24Z</time>
      </trkpt>
      <trkpt lat="52.135813990607858" lon="8.983575962483883">
        <ele>124.15000000000001</ele>
        <time>2017-10-30T08:24:25Z</time>
      </trkpt>
      <trkpt lat="52.135741990059614" lon="8.983400026336312">
        <ele>124.15000000000001</ele>
        <time>2017-10-30T08:24:26Z</time>
      </trkpt>
      <trkpt lat="52.13549598120153" lon="8.982800971716642">
        <ele>124.15000000000001</ele>
        <time>2017-10-30T08:24:29Z</time>
      </trkpt>
      <trkpt lat="52.135392967611551" lon="8.982637021690607">
        <ele>124.15000000000001</ele>
        <time>2017-10-30T08:24:30Z</time>
      </trkpt>
      <trkpt lat="52.135275034233928" lon="8.982479022815824">
        <ele>124.15000000000001</ele>
        <time>2017-10-30T08:24:31Z</time>
      </trkpt>
      <trkpt lat="52.135146036744118" lon="8.982356982305646">
        <ele>123.67</ele>
        <time>2017-10-30T08:24:32Z</time>
      </trkpt>
      <trkpt lat="52.135003041476011" lon="8.982272995635867">
        <ele>123.67</ele>
        <time>2017-10-30T08:24:33Z</time>
      </trkpt>
      <trkpt lat="52.134861974045634" lon="8.982190014794469">
        <ele>123.67</ele>
        <time>2017-10-30T08:24:34Z</time>
      </trkpt>
      <trkpt lat="52.134590987116098" lon="8.982031010091305">
        <ele>123.19</ele>
        <time>2017-10-30T08:24:36Z</time>
      </trkpt>
      <trkpt lat="52.134497025981545" lon="8.981902012601495">
        <ele>123.19</ele>
        <time>2017-10-30T08:24:37Z</time>
      </trkpt>
      <trkpt lat="52.134409015998244" lon="8.981767985969782">
        <ele>122.70999999999999</ele>
        <time>2017-10-30T08:24:38Z</time>
      </trkpt>
      <trkpt lat="52.134351013228297" lon="8.981615016236901">
        <ele>122.22</ele>
        <time>2017-10-30T08:24:39Z</time>
      </trkpt>
      <trkpt lat="52.134289992973208" lon="8.981446959078312">
        <ele>121.73999999999999</ele>
        <time>2017-10-30T08:24:40Z</time>
      </trkpt>
      <trkpt lat="52.134267026558518" lon="8.981255013495684">
        <ele>121.73999999999999</ele>
        <time>2017-10-30T08:24:41Z</time>
      </trkpt>
      <trkpt lat="52.134246993809938" lon="8.981055021286011">
        <ele>121.26000000000001</ele>
        <time>2017-10-30T08:24:42Z</time>
      </trkpt>
      <trkpt lat="52.134246993809938" lon="8.980846982449293">
        <ele>121.26000000000001</ele>
        <time>2017-10-30T08:24:43Z</time>
      </trkpt>
      <trkpt lat="52.134269960224628" lon="8.980636009946466">
        <ele>120.78</ele>
        <time>2017-10-30T08:24:44Z</time>
      </trkpt>
      <trkpt lat="52.134302984923124" lon="8.980421014130116">
        <ele>120.3</ele>
        <time>2017-10-30T08:24:45Z</time>
      </trkpt>
      <trkpt lat="52.134515969082713" lon="8.979000030085445">
        <ele>118.86</ele>
        <time>2017-10-30T08:24:51Z</time>
      </trkpt>
      <trkpt lat="52.134554022923112" lon="8.978773970156908">
        <ele>118.86</ele>
        <time>2017-10-30T08:24:52Z</time>
      </trkpt>
      <trkpt lat="52.134622000157833" lon="8.978578001260757">
        <ele>118.38</ele>
        <time>2017-10-30T08:24:53Z</time>
      </trkpt>
      <trkpt lat="52.134686037898064" lon="8.978393012657762">
        <ele>117.90000000000001</ele>
        <time>2017-10-30T08:24:54Z</time>
      </trkpt>
      <trkpt lat="52.134777987375855" lon="8.978206012398005">
        <ele>116.94</ele>
        <time>2017-10-30T08:24:55Z</time>
      </trkpt>
      <trkpt lat="52.134902961552143" lon="8.97811003960669">
        <ele>116.45999999999999</ele>
        <time>2017-10-30T08:24:56Z</time>
      </trkpt>
      <trkpt lat="52.135032964870334" lon="8.978010965511203">
        <ele>115.5</ele>
        <time>2017-10-30T08:24:57Z</time>
      </trkpt>
      <trkpt lat="52.135165985673666" lon="8.977909963577986">
        <ele>114.53</ele>
        <time>2017-10-30T08:24:58Z</time>
      </trkpt>
      <trkpt lat="52.135300012305379" lon="8.977816002443433">
        <ele>114.05</ele>
        <time>2017-10-30T08:24:59Z</time>
      </trkpt>
      <trkpt lat="52.135440995916724" lon="8.977756993845105">
        <ele>113.56999999999999</ele>
        <time>2017-10-30T08:25:00Z</time>
      </trkpt>
      <trkpt lat="52.135710977017879" lon="8.977642999961972">
        <ele>112.13</ele>
        <time>2017-10-30T08:25:02Z</time>
      </trkpt>
      <trkpt lat="52.13584098033607" lon="8.977588014677167">
        <ele>112.13</ele>
        <time>2017-10-30T08:25:03Z</time>
      </trkpt>
      <trkpt lat="52.135970983654261" lon="8.977534035220742">
        <ele>111.65000000000001</ele>
        <time>2017-10-30T08:25:04Z</time>
      </trkpt>
      <trkpt lat="52.136093024164438" lon="8.977481983602047">
        <ele>111.17</ele>
        <time>2017-10-30T08:25:05Z</time>
      </trkpt>
      <trkpt lat="52.13620500639081" lon="8.977339994162321">
        <ele>111.17</ele>
        <time>2017-10-30T08:25:06Z</time>
      </trkpt>
      <trkpt lat="52.136316988617182" lon="8.977196998894215">
        <ele>110.69</ele>
        <time>2017-10-30T08:25:07Z</time>
      </trkpt>
      <trkpt lat="52.136429976671934" lon="8.977051991969347">
        <ele>110.69</ele>
        <time>2017-10-30T08:25:08Z</time>
      </trkpt>
      <trkpt lat="52.136539025232196" lon="8.976913020014763">
        <ele>110.20999999999999</ele>
        <time>2017-10-30T08:25:09Z</time>
      </trkpt>
      <trkpt lat="52.136644972488284" lon="8.976777987554669">
        <ele>110.20999999999999</ele>
        <time>2017-10-30T08:25:10Z</time>
      </trkpt>
      <trkpt lat="52.136747986078262" lon="8.976646978408098">
        <ele>110.20999999999999</ele>
        <time>2017-10-30T08:25:11Z</time>
      </trkpt>
      <trkpt lat="52.137104971334338" lon="8.97604800760746">
        <ele>109.25</ele>
        <time>2017-10-30T08:25:15Z</time>
      </trkpt>
      <trkpt lat="52.137176971882582" lon="8.975886991247535">
        <ele>108.77</ele>
        <time>2017-10-30T08:25:16Z</time>
      </trkpt>
      <trkpt lat="52.137249978259206" lon="8.97572698071599">
        <ele>108.29000000000001</ele>
        <time>2017-10-30T08:25:17Z</time>
      </trkpt>
      <trkpt lat="52.137269005179405" lon="8.975499998778105">
        <ele>108.29000000000001</ele>
        <time>2017-10-30T08:25:18Z</time>
      </trkpt>
      <trkpt lat="52.13725802488625" lon="8.975286008790135">
        <ele>108.29000000000001</ele>
        <time>2017-10-30T08:25:19Z</time>
      </trkpt>
      <trkpt lat="52.13723698630929" lon="8.975069001317024">
        <ele>108.29000000000001</ele>
        <time>2017-10-30T08:25:20Z</time>
      </trkpt>
      <trkpt lat="52.137208990752697" lon="8.974778987467289">
        <ele>108.29000000000001</ele>
        <time>2017-10-30T08:25:21Z</time>
      </trkpt>
      <trkpt lat="52.137159034609795" lon="8.974630041047931">
        <ele>107.81</ele>
        <time>2017-10-30T08:25:22Z</time>
      </trkpt>
      <trkpt lat="52.137088039889932" lon="8.974412027746439">
        <ele>107.81</ele>
        <time>2017-10-30T08:25:23Z</time>
      </trkpt>
      <trkpt lat="52.137013021856546" lon="8.974185967817903">
        <ele>108.29000000000001</ele>
        <time>2017-10-30T08:25:24Z</time>
      </trkpt>
      <trkpt lat="52.136216992512345" lon="8.972239019349217">
        <ele>107.31999999999999</ele>
        <time>2017-10-30T08:25:33Z</time>
      </trkpt>
      <trkpt lat="52.13577501475811" lon="8.971399990841746">
        <ele>107.31999999999999</ele>
        <time>2017-10-30T08:25:38Z</time>
      </trkpt>
      <trkpt lat="52.135715000331402" lon="8.971248026937246">
        <ele>107.31999999999999</ele>
        <time>2017-10-30T08:25:39Z</time>
      </trkpt>
      <trkpt lat="52.135684993118048" lon="8.971095979213715">
        <ele>107.31999999999999</ele>
        <time>2017-10-30T08:25:40Z</time>
      </trkpt>
      <trkpt lat="52.135684993118048" lon="8.970937980338931">
        <ele>107.31999999999999</ele>
        <time>2017-10-30T08:25:41Z</time>
      </trkpt>
      <trkpt lat="52.135735033079982" lon="8.970795990899205">
        <ele>107.31999999999999</ele>
        <time>2017-10-30T08:25:42Z</time>
      </trkpt>
      <trkpt lat="52.135787000879645" lon="8.970648972317576">
        <ele>107.81</ele>
        <time>2017-10-30T08:25:43Z</time>
      </trkpt>
      <trkpt lat="52.135838968679309" lon="8.970499020069838">
        <ele>107.81</ele>
        <time>2017-10-30T08:25:44Z</time>
      </trkpt>
      <trkpt lat="52.136413967236876" lon="8.969142995774746">
        <ele>109.25</ele>
        <time>2017-10-30T08:25:52Z</time>
      </trkpt>
      <trkpt lat="52.136514969170094" lon="8.968968987464905">
        <ele>109.25</ele>
        <time>2017-10-30T08:25:53Z</time>
      </trkpt>
      <trkpt lat="52.136633992195129" lon="8.968809982761741">
        <ele>109.25</ele>
        <time>2017-10-30T08:25:54Z</time>
      </trkpt>
      <trkpt lat="52.137031964957714" lon="8.968327017500997">
        <ele>108.77</ele>
        <time>2017-10-30T08:25:57Z</time>
      </trkpt>
      <trkpt lat="52.137164985761046" lon="8.968144040554762">
        <ele>108.29000000000001</ele>
        <time>2017-10-30T08:25:58Z</time>
      </trkpt>
      <trkpt lat="52.137262970209122" lon="8.967914041131735">
        <ele>107.81</ele>
        <time>2017-10-30T08:25:59Z</time>
      </trkpt>
      <trkpt lat="52.137362966313958" lon="8.967680018395186">
        <ele>107.31999999999999</ele>
        <time>2017-10-30T08:26:00Z</time>
      </trkpt>
      <trkpt lat="52.137465979903936" lon="8.967439960688353">
        <ele>106.84</ele>
        <time>2017-10-30T08:26:01Z</time>
      </trkpt>
      <trkpt lat="52.137532029300928" lon="8.967185989022255">
        <ele>105.88</ele>
        <time>2017-10-30T08:26:02Z</time>
      </trkpt>
      <trkpt lat="52.13760101236403" lon="8.966923970729113">
        <ele>105.88</ele>
        <time>2017-10-30T08:26:03Z</time>
      </trkpt>
      <trkpt lat="52.138255974277854" lon="8.965142983943224">
        <ele>101.56</ele>
        <time>2017-10-30T08:26:11Z</time>
      </trkpt>
      <trkpt lat="52.139112018048763" lon="8.963811015710235">
        <ele>99.629999999999995</ele>
        <time>2017-10-30T08:26:21Z</time>
      </trkpt>
      <trkpt lat="52.139550978317857" lon="8.963219001889229">
        <ele>100.59999999999999</ele>
        <time>2017-10-30T08:26:26Z</time>
      </trkpt>
      <trkpt lat="52.139650974422693" lon="8.963129986077547">
        <ele>100.59999999999999</ele>
        <time>2017-10-30T08:26:27Z</time>
      </trkpt>
      <trkpt lat="52.139752982184291" lon="8.963038036599755">
        <ele>101.08</ele>
        <time>2017-10-30T08:26:28Z</time>
      </trkpt>
      <trkpt lat="52.139974012970924" lon="8.962866961956024">
        <ele>102.04000000000001</ele>
        <time>2017-10-30T08:26:30Z</time>
      </trkpt>
      <trkpt lat="52.140085995197296" lon="8.962794961407781">
        <ele>102.52</ele>
        <time>2017-10-30T08:26:31Z</time>
      </trkpt>
      <trkpt lat="52.141200033947825" lon="8.96231995895505">
        <ele>102.04000000000001</ele>
        <time>2017-10-30T08:26:41Z</time>
      </trkpt>
      <trkpt lat="52.142311977222562" lon="8.961858032271266">
        <ele>99.150000000000006</ele>
        <time>2017-10-30T08:26:51Z</time>
      </trkpt>
      <trkpt lat="52.143445964902639" lon="8.96199599839747">
        <ele>95.790000000000006</ele>
        <time>2017-10-30T08:27:01Z</time>
      </trkpt>
      <trkpt lat="52.144590010866523" lon="8.961871024221182">
        <ele>91.459999999999994</ele>
        <time>2017-10-30T08:27:11Z</time>
      </trkpt>
      <trkpt lat="52.145471032708883" lon="8.961722999811173">
        <ele>89.060000000000002</ele>
        <time>2017-10-30T08:27:19Z</time>
      </trkpt>
      <trkpt lat="52.145581003278494" lon="8.961729034781456">
        <ele>88.579999999999998</ele>
        <time>2017-10-30T08:27:20Z</time>
      </trkpt>
      <trkpt lat="52.146416008472443" lon="8.962115021422505">
        <ele>85.209999999999994</ele>
        <time>2017-10-30T08:27:28Z</time>
      </trkpt>
      <trkpt lat="52.146491026505828" lon="8.962157014757395">
        <ele>85.209999999999994</ele>
        <time>2017-10-30T08:27:29Z</time>
      </trkpt>
      <trkpt lat="52.146557997912169" lon="8.962193978950381">
        <ele>85.209999999999994</ele>
        <time>2017-10-30T08:27:30Z</time>
      </trkpt>
      <trkpt lat="52.146612983196974" lon="8.962223986163735">
        <ele>85.209999999999994</ele>
        <time>2017-10-30T08:27:31Z</time>
      </trkpt>
      <trkpt lat="52.146693030372262" lon="8.962268996983767">
        <ele>85.209999999999994</ele>
        <time>2017-10-30T08:27:32Z</time>
      </trkpt>
      <trkpt lat="52.146710967645049" lon="8.962299004197121">
        <ele>84.730000000000004</ele>
        <time>2017-10-30T08:27:33Z</time>
      </trkpt>
      <trkpt lat="52.146742986515164" lon="8.962352983653545">
        <ele>84.730000000000004</ele>
        <time>2017-10-30T08:27:34Z</time>
      </trkpt>
      <trkpt lat="52.146822027862072" lon="8.962483992800117">
        <ele>84.730000000000004</ele>
        <time>2017-10-30T08:27:35Z</time>
      </trkpt>
      <trkpt lat="52.147432984784245" lon="8.962568985298276">
        <ele>84.730000000000004</ele>
        <time>2017-10-30T08:27:42Z</time>
      </trkpt>
      <trkpt lat="52.147546978667378" lon="8.962568985298276">
        <ele>84.730000000000004</ele>
        <time>2017-10-30T08:27:43Z</time>
      </trkpt>
      <trkpt lat="52.147664995864034" lon="8.962568985298276">
        <ele>84.730000000000004</ele>
        <time>2017-10-30T08:27:44Z</time>
      </trkpt>
      <trkpt lat="52.147794999182224" lon="8.962477035820484">
        <ele>84.730000000000004</ele>
        <time>2017-10-30T08:27:45Z</time>
      </trkpt>
      <trkpt lat="52.147916033864021" lon="8.962380979210138">
        <ele>84.730000000000004</ele>
        <time>2017-10-30T08:27:46Z</time>
      </trkpt>
      <trkpt lat="52.148034973070025" lon="8.962263967841864">
        <ele>84.730000000000004</ele>
        <time>2017-10-30T08:27:47Z</time>
      </trkpt>
      <trkpt lat="52.148141004145145" lon="8.962114015594125">
        <ele>84.25</ele>
        <time>2017-10-30T08:27:48Z</time>
      </trkpt>
      <trkpt lat="52.148225996643305" lon="8.96191100589931">
        <ele>84.25</ele>
        <time>2017-10-30T08:27:49Z</time>
      </trkpt>
      <trkpt lat="52.148305959999561" lon="8.961709002032876">
        <ele>84.730000000000004</ele>
        <time>2017-10-30T08:27:50Z</time>
      </trkpt>
      <trkpt lat="52.14853797107935" lon="8.961121011525393">
        <ele>86.180000000000007</ele>
        <time>2017-10-30T08:27:53Z</time>
      </trkpt>
      <trkpt lat="52.14862204156816" lon="8.960959995165467">
        <ele>87.140000000000001</ele>
        <time>2017-10-30T08:27:54Z</time>
      </trkpt>
      <trkpt lat="52.148716002702713" lon="8.960804007947445">
        <ele>87.620000000000005</ele>
        <time>2017-10-30T08:27:55Z</time>
      </trkpt>
      <trkpt lat="52.148832008242607" lon="8.960679033771157">
        <ele>88.579999999999998</ele>
        <time>2017-10-30T08:27:56Z</time>
      </trkpt>
      <trkpt lat="52.148952037096024" lon="8.960550958290696">
        <ele>89.060000000000002</ele>
        <time>2017-10-30T08:27:57Z</time>
      </trkpt>
      <trkpt lat="52.150465976446867" lon="8.958820011466742">
        <ele>90.980000000000004</ele>
        <time>2017-10-30T08:28:09Z</time>
      </trkpt>
      <trkpt lat="52.151290001347661" lon="8.958074022084475">
        <ele>87.140000000000001</ele>
        <time>2017-10-30T08:28:15Z</time>
      </trkpt>
      <trkpt lat="52.151441965252161" lon="8.957991963252425">
        <ele>86.180000000000007</ele>
        <time>2017-10-30T08:28:16Z</time>
      </trkpt>
      <trkpt lat="52.152815004810691" lon="8.957789959385991">
        <ele>82.810000000000002</ele>
        <time>2017-10-30T08:28:24Z</time>
      </trkpt>
      <trkpt lat="52.153002005070448" lon="8.957761963829398">
        <ele>82.810000000000002</ele>
        <time>2017-10-30T08:28:25Z</time>
      </trkpt>
      <trkpt lat="52.153189005330205" lon="8.957698009908199">
        <ele>82.810000000000002</ele>
        <time>2017-10-30T08:28:26Z</time>
      </trkpt>
      <trkpt lat="52.154623987153172" lon="8.956857975572348">
        <ele>81.849999999999994</ele>
        <time>2017-10-30T08:28:34Z</time>
      </trkpt>
      <trkpt lat="52.155306022614241" lon="8.956249030306935">
        <ele>80.890000000000001</ele>
        <time>2017-10-30T08:28:38Z</time>
      </trkpt>
      <trkpt lat="52.156681995838881" lon="8.955447971820831">
        <ele>77.519999999999996</ele>
        <time>2017-10-30T08:28:46Z</time>
      </trkpt>
      <trkpt lat="52.158277994021773" lon="8.954517999663949">
        <ele>75.599999999999994</ele>
        <time>2017-10-30T08:28:56Z</time>
      </trkpt>
      <trkpt lat="52.158386958763003" lon="8.954450022429228">
        <ele>75.120000000000005</ele>
        <time>2017-10-30T08:28:57Z</time>
      </trkpt>
      <trkpt lat="52.158461976796389" lon="8.954312978312373">
        <ele>75.120000000000005</ele>
        <time>2017-10-30T08:28:58Z</time>
      </trkpt>
      <trkpt lat="52.158531965687871" lon="8.954148022457957">
        <ele>75.120000000000005</ele>
        <time>2017-10-30T08:29:00Z</time>
      </trkpt>
      <trkpt lat="52.158665992319584" lon="8.952451022341847">
        <ele>75.120000000000005</ele>
        <time>2017-10-30T08:29:06Z</time>
      </trkpt>
      <trkpt lat="52.158650988712907" lon="8.952195039018989">
        <ele>75.120000000000005</ele>
        <time>2017-10-30T08:29:07Z</time>
      </trkpt>
      <trkpt lat="52.158608995378017" lon="8.951940983533859">
        <ele>75.120000000000005</ele>
        <time>2017-10-30T08:29:09Z</time>
      </trkpt>
      <trkpt lat="52.158099040389061" lon="8.948772959411144">
        <ele>73.680000000000007</ele>
        <time>2017-10-30T08:29:20Z</time>
      </trkpt>
      <trkpt lat="52.157989991828799" lon="8.94654999487102">
        <ele>72.239999999999995</ele>
        <time>2017-10-30T08:29:27Z</time>
      </trkpt>
      <trkpt lat="52.158129969611764" lon="8.941898960620165">
        <ele>69.829999999999998</ele>
        <time>2017-10-30T08:29:40Z</time>
      </trkpt>
      <trkpt lat="52.158262990415096" lon="8.937873970717192">
        <ele>68.390000000000001</ele>
        <time>2017-10-30T08:29:51Z</time>
      </trkpt>
      <trkpt lat="52.158300038427114" lon="8.934806026518345">
        <ele>69.349999999999994</ele>
        <time>2017-10-30T08:30:02Z</time>
      </trkpt>
      <trkpt lat="52.158231977373362" lon="8.931673038750887">
        <ele>68.390000000000001</ele>
        <time>2017-10-30T08:30:14Z</time>
      </trkpt>
      <trkpt lat="52.158215967938304" lon="8.931370032951236">
        <ele>67.909999999999997</ele>
        <time>2017-10-30T08:30:15Z</time>
      </trkpt>
      <trkpt lat="52.158316969871521" lon="8.929608995094895">
        <ele>64.549999999999997</ele>
        <time>2017-10-30T08:30:22Z</time>
      </trkpt>
      <trkpt lat="52.158309007063508" lon="8.929376984015107">
        <ele>64.549999999999997</ele>
        <time>2017-10-30T08:30:23Z</time>
      </trkpt>
      <trkpt lat="52.15827296487987" lon="8.929142039269209">
        <ele>64.069999999999993</ele>
        <time>2017-10-30T08:30:24Z</time>
      </trkpt>
      <trkpt lat="52.158231977373362" lon="8.928901981562376">
        <ele>64.069999999999993</ele>
        <time>2017-10-30T08:30:25Z</time>
      </trkpt>
      <trkpt lat="52.158189984038472" lon="8.928658990189433">
        <ele>64.069999999999993</ele>
        <time>2017-10-30T08:30:26Z</time>
      </trkpt>
      <trkpt lat="52.157931989058852" lon="8.927161982282996">
        <ele>65.989999999999995</ele>
        <time>2017-10-30T08:30:32Z</time>
      </trkpt>
      <trkpt lat="52.157786982133985" lon="8.924540039151907">
        <ele>72.239999999999995</ele>
        <time>2017-10-30T08:30:43Z</time>
      </trkpt>
      <trkpt lat="52.157620014622808" lon="8.92317496240139">
        <ele>71.269999999999996</ele>
        <time>2017-10-30T08:30:51Z</time>
      </trkpt>
      <trkpt lat="52.157628983259201" lon="8.923016963526607">
        <ele>70.790000000000006</ele>
        <time>2017-10-30T08:30:52Z</time>
      </trkpt>
      <trkpt lat="52.157638035714626" lon="8.922867011278868">
        <ele>69.829999999999998</ele>
        <time>2017-10-30T08:30:53Z</time>
      </trkpt>
      <trkpt lat="52.157682962715626" lon="8.922742959111929">
        <ele>69.349999999999994</ele>
        <time>2017-10-30T08:30:54Z</time>
      </trkpt>
      <trkpt lat="52.157725039869547" lon="8.922624019905925">
        <ele>68.870000000000005</ele>
        <time>2017-10-30T08:30:55Z</time>
      </trkpt>
      <trkpt lat="52.157787987962365" lon="8.922532992437482">
        <ele>67.909999999999997</ele>
        <time>2017-10-30T08:30:56Z</time>
      </trkpt>
      <trkpt lat="52.157866023480892" lon="8.92246400937438">
        <ele>67.430000000000007</ele>
        <time>2017-10-30T08:30:57Z</time>
      </trkpt>
      <trkpt lat="52.157955039292574" lon="8.922394020482898">
        <ele>67.430000000000007</ele>
        <time>2017-10-30T08:30:58Z</time>
      </trkpt>
      <trkpt lat="52.158047994598746" lon="8.922358984127641">
        <ele>66.950000000000003</ele>
        <time>2017-10-30T08:30:59Z</time>
      </trkpt>
      <trkpt lat="52.158944020047784" lon="8.922020019963384">
        <ele>61.18</ele>
        <time>2017-10-30T08:31:07Z</time>
      </trkpt>
      <trkpt lat="52.160172974690795" lon="8.921502018347383">
        <ele>57.82</ele>
        <time>2017-10-30T08:31:17Z</time>
      </trkpt>
      <trkpt lat="52.16029099188745" lon="8.921416020020843">
        <ele>57.82</ele>
        <time>2017-10-30T08:31:18Z</time>
      </trkpt>
      <trkpt lat="52.160885017365217" lon="8.920828029513359">
        <ele>55.890000000000001</ele>
        <time>2017-10-30T08:31:23Z</time>
      </trkpt>
      <trkpt lat="52.16101803816855" lon="8.920757034793496">
        <ele>55.409999999999997</ele>
        <time>2017-10-30T08:31:24Z</time>
      </trkpt>
      <trkpt lat="52.16115097515285" lon="8.920686962082982">
        <ele>54.93</ele>
        <time>2017-10-30T08:31:25Z</time>
      </trkpt>
      <trkpt lat="52.161880033090711" lon="8.920399965718389">
        <ele>53.009999999999998</ele>
        <time>2017-10-30T08:31:31Z</time>
      </trkpt>
      <trkpt lat="52.161993021145463" lon="8.920356966555119">
        <ele>52.530000000000001</ele>
        <time>2017-10-30T08:31:32Z</time>
      </trkpt>
      <trkpt lat="52.162101985886693" lon="8.92031597904861">
        <ele>52.049999999999997</ele>
        <time>2017-10-30T08:31:33Z</time>
      </trkpt>
      <trkpt lat="52.162208016961813" lon="8.920275997370482">
        <ele>51.57</ele>
        <time>2017-10-30T08:31:34Z</time>
      </trkpt>
      <trkpt lat="52.162315975874662" lon="8.920228974893689">
        <ele>51.090000000000003</ele>
        <time>2017-10-30T08:31:35Z</time>
      </trkpt>
      <trkpt lat="52.163305962458253" lon="8.919278969988227">
        <ele>48.68</ele>
        <time>2017-10-30T08:31:45Z</time>
      </trkpt>
      <trkpt lat="52.164541035890579" lon="8.917893022298813">
        <ele>50.130000000000003</ele>
        <time>2017-10-30T08:31:58Z</time>
      </trkpt>
      <trkpt lat="52.164637008681893" lon="8.91778196208179">
        <ele>50.609999999999999</ele>
        <time>2017-10-30T08:31:59Z</time>
      </trkpt>
      <trkpt lat="52.165490034967661" lon="8.916789041832089">
        <ele>51.57</ele>
        <time>2017-10-30T08:32:06Z</time>
      </trkpt>
      <trkpt lat="52.166532995179296" lon="8.915575006976724">
        <ele>51.090000000000003</ele>
        <time>2017-10-30T08:32:14Z</time>
      </trkpt>
      <trkpt lat="52.166595021262765" lon="8.915504012256861">
        <ele>51.57</ele>
        <time>2017-10-30T08:32:15Z</time>
      </trkpt>
      <trkpt lat="52.166682025417686" lon="8.915402004495263">
        <ele>51.57</ele>
        <time>2017-10-30T08:32:21Z</time>
      </trkpt>
      <trkpt lat="52.166686970740557" lon="8.915297985076904">
        <ele>52.049999999999997</ele>
        <time>2017-10-30T08:32:23Z</time>
      </trkpt>
      <trkpt lat="52.166658975183964" lon="8.915272001177073">
        <ele>52.049999999999997</ele>
        <time>2017-10-30T08:32:24Z</time>
      </trkpt>
      <trkpt lat="52.166604995727539" lon="8.915221961215138">
        <ele>52.049999999999997</ele>
        <time>2017-10-30T08:32:25Z</time>
      </trkpt>
      <trkpt lat="52.166529977694154" lon="8.915152978152037">
        <ele>52.049999999999997</ele>
        <time>2017-10-30T08:32:26Z</time>
      </trkpt>
      <trkpt lat="52.166439034044743" lon="8.915067985653877">
        <ele>52.049999999999997</ele>
        <time>2017-10-30T08:32:27Z</time>
      </trkpt>
      <trkpt lat="52.166333002969623" lon="8.914971007034183">
        <ele>52.530000000000001</ele>
        <time>2017-10-30T08:32:28Z</time>
      </trkpt>
      <trkpt lat="52.165159033611417" lon="8.913801982998848">
        <ele>55.409999999999997</ele>
        <time>2017-10-30T08:32:37Z</time>
      </trkpt>
      <trkpt lat="52.165059959515929" lon="8.91361297108233">
        <ele>55.890000000000001</ele>
        <time>2017-10-30T08:32:38Z</time>
      </trkpt>
      <trkpt lat="52.164962980896235" lon="8.913425970822573">
        <ele>56.369999999999997</ele>
        <time>2017-10-30T08:32:39Z</time>
      </trkpt>
      <trkpt lat="52.164895003661513" lon="8.913211980834603">
        <ele>56.369999999999997</ele>
        <time>2017-10-30T08:32:40Z</time>
      </trkpt>
      <trkpt lat="52.16484596952796" lon="8.913002014160156">
        <ele>57.340000000000003</ele>
        <time>2017-10-30T08:32:41Z</time>
      </trkpt>
      <trkpt lat="52.164855021983385" lon="8.912750976160169">
        <ele>57.82</ele>
        <time>2017-10-30T08:32:42Z</time>
      </trkpt>
      <trkpt lat="52.164862984791398" lon="8.912517959252">
        <ele>58.299999999999997</ele>
        <time>2017-10-30T08:32:43Z</time>
      </trkpt>
      <trkpt lat="52.164895003661513" lon="8.912297012284398">
        <ele>58.780000000000001</ele>
        <time>2017-10-30T08:32:44Z</time>
      </trkpt>
      <trkpt lat="52.16495200060308" lon="8.912081010639668">
        <ele>59.740000000000002</ele>
        <time>2017-10-30T08:32:45Z</time>
      </trkpt>
      <trkpt lat="52.165036993101239" lon="8.91189300455153">
        <ele>60.219999999999999</ele>
        <time>2017-10-30T08:32:46Z</time>
      </trkpt>
      <trkpt lat="52.165146041661501" lon="8.911714972928166">
        <ele>61.18</ele>
        <time>2017-10-30T08:32:47Z</time>
      </trkpt>
      <trkpt lat="52.165261041373014" lon="8.911587987095118">
        <ele>61.659999999999997</ele>
        <time>2017-10-30T08:32:48Z</time>
      </trkpt>
      <trkpt lat="52.165399007499218" lon="8.911476004868746">
        <ele>62.619999999999997</ele>
        <time>2017-10-30T08:32:49Z</time>
      </trkpt>
      <trkpt lat="52.165543008595705" lon="8.91142001375556">
        <ele>63.100000000000001</ele>
        <time>2017-10-30T08:32:50Z</time>
      </trkpt>
      <trkpt lat="52.165686003863811" lon="8.911363016813994">
        <ele>64.069999999999993</ele>
        <time>2017-10-30T08:32:51Z</time>
      </trkpt>
      <trkpt lat="52.166569037362933" lon="8.910952974110842">
        <ele>69.349999999999994</ele>
        <time>2017-10-30T08:32:58Z</time>
      </trkpt>
      <trkpt lat="52.166695017367601" lon="8.910878961905837">
        <ele>69.829999999999998</ele>
        <time>2017-10-30T08:32:59Z</time>
      </trkpt>
      <trkpt lat="52.16684203594923" lon="8.910792041569948">
        <ele>70.310000000000002</ele>
        <time>2017-10-30T08:33:00Z</time>
      </trkpt>
      <trkpt lat="52.1669299621135" lon="8.910606969147921">
        <ele>70.310000000000002</ele>
        <time>2017-10-30T08:33:01Z</time>
      </trkpt>
      <trkpt lat="52.167023001238704" lon="8.910409994423389">
        <ele>70.790000000000006</ele>
        <time>2017-10-30T08:33:02Z</time>
      </trkpt>
      <trkpt lat="52.167084021493793" lon="8.910169014707208">
        <ele>70.790000000000006</ele>
        <time>2017-10-30T08:33:03Z</time>
      </trkpt>
      <trkpt lat="52.167124003171921" lon="8.909915965050459">
        <ele>70.790000000000006</ele>
        <time>2017-10-30T08:33:04Z</time>
      </trkpt>
      <trkpt lat="52.167132971808314" lon="8.909645983949304">
        <ele>70.790000000000006</ele>
        <time>2017-10-30T08:33:05Z</time>
      </trkpt>
      <trkpt lat="52.167107993736863" lon="8.909372985363007">
        <ele>70.790000000000006</ele>
        <time>2017-10-30T08:33:06Z</time>
      </trkpt>
      <trkpt lat="52.167038004845381" lon="8.909128988161683">
        <ele>70.790000000000006</ele>
        <time>2017-10-30T08:33:07Z</time>
      </trkpt>
      <trkpt lat="52.166953012347221" lon="8.908890020102263">
        <ele>70.790000000000006</ele>
        <time>2017-10-30T08:33:08Z</time>
      </trkpt>
      <trkpt lat="52.166846981272101" lon="8.908678041771054">
        <ele>70.310000000000002</ele>
        <time>2017-10-30T08:33:09Z</time>
      </trkpt>
      <trkpt lat="52.166744973510504" lon="8.90847503207624">
        <ele>69.829999999999998</ele>
        <time>2017-10-30T08:33:10Z</time>
      </trkpt>
      <trkpt lat="52.166023040190339" lon="8.906749030575156">
        <ele>66.950000000000003</ele>
        <time>2017-10-30T08:33:18Z</time>
      </trkpt>
      <trkpt lat="52.165119973942637" lon="8.903730036690831">
        <ele>64.549999999999997</ele>
        <time>2017-10-30T08:33:28Z</time>
      </trkpt>
      <trkpt lat="52.16452301479876" lon="8.900561006739736">
        <ele>64.069999999999993</ele>
        <time>2017-10-30T08:33:38Z</time>
      </trkpt>
      <trkpt lat="52.164433998987079" lon="8.897892041131854">
        <ele>63.100000000000001</ele>
        <time>2017-10-30T08:33:47Z</time>
      </trkpt>
      <trkpt lat="52.164746979251504" lon="8.895269008353353">
        <ele>58.780000000000001</ele>
        <time>2017-10-30T08:33:56Z</time>
      </trkpt>
      <trkpt lat="52.164769023656845" lon="8.892848985269666">
        <ele>55.409999999999997</ele>
        <time>2017-10-30T08:34:04Z</time>
      </trkpt>
      <trkpt lat="52.16439301148057" lon="8.890414964407682">
        <ele>53.009999999999998</ele>
        <time>2017-10-30T08:34:13Z</time>
      </trkpt>
      <trkpt lat="52.164001995697618" lon="8.887941967695952">
        <ele>50.130000000000003</ele>
        <time>2017-10-30T08:34:24Z</time>
      </trkpt>
      <trkpt lat="52.163923038169742" lon="8.88531600125134">
        <ele>50.130000000000003</ele>
        <time>2017-10-30T08:34:36Z</time>
      </trkpt>
      <trkpt lat="52.16405002400279" lon="8.883412973955274">
        <ele>48.68</ele>
        <time>2017-10-30T08:34:44Z</time>
      </trkpt>
      <trkpt lat="52.164148008450866" lon="8.88048199005425">
        <ele>50.130000000000003</ele>
        <time>2017-10-30T08:34:56Z</time>
      </trkpt>
      <trkpt lat="52.164303995668888" lon="8.877978986129165">
        <ele>51.090000000000003</ele>
        <time>2017-10-30T08:35:07Z</time>
      </trkpt>
      <trkpt lat="52.164370967075229" lon="8.877415973693132">
        <ele>50.609999999999999</ele>
        <time>2017-10-30T08:35:10Z</time>
      </trkpt>
      <trkpt lat="52.164392005652189" lon="8.87723601423204">
        <ele>50.609999999999999</ele>
        <time>2017-10-30T08:35:11Z</time>
      </trkpt>
      <trkpt lat="52.164425030350685" lon="8.876876011490822">
        <ele>50.130000000000003</ele>
        <time>2017-10-30T08:35:13Z</time>
      </trkpt>
      <trkpt lat="52.164447996765375" lon="8.876685993745923">
        <ele>50.130000000000003</ele>
        <time>2017-10-30T08:35:14Z</time>
      </trkpt>
      <trkpt lat="52.16450298205018" lon="8.876503016799688">
        <ele>50.130000000000003</ele>
        <time>2017-10-30T08:35:15Z</time>
      </trkpt>
      <trkpt lat="52.165106981992722" lon="8.874991005286574">
        <ele>50.609999999999999</ele>
        <time>2017-10-30T08:35:23Z</time>
      </trkpt>
      <trkpt lat="52.165729003027081" lon="8.873382015153766">
        <ele>51.57</ele>
        <time>2017-10-30T08:35:33Z</time>
      </trkpt>
      <trkpt lat="52.16667297296226" lon="8.871026029810309">
        <ele>47.240000000000002</ele>
        <time>2017-10-30T08:35:48Z</time>
      </trkpt>
      <trkpt lat="52.167141018435359" lon="8.869126019999385">
        <ele>49.159999999999997</ele>
        <time>2017-10-30T08:35:58Z</time>
      </trkpt>
      <trkpt lat="52.167417034506798" lon="8.867843002080917">
        <ele>53.009999999999998</ele>
        <time>2017-10-30T08:36:05Z</time>
      </trkpt>
      <trkpt lat="52.167463973164558" lon="8.867668993771076">
        <ele>53.969999999999999</ele>
        <time>2017-10-30T08:36:06Z</time>
      </trkpt>
      <trkpt lat="52.167521975934505" lon="8.867513006553054">
        <ele>54.450000000000003</ele>
        <time>2017-10-30T08:36:07Z</time>
      </trkpt>
      <trkpt lat="52.168097980320454" lon="8.866154970601201">
        <ele>53.969999999999999</ele>
        <time>2017-10-30T08:36:17Z</time>
      </trkpt>
      <trkpt lat="52.168264025822282" lon="8.865877026692033">
        <ele>52.530000000000001</ele>
        <time>2017-10-30T08:36:24Z</time>
      </trkpt>
      <trkpt lat="52.16832596808672" lon="8.865775018930435">
        <ele>51.57</ele>
        <time>2017-10-30T08:36:49Z</time>
      </trkpt>
      <trkpt lat="52.16836997307837" lon="8.865701006725431">
        <ele>51.57</ele>
        <time>2017-10-30T08:36:50Z</time>
      </trkpt>
      <trkpt lat="52.168398974463344" lon="8.865523980930448">
        <ele>51.090000000000003</ele>
        <time>2017-10-30T08:36:51Z</time>
      </trkpt>
      <trkpt lat="52.168365027755499" lon="8.865436976775527">
        <ele>50.609999999999999</ele>
        <time>2017-10-30T08:36:52Z</time>
      </trkpt>
      <trkpt lat="52.168324962258339" lon="8.8653330411762">
        <ele>50.609999999999999</ele>
        <time>2017-10-30T08:36:53Z</time>
      </trkpt>
      <trkpt lat="52.16828104108572" lon="8.865220975130796">
        <ele>50.130000000000003</ele>
        <time>2017-10-30T08:36:54Z</time>
      </trkpt>
      <trkpt lat="52.168246004730463" lon="8.865103963762522">
        <ele>50.130000000000003</ele>
        <time>2017-10-30T08:36:55Z</time>
      </trkpt>
      <trkpt lat="52.168214991688728" lon="8.865001033991575">
        <ele>50.130000000000003</ele>
        <time>2017-10-30T08:36:56Z</time>
      </trkpt>
      <trkpt lat="52.168214991688728" lon="8.864898020401597">
        <ele>50.130000000000003</ele>
        <time>2017-10-30T08:36:57Z</time>
      </trkpt>
      <trkpt lat="52.168214991688728" lon="8.864803975448012">
        <ele>50.130000000000003</ele>
        <time>2017-10-30T08:36:58Z</time>
      </trkpt>
      <trkpt lat="52.168214991688728" lon="8.864722000434995">
        <ele>50.130000000000003</ele>
        <time>2017-10-30T08:36:59Z</time>
      </trkpt>
      <trkpt lat="52.168250028043985" lon="8.864656034857035">
        <ele>50.130000000000003</ele>
        <time>2017-10-30T08:37:00Z</time>
      </trkpt>
      <trkpt lat="52.168278023600578" lon="8.864602977409959">
        <ele>50.130000000000003</ele>
        <time>2017-10-30T08:37:01Z</time>
      </trkpt>
      <trkpt lat="52.168301995843649" lon="8.864556960761547">
        <ele>50.130000000000003</ele>
        <time>2017-10-30T08:37:02Z</time>
      </trkpt>
      <trkpt lat="52.168319011107087" lon="8.864523014053702">
        <ele>50.130000000000003</ele>
        <time>2017-10-30T08:37:03Z</time>
      </trkpt>
      <trkpt lat="52.168329991400242" lon="8.864502981305122">
        <ele>50.130000000000003</ele>
        <time>2017-10-30T08:37:04Z</time>
      </trkpt>
      <trkpt lat="52.168329991400242" lon="8.864502981305122">
        <ele>50.130000000000003</ele>
        <time>2017-10-30T08:37:19Z</time>
      </trkpt>
      <trkpt lat="52.168355975300074" lon="8.864454030990601">
        <ele>50.130000000000003</ele>
        <time>2017-10-30T08:38:03Z</time>
      </trkpt>
      <trkpt lat="52.168381959199905" lon="8.864402985200286">
        <ele>50.609999999999999</ele>
        <time>2017-10-30T08:38:04Z</time>
      </trkpt>
      <trkpt lat="52.16849603690207" lon="8.864339031279087">
        <ele>50.609999999999999</ele>
        <time>2017-10-30T08:38:05Z</time>
      </trkpt>
      <trkpt lat="52.168546998873353" lon="8.864414971321821">
        <ele>50.609999999999999</ele>
        <time>2017-10-30T08:38:06Z</time>
      </trkpt>
      <trkpt lat="52.168611958622932" lon="8.864513039588928">
        <ele>51.090000000000003</ele>
        <time>2017-10-30T08:38:07Z</time>
      </trkpt>
      <trkpt lat="52.168685970827937" lon="8.864624015986919">
        <ele>51.57</ele>
        <time>2017-10-30T08:38:08Z</time>
      </trkpt>
      <trkpt lat="52.169355014339089" lon="8.865967970341444">
        <ele>57.82</ele>
        <time>2017-10-30T08:38:16Z</time>
      </trkpt>
      <trkpt lat="52.17034600675106" lon="8.86836301535368">
        <ele>59.740000000000002</ele>
        <time>2017-10-30T08:38:26Z</time>
      </trkpt>
      <trkpt lat="52.170639960095286" lon="8.868753025308251">
        <ele>59.259999999999998</ele>
        <time>2017-10-30T08:38:28Z</time>
      </trkpt>
      <trkpt lat="52.170797036960721" lon="8.868929967284203">
        <ele>58.780000000000001</ele>
        <time>2017-10-30T08:38:29Z</time>
      </trkpt>
      <trkpt lat="52.170962998643517" lon="8.869084026664496">
        <ele>58.299999999999997</ele>
        <time>2017-10-30T08:38:30Z</time>
      </trkpt>
      <trkpt lat="52.171131977811456" lon="8.869209000840783">
        <ele>57.82</ele>
        <time>2017-10-30T08:38:31Z</time>
      </trkpt>
      <trkpt lat="52.171305986121297" lon="8.869316037744284">
        <ele>57.340000000000003</ele>
        <time>2017-10-30T08:38:32Z</time>
      </trkpt>
      <trkpt lat="52.171474965289235" lon="8.869420979171991">
        <ele>56.859999999999999</ele>
        <time>2017-10-30T08:38:33Z</time>
      </trkpt>
      <trkpt lat="52.171636987477541" lon="8.869521981105208">
        <ele>55.890000000000001</ele>
        <time>2017-10-30T08:38:34Z</time>
      </trkpt>
      <trkpt lat="52.171800015494227" lon="8.86954402551055">
        <ele>55.409999999999997</ele>
        <time>2017-10-30T08:38:35Z</time>
      </trkpt>
      <trkpt lat="52.171954996883869" lon="8.869559029117227">
        <ele>54.93</ele>
        <time>2017-10-30T08:38:36Z</time>
      </trkpt>
      <trkpt lat="52.172710038721561" lon="8.869497003033757">
        <ele>52.530000000000001</ele>
        <time>2017-10-30T08:38:41Z</time>
      </trkpt>
      <trkpt lat="52.17386799864471" lon="8.869001967832446">
        <ele>50.609999999999999</ele>
        <time>2017-10-30T08:38:50Z</time>
      </trkpt>
      <trkpt lat="52.17397696338594" lon="8.868931978940964">
        <ele>50.609999999999999</ele>
        <time>2017-10-30T08:38:51Z</time>
      </trkpt>
      <trkpt lat="52.174433022737503" lon="8.868645988404751">
        <ele>50.130000000000003</ele>
        <time>2017-10-30T08:38:56Z</time>
      </trkpt>
      <trkpt lat="52.174588004127145" lon="8.868735004216433">
        <ele>49.649999999999999</ele>
        <time>2017-10-30T08:38:57Z</time>
      </trkpt>
      <trkpt lat="52.174588004127145" lon="8.868735004216433">
        <ele>49.649999999999999</ele>
        <time>2017-10-30T08:38:58Z</time>
      </trkpt>
      <trkpt lat="52.1747060213238" lon="8.868766017258167">
        <ele>49.649999999999999</ele>
        <time>2017-10-30T08:38:59Z</time>
      </trkpt>
      <trkpt lat="52.174781039357185" lon="8.868885040283203">
        <ele>49.649999999999999</ele>
        <time>2017-10-30T08:39:00Z</time>
      </trkpt>
      <trkpt lat="52.174850022420287" lon="8.868996016681194">
        <ele>49.649999999999999</ele>
        <time>2017-10-30T08:39:01Z</time>
      </trkpt>
      <trkpt lat="52.175096031278372" lon="8.869391977787018">
        <ele>51.090000000000003</ele>
        <time>2017-10-30T08:39:04Z</time>
      </trkpt>
      <trkpt lat="52.175190998241305" lon="8.869521981105208">
        <ele>51.57</ele>
        <time>2017-10-30T08:39:05Z</time>
      </trkpt>
      <trkpt lat="52.175297029316425" lon="8.869585013017058">
        <ele>52.049999999999997</ele>
        <time>2017-10-30T08:39:06Z</time>
      </trkpt>
      <trkpt lat="52.176104038953781" lon="8.869967982172966">
        <ele>54.93</ele>
        <time>2017-10-30T08:39:15Z</time>
      </trkpt>
      <trkpt lat="52.177155967801809" lon="8.870395962148905">
        <ele>56.859999999999999</ele>
        <time>2017-10-30T08:39:25Z</time>
      </trkpt>
      <trkpt lat="52.178698992356658" lon="8.871031980961561">
        <ele>58.780000000000001</ele>
        <time>2017-10-30T08:39:38Z</time>
      </trkpt>
      <trkpt lat="52.179729966446757" lon="8.871531039476395">
        <ele>60.219999999999999</ele>
        <time>2017-10-30T08:39:47Z</time>
      </trkpt>
      <trkpt lat="52.179843038320541" lon="8.871541013941169">
        <ele>59.740000000000002</ele>
        <time>2017-10-30T08:39:48Z</time>
      </trkpt>
      <trkpt lat="52.179959965869784" lon="8.871550988405943">
        <ele>59.740000000000002</ele>
        <time>2017-10-30T08:39:49Z</time>
      </trkpt>
      <trkpt lat="52.180998986586928" lon="8.871476976200938">
        <ele>62.140000000000001</ele>
        <time>2017-10-30T08:39:58Z</time>
      </trkpt>
      <trkpt lat="52.182350987568498" lon="8.871469013392925">
        <ele>65.030000000000001</ele>
        <time>2017-10-30T08:40:09Z</time>
      </trkpt>
      <trkpt lat="52.182603031396866" lon="8.871528021991253">
        <ele>65.510000000000005</ele>
        <time>2017-10-30T08:40:11Z</time>
      </trkpt>
      <trkpt lat="52.182725993916392" lon="8.871542019769549">
        <ele>66.469999999999999</ele>
        <time>2017-10-30T08:40:12Z</time>
      </trkpt>
      <trkpt lat="52.182852979749441" lon="8.871508995071054">
        <ele>66.950000000000003</ele>
        <time>2017-10-30T08:40:13Z</time>
      </trkpt>
      <trkpt lat="52.183400988578796" lon="8.87133096344769">
        <ele>70.790000000000006</ele>
        <time>2017-10-30T08:40:18Z</time>
      </trkpt>
      <trkpt lat="52.183500984683633" lon="8.87133096344769">
        <ele>71.269999999999996</ele>
        <time>2017-10-30T08:40:19Z</time>
      </trkpt>
      <trkpt lat="52.183608021587133" lon="8.87133096344769">
        <ele>72.239999999999995</ele>
        <time>2017-10-30T08:40:20Z</time>
      </trkpt>
      <trkpt lat="52.183711035177112" lon="8.871399024501443">
        <ele>72.719999999999999</ele>
        <time>2017-10-30T08:40:21Z</time>
      </trkpt>
      <trkpt lat="52.183810025453568" lon="8.871499020606279">
        <ele>73.200000000000003</ele>
        <time>2017-10-30T08:40:22Z</time>
      </trkpt>
      <trkpt lat="52.183909015730023" lon="8.871597005054355">
        <ele>73.680000000000007</ele>
        <time>2017-10-30T08:40:23Z</time>
      </trkpt>
      <trkpt lat="52.184005994349718" lon="8.87169498950243">
        <ele>74.159999999999997</ele>
        <time>2017-10-30T08:40:24Z</time>
      </trkpt>
      <trkpt lat="52.184106996282935" lon="8.871766990050674">
        <ele>75.120000000000005</ele>
        <time>2017-10-30T08:40:25Z</time>
      </trkpt>
      <trkpt lat="52.184215039014816" lon="8.871820969507098">
        <ele>75.599999999999994</ele>
        <time>2017-10-30T08:40:26Z</time>
      </trkpt>
      <trkpt lat="52.184318974614143" lon="8.871846031397581">
        <ele>76.079999999999998</ele>
        <time>2017-10-30T08:40:27Z</time>
      </trkpt>
      <trkpt lat="52.184423999860883" lon="8.871846031397581">
        <ele>76.560000000000002</ele>
        <time>2017-10-30T08:40:28Z</time>
      </trkpt>
      <trkpt lat="52.184533970430493" lon="8.871842008084059">
        <ele>77.519999999999996</ele>
        <time>2017-10-30T08:40:29Z</time>
      </trkpt>
      <trkpt lat="52.185443993657827" lon="8.871396007016301">
        <ele>81.849999999999994</ele>
        <time>2017-10-30T08:40:37Z</time>
      </trkpt>
      <trkpt lat="52.186281010508537" lon="8.870670972391963">
        <ele>80.890000000000001</ele>
        <time>2017-10-30T08:40:45Z</time>
      </trkpt>
      <trkpt lat="52.18639399856329" lon="8.870625961571932">
        <ele>80.890000000000001</ele>
        <time>2017-10-30T08:40:46Z</time>
      </trkpt>
      <trkpt lat="52.186505980789661" lon="8.870581034570932">
        <ele>80.890000000000001</ele>
        <time>2017-10-30T08:40:47Z</time>
      </trkpt>
      <trkpt lat="52.186622992157936" lon="8.870564019307494">
        <ele>80.890000000000001</ele>
        <time>2017-10-30T08:40:48Z</time>
      </trkpt>
      <trkpt lat="52.186744026839733" lon="8.870573993772268">
        <ele>80.890000000000001</ele>
        <time>2017-10-30T08:40:49Z</time>
      </trkpt>
      <trkpt lat="52.186874030157924" lon="8.870584974065423">
        <ele>80.890000000000001</ele>
        <time>2017-10-30T08:40:50Z</time>
      </trkpt>
      <trkpt lat="52.187144011259079" lon="8.870579022914171">
        <ele>81.849999999999994</ele>
        <time>2017-10-30T08:40:52Z</time>
      </trkpt>
      <trkpt lat="52.187282983213663" lon="8.870530994608998">
        <ele>82.810000000000002</ele>
        <time>2017-10-30T08:40:53Z</time>
      </trkpt>
      <trkpt lat="52.187711969017982" lon="8.870382970198989">
        <ele>85.689999999999998</ele>
        <time>2017-10-30T08:40:56Z</time>
      </trkpt>
      <trkpt lat="52.187860999256372" lon="8.870372995734215">
        <ele>87.140000000000001</ele>
        <time>2017-10-30T08:40:57Z</time>
      </trkpt>
      <trkpt lat="52.188015980646014" lon="8.870382970198989">
        <ele>88.579999999999998</ele>
        <time>2017-10-30T08:40:58Z</time>
      </trkpt>
      <trkpt lat="52.189774001017213" lon="8.870429992675781">
        <ele>100.59999999999999</ele>
        <time>2017-10-30T08:41:09Z</time>
      </trkpt>
      <trkpt lat="52.191244019195437" lon="8.870916981250048">
        <ele>106.36</ele>
        <time>2017-10-30T08:41:19Z</time>
      </trkpt>
      <trkpt lat="52.193008996546268" lon="8.871210012584925">
        <ele>109.73</ele>
        <time>2017-10-30T08:41:30Z</time>
      </trkpt>
      <trkpt lat="52.194566018879414" lon="8.871772019192576">
        <ele>111.65000000000001</ele>
        <time>2017-10-30T08:41:40Z</time>
      </trkpt>
      <trkpt lat="52.195587018504739" lon="8.872093968093395">
        <ele>107.81</ele>
        <time>2017-10-30T08:41:48Z</time>
      </trkpt>
      <trkpt lat="52.195735964924097" lon="8.87208198197186">
        <ele>106.84</ele>
        <time>2017-10-30T08:41:49Z</time>
      </trkpt>
      <trkpt lat="52.197041027247906" lon="8.871620977297425">
        <ele>99.150000000000006</ele>
        <time>2017-10-30T08:41:57Z</time>
      </trkpt>
      <trkpt lat="52.19844801351428" lon="8.870831988751888">
        <ele>90.5</ele>
        <time>2017-10-30T08:42:06Z</time>
      </trkpt>
      <trkpt lat="52.200449025258422" lon="8.869548970833421">
        <ele>90.980000000000004</ele>
        <time>2017-10-30T08:42:19Z</time>
      </trkpt>
      <trkpt lat="52.200779020786285" lon="8.869432965293527">
        <ele>90.019999999999996</ele>
        <time>2017-10-30T08:42:21Z</time>
      </trkpt>
      <trkpt lat="52.20094196498394" lon="8.869413016363978">
        <ele>89.540000000000006</ele>
        <time>2017-10-30T08:42:22Z</time>
      </trkpt>
      <trkpt lat="52.201101975515485" lon="8.869417039677501">
        <ele>89.540000000000006</ele>
        <time>2017-10-30T08:42:23Z</time>
      </trkpt>
      <trkpt lat="52.201257962733507" lon="8.869463978335261">
        <ele>89.060000000000002</ele>
        <time>2017-10-30T08:42:24Z</time>
      </trkpt>
      <trkpt lat="52.201398024335504" lon="8.869543019682169">
        <ele>89.060000000000002</ele>
        <time>2017-10-30T08:42:25Z</time>
      </trkpt>
      <trkpt lat="52.201526015996933" lon="8.869616026058793">
        <ele>89.060000000000002</ele>
        <time>2017-10-30T08:42:26Z</time>
      </trkpt>
      <trkpt lat="52.202596971765161" lon="8.870188007131219">
        <ele>89.060000000000002</ele>
        <time>2017-10-30T08:42:35Z</time>
      </trkpt>
      <trkpt lat="52.202872987836599" lon="8.870262019336224">
        <ele>89.540000000000006</ele>
        <time>2017-10-30T08:42:38Z</time>
      </trkpt>
      <trkpt lat="52.202942976728082" lon="8.870280962437391">
        <ele>90.019999999999996</ele>
        <time>2017-10-30T08:42:39Z</time>
      </trkpt>
      <trkpt lat="52.203019000589848" lon="8.870459999889135">
        <ele>90.019999999999996</ele>
        <time>2017-10-30T08:42:40Z</time>
      </trkpt>
      <trkpt lat="52.203019000589848" lon="8.870611963793635">
        <ele>90.5</ele>
        <time>2017-10-30T08:42:41Z</time>
      </trkpt>
      <trkpt lat="52.203019000589848" lon="8.870774991810322">
        <ele>91.459999999999994</ele>
        <time>2017-10-30T08:42:42Z</time>
      </trkpt>
      <trkpt lat="52.203071974217892" lon="8.87128503061831">
        <ele>93.390000000000001</ele>
        <time>2017-10-30T08:42:45Z</time>
      </trkpt>
      <trkpt lat="52.203108016401529" lon="8.871456021443009">
        <ele>93.390000000000001</ele>
        <time>2017-10-30T08:42:46Z</time>
      </trkpt>
      <trkpt lat="52.203149003908038" lon="8.871606979519129">
        <ele>93.870000000000005</ele>
        <time>2017-10-30T08:42:47Z</time>
      </trkpt>
      <trkpt lat="52.203201977536082" lon="8.871753998100758">
        <ele>93.870000000000005</ele>
        <time>2017-10-30T08:42:48Z</time>
      </trkpt>
      <trkpt lat="52.203264003619552" lon="8.871896993368864">
        <ele>93.870000000000005</ele>
        <time>2017-10-30T08:42:49Z</time>
      </trkpt>
      <trkpt lat="52.203328963369131" lon="8.872042000293732">
        <ele>93.870000000000005</ele>
        <time>2017-10-30T08:42:50Z</time>
      </trkpt>
      <trkpt lat="52.203899016603827" lon="8.873190991580486">
        <ele>91.459999999999994</ele>
        <time>2017-10-30T08:42:58Z</time>
      </trkpt>
      <trkpt lat="52.203972022980452" lon="8.873285036534071">
        <ele>90.980000000000004</ele>
        <time>2017-10-30T08:42:59Z</time>
      </trkpt>
      <trkpt lat="52.204069001600146" lon="8.873357959091663">
        <ele>90.5</ele>
        <time>2017-10-30T08:43:00Z</time>
      </trkpt>
      <trkpt lat="52.204172015190125" lon="8.87343498878181">
        <ele>89.540000000000006</ele>
        <time>2017-10-30T08:43:01Z</time>
      </trkpt>
      <trkpt lat="52.204282991588116" lon="8.873479999601841">
        <ele>89.060000000000002</ele>
        <time>2017-10-30T08:43:02Z</time>
      </trkpt>
      <trkpt lat="52.205873038619757" lon="8.873956007882953">
        <ele>80.409999999999997</ele>
        <time>2017-10-30T08:43:14Z</time>
      </trkpt>
      <trkpt lat="52.207770030945539" lon="8.87459303252399">
        <ele>73.680000000000007</ele>
        <time>2017-10-30T08:43:28Z</time>
      </trkpt>
      <trkpt lat="52.209215993061662" lon="8.875000979751349">
        <ele>71.269999999999996</ele>
        <time>2017-10-30T08:43:40Z</time>
      </trkpt>
      <trkpt lat="52.209756039083004" lon="8.875171970576048">
        <ele>70.310000000000002</ele>
        <time>2017-10-30T08:43:48Z</time>
      </trkpt>
      <trkpt lat="52.209880007430911" lon="8.875210024416447">
        <ele>69.829999999999998</ele>
        <time>2017-10-30T08:43:51Z</time>
      </trkpt>
      <trkpt lat="52.2099220007658" lon="8.875222010537982">
        <ele>69.349999999999994</ele>
        <time>2017-10-30T08:43:52Z</time>
      </trkpt>
      <trkpt lat="52.209956031292677" lon="8.875231985002756">
        <ele>69.349999999999994</ele>
        <time>2017-10-30T08:43:53Z</time>
      </trkpt>
      <trkpt lat="52.209956031292677" lon="8.875231985002756">
        <ele>69.349999999999994</ele>
        <time>2017-10-30T08:44:01Z</time>
      </trkpt>
      <trkpt lat="52.209956031292677" lon="8.875231985002756">
        <ele>68.870000000000005</ele>
        <time>2017-10-30T08:44:45Z</time>
      </trkpt>
      <trkpt lat="52.210140014067292" lon="8.875285964459181">
        <ele>68.390000000000001</ele>
        <time>2017-10-30T08:45:14Z</time>
      </trkpt>
      <trkpt lat="52.21097300760448" lon="8.875557035207748">
        <ele>66.950000000000003</ele>
        <time>2017-10-30T08:45:23Z</time>
      </trkpt>
      <trkpt lat="52.212334983050823" lon="8.875956013798714">
        <ele>65.989999999999995</ele>
        <time>2017-10-30T08:45:36Z</time>
      </trkpt>
      <trkpt lat="52.213477017357945" lon="8.876296989619732">
        <ele>62.619999999999997</ele>
        <time>2017-10-30T08:45:44Z</time>
      </trkpt>
      <trkpt lat="52.215128000825644" lon="8.876797975972295">
        <ele>58.299999999999997</ele>
        <time>2017-10-30T08:45:52Z</time>
      </trkpt>
      <trkpt lat="52.217513993382454" lon="8.877768013626337">
        <ele>52.530000000000001</ele>
        <time>2017-10-30T08:46:03Z</time>
      </trkpt>
      <trkpt lat="52.219476029276848" lon="8.87891398742795">
        <ele>53.490000000000002</ele>
        <time>2017-10-30T08:46:14Z</time>
      </trkpt>
      <trkpt lat="52.221041014418006" lon="8.880092985928059">
        <ele>53.009999999999998</ele>
        <time>2017-10-30T08:46:25Z</time>
      </trkpt>
      <trkpt lat="52.222053967416286" lon="8.881007032468915">
        <ele>52.530000000000001</ele>
        <time>2017-10-30T08:46:35Z</time>
      </trkpt>
      <trkpt lat="52.223200025036931" lon="8.882154012098908">
        <ele>54.93</ele>
        <time>2017-10-30T08:46:47Z</time>
      </trkpt>
      <trkpt lat="52.224410036578774" lon="8.883585976436734">
        <ele>55.890000000000001</ele>
        <time>2017-10-30T08:47:00Z</time>
      </trkpt>
      <trkpt lat="52.225978039205074" lon="8.885750016197562">
        <ele>55.409999999999997</ele>
        <time>2017-10-30T08:47:15Z</time>
      </trkpt>
      <trkpt lat="52.227188972756267" lon="8.887697970494628">
        <ele>58.299999999999997</ele>
        <time>2017-10-30T08:47:28Z</time>
      </trkpt>
      <trkpt lat="52.228146018460393" lon="8.88952698558569">
        <ele>58.299999999999997</ele>
        <time>2017-10-30T08:47:39Z</time>
      </trkpt>
      <trkpt lat="52.229166012257338" lon="8.891800995916128">
        <ele>56.369999999999997</ele>
        <time>2017-10-30T08:47:48Z</time>
      </trkpt>
      <trkpt lat="52.230384992435575" lon="8.894586972892284">
        <ele>54.450000000000003</ele>
        <time>2017-10-30T08:47:59Z</time>
      </trkpt>
      <trkpt lat="52.231317982077599" lon="8.896776996552944">
        <ele>53.969999999999999</ele>
        <time>2017-10-30T08:48:09Z</time>
      </trkpt>
      <trkpt lat="52.232619021087885" lon="8.899899004027247">
        <ele>52.530000000000001</ele>
        <time>2017-10-30T08:48:23Z</time>
      </trkpt>
      <trkpt lat="52.232710970565677" lon="8.900138977915049">
        <ele>52.049999999999997</ele>
        <time>2017-10-30T08:48:24Z</time>
      </trkpt>
      <trkpt lat="52.233306001871824" lon="8.902308968827128">
        <ele>51.57</ele>
        <time>2017-10-30T08:48:32Z</time>
      </trkpt>
      <trkpt lat="52.233875971287489" lon="8.905227966606617">
        <ele>49.649999999999999</ele>
        <time>2017-10-30T08:48:43Z</time>
      </trkpt>
      <trkpt lat="52.234287019819021" lon="8.906932007521391">
        <ele>48.200000000000003</ele>
        <time>2017-10-30T08:48:52Z</time>
      </trkpt>
      <trkpt lat="52.234891019761562" lon="8.908754987642169">
        <ele>48.68</ele>
        <time>2017-10-30T08:49:03Z</time>
      </trkpt>
      <trkpt lat="52.235131999477744" lon="8.909411961212754">
        <ele>48.200000000000003</ele>
        <time>2017-10-30T08:49:09Z</time>
      </trkpt>
      <trkpt lat="52.235317993909121" lon="8.909904984757304">
        <ele>47.240000000000002</ele>
        <time>2017-10-30T08:49:17Z</time>
      </trkpt>
      <trkpt lat="52.235613958910108" lon="8.910774020478129">
        <ele>46.759999999999998</ele>
        <time>2017-10-30T08:49:25Z</time>
      </trkpt>
      <trkpt lat="52.235947977751493" lon="8.911685971543193">
        <ele>46.759999999999998</ele>
        <time>2017-10-30T08:49:33Z</time>
      </trkpt>
      <trkpt lat="52.236514007672668" lon="8.913248023018241">
        <ele>48.68</ele>
        <time>2017-10-30T08:49:44Z</time>
      </trkpt>
      <trkpt lat="52.237251028418541" lon="8.915076032280922">
        <ele>49.649999999999999</ele>
        <time>2017-10-30T08:49:56Z</time>
      </trkpt>
      <trkpt lat="52.237961981445551" lon="8.916372964158654">
        <ele>49.649999999999999</ele>
        <time>2017-10-30T08:50:05Z</time>
      </trkpt>
      <trkpt lat="52.239351030439138" lon="8.918273979797959">
        <ele>51.57</ele>
        <time>2017-10-30T08:50:17Z</time>
      </trkpt>
      <trkpt lat="52.240524999797344" lon="8.919768976047635">
        <ele>59.740000000000002</ele>
        <time>2017-10-30T08:50:26Z</time>
      </trkpt>
      <trkpt lat="52.240626001730561" lon="8.919895961880684">
        <ele>60.219999999999999</ele>
        <time>2017-10-30T08:50:27Z</time>
      </trkpt>
      <trkpt lat="52.240742007270455" lon="8.920039962977171">
        <ele>60.700000000000003</ele>
        <time>2017-10-30T08:50:28Z</time>
      </trkpt>
      <trkpt lat="52.240781988948584" lon="8.920070976018906">
        <ele>60.700000000000003</ele>
        <time>2017-10-30T08:50:29Z</time>
      </trkpt>
      <trkpt lat="52.240872010588646" lon="8.920178012922406">
        <ele>61.18</ele>
        <time>2017-10-30T08:50:30Z</time>
      </trkpt>
      <trkpt lat="52.241015005856752" lon="8.920024037361145">
        <ele>61.18</ele>
        <time>2017-10-30T08:50:31Z</time>
      </trkpt>
      <trkpt lat="52.241082983091474" lon="8.919880958274007">
        <ele>61.18</ele>
        <time>2017-10-30T08:50:32Z</time>
      </trkpt>
      <trkpt lat="52.241164958104491" lon="8.919710973277688">
        <ele>61.659999999999997</ele>
        <time>2017-10-30T08:50:33Z</time>
      </trkpt>
      <trkpt lat="52.241263026371598" lon="8.919530007988215">
        <ele>61.659999999999997</ele>
        <time>2017-10-30T08:50:34Z</time>
      </trkpt>
      <trkpt lat="52.242033993825316" lon="8.917906014248729">
        <ele>60.700000000000003</ele>
        <time>2017-10-30T08:50:42Z</time>
      </trkpt>
      <trkpt lat="52.243038984015584" lon="8.915705010294914">
        <ele>57.340000000000003</ele>
        <time>2017-10-30T08:50:54Z</time>
      </trkpt>
      <trkpt lat="52.243767036125064" lon="8.914418974891305">
        <ele>53.969999999999999</ele>
        <time>2017-10-30T08:51:04Z</time>
      </trkpt>
      <trkpt lat="52.244782000780106" lon="8.9133330155164">
        <ele>52.049999999999997</ele>
        <time>2017-10-30T08:51:14Z</time>
      </trkpt>
      <trkpt lat="52.245809035375714" lon="8.912746030837297">
        <ele>53.490000000000002</ele>
        <time>2017-10-30T08:51:24Z</time>
      </trkpt>
      <trkpt lat="52.246872028335929" lon="8.912329031154513">
        <ele>55.890000000000001</ele>
        <time>2017-10-30T08:51:34Z</time>
      </trkpt>
      <trkpt lat="52.248013978824019" lon="8.911897027865052">
        <ele>59.259999999999998</ele>
        <time>2017-10-30T08:51:43Z</time>
      </trkpt>
      <trkpt lat="52.249072026461363" lon="8.911497965455055">
        <ele>59.259999999999998</ele>
        <time>2017-10-30T08:51:52Z</time>
      </trkpt>
      <trkpt lat="52.2496900241822" lon="8.911266038194299">
        <ele>58.780000000000001</ele>
        <time>2017-10-30T08:51:59Z</time>
      </trkpt>
      <trkpt lat="52.249724976718426" lon="8.911253968253732">
        <ele>58.299999999999997</ele>
        <time>2017-10-30T08:52:05Z</time>
      </trkpt>
      <trkpt lat="52.249865038320422" lon="8.911200994625688">
        <ele>58.299999999999997</ele>
        <time>2017-10-30T08:52:34Z</time>
      </trkpt>
      <trkpt lat="52.249981965869665" lon="8.911154977977276">
        <ele>59.259999999999998</ele>
        <time>2017-10-30T08:52:38Z</time>
      </trkpt>
      <trkpt lat="52.249925974756479" lon="8.911025980487466">
        <ele>59.259999999999998</ele>
        <time>2017-10-30T08:52:39Z</time>
      </trkpt>
      <trkpt lat="52.249923963099718" lon="8.910929001867771">
        <ele>59.259999999999998</ele>
        <time>2017-10-30T08:52:40Z</time>
      </trkpt>
      <trkpt lat="52.249783985316753" lon="8.909890986979008">
        <ele>59.259999999999998</ele>
        <time>2017-10-30T08:52:46Z</time>
      </trkpt>
      <trkpt lat="52.24977602250874" lon="8.909708010032773">
        <ele>60.219999999999999</ele>
        <time>2017-10-30T08:52:47Z</time>
      </trkpt>
      <trkpt lat="52.24977602250874" lon="8.909526038914919">
        <ele>60.700000000000003</ele>
        <time>2017-10-30T08:52:48Z</time>
      </trkpt>
      <trkpt lat="52.249821033328772" lon="8.909348007291555">
        <ele>61.659999999999997</ele>
        <time>2017-10-30T08:52:49Z</time>
      </trkpt>
      <trkpt lat="52.249870989471674" lon="8.909177016466856">
        <ele>62.619999999999997</ele>
        <time>2017-10-30T08:52:50Z</time>
      </trkpt>
      <trkpt lat="52.249925974756479" lon="8.908990016207099">
        <ele>63.579999999999998</ele>
        <time>2017-10-30T08:52:51Z</time>
      </trkpt>
      <trkpt lat="52.250024965032935" lon="8.908855989575386">
        <ele>64.549999999999997</ele>
        <time>2017-10-30T08:52:52Z</time>
      </trkpt>
      <trkpt lat="52.250128984451294" lon="8.90871400013566">
        <ele>65.510000000000005</ele>
        <time>2017-10-30T08:52:53Z</time>
      </trkpt>
      <trkpt lat="52.250239960849285" lon="8.90856496989727">
        <ele>65.989999999999995</ele>
        <time>2017-10-30T08:52:54Z</time>
      </trkpt>
      <trkpt lat="52.250939011573792" lon="8.907886035740376">
        <ele>72.239999999999995</ele>
        <time>2017-10-30T08:53:00Z</time>
      </trkpt>
      <trkpt lat="52.251027021557093" lon="8.907667016610503">
        <ele>72.719999999999999</ele>
        <time>2017-10-30T08:53:01Z</time>
      </trkpt>
      <trkpt lat="52.251036996021867" lon="8.907461995258927">
        <ele>73.200000000000003</ele>
        <time>2017-10-30T08:53:02Z</time>
      </trkpt>
      <trkpt lat="52.251046970486641" lon="8.907233001664281">
        <ele>74.159999999999997</ele>
        <time>2017-10-30T08:53:03Z</time>
      </trkpt>
      <trkpt lat="52.251059040427208" lon="8.906985986977816">
        <ele>74.640000000000001</ele>
        <time>2017-10-30T08:53:04Z</time>
      </trkpt>
      <trkpt lat="52.251040013507009" lon="8.906726986169815">
        <ele>75.599999999999994</ele>
        <time>2017-10-30T08:53:05Z</time>
      </trkpt>
      <trkpt lat="52.251004977151752" lon="8.906442001461983">
        <ele>77.040000000000006</ele>
        <time>2017-10-30T08:53:06Z</time>
      </trkpt>
      <trkpt lat="52.250897018238902" lon="8.903839001432061">
        <ele>84.25</ele>
        <time>2017-10-30T08:53:14Z</time>
      </trkpt>
      <trkpt lat="52.250602981075644" lon="8.900951016694307">
        <ele>95.310000000000002</ele>
        <time>2017-10-30T08:53:23Z</time>
      </trkpt>
      <trkpt lat="52.250461997464299" lon="8.899999000132084">
        <ele>103</ele>
        <time>2017-10-30T08:53:29Z</time>
      </trkpt>
      <trkpt lat="52.250403994694352" lon="8.899940997362137">
        <ele>103.95999999999999</ele>
        <time>2017-10-30T08:53:30Z</time>
      </trkpt>
      <trkpt lat="52.250330988317728" lon="8.899867990985513">
        <ele>104.92</ele>
        <time>2017-10-30T08:53:31Z</time>
      </trkpt>
      <trkpt lat="52.250268962234259" lon="8.899805964902043">
        <ele>105.88</ele>
        <time>2017-10-30T08:53:32Z</time>
      </trkpt>
      <trkpt lat="52.250224035233259" lon="8.899805964902043">
        <ele>106.84</ele>
        <time>2017-10-30T08:53:33Z</time>
      </trkpt>
      <trkpt lat="52.25011900998652" lon="8.899805964902043">
        <ele>107.81</ele>
        <time>2017-10-30T08:53:34Z</time>
      </trkpt>
      <trkpt lat="52.250061007216573" lon="8.899848964065313">
        <ele>108.29000000000001</ele>
        <time>2017-10-30T08:53:35Z</time>
      </trkpt>
      <trkpt lat="52.249958999454975" lon="8.89992599375546">
        <ele>109.25</ele>
        <time>2017-10-30T08:53:36Z</time>
      </trkpt>
      <trkpt lat="52.249853974208236" lon="8.900010986253619">
        <ele>110.69</ele>
        <time>2017-10-30T08:53:37Z</time>
      </trkpt>
      <trkpt lat="52.249564966186881" lon="8.900469979271293">
        <ele>115.01000000000001</ele>
        <time>2017-10-30T08:53:40Z</time>
      </trkpt>
      <trkpt lat="52.249446026980877" lon="8.900690004229546">
        <ele>116.45999999999999</ele>
        <time>2017-10-30T08:53:41Z</time>
      </trkpt>
      <trkpt lat="52.249408978968859" lon="8.900926038622856">
        <ele>117.90000000000001</ele>
        <time>2017-10-30T08:53:42Z</time>
      </trkpt>
      <trkpt lat="52.249371008947492" lon="8.901171963661909">
        <ele>119.34</ele>
        <time>2017-10-30T08:53:43Z</time>
      </trkpt>
      <trkpt lat="52.249356005340815" lon="8.901458038017154">
        <ele>120.78</ele>
        <time>2017-10-30T08:53:44Z</time>
      </trkpt>
      <trkpt lat="52.249372014775872" lon="8.901693988591433">
        <ele>122.70999999999999</ele>
        <time>2017-10-30T08:53:45Z</time>
      </trkpt>
      <trkpt lat="52.24938802421093" lon="8.901913007721305">
        <ele>124.15000000000001</ele>
        <time>2017-10-30T08:53:46Z</time>
      </trkpt>
      <trkpt lat="52.249402021989226" lon="8.902108976617456">
        <ele>126.06999999999999</ele>
        <time>2017-10-30T08:53:47Z</time>
      </trkpt>
      <trkpt lat="52.249414008110762" lon="8.902279967442155">
        <ele>127.51000000000001</ele>
        <time>2017-10-30T08:53:48Z</time>
      </trkpt>
      <trkpt lat="52.249424988403916" lon="8.902436038479209">
        <ele>128.94999999999999</ele>
        <time>2017-10-30T08:53:49Z</time>
      </trkpt>
      <trkpt lat="52.24943202920258" lon="8.902531005442143">
        <ele>130.40000000000001</ele>
        <time>2017-10-30T08:53:50Z</time>
      </trkpt>
      <trkpt lat="52.249390035867691" lon="8.90269797295332">
        <ele>131.36000000000001</ele>
        <time>2017-10-30T08:53:51Z</time>
      </trkpt>
      <trkpt lat="52.24936799146235" lon="8.902787994593382">
        <ele>132.80000000000001</ele>
        <time>2017-10-30T08:53:52Z</time>
      </trkpt>
      <trkpt lat="52.249275036156178" lon="8.90284700319171">
        <ele>133.28</ele>
        <time>2017-10-30T08:53:53Z</time>
      </trkpt>
      <trkpt lat="52.249198006466031" lon="8.902896037325263">
        <ele>134.24000000000001</ele>
        <time>2017-10-30T08:53:54Z</time>
      </trkpt>
      <trkpt lat="52.249132040888071" lon="8.902938030660152">
        <ele>134.72</ele>
        <time>2017-10-30T08:53:55Z</time>
      </trkpt>
      <trkpt lat="52.249083006754518" lon="8.902895031496882">
        <ele>135.19999999999999</ele>
        <time>2017-10-30T08:53:56Z</time>
      </trkpt>
      <trkpt lat="52.249028021469712" lon="8.902845997363329">
        <ele>135.68000000000001</ele>
        <time>2017-10-30T08:53:57Z</time>
      </trkpt>
      <trkpt lat="52.248967001214623" lon="8.902792017906904">
        <ele>136.16</ele>
        <time>2017-10-30T08:53:58Z</time>
      </trkpt>
      <trkpt lat="52.248939005658031" lon="8.902767039835453">
        <ele>136.63999999999999</ele>
        <time>2017-10-30T08:53:59Z</time>
      </trkpt>
      <trkpt lat="52.248929031193256" lon="8.90258900821209">
        <ele>137.13</ele>
        <time>2017-10-30T08:54:00Z</time>
      </trkpt>
      <trkpt lat="52.24891796708107" lon="8.902395972982049">
        <ele>137.13</ele>
        <time>2017-10-30T08:54:01Z</time>
      </trkpt>
      <trkpt lat="52.248906986787915" lon="8.902191035449505">
        <ele>137.13</ele>
        <time>2017-10-30T08:54:02Z</time>
      </trkpt>
      <trkpt lat="52.248896006494761" lon="8.901993976905942">
        <ele>137.61000000000001</ele>
        <time>2017-10-30T08:54:03Z</time>
      </trkpt>
      <trkpt lat="52.2487230040133" lon="8.900773990899324">
        <ele>140.97</ele>
        <time>2017-10-30T08:54:08Z</time>
      </trkpt>
      <trkpt lat="52.248705988749862" lon="8.900365037843585">
        <ele>142.88999999999999</ele>
        <time>2017-10-30T08:54:10Z</time>
      </trkpt>
      <trkpt lat="52.24870297126472" lon="8.900278033688664">
        <ele>144.81999999999999</ele>
        <time>2017-10-30T08:54:12Z</time>
      </trkpt>
      <trkpt lat="52.248611021786928" lon="8.900139983743429">
        <ele>145.78</ele>
        <time>2017-10-30T08:54:13Z</time>
      </trkpt>
      <trkpt lat="52.248570034280419" lon="8.90007896348834">
        <ele>146.74000000000001</ele>
        <time>2017-10-30T08:54:14Z</time>
      </trkpt>
      <trkpt lat="52.24853097461164" lon="8.900020038709045">
        <ele>148.18000000000001</ele>
        <time>2017-10-30T08:54:15Z</time>
      </trkpt>
      <trkpt lat="52.248515971004963" lon="8.900020038709045">
        <ele>149.13999999999999</ele>
        <time>2017-10-30T08:54:16Z</time>
      </trkpt>
      <trkpt lat="52.248455034568906" lon="8.900020038709045">
        <ele>150.58000000000001</ele>
        <time>2017-10-30T08:54:17Z</time>
      </trkpt>
      <trkpt lat="52.248413041234016" lon="8.90003303065896">
        <ele>151.53999999999999</ele>
        <time>2017-10-30T08:54:18Z</time>
      </trkpt>
      <trkpt lat="52.248354032635689" lon="8.900104025378823">
        <ele>152.50999999999999</ele>
        <time>2017-10-30T08:54:19Z</time>
      </trkpt>
      <trkpt lat="52.248306004330516" lon="8.900191029533744">
        <ele>153.94999999999999</ele>
        <time>2017-10-30T08:54:20Z</time>
      </trkpt>
      <trkpt lat="52.248269962146878" lon="8.900337964296341">
        <ele>154.91</ele>
        <time>2017-10-30T08:54:21Z</time>
      </trkpt>
      <trkpt lat="52.248036023229361" lon="8.901290986686945">
        <ele>160.68000000000001</ele>
        <time>2017-10-30T08:54:26Z</time>
      </trkpt>
      <trkpt lat="52.247914988547564" lon="8.901614025235176">
        <ele>163.08000000000001</ele>
        <time>2017-10-30T08:54:28Z</time>
      </trkpt>
      <trkpt lat="52.247806023806334" lon="8.901722989976406">
        <ele>164.03999999999999</ele>
        <time>2017-10-30T08:54:29Z</time>
      </trkpt>
      <trkpt lat="52.247693035751581" lon="8.901826003566384">
        <ele>165</ele>
        <time>2017-10-30T08:54:30Z</time>
      </trkpt>
      <trkpt lat="52.247572001069784" lon="8.901936979964376">
        <ele>165.96000000000001</ele>
        <time>2017-10-30T08:54:31Z</time>
      </trkpt>
      <trkpt lat="52.247448032721877" lon="8.902049968019128">
        <ele>166.44999999999999</ele>
        <time>2017-10-30T08:54:32Z</time>
      </trkpt>
      <trkpt lat="52.247043019160628" lon="8.902535028755665">
        <ele>169.33000000000001</ele>
        <time>2017-10-30T08:54:36Z</time>
      </trkpt>
      <trkpt lat="52.246969006955624" lon="8.902625972405076">
        <ele>170.28999999999999</ele>
        <time>2017-10-30T08:54:37Z</time>
      </trkpt>
      <trkpt lat="52.246892983093858" lon="8.9027180057019">
        <ele>171.25</ele>
        <time>2017-10-30T08:54:38Z</time>
      </trkpt>
      <trkpt lat="52.246824000030756" lon="8.902812972664833">
        <ele>172.21000000000001</ele>
        <time>2017-10-30T08:54:39Z</time>
      </trkpt>
      <trkpt lat="52.246759040281177" lon="8.90295404009521">
        <ele>172.69</ele>
        <time>2017-10-30T08:54:40Z</time>
      </trkpt>
      <trkpt lat="52.246690979227424" lon="8.903098963201046">
        <ele>173.66</ele>
        <time>2017-10-30T08:54:41Z</time>
      </trkpt>
      <trkpt lat="52.246461985632777" lon="8.904405031353235">
        <ele>179.90000000000001</ele>
        <time>2017-10-30T08:54:48Z</time>
      </trkpt>
      <trkpt lat="52.2464469820261" lon="8.904571998864412">
        <ele>180.38</ele>
        <time>2017-10-30T08:54:49Z</time>
      </trkpt>
      <trkpt lat="52.246431978419423" lon="8.904728991910815">
        <ele>180.87</ele>
        <time>2017-10-30T08:54:50Z</time>
      </trkpt>
      <trkpt lat="52.246397025883198" lon="8.905111039057374">
        <ele>182.78999999999999</ele>
        <time>2017-10-30T08:54:53Z</time>
      </trkpt>
      <trkpt lat="52.246386967599392" lon="8.90521002933383">
        <ele>183.27000000000001</ele>
        <time>2017-10-30T08:54:54Z</time>
      </trkpt>
      <trkpt lat="52.246344974264503" lon="8.905274989083409">
        <ele>183.75</ele>
        <time>2017-10-30T08:54:55Z</time>
      </trkpt>
      <trkpt lat="52.24631798453629" lon="8.905300972983241">
        <ele>183.75</ele>
        <time>2017-10-30T08:54:56Z</time>
      </trkpt>
      <trkpt lat="52.246289988979697" lon="8.905319999903441">
        <ele>184.22999999999999</ele>
        <time>2017-10-30T08:54:57Z</time>
      </trkpt>
      <trkpt lat="52.246258975937963" lon="8.905319999903441">
        <ele>184.71000000000001</ele>
        <time>2017-10-30T08:54:58Z</time>
      </trkpt>
      <trkpt lat="52.246127966791391" lon="8.905319999903441">
        <ele>184.71000000000001</ele>
        <time>2017-10-30T08:54:59Z</time>
      </trkpt>
      <trkpt lat="52.246103994548321" lon="8.905243976041675">
        <ele>184.71000000000001</ele>
        <time>2017-10-30T08:55:00Z</time>
      </trkpt>
      <trkpt lat="52.246043980121613" lon="8.905007019639015">
        <ele>184.71000000000001</ele>
        <time>2017-10-30T08:55:01Z</time>
      </trkpt>
      <trkpt lat="52.246054960414767" lon="8.904864024370909">
        <ele>185.19</ele>
        <time>2017-10-30T08:55:02Z</time>
      </trkpt>
      <trkpt lat="52.246066024526954" lon="8.904702002182603">
        <ele>185.66999999999999</ele>
        <time>2017-10-30T08:55:03Z</time>
      </trkpt>
      <trkpt lat="52.246185969561338" lon="8.903477992862463">
        <ele>187.59</ele>
        <time>2017-10-30T08:55:09Z</time>
      </trkpt>
      <trkpt lat="52.246225029230118" lon="8.903146991506219">
        <ele>188.56</ele>
        <time>2017-10-30T08:55:11Z</time>
      </trkpt>
      <trkpt lat="52.246235003694892" lon="8.903067028149962">
        <ele>189.03999999999999</ele>
        <time>2017-10-30T08:55:12Z</time>
      </trkpt>
      <trkpt lat="52.246297029778361" lon="8.902873992919922">
        <ele>189.52000000000001</ele>
        <time>2017-10-30T08:55:13Z</time>
      </trkpt>
      <trkpt lat="52.246371963992715" lon="8.902639970183373">
        <ele>190.47999999999999</ele>
        <time>2017-10-30T08:55:15Z</time>
      </trkpt>
      <trkpt lat="52.246440025046468" lon="8.902424974367023">
        <ele>191.44</ele>
        <time>2017-10-30T08:55:17Z</time>
      </trkpt>
      <trkpt lat="52.246469026431441" lon="8.902335036545992">
        <ele>191.91999999999999</ele>
        <time>2017-10-30T08:55:18Z</time>
      </trkpt>
      <trkpt lat="52.246499033644795" lon="8.902241997420788">
        <ele>192.40000000000001</ele>
        <time>2017-10-30T08:55:19Z</time>
      </trkpt>
      <trkpt lat="52.246533986181021" lon="8.902132026851177">
        <ele>192.88</ele>
        <time>2017-10-30T08:55:20Z</time>
      </trkpt>
      <trkpt lat="52.246572962030768" lon="8.902011997997761">
        <ele>192.88</ele>
        <time>2017-10-30T08:55:21Z</time>
      </trkpt>
      <trkpt lat="52.246577991172671" lon="8.901993976905942">
        <ele>193.36000000000001</ele>
        <time>2017-10-30T08:55:22Z</time>
      </trkpt>
      <trkpt lat="52.246534992009401" lon="8.901779986917973">
        <ele>193.84</ele>
        <time>2017-10-30T08:55:25Z</time>
      </trkpt>
      <trkpt lat="52.246776977553964" lon="8.901275983080268">
        <ele>194.80000000000001</ele>
        <time>2017-10-30T08:55:27Z</time>
      </trkpt>
      <trkpt lat="52.246861970052123" lon="8.901115972548723">
        <ele>195.28</ele>
        <time>2017-10-30T08:55:29Z</time>
      </trkpt>
      <trkpt lat="52.246872028335929" lon="8.900757981464267">
        <ele>196.25</ele>
        <time>2017-10-30T08:55:36Z</time>
      </trkpt>
      <trkpt lat="52.24683397449553" lon="8.900765022262931">
        <ele>197.21000000000001</ele>
        <time>2017-10-30T08:55:42Z</time>
      </trkpt>
      <trkpt lat="52.24683397449553" lon="8.900765022262931">
        <ele>197.21000000000001</ele>
        <time>2017-10-30T08:55:43Z</time>
      </trkpt>
      <trkpt lat="52.246734984219074" lon="8.900966020300984">
        <ele>197.69</ele>
        <time>2017-10-30T08:55:48Z</time>
      </trkpt>
      <trkpt lat="52.246534992009401" lon="8.901779986917973">
        <ele>196.72999999999999</ele>
        <time>2017-10-30T08:55:53Z</time>
      </trkpt>
      <trkpt lat="52.246534992009401" lon="8.901779986917973">
        <ele>196.25</ele>
        <time>2017-10-30T08:55:54Z</time>
      </trkpt>
      <trkpt lat="52.246577991172671" lon="8.901993976905942">
        <ele>196.25</ele>
        <time>2017-10-30T08:55:55Z</time>
      </trkpt>
      <trkpt lat="52.246577991172671" lon="8.901993976905942">
        <ele>196.25</ele>
        <time>2017-10-30T08:55:56Z</time>
      </trkpt>
      <trkpt lat="52.246577991172671" lon="8.901993976905942">
        <ele>195.77000000000001</ele>
        <time>2017-10-30T08:55:57Z</time>
      </trkpt>
      <trkpt lat="52.246577991172671" lon="8.901993976905942">
        <ele>195.28</ele>
        <time>2017-10-30T08:55:58Z</time>
      </trkpt>
      <trkpt lat="52.246577991172671" lon="8.901993976905942">
        <ele>194.80000000000001</ele>
        <time>2017-10-30T08:55:59Z</time>
      </trkpt>
      <trkpt lat="52.246577991172671" lon="8.901993976905942">
        <ele>194.31999999999999</ele>
        <time>2017-10-30T08:56:06Z</time>
      </trkpt>
      <trkpt lat="52.246577991172671" lon="8.901993976905942">
        <ele>194.31999999999999</ele>
        <time>2017-10-30T08:56:07Z</time>
      </trkpt>
      <trkpt lat="52.246471038088202" lon="8.901650989428163">
        <ele>193.84</ele>
        <time>2017-10-30T08:56:09Z</time>
      </trkpt>
      <trkpt lat="52.246471038088202" lon="8.901650989428163">
        <ele>193.84</ele>
        <time>2017-10-30T08:56:10Z</time>
      </trkpt>
      <trkpt lat="52.246471038088202" lon="8.901650989428163">
        <ele>193.84</ele>
        <time>2017-10-30T08:56:11Z</time>
      </trkpt>
      <trkpt lat="52.246534992009401" lon="8.901779986917973">
        <ele>193.36000000000001</ele>
        <time>2017-10-30T08:56:13Z</time>
      </trkpt>
      <trkpt lat="52.246534992009401" lon="8.901779986917973">
        <ele>193.84</ele>
        <time>2017-10-30T08:56:14Z</time>
      </trkpt>
      <trkpt lat="52.246567010879517" lon="8.90203102491796">
        <ele>193.36000000000001</ele>
        <time>2017-10-30T08:56:24Z</time>
      </trkpt>
      <trkpt lat="52.246567010879517" lon="8.90203102491796">
        <ele>192.40000000000001</ele>
        <time>2017-10-30T08:57:06Z</time>
      </trkpt>
      <trkpt lat="52.24623098038137" lon="8.901766994968057">
        <ele>186.15000000000001</ele>
        <time>2017-10-30T09:10:41Z</time>
      </trkpt>
      <trkpt lat="52.246269034221768" lon="8.901822986081243">
        <ele>188.08000000000001</ele>
        <time>2017-10-30T09:11:19Z</time>
      </trkpt>
      <trkpt lat="52.246235003694892" lon="8.901742016896606">
        <ele>189.03999999999999</ele>
        <time>2017-10-30T09:12:05Z</time>
      </trkpt>
      <trkpt lat="52.246270040050149" lon="8.90173296444118">
        <ele>194.31999999999999</ele>
        <time>2017-10-30T09:12:46Z</time>
      </trkpt>
      <trkpt lat="52.246271967887878" lon="8.901734976097941">
        <ele>194.80000000000001</ele>
        <time>2017-10-30T09:13:27Z</time>
      </trkpt>
      <trkpt lat="52.246276997029781" lon="8.901735981926322">
        <ele>194.31999999999999</ele>
        <time>2017-10-30T09:13:47Z</time>
      </trkpt>
      <trkpt lat="52.246276997029781" lon="8.901735981926322">
        <ele>194.31999999999999</ele>
        <time>2017-10-30T09:13:50Z</time>
      </trkpt>
      <trkpt lat="52.246471038088202" lon="8.901650989428163">
        <ele>193.84</ele>
        <time>2017-10-30T09:13:54Z</time>
      </trkpt>
      <trkpt lat="52.246471038088202" lon="8.901650989428163">
        <ele>193.84</ele>
        <time>2017-10-30T09:13:55Z</time>
      </trkpt>
      <trkpt lat="52.246471038088202" lon="8.901650989428163">
        <ele>193.84</ele>
        <time>2017-10-30T09:13:56Z</time>
      </trkpt>
      <trkpt lat="52.246471038088202" lon="8.901650989428163">
        <ele>193.36000000000001</ele>
        <time>2017-10-30T09:13:57Z</time>
      </trkpt>
      <trkpt lat="52.246476989239454" lon="8.901662975549698">
        <ele>193.36000000000001</ele>
        <time>2017-10-30T09:13:58Z</time>
      </trkpt>
      <trkpt lat="52.246498027816415" lon="8.901704968884587">
        <ele>193.36000000000001</ele>
        <time>2017-10-30T09:13:59Z</time>
      </trkpt>
      <trkpt lat="52.246534992009401" lon="8.901779986917973">
        <ele>193.36000000000001</ele>
        <time>2017-10-30T09:14:00Z</time>
      </trkpt>
      <trkpt lat="52.246540021151304" lon="8.901803037151694">
        <ele>193.36000000000001</ele>
        <time>2017-10-30T09:14:01Z</time>
      </trkpt>
      <trkpt lat="52.246551001444459" lon="8.901857016608119">
        <ele>192.88</ele>
        <time>2017-10-30T09:14:02Z</time>
      </trkpt>
      <trkpt lat="52.246563993394375" lon="8.901922982186079">
        <ele>192.88</ele>
        <time>2017-10-30T09:14:03Z</time>
      </trkpt>
      <trkpt lat="52.246556030586362" lon="8.902064971625805">
        <ele>192.88</ele>
        <time>2017-10-30T09:14:04Z</time>
      </trkpt>
      <trkpt lat="52.246527029201388" lon="8.902155999094248">
        <ele>192.40000000000001</ele>
        <time>2017-10-30T09:14:05Z</time>
      </trkpt>
      <trkpt lat="52.246494004502892" lon="8.902258006855846">
        <ele>191.91999999999999</ele>
        <time>2017-10-30T09:14:06Z</time>
      </trkpt>
      <trkpt lat="52.246459973976016" lon="8.902364959940314">
        <ele>191.44</ele>
        <time>2017-10-30T09:14:07Z</time>
      </trkpt>
      <trkpt lat="52.246228968724608" lon="8.903121007606387">
        <ele>190.47999999999999</ele>
        <time>2017-10-30T09:14:13Z</time>
      </trkpt>
      <trkpt lat="52.246210025623441" lon="8.903280012309551">
        <ele>190</ele>
        <time>2017-10-30T09:14:14Z</time>
      </trkpt>
      <trkpt lat="52.246097037568688" lon="8.904268993064761">
        <ele>187.11000000000001</ele>
        <time>2017-10-30T09:14:20Z</time>
      </trkpt>
      <trkpt lat="52.246086979284883" lon="8.904407965019345">
        <ele>186.63</ele>
        <time>2017-10-30T09:14:21Z</time>
      </trkpt>
      <trkpt lat="52.246078010648489" lon="8.904536962509155">
        <ele>185.66999999999999</ele>
        <time>2017-10-30T09:14:22Z</time>
      </trkpt>
      <trkpt lat="52.246068958193064" lon="8.904656991362572">
        <ele>184.71000000000001</ele>
        <time>2017-10-30T09:14:23Z</time>
      </trkpt>
      <trkpt lat="52.246062001213431" lon="8.904766961932182">
        <ele>183.75</ele>
        <time>2017-10-30T09:14:24Z</time>
      </trkpt>
      <trkpt lat="52.246050015091896" lon="8.905068039894104">
        <ele>182.78999999999999</ele>
        <time>2017-10-30T09:14:26Z</time>
      </trkpt>
      <trkpt lat="52.246073987334967" lon="8.905144985765219">
        <ele>181.83000000000001</ele>
        <time>2017-10-30T09:14:27Z</time>
      </trkpt>
      <trkpt lat="52.246095025911927" lon="8.90521296299994">
        <ele>180.87</ele>
        <time>2017-10-30T09:14:28Z</time>
      </trkpt>
      <trkpt lat="52.246212037280202" lon="8.905319999903441">
        <ele>180.38</ele>
        <time>2017-10-30T09:14:29Z</time>
      </trkpt>
      <trkpt lat="52.24625101312995" lon="8.905319999903441">
        <ele>179.41999999999999</ele>
        <time>2017-10-30T09:14:30Z</time>
      </trkpt>
      <trkpt lat="52.246332988142967" lon="8.905285969376564">
        <ele>178.46000000000001</ele>
        <time>2017-10-30T09:14:31Z</time>
      </trkpt>
      <trkpt lat="52.246394008398056" lon="8.905140040442348">
        <ele>177.02000000000001</ele>
        <time>2017-10-30T09:14:32Z</time>
      </trkpt>
      <trkpt lat="52.246401971206069" lon="8.905057981610298">
        <ele>176.53999999999999</ele>
        <time>2017-10-30T09:14:33Z</time>
      </trkpt>
      <trkpt lat="52.246410017833114" lon="8.904968965798616">
        <ele>176.06</ele>
        <time>2017-10-30T09:14:34Z</time>
      </trkpt>
      <trkpt lat="52.246418986469507" lon="8.90486896969378">
        <ele>175.09999999999999</ele>
        <time>2017-10-30T09:14:35Z</time>
      </trkpt>
      <trkpt lat="52.246430972591043" lon="8.904741983860731">
        <ele>174.13999999999999</ele>
        <time>2017-10-30T09:14:36Z</time>
      </trkpt>
      <trkpt lat="52.246444970369339" lon="8.904594965279102">
        <ele>173.66</ele>
        <time>2017-10-30T09:14:37Z</time>
      </trkpt>
      <trkpt lat="52.246458968147635" lon="8.904436966404319">
        <ele>172.69</ele>
        <time>2017-10-30T09:14:38Z</time>
      </trkpt>
      <trkpt lat="52.246474977582693" lon="8.904268993064761">
        <ele>172.21000000000001</ele>
        <time>2017-10-30T09:14:39Z</time>
      </trkpt>
      <trkpt lat="52.246490987017751" lon="8.904093978926539">
        <ele>171.25</ele>
        <time>2017-10-30T09:14:40Z</time>
      </trkpt>
      <trkpt lat="52.246540021151304" lon="8.903568014502525">
        <ele>169.33000000000001</ele>
        <time>2017-10-30T09:14:43Z</time>
      </trkpt>
      <trkpt lat="52.24661503918469" lon="8.903262997046113">
        <ele>168.37</ele>
        <time>2017-10-30T09:14:45Z</time>
      </trkpt>
      <trkpt lat="52.247001025825739" lon="8.902586996555328">
        <ele>165.47999999999999</ele>
        <time>2017-10-30T09:14:51Z</time>
      </trkpt>
      <trkpt lat="52.247081995010376" lon="8.902488006278873">
        <ele>165</ele>
        <time>2017-10-30T09:14:52Z</time>
      </trkpt>
      <trkpt lat="52.247165981680155" lon="8.902383986860514">
        <ele>164.52000000000001</ele>
        <time>2017-10-30T09:14:53Z</time>
      </trkpt>
      <trkpt lat="52.247251980006695" lon="8.902278961613774">
        <ele>164.03999999999999</ele>
        <time>2017-10-30T09:14:54Z</time>
      </trkpt>
      <trkpt lat="52.247338984161615" lon="8.902173014357686">
        <ele>163.56</ele>
        <time>2017-10-30T09:14:55Z</time>
      </trkpt>
      <trkpt lat="52.247424982488155" lon="8.902072012424469">
        <ele>163.08000000000001</ele>
        <time>2017-10-30T09:14:56Z</time>
      </trkpt>
      <trkpt lat="52.247518021613359" lon="8.90198701992631">
        <ele>162.59999999999999</ele>
        <time>2017-10-30T09:14:57Z</time>
      </trkpt>
      <trkpt lat="52.247698986902833" lon="8.901820974424481">
        <ele>161.16</ele>
        <time>2017-10-30T09:14:59Z</time>
      </trkpt>
      <trkpt lat="52.247868971899152" lon="8.901664987206459">
        <ele>159.24000000000001</ele>
        <time>2017-10-30T09:15:01Z</time>
      </trkpt>
      <trkpt lat="52.24794901907444" lon="8.901531966403127">
        <ele>157.78999999999999</ele>
        <time>2017-10-30T09:15:02Z</time>
      </trkpt>
      <trkpt lat="52.248006016016006" lon="8.901395006105304">
        <ele>157.31</ele>
        <time>2017-10-30T09:15:03Z</time>
      </trkpt>
      <trkpt lat="52.248049015179276" lon="8.90123600140214">
        <ele>156.34999999999999</ele>
        <time>2017-10-30T09:15:04Z</time>
      </trkpt>
      <trkpt lat="52.248087991029024" lon="8.901078002527356">
        <ele>155.38999999999999</ele>
        <time>2017-10-30T09:15:05Z</time>
      </trkpt>
      <trkpt lat="52.248385967686772" lon="8.900065971538425">
        <ele>149.13999999999999</ele>
        <time>2017-10-30T09:15:13Z</time>
      </trkpt>
      <trkpt lat="52.248424021527171" lon="8.900020038709045">
        <ele>148.18000000000001</ele>
        <time>2017-10-30T09:15:14Z</time>
      </trkpt>
      <trkpt lat="52.248424021527171" lon="8.900020038709045">
        <ele>147.69999999999999</ele>
        <time>2017-10-30T09:15:15Z</time>
      </trkpt>
      <trkpt lat="52.248513037338853" lon="8.900020038709045">
        <ele>146.74000000000001</ele>
        <time>2017-10-30T09:15:16Z</time>
      </trkpt>
      <trkpt lat="52.24853097461164" lon="8.900020038709045">
        <ele>146.25999999999999</ele>
        <time>2017-10-30T09:15:17Z</time>
      </trkpt>
      <trkpt lat="52.248570034280419" lon="8.900078041478992">
        <ele>145.78</ele>
        <time>2017-10-30T09:15:18Z</time>
      </trkpt>
      <trkpt lat="52.248615967109799" lon="8.900147024542093">
        <ele>145.30000000000001</ele>
        <time>2017-10-30T09:15:19Z</time>
      </trkpt>
      <trkpt lat="52.24870297126472" lon="8.900278033688664">
        <ele>144.34</ele>
        <time>2017-10-30T09:15:20Z</time>
      </trkpt>
      <trkpt lat="52.24870297126472" lon="8.900278033688664">
        <ele>143.37</ele>
        <time>2017-10-30T09:15:21Z</time>
      </trkpt>
      <trkpt lat="52.248706994578242" lon="8.900389010086656">
        <ele>141.93000000000001</ele>
        <time>2017-10-30T09:15:22Z</time>
      </trkpt>
      <trkpt lat="52.248713029548526" lon="8.900538040325046">
        <ele>140.97</ele>
        <time>2017-10-30T09:15:23Z</time>
      </trkpt>
      <trkpt lat="52.248758040368557" lon="8.901047995314002">
        <ele>137.13</ele>
        <time>2017-10-30T09:15:26Z</time>
      </trkpt>
      <trkpt lat="52.248849989846349" lon="8.901675967499614">
        <ele>133.28</ele>
        <time>2017-10-30T09:15:30Z</time>
      </trkpt>
      <trkpt lat="52.248913021758199" lon="8.90231198631227">
        <ele>128.47</ele>
        <time>2017-10-30T09:15:34Z</time>
      </trkpt>
      <trkpt lat="52.248929031193256" lon="8.902596971020103">
        <ele>127.03</ele>
        <time>2017-10-30T09:15:36Z</time>
      </trkpt>
      <trkpt lat="52.248939005658031" lon="8.902767039835453">
        <ele>126.55</ele>
        <time>2017-10-30T09:15:37Z</time>
      </trkpt>
      <trkpt lat="52.248998014256358" lon="8.902820013463497">
        <ele>126.06999999999999</ele>
        <time>2017-10-30T09:15:38Z</time>
      </trkpt>
      <trkpt lat="52.24906699731946" lon="8.902881033718586">
        <ele>125.59</ele>
        <time>2017-10-30T09:15:39Z</time>
      </trkpt>
      <trkpt lat="52.249146038666368" lon="8.902929984033108">
        <ele>124.63</ele>
        <time>2017-10-30T09:15:40Z</time>
      </trkpt>
      <trkpt lat="52.249214015901089" lon="8.902885979041457">
        <ele>124.63</ele>
        <time>2017-10-30T09:15:41Z</time>
      </trkpt>
      <trkpt lat="52.249287022277713" lon="8.902839040383697">
        <ele>124.15000000000001</ele>
        <time>2017-10-30T09:15:42Z</time>
      </trkpt>
      <trkpt lat="52.24936799146235" lon="8.902787994593382">
        <ele>124.15000000000001</ele>
        <time>2017-10-30T09:15:43Z</time>
      </trkpt>
      <trkpt lat="52.249393975362182" lon="8.902683975175023">
        <ele>123.67</ele>
        <time>2017-10-30T09:15:44Z</time>
      </trkpt>
      <trkpt lat="52.249422976747155" lon="8.902567969635129">
        <ele>123.67</ele>
        <time>2017-10-30T09:15:45Z</time>
      </trkpt>
      <trkpt lat="52.249427000060678" lon="8.902455987408757">
        <ele>123.19</ele>
        <time>2017-10-30T09:15:46Z</time>
      </trkpt>
      <trkpt lat="52.249417025595903" lon="8.902316009625793">
        <ele>122.70999999999999</ele>
        <time>2017-10-30T09:15:47Z</time>
      </trkpt>
      <trkpt lat="52.249406967312098" lon="8.902171002700925">
        <ele>122.22</ele>
        <time>2017-10-30T09:15:48Z</time>
      </trkpt>
      <trkpt lat="52.249361034482718" lon="8.901530038565397">
        <ele>118.38</ele>
        <time>2017-10-30T09:15:52Z</time>
      </trkpt>
      <trkpt lat="52.249349970370531" lon="8.901304984465241">
        <ele>117.90000000000001</ele>
        <time>2017-10-30T09:15:53Z</time>
      </trkpt>
      <trkpt lat="52.249376960098743" lon="8.901132987812161">
        <ele>116.94</ele>
        <time>2017-10-30T09:15:54Z</time>
      </trkpt>
      <trkpt lat="52.249403027817607" lon="8.900968031957746">
        <ele>115.98</ele>
        <time>2017-10-30T09:15:55Z</time>
      </trkpt>
      <trkpt lat="52.249428005889058" lon="8.90080600976944">
        <ele>115.5</ele>
        <time>2017-10-30T09:15:56Z</time>
      </trkpt>
      <trkpt lat="52.249615006148815" lon="8.900391021743417">
        <ele>113.09</ele>
        <time>2017-10-30T09:15:59Z</time>
      </trkpt>
      <trkpt lat="52.249682983383536" lon="8.900283984839916">
        <ele>112.13</ele>
        <time>2017-10-30T09:16:00Z</time>
      </trkpt>
      <trkpt lat="52.249750960618258" lon="8.900176025927067">
        <ele>111.17</ele>
        <time>2017-10-30T09:16:01Z</time>
      </trkpt>
      <trkpt lat="52.24981902167201" lon="8.900066977366805">
        <ele>110.69</ele>
        <time>2017-10-30T09:16:02Z</time>
      </trkpt>
      <trkpt lat="52.2498610150069" lon="8.899999000132084">
        <ele>109.73</ele>
        <time>2017-10-30T09:16:03Z</time>
      </trkpt>
      <trkpt lat="52.249958999454975" lon="8.899924987927079">
        <ele>109.25</ele>
        <time>2017-10-30T09:16:04Z</time>
      </trkpt>
      <trkpt lat="52.25003301165998" lon="8.899870002642274">
        <ele>108.29000000000001</ele>
        <time>2017-10-30T09:16:05Z</time>
      </trkpt>
      <trkpt lat="52.250105012208223" lon="8.899816023185849">
        <ele>107.81</ele>
        <time>2017-10-30T09:16:06Z</time>
      </trkpt>
      <trkpt lat="52.25011900998652" lon="8.899805964902043">
        <ele>106.84</ele>
        <time>2017-10-30T09:16:07Z</time>
      </trkpt>
      <trkpt lat="52.25022504106164" lon="8.899805964902043">
        <ele>106.36</ele>
        <time>2017-10-30T09:16:08Z</time>
      </trkpt>
      <trkpt lat="52.250268962234259" lon="8.899805964902043">
        <ele>105.88</ele>
        <time>2017-10-30T09:16:09Z</time>
      </trkpt>
      <trkpt lat="52.250320008024573" lon="8.899857010692358">
        <ele>105.40000000000001</ele>
        <time>2017-10-30T09:16:10Z</time>
      </trkpt>
      <trkpt lat="52.250387985259295" lon="8.899923982098699">
        <ele>104.92</ele>
        <time>2017-10-30T09:16:11Z</time>
      </trkpt>
      <trkpt lat="52.250451017171144" lon="8.899988019838929">
        <ele>104.92</ele>
        <time>2017-10-30T09:16:12Z</time>
      </trkpt>
      <trkpt lat="52.250461997464299" lon="8.899999000132084">
        <ele>104.92</ele>
        <time>2017-10-30T09:16:13Z</time>
      </trkpt>
      <trkpt lat="52.25048404186964" lon="8.900120034813881">
        <ele>104.92</ele>
        <time>2017-10-30T09:16:14Z</time>
      </trkpt>
      <trkpt lat="52.25050700828433" lon="8.90024702064693">
        <ele>104.44</ele>
        <time>2017-10-30T09:16:15Z</time>
      </trkpt>
      <trkpt lat="52.250533998012543" lon="8.900394039228559">
        <ele>103.95999999999999</ele>
        <time>2017-10-30T09:16:16Z</time>
      </trkpt>
      <trkpt lat="52.250726027414203" lon="8.902036976069212">
        <ele>97.709999999999994</ele>
        <time>2017-10-30T09:16:25Z</time>
      </trkpt>
      <trkpt lat="52.25074396468699" lon="8.902196986600757">
        <ele>96.75</ele>
        <time>2017-10-30T09:16:26Z</time>
      </trkpt>
      <trkpt lat="52.250760979950428" lon="8.902342999354005">
        <ele>95.790000000000006</ele>
        <time>2017-10-30T09:16:27Z</time>
      </trkpt>
      <trkpt lat="52.250776989385486" lon="8.902485994622111">
        <ele>94.829999999999998</ele>
        <time>2017-10-30T09:16:28Z</time>
      </trkpt>
      <trkpt lat="52.250795010477304" lon="8.902637036517263">
        <ele>93.870000000000005</ele>
        <time>2017-10-30T09:16:29Z</time>
      </trkpt>
      <trkpt lat="52.250811019912362" lon="8.902780031785369">
        <ele>93.390000000000001</ele>
        <time>2017-10-30T09:16:30Z</time>
      </trkpt>
      <trkpt lat="52.250826023519039" lon="8.90291296876967">
        <ele>92.420000000000002</ele>
        <time>2017-10-30T09:16:31Z</time>
      </trkpt>
      <trkpt lat="52.250841027125716" lon="8.903045989573002">
        <ele>91.459999999999994</ele>
        <time>2017-10-30T09:16:32Z</time>
      </trkpt>
      <trkpt lat="52.250854019075632" lon="8.903193008154631">
        <ele>90.5</ele>
        <time>2017-10-30T09:16:33Z</time>
      </trkpt>
      <trkpt lat="52.250862987712026" lon="8.903330974280834">
        <ele>89.540000000000006</ele>
        <time>2017-10-30T09:16:34Z</time>
      </trkpt>
      <trkpt lat="52.250888971611857" lon="8.903714027255774">
        <ele>87.620000000000005</ele>
        <time>2017-10-30T09:16:37Z</time>
      </trkpt>
      <trkpt lat="52.250904981046915" lon="8.90396598726511">
        <ele>85.689999999999998</ele>
        <time>2017-10-30T09:16:39Z</time>
      </trkpt>
      <trkpt lat="52.25091302767396" lon="8.904086016118527">
        <ele>85.209999999999994</ele>
        <time>2017-10-30T09:16:40Z</time>
      </trkpt>
      <trkpt lat="52.250920990481973" lon="8.90420101583004">
        <ele>84.25</ele>
        <time>2017-10-30T09:16:41Z</time>
      </trkpt>
      <trkpt lat="52.250947980210185" lon="8.904834017157555">
        <ele>80.409999999999997</ele>
        <time>2017-10-30T09:16:46Z</time>
      </trkpt>
      <trkpt lat="52.250952003523707" lon="8.904958991333842">
        <ele>79.450000000000003</ele>
        <time>2017-10-30T09:16:47Z</time>
      </trkpt>
      <trkpt lat="52.250972036272287" lon="8.905574977397919">
        <ele>75.120000000000005</ele>
        <time>2017-10-30T09:16:52Z</time>
      </trkpt>
      <trkpt lat="52.250990979373455" lon="8.906150981783867">
        <ele>71.760000000000005</ele>
        <time>2017-10-30T09:16:57Z</time>
      </trkpt>
      <trkpt lat="52.250998020172119" lon="8.906368995085359">
        <ele>70.790000000000006</ele>
        <time>2017-10-30T09:16:59Z</time>
      </trkpt>
      <trkpt lat="52.251040013507009" lon="8.907394018024206">
        <ele>67.430000000000007</ele>
        <time>2017-10-30T09:17:08Z</time>
      </trkpt>
      <trkpt lat="52.251034984365106" lon="8.907507006078959">
        <ele>66.950000000000003</ele>
        <time>2017-10-30T09:17:09Z</time>
      </trkpt>
      <trkpt lat="52.251029033213854" lon="8.907622005790472">
        <ele>66.950000000000003</ele>
        <time>2017-10-30T09:17:10Z</time>
      </trkpt>
      <trkpt lat="52.251024004071951" lon="8.907733988016844">
        <ele>66.469999999999999</ele>
        <time>2017-10-30T09:17:11Z</time>
      </trkpt>
      <trkpt lat="52.250947980210185" lon="8.90787698328495">
        <ele>66.469999999999999</ele>
        <time>2017-10-30T09:17:12Z</time>
      </trkpt>
      <trkpt lat="52.250883020460606" lon="8.907938003540039">
        <ele>66.950000000000003</ele>
        <time>2017-10-30T09:17:13Z</time>
      </trkpt>
      <trkpt lat="52.250814959406853" lon="8.90800204128027">
        <ele>67.430000000000007</ele>
        <time>2017-10-30T09:17:14Z</time>
      </trkpt>
      <trkpt lat="52.25074203684926" lon="8.908072030171752">
        <ele>67.430000000000007</ele>
        <time>2017-10-30T09:17:15Z</time>
      </trkpt>
      <trkpt lat="52.250664001330733" lon="8.908144030719996">
        <ele>67.430000000000007</ele>
        <time>2017-10-30T09:17:16Z</time>
      </trkpt>
      <trkpt lat="52.250508014112711" lon="8.908290965482593">
        <ele>67.430000000000007</ele>
        <time>2017-10-30T09:17:18Z</time>
      </trkpt>
      <trkpt lat="52.249956987798214" lon="8.908947017043829">
        <ele>66.950000000000003</ele>
        <time>2017-10-30T09:17:25Z</time>
      </trkpt>
      <trkpt lat="52.249900996685028" lon="8.909074002876878">
        <ele>66.469999999999999</ele>
        <time>2017-10-30T09:17:26Z</time>
      </trkpt>
      <trkpt lat="52.249864032492042" lon="8.909199982881546">
        <ele>65.989999999999995</ele>
        <time>2017-10-30T09:17:27Z</time>
      </trkpt>
      <trkpt lat="52.249828996136785" lon="8.909321017563343">
        <ele>65.510000000000005</ele>
        <time>2017-10-30T09:17:28Z</time>
      </trkpt>
      <trkpt lat="52.249795971438289" lon="8.909436017274857">
        <ele>65.030000000000001</ele>
        <time>2017-10-30T09:17:29Z</time>
      </trkpt>
      <trkpt lat="52.24977602250874" lon="8.90955101698637">
        <ele>65.030000000000001</ele>
        <time>2017-10-30T09:17:30Z</time>
      </trkpt>
      <trkpt lat="52.24977602250874" lon="8.909796020016074">
        <ele>64.549999999999997</ele>
        <time>2017-10-30T09:17:32Z</time>
      </trkpt>
      <trkpt lat="52.249787002801895" lon="8.909910013899207">
        <ele>64.069999999999993</ele>
        <time>2017-10-30T09:17:33Z</time>
      </trkpt>
      <trkpt lat="52.249802006408572" lon="8.910026019439101">
        <ele>63.579999999999998</ele>
        <time>2017-10-30T09:17:34Z</time>
      </trkpt>
      <trkpt lat="52.249925974756479" lon="8.910941993817687">
        <ele>58.780000000000001</ele>
        <time>2017-10-30T09:17:42Z</time>
      </trkpt>
      <trkpt lat="52.249925974756479" lon="8.910989016294479">
        <ele>58.299999999999997</ele>
        <time>2017-10-30T09:17:43Z</time>
      </trkpt>
      <trkpt lat="52.249925974756479" lon="8.911020029336214">
        <ele>57.340000000000003</ele>
        <time>2017-10-30T09:17:52Z</time>
      </trkpt>
      <trkpt lat="52.249925974756479" lon="8.911079037934542">
        <ele>57.340000000000003</ele>
        <time>2017-10-30T09:18:09Z</time>
      </trkpt>
      <trkpt lat="52.249846011400223" lon="8.911208035424352">
        <ele>57.82</ele>
        <time>2017-10-30T09:18:10Z</time>
      </trkpt>
      <trkpt lat="52.249793037772179" lon="8.9112279843539">
        <ele>57.82</ele>
        <time>2017-10-30T09:18:11Z</time>
      </trkpt>
      <trkpt lat="52.249727994203568" lon="8.911252040416002">
        <ele>57.340000000000003</ele>
        <time>2017-10-30T09:18:12Z</time>
      </trkpt>
      <trkpt lat="52.249652976170182" lon="8.911280035972595">
        <ele>57.340000000000003</ele>
        <time>2017-10-30T09:18:13Z</time>
      </trkpt>
      <trkpt lat="52.249568989500403" lon="8.911311971023679">
        <ele>56.859999999999999</ele>
        <time>2017-10-30T09:18:14Z</time>
      </trkpt>
      <trkpt lat="52.249482991173863" lon="8.911343989893794">
        <ele>56.369999999999997</ele>
        <time>2017-10-30T09:18:15Z</time>
      </trkpt>
      <trkpt lat="52.248869016766548" lon="8.911573989316821">
        <ele>53.969999999999999</ele>
        <time>2017-10-30T09:18:22Z</time>
      </trkpt>
      <trkpt lat="52.248781006783247" lon="8.911607014015317">
        <ele>53.490000000000002</ele>
        <time>2017-10-30T09:18:23Z</time>
      </trkpt>
      <trkpt lat="52.248697020113468" lon="8.911639032885432">
        <ele>53.490000000000002</ele>
        <time>2017-10-30T09:18:24Z</time>
      </trkpt>
      <trkpt lat="52.248609010130167" lon="8.911671973764896">
        <ele>53.490000000000002</ele>
        <time>2017-10-30T09:18:25Z</time>
      </trkpt>
      <trkpt lat="52.248513959348202" lon="8.911708015948534">
        <ele>53.490000000000002</ele>
        <time>2017-10-30T09:18:26Z</time>
      </trkpt>
      <trkpt lat="52.247139997780323" lon="8.912227023392916">
        <ele>48.68</ele>
        <time>2017-10-30T09:18:39Z</time>
      </trkpt>
      <trkpt lat="52.245998969301581" lon="8.912659026682377">
        <ele>48.200000000000003</ele>
        <time>2017-10-30T09:18:50Z</time>
      </trkpt>
      <trkpt lat="52.245260020717978" lon="8.913007965311408">
        <ele>46.759999999999998</ele>
        <time>2017-10-30T09:18:59Z</time>
      </trkpt>
      <trkpt lat="52.245169999077916" lon="8.913066973909736">
        <ele>45.799999999999997</ele>
        <time>2017-10-30T09:19:07Z</time>
      </trkpt>
      <trkpt lat="52.244977969676256" lon="8.913191026076675">
        <ele>46.759999999999998</ele>
        <time>2017-10-30T09:19:26Z</time>
      </trkpt>
      <trkpt lat="52.244208008050919" lon="8.91384900547564">
        <ele>46.759999999999998</ele>
        <time>2017-10-30T09:19:34Z</time>
      </trkpt>
      <trkpt lat="52.24395495839417" lon="8.914161985740066">
        <ele>47.719999999999999</ele>
        <time>2017-10-30T09:19:40Z</time>
      </trkpt>
      <trkpt lat="52.24395495839417" lon="8.914161985740066">
        <ele>47.719999999999999</ele>
        <time>2017-10-30T09:19:57Z</time>
      </trkpt>
      <trkpt lat="52.243831995874643" lon="8.914311015978456">
        <ele>48.68</ele>
        <time>2017-10-30T09:20:08Z</time>
      </trkpt>
      <trkpt lat="52.243810035288334" lon="8.914354015141726">
        <ele>48.68</ele>
        <time>2017-10-30T09:20:09Z</time>
      </trkpt>
      <trkpt lat="52.243831995874643" lon="8.914487035945058">
        <ele>48.68</ele>
        <time>2017-10-30T09:20:10Z</time>
      </trkpt>
      <trkpt lat="52.243831995874643" lon="8.914589965716004">
        <ele>48.68</ele>
        <time>2017-10-30T09:20:11Z</time>
      </trkpt>
      <trkpt lat="52.243883963674307" lon="8.914688033983111">
        <ele>48.68</ele>
        <time>2017-10-30T09:20:12Z</time>
      </trkpt>
      <trkpt lat="52.243946995586157" lon="8.914808984845877">
        <ele>48.68</ele>
        <time>2017-10-30T09:20:13Z</time>
      </trkpt>
      <trkpt lat="52.2440189961344" lon="8.914945023134351">
        <ele>48.200000000000003</ele>
        <time>2017-10-30T09:20:14Z</time>
      </trkpt>
      <trkpt lat="52.244946034625173" lon="8.916198033839464">
        <ele>46.280000000000001</ele>
        <time>2017-10-30T09:20:22Z</time>
      </trkpt>
      <trkpt lat="52.245399998500943" lon="8.9166209846735">
        <ele>45.799999999999997</ele>
        <time>2017-10-30T09:20:25Z</time>
      </trkpt>
      <trkpt lat="52.250776989385486" lon="8.918626019731164">
        <ele>45.799999999999997</ele>
        <time>2017-10-30T09:20:54Z</time>
      </trkpt>
      <trkpt lat="52.254912033677101" lon="8.917816998437047">
        <ele>45.799999999999997</ele>
        <time>2017-10-30T09:21:17Z</time>
      </trkpt>
      <trkpt lat="52.258991003036499" lon="8.916444964706898">
        <ele>45.799999999999997</ele>
        <time>2017-10-30T09:21:40Z</time>
      </trkpt>
      <trkpt lat="52.261989964172244" lon="8.915092963725328">
        <ele>41.469999999999999</ele>
        <time>2017-10-30T09:21:55Z</time>
      </trkpt>
      <trkpt lat="52.26343902759254" lon="8.914454011246562">
        <ele>46.280000000000001</ele>
        <time>2017-10-30T09:22:06Z</time>
      </trkpt>
      <trkpt lat="52.263640025630593" lon="8.914330964908004">
        <ele>47.240000000000002</ele>
        <time>2017-10-30T09:22:12Z</time>
      </trkpt>
      <trkpt lat="52.263640025630593" lon="8.914330964908004">
        <ele>48.200000000000003</ele>
        <time>2017-10-30T09:22:51Z</time>
      </trkpt>
      <trkpt lat="52.263640025630593" lon="8.914330964908004">
        <ele>47.240000000000002</ele>
        <time>2017-10-30T09:23:52Z</time>
      </trkpt>
    </trkseg>
  </trk>

  <trk>
    <name>Track vom: 2017-10-30 10:24</name>
    <extensions>
      <gpxx:TrackExtension>
        <gpxx:DisplayColor>DarkGray</gpxx:DisplayColor>
      </gpxx:TrackExtension>
    </extensions>
    <trkseg>
      <trkpt lat="52.263640025630593" lon="8.914330964908004">
        <ele>46.759999999999998</ele>
        <time>2017-10-30T09:24:07Z</time>
      </trkpt>
      <trkpt lat="52.263918975368142" lon="8.91414999961853">
        <ele>46.280000000000001</ele>
        <time>2017-10-30T09:24:20Z</time>
      </trkpt>
      <trkpt lat="52.264750963076949" lon="8.913610959425569">
        <ele>46.280000000000001</ele>
        <time>2017-10-30T09:24:27Z</time>
      </trkpt>
      <trkpt lat="52.26629801094532" lon="8.912573028355837">
        <ele>45.799999999999997</ele>
        <time>2017-10-30T09:24:36Z</time>
      </trkpt>
      <trkpt lat="52.267447002232075" lon="8.911685971543193">
        <ele>43.399999999999999</ele>
        <time>2017-10-30T09:24:42Z</time>
      </trkpt>
      <trkpt lat="52.269971966743469" lon="8.909452026709914">
        <ele>44.840000000000003</ele>
        <time>2017-10-30T09:24:55Z</time>
      </trkpt>
      <trkpt lat="52.273380970582366" lon="8.906799992546439">
        <ele>46.280000000000001</ele>
        <time>2017-10-30T09:25:12Z</time>
      </trkpt>
      <trkpt lat="52.2756880056113" lon="8.905201982706785">
        <ele>47.719999999999999</ele>
        <time>2017-10-30T09:25:24Z</time>
      </trkpt>
      <trkpt lat="52.276103999465704" lon="8.905112966895104">
        <ele>48.68</ele>
        <time>2017-10-30T09:25:27Z</time>
      </trkpt>
      <trkpt lat="52.276212964206934" lon="8.90514699742198">
        <ele>49.159999999999997</ele>
        <time>2017-10-30T09:25:28Z</time>
      </trkpt>
      <trkpt lat="52.276311032474041" lon="8.90521002933383">
        <ele>49.649999999999999</ele>
        <time>2017-10-30T09:25:29Z</time>
      </trkpt>
      <trkpt lat="52.276410022750497" lon="8.905272977426648">
        <ele>50.130000000000003</ele>
        <time>2017-10-30T09:25:30Z</time>
      </trkpt>
      <trkpt lat="52.276509013026953" lon="8.905336009338498">
        <ele>50.609999999999999</ele>
        <time>2017-10-30T09:25:31Z</time>
      </trkpt>
      <trkpt lat="52.276603979989886" lon="8.905397029593587">
        <ele>51.090000000000003</ele>
        <time>2017-10-30T09:25:32Z</time>
      </trkpt>
      <trkpt lat="52.276703976094723" lon="8.905414966866374">
        <ele>51.090000000000003</ele>
        <time>2017-10-30T09:25:33Z</time>
      </trkpt>
      <trkpt lat="52.276810007169843" lon="8.905427036806941">
        <ele>51.090000000000003</ele>
        <time>2017-10-30T09:25:34Z</time>
      </trkpt>
      <trkpt lat="52.276914026588202" lon="8.905396023765206">
        <ele>51.57</ele>
        <time>2017-10-30T09:25:35Z</time>
      </trkpt>
      <trkpt lat="52.277022991329432" lon="8.90536199323833">
        <ele>51.57</ele>
        <time>2017-10-30T09:25:36Z</time>
      </trkpt>
      <trkpt lat="52.277156012132764" lon="8.905319999903441">
        <ele>51.57</ele>
        <time>2017-10-30T09:25:37Z</time>
      </trkpt>
      <trkpt lat="52.27723496966064" lon="8.905257973819971">
        <ele>51.57</ele>
        <time>2017-10-30T09:25:38Z</time>
      </trkpt>
      <trkpt lat="52.277334965765476" lon="8.905181027948856">
        <ele>51.57</ele>
        <time>2017-10-30T09:25:39Z</time>
      </trkpt>
      <trkpt lat="52.277688011527061" lon="8.904907023534179">
        <ele>51.57</ele>
        <time>2017-10-30T09:25:43Z</time>
      </trkpt>
      <trkpt lat="52.277779961004853" lon="8.904876010492444">
        <ele>51.57</ele>
        <time>2017-10-30T09:25:44Z</time>
      </trkpt>
      <trkpt lat="52.277883980423212" lon="8.904891014099121">
        <ele>51.090000000000003</ele>
        <time>2017-10-30T09:25:45Z</time>
      </trkpt>
      <trkpt lat="52.277989005669951" lon="8.904916997998953">
        <ele>51.090000000000003</ele>
        <time>2017-10-30T09:25:46Z</time>
      </trkpt>
      <trkpt lat="52.278098976239562" lon="8.904971983283758">
        <ele>51.090000000000003</ele>
        <time>2017-10-30T09:25:47Z</time>
      </trkpt>
      <trkpt lat="52.278198972344398" lon="8.905063010752201">
        <ele>51.090000000000003</ele>
        <time>2017-10-30T09:25:48Z</time>
      </trkpt>
      <trkpt lat="52.278303997591138" lon="8.905158983543515">
        <ele>51.090000000000003</ele>
        <time>2017-10-30T09:25:49Z</time>
      </trkpt>
      <trkpt lat="52.279582992196083" lon="8.906382992863655">
        <ele>52.049999999999997</ele>
        <time>2017-10-30T09:26:00Z</time>
      </trkpt>
      <trkpt lat="52.280417997390032" lon="8.907866002991796">
        <ele>54.450000000000003</ele>
        <time>2017-10-30T09:26:10Z</time>
      </trkpt>
      <trkpt lat="52.280818987637758" lon="8.908548960462213">
        <ele>54.450000000000003</ele>
        <time>2017-10-30T09:26:15Z</time>
      </trkpt>
      <trkpt lat="52.280896017327905" lon="8.908676030114293">
        <ele>54.450000000000003</ele>
        <time>2017-10-30T09:26:16Z</time>
      </trkpt>
      <trkpt lat="52.281257025897503" lon="8.909275000914931">
        <ele>52.530000000000001</ele>
        <time>2017-10-30T09:26:23Z</time>
      </trkpt>
      <trkpt lat="52.281355010345578" lon="8.909438028931618">
        <ele>50.609999999999999</ele>
        <time>2017-10-30T09:26:32Z</time>
      </trkpt>
      <trkpt lat="52.281866976991296" lon="8.910342017188668">
        <ele>49.159999999999997</ele>
        <time>2017-10-30T09:26:39Z</time>
      </trkpt>
      <trkpt lat="52.282812036573887" lon="8.912032982334495">
        <ele>48.200000000000003</ele>
        <time>2017-10-30T09:26:51Z</time>
      </trkpt>
      <trkpt lat="52.28359499014914" lon="8.913382971659303">
        <ele>48.200000000000003</ele>
        <time>2017-10-30T09:27:02Z</time>
      </trkpt>
      <trkpt lat="52.283706972375512" lon="8.913575001060963">
        <ele>48.68</ele>
        <time>2017-10-30T09:27:09Z</time>
      </trkpt>
      <trkpt lat="52.28374301455915" lon="8.913638032972813">
        <ele>49.159999999999997</ele>
        <time>2017-10-30T09:28:07Z</time>
      </trkpt>
      <trkpt lat="52.28408700786531" lon="8.914220994338393">
        <ele>50.130000000000003</ele>
        <time>2017-10-30T09:28:12Z</time>
      </trkpt>
      <trkpt lat="52.28488102555275" lon="8.915774999186397">
        <ele>48.68</ele>
        <time>2017-10-30T09:28:22Z</time>
      </trkpt>
      <trkpt lat="52.285105995833874" lon="8.916176995262504">
        <ele>49.159999999999997</ele>
        <time>2017-10-30T09:28:25Z</time>
      </trkpt>
      <trkpt lat="52.285458035767078" lon="8.91664101742208">
        <ele>49.649999999999999</ele>
        <time>2017-10-30T09:28:29Z</time>
      </trkpt>
      <trkpt lat="52.285529030486941" lon="8.916731039062142">
        <ele>50.130000000000003</ele>
        <time>2017-10-30T09:28:30Z</time>
      </trkpt>
      <trkpt lat="52.285776967182755" lon="8.917035972699523">
        <ele>51.090000000000003</ele>
        <time>2017-10-30T09:28:34Z</time>
      </trkpt>
      <trkpt lat="52.28585097938776" lon="8.917128005996347">
        <ele>51.090000000000003</ele>
        <time>2017-10-30T09:28:35Z</time>
      </trkpt>
      <trkpt lat="52.285932032391429" lon="8.917229007929564">
        <ele>51.57</ele>
        <time>2017-10-30T09:28:36Z</time>
      </trkpt>
      <trkpt lat="52.28601903654635" lon="8.917331015691161">
        <ele>51.57</ele>
        <time>2017-10-30T09:28:37Z</time>
      </trkpt>
      <trkpt lat="52.286111991852522" lon="8.917439980432391">
        <ele>52.049999999999997</ele>
        <time>2017-10-30T09:28:38Z</time>
      </trkpt>
      <trkpt lat="52.286209976300597" lon="8.917553974315524">
        <ele>51.57</ele>
        <time>2017-10-30T09:28:39Z</time>
      </trkpt>
      <trkpt lat="52.286307038739324" lon="8.917667968198657">
        <ele>51.57</ele>
        <time>2017-10-30T09:28:40Z</time>
      </trkpt>
      <trkpt lat="52.286758990958333" lon="8.918197033926845">
        <ele>51.57</ele>
        <time>2017-10-30T09:28:45Z</time>
      </trkpt>
      <trkpt lat="52.286850018426776" lon="8.918302981182933">
        <ele>51.57</ele>
        <time>2017-10-30T09:28:46Z</time>
      </trkpt>
      <trkpt lat="52.287093009799719" lon="8.918623002246022">
        <ele>52.049999999999997</ele>
        <time>2017-10-30T09:28:49Z</time>
      </trkpt>
      <trkpt lat="52.287164004519582" lon="8.918722998350859">
        <ele>52.530000000000001</ele>
        <time>2017-10-30T09:28:50Z</time>
      </trkpt>
      <trkpt lat="52.287234999239445" lon="8.918821988627315">
        <ele>52.530000000000001</ele>
        <time>2017-10-30T09:28:51Z</time>
      </trkpt>
      <trkpt lat="52.287412025034428" lon="8.919056011363864">
        <ele>52.049999999999997</ele>
        <time>2017-10-30T09:28:54Z</time>
      </trkpt>
      <trkpt lat="52.287443038076162" lon="8.919095993041992">
        <ele>52.049999999999997</ele>
        <time>2017-10-30T09:28:55Z</time>
      </trkpt>
      <trkpt lat="52.287499029189348" lon="8.919167993590236">
        <ele>52.530000000000001</ele>
        <time>2017-10-30T09:29:03Z</time>
      </trkpt>
      <trkpt lat="52.287499029189348" lon="8.919167993590236">
        <ele>53.009999999999998</ele>
        <time>2017-10-30T09:29:48Z</time>
      </trkpt>
      <trkpt lat="52.287566000595689" lon="8.919256003573537">
        <ele>53.009999999999998</ele>
        <time>2017-10-30T09:30:04Z</time>
      </trkpt>
      <trkpt lat="52.288032034412026" lon="8.919901996850967">
        <ele>52.049999999999997</ele>
        <time>2017-10-30T09:30:11Z</time>
      </trkpt>
      <trkpt lat="52.28855799883604" lon="8.920804979279637">
        <ele>52.530000000000001</ele>
        <time>2017-10-30T09:30:19Z</time>
      </trkpt>
      <trkpt lat="52.288593035191298" lon="8.920861976221204">
        <ele>53.009999999999998</ele>
        <time>2017-10-30T09:30:20Z</time>
      </trkpt>
      <trkpt lat="52.28862002491951" lon="8.920904975384474">
        <ele>53.009999999999998</ele>
        <time>2017-10-30T09:30:21Z</time>
      </trkpt>
      <trkpt lat="52.28864399716258" lon="8.920945962890983">
        <ele>53.009999999999998</ele>
        <time>2017-10-30T09:30:22Z</time>
      </trkpt>
      <trkpt lat="52.288666963577271" lon="8.92098200507462">
        <ele>53.490000000000002</ele>
        <time>2017-10-30T09:30:23Z</time>
      </trkpt>
      <trkpt lat="52.288689007982612" lon="8.921017963439226">
        <ele>53.490000000000002</ele>
        <time>2017-10-30T09:30:24Z</time>
      </trkpt>
      <trkpt lat="52.288708034902811" lon="8.921050988137722">
        <ele>53.490000000000002</ele>
        <time>2017-10-30T09:30:25Z</time>
      </trkpt>
      <trkpt lat="52.288768971338868" lon="8.921149978414178">
        <ele>53.969999999999999</ele>
        <time>2017-10-30T09:30:35Z</time>
      </trkpt>
      <trkpt lat="52.288768971338868" lon="8.921149978414178">
        <ele>54.450000000000003</ele>
        <time>2017-10-30T09:31:28Z</time>
      </trkpt>
      <trkpt lat="52.2889019921422" lon="8.921365980058909">
        <ele>54.450000000000003</ele>
        <time>2017-10-30T09:32:13Z</time>
      </trkpt>
      <trkpt lat="52.289484031498432" lon="8.921943996101618">
        <ele>54.450000000000003</ele>
        <time>2017-10-30T09:32:22Z</time>
      </trkpt>
      <trkpt lat="52.289744038134813" lon="8.922147005796433">
        <ele>54.450000000000003</ele>
        <time>2017-10-30T09:32:26Z</time>
      </trkpt>
      <trkpt lat="52.289793994277716" lon="8.92218598164618">
        <ele>53.969999999999999</ele>
        <time>2017-10-30T09:32:27Z</time>
      </trkpt>
      <trkpt lat="52.289783013984561" lon="8.922301987186074">
        <ele>54.450000000000003</ele>
        <time>2017-10-30T09:32:28Z</time>
      </trkpt>
      <trkpt lat="52.289773039519787" lon="8.922414975240827">
        <ele>54.450000000000003</ele>
        <time>2017-10-30T09:32:29Z</time>
      </trkpt>
      <trkpt lat="52.289759963750839" lon="8.922553025186062">
        <ele>54.450000000000003</ele>
        <time>2017-10-30T09:32:30Z</time>
      </trkpt>
      <trkpt lat="52.289744038134813" lon="8.922717981040478">
        <ele>54.450000000000003</ele>
        <time>2017-10-30T09:32:31Z</time>
      </trkpt>
      <trkpt lat="52.289727022871375" lon="8.922890983521938">
        <ele>53.969999999999999</ele>
        <time>2017-10-30T09:32:32Z</time>
      </trkpt>
      <trkpt lat="52.289640018716455" lon="8.923951964825392">
        <ele>53.009999999999998</ele>
        <time>2017-10-30T09:32:39Z</time>
      </trkpt>
      <trkpt lat="52.289514960721135" lon="8.925361968576908">
        <ele>50.609999999999999</ele>
        <time>2017-10-30T09:32:50Z</time>
      </trkpt>
      <trkpt lat="52.289504986256361" lon="8.925455007702112">
        <ele>50.130000000000003</ele>
        <time>2017-10-30T09:32:51Z</time>
      </trkpt>
      <trkpt lat="52.289495011791587" lon="8.925550980493426">
        <ele>50.130000000000003</ele>
        <time>2017-10-30T09:32:52Z</time>
      </trkpt>
      <trkpt lat="52.289485037326813" lon="8.925646031275392">
        <ele>49.649999999999999</ele>
        <time>2017-10-30T09:32:53Z</time>
      </trkpt>
      <trkpt lat="52.289470033720136" lon="8.925809981301427">
        <ele>49.159999999999997</ele>
        <time>2017-10-30T09:32:55Z</time>
      </trkpt>
      <trkpt lat="52.289466010406613" lon="8.925874019041657">
        <ele>48.68</ele>
        <time>2017-10-30T09:32:56Z</time>
      </trkpt>
      <trkpt lat="52.289462992921472" lon="8.925925986841321">
        <ele>48.68</ele>
        <time>2017-10-30T09:32:57Z</time>
      </trkpt>
      <trkpt lat="52.28946098126471" lon="8.925968986004591">
        <ele>48.200000000000003</ele>
        <time>2017-10-30T09:32:58Z</time>
      </trkpt>
      <trkpt lat="52.289458969607949" lon="8.925999999046326">
        <ele>48.200000000000003</ele>
        <time>2017-10-30T09:32:59Z</time>
      </trkpt>
      <trkpt lat="52.289458969607949" lon="8.925999999046326">
        <ele>48.200000000000003</ele>
        <time>2017-10-30T09:33:10Z</time>
      </trkpt>
      <trkpt lat="52.289441032335162" lon="8.926317002624273">
        <ele>47.240000000000002</ele>
        <time>2017-10-30T09:33:33Z</time>
      </trkpt>
      <trkpt lat="52.289404990151525" lon="8.927762964740396">
        <ele>46.759999999999998</ele>
        <time>2017-10-30T09:33:40Z</time>
      </trkpt>
      <trkpt lat="52.289323015138507" lon="8.92978903837502">
        <ele>45.799999999999997</ele>
        <time>2017-10-30T09:33:49Z</time>
      </trkpt>
      <trkpt lat="52.288977010175586" lon="8.931967997923493">
        <ele>43.399999999999999</ele>
        <time>2017-10-30T09:34:00Z</time>
      </trkpt>
      <trkpt lat="52.288876008242369" lon="8.932602005079389">
        <ele>41.469999999999999</ele>
        <time>2017-10-30T09:34:03Z</time>
      </trkpt>
      <trkpt lat="52.288849018514156" lon="8.932783976197243">
        <ele>40.030000000000001</ele>
        <time>2017-10-30T09:34:04Z</time>
      </trkpt>
      <trkpt lat="52.288785986602306" lon="8.933365009725094">
        <ele>39.549999999999997</ele>
        <time>2017-10-30T09:34:07Z</time>
      </trkpt>
      <trkpt lat="52.288785986602306" lon="8.933580005541444">
        <ele>39.549999999999997</ele>
        <time>2017-10-30T09:34:08Z</time>
      </trkpt>
      <trkpt lat="52.288783974945545" lon="8.933599032461643">
        <ele>40.990000000000002</ele>
        <time>2017-10-30T09:34:10Z</time>
      </trkpt>
      <trkpt lat="52.288781041279435" lon="8.933648988604546">
        <ele>41.469999999999999</ele>
        <time>2017-10-30T09:34:11Z</time>
      </trkpt>
      <trkpt lat="52.288816999644041" lon="8.933589980006218">
        <ele>41.469999999999999</ele>
        <time>2017-10-30T09:34:12Z</time>
      </trkpt>
      <trkpt lat="52.288843989372253" lon="8.933599032461643">
        <ele>41.469999999999999</ele>
        <time>2017-10-30T09:34:13Z</time>
      </trkpt>
      <trkpt lat="52.288867961615324" lon="8.933606995269656">
        <ele>41.469999999999999</ele>
        <time>2017-10-30T09:34:14Z</time>
      </trkpt>
      <trkpt lat="52.288887994363904" lon="8.93361403606832">
        <ele>41.469999999999999</ele>
        <time>2017-10-30T09:34:15Z</time>
      </trkpt>
      <trkpt lat="52.288887994363904" lon="8.93361403606832">
        <ele>41.469999999999999</ele>
        <time>2017-10-30T09:34:27Z</time>
      </trkpt>
      <trkpt lat="52.288904003798962" lon="8.933618981391192">
        <ele>41.469999999999999</ele>
        <time>2017-10-30T09:34:33Z</time>
      </trkpt>
      <trkpt lat="52.288783974945545" lon="8.933598026633263">
        <ele>41.469999999999999</ele>
        <time>2017-10-30T09:34:34Z</time>
      </trkpt>
      <trkpt lat="52.288785986602306" lon="8.93357103690505">
        <ele>41.469999999999999</ele>
        <time>2017-10-30T09:34:35Z</time>
      </trkpt>
      <trkpt lat="52.288785986602306" lon="8.93352996557951">
        <ele>41.469999999999999</ele>
        <time>2017-10-30T09:34:36Z</time>
      </trkpt>
      <trkpt lat="52.288785986602306" lon="8.933468023315072">
        <ele>41.950000000000003</ele>
        <time>2017-10-30T09:34:37Z</time>
      </trkpt>
      <trkpt lat="52.288785986602306" lon="8.933382024988532">
        <ele>41.950000000000003</ele>
        <time>2017-10-30T09:34:38Z</time>
      </trkpt>
      <trkpt lat="52.288785986602306" lon="8.933365009725094">
        <ele>41.950000000000003</ele>
        <time>2017-10-30T09:34:39Z</time>
      </trkpt>
      <trkpt lat="52.288819011300802" lon="8.933089999482036">
        <ele>41.950000000000003</ele>
        <time>2017-10-30T09:34:41Z</time>
      </trkpt>
      <trkpt lat="52.288838038221002" lon="8.932912973687053">
        <ele>42.439999999999998</ele>
        <time>2017-10-30T09:34:42Z</time>
      </trkpt>
      <trkpt lat="52.289054039865732" lon="8.931489977985621">
        <ele>44.359999999999999</ele>
        <time>2017-10-30T09:34:51Z</time>
      </trkpt>
      <trkpt lat="52.289074994623661" lon="8.931358968839049">
        <ele>45.32</ele>
        <time>2017-10-30T09:34:52Z</time>
      </trkpt>
      <trkpt lat="52.28917901404202" lon="8.930877009406686">
        <ele>48.200000000000003</ele>
        <time>2017-10-30T09:34:58Z</time>
      </trkpt>
      <trkpt lat="52.289269035682082" lon="8.93088698387146">
        <ele>48.200000000000003</ele>
        <time>2017-10-30T09:34:59Z</time>
      </trkpt>
      <trkpt lat="52.289301976561546" lon="8.930878015235066">
        <ele>48.200000000000003</ele>
        <time>2017-10-30T09:35:00Z</time>
      </trkpt>
      <trkpt lat="52.289329972118139" lon="8.930926965549588">
        <ele>48.200000000000003</ele>
        <time>2017-10-30T09:35:01Z</time>
      </trkpt>
      <trkpt lat="52.289364002645016" lon="8.930986979976296">
        <ele>48.68</ele>
        <time>2017-10-30T09:35:02Z</time>
      </trkpt>
      <trkpt lat="52.289383029565215" lon="8.931073984131217">
        <ele>48.68</ele>
        <time>2017-10-30T09:35:03Z</time>
      </trkpt>
      <trkpt lat="52.28937498293817" lon="8.93118797801435">
        <ele>48.68</ele>
        <time>2017-10-30T09:35:04Z</time>
      </trkpt>
      <trkpt lat="52.289366014301777" lon="8.931317981332541">
        <ele>48.68</ele>
        <time>2017-10-30T09:35:05Z</time>
      </trkpt>
      <trkpt lat="52.289356039837003" lon="8.931468017399311">
        <ele>48.200000000000003</ele>
        <time>2017-10-30T09:35:06Z</time>
      </trkpt>
      <trkpt lat="52.289342964068055" lon="8.931648982688785">
        <ele>47.719999999999999</ele>
        <time>2017-10-30T09:35:07Z</time>
      </trkpt>
      <trkpt lat="52.289338018745184" lon="8.931782003492117">
        <ele>47.240000000000002</ele>
        <time>2017-10-30T09:35:08Z</time>
      </trkpt>
      <trkpt lat="52.289307005703449" lon="8.932505026459694">
        <ele>46.759999999999998</ele>
        <time>2017-10-30T09:35:13Z</time>
      </trkpt>
      <trkpt lat="52.289302982389927" lon="8.932594964280725">
        <ele>46.280000000000001</ele>
        <time>2017-10-30T09:35:14Z</time>
      </trkpt>
      <trkpt lat="52.289364002645016" lon="8.932659002020955">
        <ele>46.280000000000001</ele>
        <time>2017-10-30T09:35:15Z</time>
      </trkpt>
      <trkpt lat="52.289429968222976" lon="8.932662019506097">
        <ele>45.799999999999997</ele>
        <time>2017-10-30T09:35:16Z</time>
      </trkpt>
      <trkpt lat="52.289506997913122" lon="8.932664031162858">
        <ele>45.32</ele>
        <time>2017-10-30T09:35:17Z</time>
      </trkpt>
      <trkpt lat="52.289591990411282" lon="8.932666964828968">
        <ele>45.32</ele>
        <time>2017-10-30T09:35:18Z</time>
      </trkpt>
      <trkpt lat="52.289681006222963" lon="8.93266998231411">
        <ele>44.840000000000003</ele>
        <time>2017-10-30T09:35:19Z</time>
      </trkpt>
      <trkpt lat="52.289778990671039" lon="8.932672999799252">
        <ele>44.840000000000003</ele>
        <time>2017-10-30T09:35:20Z</time>
      </trkpt>
      <trkpt lat="52.28988703340292" lon="8.932677023112774">
        <ele>44.840000000000003</ele>
        <time>2017-10-30T09:35:21Z</time>
      </trkpt>
      <trkpt lat="52.291115988045931" lon="8.932679034769535">
        <ele>44.840000000000003</ele>
        <time>2017-10-30T09:35:32Z</time>
      </trkpt>
      <trkpt lat="52.292062975466251" lon="8.932679034769535">
        <ele>46.280000000000001</ele>
        <time>2017-10-30T09:35:41Z</time>
      </trkpt>
      <trkpt lat="52.292152997106314" lon="8.932679034769535">
        <ele>46.280000000000001</ele>
        <time>2017-10-30T09:35:42Z</time>
      </trkpt>
      <trkpt lat="52.292238995432854" lon="8.93271298147738">
        <ele>46.280000000000001</ele>
        <time>2017-10-30T09:35:43Z</time>
      </trkpt>
      <trkpt lat="52.292321976274252" lon="8.932757992297411">
        <ele>46.759999999999998</ele>
        <time>2017-10-30T09:35:44Z</time>
      </trkpt>
      <trkpt lat="52.292406968772411" lon="8.932803003117442">
        <ele>46.759999999999998</ele>
        <time>2017-10-30T09:35:45Z</time>
      </trkpt>
      <trkpt lat="52.292491961270571" lon="8.93286201171577">
        <ele>46.759999999999998</ele>
        <time>2017-10-30T09:35:46Z</time>
      </trkpt>
      <trkpt lat="52.292578965425491" lon="8.932940969243646">
        <ele>47.240000000000002</ele>
        <time>2017-10-30T09:35:47Z</time>
      </trkpt>
      <trkpt lat="52.293357979506254" lon="8.93363599665463">
        <ele>49.649999999999999</ele>
        <time>2017-10-30T09:35:56Z</time>
      </trkpt>
      <trkpt lat="52.293453030288219" lon="8.933686958625913">
        <ele>50.130000000000003</ele>
        <time>2017-10-30T09:35:57Z</time>
      </trkpt>
      <trkpt lat="52.294654995203018" lon="8.934287019073963">
        <ele>52.530000000000001</ele>
        <time>2017-10-30T09:36:07Z</time>
      </trkpt>
      <trkpt lat="52.295311968773603" lon="8.934698989614844">
        <ele>53.009999999999998</ele>
        <time>2017-10-30T09:36:14Z</time>
      </trkpt>
      <trkpt lat="52.29541196487844" lon="8.934762021526694">
        <ele>53.969999999999999</ele>
        <time>2017-10-30T09:36:16Z</time>
      </trkpt>
      <trkpt lat="52.295443983748555" lon="8.934781970456243">
        <ele>53.969999999999999</ele>
        <time>2017-10-30T09:36:17Z</time>
      </trkpt>
      <trkpt lat="52.295464016497135" lon="8.934794962406158">
        <ele>54.450000000000003</ele>
        <time>2017-10-30T09:36:18Z</time>
      </trkpt>
      <trkpt lat="52.295464016497135" lon="8.934794962406158">
        <ele>54.93</ele>
        <time>2017-10-30T09:36:31Z</time>
      </trkpt>
      <trkpt lat="52.295464016497135" lon="8.934794962406158">
        <ele>55.409999999999997</ele>
        <time>2017-10-30T09:37:14Z</time>
      </trkpt>
    </trkseg>
  </trk>

  <trk>
    <name>Track vom: 2017-10-30 10:37</name>
    <extensions>
      <gpxx:TrackExtension>
        <gpxx:DisplayColor>DarkGray</gpxx:DisplayColor>
      </gpxx:TrackExtension>
    </extensions>
    <trkseg>
      <trkpt lat="52.295464016497135" lon="8.934794962406158">
        <ele>55.890000000000001</ele>
        <time>2017-10-30T09:37:46Z</time>
      </trkpt>
      <trkpt lat="52.295471979305148" lon="8.934799991548061">
        <ele>55.890000000000001</ele>
        <time>2017-10-30T09:37:54Z</time>
      </trkpt>
      <trkpt lat="52.295485977083445" lon="8.934808960184455">
        <ele>55.890000000000001</ele>
        <time>2017-10-30T09:37:55Z</time>
      </trkpt>
      <trkpt lat="52.295508021488786" lon="8.934822035953403">
        <ele>56.369999999999997</ele>
        <time>2017-10-30T09:37:56Z</time>
      </trkpt>
      <trkpt lat="52.295543979853392" lon="8.934845002368093">
        <ele>56.859999999999999</ele>
        <time>2017-10-30T09:37:57Z</time>
      </trkpt>
      <trkpt lat="52.295600976794958" lon="8.934880960732698">
        <ele>57.340000000000003</ele>
        <time>2017-10-30T09:37:58Z</time>
      </trkpt>
      <trkpt lat="52.295678006485105" lon="8.934928989037871">
        <ele>57.340000000000003</ele>
        <time>2017-10-30T09:37:59Z</time>
      </trkpt>
      <trkpt lat="52.295770961791277" lon="8.935010964050889">
        <ele>57.340000000000003</ele>
        <time>2017-10-30T09:38:00Z</time>
      </trkpt>
      <trkpt lat="52.296723984181881" lon="8.936111005023122">
        <ele>56.859999999999999</ele>
        <time>2017-10-30T09:38:10Z</time>
      </trkpt>
      <trkpt lat="52.29682800360024" lon="8.936175964772701">
        <ele>56.369999999999997</ele>
        <time>2017-10-30T09:38:11Z</time>
      </trkpt>
      <trkpt lat="52.29693696834147" lon="8.936245031654835">
        <ele>56.859999999999999</ele>
        <time>2017-10-30T09:38:12Z</time>
      </trkpt>
      <trkpt lat="52.297036964446306" lon="8.936306973919272">
        <ele>56.369999999999997</ele>
        <time>2017-10-30T09:38:13Z</time>
      </trkpt>
      <trkpt lat="52.297120029106736" lon="8.936334969475865">
        <ele>56.859999999999999</ele>
        <time>2017-10-30T09:38:14Z</time>
      </trkpt>
      <trkpt lat="52.297210972756147" lon="8.936349973082542">
        <ele>56.859999999999999</ele>
        <time>2017-10-30T09:38:15Z</time>
      </trkpt>
      <trkpt lat="52.297294037416577" lon="8.936363970860839">
        <ele>56.859999999999999</ele>
        <time>2017-10-30T09:38:16Z</time>
      </trkpt>
      <trkpt lat="52.297355979681015" lon="8.936362965032458">
        <ele>56.859999999999999</ele>
        <time>2017-10-30T09:38:17Z</time>
      </trkpt>
      <trkpt lat="52.29741096496582" lon="8.936349973082542">
        <ele>56.859999999999999</ele>
        <time>2017-10-30T09:38:18Z</time>
      </trkpt>
      <trkpt lat="52.297496041283011" lon="8.936332035809755">
        <ele>56.369999999999997</ele>
        <time>2017-10-30T09:38:25Z</time>
      </trkpt>
      <trkpt lat="52.297732997685671" lon="8.936241008341312">
        <ele>55.409999999999997</ele>
        <time>2017-10-30T09:39:00Z</time>
      </trkpt>
      <trkpt lat="52.298558028414845" lon="8.935731975361705">
        <ele>53.490000000000002</ele>
        <time>2017-10-30T09:39:08Z</time>
      </trkpt>
      <trkpt lat="52.299981024116278" lon="8.934987997636199">
        <ele>51.090000000000003</ele>
        <time>2017-10-30T09:39:18Z</time>
      </trkpt>
      <trkpt lat="52.301079975441098" lon="8.934423979371786">
        <ele>49.649999999999999</ele>
        <time>2017-10-30T09:39:28Z</time>
      </trkpt>
      <trkpt lat="52.302574971690774" lon="8.934060959145427">
        <ele>45.799999999999997</ele>
        <time>2017-10-30T09:39:41Z</time>
      </trkpt>
      <trkpt lat="52.303422968834639" lon="8.934112004935741">
        <ele>43.399999999999999</ele>
        <time>2017-10-30T09:39:49Z</time>
      </trkpt>
      <trkpt lat="52.303518019616604" lon="8.934119967743754">
        <ele>43.399999999999999</ele>
        <time>2017-10-30T09:39:50Z</time>
      </trkpt>
      <trkpt lat="52.303624972701073" lon="8.934128014370799">
        <ele>43.399999999999999</ele>
        <time>2017-10-30T09:39:51Z</time>
      </trkpt>
      <trkpt lat="52.304638009518385" lon="8.934203032404184">
        <ele>44.359999999999999</ele>
        <time>2017-10-30T09:40:00Z</time>
      </trkpt>
      <trkpt lat="52.304779998958111" lon="8.934213006868959">
        <ele>44.840000000000003</ele>
        <time>2017-10-30T09:40:02Z</time>
      </trkpt>
      <trkpt lat="52.304816041141748" lon="8.9342160243541">
        <ele>45.32</ele>
        <time>2017-10-30T09:40:03Z</time>
      </trkpt>
      <trkpt lat="52.304843030869961" lon="8.934218036010861">
        <ele>45.32</ele>
        <time>2017-10-30T09:40:04Z</time>
      </trkpt>
      <trkpt lat="52.304916037246585" lon="8.934381986036897">
        <ele>45.799999999999997</ele>
        <time>2017-10-30T09:40:05Z</time>
      </trkpt>
      <trkpt lat="52.304915031418204" lon="8.934416016563773">
        <ele>45.799999999999997</ele>
        <time>2017-10-30T09:40:06Z</time>
      </trkpt>
      <trkpt lat="52.304914025589824" lon="8.934443006291986">
        <ele>45.799999999999997</ele>
        <time>2017-10-30T09:40:07Z</time>
      </trkpt>
      <trkpt lat="52.304913019761443" lon="8.93447301350534">
        <ele>45.799999999999997</ele>
        <time>2017-10-30T09:40:08Z</time>
      </trkpt>
      <trkpt lat="52.304912013933063" lon="8.934506038203836">
        <ele>46.280000000000001</ele>
        <time>2017-10-30T09:40:09Z</time>
      </trkpt>
      <trkpt lat="52.304911008104682" lon="8.934523975476623">
        <ele>46.759999999999998</ele>
        <time>2017-10-30T09:40:10Z</time>
      </trkpt>
      <trkpt lat="52.304911008104682" lon="8.934523975476623">
        <ele>46.759999999999998</ele>
        <time>2017-10-30T09:40:11Z</time>
      </trkpt>
      <trkpt lat="52.304911008104682" lon="8.934523975476623">
        <ele>46.759999999999998</ele>
        <time>2017-10-30T09:40:13Z</time>
      </trkpt>
      <trkpt lat="52.304915031418204" lon="8.934416016563773">
        <ele>47.240000000000002</ele>
        <time>2017-10-30T09:40:18Z</time>
      </trkpt>
      <trkpt lat="52.304916959255934" lon="8.934372011572123">
        <ele>47.240000000000002</ele>
        <time>2017-10-30T09:40:19Z</time>
      </trkpt>
      <trkpt lat="52.304917965084314" lon="8.93432498909533">
        <ele>46.759999999999998</ele>
        <time>2017-10-30T09:40:20Z</time>
      </trkpt>
      <trkpt lat="52.305004969239235" lon="8.934219963848591">
        <ele>46.759999999999998</ele>
        <time>2017-10-30T09:40:21Z</time>
      </trkpt>
      <trkpt lat="52.305032964795828" lon="8.934219041839242">
        <ele>46.759999999999998</ele>
        <time>2017-10-30T09:40:22Z</time>
      </trkpt>
      <trkpt lat="52.305070012807846" lon="8.934218036010861">
        <ele>46.759999999999998</ele>
        <time>2017-10-30T09:40:23Z</time>
      </trkpt>
      <trkpt lat="52.305124998092651" lon="8.9342160243541">
        <ele>46.280000000000001</ele>
        <time>2017-10-30T09:40:24Z</time>
      </trkpt>
      <trkpt lat="52.305820025503635" lon="8.934188028797507">
        <ele>47.719999999999999</ele>
        <time>2017-10-30T09:40:31Z</time>
      </trkpt>
      <trkpt lat="52.306795008480549" lon="8.934210995212197">
        <ele>47.719999999999999</ele>
        <time>2017-10-30T09:40:40Z</time>
      </trkpt>
      <trkpt lat="52.306864997372031" lon="8.934221975505352">
        <ele>48.200000000000003</ele>
        <time>2017-10-30T09:40:41Z</time>
      </trkpt>
      <trkpt lat="52.306924005970359" lon="8.934232033789158">
        <ele>48.200000000000003</ele>
        <time>2017-10-30T09:40:42Z</time>
      </trkpt>
      <trkpt lat="52.306990977376699" lon="8.934118039906025">
        <ele>48.200000000000003</ele>
        <time>2017-10-30T09:40:43Z</time>
      </trkpt>
      <trkpt lat="52.306984020397067" lon="8.934045033529401">
        <ele>48.200000000000003</ele>
        <time>2017-10-30T09:40:44Z</time>
      </trkpt>
      <trkpt lat="52.306974967941642" lon="8.9339570235461">
        <ele>48.68</ele>
        <time>2017-10-30T09:40:45Z</time>
      </trkpt>
      <trkpt lat="52.306964993476868" lon="8.93385199829936">
        <ele>48.68</ele>
        <time>2017-10-30T09:40:46Z</time>
      </trkpt>
      <trkpt lat="52.306954013183713" lon="8.933730041608214">
        <ele>48.68</ele>
        <time>2017-10-30T09:40:47Z</time>
      </trkpt>
      <trkpt lat="52.306824009865522" lon="8.932384997606278">
        <ele>48.200000000000003</ele>
        <time>2017-10-30T09:40:55Z</time>
      </trkpt>
      <trkpt lat="52.306671040132642" lon="8.931168029084802">
        <ele>46.280000000000001</ele>
        <time>2017-10-30T09:41:04Z</time>
      </trkpt>
      <trkpt lat="52.306622005999088" lon="8.930812971666455">
        <ele>45.32</ele>
        <time>2017-10-30T09:41:07Z</time>
      </trkpt>
      <trkpt lat="52.306595016270876" lon="8.930619014427066">
        <ele>43.399999999999999</ele>
        <time>2017-10-30T09:41:14Z</time>
      </trkpt>
      <trkpt lat="52.306595016270876" lon="8.930619014427066">
        <ele>43.399999999999999</ele>
        <time>2017-10-30T09:41:15Z</time>
      </trkpt>
      <trkpt lat="52.306595016270876" lon="8.930619014427066">
        <ele>41.950000000000003</ele>
        <time>2017-10-30T09:41:30Z</time>
      </trkpt>
      <trkpt lat="52.306595016270876" lon="8.930619014427066">
        <ele>41.469999999999999</ele>
        <time>2017-10-30T09:42:10Z</time>
      </trkpt>
      <trkpt lat="52.306536007672548" lon="8.930506026372314">
        <ele>36.670000000000002</ele>
        <time>2017-10-30T09:50:56Z</time>
      </trkpt>
      <trkpt lat="52.306526033207774" lon="8.930466966703534">
        <ele>45.799999999999997</ele>
        <time>2017-10-30T09:51:38Z</time>
      </trkpt>
      <trkpt lat="52.306547993794084" lon="8.93043402582407">
        <ele>40.030000000000001</ele>
        <time>2017-10-30T09:52:34Z</time>
      </trkpt>
      <trkpt lat="52.306547993794084" lon="8.930437965318561">
        <ele>40.030000000000001</ele>
        <time>2017-10-30T09:53:37Z</time>
      </trkpt>
      <trkpt lat="52.306547993794084" lon="8.930437965318561">
        <ele>40.030000000000001</ele>
        <time>2017-10-30T09:54:38Z</time>
      </trkpt>
      <trkpt lat="52.306547993794084" lon="8.930436037480831">
        <ele>40.509999999999998</ele>
        <time>2017-10-30T09:55:40Z</time>
      </trkpt>
      <trkpt lat="52.306547993794084" lon="8.930436037480831">
        <ele>40.509999999999998</ele>
        <time>2017-10-30T09:55:42Z</time>
      </trkpt>
      <trkpt lat="52.306595016270876" lon="8.930619014427066">
        <ele>41.950000000000003</ele>
        <time>2017-10-30T09:55:52Z</time>
      </trkpt>
      <trkpt lat="52.306599961593747" lon="8.930654972791672">
        <ele>41.950000000000003</ele>
        <time>2017-10-30T09:55:53Z</time>
      </trkpt>
      <trkpt lat="52.306612031534314" lon="8.930738959461451">
        <ele>41.950000000000003</ele>
        <time>2017-10-30T09:55:54Z</time>
      </trkpt>
      <trkpt lat="52.306766007095575" lon="8.931848974898458">
        <ele>41.469999999999999</ele>
        <time>2017-10-30T09:56:02Z</time>
      </trkpt>
      <trkpt lat="52.306892992928624" lon="8.933098968118429">
        <ele>42.920000000000002</ele>
        <time>2017-10-30T09:56:11Z</time>
      </trkpt>
      <trkpt lat="52.306933980435133" lon="8.933528959751129">
        <ele>43.399999999999999</ele>
        <time>2017-10-30T09:56:15Z</time>
      </trkpt>
      <trkpt lat="52.306943032890558" lon="8.933619987219572">
        <ele>43.399999999999999</ele>
        <time>2017-10-30T09:56:16Z</time>
      </trkpt>
      <trkpt lat="52.306950995698571" lon="8.93370196223259">
        <ele>43.399999999999999</ele>
        <time>2017-10-30T09:56:17Z</time>
      </trkpt>
      <trkpt lat="52.306964993476868" lon="8.933847974985838">
        <ele>42.920000000000002</ele>
        <time>2017-10-30T09:56:19Z</time>
      </trkpt>
      <trkpt lat="52.306972034275532" lon="8.933923998847604">
        <ele>42.920000000000002</ele>
        <time>2017-10-30T09:56:20Z</time>
      </trkpt>
      <trkpt lat="52.306978991255164" lon="8.933992981910706">
        <ele>42.439999999999998</ele>
        <time>2017-10-30T09:56:21Z</time>
      </trkpt>
      <trkpt lat="52.306985026225448" lon="8.934052996337414">
        <ele>42.439999999999998</ele>
        <time>2017-10-30T09:56:22Z</time>
      </trkpt>
      <trkpt lat="52.306989971548319" lon="8.934106975793839">
        <ele>41.950000000000003</ele>
        <time>2017-10-30T09:56:23Z</time>
      </trkpt>
      <trkpt lat="52.306916965171695" lon="8.934231027960777">
        <ele>41.469999999999999</ele>
        <time>2017-10-30T09:56:24Z</time>
      </trkpt>
      <trkpt lat="52.306863991543651" lon="8.934221975505352">
        <ele>40.990000000000002</ele>
        <time>2017-10-30T09:56:25Z</time>
      </trkpt>
      <trkpt lat="52.306792996823788" lon="8.934209989383817">
        <ele>40.509999999999998</ele>
        <time>2017-10-30T09:56:26Z</time>
      </trkpt>
      <trkpt lat="52.306705992668867" lon="8.934201020747423">
        <ele>40.030000000000001</ele>
        <time>2017-10-30T09:56:27Z</time>
      </trkpt>
      <trkpt lat="52.305736038833857" lon="8.934190962463617">
        <ele>41.950000000000003</ele>
        <time>2017-10-30T09:56:36Z</time>
      </trkpt>
      <trkpt lat="52.304945960640907" lon="8.934222981333733">
        <ele>41.950000000000003</ele>
        <time>2017-10-30T09:56:45Z</time>
      </trkpt>
      <trkpt lat="52.304918970912695" lon="8.934305962175131">
        <ele>41.950000000000003</ele>
        <time>2017-10-30T09:56:46Z</time>
      </trkpt>
      <trkpt lat="52.304916959255934" lon="8.934374023228884">
        <ele>41.469999999999999</ele>
        <time>2017-10-30T09:56:47Z</time>
      </trkpt>
      <trkpt lat="52.304913019761443" lon="8.934466978535056">
        <ele>41.469999999999999</ele>
        <time>2017-10-30T09:56:48Z</time>
      </trkpt>
      <trkpt lat="52.304910002276301" lon="8.934578038752079">
        <ele>41.469999999999999</ele>
        <time>2017-10-30T09:56:49Z</time>
      </trkpt>
      <trkpt lat="52.304858034476638" lon="8.936093989759684">
        <ele>41.469999999999999</ele>
        <time>2017-10-30T09:56:58Z</time>
      </trkpt>
      <trkpt lat="52.304776981472969" lon="8.938432037830353">
        <ele>41.950000000000003</ele>
        <time>2017-10-30T09:57:10Z</time>
      </trkpt>
      <trkpt lat="52.304749991744757" lon="8.940689032897353">
        <ele>41.469999999999999</ele>
        <time>2017-10-30T09:57:22Z</time>
      </trkpt>
      <trkpt lat="52.304772958159447" lon="8.942930018529296">
        <ele>43.880000000000003</ele>
        <time>2017-10-30T09:57:34Z</time>
      </trkpt>
      <trkpt lat="52.304835990071297" lon="8.943682964891195">
        <ele>43.399999999999999</ele>
        <time>2017-10-30T09:57:38Z</time>
      </trkpt>
      <trkpt lat="52.304857028648257" lon="8.943880023434758">
        <ele>43.399999999999999</ele>
        <time>2017-10-30T09:57:39Z</time>
      </trkpt>
      <trkpt lat="52.304925005882978" lon="8.944013966247439">
        <ele>43.399999999999999</ele>
        <time>2017-10-30T09:57:40Z</time>
      </trkpt>
      <trkpt lat="52.305003963410854" lon="8.944144975394011">
        <ele>42.920000000000002</ele>
        <time>2017-10-30T09:57:41Z</time>
      </trkpt>
      <trkpt lat="52.305094990879297" lon="8.944259975105524">
        <ele>42.920000000000002</ele>
        <time>2017-10-30T09:57:42Z</time>
      </trkpt>
      <trkpt lat="52.306271977722645" lon="8.945801993831992">
        <ele>40.030000000000001</ele>
        <time>2017-10-30T09:57:55Z</time>
      </trkpt>
      <trkpt lat="52.306901039555669" lon="8.947350969538093">
        <ele>39.549999999999997</ele>
        <time>2017-10-30T09:58:05Z</time>
      </trkpt>
      <trkpt lat="52.307045962661505" lon="8.949030032381415">
        <ele>39.549999999999997</ele>
        <time>2017-10-30T09:58:14Z</time>
      </trkpt>
      <trkpt lat="52.306847982108593" lon="8.951847022399306">
        <ele>40.509999999999998</ele>
        <time>2017-10-30T09:58:29Z</time>
      </trkpt>
      <trkpt lat="52.306611025705934" lon="8.955017980188131">
        <ele>43.399999999999999</ele>
        <time>2017-10-30T09:58:46Z</time>
      </trkpt>
      <trkpt lat="52.306424025446177" lon="8.95761301741004">
        <ele>41.950000000000003</ele>
        <time>2017-10-30T09:59:00Z</time>
      </trkpt>
      <trkpt lat="52.306454032659531" lon="8.958004033192992">
        <ele>41.950000000000003</ele>
        <time>2017-10-30T09:59:02Z</time>
      </trkpt>
      <trkpt lat="52.306469036266208" lon="8.958177035674453">
        <ele>41.950000000000003</ele>
        <time>2017-10-30T09:59:03Z</time>
      </trkpt>
      <trkpt lat="52.306515974923968" lon="8.958341991528869">
        <ele>42.439999999999998</ele>
        <time>2017-10-30T09:59:04Z</time>
      </trkpt>
      <trkpt lat="52.30656199157238" lon="8.958503007888794">
        <ele>42.920000000000002</ele>
        <time>2017-10-30T09:59:05Z</time>
      </trkpt>
      <trkpt lat="52.306618988513947" lon="8.958652038127184">
        <ele>42.920000000000002</ele>
        <time>2017-10-30T09:59:06Z</time>
      </trkpt>
      <trkpt lat="52.306705992668867" lon="8.958767959848046">
        <ele>42.920000000000002</ele>
        <time>2017-10-30T09:59:07Z</time>
      </trkpt>
      <trkpt lat="52.306788973510265" lon="8.958879020065069">
        <ele>43.399999999999999</ele>
        <time>2017-10-30T09:59:08Z</time>
      </trkpt>
      <trkpt lat="52.306902967393398" lon="8.958922019228339">
        <ele>43.399999999999999</ele>
        <time>2017-10-30T09:59:09Z</time>
      </trkpt>
      <trkpt lat="52.307015033438802" lon="8.958965018391609">
        <ele>43.399999999999999</ele>
        <time>2017-10-30T09:59:10Z</time>
      </trkpt>
      <trkpt lat="52.307129027321935" lon="8.95900902338326">
        <ele>43.880000000000003</ele>
        <time>2017-10-30T09:59:11Z</time>
      </trkpt>
      <trkpt lat="52.308941027149558" lon="8.959688963368535">
        <ele>44.359999999999999</ele>
        <time>2017-10-30T09:59:27Z</time>
      </trkpt>
      <trkpt lat="52.309385016560555" lon="8.959884010255337">
        <ele>43.880000000000003</ele>
        <time>2017-10-30T09:59:31Z</time>
      </trkpt>
      <trkpt lat="52.309489035978913" lon="8.959970008581877">
        <ele>43.880000000000003</ele>
        <time>2017-10-30T09:59:32Z</time>
      </trkpt>
      <trkpt lat="52.309620967134833" lon="8.960079979151487">
        <ele>43.399999999999999</ele>
        <time>2017-10-30T09:59:33Z</time>
      </trkpt>
      <trkpt lat="52.309679975733161" lon="8.960197996348143">
        <ele>43.399999999999999</ele>
        <time>2017-10-30T09:59:34Z</time>
      </trkpt>
      <trkpt lat="52.309745019301772" lon="8.960368987172842">
        <ele>42.920000000000002</ele>
        <time>2017-10-30T09:59:35Z</time>
      </trkpt>
      <trkpt lat="52.3097850009799" lon="8.960542995482683">
        <ele>42.439999999999998</ele>
        <time>2017-10-30T09:59:36Z</time>
      </trkpt>
      <trkpt lat="52.309823976829648" lon="8.960717003792524">
        <ele>42.439999999999998</ele>
        <time>2017-10-30T09:59:37Z</time>
      </trkpt>
      <trkpt lat="52.309835962951183" lon="8.960910961031914">
        <ele>41.950000000000003</ele>
        <time>2017-10-30T09:59:38Z</time>
      </trkpt>
      <trkpt lat="52.309835962951183" lon="8.961096033453941">
        <ele>41.950000000000003</ele>
        <time>2017-10-30T09:59:39Z</time>
      </trkpt>
      <trkpt lat="52.309818025678396" lon="8.961285967379808">
        <ele>41.950000000000003</ele>
        <time>2017-10-30T09:59:40Z</time>
      </trkpt>
      <trkpt lat="52.309793969616294" lon="8.961468022316694">
        <ele>41.950000000000003</ele>
        <time>2017-10-30T09:59:41Z</time>
      </trkpt>
      <trkpt lat="52.309772009029984" lon="8.961640018969774">
        <ele>42.439999999999998</ele>
        <time>2017-10-30T09:59:42Z</time>
      </trkpt>
      <trkpt lat="52.309509990736842" lon="8.963636001572013">
        <ele>41.950000000000003</ele>
        <time>2017-10-30T09:59:53Z</time>
      </trkpt>
      <trkpt lat="52.309240009635687" lon="8.9650699775666">
        <ele>41.950000000000003</ele>
        <time>2017-10-30T10:00:01Z</time>
      </trkpt>
      <trkpt lat="52.309098020195961" lon="8.965507009997964">
        <ele>41.950000000000003</ele>
        <time>2017-10-30T10:00:06Z</time>
      </trkpt>
      <trkpt lat="52.309088967740536" lon="8.965536011382937">
        <ele>42.439999999999998</ele>
        <time>2017-10-30T10:00:07Z</time>
      </trkpt>
      <trkpt lat="52.30907597579062" lon="8.965573981404305">
        <ele>42.439999999999998</ele>
        <time>2017-10-30T10:00:08Z</time>
      </trkpt>
      <trkpt lat="52.309073964133859" lon="8.965727034956217">
        <ele>42.439999999999998</ele>
        <time>2017-10-30T10:00:09Z</time>
      </trkpt>
      <trkpt lat="52.309130039066076" lon="8.965808004140854">
        <ele>42.439999999999998</ele>
        <time>2017-10-30T10:00:10Z</time>
      </trkpt>
      <trkpt lat="52.309191981330514" lon="8.965898025780916">
        <ele>42.439999999999998</ele>
        <time>2017-10-30T10:00:11Z</time>
      </trkpt>
      <trkpt lat="52.309260964393616" lon="8.965998021885753">
        <ele>42.439999999999998</ele>
        <time>2017-10-30T10:00:12Z</time>
      </trkpt>
      <trkpt lat="52.309868987649679" lon="8.967062020674348">
        <ele>40.030000000000001</ele>
        <time>2017-10-30T10:00:20Z</time>
      </trkpt>
      <trkpt lat="52.310517998412251" lon="8.968629017472267">
        <ele>39.07</ele>
        <time>2017-10-30T10:00:30Z</time>
      </trkpt>
      <trkpt lat="52.31083701364696" lon="8.969832994043827">
        <ele>36.670000000000002</ele>
        <time>2017-10-30T10:00:37Z</time>
      </trkpt>
      <trkpt lat="52.311042034998536" lon="8.971500992774963">
        <ele>34.740000000000002</ele>
        <time>2017-10-30T10:00:44Z</time>
      </trkpt>
      <trkpt lat="52.310912031680346" lon="8.973907018080354">
        <ele>36.670000000000002</ele>
        <time>2017-10-30T10:00:51Z</time>
      </trkpt>
      <trkpt lat="52.310270983725786" lon="8.977204039692879">
        <ele>40.509999999999998</ele>
        <time>2017-10-30T10:01:00Z</time>
      </trkpt>
      <trkpt lat="52.309705959632993" lon="8.980171987786889">
        <ele>41.469999999999999</ele>
        <time>2017-10-30T10:01:09Z</time>
      </trkpt>
      <trkpt lat="52.309604035690427" lon="8.980934992432594">
        <ele>41.950000000000003</ele>
        <time>2017-10-30T10:01:12Z</time>
      </trkpt>
      <trkpt lat="52.309490041807294" lon="8.982623023912311">
        <ele>41.469999999999999</ele>
        <time>2017-10-30T10:01:18Z</time>
      </trkpt>
      <trkpt lat="52.309448970481753" lon="8.984386995434761">
        <ele>38.590000000000003</ele>
        <time>2017-10-30T10:01:25Z</time>
      </trkpt>
      <trkpt lat="52.30941996909678" lon="8.985010022297502">
        <ele>37.149999999999999</ele>
        <time>2017-10-30T10:01:28Z</time>
      </trkpt>
      <trkpt lat="52.309413012117147" lon="8.985210014507175">
        <ele>37.149999999999999</ele>
        <time>2017-10-30T10:01:29Z</time>
      </trkpt>
      <trkpt lat="52.309362972155213" lon="8.987497016787529">
        <ele>40.509999999999998</ele>
        <time>2017-10-30T10:01:41Z</time>
      </trkpt>
      <trkpt lat="52.309402031823993" lon="8.988436041399837">
        <ele>41.469999999999999</ele>
        <time>2017-10-30T10:01:46Z</time>
      </trkpt>
      <trkpt lat="52.309432961046696" lon="8.988614995032549">
        <ele>41.469999999999999</ele>
        <time>2017-10-30T10:01:47Z</time>
      </trkpt>
      <trkpt lat="52.30946296826005" lon="8.988790009170771">
        <ele>41.950000000000003</ele>
        <time>2017-10-30T10:01:48Z</time>
      </trkpt>
      <trkpt lat="52.310079038143158" lon="8.990377960726619">
        <ele>41.469999999999999</ele>
        <time>2017-10-30T10:01:58Z</time>
      </trkpt>
      <trkpt lat="52.310641966760159" lon="8.991795005276799">
        <ele>42.920000000000002</ele>
        <time>2017-10-30T10:02:07Z</time>
      </trkpt>
      <trkpt lat="52.310695024207234" lon="8.99194898083806">
        <ele>42.920000000000002</ele>
        <time>2017-10-30T10:02:08Z</time>
      </trkpt>
      <trkpt lat="52.310724025592208" lon="8.992128018289805">
        <ele>43.399999999999999</ele>
        <time>2017-10-30T10:02:09Z</time>
      </trkpt>
      <trkpt lat="52.310724025592208" lon="8.992305966094136">
        <ele>43.399999999999999</ele>
        <time>2017-10-30T10:02:10Z</time>
      </trkpt>
      <trkpt lat="52.310700975358486" lon="8.992489026859403">
        <ele>43.880000000000003</ele>
        <time>2017-10-30T10:02:11Z</time>
      </trkpt>
      <trkpt lat="52.310678008943796" lon="8.992674015462399">
        <ele>43.880000000000003</ele>
        <time>2017-10-30T10:02:12Z</time>
      </trkpt>
      <trkpt lat="52.310355976223946" lon="8.99508498609066">
        <ele>48.200000000000003</ele>
        <time>2017-10-30T10:02:25Z</time>
      </trkpt>
      <trkpt lat="52.310125976800919" lon="8.996711997315288">
        <ele>51.090000000000003</ele>
        <time>2017-10-30T10:02:34Z</time>
      </trkpt>
      <trkpt lat="52.31012798845768" lon="8.996903020888567">
        <ele>51.090000000000003</ele>
        <time>2017-10-30T10:02:35Z</time>
      </trkpt>
      <trkpt lat="52.310151038691401" lon="8.997089015319943">
        <ele>51.090000000000003</ele>
        <time>2017-10-30T10:02:36Z</time>
      </trkpt>
      <trkpt lat="52.310466030612588" lon="8.999314997345209">
        <ele>51.090000000000003</ele>
        <time>2017-10-30T10:02:48Z</time>
      </trkpt>
      <trkpt lat="52.310775993391871" lon="9.001546008512378">
        <ele>48.68</ele>
        <time>2017-10-30T10:03:00Z</time>
      </trkpt>
      <trkpt lat="52.311039017513394" lon="9.003374017775059">
        <ele>47.719999999999999</ele>
        <time>2017-10-30T10:03:09Z</time>
      </trkpt>
      <trkpt lat="52.311089979484677" lon="9.003881039097905">
        <ele>47.719999999999999</ele>
        <time>2017-10-30T10:03:11Z</time>
      </trkpt>
      <trkpt lat="52.311100037768483" lon="9.004124030470848">
        <ele>47.719999999999999</ele>
        <time>2017-10-30T10:03:12Z</time>
      </trkpt>
      <trkpt lat="52.311053015291691" lon="9.00436601601541">
        <ele>47.719999999999999</ele>
        <time>2017-10-30T10:03:13Z</time>
      </trkpt>
      <trkpt lat="52.310971040278673" lon="9.004598027095199">
        <ele>47.719999999999999</ele>
        <time>2017-10-30T10:03:14Z</time>
      </trkpt>
      <trkpt lat="52.310870960354805" lon="9.004826014861465">
        <ele>47.719999999999999</ele>
        <time>2017-10-30T10:03:15Z</time>
      </trkpt>
      <trkpt lat="52.310764007270336" lon="9.005061965435743">
        <ele>48.200000000000003</ele>
        <time>2017-10-30T10:03:16Z</time>
      </trkpt>
      <trkpt lat="52.309682993218303" lon="9.007444018498063">
        <ele>52.530000000000001</ele>
        <time>2017-10-30T10:03:25Z</time>
      </trkpt>
      <trkpt lat="52.307965960353613" lon="9.011186035349965">
        <ele>55.409999999999997</ele>
        <time>2017-10-30T10:03:38Z</time>
      </trkpt>
      <trkpt lat="52.306949989870191" lon="9.013958014547825">
        <ele>53.969999999999999</ele>
        <time>2017-10-30T10:03:47Z</time>
      </trkpt>
      <trkpt lat="52.306852005422115" lon="9.014273006469011">
        <ele>53.490000000000002</ele>
        <time>2017-10-30T10:03:48Z</time>
      </trkpt>
      <trkpt lat="52.306815041229129" lon="9.014618005603552">
        <ele>53.490000000000002</ele>
        <time>2017-10-30T10:03:49Z</time>
      </trkpt>
      <trkpt lat="52.306777993217111" lon="9.014969961717725">
        <ele>53.009999999999998</ele>
        <time>2017-10-30T10:03:50Z</time>
      </trkpt>
      <trkpt lat="52.306762989610434" lon="9.015339016914368">
        <ele>53.009999999999998</ele>
        <time>2017-10-30T10:03:51Z</time>
      </trkpt>
      <trkpt lat="52.306756032630801" lon="9.015702959150076">
        <ele>53.009999999999998</ele>
        <time>2017-10-30T10:03:52Z</time>
      </trkpt>
      <trkpt lat="52.306749997660518" lon="9.016058016568422">
        <ele>53.009999999999998</ele>
        <time>2017-10-30T10:03:53Z</time>
      </trkpt>
      <trkpt lat="52.306732982397079" lon="9.016403015702963">
        <ele>52.530000000000001</ele>
        <time>2017-10-30T10:03:54Z</time>
      </trkpt>
      <trkpt lat="52.306689983233809" lon="9.016749020665884">
        <ele>52.530000000000001</ele>
        <time>2017-10-30T10:03:55Z</time>
      </trkpt>
      <trkpt lat="52.306641032919288" lon="9.017094019800425">
        <ele>52.530000000000001</ele>
        <time>2017-10-30T10:03:56Z</time>
      </trkpt>
      <trkpt lat="52.306579006835818" lon="9.017441030591726">
        <ele>53.009999999999998</ele>
        <time>2017-10-30T10:03:57Z</time>
      </trkpt>
      <trkpt lat="52.305956985801458" lon="9.020830001682043">
        <ele>53.009999999999998</ele>
        <time>2017-10-30T10:04:06Z</time>
      </trkpt>
      <trkpt lat="52.30503698810935" lon="9.025852018967271">
        <ele>51.090000000000003</ele>
        <time>2017-10-30T10:04:19Z</time>
      </trkpt>
      <trkpt lat="52.304397029802203" lon="9.029157003387809">
        <ele>52.049999999999997</ele>
        <time>2017-10-30T10:04:28Z</time>
      </trkpt>
      <trkpt lat="52.303513996303082" lon="9.03251001611352">
        <ele>54.93</ele>
        <time>2017-10-30T10:04:38Z</time>
      </trkpt>
      <trkpt lat="52.30243700556457" lon="9.035640992224217">
        <ele>57.82</ele>
        <time>2017-10-30T10:04:49Z</time>
      </trkpt>
      <trkpt lat="52.301387004554272" lon="9.038587985560298">
        <ele>53.490000000000002</ele>
        <time>2017-10-30T10:04:59Z</time>
      </trkpt>
      <trkpt lat="52.300947038456798" lon="9.039770001545548">
        <ele>52.530000000000001</ele>
        <time>2017-10-30T10:05:03Z</time>
      </trkpt>
      <trkpt lat="52.299551032483578" lon="9.041969999670982">
        <ele>53.009999999999998</ele>
        <time>2017-10-30T10:05:12Z</time>
      </trkpt>
      <trkpt lat="52.298574037849903" lon="9.04344798065722">
        <ele>53.490000000000002</ele>
        <time>2017-10-30T10:05:20Z</time>
      </trkpt>
      <trkpt lat="52.297811033204198" lon="9.044594038277865">
        <ele>53.969999999999999</ele>
        <time>2017-10-30T10:05:29Z</time>
      </trkpt>
      <trkpt lat="52.296789027750492" lon="9.046125998720527">
        <ele>54.93</ele>
        <time>2017-10-30T10:05:41Z</time>
      </trkpt>
      <trkpt lat="52.296735970303416" lon="9.046268993988633">
        <ele>55.409999999999997</ele>
        <time>2017-10-30T10:05:42Z</time>
      </trkpt>
      <trkpt lat="52.29667603969574" lon="9.046427998691797">
        <ele>55.409999999999997</ele>
        <time>2017-10-30T10:05:43Z</time>
      </trkpt>
      <trkpt lat="52.296616025269032" lon="9.046588009223342">
        <ele>55.409999999999997</ele>
        <time>2017-10-30T10:05:44Z</time>
      </trkpt>
      <trkpt lat="52.296579983085394" lon="9.046774003654718">
        <ele>55.409999999999997</ele>
        <time>2017-10-30T10:05:45Z</time>
      </trkpt>
      <trkpt lat="52.296558022499084" lon="9.046959998086095">
        <ele>55.409999999999997</ele>
        <time>2017-10-30T10:05:46Z</time>
      </trkpt>
      <trkpt lat="52.296534972265363" lon="9.047144986689091">
        <ele>55.409999999999997</ele>
        <time>2017-10-30T10:05:47Z</time>
      </trkpt>
      <trkpt lat="52.296601021662354" lon="9.048808962106705">
        <ele>54.450000000000003</ele>
        <time>2017-10-30T10:05:56Z</time>
      </trkpt>
      <trkpt lat="52.296598004177213" lon="9.049366023391485">
        <ele>54.93</ele>
        <time>2017-10-30T10:05:59Z</time>
      </trkpt>
      <trkpt lat="52.296595992520452" lon="9.049738012254238">
        <ele>55.409999999999997</ele>
        <time>2017-10-30T10:06:01Z</time>
      </trkpt>
      <trkpt lat="52.296595992520452" lon="9.049919983372092">
        <ele>55.890000000000001</ele>
        <time>2017-10-30T10:06:02Z</time>
      </trkpt>
      <trkpt lat="52.296875026077032" lon="9.051511036232114">
        <ele>56.859999999999999</ele>
        <time>2017-10-30T10:06:11Z</time>
      </trkpt>
      <trkpt lat="52.296885000541806" lon="9.051727959886193">
        <ele>57.340000000000003</ele>
        <time>2017-10-30T10:06:12Z</time>
      </trkpt>
      <trkpt lat="52.2968939691782" lon="9.051916971802712">
        <ele>57.340000000000003</ele>
        <time>2017-10-30T10:06:13Z</time>
      </trkpt>
      <trkpt lat="52.29700000025332" lon="9.054173966869712">
        <ele>59.740000000000002</ele>
        <time>2017-10-30T10:06:25Z</time>
      </trkpt>
      <trkpt lat="52.297011986374855" lon="9.055302003398538">
        <ele>59.259999999999998</ele>
        <time>2017-10-30T10:06:31Z</time>
      </trkpt>
      <trkpt lat="52.296986002475023" lon="9.055479029193521">
        <ele>59.259999999999998</ele>
        <time>2017-10-30T10:06:32Z</time>
      </trkpt>
      <trkpt lat="52.296938979998231" lon="9.055647002533078">
        <ele>59.259999999999998</ele>
        <time>2017-10-30T10:06:33Z</time>
      </trkpt>
      <trkpt lat="52.296425001695752" lon="9.057797966524959">
        <ele>60.700000000000003</ele>
        <time>2017-10-30T10:06:45Z</time>
      </trkpt>
      <trkpt lat="52.296181004494429" lon="9.060178007930517">
        <ele>60.219999999999999</ele>
        <time>2017-10-30T10:06:58Z</time>
      </trkpt>
      <trkpt lat="52.296019988134503" lon="9.061192972585559">
        <ele>61.18</ele>
        <time>2017-10-30T10:07:06Z</time>
      </trkpt>
      <trkpt lat="52.295960979536176" lon="9.061420038342476">
        <ele>62.619999999999997</ele>
        <time>2017-10-30T10:07:12Z</time>
      </trkpt>
      <trkpt lat="52.295951005071402" lon="9.061460020020604">
        <ele>63.100000000000001</ele>
        <time>2017-10-30T10:07:13Z</time>
      </trkpt>
      <trkpt lat="52.295940024778247" lon="9.061503019183874">
        <ele>63.100000000000001</ele>
        <time>2017-10-30T10:07:14Z</time>
      </trkpt>
      <trkpt lat="52.295929966494441" lon="9.06153897754848">
        <ele>63.100000000000001</ele>
        <time>2017-10-30T10:07:15Z</time>
      </trkpt>
      <trkpt lat="52.295899037271738" lon="9.061679039150477">
        <ele>63.100000000000001</ele>
        <time>2017-10-30T10:07:21Z</time>
      </trkpt>
      <trkpt lat="52.295715976506472" lon="9.062798023223877">
        <ele>63.100000000000001</ele>
        <time>2017-10-30T10:07:28Z</time>
      </trkpt>
      <trkpt lat="52.295524030923843" lon="9.064558977261186">
        <ele>62.619999999999997</ele>
        <time>2017-10-30T10:07:38Z</time>
      </trkpt>
      <trkpt lat="52.295537022873759" lon="9.064723011106253">
        <ele>62.140000000000001</ele>
        <time>2017-10-30T10:07:39Z</time>
      </trkpt>
      <trkpt lat="52.295549008995295" lon="9.06489098444581">
        <ele>61.659999999999997</ele>
        <time>2017-10-30T10:07:40Z</time>
      </trkpt>
      <trkpt lat="52.29556200094521" lon="9.065063986927271">
        <ele>60.700000000000003</ele>
        <time>2017-10-30T10:07:41Z</time>
      </trkpt>
      <trkpt lat="52.295594019815326" lon="9.065228020772338">
        <ele>60.219999999999999</ele>
        <time>2017-10-30T10:07:42Z</time>
      </trkpt>
      <trkpt lat="52.295636013150215" lon="9.065398005768657">
        <ele>59.740000000000002</ele>
        <time>2017-10-30T10:07:43Z</time>
      </trkpt>
      <trkpt lat="52.29599098674953" lon="9.066840028390288">
        <ele>57.82</ele>
        <time>2017-10-30T10:07:49Z</time>
      </trkpt>
      <trkpt lat="52.296359958127141" lon="9.069085037335753">
        <ele>56.859999999999999</ele>
        <time>2017-10-30T10:07:56Z</time>
      </trkpt>
      <trkpt lat="52.296302961185575" lon="9.072695961222053">
        <ele>56.859999999999999</ele>
        <time>2017-10-30T10:08:06Z</time>
      </trkpt>
      <trkpt lat="52.29601101949811" lon="9.076013015583158">
        <ele>55.890000000000001</ele>
        <time>2017-10-30T10:08:15Z</time>
      </trkpt>
      <trkpt lat="52.295134020969272" lon="9.078207984566689">
        <ele>56.859999999999999</ele>
        <time>2017-10-30T10:08:22Z</time>
      </trkpt>
      <trkpt lat="52.294474029913545" lon="9.080868987366557">
        <ele>59.259999999999998</ele>
        <time>2017-10-30T10:08:30Z</time>
      </trkpt>
      <trkpt lat="52.294102963060141" lon="9.084141030907631">
        <ele>59.740000000000002</ele>
        <time>2017-10-30T10:08:40Z</time>
      </trkpt>
      <trkpt lat="52.293760981410742" lon="9.087092969566584">
        <ele>59.740000000000002</ele>
        <time>2017-10-30T10:08:50Z</time>
      </trkpt>
      <trkpt lat="52.293040975928307" lon="9.088991973549128">
        <ele>64.069999999999993</ele>
        <time>2017-10-30T10:08:57Z</time>
      </trkpt>
      <trkpt lat="52.292348966002464" lon="9.090574979782105">
        <ele>65.989999999999995</ele>
        <time>2017-10-30T10:09:04Z</time>
      </trkpt>
      <trkpt lat="52.291798023506999" lon="9.092816971242428">
        <ele>63.100000000000001</ele>
        <time>2017-10-30T10:09:11Z</time>
      </trkpt>
      <trkpt lat="52.291489988565445" lon="9.094756040722132">
        <ele>61.18</ele>
        <time>2017-10-30T10:09:18Z</time>
      </trkpt>
      <trkpt lat="52.291208021342754" lon="9.096820000559092">
        <ele>60.700000000000003</ele>
        <time>2017-10-30T10:09:28Z</time>
      </trkpt>
      <trkpt lat="52.291111964732409" lon="9.099062997847796">
        <ele>59.740000000000002</ele>
        <time>2017-10-30T10:09:39Z</time>
      </trkpt>
      <trkpt lat="52.290998976677656" lon="9.102127002552152">
        <ele>58.780000000000001</ele>
        <time>2017-10-30T10:09:54Z</time>
      </trkpt>
      <trkpt lat="52.290992019698024" lon="9.102328000590205">
        <ele>58.780000000000001</ele>
        <time>2017-10-30T10:09:55Z</time>
      </trkpt>
      <trkpt lat="52.290930999442935" lon="9.103974960744381">
        <ele>58.780000000000001</ele>
        <time>2017-10-30T10:10:03Z</time>
      </trkpt>
      <trkpt lat="52.290897974744439" lon="9.104155004024506">
        <ele>58.780000000000001</ele>
        <time>2017-10-30T10:10:04Z</time>
      </trkpt>
      <trkpt lat="52.29085598140955" lon="9.104344015941024">
        <ele>58.780000000000001</ele>
        <time>2017-10-30T10:10:05Z</time>
      </trkpt>
      <trkpt lat="52.290782975032926" lon="9.104507965967059">
        <ele>58.780000000000001</ele>
        <time>2017-10-30T10:10:06Z</time>
      </trkpt>
      <trkpt lat="52.290710974484682" lon="9.104673005640507">
        <ele>59.259999999999998</ele>
        <time>2017-10-30T10:10:07Z</time>
      </trkpt>
      <trkpt lat="52.289969008415937" lon="9.106349973008037">
        <ele>60.219999999999999</ele>
        <time>2017-10-30T10:10:15Z</time>
      </trkpt>
      <trkpt lat="52.289444971829653" lon="9.107393017038703">
        <ele>62.140000000000001</ele>
        <time>2017-10-30T10:10:19Z</time>
      </trkpt>
      <trkpt lat="52.289283033460379" lon="9.107585968449712">
        <ele>62.140000000000001</ele>
        <time>2017-10-30T10:10:20Z</time>
      </trkpt>
      <trkpt lat="52.289120005443692" lon="9.107779003679752">
        <ele>62.619999999999997</ele>
        <time>2017-10-30T10:10:21Z</time>
      </trkpt>
      <trkpt lat="52.288926970213652" lon="9.10788101144135">
        <ele>63.100000000000001</ele>
        <time>2017-10-30T10:10:22Z</time>
      </trkpt>
      <trkpt lat="52.288727983832359" lon="9.107975978404284">
        <ele>63.100000000000001</ele>
        <time>2017-10-30T10:10:23Z</time>
      </trkpt>
      <trkpt lat="52.288524974137545" lon="9.108055019751191">
        <ele>63.579999999999998</ele>
        <time>2017-10-30T10:10:24Z</time>
      </trkpt>
      <trkpt lat="52.288317019119859" lon="9.108113022521138">
        <ele>63.579999999999998</ele>
        <time>2017-10-30T10:10:25Z</time>
      </trkpt>
      <trkpt lat="52.287496011704206" lon="9.108338998630643">
        <ele>64.549999999999997</ele>
        <time>2017-10-30T10:10:29Z</time>
      </trkpt>
      <trkpt lat="52.287107007578015" lon="9.108461039140821">
        <ele>65.030000000000001</ele>
        <time>2017-10-30T10:10:31Z</time>
      </trkpt>
      <trkpt lat="52.286941967904568" lon="9.108604034408927">
        <ele>65.989999999999995</ele>
        <time>2017-10-30T10:10:32Z</time>
      </trkpt>
      <trkpt lat="52.286786986514926" lon="9.108749041333795">
        <ele>66.469999999999999</ele>
        <time>2017-10-30T10:10:33Z</time>
      </trkpt>
      <trkpt lat="52.286647008731961" lon="9.108929000794888">
        <ele>66.469999999999999</ele>
        <time>2017-10-30T10:10:34Z</time>
      </trkpt>
      <trkpt lat="52.286507030948997" lon="9.109111977741122">
        <ele>66.950000000000003</ele>
        <time>2017-10-30T10:10:35Z</time>
      </trkpt>
      <trkpt lat="52.286390019580722" lon="9.109347006306052">
        <ele>66.950000000000003</ele>
        <time>2017-10-30T10:10:36Z</time>
      </trkpt>
      <trkpt lat="52.286283988505602" lon="9.109597960487008">
        <ele>67.430000000000007</ele>
        <time>2017-10-30T10:10:37Z</time>
      </trkpt>
      <trkpt lat="52.286195978522301" lon="9.109874982386828">
        <ele>67.909999999999997</ele>
        <time>2017-10-30T10:10:38Z</time>
      </trkpt>
      <trkpt lat="52.286137975752354" lon="9.110173964872956">
        <ele>67.909999999999997</ele>
        <time>2017-10-30T10:10:39Z</time>
      </trkpt>
      <trkpt lat="52.286096988245845" lon="9.110466996207833">
        <ele>67.909999999999997</ele>
        <time>2017-10-30T10:10:40Z</time>
      </trkpt>
      <trkpt lat="52.285864977166057" lon="9.112061988562346">
        <ele>69.829999999999998</ele>
        <time>2017-10-30T10:10:47Z</time>
      </trkpt>
      <trkpt lat="52.285780990496278" lon="9.112430037930608">
        <ele>70.310000000000002</ele>
        <time>2017-10-30T10:10:49Z</time>
      </trkpt>
      <trkpt lat="52.285150000825524" lon="9.11441202275455">
        <ele>73.680000000000007</ele>
        <time>2017-10-30T10:11:00Z</time>
      </trkpt>
      <trkpt lat="52.284659994766116" lon="9.116633981466293">
        <ele>73.680000000000007</ele>
        <time>2017-10-30T10:11:12Z</time>
      </trkpt>
      <trkpt lat="52.28406798094511" lon="9.118785029277206">
        <ele>78.480000000000004</ele>
        <time>2017-10-30T10:11:24Z</time>
      </trkpt>
      <trkpt lat="52.283331966027617" lon="9.120811019092798">
        <ele>82.810000000000002</ele>
        <time>2017-10-30T10:11:36Z</time>
      </trkpt>
      <trkpt lat="52.283191988244653" lon="9.121132967993617">
        <ele>82.810000000000002</ele>
        <time>2017-10-30T10:11:38Z</time>
      </trkpt>
      <trkpt lat="52.28310196660459" lon="9.121279986575246">
        <ele>83.290000000000006</ele>
        <time>2017-10-30T10:11:39Z</time>
      </trkpt>
      <trkpt lat="52.282997025176883" lon="9.121362967416644">
        <ele>83.290000000000006</ele>
        <time>2017-10-30T10:11:40Z</time>
      </trkpt>
      <trkpt lat="52.282894011586905" lon="9.121444020420313">
        <ele>83.290000000000006</ele>
        <time>2017-10-30T10:11:41Z</time>
      </trkpt>
      <trkpt lat="52.282784963026643" lon="9.121510991826654">
        <ele>83.769999999999996</ele>
        <time>2017-10-30T10:11:42Z</time>
      </trkpt>
      <trkpt lat="52.28267197497189" lon="9.121564971283078">
        <ele>83.769999999999996</ele>
        <time>2017-10-30T10:11:43Z</time>
      </trkpt>
      <trkpt lat="52.282557981088758" lon="9.121618028730154">
        <ele>84.25</ele>
        <time>2017-10-30T10:11:44Z</time>
      </trkpt>
      <trkpt lat="52.282442981377244" lon="9.121678965166211">
        <ele>84.730000000000004</ele>
        <time>2017-10-30T10:11:45Z</time>
      </trkpt>
      <trkpt lat="52.281814003363252" lon="9.122050032019615">
        <ele>86.659999999999997</ele>
        <time>2017-10-30T10:11:51Z</time>
      </trkpt>
      <trkpt lat="52.281725993379951" lon="9.122082972899079">
        <ele>87.140000000000001</ele>
        <time>2017-10-30T10:11:52Z</time>
      </trkpt>
      <trkpt lat="52.281649969518185" lon="9.122109962627292">
        <ele>87.140000000000001</ele>
        <time>2017-10-30T10:11:53Z</time>
      </trkpt>
      <trkpt lat="52.281436985358596" lon="9.122168971225619">
        <ele>87.620000000000005</ele>
        <time>2017-10-30T10:11:59Z</time>
      </trkpt>
      <trkpt lat="52.281371019780636" lon="9.122187998145819">
        <ele>87.620000000000005</ele>
        <time>2017-10-30T10:12:11Z</time>
      </trkpt>
      <trkpt lat="52.28127496317029" lon="9.122213982045651">
        <ele>87.620000000000005</ele>
        <time>2017-10-30T10:12:12Z</time>
      </trkpt>
      <trkpt lat="52.281205980107188" lon="9.12233904004097">
        <ele>87.620000000000005</ele>
        <time>2017-10-30T10:12:13Z</time>
      </trkpt>
      <trkpt lat="52.281233975663781" lon="9.122446998953819">
        <ele>87.620000000000005</ele>
        <time>2017-10-30T10:12:14Z</time>
      </trkpt>
      <trkpt lat="52.281269012019038" lon="9.122583037242293">
        <ele>87.620000000000005</ele>
        <time>2017-10-30T10:12:15Z</time>
      </trkpt>
      <trkpt lat="52.281309999525547" lon="9.122738018631935">
        <ele>87.620000000000005</ele>
        <time>2017-10-30T10:12:16Z</time>
      </trkpt>
      <trkpt lat="52.281354004517198" lon="9.122906997799873">
        <ele>88.099999999999994</ele>
        <time>2017-10-30T10:12:17Z</time>
      </trkpt>
      <trkpt lat="52.281841998919845" lon="9.12476702593267">
        <ele>90.980000000000004</ele>
        <time>2017-10-30T10:12:26Z</time>
      </trkpt>
      <trkpt lat="52.282146010547876" lon="9.125873018056154">
        <ele>93.390000000000001</ele>
        <time>2017-10-30T10:12:32Z</time>
      </trkpt>
      <trkpt lat="52.282195966690779" lon="9.126046020537615">
        <ele>94.349999999999994</ele>
        <time>2017-10-30T10:12:33Z</time>
      </trkpt>
      <trkpt lat="52.282828968018293" lon="9.128395970910788">
        <ele>99.150000000000006</ele>
        <time>2017-10-30T10:12:46Z</time>
      </trkpt>
      <trkpt lat="52.283592978492379" lon="9.131309017539024">
        <ele>99.629999999999995</ele>
        <time>2017-10-30T10:13:02Z</time>
      </trkpt>
      <trkpt lat="52.284273002296686" lon="9.133833982050419">
        <ele>100.11</ele>
        <time>2017-10-30T10:13:16Z</time>
      </trkpt>
      <trkpt lat="52.284917989745736" lon="9.136320976540446">
        <ele>103</ele>
        <time>2017-10-30T10:13:28Z</time>
      </trkpt>
      <trkpt lat="52.285522995516658" lon="9.13867000490427">
        <ele>103.48</ele>
        <time>2017-10-30T10:13:38Z</time>
      </trkpt>
      <trkpt lat="52.286204025149345" lon="9.141562012955546">
        <ele>107.31999999999999</ele>
        <time>2017-10-30T10:13:51Z</time>
      </trkpt>
      <trkpt lat="52.286700988188386" lon="9.143603006377816">
        <ele>108.29000000000001</ele>
        <time>2017-10-30T10:14:00Z</time>
      </trkpt>
      <trkpt lat="52.287634983658791" lon="9.147396991029382">
        <ele>115.01000000000001</ele>
        <time>2017-10-30T10:14:15Z</time>
      </trkpt>
      <trkpt lat="52.288551041856408" lon="9.151132972911">
        <ele>118.38</ele>
        <time>2017-10-30T10:14:30Z</time>
      </trkpt>
      <trkpt lat="52.289214972406626" lon="9.153863964602351">
        <ele>125.11</ele>
        <time>2017-10-30T10:14:42Z</time>
      </trkpt>
      <trkpt lat="52.289879992604256" lon="9.156535025686026">
        <ele>122.70999999999999</ele>
        <time>2017-10-30T10:14:54Z</time>
      </trkpt>
      <trkpt lat="52.290388019755483" lon="9.158536037430167">
        <ele>118.38</ele>
        <time>2017-10-30T10:15:05Z</time>
      </trkpt>
      <trkpt lat="52.290965029969811" lon="9.160520033910871">
        <ele>115.98</ele>
        <time>2017-10-30T10:15:16Z</time>
      </trkpt>
      <trkpt lat="52.291836999356747" lon="9.162873001769185">
        <ele>112.61</ele>
        <time>2017-10-30T10:15:30Z</time>
      </trkpt>
      <trkpt lat="52.292645014822483" lon="9.165084986016154">
        <ele>111.17</ele>
        <time>2017-10-30T10:15:43Z</time>
      </trkpt>
      <trkpt lat="52.293009962886572" lon="9.166931016370654">
        <ele>107.81</ele>
        <time>2017-10-30T10:15:53Z</time>
      </trkpt>
      <trkpt lat="52.293109958991408" lon="9.167438037693501">
        <ele>107.81</ele>
        <time>2017-10-30T10:15:59Z</time>
      </trkpt>
      <trkpt lat="52.293126974254847" lon="9.167551025748253">
        <ele>107.31999999999999</ele>
        <time>2017-10-30T10:16:12Z</time>
      </trkpt>
      <trkpt lat="52.293138960376382" lon="9.167665019631386">
        <ele>107.31999999999999</ele>
        <time>2017-10-30T10:16:13Z</time>
      </trkpt>
      <trkpt lat="52.293177014216781" lon="9.167794017121196">
        <ele>107.31999999999999</ele>
        <time>2017-10-30T10:16:14Z</time>
      </trkpt>
      <trkpt lat="52.293225964531302" lon="9.167946986854076">
        <ele>106.84</ele>
        <time>2017-10-30T10:16:15Z</time>
      </trkpt>
      <trkpt lat="52.293282961472869" lon="9.168124012649059">
        <ele>106.84</ele>
        <time>2017-10-30T10:16:16Z</time>
      </trkpt>
      <trkpt lat="52.293354040011764" lon="9.168317969888449">
        <ele>106.84</ele>
        <time>2017-10-30T10:16:17Z</time>
      </trkpt>
      <trkpt lat="52.294108998030424" lon="9.169641975313425">
        <ele>103.95999999999999</ele>
        <time>2017-10-30T10:16:25Z</time>
      </trkpt>
      <trkpt lat="52.294902009889483" lon="9.170992970466614">
        <ele>100.59999999999999</ele>
        <time>2017-10-30T10:16:36Z</time>
      </trkpt>
      <trkpt lat="52.294971998780966" lon="9.17111299932003">
        <ele>98.670000000000002</ele>
        <time>2017-10-30T10:16:44Z</time>
      </trkpt>
      <trkpt lat="52.295020027086139" lon="9.171192962676287">
        <ele>98.670000000000002</ele>
        <time>2017-10-30T10:16:45Z</time>
      </trkpt>
      <trkpt lat="52.295522019267082" lon="9.172108015045524">
        <ele>97.709999999999994</ele>
        <time>2017-10-30T10:16:51Z</time>
      </trkpt>
      <trkpt lat="52.296702023595572" lon="9.174232995137572">
        <ele>98.189999999999998</ele>
        <time>2017-10-30T10:17:01Z</time>
      </trkpt>
      <trkpt lat="52.298000967130065" lon="9.176839012652636">
        <ele>98.670000000000002</ele>
        <time>2017-10-30T10:17:10Z</time>
      </trkpt>
      <trkpt lat="52.299552960321307" lon="9.180439962074161">
        <ele>94.829999999999998</ele>
        <time>2017-10-30T10:17:21Z</time>
      </trkpt>
      <trkpt lat="52.300345972180367" lon="9.182024979963899">
        <ele>90.980000000000004</ele>
        <time>2017-10-30T10:17:28Z</time>
      </trkpt>
      <trkpt lat="52.30097402818501" lon="9.18286501429975">
        <ele>88.099999999999994</ele>
        <time>2017-10-30T10:17:35Z</time>
      </trkpt>
      <trkpt lat="52.302184961736202" lon="9.184456989169121">
        <ele>87.620000000000005</ele>
        <time>2017-10-30T10:17:48Z</time>
      </trkpt>
      <trkpt lat="52.304001990705729" lon="9.186789002269507">
        <ele>89.540000000000006</ele>
        <time>2017-10-30T10:18:07Z</time>
      </trkpt>
      <trkpt lat="52.305731009691954" lon="9.188947007060051">
        <ele>90.019999999999996</ele>
        <time>2017-10-30T10:18:25Z</time>
      </trkpt>
      <trkpt lat="52.307144030928612" lon="9.190811980515719">
        <ele>91.939999999999998</ele>
        <time>2017-10-30T10:18:40Z</time>
      </trkpt>
      <trkpt lat="52.308132005855441" lon="9.191943034529686">
        <ele>90.5</ele>
        <time>2017-10-30T10:18:50Z</time>
      </trkpt>
      <trkpt lat="52.308336021378636" lon="9.192114025354385">
        <ele>89.540000000000006</ele>
        <time>2017-10-30T10:18:52Z</time>
      </trkpt>
      <trkpt lat="52.308444986119866" lon="9.192169010639191">
        <ele>89.540000000000006</ele>
        <time>2017-10-30T10:18:53Z</time>
      </trkpt>
      <trkpt lat="52.308770958334208" lon="9.192286022007465">
        <ele>90.019999999999996</ele>
        <time>2017-10-30T10:18:57Z</time>
      </trkpt>
      <trkpt lat="52.308814041316509" lon="9.192294990643859">
        <ele>90.019999999999996</ele>
        <time>2017-10-30T10:18:58Z</time>
      </trkpt>
      <trkpt lat="52.308876989409328" lon="9.192308988422155">
        <ele>89.060000000000002</ele>
        <time>2017-10-30T10:19:03Z</time>
      </trkpt>
      <trkpt lat="52.30896701104939" lon="9.192546028643847">
        <ele>89.060000000000002</ele>
        <time>2017-10-30T10:19:05Z</time>
      </trkpt>
      <trkpt lat="52.308999029919505" lon="9.192680977284908">
        <ele>89.060000000000002</ele>
        <time>2017-10-30T10:19:06Z</time>
      </trkpt>
      <trkpt lat="52.309027025476098" lon="9.192766975611448">
        <ele>89.060000000000002</ele>
        <time>2017-10-30T10:19:07Z</time>
      </trkpt>
      <trkpt lat="52.309391973540187" lon="9.193659983575344">
        <ele>90.5</ele>
        <time>2017-10-30T10:19:14Z</time>
      </trkpt>
      <trkpt lat="52.310324963182211" lon="9.19493998400867">
        <ele>91.459999999999994</ele>
        <time>2017-10-30T10:19:25Z</time>
      </trkpt>
      <trkpt lat="52.31128603219986" lon="9.196174973621965">
        <ele>90.5</ele>
        <time>2017-10-30T10:19:36Z</time>
      </trkpt>
      <trkpt lat="52.312607020139694" lon="9.197848001495004">
        <ele>91.459999999999994</ele>
        <time>2017-10-30T10:19:52Z</time>
      </trkpt>
      <trkpt lat="52.313613016158342" lon="9.19910897500813">
        <ele>91.939999999999998</ele>
        <time>2017-10-30T10:20:05Z</time>
      </trkpt>
      <trkpt lat="52.313919039443135" lon="9.199483981356025">
        <ele>90.5</ele>
        <time>2017-10-30T10:20:13Z</time>
      </trkpt>
      <trkpt lat="52.314076032489538" lon="9.199680034071207">
        <ele>89.540000000000006</ele>
        <time>2017-10-30T10:20:32Z</time>
      </trkpt>
      <trkpt lat="52.314889999106526" lon="9.200741015374661">
        <ele>88.579999999999998</ele>
        <time>2017-10-30T10:20:41Z</time>
      </trkpt>
      <trkpt lat="52.315941005945206" lon="9.202005006372929">
        <ele>87.140000000000001</ele>
        <time>2017-10-30T10:20:52Z</time>
      </trkpt>
      <trkpt lat="52.31685496866703" lon="9.202841017395258">
        <ele>85.689999999999998</ele>
        <time>2017-10-30T10:21:01Z</time>
      </trkpt>
      <trkpt lat="52.317873034626245" lon="9.203553982079029">
        <ele>85.209999999999994</ele>
        <time>2017-10-30T10:21:11Z</time>
      </trkpt>
      <trkpt lat="52.318841982632875" lon="9.20417700894177">
        <ele>83.290000000000006</ele>
        <time>2017-10-30T10:21:21Z</time>
      </trkpt>
      <trkpt lat="52.318925969302654" lon="9.204213973134756">
        <ele>83.290000000000006</ele>
        <time>2017-10-30T10:21:22Z</time>
      </trkpt>
      <trkpt lat="52.319010961800814" lon="9.204251021146774">
        <ele>82.810000000000002</ele>
        <time>2017-10-30T10:21:23Z</time>
      </trkpt>
      <trkpt lat="52.319806991145015" lon="9.204589985311031">
        <ele>81.370000000000005</ele>
        <time>2017-10-30T10:21:34Z</time>
      </trkpt>
      <trkpt lat="52.320088958367705" lon="9.20471697114408">
        <ele>79.930000000000007</ele>
        <time>2017-10-30T10:21:43Z</time>
      </trkpt>
      <trkpt lat="52.320091975852847" lon="9.204718982800841">
        <ele>79.450000000000003</ele>
        <time>2017-10-30T10:21:44Z</time>
      </trkpt>
      <trkpt lat="52.320108991116285" lon="9.204853009432554">
        <ele>79.450000000000003</ele>
        <time>2017-10-30T10:21:45Z</time>
      </trkpt>
      <trkpt lat="52.320114020258188" lon="9.204890979453921">
        <ele>79.450000000000003</ele>
        <time>2017-10-30T10:21:46Z</time>
      </trkpt>
      <trkpt lat="52.320207981392741" lon="9.205102035775781">
        <ele>79.450000000000003</ele>
        <time>2017-10-30T10:21:47Z</time>
      </trkpt>
      <trkpt lat="52.320191971957684" lon="9.205260034650564">
        <ele>79.450000000000003</ele>
        <time>2017-10-30T10:21:48Z</time>
      </trkpt>
      <trkpt lat="52.320174034684896" lon="9.205408981069922">
        <ele>79.450000000000003</ele>
        <time>2017-10-30T10:21:49Z</time>
      </trkpt>
      <trkpt lat="52.320122988894582" lon="9.205825980752707">
        <ele>78.969999999999999</ele>
        <time>2017-10-30T10:21:53Z</time>
      </trkpt>
      <trkpt lat="52.320088036358356" lon="9.206101996824145">
        <ele>78</ele>
        <time>2017-10-30T10:21:57Z</time>
      </trkpt>
      <trkpt lat="52.320072026923299" lon="9.206230994313955">
        <ele>77.519999999999996</ele>
        <time>2017-10-30T10:21:59Z</time>
      </trkpt>
      <trkpt lat="52.320063980296254" lon="9.206298971548677">
        <ele>77.519999999999996</ele>
        <time>2017-10-30T10:22:00Z</time>
      </trkpt>
      <trkpt lat="52.320012012496591" lon="9.206660985946655">
        <ele>76.079999999999998</ele>
        <time>2017-10-30T10:22:06Z</time>
      </trkpt>
      <trkpt lat="52.319850996136665" lon="9.207754991948605">
        <ele>73.200000000000003</ele>
        <time>2017-10-30T10:22:14Z</time>
      </trkpt>
      <trkpt lat="52.319654021412134" lon="9.209263985976577">
        <ele>73.680000000000007</ele>
        <time>2017-10-30T10:22:25Z</time>
      </trkpt>
      <trkpt lat="52.3194520175457" lon="9.210827965289354">
        <ele>71.760000000000005</ele>
        <time>2017-10-30T10:22:34Z</time>
      </trkpt>
      <trkpt lat="52.319347998127341" lon="9.211517041549087">
        <ele>72.239999999999995</ele>
        <time>2017-10-30T10:22:38Z</time>
      </trkpt>
      <trkpt lat="52.319322014227509" lon="9.211688032373786">
        <ele>72.719999999999999</ele>
        <time>2017-10-30T10:22:39Z</time>
      </trkpt>
      <trkpt lat="52.319100983440876" lon="9.21380496583879">
        <ele>76.560000000000002</ele>
        <time>2017-10-30T10:22:52Z</time>
      </trkpt>
      <trkpt lat="52.319062007591128" lon="9.214628990739584">
        <ele>76.560000000000002</ele>
        <time>2017-10-30T10:22:58Z</time>
      </trkpt>
      <trkpt lat="52.319062007591128" lon="9.214717000722885">
        <ele>77.040000000000006</ele>
        <time>2017-10-30T10:22:59Z</time>
      </trkpt>
      <trkpt lat="52.318997969850898" lon="9.214893020689488">
        <ele>77.040000000000006</ele>
        <time>2017-10-30T10:23:01Z</time>
      </trkpt>
      <trkpt lat="52.318997969850898" lon="9.214980024844408">
        <ele>77.040000000000006</ele>
        <time>2017-10-30T10:23:02Z</time>
      </trkpt>
      <trkpt lat="52.319040969014168" lon="9.215054037049413">
        <ele>77.040000000000006</ele>
        <time>2017-10-30T10:23:03Z</time>
      </trkpt>
      <trkpt lat="52.319062007591128" lon="9.215083038434386">
        <ele>77.519999999999996</ele>
        <time>2017-10-30T10:23:04Z</time>
      </trkpt>
      <trkpt lat="52.319152029231191" lon="9.214954040944576">
        <ele>78</ele>
        <time>2017-10-30T10:23:05Z</time>
      </trkpt>
      <trkpt lat="52.319221012294292" lon="9.214948005974293">
        <ele>78</ele>
        <time>2017-10-30T10:23:06Z</time>
      </trkpt>
      <trkpt lat="52.31930298730731" lon="9.214940965175629">
        <ele>78.480000000000004</ele>
        <time>2017-10-30T10:23:07Z</time>
      </trkpt>
      <trkpt lat="52.319398960098624" lon="9.214933002367616">
        <ele>78.480000000000004</ele>
        <time>2017-10-30T10:23:08Z</time>
      </trkpt>
      <trkpt lat="52.319715963676572" lon="9.214906012639403">
        <ele>78.480000000000004</ele>
        <time>2017-10-30T10:23:11Z</time>
      </trkpt>
      <trkpt lat="52.319830041378736" lon="9.214896038174629">
        <ele>78.480000000000004</ele>
        <time>2017-10-30T10:23:12Z</time>
      </trkpt>
      <trkpt lat="52.320840982720256" lon="9.215036015957594">
        <ele>77.040000000000006</ele>
        <time>2017-10-30T10:23:20Z</time>
      </trkpt>
      <trkpt lat="52.32239599339664" lon="9.215246988460422">
        <ele>78.969999999999999</ele>
        <time>2017-10-30T10:23:33Z</time>
      </trkpt>
      <trkpt lat="52.32383600436151" lon="9.215445974841714">
        <ele>80.890000000000001</ele>
        <time>2017-10-30T10:23:45Z</time>
      </trkpt>
      <trkpt lat="52.325400989502668" lon="9.215656025335193">
        <ele>79.450000000000003</ele>
        <time>2017-10-30T10:23:58Z</time>
      </trkpt>
      <trkpt lat="52.326978966593742" lon="9.215876972302795">
        <ele>78.480000000000004</ele>
        <time>2017-10-30T10:24:11Z</time>
      </trkpt>
      <trkpt lat="52.327476013451815" lon="9.215922988951206">
        <ele>78.480000000000004</ele>
        <time>2017-10-30T10:24:18Z</time>
      </trkpt>
      <trkpt lat="52.327500991523266" lon="9.215926006436348">
        <ele>78.969999999999999</ele>
        <time>2017-10-30T10:24:25Z</time>
      </trkpt>
      <trkpt lat="52.32759403064847" lon="9.215934975072742">
        <ele>78</ele>
        <time>2017-10-30T10:24:53Z</time>
      </trkpt>
      <trkpt lat="52.327676005661488" lon="9.216040000319481">
        <ele>78</ele>
        <time>2017-10-30T10:24:54Z</time>
      </trkpt>
      <trkpt lat="52.327686985954642" lon="9.216164974495769">
        <ele>78</ele>
        <time>2017-10-30T10:24:55Z</time>
      </trkpt>
      <trkpt lat="52.327700983732939" lon="9.216314004734159">
        <ele>78</ele>
        <time>2017-10-30T10:24:56Z</time>
      </trkpt>
      <trkpt lat="52.327714981511235" lon="9.216474015265703">
        <ele>77.519999999999996</ele>
        <time>2017-10-30T10:24:57Z</time>
      </trkpt>
      <trkpt lat="52.327910028398037" lon="9.218048974871635">
        <ele>74.640000000000001</ele>
        <time>2017-10-30T10:25:06Z</time>
      </trkpt>
      <trkpt lat="52.328028967604041" lon="9.218974001705647">
        <ele>74.159999999999997</ele>
        <time>2017-10-30T10:25:15Z</time>
      </trkpt>
      <trkpt lat="52.328037014231086" lon="9.219039967283607">
        <ele>74.159999999999997</ele>
        <time>2017-10-30T10:25:22Z</time>
      </trkpt>
      <trkpt lat="52.328037014231086" lon="9.219039967283607">
        <ele>74.159999999999997</ele>
        <time>2017-10-30T10:25:57Z</time>
      </trkpt>
      <trkpt lat="52.328113038092852" lon="9.219655031338334">
        <ele>75.120000000000005</ele>
        <time>2017-10-30T10:26:02Z</time>
      </trkpt>
      <trkpt lat="52.328339014202356" lon="9.221551017835736">
        <ele>75.120000000000005</ele>
        <time>2017-10-30T10:26:12Z</time>
      </trkpt>
      <trkpt lat="52.328643025830388" lon="9.224086962640286">
        <ele>78.480000000000004</ele>
        <time>2017-10-30T10:26:25Z</time>
      </trkpt>
      <trkpt lat="52.328946031630039" lon="9.226590972393751">
        <ele>78.480000000000004</ele>
        <time>2017-10-30T10:26:38Z</time>
      </trkpt>
      <trkpt lat="52.329231016337872" lon="9.228919968008995">
        <ele>78</ele>
        <time>2017-10-30T10:26:50Z</time>
      </trkpt>
      <trkpt lat="52.329323971644044" lon="9.22968003898859">
        <ele>79.450000000000003</ele>
        <time>2017-10-30T10:26:56Z</time>
      </trkpt>
      <trkpt lat="52.329355990514159" lon="9.229945996776223">
        <ele>80.890000000000001</ele>
        <time>2017-10-30T10:27:05Z</time>
      </trkpt>
      <trkpt lat="52.329393960535526" lon="9.230311028659344">
        <ele>80.409999999999997</ele>
        <time>2017-10-30T10:27:24Z</time>
      </trkpt>
      <trkpt lat="52.329557994380593" lon="9.231685996055603">
        <ele>81.849999999999994</ele>
        <time>2017-10-30T10:27:31Z</time>
      </trkpt>
      <trkpt lat="52.329972982406616" lon="9.235231960192323">
        <ele>78.969999999999999</ele>
        <time>2017-10-30T10:27:46Z</time>
      </trkpt>
      <trkpt lat="52.330010030418634" lon="9.235477969050407">
        <ele>78.480000000000004</ele>
        <time>2017-10-30T10:27:47Z</time>
      </trkpt>
      <trkpt lat="52.330315969884396" lon="9.238106030970812">
        <ele>74.159999999999997</ele>
        <time>2017-10-30T10:27:58Z</time>
      </trkpt>
      <trkpt lat="52.330745961517096" lon="9.241870008409023">
        <ele>71.269999999999996</ele>
        <time>2017-10-30T10:28:13Z</time>
      </trkpt>
      <trkpt lat="52.330898009240627" lon="9.243137016892433">
        <ele>71.269999999999996</ele>
        <time>2017-10-30T10:28:20Z</time>
      </trkpt>
      <trkpt lat="52.330955006182194" lon="9.243616964668036">
        <ele>72.239999999999995</ele>
        <time>2017-10-30T10:28:28Z</time>
      </trkpt>
      <trkpt lat="52.330955006182194" lon="9.243616964668036">
        <ele>72.719999999999999</ele>
        <time>2017-10-30T10:28:30Z</time>
      </trkpt>
      <trkpt lat="52.331008985638618" lon="9.244078975170851">
        <ele>73.680000000000007</ele>
        <time>2017-10-30T10:28:43Z</time>
      </trkpt>
      <trkpt lat="52.331078974530101" lon="9.244697978720069">
        <ele>74.159999999999997</ele>
        <time>2017-10-30T10:28:48Z</time>
      </trkpt>
      <trkpt lat="52.331235967576504" lon="9.246092978864908">
        <ele>73.200000000000003</ele>
        <time>2017-10-30T10:28:56Z</time>
      </trkpt>
      <trkpt lat="52.331361025571823" lon="9.247186984866858">
        <ele>72.719999999999999</ele>
        <time>2017-10-30T10:29:03Z</time>
      </trkpt>
      <trkpt lat="52.331407964229584" lon="9.247580012306571">
        <ele>72.239999999999995</ele>
        <time>2017-10-30T10:29:09Z</time>
      </trkpt>
      <trkpt lat="52.331527993083" lon="9.248518031090498">
        <ele>70.790000000000006</ele>
        <time>2017-10-30T10:29:17Z</time>
      </trkpt>
      <trkpt lat="52.331732008606195" lon="9.249975979328156">
        <ele>70.790000000000006</ele>
        <time>2017-10-30T10:29:24Z</time>
      </trkpt>
      <trkpt lat="52.33215001411736" lon="9.252522988244891">
        <ele>72.239999999999995</ele>
        <time>2017-10-30T10:29:33Z</time>
      </trkpt>
      <trkpt lat="52.332834983244538" lon="9.256627019494772">
        <ele>72.239999999999995</ele>
        <time>2017-10-30T10:29:45Z</time>
      </trkpt>
      <trkpt lat="52.333874003961682" lon="9.262652015313506">
        <ele>72.719999999999999</ele>
        <time>2017-10-30T10:30:01Z</time>
      </trkpt>
      <trkpt lat="52.334325034171343" lon="9.265275970101357">
        <ele>73.200000000000003</ele>
        <time>2017-10-30T10:30:09Z</time>
      </trkpt>
      <trkpt lat="52.334889974445105" lon="9.26854801364243">
        <ele>75.120000000000005</ele>
        <time>2017-10-30T10:30:21Z</time>
      </trkpt>
      <trkpt lat="52.335194991901517" lon="9.270312990993261">
        <ele>76.079999999999998</ele>
        <time>2017-10-30T10:30:30Z</time>
      </trkpt>
      <trkpt lat="52.335482994094491" lon="9.272043015807867">
        <ele>77.040000000000006</ele>
        <time>2017-10-30T10:30:39Z</time>
      </trkpt>
      <trkpt lat="52.335900999605656" lon="9.274680968374014">
        <ele>78.969999999999999</ele>
        <time>2017-10-30T10:30:52Z</time>
      </trkpt>
      <trkpt lat="52.336249016225338" lon="9.276820030063391">
        <ele>80.890000000000001</ele>
        <time>2017-10-30T10:31:01Z</time>
      </trkpt>
      <trkpt lat="52.33685402199626" lon="9.280231967568398">
        <ele>82.810000000000002</ele>
        <time>2017-10-30T10:31:13Z</time>
      </trkpt>
      <trkpt lat="52.337193991988897" lon="9.282396007329226">
        <ele>85.209999999999994</ele>
        <time>2017-10-30T10:31:21Z</time>
      </trkpt>
      <trkpt lat="52.337214024737477" lon="9.284187974408269">
        <ele>87.140000000000001</ele>
        <time>2017-10-30T10:31:30Z</time>
      </trkpt>
      <trkpt lat="52.337216036394238" lon="9.284304985776544">
        <ele>87.140000000000001</ele>
        <time>2017-10-30T10:31:37Z</time>
      </trkpt>
      <trkpt lat="52.337214024737477" lon="9.284700024873018">
        <ele>87.620000000000005</ele>
        <time>2017-10-30T10:32:06Z</time>
      </trkpt>
      <trkpt lat="52.337173037230968" lon="9.285977007821202">
        <ele>88.579999999999998</ele>
        <time>2017-10-30T10:32:12Z</time>
      </trkpt>
      <trkpt lat="52.337111011147499" lon="9.288337016478181">
        <ele>89.060000000000002</ele>
        <time>2017-10-30T10:32:20Z</time>
      </trkpt>
      <trkpt lat="52.337035993114114" lon="9.290949990972877">
        <ele>90.5</ele>
        <time>2017-10-30T10:32:27Z</time>
      </trkpt>
      <trkpt lat="52.336956029757857" lon="9.294444993138313">
        <ele>91.939999999999998</ele>
        <time>2017-10-30T10:32:37Z</time>
      </trkpt>
      <trkpt lat="52.336872965097427" lon="9.296727972105146">
        <ele>90.980000000000004</ele>
        <time>2017-10-30T10:32:46Z</time>
      </trkpt>
      <trkpt lat="52.337073041126132" lon="9.298348026350141">
        <ele>92.420000000000002</ele>
        <time>2017-10-30T10:32:54Z</time>
      </trkpt>
      <trkpt lat="52.337620966136456" lon="9.299777979031205">
        <ele>93.390000000000001</ele>
        <time>2017-10-30T10:33:00Z</time>
      </trkpt>
      <trkpt lat="52.338459994643927" lon="9.301836993545294">
        <ele>91.939999999999998</ele>
        <time>2017-10-30T10:33:07Z</time>
      </trkpt>
      <trkpt lat="52.339043039828539" lon="9.304348966106772">
        <ele>92.420000000000002</ele>
        <time>2017-10-30T10:33:13Z</time>
      </trkpt>
      <trkpt lat="52.339531034231186" lon="9.307453958317637">
        <ele>91.459999999999994</ele>
        <time>2017-10-30T10:33:20Z</time>
      </trkpt>
      <trkpt lat="52.339572021737695" lon="9.309098990634084">
        <ele>90.5</ele>
        <time>2017-10-30T10:33:25Z</time>
      </trkpt>
      <trkpt lat="52.339558023959398" lon="9.309965008869767">
        <ele>88.579999999999998</ele>
        <time>2017-10-30T10:33:31Z</time>
      </trkpt>
      <trkpt lat="52.339554000645876" lon="9.310161983594298">
        <ele>88.579999999999998</ele>
        <time>2017-10-30T10:33:39Z</time>
      </trkpt>
      <trkpt lat="52.339548971503973" lon="9.310541013255715">
        <ele>89.060000000000002</ele>
        <time>2017-10-30T10:33:58Z</time>
      </trkpt>
      <trkpt lat="52.339535979554057" lon="9.311405019834638">
        <ele>87.620000000000005</ele>
        <time>2017-10-30T10:34:04Z</time>
      </trkpt>
      <trkpt lat="52.339512007310987" lon="9.312227033078671">
        <ele>85.209999999999994</ele>
        <time>2017-10-30T10:34:10Z</time>
      </trkpt>
      <trkpt lat="52.339512007310987" lon="9.312309008091688">
        <ele>84.730000000000004</ele>
        <time>2017-10-30T10:34:11Z</time>
      </trkpt>
      <trkpt lat="52.339512007310987" lon="9.312386959791184">
        <ele>84.730000000000004</ele>
        <time>2017-10-30T10:34:12Z</time>
      </trkpt>
      <trkpt lat="52.339512007310987" lon="9.312462983652949">
        <ele>84.25</ele>
        <time>2017-10-30T10:34:13Z</time>
      </trkpt>
      <trkpt lat="52.339512007310987" lon="9.312534984201193">
        <ele>84.25</ele>
        <time>2017-10-30T10:34:14Z</time>
      </trkpt>
      <trkpt lat="52.339512007310987" lon="9.312599021941423">
        <ele>83.769999999999996</ele>
        <time>2017-10-30T10:34:15Z</time>
      </trkpt>
      <trkpt lat="52.339512007310987" lon="9.312650989741087">
        <ele>83.290000000000006</ele>
        <time>2017-10-30T10:34:16Z</time>
      </trkpt>
      <trkpt lat="52.339512007310987" lon="9.312650989741087">
        <ele>83.290000000000006</ele>
        <time>2017-10-30T10:34:17Z</time>
      </trkpt>
      <trkpt lat="52.339512007310987" lon="9.312650989741087">
        <ele>83.290000000000006</ele>
        <time>2017-10-30T10:34:32Z</time>
      </trkpt>
      <trkpt lat="52.339503960683942" lon="9.313099002465606">
        <ele>83.769999999999996</ele>
        <time>2017-10-30T10:34:49Z</time>
      </trkpt>
      <trkpt lat="52.339431960135698" lon="9.31446198374033">
        <ele>83.769999999999996</ele>
        <time>2017-10-30T10:34:56Z</time>
      </trkpt>
      <trkpt lat="52.339244037866592" lon="9.317075964063406">
        <ele>86.659999999999997</ele>
        <time>2017-10-30T10:35:06Z</time>
      </trkpt>
      <trkpt lat="52.339187040925026" lon="9.31732096709311">
        <ele>87.140000000000001</ele>
        <time>2017-10-30T10:35:07Z</time>
      </trkpt>
      <trkpt lat="52.339116968214512" lon="9.317568987607956">
        <ele>87.620000000000005</ele>
        <time>2017-10-30T10:35:08Z</time>
      </trkpt>
      <trkpt lat="52.338314987719059" lon="9.320118008181453">
        <ele>91.459999999999994</ele>
        <time>2017-10-30T10:35:18Z</time>
      </trkpt>
      <trkpt lat="52.33750001527369" lon="9.323504967615008">
        <ele>93.390000000000001</ele>
        <time>2017-10-30T10:35:30Z</time>
      </trkpt>
      <trkpt lat="52.336894003674388" lon="9.326018029823899">
        <ele>93.870000000000005</ele>
        <time>2017-10-30T10:35:38Z</time>
      </trkpt>
      <trkpt lat="52.336226971819997" lon="9.328634021803737">
        <ele>91.459999999999994</ele>
        <time>2017-10-30T10:35:45Z</time>
      </trkpt>
      <trkpt lat="52.335515012964606" lon="9.330558003857732">
        <ele>87.140000000000001</ele>
        <time>2017-10-30T10:35:51Z</time>
      </trkpt>
      <trkpt lat="52.334400974214077" lon="9.332303032279015">
        <ele>81.849999999999994</ele>
        <time>2017-10-30T10:35:59Z</time>
      </trkpt>
      <trkpt lat="52.33311602845788" lon="9.333443976938725">
        <ele>77.040000000000006</ele>
        <time>2017-10-30T10:36:06Z</time>
      </trkpt>
      <trkpt lat="52.332212962210178" lon="9.334337990731001">
        <ele>74.640000000000001</ele>
        <time>2017-10-30T10:36:10Z</time>
      </trkpt>
      <trkpt lat="52.331128008663654" lon="9.33605301193893">
        <ele>72.239999999999995</ele>
        <time>2017-10-30T10:36:17Z</time>
      </trkpt>
      <trkpt lat="52.330557033419609" lon="9.337513977661729">
        <ele>70.790000000000006</ele>
        <time>2017-10-30T10:36:24Z</time>
      </trkpt>
      <trkpt lat="52.329965019598603" lon="9.339555976912379">
        <ele>69.829999999999998</ele>
        <time>2017-10-30T10:36:33Z</time>
      </trkpt>
      <trkpt lat="52.329226993024349" lon="9.342300966382027">
        <ele>67.909999999999997</ele>
        <time>2017-10-30T10:36:42Z</time>
      </trkpt>
      <trkpt lat="52.328237006440759" lon="9.345868974924088">
        <ele>67.909999999999997</ele>
        <time>2017-10-30T10:36:54Z</time>
      </trkpt>
      <trkpt lat="52.327250959351659" lon="9.349500015377998">
        <ele>67.430000000000007</ele>
        <time>2017-10-30T10:37:06Z</time>
      </trkpt>
      <trkpt lat="52.326885005459189" lon="9.351791040971875">
        <ele>65.989999999999995</ele>
        <time>2017-10-30T10:37:14Z</time>
      </trkpt>
      <trkpt lat="52.326771011576056" lon="9.35463996604085">
        <ele>65.989999999999995</ele>
        <time>2017-10-30T10:37:24Z</time>
      </trkpt>
      <trkpt lat="52.326809987425804" lon="9.357554018497467">
        <ele>65.030000000000001</ele>
        <time>2017-10-30T10:37:35Z</time>
      </trkpt>
      <trkpt lat="52.326828008517623" lon="9.359235009178519">
        <ele>66.950000000000003</ele>
        <time>2017-10-30T10:37:44Z</time>
      </trkpt>
      <trkpt lat="52.326851980760694" lon="9.361208025366068">
        <ele>67.909999999999997</ele>
        <time>2017-10-30T10:37:55Z</time>
      </trkpt>
      <trkpt lat="52.326851980760694" lon="9.361627036705613">
        <ele>68.870000000000005</ele>
        <time>2017-10-30T10:37:57Z</time>
      </trkpt>
      <trkpt lat="52.326851980760694" lon="9.361845972016454">
        <ele>68.870000000000005</ele>
        <time>2017-10-30T10:37:58Z</time>
      </trkpt>
      <trkpt lat="52.326851980760694" lon="9.364000959321857">
        <ele>69.349999999999994</ele>
        <time>2017-10-30T10:38:08Z</time>
      </trkpt>
      <trkpt lat="52.326864972710609" lon="9.365566028282046">
        <ele>70.790000000000006</ele>
        <time>2017-10-30T10:38:18Z</time>
      </trkpt>
      <trkpt lat="52.326873019337654" lon="9.366210009902716">
        <ele>71.760000000000005</ele>
        <time>2017-10-30T10:38:25Z</time>
      </trkpt>
      <trkpt lat="52.326873019337654" lon="9.366210009902716">
        <ele>72.719999999999999</ele>
        <time>2017-10-30T10:38:45Z</time>
      </trkpt>
      <trkpt lat="52.326873019337654" lon="9.366516033187509">
        <ele>73.680000000000007</ele>
        <time>2017-10-30T10:39:14Z</time>
      </trkpt>
      <trkpt lat="52.326873019337654" lon="9.366836976259947">
        <ele>74.159999999999997</ele>
        <time>2017-10-30T10:39:17Z</time>
      </trkpt>
      <trkpt lat="52.326873019337654" lon="9.368219990283251">
        <ele>74.159999999999997</ele>
        <time>2017-10-30T10:39:26Z</time>
      </trkpt>
      <trkpt lat="52.326945019885898" lon="9.37090203166008">
        <ele>75.599999999999994</ele>
        <time>2017-10-30T10:39:38Z</time>
      </trkpt>
      <trkpt lat="52.327206032350659" lon="9.373677028343082">
        <ele>79.450000000000003</ele>
        <time>2017-10-30T10:39:49Z</time>
      </trkpt>
      <trkpt lat="52.327538039535284" lon="9.37582103535533">
        <ele>83.290000000000006</ele>
        <time>2017-10-30T10:39:56Z</time>
      </trkpt>
      <trkpt lat="52.327832998707891" lon="9.377879966050386">
        <ele>85.689999999999998</ele>
        <time>2017-10-30T10:40:02Z</time>
      </trkpt>
      <trkpt lat="52.328522996976972" lon="9.382433015853167">
        <ele>90.980000000000004</ele>
        <time>2017-10-30T10:40:18Z</time>
      </trkpt>
      <trkpt lat="52.329226993024349" lon="9.38703996129334">
        <ele>99.150000000000006</ele>
        <time>2017-10-30T10:40:34Z</time>
      </trkpt>
      <trkpt lat="52.329843984916806" lon="9.390829000622034">
        <ele>104.44</ele>
        <time>2017-10-30T10:40:47Z</time>
      </trkpt>
      <trkpt lat="52.330587962642312" lon="9.393751015886664">
        <ele>102.52</ele>
        <time>2017-10-30T10:40:58Z</time>
      </trkpt>
      <trkpt lat="52.331248037517071" lon="9.39587096683681">
        <ele>97.230000000000004</ele>
        <time>2017-10-30T10:41:08Z</time>
      </trkpt>
      <trkpt lat="52.331843990832567" lon="9.397784974426031">
        <ele>94.349999999999994</ele>
        <time>2017-10-30T10:41:18Z</time>
      </trkpt>
      <trkpt lat="52.332040965557098" lon="9.398417975753546">
        <ele>93.390000000000001</ele>
        <time>2017-10-30T10:41:25Z</time>
      </trkpt>
      <trkpt lat="52.332054963335395" lon="9.398462986573577">
        <ele>93.390000000000001</ele>
        <time>2017-10-30T10:41:26Z</time>
      </trkpt>
      <trkpt lat="52.332069966942072" lon="9.39851202070713">
        <ele>93.390000000000001</ele>
        <time>2017-10-30T10:41:27Z</time>
      </trkpt>
      <trkpt lat="52.332164011895657" lon="9.398875962942839">
        <ele>91.939999999999998</ele>
        <time>2017-10-30T10:41:36Z</time>
      </trkpt>
      <trkpt lat="52.332224026322365" lon="9.39904703758657">
        <ele>90.980000000000004</ele>
        <time>2017-10-30T10:41:46Z</time>
      </trkpt>
      <trkpt lat="52.332378001883626" lon="9.399493038654327">
        <ele>90.980000000000004</ele>
        <time>2017-10-30T10:41:54Z</time>
      </trkpt>
      <trkpt lat="52.332733981311321" lon="9.400635994970799">
        <ele>91.459999999999994</ele>
        <time>2017-10-30T10:42:03Z</time>
      </trkpt>
      <trkpt lat="52.333192974328995" lon="9.402052033692598">
        <ele>90.980000000000004</ele>
        <time>2017-10-30T10:42:10Z</time>
      </trkpt>
      <trkpt lat="52.333814995363355" lon="9.404147006571293">
        <ele>89.060000000000002</ele>
        <time>2017-10-30T10:42:21Z</time>
      </trkpt>
      <trkpt lat="52.334151025861502" lon="9.406212978065014">
        <ele>87.620000000000005</ele>
        <time>2017-10-30T10:42:29Z</time>
      </trkpt>
      <trkpt lat="52.334190001711249" lon="9.4082669634372">
        <ele>85.209999999999994</ele>
        <time>2017-10-30T10:42:37Z</time>
      </trkpt>
      <trkpt lat="52.334168963134289" lon="9.408524036407471">
        <ele>85.209999999999994</ele>
        <time>2017-10-30T10:42:38Z</time>
      </trkpt>
      <trkpt lat="52.334150020033121" lon="9.408743977546692">
        <ele>85.209999999999994</ele>
        <time>2017-10-30T10:42:39Z</time>
      </trkpt>
      <trkpt lat="52.334038959816098" lon="9.409642014652491">
        <ele>83.769999999999996</ele>
        <time>2017-10-30T10:42:45Z</time>
      </trkpt>
      <trkpt lat="52.334020016714931" lon="9.409760031849146">
        <ele>83.290000000000006</ele>
        <time>2017-10-30T10:42:51Z</time>
      </trkpt>
      <trkpt lat="52.334020016714931" lon="9.409760031849146">
        <ele>83.769999999999996</ele>
        <time>2017-10-30T10:43:33Z</time>
      </trkpt>
      <trkpt lat="52.333963019773364" lon="9.410092039033771">
        <ele>83.290000000000006</ele>
        <time>2017-10-30T10:43:43Z</time>
      </trkpt>
      <trkpt lat="52.333667976781726" lon="9.411347983404994">
        <ele>82.329999999999998</ele>
        <time>2017-10-30T10:43:50Z</time>
      </trkpt>
      <trkpt lat="52.333277966827154" lon="9.412548020482063">
        <ele>82.329999999999998</ele>
        <time>2017-10-30T10:43:57Z</time>
      </trkpt>
      <trkpt lat="52.333233961835504" lon="9.412664026021957">
        <ele>82.329999999999998</ele>
        <time>2017-10-30T10:43:58Z</time>
      </trkpt>
      <trkpt lat="52.333029024302959" lon="9.412751030176878">
        <ele>82.329999999999998</ele>
        <time>2017-10-30T10:43:59Z</time>
      </trkpt>
      <trkpt lat="52.332931039854884" lon="9.41271398216486">
        <ele>82.810000000000002</ele>
        <time>2017-10-30T10:44:00Z</time>
      </trkpt>
      <trkpt lat="52.332812016829848" lon="9.412677017971873">
        <ele>82.810000000000002</ele>
        <time>2017-10-30T10:44:01Z</time>
      </trkpt>
      <trkpt lat="52.331666965037584" lon="9.412523964419961">
        <ele>86.659999999999997</ele>
        <time>2017-10-30T10:44:10Z</time>
      </trkpt>
      <trkpt lat="52.330745039507747" lon="9.412522036582232">
        <ele>88.099999999999994</ele>
        <time>2017-10-30T10:44:18Z</time>
      </trkpt>
      <trkpt lat="52.330648982897401" lon="9.412551037967205">
        <ele>88.099999999999994</ele>
        <time>2017-10-30T10:44:19Z</time>
      </trkpt>
      <trkpt lat="52.330548986792564" lon="9.412580039352179">
        <ele>87.620000000000005</ele>
        <time>2017-10-30T10:44:20Z</time>
      </trkpt>
      <trkpt lat="52.330139027908444" lon="9.412839040160179">
        <ele>86.180000000000007</ele>
        <time>2017-10-30T10:44:24Z</time>
      </trkpt>
      <trkpt lat="52.329038986936212" lon="9.41408802755177">
        <ele>88.099999999999994</ele>
        <time>2017-10-30T10:44:35Z</time>
      </trkpt>
      <trkpt lat="52.327906005084515" lon="9.415123024955392">
        <ele>97.709999999999994</ele>
        <time>2017-10-30T10:44:45Z</time>
      </trkpt>
      <trkpt lat="52.32639298774302" lon="9.416434960439801">
        <ele>109.25</ele>
        <time>2017-10-30T10:44:57Z</time>
      </trkpt>
      <trkpt lat="52.325666025280952" lon="9.417940014973283">
        <ele>112.13</ele>
        <time>2017-10-30T10:45:04Z</time>
      </trkpt>
      <trkpt lat="52.324518039822578" lon="9.420199021697044">
        <ele>115.01000000000001</ele>
        <time>2017-10-30T10:45:14Z</time>
      </trkpt>
      <trkpt lat="52.323235021904111" lon="9.42261996679008">
        <ele>113.56999999999999</ele>
        <time>2017-10-30T10:45:22Z</time>
      </trkpt>
      <trkpt lat="52.321981005370617" lon="9.424976035952568">
        <ele>108.77</ele>
        <time>2017-10-30T10:45:29Z</time>
      </trkpt>
      <trkpt lat="52.321178019046783" lon="9.42648502998054">
        <ele>111.17</ele>
        <time>2017-10-30T10:45:35Z</time>
      </trkpt>
      <trkpt lat="52.320481985807419" lon="9.427720019593835">
        <ele>109.25</ele>
        <time>2017-10-30T10:45:42Z</time>
      </trkpt>
      <trkpt lat="52.320403028279543" lon="9.427867038175464">
        <ele>108.29000000000001</ele>
        <time>2017-10-30T10:45:43Z</time>
      </trkpt>
      <trkpt lat="52.320328010246158" lon="9.428008021786809">
        <ele>107.81</ele>
        <time>2017-10-30T10:45:44Z</time>
      </trkpt>
      <trkpt lat="52.320281993597746" lon="9.428174989297986">
        <ele>107.31999999999999</ele>
        <time>2017-10-30T10:45:45Z</time>
      </trkpt>
      <trkpt lat="52.320232959464192" lon="9.428351009264588">
        <ele>106.84</ele>
        <time>2017-10-30T10:45:46Z</time>
      </trkpt>
      <trkpt lat="52.32020596973598" lon="9.428543038666248">
        <ele>106.84</ele>
        <time>2017-10-30T10:45:47Z</time>
      </trkpt>
      <trkpt lat="52.320186020806432" lon="9.428744036704302">
        <ele>106.36</ele>
        <time>2017-10-30T10:45:48Z</time>
      </trkpt>
      <trkpt lat="52.320167999714613" lon="9.428944028913975">
        <ele>106.36</ele>
        <time>2017-10-30T10:45:49Z</time>
      </trkpt>
      <trkpt lat="52.320117959752679" lon="9.429529001936317">
        <ele>105.88</ele>
        <time>2017-10-30T10:45:52Z</time>
      </trkpt>
      <trkpt lat="52.320085018873215" lon="9.429708039388061">
        <ele>105.88</ele>
        <time>2017-10-30T10:45:53Z</time>
      </trkpt>
      <trkpt lat="52.320046965032816" lon="9.429882969707251">
        <ele>105.88</ele>
        <time>2017-10-30T10:45:54Z</time>
      </trkpt>
      <trkpt lat="52.320013018324971" lon="9.430036023259163">
        <ele>105.88</ele>
        <time>2017-10-30T10:45:55Z</time>
      </trkpt>
      <trkpt lat="52.319961972534657" lon="9.430144988000393">
        <ele>106.36</ele>
        <time>2017-10-30T10:45:56Z</time>
      </trkpt>
      <trkpt lat="52.319917967543006" lon="9.430220006033778">
        <ele>106.36</ele>
        <time>2017-10-30T10:45:57Z</time>
      </trkpt>
      <trkpt lat="52.3198820091784" lon="9.430281026288867">
        <ele>106.84</ele>
        <time>2017-10-30T10:45:58Z</time>
      </trkpt>
      <trkpt lat="52.319625020027161" lon="9.430721998214722">
        <ele>107.31999999999999</ele>
        <time>2017-10-30T10:46:08Z</time>
      </trkpt>
      <trkpt lat="52.319598030298948" lon="9.430767009034753">
        <ele>107.31999999999999</ele>
        <time>2017-10-30T10:46:09Z</time>
      </trkpt>
      <trkpt lat="52.319571040570736" lon="9.430813025683165">
        <ele>107.31999999999999</ele>
        <time>2017-10-30T10:46:10Z</time>
      </trkpt>
      <trkpt lat="52.319556036964059" lon="9.430840015411377">
        <ele>107.31999999999999</ele>
        <time>2017-10-30T10:46:11Z</time>
      </trkpt>
      <trkpt lat="52.319527035579085" lon="9.430887959897518">
        <ele>107.31999999999999</ele>
        <time>2017-10-30T10:46:12Z</time>
      </trkpt>
      <trkpt lat="52.319502979516983" lon="9.430927019566298">
        <ele>107.31999999999999</ele>
        <time>2017-10-30T10:46:13Z</time>
      </trkpt>
      <trkpt lat="52.319485964253545" lon="9.430957026779652">
        <ele>107.31999999999999</ele>
        <time>2017-10-30T10:46:14Z</time>
      </trkpt>
      <trkpt lat="52.319470960646868" lon="9.430980999022722">
        <ele>107.81</ele>
        <time>2017-10-30T10:46:15Z</time>
      </trkpt>
      <trkpt lat="52.319459980353713" lon="9.431001031771302">
        <ele>107.31999999999999</ele>
        <time>2017-10-30T10:46:16Z</time>
      </trkpt>
      <trkpt lat="52.319459980353713" lon="9.431001031771302">
        <ele>107.31999999999999</ele>
        <time>2017-10-30T10:46:31Z</time>
      </trkpt>
      <trkpt lat="52.319427039474249" lon="9.431055011227727">
        <ele>107.31999999999999</ele>
        <time>2017-10-30T10:47:19Z</time>
      </trkpt>
      <trkpt lat="52.31906502507627" lon="9.431635960936546">
        <ele>105.88</ele>
        <time>2017-10-30T10:47:27Z</time>
      </trkpt>
      <trkpt lat="52.318388018757105" lon="9.432789981365204">
        <ele>106.36</ele>
        <time>2017-10-30T10:47:36Z</time>
      </trkpt>
      <trkpt lat="52.318177968263626" lon="9.433213016018271">
        <ele>106.36</ele>
        <time>2017-10-30T10:47:39Z</time>
      </trkpt>
      <trkpt lat="52.31811803765595" lon="9.433372020721436">
        <ele>105.88</ele>
        <time>2017-10-30T10:47:40Z</time>
      </trkpt>
      <trkpt lat="52.317807991057634" lon="9.43428497761488">
        <ele>106.36</ele>
        <time>2017-10-30T10:47:46Z</time>
      </trkpt>
      <trkpt lat="52.317753005772829" lon="9.434448005631566">
        <ele>105.88</ele>
        <time>2017-10-30T10:47:47Z</time>
      </trkpt>
      <trkpt lat="52.317672036588192" lon="9.434596030041575">
        <ele>105.88</ele>
        <time>2017-10-30T10:47:48Z</time>
      </trkpt>
      <trkpt lat="52.317576985806227" lon="9.434732990339398">
        <ele>105.88</ele>
        <time>2017-10-30T10:47:49Z</time>
      </trkpt>
      <trkpt lat="52.317463997751474" lon="9.434845978394151">
        <ele>106.36</ele>
        <time>2017-10-30T10:47:50Z</time>
      </trkpt>
      <trkpt lat="52.317345980554819" lon="9.434937005862594">
        <ele>106.36</ele>
        <time>2017-10-30T10:47:51Z</time>
      </trkpt>
      <trkpt lat="52.317224023863673" lon="9.435029961168766">
        <ele>106.84</ele>
        <time>2017-10-30T10:47:52Z</time>
      </trkpt>
      <trkpt lat="52.31698103249073" lon="9.435216961428523">
        <ele>107.31999999999999</ele>
        <time>2017-10-30T10:47:54Z</time>
      </trkpt>
      <trkpt lat="52.31644400395453" lon="9.435806963592768">
        <ele>105.88</ele>
        <time>2017-10-30T10:48:01Z</time>
      </trkpt>
      <trkpt lat="52.316324980929494" lon="9.435946019366384">
        <ele>105.88</ele>
        <time>2017-10-30T10:48:03Z</time>
      </trkpt>
      <trkpt lat="52.316244011744857" lon="9.436042997986078">
        <ele>105.88</ele>
        <time>2017-10-30T10:48:04Z</time>
      </trkpt>
      <trkpt lat="52.315512020140886" lon="9.437036002054811">
        <ele>105.88</ele>
        <time>2017-10-30T10:48:11Z</time>
      </trkpt>
      <trkpt lat="52.314462019130588" lon="9.438477018848062">
        <ele>104.92</ele>
        <time>2017-10-30T10:48:21Z</time>
      </trkpt>
      <trkpt lat="52.313447976484895" lon="9.439912000671029">
        <ele>103.95999999999999</ele>
        <time>2017-10-30T10:48:30Z</time>
      </trkpt>
      <trkpt lat="52.312736017629504" lon="9.440632006153464">
        <ele>105.88</ele>
        <time>2017-10-30T10:48:34Z</time>
      </trkpt>
      <trkpt lat="52.311405977234244" lon="9.441377995535731">
        <ele>113.56999999999999</ele>
        <time>2017-10-30T10:48:41Z</time>
      </trkpt>
      <trkpt lat="52.310868026688695" lon="9.441823996603489">
        <ele>115.98</ele>
        <time>2017-10-30T10:48:44Z</time>
      </trkpt>
      <trkpt lat="52.31070801615715" lon="9.442021977156401">
        <ele>116.45999999999999</ele>
        <time>2017-10-30T10:48:45Z</time>
      </trkpt>
      <trkpt lat="52.310554962605238" lon="9.442242002114654">
        <ele>117.42</ele>
        <time>2017-10-30T10:48:46Z</time>
      </trkpt>
      <trkpt lat="52.309467997401953" lon="9.444241002202034">
        <ele>118.38</ele>
        <time>2017-10-30T10:48:54Z</time>
      </trkpt>
      <trkpt lat="52.309385016560555" lon="9.444550964981318">
        <ele>117.42</ele>
        <time>2017-10-30T10:48:55Z</time>
      </trkpt>
      <trkpt lat="52.308582030236721" lon="9.447564007714391">
        <ele>114.05</ele>
        <time>2017-10-30T10:49:05Z</time>
      </trkpt>
      <trkpt lat="52.30819595977664" lon="9.448967976495624">
        <ele>112.61</ele>
        <time>2017-10-30T10:49:12Z</time>
      </trkpt>
      <trkpt lat="52.307475032284856" lon="9.451693017035723">
        <ele>110.69</ele>
        <time>2017-10-30T10:49:27Z</time>
      </trkpt>
      <trkpt lat="52.306788973510265" lon="9.454257041215897">
        <ele>107.31999999999999</ele>
        <time>2017-10-30T10:49:41Z</time>
      </trkpt>
      <trkpt lat="52.306214980781078" lon="9.456386966630817">
        <ele>104.44</ele>
        <time>2017-10-30T10:49:53Z</time>
      </trkpt>
      <trkpt lat="52.305866964161396" lon="9.457694962620735">
        <ele>104.92</ele>
        <time>2017-10-30T10:50:01Z</time>
      </trkpt>
      <trkpt lat="52.305799992755055" lon="9.457946000620723">
        <ele>104.92</ele>
        <time>2017-10-30T10:50:07Z</time>
      </trkpt>
      <trkpt lat="52.305799992755055" lon="9.457946000620723">
        <ele>104.92</ele>
        <time>2017-10-30T10:50:42Z</time>
      </trkpt>
      <trkpt lat="52.30572497472167" lon="9.458229979500175">
        <ele>106.36</ele>
        <time>2017-10-30T10:50:54Z</time>
      </trkpt>
      <trkpt lat="52.305413000285625" lon="9.459437979385257">
        <ele>106.36</ele>
        <time>2017-10-30T10:51:03Z</time>
      </trkpt>
      <trkpt lat="52.305361032485962" lon="9.459710977971554">
        <ele>106.36</ele>
        <time>2017-10-30T10:51:05Z</time>
      </trkpt>
      <trkpt lat="52.305347034707665" lon="9.45985103957355">
        <ele>106.36</ele>
        <time>2017-10-30T10:51:06Z</time>
      </trkpt>
      <trkpt lat="52.305252989754081" lon="9.461316028609872">
        <ele>105.88</ele>
        <time>2017-10-30T10:51:14Z</time>
      </trkpt>
      <trkpt lat="52.304873960092664" lon="9.462944967672229">
        <ele>105.40000000000001</ele>
        <time>2017-10-30T10:51:24Z</time>
      </trkpt>
      <trkpt lat="52.304848982021213" lon="9.463041024282575">
        <ele>105.40000000000001</ele>
        <time>2017-10-30T10:51:25Z</time>
      </trkpt>
      <trkpt lat="52.304796008393168" lon="9.46324503980577">
        <ele>105.88</ele>
        <time>2017-10-30T10:51:32Z</time>
      </trkpt>
      <trkpt lat="52.304725013673306" lon="9.463518038392067">
        <ele>107.81</ele>
        <time>2017-10-30T10:51:51Z</time>
      </trkpt>
      <trkpt lat="52.304701041430235" lon="9.463610993698239">
        <ele>108.29000000000001</ele>
        <time>2017-10-30T10:51:58Z</time>
      </trkpt>
      <trkpt lat="52.30467296205461" lon="9.46371803060174">
        <ele>107.81</ele>
        <time>2017-10-30T10:52:00Z</time>
      </trkpt>
      <trkpt lat="52.304652007296681" lon="9.463796988129616">
        <ele>107.81</ele>
        <time>2017-10-30T10:52:01Z</time>
      </trkpt>
      <trkpt lat="52.304600961506367" lon="9.463993962854147">
        <ele>107.31999999999999</ele>
        <time>2017-10-30T10:52:03Z</time>
      </trkpt>
      <trkpt lat="52.304427959024906" lon="9.464614978060126">
        <ele>106.36</ele>
        <time>2017-10-30T10:52:11Z</time>
      </trkpt>
      <trkpt lat="52.304381020367146" lon="9.464781023561955">
        <ele>105.40000000000001</ele>
        <time>2017-10-30T10:52:20Z</time>
      </trkpt>
      <trkpt lat="52.304275995120406" lon="9.465145971626043">
        <ele>105.88</ele>
        <time>2017-10-30T10:52:32Z</time>
      </trkpt>
      <trkpt lat="52.303914986550808" lon="9.466437958180904">
        <ele>104.44</ele>
        <time>2017-10-30T10:52:42Z</time>
      </trkpt>
      <trkpt lat="52.303784983232617" lon="9.466906003654003">
        <ele>103.95999999999999</ele>
        <time>2017-10-30T10:52:45Z</time>
      </trkpt>
      <trkpt lat="52.303737038746476" lon="9.46706903167069">
        <ele>103.48</ele>
        <time>2017-10-30T10:52:46Z</time>
      </trkpt>
      <trkpt lat="52.303684987127781" lon="9.467248991131783">
        <ele>103</ele>
        <time>2017-10-30T10:52:47Z</time>
      </trkpt>
      <trkpt lat="52.303632013499737" lon="9.467431968078017">
        <ele>103</ele>
        <time>2017-10-30T10:52:48Z</time>
      </trkpt>
      <trkpt lat="52.303580967709422" lon="9.467605976387858">
        <ele>102.52</ele>
        <time>2017-10-30T10:52:49Z</time>
      </trkpt>
      <trkpt lat="52.303530005738139" lon="9.46778099052608">
        <ele>102.04000000000001</ele>
        <time>2017-10-30T10:52:50Z</time>
      </trkpt>
      <trkpt lat="52.303440989926457" lon="9.46793002076447">
        <ele>101.56</ele>
        <time>2017-10-30T10:52:51Z</time>
      </trkpt>
      <trkpt lat="52.303352979943156" lon="9.468072010204196">
        <ele>101.08</ele>
        <time>2017-10-30T10:52:52Z</time>
      </trkpt>
      <trkpt lat="52.303192969411612" lon="9.468330005183816">
        <ele>100.59999999999999</ele>
        <time>2017-10-30T10:52:54Z</time>
      </trkpt>
      <trkpt lat="52.302630040794611" lon="9.468955965712667">
        <ele>101.08</ele>
        <time>2017-10-30T10:53:02Z</time>
      </trkpt>
      <trkpt lat="52.302453014999628" lon="9.469128968194127">
        <ele>102.04000000000001</ele>
        <time>2017-10-30T10:53:09Z</time>
      </trkpt>
      <trkpt lat="52.302374979481101" lon="9.469204992055893">
        <ele>101.56</ele>
        <time>2017-10-30T10:53:27Z</time>
      </trkpt>
      <trkpt lat="52.302057975903153" lon="9.469497017562389">
        <ele>102.04000000000001</ele>
        <time>2017-10-30T10:53:36Z</time>
      </trkpt>
      <trkpt lat="52.301368983462453" lon="9.470378961414099">
        <ele>99.629999999999995</ele>
        <time>2017-10-30T10:53:46Z</time>
      </trkpt>
      <trkpt lat="52.300432976335287" lon="9.471831964328885">
        <ele>97.709999999999994</ele>
        <time>2017-10-30T10:53:58Z</time>
      </trkpt>
      <trkpt lat="52.299404013901949" lon="9.473433997482061">
        <ele>98.189999999999998</ele>
        <time>2017-10-30T10:54:10Z</time>
      </trkpt>
      <trkpt lat="52.298437999561429" lon="9.474923964589834">
        <ele>99.150000000000006</ele>
        <time>2017-10-30T10:54:21Z</time>
      </trkpt>
      <trkpt lat="52.297099996358156" lon="9.476949032396078">
        <ele>97.709999999999994</ele>
        <time>2017-10-30T10:54:36Z</time>
      </trkpt>
      <trkpt lat="52.29577699676156" lon="9.478978961706162">
        <ele>101.56</ele>
        <time>2017-10-30T10:54:51Z</time>
      </trkpt>
      <trkpt lat="52.294629011303186" lon="9.480721978470683">
        <ele>103.95999999999999</ele>
        <time>2017-10-30T10:55:04Z</time>
      </trkpt>
      <trkpt lat="52.293397961184382" lon="9.482597010210156">
        <ele>107.81</ele>
        <time>2017-10-30T10:55:18Z</time>
      </trkpt>
      <trkpt lat="52.292207982391119" lon="9.484585030004382">
        <ele>110.69</ele>
        <time>2017-10-30T10:55:32Z</time>
      </trkpt>
      <trkpt lat="52.291754018515348" lon="9.486199971288443">
        <ele>107.31999999999999</ele>
        <time>2017-10-30T10:55:41Z</time>
      </trkpt>
      <trkpt lat="52.291439026594162" lon="9.487676024436951">
        <ele>107.81</ele>
        <time>2017-10-30T10:55:49Z</time>
      </trkpt>
      <trkpt lat="52.291184971109033" lon="9.489203039556742">
        <ele>108.29000000000001</ele>
        <time>2017-10-30T10:55:57Z</time>
      </trkpt>
      <trkpt lat="52.291010962799191" lon="9.490378014743328">
        <ele>107.81</ele>
        <time>2017-10-30T10:56:04Z</time>
      </trkpt>
      <trkpt lat="52.290853969752789" lon="9.491443019360304">
        <ele>107.81</ele>
        <time>2017-10-30T10:56:13Z</time>
      </trkpt>
      <trkpt lat="52.290604021400213" lon="9.492957964539528">
        <ele>105.88</ele>
        <time>2017-10-30T10:56:25Z</time>
      </trkpt>
      <trkpt lat="52.29051299393177" lon="9.493532963097096">
        <ele>104.44</ele>
        <time>2017-10-30T10:56:29Z</time>
      </trkpt>
      <trkpt lat="52.29049002751708" lon="9.493677970021963">
        <ele>104.92</ele>
        <time>2017-10-30T10:56:30Z</time>
      </trkpt>
      <trkpt lat="52.290391959249973" lon="9.494311977177858">
        <ele>104.44</ele>
        <time>2017-10-30T10:56:34Z</time>
      </trkpt>
      <trkpt lat="52.290369998663664" lon="9.494475005194545">
        <ele>103.95999999999999</ele>
        <time>2017-10-30T10:56:35Z</time>
      </trkpt>
      <trkpt lat="52.290100017562509" lon="9.496082989498973">
        <ele>101.56</ele>
        <time>2017-10-30T10:56:45Z</time>
      </trkpt>
      <trkpt lat="52.290020976215601" lon="9.496607026085258">
        <ele>101.56</ele>
        <time>2017-10-30T10:56:49Z</time>
      </trkpt>
      <trkpt lat="52.290006978437304" lon="9.496713979169726">
        <ele>101.56</ele>
        <time>2017-10-30T10:56:50Z</time>
      </trkpt>
      <trkpt lat="52.289941012859344" lon="9.497226029634476">
        <ele>102.52</ele>
        <time>2017-10-30T10:56:58Z</time>
      </trkpt>
      <trkpt lat="52.289888961240649" lon="9.497628025710583">
        <ele>103.48</ele>
        <time>2017-10-30T10:57:05Z</time>
      </trkpt>
      <trkpt lat="52.289874963462353" lon="9.49773296713829">
        <ele>103.48</ele>
        <time>2017-10-30T10:57:06Z</time>
      </trkpt>
      <trkpt lat="52.289719982072711" lon="9.498979020863771">
        <ele>100.59999999999999</ele>
        <time>2017-10-30T10:57:14Z</time>
      </trkpt>
      <trkpt lat="52.289596013724804" lon="9.500000020489097">
        <ele>99.629999999999995</ele>
        <time>2017-10-30T10:57:20Z</time>
      </trkpt>
      <trkpt lat="52.289576986804605" lon="9.500173022970557">
        <ele>100.11</ele>
        <time>2017-10-30T10:57:21Z</time>
      </trkpt>
      <trkpt lat="52.289520995691419" lon="9.50067300349474">
        <ele>100.59999999999999</ele>
        <time>2017-10-30T10:57:24Z</time>
      </trkpt>
      <trkpt lat="52.28950398042798" lon="9.500827984884381">
        <ele>102.04000000000001</ele>
        <time>2017-10-30T10:57:25Z</time>
      </trkpt>
      <trkpt lat="52.289428962394595" lon="9.502545017749071">
        <ele>103.48</ele>
        <time>2017-10-30T10:57:35Z</time>
      </trkpt>
      <trkpt lat="52.289454024285078" lon="9.50329402461648">
        <ele>102.04000000000001</ele>
        <time>2017-10-30T10:57:40Z</time>
      </trkpt>
      <trkpt lat="52.289455030113459" lon="9.503388991579413">
        <ele>102.04000000000001</ele>
        <time>2017-10-30T10:57:41Z</time>
      </trkpt>
      <trkpt lat="52.289461987093091" lon="9.503898024559021">
        <ele>98.670000000000002</ele>
        <time>2017-10-30T10:57:50Z</time>
      </trkpt>
      <trkpt lat="52.289461987093091" lon="9.503898024559021">
        <ele>98.189999999999998</ele>
        <time>2017-10-30T10:58:04Z</time>
      </trkpt>
      <trkpt lat="52.289467016234994" lon="9.504248974844813">
        <ele>96.269999999999996</ele>
        <time>2017-10-30T10:58:13Z</time>
      </trkpt>
      <trkpt lat="52.289471039548516" lon="9.504530020058155">
        <ele>94.829999999999998</ele>
        <time>2017-10-30T10:58:21Z</time>
      </trkpt>
      <trkpt lat="52.289471961557865" lon="9.504619035869837">
        <ele>94.349999999999994</ele>
        <time>2017-10-30T10:58:22Z</time>
      </trkpt>
      <trkpt lat="52.289505992084742" lon="9.506098022684455">
        <ele>94.349999999999994</ele>
        <time>2017-10-30T10:58:34Z</time>
      </trkpt>
      <trkpt lat="52.289526024833322" lon="9.506994970142841">
        <ele>93.870000000000005</ele>
        <time>2017-10-30T10:58:40Z</time>
      </trkpt>
      <trkpt lat="52.289528958499432" lon="9.507142994552851">
        <ele>93.870000000000005</ele>
        <time>2017-10-30T10:58:41Z</time>
      </trkpt>
      <trkpt lat="52.289598025381565" lon="9.507986968383193">
        <ele>93.870000000000005</ele>
        <time>2017-10-30T10:58:46Z</time>
      </trkpt>
      <trkpt lat="52.289620991796255" lon="9.508165000006557">
        <ele>93.870000000000005</ele>
        <time>2017-10-30T10:58:47Z</time>
      </trkpt>
      <trkpt lat="52.289664996787906" lon="9.508330039680004">
        <ele>93.870000000000005</ele>
        <time>2017-10-30T10:58:48Z</time>
      </trkpt>
      <trkpt lat="52.290027011185884" lon="9.509586989879608">
        <ele>91.459999999999994</ele>
        <time>2017-10-30T10:58:57Z</time>
      </trkpt>
      <trkpt lat="52.290129018947482" lon="9.509918997064233">
        <ele>90.980000000000004</ele>
        <time>2017-10-30T10:59:03Z</time>
      </trkpt>
      <trkpt lat="52.290222980082035" lon="9.510257039219141">
        <ele>90.5</ele>
        <time>2017-10-30T10:59:12Z</time>
      </trkpt>
      <trkpt lat="52.290222980082035" lon="9.510359968990088">
        <ele>90.5</ele>
        <time>2017-10-30T10:59:13Z</time>
      </trkpt>
      <trkpt lat="52.290204958990216" lon="9.511120039969683">
        <ele>90.5</ele>
        <time>2017-10-30T10:59:19Z</time>
      </trkpt>
      <trkpt lat="52.290202025324106" lon="9.5112210419029">
        <ele>90.5</ele>
        <time>2017-10-30T10:59:20Z</time>
      </trkpt>
      <trkpt lat="52.290150979533792" lon="9.511290024966002">
        <ele>90.019999999999996</ele>
        <time>2017-10-30T10:59:21Z</time>
      </trkpt>
      <trkpt lat="52.290086019784212" lon="9.511379040777683">
        <ele>89.540000000000006</ele>
        <time>2017-10-30T10:59:22Z</time>
      </trkpt>
      <trkpt lat="52.290026005357504" lon="9.511457998305559">
        <ele>89.060000000000002</ele>
        <time>2017-10-30T10:59:23Z</time>
      </trkpt>
      <trkpt lat="52.28993103839457" lon="9.511486999690533">
        <ele>88.579999999999998</ele>
        <time>2017-10-30T10:59:24Z</time>
      </trkpt>
      <trkpt lat="52.289827018976212" lon="9.511518012732267">
        <ele>88.099999999999994</ele>
        <time>2017-10-30T10:59:25Z</time>
      </trkpt>
      <trkpt lat="52.289304994046688" lon="9.511678023263812">
        <ele>85.209999999999994</ele>
        <time>2017-10-30T10:59:31Z</time>
      </trkpt>
      <trkpt lat="52.289257971569896" lon="9.511693026870489">
        <ele>84.730000000000004</ele>
        <time>2017-10-30T10:59:32Z</time>
      </trkpt>
      <trkpt lat="52.289194017648697" lon="9.511833004653454">
        <ele>84.25</ele>
        <time>2017-10-30T10:59:33Z</time>
      </trkpt>
      <trkpt lat="52.289153030142188" lon="9.511924032121897">
        <ele>83.290000000000006</ele>
        <time>2017-10-30T10:59:34Z</time>
      </trkpt>
      <trkpt lat="52.28915998712182" lon="9.511992009356618">
        <ele>82.810000000000002</ele>
        <time>2017-10-30T10:59:35Z</time>
      </trkpt>
      <trkpt lat="52.2891800198704" lon="9.51212402433157">
        <ele>82.810000000000002</ele>
        <time>2017-10-30T10:59:36Z</time>
      </trkpt>
      <trkpt lat="52.289200974628329" lon="9.512269031256437">
        <ele>82.810000000000002</ele>
        <time>2017-10-30T10:59:37Z</time>
      </trkpt>
      <trkpt lat="52.289227964356542" lon="9.512415966019034">
        <ele>82.329999999999998</ele>
        <time>2017-10-30T10:59:38Z</time>
      </trkpt>
      <trkpt lat="52.289328966289759" lon="9.513095989823341">
        <ele>82.329999999999998</ele>
        <time>2017-10-30T10:59:43Z</time>
      </trkpt>
      <trkpt lat="52.289339024573565" lon="9.5132190361619">
        <ele>82.329999999999998</ele>
        <time>2017-10-30T10:59:44Z</time>
      </trkpt>
      <trkpt lat="52.289332989603281" lon="9.513335963711143">
        <ele>82.329999999999998</ele>
        <time>2017-10-30T10:59:45Z</time>
      </trkpt>
      <trkpt lat="52.289307005703449" lon="9.513464039191604">
        <ele>82.329999999999998</ele>
        <time>2017-10-30T10:59:46Z</time>
      </trkpt>
      <trkpt lat="52.289283033460379" lon="9.513583984225988">
        <ele>82.329999999999998</ele>
        <time>2017-10-30T10:59:47Z</time>
      </trkpt>
      <trkpt lat="52.289242967963219" lon="9.513653973117471">
        <ele>81.370000000000005</ele>
        <time>2017-10-30T10:59:48Z</time>
      </trkpt>
      <trkpt lat="52.289198040962219" lon="9.513717005029321">
        <ele>79.930000000000007</ele>
        <time>2017-10-30T10:59:49Z</time>
      </trkpt>
      <trkpt lat="52.289140960201621" lon="9.513799985870719">
        <ele>78.969999999999999</ele>
        <time>2017-10-30T10:59:50Z</time>
      </trkpt>
      <trkpt lat="52.289071977138519" lon="9.513873998075724">
        <ele>78</ele>
        <time>2017-10-30T10:59:51Z</time>
      </trkpt>
      <trkpt lat="52.288510976359248" lon="9.514485960826278">
        <ele>76.079999999999998</ele>
        <time>2017-10-30T10:59:58Z</time>
      </trkpt>
      <trkpt lat="52.288219034671783" lon="9.514855016022921">
        <ele>76.560000000000002</ele>
        <time>2017-10-30T11:00:02Z</time>
      </trkpt>
      <trkpt lat="52.288139993324876" lon="9.514933973550797">
        <ele>76.560000000000002</ele>
        <time>2017-10-30T11:00:03Z</time>
      </trkpt>
      <trkpt lat="52.288057012483478" lon="9.515006979927421">
        <ele>77.040000000000006</ele>
        <time>2017-10-30T11:00:04Z</time>
      </trkpt>
      <trkpt lat="52.287967996671796" lon="9.515051990747452">
        <ele>77.519999999999996</ele>
        <time>2017-10-30T11:00:05Z</time>
      </trkpt>
      <trkpt lat="52.287873029708862" lon="9.515099013224244">
        <ele>78.480000000000004</ele>
        <time>2017-10-30T11:00:06Z</time>
      </trkpt>
      <trkpt lat="52.287774039432406" lon="9.515148969367147">
        <ele>78.969999999999999</ele>
        <time>2017-10-30T11:00:07Z</time>
      </trkpt>
      <trkpt lat="52.287175990641117" lon="9.515314009040594">
        <ele>82.810000000000002</ele>
        <time>2017-10-30T11:00:13Z</time>
      </trkpt>
      <trkpt lat="52.286195978522301" lon="9.515170007944107">
        <ele>86.180000000000007</ele>
        <time>2017-10-30T11:00:23Z</time>
      </trkpt>
      <trkpt lat="52.285371031612158" lon="9.515038998797536">
        <ele>87.140000000000001</ele>
        <time>2017-10-30T11:00:31Z</time>
      </trkpt>
      <trkpt lat="52.285027960315347" lon="9.514995999634266">
        <ele>88.099999999999994</ele>
        <time>2017-10-30T11:00:34Z</time>
      </trkpt>
      <trkpt lat="52.28490499779582" lon="9.514979990199208">
        <ele>88.579999999999998</ele>
        <time>2017-10-30T11:00:35Z</time>
      </trkpt>
      <trkpt lat="52.283558025956154" lon="9.514799024909735">
        <ele>91.939999999999998</ele>
        <time>2017-10-30T11:00:46Z</time>
      </trkpt>
      <trkpt lat="52.282911026850343" lon="9.514721995219588">
        <ele>93.390000000000001</ele>
        <time>2017-10-30T11:00:51Z</time>
      </trkpt>
      <trkpt lat="52.28191802278161" lon="9.514612024649978">
        <ele>96.75</ele>
        <time>2017-10-30T11:00:59Z</time>
      </trkpt>
      <trkpt lat="52.281660027801991" lon="9.514653012156487">
        <ele>97.709999999999994</ele>
        <time>2017-10-30T11:01:01Z</time>
      </trkpt>
      <trkpt lat="52.280385978519917" lon="9.515144024044275">
        <ele>99.629999999999995</ele>
        <time>2017-10-30T11:01:12Z</time>
      </trkpt>
      <trkpt lat="52.279437985271215" lon="9.515509977936745">
        <ele>101.08</ele>
        <time>2017-10-30T11:01:22Z</time>
      </trkpt>
      <trkpt lat="52.279201028868556" lon="9.515602011233568">
        <ele>102.04000000000001</ele>
        <time>2017-10-30T11:01:25Z</time>
      </trkpt>
      <trkpt lat="52.279105978086591" lon="9.515637969598174">
        <ele>102.52</ele>
        <time>2017-10-30T11:01:26Z</time>
      </trkpt>
      <trkpt lat="52.278751004487276" lon="9.515698989853263">
        <ele>103</ele>
        <time>2017-10-30T11:01:30Z</time>
      </trkpt>
      <trkpt lat="52.278696019202471" lon="9.515706030651927">
        <ele>103</ele>
        <time>2017-10-30T11:01:31Z</time>
      </trkpt>
      <trkpt lat="52.27865201421082" lon="9.515710975974798">
        <ele>103.48</ele>
        <time>2017-10-30T11:01:32Z</time>
      </trkpt>
      <trkpt lat="52.278611026704311" lon="9.515716005116701">
        <ele>103.48</ele>
        <time>2017-10-30T11:01:33Z</time>
      </trkpt>
      <trkpt lat="52.278571967035532" lon="9.515721034258604">
        <ele>103.48</ele>
        <time>2017-10-30T11:01:34Z</time>
      </trkpt>
      <trkpt lat="52.278538020327687" lon="9.515724973753095">
        <ele>103.95999999999999</ele>
        <time>2017-10-30T11:01:35Z</time>
      </trkpt>
      <trkpt lat="52.278528967872262" lon="9.515726985409856">
        <ele>103.95999999999999</ele>
        <time>2017-10-30T11:01:42Z</time>
      </trkpt>
      <trkpt lat="52.278528967872262" lon="9.515726985409856">
        <ele>103.95999999999999</ele>
        <time>2017-10-30T11:02:13Z</time>
      </trkpt>
      <trkpt lat="52.278319001197815" lon="9.515726985409856">
        <ele>104.92</ele>
        <time>2017-10-30T11:02:32Z</time>
      </trkpt>
      <trkpt lat="52.277402020990849" lon="9.515705024823546">
        <ele>103</ele>
        <time>2017-10-30T11:02:39Z</time>
      </trkpt>
      <trkpt lat="52.275867965072393" lon="9.515739977359772">
        <ele>104.92</ele>
        <time>2017-10-30T11:02:48Z</time>
      </trkpt>
      <trkpt lat="52.274429965764284" lon="9.516316987574101">
        <ele>108.77</ele>
        <time>2017-10-30T11:02:56Z</time>
      </trkpt>
      <trkpt lat="52.274269033223391" lon="9.516455959528685">
        <ele>108.77</ele>
        <time>2017-10-30T11:02:57Z</time>
      </trkpt>
      <trkpt lat="52.274111034348607" lon="9.516633991152048">
        <ele>109.25</ele>
        <time>2017-10-30T11:02:58Z</time>
      </trkpt>
      <trkpt lat="52.273208973929286" lon="9.518261002376676">
        <ele>111.65000000000001</ele>
        <time>2017-10-30T11:03:05Z</time>
      </trkpt>
      <trkpt lat="52.272658031433821" lon="9.520155983045697">
        <ele>109.25</ele>
        <time>2017-10-30T11:03:12Z</time>
      </trkpt>
      <trkpt lat="52.272338010370731" lon="9.521464984863997">
        <ele>107.31999999999999</ele>
        <time>2017-10-30T11:03:19Z</time>
      </trkpt>
      <trkpt lat="52.271824032068253" lon="9.523686021566391">
        <ele>110.69</ele>
        <time>2017-10-30T11:03:31Z</time>
      </trkpt>
      <trkpt lat="52.271254984661937" lon="9.526177039369941">
        <ele>112.61</ele>
        <time>2017-10-30T11:03:44Z</time>
      </trkpt>
      <trkpt lat="52.270953990519047" lon="9.527463996782899">
        <ele>111.65000000000001</ele>
        <time>2017-10-30T11:03:52Z</time>
      </trkpt>
      <trkpt lat="52.270726002752781" lon="9.529321007430553">
        <ele>112.61</ele>
        <time>2017-10-30T11:04:01Z</time>
      </trkpt>
      <trkpt lat="52.27066095918417" lon="9.530573012307286">
        <ele>114.05</ele>
        <time>2017-10-30T11:04:07Z</time>
      </trkpt>
      <trkpt lat="52.27066196501255" lon="9.531027982011437">
        <ele>115.01000000000001</ele>
        <time>2017-10-30T11:04:09Z</time>
      </trkpt>
      <trkpt lat="52.270672023296356" lon="9.531260998919606">
        <ele>115.5</ele>
        <time>2017-10-30T11:04:10Z</time>
      </trkpt>
      <trkpt lat="52.270904034376144" lon="9.533529980108142">
        <ele>118.86</ele>
        <time>2017-10-30T11:04:19Z</time>
      </trkpt>
      <trkpt lat="52.271042000502348" lon="9.535516994073987">
        <ele>119.81999999999999</ele>
        <time>2017-10-30T11:04:29Z</time>
      </trkpt>
      <trkpt lat="52.271062033250928" lon="9.537441981956363">
        <ele>121.26000000000001</ele>
        <time>2017-10-30T11:04:39Z</time>
      </trkpt>
      <trkpt lat="52.271274011582136" lon="9.539159014821053">
        <ele>120.78</ele>
        <time>2017-10-30T11:04:45Z</time>
      </trkpt>
      <trkpt lat="52.271929979324341" lon="9.542165016755462">
        <ele>118.38</ele>
        <time>2017-10-30T11:04:53Z</time>
      </trkpt>
      <trkpt lat="52.273076958954334" lon="9.547251993790269">
        <ele>116.45999999999999</ele>
        <time>2017-10-30T11:05:06Z</time>
      </trkpt>
      <trkpt lat="52.273950017988682" lon="9.55114396288991">
        <ele>115.5</ele>
        <time>2017-10-30T11:05:17Z</time>
      </trkpt>
      <trkpt lat="52.274746969342232" lon="9.55427804030478">
        <ele>113.09</ele>
        <time>2017-10-30T11:05:27Z</time>
      </trkpt>
      <trkpt lat="52.275823038071394" lon="9.55642799846828">
        <ele>112.13</ele>
        <time>2017-10-30T11:05:35Z</time>
      </trkpt>
      <trkpt lat="52.277286015450954" lon="9.559239959344268">
        <ele>108.29000000000001</ele>
        <time>2017-10-30T11:05:46Z</time>
      </trkpt>
      <trkpt lat="52.277910970151424" lon="9.560936959460378">
        <ele>105.88</ele>
        <time>2017-10-30T11:05:53Z</time>
      </trkpt>
      <trkpt lat="52.278154967352748" lon="9.561621006578207">
        <ele>104.92</ele>
        <time>2017-10-30T11:05:58Z</time>
      </trkpt>
      <trkpt lat="52.278182040899992" lon="9.561697030439973">
        <ele>104.92</ele>
        <time>2017-10-30T11:05:59Z</time>
      </trkpt>
      <trkpt lat="52.27820098400116" lon="9.561750004068017">
        <ele>104.92</ele>
        <time>2017-10-30T11:06:00Z</time>
      </trkpt>
      <trkpt lat="52.278133006766438" lon="9.562034988775849">
        <ele>104.92</ele>
        <time>2017-10-30T11:06:02Z</time>
      </trkpt>
      <trkpt lat="52.278089001774788" lon="9.562062984332442">
        <ele>104.44</ele>
        <time>2017-10-30T11:06:03Z</time>
      </trkpt>
      <trkpt lat="52.27794298902154" lon="9.562162980437279">
        <ele>104.44</ele>
        <time>2017-10-30T11:06:06Z</time>
      </trkpt>
      <trkpt lat="52.277905019000173" lon="9.562191981822252">
        <ele>104.44</ele>
        <time>2017-10-30T11:06:07Z</time>
      </trkpt>
      <trkpt lat="52.277905019000173" lon="9.562191981822252">
        <ele>104.44</ele>
        <time>2017-10-30T11:06:14Z</time>
      </trkpt>
      <trkpt lat="52.277905019000173" lon="9.562191981822252">
        <ele>104.44</ele>
        <time>2017-10-30T11:06:43Z</time>
      </trkpt>
      <trkpt lat="52.277905019000173" lon="9.562191981822252">
        <ele>104.92</ele>
        <time>2017-10-30T11:07:21Z</time>
      </trkpt>
      <trkpt lat="52.277905019000173" lon="9.562191981822252">
        <ele>105.88</ele>
        <time>2017-10-30T11:08:09Z</time>
      </trkpt>
      <trkpt lat="52.277869982644916" lon="9.562176978215575">
        <ele>100.11</ele>
        <time>2017-10-30T11:08:29Z</time>
      </trkpt>
      <trkpt lat="52.277851039543748" lon="9.562204973772168">
        <ele>112.61</ele>
        <time>2017-10-30T11:09:25Z</time>
      </trkpt>
      <trkpt lat="52.277869982644916" lon="9.56216499209404">
        <ele>114.53</ele>
        <time>2017-10-30T11:10:13Z</time>
      </trkpt>
      <trkpt lat="52.277873000130057" lon="9.562161974608898">
        <ele>114.53</ele>
        <time>2017-10-30T11:11:01Z</time>
      </trkpt>
      <trkpt lat="52.277870988473296" lon="9.562155017629266">
        <ele>115.01000000000001</ele>
        <time>2017-10-30T11:11:47Z</time>
      </trkpt>
      <trkpt lat="52.277867970988154" lon="9.562158035114408">
        <ele>115.01000000000001</ele>
        <time>2017-10-30T11:12:33Z</time>
      </trkpt>
      <trkpt lat="52.277868976816535" lon="9.562156023457646">
        <ele>115.01000000000001</ele>
        <time>2017-10-30T11:13:03Z</time>
      </trkpt>
    </trkseg>
  </trk>

  <trk>
    <name>Track vom: 2017-10-30 12:13</name>
    <extensions>
      <gpxx:TrackExtension>
        <gpxx:DisplayColor>DarkGray</gpxx:DisplayColor>
      </gpxx:TrackExtension>
    </extensions>
    <trkseg>
      <trkpt lat="52.277868976816535" lon="9.562156023457646">
        <ele>115.01000000000001</ele>
        <time>2017-10-30T11:13:08Z</time>
      </trkpt>
      <trkpt lat="52.277798987925053" lon="9.562268005684018">
        <ele>114.05</ele>
        <time>2017-10-30T11:13:16Z</time>
      </trkpt>
      <trkpt lat="52.277578040957451" lon="9.562418963760138">
        <ele>113.09</ele>
        <time>2017-10-30T11:13:20Z</time>
      </trkpt>
      <trkpt lat="52.277085017412901" lon="9.562749965116382">
        <ele>109.25</ele>
        <time>2017-10-30T11:13:27Z</time>
      </trkpt>
      <trkpt lat="52.276637004688382" lon="9.563047019764781">
        <ele>108.29000000000001</ele>
        <time>2017-10-30T11:13:33Z</time>
      </trkpt>
      <trkpt lat="52.276571039110422" lon="9.563090018928051">
        <ele>107.81</ele>
        <time>2017-10-30T11:13:34Z</time>
      </trkpt>
      <trkpt lat="52.276508007198572" lon="9.56313201226294">
        <ele>107.31999999999999</ele>
        <time>2017-10-30T11:13:35Z</time>
      </trkpt>
      <trkpt lat="52.275649029761553" lon="9.56368999555707">
        <ele>103.48</ele>
        <time>2017-10-30T11:13:48Z</time>
      </trkpt>
      <trkpt lat="52.275483990088105" lon="9.563794014975429">
        <ele>102.52</ele>
        <time>2017-10-30T11:13:51Z</time>
      </trkpt>
      <trkpt lat="52.275432022288442" lon="9.563827039673924">
        <ele>102.04000000000001</ele>
        <time>2017-10-30T11:13:52Z</time>
      </trkpt>
      <trkpt lat="52.275376031175256" lon="9.56386199221015">
        <ele>102.04000000000001</ele>
        <time>2017-10-30T11:13:53Z</time>
      </trkpt>
      <trkpt lat="52.275321967899799" lon="9.563896022737026">
        <ele>101.56</ele>
        <time>2017-10-30T11:13:54Z</time>
      </trkpt>
      <trkpt lat="52.275263965129852" lon="9.563932986930013">
        <ele>101.08</ele>
        <time>2017-10-30T11:13:55Z</time>
      </trkpt>
      <trkpt lat="52.275201017037034" lon="9.563972968608141">
        <ele>101.08</ele>
        <time>2017-10-30T11:13:56Z</time>
      </trkpt>
      <trkpt lat="52.274404987692833" lon="9.564475966617465">
        <ele>97.709999999999994</ele>
        <time>2017-10-30T11:14:08Z</time>
      </trkpt>
      <trkpt lat="52.274270039051771" lon="9.564560959115624">
        <ele>97.230000000000004</ele>
        <time>2017-10-30T11:14:10Z</time>
      </trkpt>
      <trkpt lat="52.274223016574979" lon="9.564590966328979">
        <ele>96.75</ele>
        <time>2017-10-30T11:14:11Z</time>
      </trkpt>
      <trkpt lat="52.274212036281824" lon="9.564598007127643">
        <ele>96.269999999999996</ele>
        <time>2017-10-30T11:14:18Z</time>
      </trkpt>
      <trkpt lat="52.273859996348619" lon="9.564861031249166">
        <ele>92.420000000000002</ele>
        <time>2017-10-30T11:14:24Z</time>
      </trkpt>
      <trkpt lat="52.273168992251158" lon="9.565519010648131">
        <ele>91.459999999999994</ele>
        <time>2017-10-30T11:14:33Z</time>
      </trkpt>
      <trkpt lat="52.27304301224649" lon="9.565648008137941">
        <ele>91.459999999999994</ele>
        <time>2017-10-30T11:14:35Z</time>
      </trkpt>
      <trkpt lat="52.272515036165714" lon="9.566345969215035">
        <ele>92.420000000000002</ele>
        <time>2017-10-30T11:14:45Z</time>
      </trkpt>
      <trkpt lat="52.272429037839174" lon="9.566459963098168">
        <ele>92.900000000000006</ele>
        <time>2017-10-30T11:14:47Z</time>
      </trkpt>
      <trkpt lat="52.272382015362382" lon="9.566524000838399">
        <ele>92.900000000000006</ele>
        <time>2017-10-30T11:14:48Z</time>
      </trkpt>
      <trkpt lat="52.272137012332678" lon="9.56684896722436">
        <ele>92.420000000000002</ele>
        <time>2017-10-30T11:14:53Z</time>
      </trkpt>
      <trkpt lat="52.272086972370744" lon="9.566916022449732">
        <ele>92.420000000000002</ele>
        <time>2017-10-30T11:14:54Z</time>
      </trkpt>
      <trkpt lat="52.272032992914319" lon="9.566989028826356">
        <ele>92.420000000000002</ele>
        <time>2017-10-30T11:14:55Z</time>
      </trkpt>
      <trkpt lat="52.271974990144372" lon="9.567065974697471">
        <ele>92.420000000000002</ele>
        <time>2017-10-30T11:14:56Z</time>
      </trkpt>
      <trkpt lat="52.271920004859567" lon="9.567138981074095">
        <ele>92.900000000000006</ele>
        <time>2017-10-30T11:14:57Z</time>
      </trkpt>
      <trkpt lat="52.271866025403142" lon="9.567210981622338">
        <ele>93.390000000000001</ele>
        <time>2017-10-30T11:14:58Z</time>
      </trkpt>
      <trkpt lat="52.271828977391124" lon="9.567304020747542">
        <ele>94.349999999999994</ele>
        <time>2017-10-30T11:14:59Z</time>
      </trkpt>
      <trkpt lat="52.271791007369757" lon="9.567418014630675">
        <ele>94.829999999999998</ele>
        <time>2017-10-30T11:15:00Z</time>
      </trkpt>
      <trkpt lat="52.271806010976434" lon="9.567526979371905">
        <ele>95.310000000000002</ele>
        <time>2017-10-30T11:15:01Z</time>
      </trkpt>
      <trkpt lat="52.271834006533027" lon="9.567739963531494">
        <ele>95.310000000000002</ele>
        <time>2017-10-30T11:15:02Z</time>
      </trkpt>
      <trkpt lat="52.271854961290956" lon="9.567774999886751">
        <ele>94.829999999999998</ele>
        <time>2017-10-30T11:15:03Z</time>
      </trkpt>
      <trkpt lat="52.27190600708127" lon="9.567862004041672">
        <ele>94.829999999999998</ele>
        <time>2017-10-30T11:15:04Z</time>
      </trkpt>
      <trkpt lat="52.271957974880934" lon="9.567950014024973">
        <ele>94.349999999999994</ele>
        <time>2017-10-30T11:15:05Z</time>
      </trkpt>
      <trkpt lat="52.27201103232801" lon="9.568040035665035">
        <ele>94.349999999999994</ele>
        <time>2017-10-30T11:15:06Z</time>
      </trkpt>
      <trkpt lat="52.272415962070227" lon="9.568740008398891">
        <ele>92.900000000000006</ele>
        <time>2017-10-30T11:15:14Z</time>
      </trkpt>
      <trkpt lat="52.272461978718638" lon="9.568846039474011">
        <ele>92.900000000000006</ele>
        <time>2017-10-30T11:15:15Z</time>
      </trkpt>
      <trkpt lat="52.27250698953867" lon="9.568948969244957">
        <ele>92.900000000000006</ele>
        <time>2017-10-30T11:15:16Z</time>
      </trkpt>
      <trkpt lat="52.272552000358701" lon="9.569051982834935">
        <ele>93.390000000000001</ele>
        <time>2017-10-30T11:15:17Z</time>
      </trkpt>
      <trkpt lat="52.272596005350351" lon="9.569151978939772">
        <ele>93.870000000000005</ele>
        <time>2017-10-30T11:15:18Z</time>
      </trkpt>
      <trkpt lat="52.27263699285686" lon="9.569246023893356">
        <ele>94.829999999999998</ele>
        <time>2017-10-30T11:15:19Z</time>
      </trkpt>
      <trkpt lat="52.272673035040498" lon="9.569329004734755">
        <ele>94.829999999999998</ele>
        <time>2017-10-30T11:15:20Z</time>
      </trkpt>
      <trkpt lat="52.272787028923631" lon="9.56964299082756">
        <ele>95.790000000000006</ele>
        <time>2017-10-30T11:15:25Z</time>
      </trkpt>
      <trkpt lat="52.272806977853179" lon="9.569723038002849">
        <ele>96.269999999999996</ele>
        <time>2017-10-30T11:15:26Z</time>
      </trkpt>
      <trkpt lat="52.272855006158352" lon="9.569914983585477">
        <ele>96.269999999999996</ele>
        <time>2017-10-30T11:15:28Z</time>
      </trkpt>
      <trkpt lat="52.272880990058184" lon="9.570016991347075">
        <ele>96.269999999999996</ele>
        <time>2017-10-30T11:15:29Z</time>
      </trkpt>
      <trkpt lat="52.272961959242821" lon="9.57045997492969">
        <ele>96.269999999999996</ele>
        <time>2017-10-30T11:15:33Z</time>
      </trkpt>
      <trkpt lat="52.272986015304923" lon="9.570854008197784">
        <ele>95.790000000000006</ele>
        <time>2017-10-30T11:15:37Z</time>
      </trkpt>
      <trkpt lat="52.272990038618445" lon="9.570919973775744">
        <ele>95.310000000000002</ele>
        <time>2017-10-30T11:15:38Z</time>
      </trkpt>
      <trkpt lat="52.272996995598078" lon="9.571045031771064">
        <ele>95.790000000000006</ele>
        <time>2017-10-30T11:15:42Z</time>
      </trkpt>
      <trkpt lat="52.273005964234471" lon="9.571205964311957">
        <ele>97.230000000000004</ele>
        <time>2017-10-30T11:15:50Z</time>
      </trkpt>
      <trkpt lat="52.273010993376374" lon="9.571293974295259">
        <ele>97.709999999999994</ele>
        <time>2017-10-30T11:15:51Z</time>
      </trkpt>
      <trkpt lat="52.273017028346658" lon="9.571392964571714">
        <ele>97.709999999999994</ele>
        <time>2017-10-30T11:15:52Z</time>
      </trkpt>
      <trkpt lat="52.273078970611095" lon="9.572482025250793">
        <ele>96.75</ele>
        <time>2017-10-30T11:16:04Z</time>
      </trkpt>
      <trkpt lat="52.273099003359675" lon="9.572571041062474">
        <ele>96.75</ele>
        <time>2017-10-30T11:16:05Z</time>
      </trkpt>
      <trkpt lat="52.273134039714932" lon="9.572724010795355">
        <ele>96.75</ele>
        <time>2017-10-30T11:16:07Z</time>
      </trkpt>
      <trkpt lat="52.273223977535963" lon="9.573083007708192">
        <ele>96.269999999999996</ele>
        <time>2017-10-30T11:16:12Z</time>
      </trkpt>
      <trkpt lat="52.273241998627782" lon="9.5731430221349">
        <ele>96.269999999999996</ele>
        <time>2017-10-30T11:16:13Z</time>
      </trkpt>
      <trkpt lat="52.273185001686215" lon="9.57320798188448">
        <ele>95.790000000000006</ele>
        <time>2017-10-30T11:16:14Z</time>
      </trkpt>
      <trkpt lat="52.273136973381042" lon="9.573237989097834">
        <ele>95.790000000000006</ele>
        <time>2017-10-30T11:16:15Z</time>
      </trkpt>
      <trkpt lat="52.273081988096237" lon="9.573281994089484">
        <ele>95.310000000000002</ele>
        <time>2017-10-30T11:16:16Z</time>
      </trkpt>
      <trkpt lat="52.27302398532629" lon="9.573328010737896">
        <ele>94.829999999999998</ele>
        <time>2017-10-30T11:16:17Z</time>
      </trkpt>
      <trkpt lat="52.272123014554381" lon="9.573997976258397">
        <ele>91.939999999999998</ele>
        <time>2017-10-30T11:16:29Z</time>
      </trkpt>
      <trkpt lat="52.270825998857617" lon="9.574971031397581">
        <ele>90.019999999999996</ele>
        <time>2017-10-30T11:16:42Z</time>
      </trkpt>
      <trkpt lat="52.269730987027287" lon="9.575739987194538">
        <ele>90.980000000000004</ele>
        <time>2017-10-30T11:16:51Z</time>
      </trkpt>
      <trkpt lat="52.268781987950206" lon="9.576462004333735">
        <ele>91.459999999999994</ele>
        <time>2017-10-30T11:16:58Z</time>
      </trkpt>
      <trkpt lat="52.268633963540196" lon="9.576573986560106">
        <ele>91.459999999999994</ele>
        <time>2017-10-30T11:16:59Z</time>
      </trkpt>
      <trkpt lat="52.267098985612392" lon="9.577734963968396">
        <ele>88.099999999999994</ele>
        <time>2017-10-30T11:17:08Z</time>
      </trkpt>
      <trkpt lat="52.26530903019011" lon="9.578849002718926">
        <ele>87.620000000000005</ele>
        <time>2017-10-30T11:17:17Z</time>
      </trkpt>
      <trkpt lat="52.264013020321727" lon="9.579988019540906">
        <ele>84.25</ele>
        <time>2017-10-30T11:17:25Z</time>
      </trkpt>
      <trkpt lat="52.263171980157495" lon="9.580780025571585">
        <ele>80.409999999999997</ele>
        <time>2017-10-30T11:17:33Z</time>
      </trkpt>
      <trkpt lat="52.262182999402285" lon="9.581955000758171">
        <ele>84.730000000000004</ele>
        <time>2017-10-30T11:17:44Z</time>
      </trkpt>
      <trkpt lat="52.261941013857722" lon="9.582281978800893">
        <ele>86.180000000000007</ele>
        <time>2017-10-30T11:17:47Z</time>
      </trkpt>
      <trkpt lat="52.261113971471786" lon="9.583468018099666">
        <ele>86.659999999999997</ele>
        <time>2017-10-30T11:17:57Z</time>
      </trkpt>
      <trkpt lat="52.260726979002357" lon="9.584149969741702">
        <ele>85.689999999999998</ele>
        <time>2017-10-30T11:18:02Z</time>
      </trkpt>
      <trkpt lat="52.260329006239772" lon="9.585560979321599">
        <ele>85.689999999999998</ele>
        <time>2017-10-30T11:18:10Z</time>
      </trkpt>
      <trkpt lat="52.260312996804714" lon="9.586180988699198">
        <ele>85.689999999999998</ele>
        <time>2017-10-30T11:18:13Z</time>
      </trkpt>
      <trkpt lat="52.260319031774998" lon="9.586393972858787">
        <ele>85.209999999999994</ele>
        <time>2017-10-30T11:18:14Z</time>
      </trkpt>
      <trkpt lat="52.260331017896533" lon="9.586619026958942">
        <ele>85.209999999999994</ele>
        <time>2017-10-30T11:18:15Z</time>
      </trkpt>
      <trkpt lat="52.260751035064459" lon="9.588646022602916">
        <ele>83.769999999999996</ele>
        <time>2017-10-30T11:18:23Z</time>
      </trkpt>
      <trkpt lat="52.261416977271438" lon="9.591740034520626">
        <ele>82.329999999999998</ele>
        <time>2017-10-30T11:18:33Z</time>
      </trkpt>
      <trkpt lat="52.262207977473736" lon="9.595889998599887">
        <ele>80.409999999999997</ele>
        <time>2017-10-30T11:18:44Z</time>
      </trkpt>
      <trkpt lat="52.262248964980245" lon="9.596353014931083">
        <ele>80.409999999999997</ele>
        <time>2017-10-30T11:18:45Z</time>
      </trkpt>
      <trkpt lat="52.262261034920812" lon="9.596836986020207">
        <ele>80.409999999999997</ele>
        <time>2017-10-30T11:18:46Z</time>
      </trkpt>
      <trkpt lat="52.262236978858709" lon="9.597331015393138">
        <ele>80.409999999999997</ele>
        <time>2017-10-30T11:18:47Z</time>
      </trkpt>
      <trkpt lat="52.262205965816975" lon="9.597837030887604">
        <ele>80.409999999999997</ele>
        <time>2017-10-30T11:18:48Z</time>
      </trkpt>
      <trkpt lat="52.26197998970747" lon="9.600583026185632">
        <ele>78.480000000000004</ele>
        <time>2017-10-30T11:18:53Z</time>
      </trkpt>
      <trkpt lat="52.261586040258408" lon="9.60537001490593">
        <ele>77.519999999999996</ele>
        <time>2017-10-30T11:19:03Z</time>
      </trkpt>
      <trkpt lat="52.261103997007012" lon="9.608920002356172">
        <ele>76.560000000000002</ele>
        <time>2017-10-30T11:19:12Z</time>
      </trkpt>
      <trkpt lat="52.260353984311223" lon="9.610999971628189">
        <ele>77.519999999999996</ele>
        <time>2017-10-30T11:19:18Z</time>
      </trkpt>
      <trkpt lat="52.25940297357738" lon="9.612361025065184">
        <ele>80.409999999999997</ele>
        <time>2017-10-30T11:19:24Z</time>
      </trkpt>
      <trkpt lat="52.258583977818489" lon="9.61321396753192">
        <ele>80.409999999999997</ele>
        <time>2017-10-30T11:19:31Z</time>
      </trkpt>
      <trkpt lat="52.257549986243248" lon="9.614307973533869">
        <ele>80.409999999999997</ele>
        <time>2017-10-30T11:19:42Z</time>
      </trkpt>
      <trkpt lat="52.256985967978835" lon="9.615293014794588">
        <ele>81.849999999999994</ele>
        <time>2017-10-30T11:19:49Z</time>
      </trkpt>
      <trkpt lat="52.256910027936101" lon="9.615433998405933">
        <ele>82.810000000000002</ele>
        <time>2017-10-30T11:19:50Z</time>
      </trkpt>
      <trkpt lat="52.256049960851669" lon="9.61727399379015">
        <ele>87.620000000000005</ele>
        <time>2017-10-30T11:20:02Z</time>
      </trkpt>
      <trkpt lat="52.255358034744859" lon="9.61909999139607">
        <ele>88.099999999999994</ele>
        <time>2017-10-30T11:20:13Z</time>
      </trkpt>
      <trkpt lat="52.254720004275441" lon="9.620690038427711">
        <ele>92.900000000000006</ele>
        <time>2017-10-30T11:20:23Z</time>
      </trkpt>
      <trkpt lat="52.253765976056457" lon="9.622146980836988">
        <ele>98.670000000000002</ele>
        <time>2017-10-30T11:20:34Z</time>
      </trkpt>
      <trkpt lat="52.252540960907936" lon="9.624045984819531">
        <ele>102.04000000000001</ele>
        <time>2017-10-30T11:20:48Z</time>
      </trkpt>
      <trkpt lat="52.251804023981094" lon="9.625187013298273">
        <ele>103.95999999999999</ele>
        <time>2017-10-30T11:20:54Z</time>
      </trkpt>
      <trkpt lat="52.25046400912106" lon="9.627238987013698">
        <ele>104.44</ele>
        <time>2017-10-30T11:21:02Z</time>
      </trkpt>
      <trkpt lat="52.248087991029024" lon="9.630880001932383">
        <ele>108.77</ele>
        <time>2017-10-30T11:21:15Z</time>
      </trkpt>
      <trkpt lat="52.247346024960279" lon="9.632197972387075">
        <ele>111.17</ele>
        <time>2017-10-30T11:21:21Z</time>
      </trkpt>
      <trkpt lat="52.247063973918557" lon="9.632844971492887">
        <ele>113.56999999999999</ele>
        <time>2017-10-30T11:21:26Z</time>
      </trkpt>
      <trkpt lat="52.247032038867474" lon="9.632920995354652">
        <ele>113.56999999999999</ele>
        <time>2017-10-30T11:21:27Z</time>
      </trkpt>
      <trkpt lat="52.247099010273814" lon="9.633006993681192">
        <ele>114.05</ele>
        <time>2017-10-30T11:21:28Z</time>
      </trkpt>
      <trkpt lat="52.247147038578987" lon="9.633061978965998">
        <ele>114.53</ele>
        <time>2017-10-30T11:21:29Z</time>
      </trkpt>
      <trkpt lat="52.247206969186664" lon="9.6331309620291">
        <ele>115.01000000000001</ele>
        <time>2017-10-30T11:21:30Z</time>
      </trkpt>
      <trkpt lat="52.247415008023381" lon="9.634151961654425">
        <ele>114.53</ele>
        <time>2017-10-30T11:21:38Z</time>
      </trkpt>
      <trkpt lat="52.247333033010364" lon="9.634287999942899">
        <ele>113.56999999999999</ele>
        <time>2017-10-30T11:21:45Z</time>
      </trkpt>
      <trkpt lat="52.246198039501905" lon="9.634344996884465">
        <ele>117.90000000000001</ele>
        <time>2017-10-30T11:21:52Z</time>
      </trkpt>
      <trkpt lat="52.243690006434917" lon="9.633287033066154">
        <ele>122.70999999999999</ele>
        <time>2017-10-30T11:21:58Z</time>
      </trkpt>
      <trkpt lat="52.241385988891125" lon="9.63313196785748">
        <ele>131.36000000000001</ele>
        <time>2017-10-30T11:22:07Z</time>
      </trkpt>
      <trkpt lat="52.241132017225027" lon="9.633035995066166">
        <ele>132.80000000000001</ele>
        <time>2017-10-30T11:22:08Z</time>
      </trkpt>
      <trkpt lat="52.2396569699049" lon="9.631913993507624">
        <ele>141.93000000000001</ele>
        <time>2017-10-30T11:22:14Z</time>
      </trkpt>
      <trkpt lat="52.237517992034554" lon="9.629796976223588">
        <ele>152.99000000000001</ele>
        <time>2017-10-30T11:22:23Z</time>
      </trkpt>
      <trkpt lat="52.236001035198569" lon="9.629083005711436">
        <ele>157.78999999999999</ele>
        <time>2017-10-30T11:22:29Z</time>
      </trkpt>
      <trkpt lat="52.23323198966682" lon="9.628674974665046">
        <ele>164.03999999999999</ele>
        <time>2017-10-30T11:22:39Z</time>
      </trkpt>
      <trkpt lat="52.230027001351118" lon="9.628633987158537">
        <ele>167.41</ele>
        <time>2017-10-30T11:22:50Z</time>
      </trkpt>
      <trkpt lat="52.228187005966902" lon="9.628980997949839">
        <ele>165.96000000000001</ele>
        <time>2017-10-30T11:22:57Z</time>
      </trkpt>
      <trkpt lat="52.227771012112498" lon="9.629146959632635">
        <ele>165.47999999999999</ele>
        <time>2017-10-30T11:22:59Z</time>
      </trkpt>
      <trkpt lat="52.226226981729269" lon="9.630210036411881">
        <ele>162.12</ele>
        <time>2017-10-30T11:23:07Z</time>
      </trkpt>
      <trkpt lat="52.226018020883203" lon="9.630297962576151">
        <ele>161.16</ele>
        <time>2017-10-30T11:23:08Z</time>
      </trkpt>
      <trkpt lat="52.225576965138316" lon="9.630372980609536">
        <ele>159.72</ele>
        <time>2017-10-30T11:23:10Z</time>
      </trkpt>
      <trkpt lat="52.225351994857192" lon="9.630348002538085">
        <ele>159.24000000000001</ele>
        <time>2017-10-30T11:23:11Z</time>
      </trkpt>
      <trkpt lat="52.224903982132673" lon="9.630238031968474">
        <ele>157.78999999999999</ele>
        <time>2017-10-30T11:23:13Z</time>
      </trkpt>
      <trkpt lat="52.224690997973084" lon="9.630095958709717">
        <ele>156.83000000000001</ele>
        <time>2017-10-30T11:23:14Z</time>
      </trkpt>
      <trkpt lat="52.224261006340384" lon="9.629808962345123">
        <ele>155.87</ele>
        <time>2017-10-30T11:23:16Z</time>
      </trkpt>
      <trkpt lat="52.224073000252247" lon="9.629632020369172">
        <ele>155.38999999999999</ele>
        <time>2017-10-30T11:23:17Z</time>
      </trkpt>
      <trkpt lat="52.222644975408912" lon="9.627840975299478">
        <ele>150.09999999999999</ele>
        <time>2017-10-30T11:23:25Z</time>
      </trkpt>
      <trkpt lat="52.221400011330843" lon="9.6258660312742">
        <ele>140.00999999999999</ele>
        <time>2017-10-30T11:23:33Z</time>
      </trkpt>
      <trkpt lat="52.219953965395689" lon="9.622914008796215">
        <ele>133.75999999999999</ele>
        <time>2017-10-30T11:23:44Z</time>
      </trkpt>
      <trkpt lat="52.219205964356661" lon="9.620865974575281">
        <ele>131.84</ele>
        <time>2017-10-30T11:23:52Z</time>
      </trkpt>
      <trkpt lat="52.219241000711918" lon="9.620679980143905">
        <ele>131.36000000000001</ele>
        <time>2017-10-30T11:23:53Z</time>
      </trkpt>
      <trkpt lat="52.219241000711918" lon="9.620544025674462">
        <ele>130.88</ele>
        <time>2017-10-30T11:23:54Z</time>
      </trkpt>
      <trkpt lat="52.219248041510582" lon="9.620425002649427">
        <ele>130.88</ele>
        <time>2017-10-30T11:23:55Z</time>
      </trkpt>
      <trkpt lat="52.219290034845471" lon="9.620330035686493">
        <ele>130.40000000000001</ele>
        <time>2017-10-30T11:23:56Z</time>
      </trkpt>
      <trkpt lat="52.219364969059825" lon="9.620228027924895">
        <ele>129.91999999999999</ele>
        <time>2017-10-30T11:23:57Z</time>
      </trkpt>
      <trkpt lat="52.219435963779688" lon="9.620192991569638">
        <ele>129.43000000000001</ele>
        <time>2017-10-30T11:23:58Z</time>
      </trkpt>
      <trkpt lat="52.219544006511569" lon="9.620287958532572">
        <ele>128.94999999999999</ele>
        <time>2017-10-30T11:23:59Z</time>
      </trkpt>
      <trkpt lat="52.219612989574671" lon="9.620372029021382">
        <ele>128.47</ele>
        <time>2017-10-30T11:24:00Z</time>
      </trkpt>
      <trkpt lat="52.219691025093198" lon="9.620521981269121">
        <ele>127.98999999999999</ele>
        <time>2017-10-30T11:24:01Z</time>
      </trkpt>
      <trkpt lat="52.219728995114565" lon="9.620676040649414">
        <ele>127.03</ele>
        <time>2017-10-30T11:24:02Z</time>
      </trkpt>
      <trkpt lat="52.219766965135932" lon="9.620824987068772">
        <ele>126.55</ele>
        <time>2017-10-30T11:24:03Z</time>
      </trkpt>
      <trkpt lat="52.219800995662808" lon="9.620987009257078">
        <ele>126.06999999999999</ele>
        <time>2017-10-30T11:24:04Z</time>
      </trkpt>
      <trkpt lat="52.219807030633092" lon="9.621130004525185">
        <ele>125.59</ele>
        <time>2017-10-30T11:24:05Z</time>
      </trkpt>
      <trkpt lat="52.219812981784344" lon="9.621261013671756">
        <ele>125.59</ele>
        <time>2017-10-30T11:24:06Z</time>
      </trkpt>
      <trkpt lat="52.219806024804711" lon="9.621455976739526">
        <ele>125.11</ele>
        <time>2017-10-30T11:24:07Z</time>
      </trkpt>
      <trkpt lat="52.219757996499538" lon="9.621552033349872">
        <ele>125.11</ele>
        <time>2017-10-30T11:24:08Z</time>
      </trkpt>
      <trkpt lat="52.219678033143282" lon="9.621650017797947">
        <ele>124.63</ele>
        <time>2017-10-30T11:24:09Z</time>
      </trkpt>
      <trkpt lat="52.219593040645123" lon="9.621726041659713">
        <ele>124.63</ele>
        <time>2017-10-30T11:24:10Z</time>
      </trkpt>
      <trkpt lat="52.219520034268498" lon="9.621792007237673">
        <ele>124.63</ele>
        <time>2017-10-30T11:24:11Z</time>
      </trkpt>
      <trkpt lat="52.219397993758321" lon="9.62187297642231">
        <ele>125.11</ele>
        <time>2017-10-30T11:24:12Z</time>
      </trkpt>
      <trkpt lat="52.219296991825104" lon="9.621941037476063">
        <ele>125.59</ele>
        <time>2017-10-30T11:24:13Z</time>
      </trkpt>
      <trkpt lat="52.219211999326944" lon="9.621997028589249">
        <ele>125.59</ele>
        <time>2017-10-30T11:24:14Z</time>
      </trkpt>
      <trkpt lat="52.219037991017103" lon="9.622114039957523">
        <ele>124.63</ele>
        <time>2017-10-30T11:24:18Z</time>
      </trkpt>
      <trkpt lat="52.219022987410426" lon="9.622124014422298">
        <ele>124.15000000000001</ele>
        <time>2017-10-30T11:24:19Z</time>
      </trkpt>
      <trkpt lat="52.219013012945652" lon="9.622129965573549">
        <ele>123.67</ele>
        <time>2017-10-30T11:24:20Z</time>
      </trkpt>
      <trkpt lat="52.219013012945652" lon="9.622129965573549">
        <ele>123.19</ele>
        <time>2017-10-30T11:24:21Z</time>
      </trkpt>
      <trkpt lat="52.218989040702581" lon="9.622145975008607">
        <ele>123.67</ele>
        <time>2017-10-30T11:24:22Z</time>
      </trkpt>
      <trkpt lat="52.218930032104254" lon="9.622189980000258">
        <ele>123.67</ele>
        <time>2017-10-30T11:24:31Z</time>
      </trkpt>
      <trkpt lat="52.218873035162687" lon="9.622251000255346">
        <ele>123.67</ele>
        <time>2017-10-30T11:24:32Z</time>
      </trkpt>
      <trkpt lat="52.218446983024478" lon="9.622657019644976">
        <ele>122.22</ele>
        <time>2017-10-30T11:24:37Z</time>
      </trkpt>
      <trkpt lat="52.218350004404783" lon="9.622721979394555">
        <ele>121.26000000000001</ele>
        <time>2017-10-30T11:24:38Z</time>
      </trkpt>
      <trkpt lat="52.217780034989119" lon="9.623063039034605">
        <ele>117.42</ele>
        <time>2017-10-30T11:24:44Z</time>
      </trkpt>
      <trkpt lat="52.217695964500308" lon="9.623155994340777">
        <ele>116.94</ele>
        <time>2017-10-30T11:24:45Z</time>
      </trkpt>
      <trkpt lat="52.217610972002149" lon="9.623250039294362">
        <ele>116.45999999999999</ele>
        <time>2017-10-30T11:24:46Z</time>
      </trkpt>
      <trkpt lat="52.217551963403821" lon="9.623395968228579">
        <ele>115.98</ele>
        <time>2017-10-30T11:24:47Z</time>
      </trkpt>
      <trkpt lat="52.217493960633874" lon="9.623538041487336">
        <ele>115.98</ele>
        <time>2017-10-30T11:24:48Z</time>
      </trkpt>
      <trkpt lat="52.217436963692307" lon="9.623678019270301">
        <ele>115.5</ele>
        <time>2017-10-30T11:24:49Z</time>
      </trkpt>
      <trkpt lat="52.217028010636568" lon="9.624688038602471">
        <ele>112.61</ele>
        <time>2017-10-30T11:24:57Z</time>
      </trkpt>
      <trkpt lat="52.217006972059608" lon="9.62483799085021">
        <ele>112.61</ele>
        <time>2017-10-30T11:24:58Z</time>
      </trkpt>
      <trkpt lat="52.217003032565117" lon="9.624989032745361">
        <ele>112.61</ele>
        <time>2017-10-30T11:24:59Z</time>
      </trkpt>
      <trkpt lat="52.216984005644917" lon="9.626767002046108">
        <ele>112.61</ele>
        <time>2017-10-30T11:25:10Z</time>
      </trkpt>
      <trkpt lat="52.216949975118041" lon="9.627741985023022">
        <ele>115.98</ele>
        <time>2017-10-30T11:25:16Z</time>
      </trkpt>
      <trkpt lat="52.216897001489997" lon="9.628029987215996">
        <ele>115.98</ele>
        <time>2017-10-30T11:25:18Z</time>
      </trkpt>
      <trkpt lat="52.21685903146863" lon="9.628142975270748">
        <ele>115.98</ele>
        <time>2017-10-30T11:25:19Z</time>
      </trkpt>
      <trkpt lat="52.216763980686665" lon="9.628212964162231">
        <ele>115.5</ele>
        <time>2017-10-30T11:25:20Z</time>
      </trkpt>
      <trkpt lat="52.216671025380492" lon="9.628280019387603">
        <ele>115.01000000000001</ele>
        <time>2017-10-30T11:25:21Z</time>
      </trkpt>
      <trkpt lat="52.216586032882333" lon="9.628320001065731">
        <ele>115.01000000000001</ele>
        <time>2017-10-30T11:25:22Z</time>
      </trkpt>
      <trkpt lat="52.21647497266531" lon="9.628333998844028">
        <ele>114.53</ele>
        <time>2017-10-30T11:25:23Z</time>
      </trkpt>
      <trkpt lat="52.215397981926799" lon="9.628405999392271">
        <ele>109.25</ele>
        <time>2017-10-30T11:25:33Z</time>
      </trkpt>
      <trkpt lat="52.215179968625307" lon="9.62836098857224">
        <ele>108.77</ele>
        <time>2017-10-30T11:25:35Z</time>
      </trkpt>
      <trkpt lat="52.215069998055696" lon="9.628312960267067">
        <ele>108.77</ele>
        <time>2017-10-30T11:25:36Z</time>
      </trkpt>
      <trkpt lat="52.214036006480455" lon="9.62777903303504">
        <ele>108.29000000000001</ele>
        <time>2017-10-30T11:25:45Z</time>
      </trkpt>
      <trkpt lat="52.213915977627039" lon="9.627739973366261">
        <ele>108.29000000000001</ele>
        <time>2017-10-30T11:25:46Z</time>
      </trkpt>
      <trkpt lat="52.213785974308848" lon="9.627751959487796">
        <ele>107.81</ele>
        <time>2017-10-30T11:25:47Z</time>
      </trkpt>
      <trkpt lat="52.213651025667787" lon="9.627764029428363">
        <ele>107.81</ele>
        <time>2017-10-30T11:25:48Z</time>
      </trkpt>
      <trkpt lat="52.213491015136242" lon="9.62777903303504">
        <ele>107.81</ele>
        <time>2017-10-30T11:25:49Z</time>
      </trkpt>
      <trkpt lat="52.213376015424728" lon="9.62782496586442">
        <ele>107.31999999999999</ele>
        <time>2017-10-30T11:25:50Z</time>
      </trkpt>
      <trkpt lat="52.213246012106538" lon="9.627877017483115">
        <ele>107.31999999999999</ele>
        <time>2017-10-30T11:25:51Z</time>
      </trkpt>
      <trkpt lat="52.212056033313274" lon="9.628388984128833">
        <ele>104.44</ele>
        <time>2017-10-30T11:26:00Z</time>
      </trkpt>
      <trkpt lat="52.211750010028481" lon="9.628525022417307">
        <ele>103.48</ele>
        <time>2017-10-30T11:26:02Z</time>
      </trkpt>
      <trkpt lat="52.211588993668556" lon="9.628589982166886">
        <ele>103</ele>
        <time>2017-10-30T11:26:03Z</time>
      </trkpt>
      <trkpt lat="52.21056698821485" lon="9.629031959921122">
        <ele>103.48</ele>
        <time>2017-10-30T11:26:09Z</time>
      </trkpt>
      <trkpt lat="52.208603024482727" lon="9.629933014512062">
        <ele>101.56</ele>
        <time>2017-10-30T11:26:19Z</time>
      </trkpt>
      <trkpt lat="52.205877983942628" lon="9.631323991343379">
        <ele>95.790000000000006</ele>
        <time>2017-10-30T11:26:30Z</time>
      </trkpt>
      <trkpt lat="52.202555984258652" lon="9.633044041693211">
        <ele>89.060000000000002</ele>
        <time>2017-10-30T11:26:43Z</time>
      </trkpt>
      <trkpt lat="52.1992879640311" lon="9.634737018495798">
        <ele>84.25</ele>
        <time>2017-10-30T11:26:56Z</time>
      </trkpt>
      <trkpt lat="52.197174970060587" lon="9.635675959289074">
        <ele>82.329999999999998</ele>
        <time>2017-10-30T11:27:05Z</time>
      </trkpt>
      <trkpt lat="52.195461960509419" lon="9.636065969243646">
        <ele>81.849999999999994</ele>
        <time>2017-10-30T11:27:13Z</time>
      </trkpt>
      <trkpt lat="52.193712992593646" lon="9.636477017775178">
        <ele>84.25</ele>
        <time>2017-10-30T11:27:21Z</time>
      </trkpt>
      <trkpt lat="52.190639013424516" lon="9.637180007994175">
        <ele>90.5</ele>
        <time>2017-10-30T11:27:33Z</time>
      </trkpt>
      <trkpt lat="52.186559960246086" lon="9.63811400346458">
        <ele>95.790000000000006</ele>
        <time>2017-10-30T11:27:48Z</time>
      </trkpt>
      <trkpt lat="52.182120988145471" lon="9.639107007533312">
        <ele>99.629999999999995</ele>
        <time>2017-10-30T11:28:04Z</time>
      </trkpt>
      <trkpt lat="52.178732017055154" lon="9.639873029664159">
        <ele>104.44</ele>
        <time>2017-10-30T11:28:16Z</time>
      </trkpt>
      <trkpt lat="52.17580103315413" lon="9.640544001013041">
        <ele>106.84</ele>
        <time>2017-10-30T11:28:27Z</time>
      </trkpt>
      <trkpt lat="52.174460012465715" lon="9.640853041782975">
        <ele>111.17</ele>
        <time>2017-10-30T11:28:34Z</time>
      </trkpt>
      <trkpt lat="52.17367404140532" lon="9.641022020950913">
        <ele>113.09</ele>
        <time>2017-10-30T11:28:40Z</time>
      </trkpt>
      <trkpt lat="52.17350103892386" lon="9.641031995415688">
        <ele>113.09</ele>
        <time>2017-10-30T11:28:43Z</time>
      </trkpt>
      <trkpt lat="52.17337598092854" lon="9.641088992357254">
        <ele>113.56999999999999</ele>
        <time>2017-10-30T11:28:44Z</time>
      </trkpt>
      <trkpt lat="52.173347985371947" lon="9.641220001503825">
        <ele>113.56999999999999</ele>
        <time>2017-10-30T11:28:45Z</time>
      </trkpt>
      <trkpt lat="52.173312027007341" lon="9.641391998156905">
        <ele>113.56999999999999</ele>
        <time>2017-10-30T11:28:46Z</time>
      </trkpt>
      <trkpt lat="52.173270033672452" lon="9.641592996194959">
        <ele>113.56999999999999</ele>
        <time>2017-10-30T11:28:47Z</time>
      </trkpt>
      <trkpt lat="52.173222005367279" lon="9.641816038638353">
        <ele>113.56999999999999</ele>
        <time>2017-10-30T11:28:48Z</time>
      </trkpt>
      <trkpt lat="52.173171965405345" lon="9.642057018354535">
        <ele>113.56999999999999</ele>
        <time>2017-10-30T11:28:49Z</time>
      </trkpt>
      <trkpt lat="52.172721019014716" lon="9.644193984568119">
        <ele>112.61</ele>
        <time>2017-10-30T11:28:58Z</time>
      </trkpt>
      <trkpt lat="52.172638960182667" lon="9.644583994522691">
        <ele>113.09</ele>
        <time>2017-10-30T11:29:00Z</time>
      </trkpt>
      <trkpt lat="52.172431005164981" lon="9.645687974989414">
        <ele>115.01000000000001</ele>
        <time>2017-10-30T11:29:06Z</time>
      </trkpt>
      <trkpt lat="52.172404015436769" lon="9.645834993571043">
        <ele>115.01000000000001</ele>
        <time>2017-10-30T11:29:07Z</time>
      </trkpt>
      <trkpt lat="52.172347018495202" lon="9.646098017692566">
        <ele>114.05</ele>
        <time>2017-10-30T11:29:09Z</time>
      </trkpt>
      <trkpt lat="52.17232103459537" lon="9.646201031282544">
        <ele>114.05</ele>
        <time>2017-10-30T11:29:10Z</time>
      </trkpt>
      <trkpt lat="52.172255991026759" lon="9.646207988262177">
        <ele>113.56999999999999</ele>
        <time>2017-10-30T11:29:11Z</time>
      </trkpt>
      <trkpt lat="52.172204023227096" lon="9.646185021847487">
        <ele>113.09</ele>
        <time>2017-10-30T11:29:12Z</time>
      </trkpt>
      <trkpt lat="52.172152977436781" lon="9.646116038784385">
        <ele>113.09</ele>
        <time>2017-10-30T11:29:13Z</time>
      </trkpt>
      <trkpt lat="52.17212799936533" lon="9.645985029637814">
        <ele>112.61</ele>
        <time>2017-10-30T11:29:14Z</time>
      </trkpt>
      <trkpt lat="52.172095980495214" lon="9.645816972479224">
        <ele>113.09</ele>
        <time>2017-10-30T11:29:15Z</time>
      </trkpt>
      <trkpt lat="52.172058010473847" lon="9.645617986097932">
        <ele>113.09</ele>
        <time>2017-10-30T11:29:16Z</time>
      </trkpt>
      <trkpt lat="52.171691972762346" lon="9.643663996830583">
        <ele>113.09</ele>
        <time>2017-10-30T11:29:24Z</time>
      </trkpt>
      <trkpt lat="52.171259969472885" lon="9.641376994550228">
        <ele>114.05</ele>
        <time>2017-10-30T11:29:32Z</time>
      </trkpt>
      <trkpt lat="52.170590003952384" lon="9.637803034856916">
        <ele>117.42</ele>
        <time>2017-10-30T11:29:43Z</time>
      </trkpt>
      <trkpt lat="52.169669000431895" lon="9.63291596621275">
        <ele>121.26000000000001</ele>
        <time>2017-10-30T11:29:57Z</time>
      </trkpt>
      <trkpt lat="52.168755037710071" lon="9.628056976944208">
        <ele>122.22</ele>
        <time>2017-10-30T11:30:10Z</time>
      </trkpt>
      <trkpt lat="52.168037965893745" lon="9.624327030032873">
        <ele>122.70999999999999</ele>
        <time>2017-10-30T11:30:20Z</time>
      </trkpt>
      <trkpt lat="52.16796001419425" lon="9.624032992869616">
        <ele>123.19</ele>
        <time>2017-10-30T11:30:21Z</time>
      </trkpt>
      <trkpt lat="52.167843002825975" lon="9.623747002333403">
        <ele>123.19</ele>
        <time>2017-10-30T11:30:22Z</time>
      </trkpt>
      <trkpt lat="52.167689027264714" lon="9.623478027060628">
        <ele>123.67</ele>
        <time>2017-10-30T11:30:23Z</time>
      </trkpt>
      <trkpt lat="52.166704991832376" lon="9.621955035254359">
        <ele>123.19</ele>
        <time>2017-10-30T11:30:30Z</time>
      </trkpt>
      <trkpt lat="52.165623977780342" lon="9.620233979076147">
        <ele>125.11</ele>
        <time>2017-10-30T11:30:39Z</time>
      </trkpt>
      <trkpt lat="52.165452986955643" lon="9.619860984385014">
        <ele>125.59</ele>
        <time>2017-10-30T11:30:41Z</time>
      </trkpt>
      <trkpt lat="52.165388027206063" lon="9.619648000225425">
        <ele>125.59</ele>
        <time>2017-10-30T11:30:42Z</time>
      </trkpt>
      <trkpt lat="52.165343016386032" lon="9.619415989145637">
        <ele>125.59</ele>
        <time>2017-10-30T11:30:43Z</time>
      </trkpt>
      <trkpt lat="52.165043028071523" lon="9.616977022960782">
        <ele>127.98999999999999</ele>
        <time>2017-10-30T11:30:51Z</time>
      </trkpt>
      <trkpt lat="52.164582023397088" lon="9.613756025210023">
        <ele>130.88</ele>
        <time>2017-10-30T11:31:01Z</time>
      </trkpt>
      <trkpt lat="52.164513040333986" lon="9.613469028845429">
        <ele>131.36000000000001</ele>
        <time>2017-10-30T11:31:02Z</time>
      </trkpt>
      <trkpt lat="52.16441597789526" lon="9.613188989460468">
        <ele>131.84</ele>
        <time>2017-10-30T11:31:03Z</time>
      </trkpt>
      <trkpt lat="52.164297960698605" lon="9.612922025844455">
        <ele>132.31999999999999</ele>
        <time>2017-10-30T11:31:04Z</time>
      </trkpt>
      <trkpt lat="52.164176004007459" lon="9.612653972581029">
        <ele>132.80000000000001</ele>
        <time>2017-10-30T11:31:05Z</time>
      </trkpt>
      <trkpt lat="52.162442039698362" lon="9.608970964327455">
        <ele>135.19999999999999</ele>
        <time>2017-10-30T11:31:18Z</time>
      </trkpt>
      <trkpt lat="52.161602005362511" lon="9.607184026390314">
        <ele>139.05000000000001</ele>
        <time>2017-10-30T11:31:25Z</time>
      </trkpt>
      <trkpt lat="52.161396984010935" lon="9.606750011444092">
        <ele>139.53</ele>
        <time>2017-10-30T11:31:29Z</time>
      </trkpt>
      <trkpt lat="52.161314003169537" lon="9.606572985649109">
        <ele>140.97</ele>
        <time>2017-10-30T11:31:36Z</time>
      </trkpt>
      <trkpt lat="52.161314003169537" lon="9.606572985649109">
        <ele>140.97</ele>
        <time>2017-10-30T11:31:51Z</time>
      </trkpt>
      <trkpt lat="52.161314003169537" lon="9.606572985649109">
        <ele>140.49000000000001</ele>
        <time>2017-10-30T11:32:18Z</time>
      </trkpt>
      <trkpt lat="52.161314003169537" lon="9.606572985649109">
        <ele>140.49000000000001</ele>
        <time>2017-10-30T11:33:00Z</time>
      </trkpt>
      <trkpt lat="52.161314003169537" lon="9.606572985649109">
        <ele>140.00999999999999</ele>
        <time>2017-10-30T11:33:45Z</time>
      </trkpt>
      <trkpt lat="52.161291958764195" lon="9.606525963172317">
        <ele>140.49000000000001</ele>
        <time>2017-10-30T11:34:15Z</time>
      </trkpt>
      <trkpt lat="52.161261029541492" lon="9.606461003422737">
        <ele>140.49000000000001</ele>
        <time>2017-10-30T11:34:16Z</time>
      </trkpt>
      <trkpt lat="52.161206966266036" lon="9.606348015367985">
        <ele>140.49000000000001</ele>
        <time>2017-10-30T11:34:17Z</time>
      </trkpt>
      <trkpt lat="52.160641020163894" lon="9.605182008817792">
        <ele>141.44999999999999</ele>
        <time>2017-10-30T11:34:23Z</time>
      </trkpt>
      <trkpt lat="52.160281017422676" lon="9.604589994996786">
        <ele>143.84999999999999</ele>
        <time>2017-10-30T11:34:26Z</time>
      </trkpt>
      <trkpt lat="52.160129975527525" lon="9.604449011385441">
        <ele>144.81999999999999</ele>
        <time>2017-10-30T11:34:27Z</time>
      </trkpt>
      <trkpt lat="52.158809993416071" lon="9.60320002399385">
        <ele>150.09999999999999</ele>
        <time>2017-10-30T11:34:36Z</time>
      </trkpt>
      <trkpt lat="52.158686025068164" lon="9.603049987927079">
        <ele>150.58000000000001</ele>
        <time>2017-10-30T11:34:37Z</time>
      </trkpt>
      <trkpt lat="52.158572031185031" lon="9.6028589643538">
        <ele>151.06</ele>
        <time>2017-10-30T11:34:38Z</time>
      </trkpt>
      <trkpt lat="52.157944981008768" lon="9.601793959736824">
        <ele>153.47</ele>
        <time>2017-10-30T11:34:43Z</time>
      </trkpt>
      <trkpt lat="52.157169990241528" lon="9.600932970643044">
        <ele>156.83000000000001</ele>
        <time>2017-10-30T11:34:48Z</time>
      </trkpt>
      <trkpt lat="52.157006962224841" lon="9.600841021165252">
        <ele>157.31</ele>
        <time>2017-10-30T11:34:49Z</time>
      </trkpt>
      <trkpt lat="52.156673027202487" lon="9.600690985098481">
        <ele>158.27000000000001</ele>
        <time>2017-10-30T11:34:51Z</time>
      </trkpt>
      <trkpt lat="52.156484015285969" lon="9.600672964006662">
        <ele>158.27000000000001</ele>
        <time>2017-10-30T11:34:52Z</time>
      </trkpt>
      <trkpt lat="52.156284023076296" lon="9.600667012855411">
        <ele>158.75</ele>
        <time>2017-10-30T11:34:53Z</time>
      </trkpt>
      <trkpt lat="52.156095011159778" lon="9.600758962333202">
        <ele>158.75</ele>
        <time>2017-10-30T11:34:54Z</time>
      </trkpt>
      <trkpt lat="52.155902981758118" lon="9.600853007286787">
        <ele>159.24000000000001</ele>
        <time>2017-10-30T11:34:55Z</time>
      </trkpt>
      <trkpt lat="52.155711036175489" lon="9.600945962592959">
        <ele>159.72</ele>
        <time>2017-10-30T11:34:56Z</time>
      </trkpt>
      <trkpt lat="52.154774023219943" lon="9.601403027772903">
        <ele>160.19999999999999</ele>
        <time>2017-10-30T11:35:01Z</time>
      </trkpt>
      <trkpt lat="52.153744976967573" lon="9.601602014154196">
        <ele>161.16</ele>
        <time>2017-10-30T11:35:07Z</time>
      </trkpt>
      <trkpt lat="52.153474995866418" lon="9.601577958092094">
        <ele>161.16</ele>
        <time>2017-10-30T11:35:09Z</time>
      </trkpt>
      <trkpt lat="52.153311967849731" lon="9.601563960313797">
        <ele>161.63999999999999</ele>
        <time>2017-10-30T11:35:10Z</time>
      </trkpt>
      <trkpt lat="52.152069015428424" lon="9.601201023906469">
        <ele>163.56</ele>
        <time>2017-10-30T11:35:16Z</time>
      </trkpt>
      <trkpt lat="52.151188999414444" lon="9.600725015625358">
        <ele>166.44999999999999</ele>
        <time>2017-10-30T11:35:20Z</time>
      </trkpt>
      <trkpt lat="52.151004010811448" lon="9.600555030629039">
        <ele>166.93000000000001</ele>
        <time>2017-10-30T11:35:21Z</time>
      </trkpt>
      <trkpt lat="52.150833019986749" lon="9.600356966257095">
        <ele>167.88999999999999</ele>
        <time>2017-10-30T11:35:22Z</time>
      </trkpt>
      <trkpt lat="52.150679966434836" lon="9.600116992369294">
        <ele>168.37</ele>
        <time>2017-10-30T11:35:23Z</time>
      </trkpt>
      <trkpt lat="52.150525990873575" lon="9.599864026531577">
        <ele>169.33000000000001</ele>
        <time>2017-10-30T11:35:24Z</time>
      </trkpt>
      <trkpt lat="52.149945963174105" lon="9.598916033282876">
        <ele>173.66</ele>
        <time>2017-10-30T11:35:28Z</time>
      </trkpt>
      <trkpt lat="52.149416981264949" lon="9.597409972921014">
        <ele>178.46000000000001</ele>
        <time>2017-10-30T11:35:34Z</time>
      </trkpt>
      <trkpt lat="52.149147000163794" lon="9.595848005264998">
        <ele>182.78999999999999</ele>
        <time>2017-10-30T11:35:40Z</time>
      </trkpt>
      <trkpt lat="52.149096038192511" lon="9.595699980854988">
        <ele>183.75</ele>
        <time>2017-10-30T11:35:41Z</time>
      </trkpt>
      <trkpt lat="52.149026971310377" lon="9.595633009448648">
        <ele>184.22999999999999</ele>
        <time>2017-10-30T11:35:42Z</time>
      </trkpt>
      <trkpt lat="52.14894600212574" lon="9.595592021942139">
        <ele>184.71000000000001</ele>
        <time>2017-10-30T11:35:43Z</time>
      </trkpt>
      <trkpt lat="52.148858997970819" lon="9.595621023327112">
        <ele>185.19</ele>
        <time>2017-10-30T11:35:44Z</time>
      </trkpt>
      <trkpt lat="52.148756990209222" lon="9.595698975026608">
        <ele>185.66999999999999</ele>
        <time>2017-10-30T11:35:45Z</time>
      </trkpt>
      <trkpt lat="52.148640984669328" lon="9.595823027193546">
        <ele>186.15000000000001</ele>
        <time>2017-10-30T11:35:46Z</time>
      </trkpt>
      <trkpt lat="52.148211998865008" lon="9.596281014382839">
        <ele>187.59</ele>
        <time>2017-10-30T11:35:49Z</time>
      </trkpt>
      <trkpt lat="52.148038996383548" lon="9.596429960802198">
        <ele>188.08000000000001</ele>
        <time>2017-10-30T11:35:50Z</time>
      </trkpt>
      <trkpt lat="52.147088991478086" lon="9.596852995455265">
        <ele>190.96000000000001</ele>
        <time>2017-10-30T11:35:55Z</time>
      </trkpt>
      <trkpt lat="52.146893022581935" lon="9.596898006275296">
        <ele>191.44</ele>
        <time>2017-10-30T11:35:56Z</time>
      </trkpt>
      <trkpt lat="52.146683977916837" lon="9.596942011266947">
        <ele>192.40000000000001</ele>
        <time>2017-10-30T11:35:57Z</time>
      </trkpt>
      <trkpt lat="52.145075993612409" lon="9.596426021307707">
        <ele>201.05000000000001</ele>
        <time>2017-10-30T11:36:05Z</time>
      </trkpt>
      <trkpt lat="52.144899973645806" lon="9.596343962475658">
        <ele>202.00999999999999</ele>
        <time>2017-10-30T11:36:06Z</time>
      </trkpt>
      <trkpt lat="52.144732000306249" lon="9.596248995512724">
        <ele>202.97999999999999</ele>
        <time>2017-10-30T11:36:07Z</time>
      </trkpt>
      <trkpt lat="52.144580036401749" lon="9.596097031608224">
        <ele>203.94</ele>
        <time>2017-10-30T11:36:08Z</time>
      </trkpt>
      <trkpt lat="52.144461013376713" lon="9.595978008583188">
        <ele>204.90000000000001</ele>
        <time>2017-10-30T11:36:09Z</time>
      </trkpt>
      <trkpt lat="52.144332015886903" lon="9.595677014440298">
        <ele>206.34</ele>
        <time>2017-10-30T11:36:10Z</time>
      </trkpt>
      <trkpt lat="52.144234031438828" lon="9.595433017238975">
        <ele>207.30000000000001</ele>
        <time>2017-10-30T11:36:11Z</time>
      </trkpt>
      <trkpt lat="52.144153984263539" lon="9.595192959532142">
        <ele>208.25999999999999</ele>
        <time>2017-10-30T11:36:12Z</time>
      </trkpt>
      <trkpt lat="52.144095981493592" lon="9.594928007572889">
        <ele>209.22</ele>
        <time>2017-10-30T11:36:13Z</time>
      </trkpt>
      <trkpt lat="52.144035967066884" lon="9.594654003158212">
        <ele>209.69999999999999</ele>
        <time>2017-10-30T11:36:14Z</time>
      </trkpt>
      <trkpt lat="52.143976036459208" lon="9.594377987086773">
        <ele>210.66999999999999</ele>
        <time>2017-10-30T11:36:15Z</time>
      </trkpt>
      <trkpt lat="52.143934965133667" lon="9.594102976843715">
        <ele>211.15000000000001</ele>
        <time>2017-10-30T11:36:16Z</time>
      </trkpt>
      <trkpt lat="52.143910992890596" lon="9.593818997964263">
        <ele>212.11000000000001</ele>
        <time>2017-10-30T11:36:17Z</time>
      </trkpt>
      <trkpt lat="52.143887020647526" lon="9.593534013256431">
        <ele>212.59</ele>
        <time>2017-10-30T11:36:18Z</time>
      </trkpt>
      <trkpt lat="52.143895989283919" lon="9.593223966658115">
        <ele>212.59</ele>
        <time>2017-10-30T11:36:19Z</time>
      </trkpt>
      <trkpt lat="52.143938988447189" lon="9.592912998050451">
        <ele>213.06999999999999</ele>
        <time>2017-10-30T11:36:20Z</time>
      </trkpt>
      <trkpt lat="52.143995985388756" lon="9.592603035271168">
        <ele>213.06999999999999</ele>
        <time>2017-10-30T11:36:21Z</time>
      </trkpt>
      <trkpt lat="52.144054993987083" lon="9.59228795953095">
        <ele>212.59</ele>
        <time>2017-10-30T11:36:22Z</time>
      </trkpt>
      <trkpt lat="52.144653964787722" lon="9.588761022314429">
        <ele>210.19</ele>
        <time>2017-10-30T11:36:33Z</time>
      </trkpt>
      <trkpt lat="52.144984966143966" lon="9.585569025948644">
        <ele>208.25999999999999</ele>
        <time>2017-10-30T11:36:43Z</time>
      </trkpt>
      <trkpt lat="52.145008016377687" lon="9.584975000470877">
        <ele>207.78</ele>
        <time>2017-10-30T11:36:45Z</time>
      </trkpt>
      <trkpt lat="52.14501497335732" lon="9.584677023813129">
        <ele>207.30000000000001</ele>
        <time>2017-10-30T11:36:46Z</time>
      </trkpt>
      <trkpt lat="52.145006004720926" lon="9.584386004135013">
        <ele>206.81999999999999</ele>
        <time>2017-10-30T11:36:47Z</time>
      </trkpt>
      <trkpt lat="52.14496904052794" lon="9.584081992506981">
        <ele>206.81999999999999</ele>
        <time>2017-10-30T11:36:48Z</time>
      </trkpt>
      <trkpt lat="52.144910031929612" lon="9.58377898670733">
        <ele>206.34</ele>
        <time>2017-10-30T11:36:49Z</time>
      </trkpt>
      <trkpt lat="52.144835013896227" lon="9.583471035584807">
        <ele>205.86000000000001</ele>
        <time>2017-10-30T11:36:50Z</time>
      </trkpt>
      <trkpt lat="52.144382977858186" lon="9.581604972481728">
        <ele>203.94</ele>
        <time>2017-10-30T11:36:56Z</time>
      </trkpt>
      <trkpt lat="52.144145015627146" lon="9.580092038959265">
        <ele>202.00999999999999</ele>
        <time>2017-10-30T11:37:01Z</time>
      </trkpt>
      <trkpt lat="52.14413302950561" lon="9.579485021531582">
        <ele>200.56999999999999</ele>
        <time>2017-10-30T11:37:03Z</time>
      </trkpt>
      <trkpt lat="52.144159013405442" lon="9.57918100990355">
        <ele>200.09</ele>
        <time>2017-10-30T11:37:04Z</time>
      </trkpt>
      <trkpt lat="52.144465036690235" lon="9.576743971556425">
        <ele>194.31999999999999</ele>
        <time>2017-10-30T11:37:12Z</time>
      </trkpt>
      <trkpt lat="52.144436035305262" lon="9.57563403993845">
        <ele>191.44</ele>
        <time>2017-10-30T11:37:16Z</time>
      </trkpt>
      <trkpt lat="52.144403010606766" lon="9.575386019423604">
        <ele>190.47999999999999</ele>
        <time>2017-10-30T11:37:17Z</time>
      </trkpt>
      <trkpt lat="52.144337967038155" lon="9.575139004737139">
        <ele>189.03999999999999</ele>
        <time>2017-10-30T11:37:18Z</time>
      </trkpt>
      <trkpt lat="52.144253980368376" lon="9.574938006699085">
        <ele>188.56</ele>
        <time>2017-10-30T11:37:19Z</time>
      </trkpt>
      <trkpt lat="52.144139986485243" lon="9.574742037802935">
        <ele>187.11000000000001</ele>
        <time>2017-10-30T11:37:20Z</time>
      </trkpt>
      <trkpt lat="52.144021969288588" lon="9.574540033936501">
        <ele>186.15000000000001</ele>
        <time>2017-10-30T11:37:21Z</time>
      </trkpt>
      <trkpt lat="52.14387696236372" lon="9.574414975941181">
        <ele>184.71000000000001</ele>
        <time>2017-10-30T11:37:22Z</time>
      </trkpt>
      <trkpt lat="52.14370496571064" lon="9.574278015643358">
        <ele>182.78999999999999</ele>
        <time>2017-10-30T11:37:23Z</time>
      </trkpt>
      <trkpt lat="52.143526012077928" lon="9.574136026203632">
        <ele>181.34999999999999</ele>
        <time>2017-10-30T11:37:24Z</time>
      </trkpt>
      <trkpt lat="52.142324969172478" lon="9.573445022106171">
        <ele>177.02000000000001</ele>
        <time>2017-10-30T11:37:30Z</time>
      </trkpt>
      <trkpt lat="52.140944972634315" lon="9.572579003870487">
        <ele>173.66</ele>
        <time>2017-10-30T11:37:38Z</time>
      </trkpt>
      <trkpt lat="52.140663005411625" lon="9.572245990857482">
        <ele>172.69</ele>
        <time>2017-10-30T11:37:40Z</time>
      </trkpt>
      <trkpt lat="52.140123965218663" lon="9.571336973458529">
        <ele>170.77000000000001</ele>
        <time>2017-10-30T11:37:45Z</time>
      </trkpt>
      <trkpt lat="52.139646029099822" lon="9.570111036300659">
        <ele>167.41</ele>
        <time>2017-10-30T11:37:53Z</time>
      </trkpt>
      <trkpt lat="52.139461962506175" lon="9.569670986384153">
        <ele>166.44999999999999</ele>
        <time>2017-10-30T11:37:56Z</time>
      </trkpt>
      <trkpt lat="52.139360038563609" lon="9.569488009437919">
        <ele>165.47999999999999</ele>
        <time>2017-10-30T11:37:57Z</time>
      </trkpt>
      <trkpt lat="52.139274962246418" lon="9.569335039705038">
        <ele>165.47999999999999</ele>
        <time>2017-10-30T11:37:58Z</time>
      </trkpt>
      <trkpt lat="52.139176977798343" lon="9.569215010851622">
        <ele>165</ele>
        <time>2017-10-30T11:37:59Z</time>
      </trkpt>
      <trkpt lat="52.139074970036745" lon="9.569114008918405">
        <ele>164.52000000000001</ele>
        <time>2017-10-30T11:38:00Z</time>
      </trkpt>
      <trkpt lat="52.138972040265799" lon="9.569009989500046">
        <ele>164.52000000000001</ele>
        <time>2017-10-30T11:38:01Z</time>
      </trkpt>
      <trkpt lat="52.138866009190679" lon="9.568903958424926">
        <ele>164.03999999999999</ele>
        <time>2017-10-30T11:38:02Z</time>
      </trkpt>
      <trkpt lat="52.138751009479165" lon="9.568833969533444">
        <ele>163.56</ele>
        <time>2017-10-30T11:38:03Z</time>
      </trkpt>
      <trkpt lat="52.138626035302877" lon="9.568772027269006">
        <ele>162.59999999999999</ele>
        <time>2017-10-30T11:38:04Z</time>
      </trkpt>
      <trkpt lat="52.138502988964319" lon="9.568711007013917">
        <ele>162.12</ele>
        <time>2017-10-30T11:38:05Z</time>
      </trkpt>
      <trkpt lat="52.137175966054201" lon="9.568015979602933">
        <ele>156.34999999999999</ele>
        <time>2017-10-30T11:38:17Z</time>
      </trkpt>
      <trkpt lat="52.136061005294323" lon="9.567133029922843">
        <ele>150.09999999999999</ele>
        <time>2017-10-30T11:38:28Z</time>
      </trkpt>
      <trkpt lat="52.134888041764498" lon="9.566099038347602">
        <ele>147.69999999999999</ele>
        <time>2017-10-30T11:38:40Z</time>
      </trkpt>
      <trkpt lat="52.134168958291411" lon="9.565213993191719">
        <ele>146.25999999999999</ele>
        <time>2017-10-30T11:38:48Z</time>
      </trkpt>
      <trkpt lat="52.134079020470381" lon="9.565093964338303">
        <ele>146.25999999999999</ele>
        <time>2017-10-30T11:38:49Z</time>
      </trkpt>
      <trkpt lat="52.133770985528827" lon="9.564556013792753">
        <ele>145.30000000000001</ele>
        <time>2017-10-30T11:38:53Z</time>
      </trkpt>
      <trkpt lat="52.133340993896127" lon="9.563483968377113">
        <ele>144.81999999999999</ele>
        <time>2017-10-30T11:39:00Z</time>
      </trkpt>
      <trkpt lat="52.13319799862802" lon="9.563204012811184">
        <ele>144.81999999999999</ele>
        <time>2017-10-30T11:39:02Z</time>
      </trkpt>
      <trkpt lat="52.133105965331197" lon="9.563093036413193">
        <ele>145.30000000000001</ele>
        <time>2017-10-30T11:39:03Z</time>
      </trkpt>
      <trkpt lat="52.133007980883121" lon="9.56302204169333">
        <ele>145.78</ele>
        <time>2017-10-30T11:39:04Z</time>
      </trkpt>
      <trkpt lat="52.132812011986971" lon="9.562880974262953">
        <ele>146.25999999999999</ele>
        <time>2017-10-30T11:39:06Z</time>
      </trkpt>
      <trkpt lat="52.132711010053754" lon="9.562807967886329">
        <ele>146.25999999999999</ele>
        <time>2017-10-30T11:39:07Z</time>
      </trkpt>
      <trkpt lat="52.13238101452589" lon="9.562686011195183">
        <ele>147.69999999999999</ele>
        <time>2017-10-30T11:39:10Z</time>
      </trkpt>
      <trkpt lat="52.132272971794009" lon="9.562688022851944">
        <ele>148.18000000000001</ele>
        <time>2017-10-30T11:39:11Z</time>
      </trkpt>
      <trkpt lat="52.132159983739257" lon="9.562707971781492">
        <ele>148.18000000000001</ele>
        <time>2017-10-30T11:39:12Z</time>
      </trkpt>
      <trkpt lat="52.132050013169646" lon="9.562728004530072">
        <ele>148.18000000000001</ele>
        <time>2017-10-30T11:39:13Z</time>
      </trkpt>
      <trkpt lat="52.131946999579668" lon="9.562747031450272">
        <ele>148.18000000000001</ele>
        <time>2017-10-30T11:39:14Z</time>
      </trkpt>
      <trkpt lat="52.131851026788354" lon="9.562754994258285">
        <ele>148.18000000000001</ele>
        <time>2017-10-30T11:39:15Z</time>
      </trkpt>
      <trkpt lat="52.13177802041173" lon="9.562718030065298">
        <ele>148.18000000000001</ele>
        <time>2017-10-30T11:39:16Z</time>
      </trkpt>
      <trkpt lat="52.131709037348628" lon="9.562636977061629">
        <ele>148.18000000000001</ele>
        <time>2017-10-30T11:39:17Z</time>
      </trkpt>
      <trkpt lat="52.131661009043455" lon="9.562534969300032">
        <ele>148.18000000000001</ele>
        <time>2017-10-30T11:39:18Z</time>
      </trkpt>
      <trkpt lat="52.131608035415411" lon="9.562421981245279">
        <ele>148.18000000000001</ele>
        <time>2017-10-30T11:39:19Z</time>
      </trkpt>
      <trkpt lat="52.131185000762343" lon="9.561516987159848">
        <ele>148.18000000000001</ele>
        <time>2017-10-30T11:39:26Z</time>
      </trkpt>
      <trkpt lat="52.131120963022113" lon="9.561381032690406">
        <ele>148.18000000000001</ele>
        <time>2017-10-30T11:39:27Z</time>
      </trkpt>
      <trkpt lat="52.131104031577706" lon="9.561214987188578">
        <ele>148.18000000000001</ele>
        <time>2017-10-30T11:39:28Z</time>
      </trkpt>
      <trkpt lat="52.131091961637139" lon="9.561049025505781">
        <ele>148.66</ele>
        <time>2017-10-30T11:39:29Z</time>
      </trkpt>
      <trkpt lat="52.131079975515604" lon="9.560888009145856">
        <ele>148.66</ele>
        <time>2017-10-30T11:39:30Z</time>
      </trkpt>
      <trkpt lat="52.131068995222449" lon="9.560730010271072">
        <ele>148.66</ele>
        <time>2017-10-30T11:39:31Z</time>
      </trkpt>
      <trkpt lat="52.131040999665856" lon="9.56042499281466">
        <ele>148.66</ele>
        <time>2017-10-30T11:39:33Z</time>
      </trkpt>
      <trkpt lat="52.131008980795741" lon="9.56027302891016">
        <ele>148.66</ele>
        <time>2017-10-30T11:39:34Z</time>
      </trkpt>
      <trkpt lat="52.130966987460852" lon="9.560141013935208">
        <ele>148.66</ele>
        <time>2017-10-30T11:39:35Z</time>
      </trkpt>
      <trkpt lat="52.130889035761356" lon="9.560042023658752">
        <ele>148.66</ele>
        <time>2017-10-30T11:39:36Z</time>
      </trkpt>
      <trkpt lat="52.130806976929307" lon="9.559936998412013">
        <ele>148.18000000000001</ele>
        <time>2017-10-30T11:39:37Z</time>
      </trkpt>
      <trkpt lat="52.130720978602767" lon="9.559827027842403">
        <ele>148.18000000000001</ele>
        <time>2017-10-30T11:39:38Z</time>
      </trkpt>
      <trkpt lat="52.130600027740002" lon="9.559671962633729">
        <ele>148.66</ele>
        <time>2017-10-30T11:39:39Z</time>
      </trkpt>
      <trkpt lat="52.130521992221475" lon="9.559602979570627">
        <ele>149.13999999999999</ele>
        <time>2017-10-30T11:39:40Z</time>
      </trkpt>
      <trkpt lat="52.130401963368058" lon="9.559496026486158">
        <ele>149.62</ele>
        <time>2017-10-30T11:39:41Z</time>
      </trkpt>
      <trkpt lat="52.12922397069633" lon="9.558692034333944">
        <ele>147.22</ele>
        <time>2017-10-30T11:39:48Z</time>
      </trkpt>
      <trkpt lat="52.127914968878031" lon="9.558141008019447">
        <ele>145.78</ele>
        <time>2017-10-30T11:39:54Z</time>
      </trkpt>
      <trkpt lat="52.127709025517106" lon="9.557983009144664">
        <ele>146.25999999999999</ele>
        <time>2017-10-30T11:39:55Z</time>
      </trkpt>
      <trkpt lat="52.127515990287066" lon="9.557789973914623">
        <ele>146.74000000000001</ele>
        <time>2017-10-30T11:39:56Z</time>
      </trkpt>
      <trkpt lat="52.126046977937222" lon="9.556075036525726">
        <ele>150.09999999999999</ele>
        <time>2017-10-30T11:40:04Z</time>
      </trkpt>
      <trkpt lat="52.124889018014073" lon="9.554719012230635">
        <ele>147.69999999999999</ele>
        <time>2017-10-30T11:40:11Z</time>
      </trkpt>
      <trkpt lat="52.123297965154052" lon="9.552807016298175">
        <ele>143.84999999999999</ele>
        <time>2017-10-30T11:40:22Z</time>
      </trkpt>
      <trkpt lat="52.12322898209095" lon="9.552632002159953">
        <ele>143.37</ele>
        <time>2017-10-30T11:40:23Z</time>
      </trkpt>
      <trkpt lat="52.123181037604809" lon="9.552434021607041">
        <ele>143.37</ele>
        <time>2017-10-30T11:40:24Z</time>
      </trkpt>
      <trkpt lat="52.123130997642875" lon="9.552230006083846">
        <ele>142.88999999999999</ele>
        <time>2017-10-30T11:40:25Z</time>
      </trkpt>
      <trkpt lat="52.123079029843211" lon="9.552017021924257">
        <ele>142.88999999999999</ele>
        <time>2017-10-30T11:40:26Z</time>
      </trkpt>
      <trkpt lat="52.122718021273613" lon="9.549949960783124">
        <ele>140.49000000000001</ele>
        <time>2017-10-30T11:40:36Z</time>
      </trkpt>
      <trkpt lat="52.122542001307011" lon="9.549078997224569">
        <ele>140.00999999999999</ele>
        <time>2017-10-30T11:40:42Z</time>
      </trkpt>
      <trkpt lat="52.122510988265276" lon="9.548953017219901">
        <ele>140.00999999999999</ele>
        <time>2017-10-30T11:40:43Z</time>
      </trkpt>
      <trkpt lat="52.122179986909032" lon="9.548243992030621">
        <ele>137.61000000000001</ele>
        <time>2017-10-30T11:40:51Z</time>
      </trkpt>
      <trkpt lat="52.122179986909032" lon="9.548243992030621">
        <ele>137.13</ele>
        <time>2017-10-30T11:40:52Z</time>
      </trkpt>
      <trkpt lat="52.122102035209537" lon="9.548084987327457">
        <ele>137.61000000000001</ele>
        <time>2017-10-30T11:40:57Z</time>
      </trkpt>
      <trkpt lat="52.122065993025899" lon="9.548098985105753">
        <ele>137.61000000000001</ele>
        <time>2017-10-30T11:40:58Z</time>
      </trkpt>
      <trkpt lat="52.121412958949804" lon="9.548305012285709">
        <ele>136.63999999999999</ele>
        <time>2017-10-30T11:41:05Z</time>
      </trkpt>
      <trkpt lat="52.120708040893078" lon="9.548407020047307">
        <ele>135.68000000000001</ele>
        <time>2017-10-30T11:41:12Z</time>
      </trkpt>
      <trkpt lat="52.120443005114794" lon="9.548378018662334">
        <ele>136.63999999999999</ele>
        <time>2017-10-30T11:41:15Z</time>
      </trkpt>
      <trkpt lat="52.12034996598959" lon="9.548367960378528">
        <ele>137.13</ele>
        <time>2017-10-30T11:41:16Z</time>
      </trkpt>
      <trkpt lat="52.120258016511798" lon="9.548357985913754">
        <ele>137.13</ele>
        <time>2017-10-30T11:41:17Z</time>
      </trkpt>
      <trkpt lat="52.120166989043355" lon="9.548348011448979">
        <ele>137.13</ele>
        <time>2017-10-30T11:41:18Z</time>
      </trkpt>
      <trkpt lat="52.120079984888434" lon="9.548338958993554">
        <ele>137.13</ele>
        <time>2017-10-30T11:41:19Z</time>
      </trkpt>
      <trkpt lat="52.120000021532178" lon="9.548329990357161">
        <ele>137.13</ele>
        <time>2017-10-30T11:41:20Z</time>
      </trkpt>
      <trkpt lat="52.119842022657394" lon="9.548296965658665">
        <ele>136.16</ele>
        <time>2017-10-30T11:41:22Z</time>
      </trkpt>
      <trkpt lat="52.119681006297469" lon="9.548267964273691">
        <ele>135.19999999999999</ele>
        <time>2017-10-30T11:41:24Z</time>
      </trkpt>
      <trkpt lat="52.11959701962769" lon="9.548258995637298">
        <ele>134.72</ele>
        <time>2017-10-30T11:41:25Z</time>
      </trkpt>
      <trkpt lat="52.119520995765924" lon="9.548281040042639">
        <ele>134.24000000000001</ele>
        <time>2017-10-30T11:41:26Z</time>
      </trkpt>
      <trkpt lat="52.119442038238049" lon="9.548321021720767">
        <ele>134.72</ele>
        <time>2017-10-30T11:41:27Z</time>
      </trkpt>
      <trkpt lat="52.119367020204663" lon="9.548384975641966">
        <ele>134.24000000000001</ele>
        <time>2017-10-30T11:41:28Z</time>
      </trkpt>
      <trkpt lat="52.119290996342897" lon="9.548450019210577">
        <ele>134.24000000000001</ele>
        <time>2017-10-30T11:41:29Z</time>
      </trkpt>
      <trkpt lat="52.119183959439397" lon="9.548535011708736">
        <ele>134.24000000000001</ele>
        <time>2017-10-30T11:41:30Z</time>
      </trkpt>
      <trkpt lat="52.118804007768631" lon="9.548957040533423">
        <ele>133.75999999999999</ele>
        <time>2017-10-30T11:41:35Z</time>
      </trkpt>
      <trkpt lat="52.118725972250104" lon="9.549043960869312">
        <ele>133.75999999999999</ele>
        <time>2017-10-30T11:41:36Z</time>
      </trkpt>
      <trkpt lat="52.11856696754694" lon="9.549210006371141">
        <ele>133.75999999999999</ele>
        <time>2017-10-30T11:41:38Z</time>
      </trkpt>
      <trkpt lat="52.117688963189721" lon="9.549941997975111">
        <ele>135.19999999999999</ele>
        <time>2017-10-30T11:41:50Z</time>
      </trkpt>
      <trkpt lat="52.117673037573695" lon="9.549954989925027">
        <ele>135.19999999999999</ele>
        <time>2017-10-30T11:41:51Z</time>
      </trkpt>
      <trkpt lat="52.117605982348323" lon="9.550013998523355">
        <ele>135.19999999999999</ele>
        <time>2017-10-30T11:42:02Z</time>
      </trkpt>
      <trkpt lat="52.117566000670195" lon="9.550153976306319">
        <ele>135.19999999999999</ele>
        <time>2017-10-30T11:42:03Z</time>
      </trkpt>
      <trkpt lat="52.117581004276872" lon="9.550267970189452">
        <ele>135.19999999999999</ele>
        <time>2017-10-30T11:42:04Z</time>
      </trkpt>
      <trkpt lat="52.117596007883549" lon="9.550410965457559">
        <ele>135.19999999999999</ele>
        <time>2017-10-30T11:42:05Z</time>
      </trkpt>
      <trkpt lat="52.117596007883549" lon="9.550555972382426">
        <ele>134.72</ele>
        <time>2017-10-30T11:42:06Z</time>
      </trkpt>
      <trkpt lat="52.117559965699911" lon="9.551752991974354">
        <ele>132.80000000000001</ele>
        <time>2017-10-30T11:42:13Z</time>
      </trkpt>
      <trkpt lat="52.117540016770363" lon="9.551896993070841">
        <ele>132.80000000000001</ele>
        <time>2017-10-30T11:42:14Z</time>
      </trkpt>
      <trkpt lat="52.117492994293571" lon="9.552019033581018">
        <ele>132.80000000000001</ele>
        <time>2017-10-30T11:42:15Z</time>
      </trkpt>
      <trkpt lat="52.117446977645159" lon="9.552141996100545">
        <ele>132.80000000000001</ele>
        <time>2017-10-30T11:42:16Z</time>
      </trkpt>
      <trkpt lat="52.117398027330637" lon="9.552269987761974">
        <ele>132.80000000000001</ele>
        <time>2017-10-30T11:42:17Z</time>
      </trkpt>
      <trkpt lat="52.116823028773069" lon="9.553781999275088">
        <ele>132.31999999999999</ele>
        <time>2017-10-30T11:42:26Z</time>
      </trkpt>
      <trkpt lat="52.115963967517018" lon="9.55602097325027">
        <ele>130.88</ele>
        <time>2017-10-30T11:42:37Z</time>
      </trkpt>
      <trkpt lat="52.114942967891693" lon="9.55836296081543">
        <ele>129.91999999999999</ele>
        <time>2017-10-30T11:42:46Z</time>
      </trkpt>
      <trkpt lat="52.113331966102123" lon="9.560865964740515">
        <ele>127.98999999999999</ele>
        <time>2017-10-30T11:42:57Z</time>
      </trkpt>
      <trkpt lat="52.112117009237409" lon="9.562810985371471">
        <ele>126.55</ele>
        <time>2017-10-30T11:43:06Z</time>
      </trkpt>
      <trkpt lat="52.111547961831093" lon="9.564052009955049">
        <ele>126.06999999999999</ele>
        <time>2017-10-30T11:43:13Z</time>
      </trkpt>
      <trkpt lat="52.111202040687203" lon="9.565187003463507">
        <ele>124.15000000000001</ele>
        <time>2017-10-30T11:43:20Z</time>
      </trkpt>
      <trkpt lat="52.111162981018424" lon="9.565377021208406">
        <ele>123.19</ele>
        <time>2017-10-30T11:43:21Z</time>
      </trkpt>
      <trkpt lat="52.111058961600065" lon="9.565889993682504">
        <ele>121.73999999999999</ele>
        <time>2017-10-30T11:43:24Z</time>
      </trkpt>
      <trkpt lat="52.11102400906384" lon="9.566062996163964">
        <ele>121.73999999999999</ele>
        <time>2017-10-30T11:43:25Z</time>
      </trkpt>
      <trkpt lat="52.110683033242822" lon="9.567417008802295">
        <ele>122.22</ele>
        <time>2017-10-30T11:43:33Z</time>
      </trkpt>
      <trkpt lat="52.110618995502591" lon="9.56757802516222">
        <ele>122.70999999999999</ele>
        <time>2017-10-30T11:43:34Z</time>
      </trkpt>
      <trkpt lat="52.110555041581392" lon="9.567738035693765">
        <ele>122.70999999999999</ele>
        <time>2017-10-30T11:43:35Z</time>
      </trkpt>
      <trkpt lat="52.110492009669542" lon="9.567894022911787">
        <ele>122.70999999999999</ele>
        <time>2017-10-30T11:43:36Z</time>
      </trkpt>
      <trkpt lat="52.110420009121299" lon="9.568036012351513">
        <ele>122.70999999999999</ele>
        <time>2017-10-30T11:43:37Z</time>
      </trkpt>
      <trkpt lat="52.110328981652856" lon="9.568152017891407">
        <ele>122.70999999999999</ele>
        <time>2017-10-30T11:43:38Z</time>
      </trkpt>
      <trkpt lat="52.110238960012794" lon="9.568267017602921">
        <ele>122.70999999999999</ele>
        <time>2017-10-30T11:43:39Z</time>
      </trkpt>
      <trkpt lat="52.109218966215849" lon="9.569047037512064">
        <ele>122.22</ele>
        <time>2017-10-30T11:43:49Z</time>
      </trkpt>
      <trkpt lat="52.109116958454251" lon="9.569129012525082">
        <ele>122.22</ele>
        <time>2017-10-30T11:43:50Z</time>
      </trkpt>
      <trkpt lat="52.108916966244578" lon="9.569298997521401">
        <ele>121.73999999999999</ele>
        <time>2017-10-30T11:43:52Z</time>
      </trkpt>
      <trkpt lat="52.107976013794541" lon="9.57035000436008">
        <ele>122.70999999999999</ele>
        <time>2017-10-30T11:44:02Z</time>
      </trkpt>
      <trkpt lat="52.107885992154479" lon="9.57045997492969">
        <ele>123.19</ele>
        <time>2017-10-30T11:44:03Z</time>
      </trkpt>
      <trkpt lat="52.107794964686036" lon="9.570572040975094">
        <ele>122.70999999999999</ele>
        <time>2017-10-30T11:44:04Z</time>
      </trkpt>
      <trkpt lat="52.106871027499437" lon="9.571630004793406">
        <ele>124.15000000000001</ele>
        <time>2017-10-30T11:44:14Z</time>
      </trkpt>
      <trkpt lat="52.105972990393639" lon="9.573050988838077">
        <ele>124.63</ele>
        <time>2017-10-30T11:44:25Z</time>
      </trkpt>
      <trkpt lat="52.105896966531873" lon="9.573181997984648">
        <ele>124.15000000000001</ele>
        <time>2017-10-30T11:44:26Z</time>
      </trkpt>
      <trkpt lat="52.105003958567977" lon="9.574592001736164">
        <ele>124.15000000000001</ele>
        <time>2017-10-30T11:44:37Z</time>
      </trkpt>
      <trkpt lat="52.104185968637466" lon="9.575491966679692">
        <ele>125.11</ele>
        <time>2017-10-30T11:44:44Z</time>
      </trkpt>
      <trkpt lat="52.10404003970325" lon="9.575687013566494">
        <ele>124.63</ele>
        <time>2017-10-30T11:44:45Z</time>
      </trkpt>
      <trkpt lat="52.103902995586395" lon="9.575928999111056">
        <ele>124.63</ele>
        <time>2017-10-30T11:44:46Z</time>
      </trkpt>
      <trkpt lat="52.103766035288572" lon="9.576185988262296">
        <ele>124.63</ele>
        <time>2017-10-30T11:44:47Z</time>
      </trkpt>
      <trkpt lat="52.102640010416508" lon="9.578082980588079">
        <ele>127.98999999999999</ele>
        <time>2017-10-30T11:44:54Z</time>
      </trkpt>
      <trkpt lat="52.100727008655667" lon="9.580668965354562">
        <ele>127.51000000000001</ele>
        <time>2017-10-30T11:45:04Z</time>
      </trkpt>
      <trkpt lat="52.099008969962597" lon="9.582492029294372">
        <ele>124.63</ele>
        <time>2017-10-30T11:45:13Z</time>
      </trkpt>
      <trkpt lat="52.098356019705534" lon="9.583411021158099">
        <ele>124.63</ele>
        <time>2017-10-30T11:45:19Z</time>
      </trkpt>
      <trkpt lat="52.098234985023737" lon="9.583451002836227">
        <ele>124.63</ele>
        <time>2017-10-30T11:45:20Z</time>
      </trkpt>
      <trkpt lat="52.098139012232423" lon="9.583398029208183">
        <ele>124.63</ele>
        <time>2017-10-30T11:45:21Z</time>
      </trkpt>
      <trkpt lat="52.098016971722245" lon="9.583330973982811">
        <ele>124.63</ele>
        <time>2017-10-30T11:45:22Z</time>
      </trkpt>
      <trkpt lat="52.097877999767661" lon="9.583254028111696">
        <ele>124.63</ele>
        <time>2017-10-30T11:45:23Z</time>
      </trkpt>
      <trkpt lat="52.096596993505955" lon="9.58261800929904">
        <ele>125.59</ele>
        <time>2017-10-30T11:45:30Z</time>
      </trkpt>
      <trkpt lat="52.094547031447291" lon="9.581619976088405">
        <ele>128.47</ele>
        <time>2017-10-30T11:45:39Z</time>
      </trkpt>
      <trkpt lat="52.094149980694056" lon="9.581368016079068">
        <ele>129.43000000000001</ele>
        <time>2017-10-30T11:45:41Z</time>
      </trkpt>
      <trkpt lat="52.09396499209106" lon="9.581160983070731">
        <ele>130.40000000000001</ele>
        <time>2017-10-30T11:45:42Z</time>
      </trkpt>
      <trkpt lat="52.093776986002922" lon="9.580924026668072">
        <ele>130.88</ele>
        <time>2017-10-30T11:45:43Z</time>
      </trkpt>
      <trkpt lat="52.092129020020366" lon="9.578243996948004">
        <ele>134.24000000000001</ele>
        <time>2017-10-30T11:45:52Z</time>
      </trkpt>
      <trkpt lat="52.090668976306915" lon="9.575961017981172">
        <ele>138.09</ele>
        <time>2017-10-30T11:46:00Z</time>
      </trkpt>
      <trkpt lat="52.089268025010824" lon="9.573669992387295">
        <ele>142.41</ele>
        <time>2017-10-30T11:46:08Z</time>
      </trkpt>
      <trkpt lat="52.089111031964421" lon="9.573360029608011">
        <ele>142.88999999999999</ele>
        <time>2017-10-30T11:46:09Z</time>
      </trkpt>
      <trkpt lat="52.088195979595184" lon="9.57222000695765">
        <ele>142.41</ele>
        <time>2017-10-30T11:46:14Z</time>
      </trkpt>
      <trkpt lat="52.088017025962472" lon="9.572115987539291">
        <ele>141.93000000000001</ele>
        <time>2017-10-30T11:46:15Z</time>
      </trkpt>
      <trkpt lat="52.087822984904051" lon="9.572009034454823">
        <ele>141.93000000000001</ele>
        <time>2017-10-30T11:46:16Z</time>
      </trkpt>
      <trkpt lat="52.086652033030987" lon="9.571903003379703">
        <ele>139.05000000000001</ele>
        <time>2017-10-30T11:46:22Z</time>
      </trkpt>
      <trkpt lat="52.085426012054086" lon="9.572068965062499">
        <ele>136.63999999999999</ele>
        <time>2017-10-30T11:46:30Z</time>
      </trkpt>
      <trkpt lat="52.085106996819377" lon="9.572181031107903">
        <ele>135.68000000000001</ele>
        <time>2017-10-30T11:46:32Z</time>
      </trkpt>
      <trkpt lat="52.084950003772974" lon="9.572254037484527">
        <ele>135.19999999999999</ele>
        <time>2017-10-30T11:46:33Z</time>
      </trkpt>
      <trkpt lat="52.084787981584668" lon="9.572312040254474">
        <ele>134.72</ele>
        <time>2017-10-30T11:46:34Z</time>
      </trkpt>
      <trkpt lat="52.083719959482551" lon="9.572591995820403">
        <ele>132.31999999999999</ele>
        <time>2017-10-30T11:46:40Z</time>
      </trkpt>
      <trkpt lat="52.08354402333498" lon="9.572671037167311">
        <ele>131.84</ele>
        <time>2017-10-30T11:46:41Z</time>
      </trkpt>
      <trkpt lat="52.083368003368378" lon="9.572749994695187">
        <ele>131.36000000000001</ele>
        <time>2017-10-30T11:46:42Z</time>
      </trkpt>
      <trkpt lat="52.083192989230156" lon="9.572827024385333">
        <ele>130.88</ele>
        <time>2017-10-30T11:46:43Z</time>
      </trkpt>
      <trkpt lat="52.083015963435173" lon="9.572905981913209">
        <ele>130.40000000000001</ele>
        <time>2017-10-30T11:46:44Z</time>
      </trkpt>
      <trkpt lat="52.082838015630841" lon="9.572986029088497">
        <ele>129.91999999999999</ele>
        <time>2017-10-30T11:46:45Z</time>
      </trkpt>
      <trkpt lat="52.081402027979493" lon="9.573205970227718">
        <ele>130.40000000000001</ele>
        <time>2017-10-30T11:46:53Z</time>
      </trkpt>
      <trkpt lat="52.080618990585208" lon="9.573384001851082">
        <ele>133.28</ele>
        <time>2017-10-30T11:46:59Z</time>
      </trkpt>
      <trkpt lat="52.080503990873694" lon="9.573429012671113">
        <ele>133.75999999999999</ele>
        <time>2017-10-30T11:47:00Z</time>
      </trkpt>
      <trkpt lat="52.080297041684389" lon="9.57350998185575">
        <ele>134.24000000000001</ele>
        <time>2017-10-30T11:47:02Z</time>
      </trkpt>
      <trkpt lat="52.080145999789238" lon="9.573567984625697">
        <ele>134.24000000000001</ele>
        <time>2017-10-30T11:47:04Z</time>
      </trkpt>
      <trkpt lat="52.080089002847672" lon="9.573590029031038">
        <ele>134.24000000000001</ele>
        <time>2017-10-30T11:47:05Z</time>
      </trkpt>
      <trkpt lat="52.080047009512782" lon="9.573606960475445">
        <ele>134.24000000000001</ele>
        <time>2017-10-30T11:47:06Z</time>
      </trkpt>
      <trkpt lat="52.079936033114791" lon="9.573520962148905">
        <ele>134.24000000000001</ele>
        <time>2017-10-30T11:47:07Z</time>
      </trkpt>
      <trkpt lat="52.079920023679733" lon="9.573437981307507">
        <ele>134.24000000000001</ele>
        <time>2017-10-30T11:47:08Z</time>
      </trkpt>
      <trkpt lat="52.079897979274392" lon="9.573324993252754">
        <ele>133.75999999999999</ele>
        <time>2017-10-30T11:47:09Z</time>
      </trkpt>
      <trkpt lat="52.079868977889419" lon="9.573175041005015">
        <ele>134.24000000000001</ele>
        <time>2017-10-30T11:47:10Z</time>
      </trkpt>
      <trkpt lat="52.07959002815187" lon="9.571887999773026">
        <ele>135.19999999999999</ele>
        <time>2017-10-30T11:47:16Z</time>
      </trkpt>
      <trkpt lat="52.079236982390285" lon="9.569934010505676">
        <ele>137.61000000000001</ele>
        <time>2017-10-30T11:47:24Z</time>
      </trkpt>
      <trkpt lat="52.07903103902936" lon="9.569101016968489">
        <ele>139.53</ele>
        <time>2017-10-30T11:47:29Z</time>
      </trkpt>
      <trkpt lat="52.078982004895806" lon="9.568940000608563">
        <ele>140.00999999999999</ele>
        <time>2017-10-30T11:47:30Z</time>
      </trkpt>
      <trkpt lat="52.07834598608315" lon="9.567102016881108">
        <ele>142.41</ele>
        <time>2017-10-30T11:47:41Z</time>
      </trkpt>
      <trkpt lat="52.078050021082163" lon="9.565101005136967">
        <ele>147.22</ele>
        <time>2017-10-30T11:47:52Z</time>
      </trkpt>
      <trkpt lat="52.078026970848441" lon="9.564298018813133">
        <ele>148.66</ele>
        <time>2017-10-30T11:47:56Z</time>
      </trkpt>
      <trkpt lat="52.078021019697189" lon="9.564095009118319">
        <ele>148.66</ele>
        <time>2017-10-30T11:47:57Z</time>
      </trkpt>
      <trkpt lat="52.077880958095193" lon="9.561611032113433">
        <ele>154.91</ele>
        <time>2017-10-30T11:48:10Z</time>
      </trkpt>
      <trkpt lat="52.077636960893869" lon="9.559556962922216">
        <ele>161.16</ele>
        <time>2017-10-30T11:48:21Z</time>
      </trkpt>
      <trkpt lat="52.077598990872502" lon="9.559383038431406">
        <ele>161.63999999999999</ele>
        <time>2017-10-30T11:48:22Z</time>
      </trkpt>
      <trkpt lat="52.077537970617414" lon="9.559228979051113">
        <ele>162.12</ele>
        <time>2017-10-30T11:48:23Z</time>
      </trkpt>
      <trkpt lat="52.077472005039454" lon="9.559073997661471">
        <ele>163.08000000000001</ele>
        <time>2017-10-30T11:48:24Z</time>
      </trkpt>
      <trkpt lat="52.077397992834449" lon="9.558925973251462">
        <ele>163.56</ele>
        <time>2017-10-30T11:48:25Z</time>
      </trkpt>
      <trkpt lat="52.077320041134953" lon="9.558782977983356">
        <ele>164.52000000000001</ele>
        <time>2017-10-30T11:48:26Z</time>
      </trkpt>
      <trkpt lat="52.077257009223104" lon="9.558629002422094">
        <ele>165.47999999999999</ele>
        <time>2017-10-30T11:48:27Z</time>
      </trkpt>
      <trkpt lat="52.077210992574692" lon="9.558459017425776">
        <ele>166.44999999999999</ele>
        <time>2017-10-30T11:48:28Z</time>
      </trkpt>
      <trkpt lat="52.077190959826112" lon="9.55827796831727">
        <ele>167.41</ele>
        <time>2017-10-30T11:48:29Z</time>
      </trkpt>
      <trkpt lat="52.077190959826112" lon="9.558095997199416">
        <ele>168.84999999999999</ele>
        <time>2017-10-30T11:48:30Z</time>
      </trkpt>
      <trkpt lat="52.077190959826112" lon="9.557902039960027">
        <ele>169.81</ele>
        <time>2017-10-30T11:48:31Z</time>
      </trkpt>
      <trkpt lat="52.077190959826112" lon="9.556115018203855">
        <ele>176.06</ele>
        <time>2017-10-30T11:48:40Z</time>
      </trkpt>
      <trkpt lat="52.077190959826112" lon="9.555925000458956">
        <ele>176.06</ele>
        <time>2017-10-30T11:48:41Z</time>
      </trkpt>
      <trkpt lat="52.077190959826112" lon="9.555745040997863">
        <ele>176.53999999999999</ele>
        <time>2017-10-30T11:48:42Z</time>
      </trkpt>
      <trkpt lat="52.077190959826112" lon="9.555557034909725">
        <ele>177.02000000000001</ele>
        <time>2017-10-30T11:48:43Z</time>
      </trkpt>
      <trkpt lat="52.077242005616426" lon="9.5542580075562">
        <ele>182.31</ele>
        <time>2017-10-30T11:48:50Z</time>
      </trkpt>
      <trkpt lat="52.0772710070014" lon="9.553684014827013">
        <ele>185.19</ele>
        <time>2017-10-30T11:48:53Z</time>
      </trkpt>
      <trkpt lat="52.077276958152652" lon="9.553491985425353">
        <ele>185.66999999999999</ele>
        <time>2017-10-30T11:48:54Z</time>
      </trkpt>
      <trkpt lat="52.077265977859497" lon="9.553309008479118">
        <ele>186.15000000000001</ele>
        <time>2017-10-30T11:48:55Z</time>
      </trkpt>
      <trkpt lat="52.077238988131285" lon="9.5531199965626">
        <ele>186.63</ele>
        <time>2017-10-30T11:48:56Z</time>
      </trkpt>
      <trkpt lat="52.07718500867486" lon="9.55296702682972">
        <ele>187.11000000000001</ele>
        <time>2017-10-30T11:48:57Z</time>
      </trkpt>
      <trkpt lat="52.077118959277868" lon="9.552815984934568">
        <ele>187.11000000000001</ele>
        <time>2017-10-30T11:48:58Z</time>
      </trkpt>
      <trkpt lat="52.077030027285218" lon="9.552687993273139">
        <ele>187.59</ele>
        <time>2017-10-30T11:48:59Z</time>
      </trkpt>
      <trkpt lat="52.076926007866859" lon="9.552590008825064">
        <ele>188.08000000000001</ele>
        <time>2017-10-30T11:49:00Z</time>
      </trkpt>
      <trkpt lat="52.076807990670204" lon="9.55253703519702">
        <ele>188.08000000000001</ele>
        <time>2017-10-30T11:49:01Z</time>
      </trkpt>
      <trkpt lat="52.076681004837155" lon="9.55256100744009">
        <ele>188.56</ele>
        <time>2017-10-30T11:49:02Z</time>
      </trkpt>
      <trkpt lat="52.076563993468881" lon="9.552599983289838">
        <ele>189.03999999999999</ele>
        <time>2017-10-30T11:49:03Z</time>
      </trkpt>
      <trkpt lat="52.076446982100606" lon="9.55264700576663">
        <ele>189.03999999999999</ele>
        <time>2017-10-30T11:49:04Z</time>
      </trkpt>
      <trkpt lat="52.076343968510628" lon="9.552736021578312">
        <ele>189.52000000000001</ele>
        <time>2017-10-30T11:49:05Z</time>
      </trkpt>
      <trkpt lat="52.076236009597778" lon="9.552830988541246">
        <ele>190</ele>
        <time>2017-10-30T11:49:06Z</time>
      </trkpt>
      <trkpt lat="52.076016990467906" lon="9.553022012114525">
        <ele>190.96000000000001</ele>
        <time>2017-10-30T11:49:08Z</time>
      </trkpt>
      <trkpt lat="52.075909031555057" lon="9.553115973249078">
        <ele>190.96000000000001</ele>
        <time>2017-10-30T11:49:09Z</time>
      </trkpt>
      <trkpt lat="52.075804006308317" lon="9.553207000717521">
        <ele>190.96000000000001</ele>
        <time>2017-10-30T11:49:10Z</time>
      </trkpt>
      <trkpt lat="52.07570199854672" lon="9.553296016529203">
        <ele>191.44</ele>
        <time>2017-10-30T11:49:11Z</time>
      </trkpt>
      <trkpt lat="52.075599990785122" lon="9.553386960178614">
        <ele>191.91999999999999</ele>
        <time>2017-10-30T11:49:12Z</time>
      </trkpt>
      <trkpt lat="52.075204029679298" lon="9.553765989840031">
        <ele>193.36000000000001</ele>
        <time>2017-10-30T11:49:16Z</time>
      </trkpt>
      <trkpt lat="52.075104033574462" lon="9.553838996216655">
        <ele>193.84</ele>
        <time>2017-10-30T11:49:17Z</time>
      </trkpt>
      <trkpt lat="52.07499397918582" lon="9.553855005651712">
        <ele>194.80000000000001</ele>
        <time>2017-10-30T11:49:18Z</time>
      </trkpt>
      <trkpt lat="52.074195016175508" lon="9.553735982626677">
        <ele>199.61000000000001</ele>
        <time>2017-10-30T11:49:25Z</time>
      </trkpt>
      <trkpt lat="52.074098037555814" lon="9.553682003170252">
        <ele>200.56999999999999</ele>
        <time>2017-10-30T11:49:26Z</time>
      </trkpt>
      <trkpt lat="52.073994018137455" lon="9.553577983751893">
        <ele>201.05000000000001</ele>
        <time>2017-10-30T11:49:27Z</time>
      </trkpt>
      <trkpt lat="52.073960993438959" lon="9.553501037880778">
        <ele>202.00999999999999</ele>
        <time>2017-10-30T11:49:28Z</time>
      </trkpt>
      <trkpt lat="52.073946995660663" lon="9.553272966295481">
        <ele>202.49000000000001</ele>
        <time>2017-10-30T11:49:29Z</time>
      </trkpt>
      <trkpt lat="52.074007010087371" lon="9.553100969642401">
        <ele>202.97999999999999</ele>
        <time>2017-10-30T11:49:30Z</time>
      </trkpt>
      <trkpt lat="52.074082028120756" lon="9.552943976595998">
        <ele>203.46000000000001</ele>
        <time>2017-10-30T11:49:31Z</time>
      </trkpt>
      <trkpt lat="52.074170038104057" lon="9.552815984934568">
        <ele>203.94</ele>
        <time>2017-10-30T11:49:32Z</time>
      </trkpt>
      <trkpt lat="52.074252013117075" lon="9.552697967737913">
        <ele>204.90000000000001</ele>
        <time>2017-10-30T11:49:33Z</time>
      </trkpt>
      <trkpt lat="52.074281014502048" lon="9.55254097469151">
        <ele>205.38</ele>
        <time>2017-10-30T11:49:34Z</time>
      </trkpt>
      <trkpt lat="52.074310015887022" lon="9.552386999130249">
        <ele>205.86000000000001</ele>
        <time>2017-10-30T11:49:35Z</time>
      </trkpt>
      <trkpt lat="52.074288977310061" lon="9.552263030782342">
        <ele>206.34</ele>
        <time>2017-10-30T11:49:36Z</time>
      </trkpt>
      <trkpt lat="52.074239021167159" lon="9.552136966958642">
        <ele>206.81999999999999</ele>
        <time>2017-10-30T11:49:37Z</time>
      </trkpt>
      <trkpt lat="52.074145982041955" lon="9.552114000543952">
        <ele>207.30000000000001</ele>
        <time>2017-10-30T11:49:38Z</time>
      </trkpt>
      <trkpt lat="52.074069958180189" lon="9.552111988887191">
        <ele>208.25999999999999</ele>
        <time>2017-10-30T11:49:39Z</time>
      </trkpt>
      <trkpt lat="52.073995023965836" lon="9.552225982770324">
        <ele>208.74000000000001</ele>
        <time>2017-10-30T11:49:40Z</time>
      </trkpt>
      <trkpt lat="52.073916988447309" lon="9.552360009402037">
        <ele>209.22</ele>
        <time>2017-10-30T11:49:41Z</time>
      </trkpt>
      <trkpt lat="52.073831995949149" lon="9.552528988569975">
        <ele>210.19</ele>
        <time>2017-10-30T11:49:42Z</time>
      </trkpt>
      <trkpt lat="52.073635021224618" lon="9.55290500074625">
        <ele>211.63</ele>
        <time>2017-10-30T11:49:44Z</time>
      </trkpt>
      <trkpt lat="52.073506023734808" lon="9.553066017106175">
        <ele>212.11000000000001</ele>
        <time>2017-10-30T11:49:45Z</time>
      </trkpt>
      <trkpt lat="52.073379037901759" lon="9.553202977403998">
        <ele>213.06999999999999</ele>
        <time>2017-10-30T11:49:46Z</time>
      </trkpt>
      <trkpt lat="52.073262026533484" lon="9.553329041227698">
        <ele>214.03</ele>
        <time>2017-10-30T11:49:47Z</time>
      </trkpt>
      <trkpt lat="52.073155995458364" lon="9.553444040939212">
        <ele>214.50999999999999</ele>
        <time>2017-10-30T11:49:48Z</time>
      </trkpt>
      <trkpt lat="52.073072008788586" lon="9.553534984588623">
        <ele>214.99000000000001</ele>
        <time>2017-10-30T11:49:49Z</time>
      </trkpt>
      <trkpt lat="52.072994979098439" lon="9.553534984588623">
        <ele>215.47</ele>
        <time>2017-10-30T11:49:50Z</time>
      </trkpt>
      <trkpt lat="52.072900012135506" lon="9.553534984588623">
        <ele>215.94999999999999</ele>
        <time>2017-10-30T11:49:51Z</time>
      </trkpt>
      <trkpt lat="52.072872016578913" lon="9.553437000140548">
        <ele>216.43000000000001</ele>
        <time>2017-10-30T11:49:52Z</time>
      </trkpt>
      <trkpt lat="52.072881991043687" lon="9.553310014307499">
        <ele>216.91</ele>
        <time>2017-10-30T11:49:53Z</time>
      </trkpt>
      <trkpt lat="52.072917027398944" lon="9.553203983232379">
        <ele>217.40000000000001</ele>
        <time>2017-10-30T11:49:54Z</time>
      </trkpt>
      <trkpt lat="52.072971006855369" lon="9.553066017106175">
        <ele>217.88</ele>
        <time>2017-10-30T11:49:55Z</time>
      </trkpt>
      <trkpt lat="52.073037978261709" lon="9.552896032109857">
        <ele>217.88</ele>
        <time>2017-10-30T11:49:56Z</time>
      </trkpt>
      <trkpt lat="52.073603002354503" lon="9.55161402001977">
        <ele>221.24000000000001</ele>
        <time>2017-10-30T11:50:02Z</time>
      </trkpt>
      <trkpt lat="52.074078004807234" lon="9.550742972642183">
        <ele>225.09</ele>
        <time>2017-10-30T11:50:08Z</time>
      </trkpt>
      <trkpt lat="52.074127038940787" lon="9.550626967102289">
        <ele>226.05000000000001</ele>
        <time>2017-10-30T11:50:09Z</time>
      </trkpt>
      <trkpt lat="52.07411496900022" lon="9.550500987097621">
        <ele>226.53</ele>
        <time>2017-10-30T11:50:10Z</time>
      </trkpt>
      <trkpt lat="52.074080016463995" lon="9.55041297711432">
        <ele>226.53</ele>
        <time>2017-10-30T11:50:11Z</time>
      </trkpt>
      <trkpt lat="52.074037017300725" lon="9.550367966294289">
        <ele>227.00999999999999</ele>
        <time>2017-10-30T11:50:12Z</time>
      </trkpt>
      <trkpt lat="52.073969962075353" lon="9.550395961850882">
        <ele>227.49000000000001</ele>
        <time>2017-10-30T11:50:13Z</time>
      </trkpt>
      <trkpt lat="52.073882035911083" lon="9.5504330098629">
        <ele>227.97</ele>
        <time>2017-10-30T11:50:14Z</time>
      </trkpt>
      <trkpt lat="52.073782961815596" lon="9.550486989319325">
        <ele>228.93000000000001</ele>
        <time>2017-10-30T11:50:15Z</time>
      </trkpt>
      <trkpt lat="52.073676008731127" lon="9.550608024001122">
        <ele>229.41</ele>
        <time>2017-10-30T11:50:16Z</time>
      </trkpt>
      <trkpt lat="52.07355204038322" lon="9.550746995955706">
        <ele>230.37</ele>
        <time>2017-10-30T11:50:17Z</time>
      </trkpt>
      <trkpt lat="52.073412984609604" lon="9.550903989002109">
        <ele>231.33000000000001</ele>
        <time>2017-10-30T11:50:18Z</time>
      </trkpt>
      <trkpt lat="52.073263032361865" lon="9.551072968170047">
        <ele>232.30000000000001</ele>
        <time>2017-10-30T11:50:19Z</time>
      </trkpt>
      <trkpt lat="52.072600023820996" lon="9.551813006401062">
        <ele>235.66</ele>
        <time>2017-10-30T11:50:23Z</time>
      </trkpt>
      <trkpt lat="52.07104098983109" lon="9.552765022963285">
        <ele>247.19999999999999</ele>
        <time>2017-10-30T11:50:31Z</time>
      </trkpt>
      <trkpt lat="52.069842964410782" lon="9.552977001294494">
        <ele>256.81</ele>
        <time>2017-10-30T11:50:37Z</time>
      </trkpt>
      <trkpt lat="52.06968798302114" lon="9.55294699408114">
        <ele>258.25</ele>
        <time>2017-10-30T11:50:38Z</time>
      </trkpt>
      <trkpt lat="52.069543981924653" lon="9.552891002967954">
        <ele>260.17000000000002</ele>
        <time>2017-10-30T11:50:39Z</time>
      </trkpt>
      <trkpt lat="52.069413978606462" lon="9.552786983549595">
        <ele>261.62</ele>
        <time>2017-10-30T11:50:40Z</time>
      </trkpt>
      <trkpt lat="52.069295039400458" lon="9.552654968574643">
        <ele>262.57999999999998</ele>
        <time>2017-10-30T11:50:41Z</time>
      </trkpt>
      <trkpt lat="52.069180039688945" lon="9.552463022992015">
        <ele>264.01999999999998</ele>
        <time>2017-10-30T11:50:42Z</time>
      </trkpt>
      <trkpt lat="52.069057999178767" lon="9.552261019125581">
        <ele>265.45999999999998</ele>
        <time>2017-10-30T11:50:43Z</time>
      </trkpt>
      <trkpt lat="52.068775026127696" lon="9.551632963120937">
        <ele>269.31</ele>
        <time>2017-10-30T11:50:46Z</time>
      </trkpt>
      <trkpt lat="52.068705959245563" lon="9.551440011709929">
        <ele>270.75</ele>
        <time>2017-10-30T11:50:47Z</time>
      </trkpt>
      <trkpt lat="52.068653991445899" lon="9.551262985914946">
        <ele>272.19</ele>
        <time>2017-10-30T11:50:48Z</time>
      </trkpt>
      <trkpt lat="52.068617027252913" lon="9.551097024232149">
        <ele>273.63</ele>
        <time>2017-10-30T11:50:49Z</time>
      </trkpt>
      <trkpt lat="52.068587020039558" lon="9.550959980115295">
        <ele>274.58999999999997</ele>
        <time>2017-10-30T11:50:50Z</time>
      </trkpt>
      <trkpt lat="52.068523988127708" lon="9.550871970131993">
        <ele>276.04000000000002</ele>
        <time>2017-10-30T11:50:51Z</time>
      </trkpt>
      <trkpt lat="52.068479983136058" lon="9.550810027867556">
        <ele>277</ele>
        <time>2017-10-30T11:50:52Z</time>
      </trkpt>
      <trkpt lat="52.06839800812304" lon="9.550814973190427">
        <ele>277.95999999999998</ele>
        <time>2017-10-30T11:50:53Z</time>
      </trkpt>
      <trkpt lat="52.06831100396812" lon="9.55082000233233">
        <ele>278.92000000000002</ele>
        <time>2017-10-30T11:50:54Z</time>
      </trkpt>
      <trkpt lat="52.068232968449593" lon="9.550824025645852">
        <ele>279.39999999999998</ele>
        <time>2017-10-30T11:50:55Z</time>
      </trkpt>
      <trkpt lat="52.068155016750097" lon="9.550828970968723">
        <ele>279.88</ele>
        <time>2017-10-30T11:50:56Z</time>
      </trkpt>
      <trkpt lat="52.068115035071969" lon="9.550830982625485">
        <ele>280.36000000000001</ele>
        <time>2017-10-30T11:50:57Z</time>
      </trkpt>
      <trkpt lat="52.067996012046933" lon="9.550755964592099">
        <ele>280.83999999999997</ele>
        <time>2017-10-30T11:50:58Z</time>
      </trkpt>
      <trkpt lat="52.067912025377154" lon="9.550701985135675">
        <ele>281.31999999999999</ele>
        <time>2017-10-30T11:50:59Z</time>
      </trkpt>
      <trkpt lat="52.067841030657291" lon="9.550600983202457">
        <ele>281.80000000000001</ele>
        <time>2017-10-30T11:51:00Z</time>
      </trkpt>
      <trkpt lat="52.067771041765809" lon="9.550452958792448">
        <ele>282.27999999999997</ele>
        <time>2017-10-30T11:51:01Z</time>
      </trkpt>
      <trkpt lat="52.067696023732424" lon="9.550276016816497">
        <ele>282.27999999999997</ele>
        <time>2017-10-30T11:51:02Z</time>
      </trkpt>
      <trkpt lat="52.067639026790857" lon="9.550054986029863">
        <ele>282.27999999999997</ele>
        <time>2017-10-30T11:51:03Z</time>
      </trkpt>
      <trkpt lat="52.067601978778839" lon="9.549813000485301">
        <ele>282.27999999999997</ele>
        <time>2017-10-30T11:51:04Z</time>
      </trkpt>
      <trkpt lat="52.067574989050627" lon="9.549538996070623">
        <ele>282.27999999999997</ele>
        <time>2017-10-30T11:51:05Z</time>
      </trkpt>
      <trkpt lat="52.067412966862321" lon="9.547139005735517">
        <ele>280.36000000000001</ele>
        <time>2017-10-30T11:51:13Z</time>
      </trkpt>
      <trkpt lat="52.067374996840954" lon="9.546547997742891">
        <ele>278.92000000000002</ele>
        <time>2017-10-30T11:51:15Z</time>
      </trkpt>
      <trkpt lat="52.067347001284361" lon="9.546277010813355">
        <ele>277.95999999999998</ele>
        <time>2017-10-30T11:51:16Z</time>
      </trkpt>
      <trkpt lat="52.067296961322427" lon="9.5460070297122">
        <ele>277</ele>
        <time>2017-10-30T11:51:17Z</time>
      </trkpt>
      <trkpt lat="52.067242981866002" lon="9.545744005590677">
        <ele>275.56</ele>
        <time>2017-10-30T11:51:18Z</time>
      </trkpt>
      <trkpt lat="52.067168969660997" lon="9.545497996732593">
        <ele>274.11000000000001</ele>
        <time>2017-10-30T11:51:19Z</time>
      </trkpt>
      <trkpt lat="52.067075008526444" lon="9.545262968167663">
        <ele>272.67000000000002</ele>
        <time>2017-10-30T11:51:20Z</time>
      </trkpt>
      <trkpt lat="52.066962020471692" lon="9.545056018978357">
        <ele>270.75</ele>
        <time>2017-10-30T11:51:21Z</time>
      </trkpt>
      <trkpt lat="52.066232962533832" lon="9.543472006917">
        <ele>257.76999999999998</ele>
        <time>2017-10-30T11:51:28Z</time>
      </trkpt>
      <trkpt lat="52.06616397947073" lon="9.543187022209168">
        <ele>255.84999999999999</ele>
        <time>2017-10-30T11:51:29Z</time>
      </trkpt>
      <trkpt lat="52.065602978691459" lon="9.540553009137511">
        <ele>237.09999999999999</ele>
        <time>2017-10-30T11:51:37Z</time>
      </trkpt>
      <trkpt lat="52.064739977940917" lon="9.537235032767057">
        <ele>216.43000000000001</ele>
        <time>2017-10-30T11:51:47Z</time>
      </trkpt>
      <trkpt lat="52.063955012708902" lon="9.533857963979244">
        <ele>201.53</ele>
        <time>2017-10-30T11:51:56Z</time>
      </trkpt>
      <trkpt lat="52.063169041648507" lon="9.529671035706997">
        <ele>194.31999999999999</ele>
        <time>2017-10-30T11:52:06Z</time>
      </trkpt>
      <trkpt lat="52.062755981460214" lon="9.527541026473045">
        <ele>190.96000000000001</ele>
        <time>2017-10-30T11:52:13Z</time>
      </trkpt>
      <trkpt lat="52.062614997848868" lon="9.527060994878411">
        <ele>190</ele>
        <time>2017-10-30T11:52:15Z</time>
      </trkpt>
      <trkpt lat="52.062524976208806" lon="9.526845999062061">
        <ele>189.52000000000001</ele>
        <time>2017-10-30T11:52:16Z</time>
      </trkpt>
      <trkpt lat="52.062435960397124" lon="9.526631003245711">
        <ele>188.56</ele>
        <time>2017-10-30T11:52:17Z</time>
      </trkpt>
      <trkpt lat="52.061759037896991" lon="9.525309009477496">
        <ele>185.19</ele>
        <time>2017-10-30T11:52:25Z</time>
      </trkpt>
      <trkpt lat="52.061707992106676" lon="9.525199960917234">
        <ele>184.22999999999999</ele>
        <time>2017-10-30T11:52:26Z</time>
      </trkpt>
      <trkpt lat="52.061432981863618" lon="9.524424970149994">
        <ele>180.87</ele>
        <time>2017-10-30T11:52:35Z</time>
      </trkpt>
      <trkpt lat="52.061196025460958" lon="9.523675963282585">
        <ele>179.90000000000001</ele>
        <time>2017-10-30T11:52:40Z</time>
      </trkpt>
      <trkpt lat="52.060586996376514" lon="9.521778970956802">
        <ele>177.5</ele>
        <time>2017-10-30T11:52:47Z</time>
      </trkpt>
      <trkpt lat="52.059390982612967" lon="9.518049024045467">
        <ele>169.81</ele>
        <time>2017-10-30T11:52:58Z</time>
      </trkpt>
      <trkpt lat="52.058356991037726" lon="9.514781003817916">
        <ele>168.84999999999999</ele>
        <time>2017-10-30T11:53:06Z</time>
      </trkpt>
      <trkpt lat="52.057442022487521" lon="9.511666037142277">
        <ele>171.72999999999999</ele>
        <time>2017-10-30T11:53:13Z</time>
      </trkpt>
      <trkpt lat="52.055925987660885" lon="9.506547963246703">
        <ele>189.52000000000001</ele>
        <time>2017-10-30T11:53:26Z</time>
      </trkpt>
      <trkpt lat="52.055153008550406" lon="9.504365986213088">
        <ele>196.72999999999999</ele>
        <time>2017-10-30T11:53:33Z</time>
      </trkpt>
      <trkpt lat="52.054880009964108" lon="9.503750000149012">
        <ele>200.09</ele>
        <time>2017-10-30T11:53:36Z</time>
      </trkpt>
      <trkpt lat="52.054788982495666" lon="9.503609016537666">
        <ele>201.05000000000001</ele>
        <time>2017-10-30T11:53:37Z</time>
      </trkpt>
      <trkpt lat="52.054682029411197" lon="9.503516983240843">
        <ele>202.00999999999999</ele>
        <time>2017-10-30T11:53:38Z</time>
      </trkpt>
      <trkpt lat="52.054574992507696" lon="9.503496028482914">
        <ele>202.49000000000001</ele>
        <time>2017-10-30T11:53:39Z</time>
      </trkpt>
      <trkpt lat="52.054445995017886" lon="9.50355302542448">
        <ele>202.97999999999999</ele>
        <time>2017-10-30T11:53:40Z</time>
      </trkpt>
      <trkpt lat="52.054313980042934" lon="9.503612034022808">
        <ele>203.46000000000001</ele>
        <time>2017-10-30T11:53:41Z</time>
      </trkpt>
      <trkpt lat="52.054169978946447" lon="9.503675987944007">
        <ele>204.41999999999999</ele>
        <time>2017-10-30T11:53:42Z</time>
      </trkpt>
      <trkpt lat="52.053045965731144" lon="9.504174962639809">
        <ele>209.69999999999999</ele>
        <time>2017-10-30T11:53:48Z</time>
      </trkpt>
      <trkpt lat="52.052050027996302" lon="9.504502024501562">
        <ele>215.47</ele>
        <time>2017-10-30T11:53:54Z</time>
      </trkpt>
      <trkpt lat="52.051893034949899" lon="9.504525996744633">
        <ele>216.43000000000001</ele>
        <time>2017-10-30T11:53:55Z</time>
      </trkpt>
      <trkpt lat="52.051755990833044" lon="9.504645019769669">
        <ele>216.91</ele>
        <time>2017-10-30T11:53:56Z</time>
      </trkpt>
      <trkpt lat="52.051608972251415" lon="9.504772005602717">
        <ele>217.88</ele>
        <time>2017-10-30T11:53:57Z</time>
      </trkpt>
      <trkpt lat="52.051465976983309" lon="9.504965962842107">
        <ele>218.36000000000001</ele>
        <time>2017-10-30T11:53:58Z</time>
      </trkpt>
      <trkpt lat="52.05131895840168" lon="9.505191016942263">
        <ele>218.84</ele>
        <time>2017-10-30T11:53:59Z</time>
      </trkpt>
      <trkpt lat="52.051162971183658" lon="9.505429985001683">
        <ele>219.31999999999999</ele>
        <time>2017-10-30T11:54:00Z</time>
      </trkpt>
      <trkpt lat="52.050303993746638" lon="9.506748039275408">
        <ele>222.19999999999999</ele>
        <time>2017-10-30T11:54:06Z</time>
      </trkpt>
      <trkpt lat="52.050009034574032" lon="9.507199991494417">
        <ele>223.16</ele>
        <time>2017-10-30T11:54:09Z</time>
      </trkpt>
      <trkpt lat="52.049918007105589" lon="9.507294036448002">
        <ele>223.63999999999999</ele>
        <time>2017-10-30T11:54:10Z</time>
      </trkpt>
      <trkpt lat="52.049836032092571" lon="9.507335023954511">
        <ele>223.63999999999999</ele>
        <time>2017-10-30T11:54:11Z</time>
      </trkpt>
      <trkpt lat="52.049743998795748" lon="9.507300993427634">
        <ele>224.12</ele>
        <time>2017-10-30T11:54:12Z</time>
      </trkpt>
      <trkpt lat="52.049679039046168" lon="9.507228992879391">
        <ele>224.61000000000001</ele>
        <time>2017-10-30T11:54:13Z</time>
      </trkpt>
      <trkpt lat="52.049624975770712" lon="9.507151963189244">
        <ele>224.61000000000001</ele>
        <time>2017-10-30T11:54:14Z</time>
      </trkpt>
      <trkpt lat="52.049593040719628" lon="9.507029000669718">
        <ele>224.61000000000001</ele>
        <time>2017-10-30T11:54:15Z</time>
      </trkpt>
      <trkpt lat="52.049584994092584" lon="9.506877958774567">
        <ele>224.61000000000001</ele>
        <time>2017-10-30T11:54:16Z</time>
      </trkpt>
      <trkpt lat="52.049620030447841" lon="9.506717026233673">
        <ele>224.61000000000001</ele>
        <time>2017-10-30T11:54:17Z</time>
      </trkpt>
      <trkpt lat="52.04968398436904" lon="9.506545029580593">
        <ele>224.61000000000001</ele>
        <time>2017-10-30T11:54:18Z</time>
      </trkpt>
      <trkpt lat="52.049759002402425" lon="9.50634696520865">
        <ele>224.61000000000001</ele>
        <time>2017-10-30T11:54:19Z</time>
      </trkpt>
      <trkpt lat="52.049840977415442" lon="9.50612903572619">
        <ele>224.61000000000001</ele>
        <time>2017-10-30T11:54:20Z</time>
      </trkpt>
      <trkpt lat="52.050087992101908" lon="9.505468960851431">
        <ele>223.63999999999999</ele>
        <time>2017-10-30T11:54:23Z</time>
      </trkpt>
      <trkpt lat="52.050115987658501" lon="9.505241978913546">
        <ele>223.16</ele>
        <time>2017-10-30T11:54:24Z</time>
      </trkpt>
      <trkpt lat="52.050121016800404" lon="9.505004016682506">
        <ele>222.68000000000001</ele>
        <time>2017-10-30T11:54:25Z</time>
      </trkpt>
      <trkpt lat="52.050125962123275" lon="9.504764964804053">
        <ele>222.19999999999999</ele>
        <time>2017-10-30T11:54:26Z</time>
      </trkpt>
      <trkpt lat="52.050131997093558" lon="9.504519039765">
        <ele>221.72</ele>
        <time>2017-10-30T11:54:27Z</time>
      </trkpt>
      <trkpt lat="52.05015798099339" lon="9.504272025078535">
        <ele>220.75999999999999</ele>
        <time>2017-10-30T11:54:28Z</time>
      </trkpt>
      <trkpt lat="52.050188994035125" lon="9.504035990685225">
        <ele>220.28</ele>
        <time>2017-10-30T11:54:29Z</time>
      </trkpt>
      <trkpt lat="52.050239033997059" lon="9.503655033186078">
        <ele>218.84</ele>
        <time>2017-10-30T11:54:31Z</time>
      </trkpt>
      <trkpt lat="52.050217995420098" lon="9.50348898768425">
        <ele>217.88</ele>
        <time>2017-10-30T11:54:32Z</time>
      </trkpt>
      <trkpt lat="52.05017801374197" lon="9.503312967717648">
        <ele>216.91</ele>
        <time>2017-10-30T11:54:33Z</time>
      </trkpt>
      <trkpt lat="52.050096038728952" lon="9.503179024904966">
        <ele>216.43000000000001</ele>
        <time>2017-10-30T11:54:34Z</time>
      </trkpt>
      <trkpt lat="52.050014985725284" lon="9.503046004101634">
        <ele>215.47</ele>
        <time>2017-10-30T11:54:35Z</time>
      </trkpt>
      <trkpt lat="52.049948014318943" lon="9.50290996581316">
        <ele>214.99000000000001</ele>
        <time>2017-10-30T11:54:36Z</time>
      </trkpt>
      <trkpt lat="52.04992001876235" lon="9.502750039100647">
        <ele>214.03</ele>
        <time>2017-10-30T11:54:37Z</time>
      </trkpt>
      <trkpt lat="52.049925969913602" lon="9.502577036619186">
        <ele>213.06999999999999</ele>
        <time>2017-10-30T11:54:38Z</time>
      </trkpt>
      <trkpt lat="52.049937034025788" lon="9.502174034714699">
        <ele>211.15000000000001</ele>
        <time>2017-10-30T11:54:40Z</time>
      </trkpt>
      <trkpt lat="52.049922030419111" lon="9.501956021413207">
        <ele>210.19</ele>
        <time>2017-10-30T11:54:41Z</time>
      </trkpt>
      <trkpt lat="52.049889005720615" lon="9.501734990626574">
        <ele>209.22</ele>
        <time>2017-10-30T11:54:42Z</time>
      </trkpt>
      <trkpt lat="52.049819016829133" lon="9.501523012295365">
        <ele>208.25999999999999</ele>
        <time>2017-10-30T11:54:43Z</time>
      </trkpt>
      <trkpt lat="52.04972698353231" lon="9.501315979287028">
        <ele>207.30000000000001</ele>
        <time>2017-10-30T11:54:44Z</time>
      </trkpt>
      <trkpt lat="52.049637967720628" lon="9.501113975420594">
        <ele>206.34</ele>
        <time>2017-10-30T11:54:45Z</time>
      </trkpt>
      <trkpt lat="52.049521962180734" lon="9.500961005687714">
        <ele>205.38</ele>
        <time>2017-10-30T11:54:46Z</time>
      </trkpt>
      <trkpt lat="52.049408974125981" lon="9.500831002369523">
        <ele>204.41999999999999</ele>
        <time>2017-10-30T11:54:47Z</time>
      </trkpt>
      <trkpt lat="52.049303026869893" lon="9.500708039849997">
        <ele>203.94</ele>
        <time>2017-10-30T11:54:48Z</time>
      </trkpt>
      <trkpt lat="52.049204036593437" lon="9.500593962147832">
        <ele>202.97999999999999</ele>
        <time>2017-10-30T11:54:49Z</time>
      </trkpt>
      <trkpt lat="52.049142010509968" lon="9.500445015728474">
        <ele>202.49000000000001</ele>
        <time>2017-10-30T11:54:50Z</time>
      </trkpt>
      <trkpt lat="52.049088031053543" lon="9.500293973833323">
        <ele>202.00999999999999</ele>
        <time>2017-10-30T11:54:51Z</time>
      </trkpt>
      <trkpt lat="52.049075039103627" lon="9.500146033242345">
        <ele>201.53</ele>
        <time>2017-10-30T11:54:52Z</time>
      </trkpt>
      <trkpt lat="52.049065986648202" lon="9.499984011054039">
        <ele>201.05000000000001</ele>
        <time>2017-10-30T11:54:53Z</time>
      </trkpt>
      <trkpt lat="52.049071015790105" lon="9.499848978593946">
        <ele>200.09</ele>
        <time>2017-10-30T11:54:54Z</time>
      </trkpt>
      <trkpt lat="52.04910303466022" lon="9.499718975275755">
        <ele>199.13</ele>
        <time>2017-10-30T11:54:55Z</time>
      </trkpt>
      <trkpt lat="52.049164976924658" lon="9.49964496307075">
        <ele>198.16999999999999</ele>
        <time>2017-10-30T11:54:56Z</time>
      </trkpt>
      <trkpt lat="52.04923395998776" lon="9.499561982229352">
        <ele>197.21000000000001</ele>
        <time>2017-10-30T11:54:57Z</time>
      </trkpt>
      <trkpt lat="52.049306966364384" lon="9.499474978074431">
        <ele>196.72999999999999</ele>
        <time>2017-10-30T11:54:58Z</time>
      </trkpt>
      <trkpt lat="52.049381984397769" lon="9.499385040253401">
        <ele>195.77000000000001</ele>
        <time>2017-10-30T11:54:59Z</time>
      </trkpt>
      <trkpt lat="52.049448033794761" lon="9.49927699752152">
        <ele>194.80000000000001</ele>
        <time>2017-10-30T11:55:00Z</time>
      </trkpt>
      <trkpt lat="52.049462031573057" lon="9.499144982546568">
        <ele>193.84</ele>
        <time>2017-10-30T11:55:01Z</time>
      </trkpt>
      <trkpt lat="52.049451973289251" lon="9.499017996713519">
        <ele>192.88</ele>
        <time>2017-10-30T11:55:02Z</time>
      </trkpt>
      <trkpt lat="52.049429006874561" lon="9.498921018093824">
        <ele>191.91999999999999</ele>
        <time>2017-10-30T11:55:03Z</time>
      </trkpt>
      <trkpt lat="52.049365974962711" lon="9.498824961483479">
        <ele>190.96000000000001</ele>
        <time>2017-10-30T11:55:04Z</time>
      </trkpt>
      <trkpt lat="52.049290034919977" lon="9.498751033097506">
        <ele>190</ele>
        <time>2017-10-30T11:55:05Z</time>
      </trkpt>
      <trkpt lat="52.049182998016477" lon="9.498739968985319">
        <ele>189.52000000000001</ele>
        <time>2017-10-30T11:55:06Z</time>
      </trkpt>
      <trkpt lat="52.049057018011808" lon="9.498742986470461">
        <ele>188.56</ele>
        <time>2017-10-30T11:55:07Z</time>
      </trkpt>
      <trkpt lat="52.048917040228844" lon="9.498775005340576">
        <ele>187.59</ele>
        <time>2017-10-30T11:55:08Z</time>
      </trkpt>
      <trkpt lat="52.048767004162073" lon="9.498809035867453">
        <ele>187.11000000000001</ele>
        <time>2017-10-30T11:55:09Z</time>
      </trkpt>
      <trkpt lat="52.047877013683319" lon="9.499013973399997">
        <ele>180.87</ele>
        <time>2017-10-30T11:55:15Z</time>
      </trkpt>
      <trkpt lat="52.047775005921721" lon="9.499059990048409">
        <ele>179.90000000000001</ele>
        <time>2017-10-30T11:55:16Z</time>
      </trkpt>
      <trkpt lat="52.047698982059956" lon="9.49917197227478">
        <ele>179.41999999999999</ele>
        <time>2017-10-30T11:55:17Z</time>
      </trkpt>
      <trkpt lat="52.047551963478327" lon="9.499403983354569">
        <ele>177.02000000000001</ele>
        <time>2017-10-30T11:55:19Z</time>
      </trkpt>
      <trkpt lat="52.047511981800199" lon="9.499572962522507">
        <ele>176.06</ele>
        <time>2017-10-30T11:55:20Z</time>
      </trkpt>
      <trkpt lat="52.04747200012207" lon="9.499740013852716">
        <ele>175.09999999999999</ele>
        <time>2017-10-30T11:55:21Z</time>
      </trkpt>
      <trkpt lat="52.04745096154511" lon="9.499901030212641">
        <ele>174.62</ele>
        <time>2017-10-30T11:55:22Z</time>
      </trkpt>
      <trkpt lat="52.04745096154511" lon="9.500076966360211">
        <ele>173.66</ele>
        <time>2017-10-30T11:55:23Z</time>
      </trkpt>
      <trkpt lat="52.04745096154511" lon="9.500247035175562">
        <ele>173.16999999999999</ele>
        <time>2017-10-30T11:55:24Z</time>
      </trkpt>
      <trkpt lat="52.047504018992186" lon="9.50037301518023">
        <ele>172.21000000000001</ele>
        <time>2017-10-30T11:55:25Z</time>
      </trkpt>
      <trkpt lat="52.047576019540429" lon="9.500506035983563">
        <ele>171.25</ele>
        <time>2017-10-30T11:55:26Z</time>
      </trkpt>
      <trkpt lat="52.047654977068305" lon="9.50065003708005">
        <ele>170.77000000000001</ele>
        <time>2017-10-30T11:55:27Z</time>
      </trkpt>
      <trkpt lat="52.047742987051606" lon="9.500809963792563">
        <ele>169.81</ele>
        <time>2017-10-30T11:55:28Z</time>
      </trkpt>
      <trkpt lat="52.047827979549766" lon="9.500965029001236">
        <ele>169.33000000000001</ele>
        <time>2017-10-30T11:55:29Z</time>
      </trkpt>
      <trkpt lat="52.047910038381815" lon="9.501116992905736">
        <ele>169.33000000000001</ele>
        <time>2017-10-30T11:55:30Z</time>
      </trkpt>
      <trkpt lat="52.048057978972793" lon="9.501385968178511">
        <ele>168.84999999999999</ele>
        <time>2017-10-30T11:55:32Z</time>
      </trkpt>
      <trkpt lat="52.048103995621204" lon="9.501517983153462">
        <ele>168.37</ele>
        <time>2017-10-30T11:55:33Z</time>
      </trkpt>
      <trkpt lat="52.048138026148081" lon="9.501628959551454">
        <ele>168.37</ele>
        <time>2017-10-30T11:55:34Z</time>
      </trkpt>
      <trkpt lat="52.048127967864275" lon="9.501774972304702">
        <ele>167.88999999999999</ele>
        <time>2017-10-30T11:55:35Z</time>
      </trkpt>
      <trkpt lat="52.048120005056262" lon="9.501889972016215">
        <ele>167.88999999999999</ele>
        <time>2017-10-30T11:55:36Z</time>
      </trkpt>
      <trkpt lat="52.048084968701005" lon="9.501992985606194">
        <ele>167.41</ele>
        <time>2017-10-30T11:55:37Z</time>
      </trkpt>
      <trkpt lat="52.048052027821541" lon="9.502036990597844">
        <ele>167.41</ele>
        <time>2017-10-30T11:55:38Z</time>
      </trkpt>
      <trkpt lat="52.047962006181479" lon="9.502059035003185">
        <ele>166.93000000000001</ele>
        <time>2017-10-30T11:55:39Z</time>
      </trkpt>
      <trkpt lat="52.047880031168461" lon="9.502079989761114">
        <ele>166.93000000000001</ele>
        <time>2017-10-30T11:55:40Z</time>
      </trkpt>
      <trkpt lat="52.047801995649934" lon="9.502010000869632">
        <ele>166.44999999999999</ele>
        <time>2017-10-30T11:55:41Z</time>
      </trkpt>
      <trkpt lat="52.047710968181491" lon="9.501929031684995">
        <ele>165.96000000000001</ele>
        <time>2017-10-30T11:55:42Z</time>
      </trkpt>
      <trkpt lat="52.047612983733416" lon="9.501843033358455">
        <ele>166.44999999999999</ele>
        <time>2017-10-30T11:55:43Z</time>
      </trkpt>
      <trkpt lat="52.047518016770482" lon="9.501758962869644">
        <ele>166.44999999999999</ele>
        <time>2017-10-30T11:55:44Z</time>
      </trkpt>
      <trkpt lat="52.047159019857645" lon="9.501441037282348">
        <ele>165</ele>
        <time>2017-10-30T11:55:48Z</time>
      </trkpt>
      <trkpt lat="52.047060029581189" lon="9.501402983441949">
        <ele>164.52000000000001</ele>
        <time>2017-10-30T11:55:49Z</time>
      </trkpt>
      <trkpt lat="52.046957015991211" lon="9.501385968178511">
        <ele>164.03999999999999</ele>
        <time>2017-10-30T11:55:50Z</time>
      </trkpt>
      <trkpt lat="52.046847967430949" lon="9.501387979835272">
        <ele>164.03999999999999</ele>
        <time>2017-10-30T11:55:51Z</time>
      </trkpt>
      <trkpt lat="52.046751994639635" lon="9.501456962898374">
        <ele>163.56</ele>
        <time>2017-10-30T11:55:52Z</time>
      </trkpt>
      <trkpt lat="52.046669013798237" lon="9.501560982316732">
        <ele>163.08000000000001</ele>
        <time>2017-10-30T11:55:53Z</time>
      </trkpt>
      <trkpt lat="52.046592989936471" lon="9.501682016998529">
        <ele>162.59999999999999</ele>
        <time>2017-10-30T11:55:54Z</time>
      </trkpt>
      <trkpt lat="52.046516966074705" lon="9.501801962032914">
        <ele>161.63999999999999</ele>
        <time>2017-10-30T11:55:55Z</time>
      </trkpt>
      <trkpt lat="52.046458041295409" lon="9.501944035291672">
        <ele>160.68000000000001</ele>
        <time>2017-10-30T11:55:56Z</time>
      </trkpt>
      <trkpt lat="52.046443037688732" lon="9.502101028338075">
        <ele>160.19999999999999</ele>
        <time>2017-10-30T11:55:57Z</time>
      </trkpt>
      <trkpt lat="52.046467009931803" lon="9.502266990020871">
        <ele>159.72</ele>
        <time>2017-10-30T11:55:58Z</time>
      </trkpt>
      <trkpt lat="52.046491988003254" lon="9.502435969188809">
        <ele>159.24000000000001</ele>
        <time>2017-10-30T11:55:59Z</time>
      </trkpt>
      <trkpt lat="52.046518977731466" lon="9.502622969448566">
        <ele>159.24000000000001</ele>
        <time>2017-10-30T11:56:00Z</time>
      </trkpt>
      <trkpt lat="52.046546973288059" lon="9.502808963879943">
        <ele>159.24000000000001</ele>
        <time>2017-10-30T11:56:01Z</time>
      </trkpt>
      <trkpt lat="52.046559965237975" lon="9.502978026866913">
        <ele>158.75</ele>
        <time>2017-10-30T11:56:02Z</time>
      </trkpt>
      <trkpt lat="52.046567006036639" lon="9.50314499437809">
        <ele>158.75</ele>
        <time>2017-10-30T11:56:03Z</time>
      </trkpt>
      <trkpt lat="52.046529036015272" lon="9.503274997696281">
        <ele>158.75</ele>
        <time>2017-10-30T11:56:04Z</time>
      </trkpt>
      <trkpt lat="52.046492993831635" lon="9.503397038206458">
        <ele>158.27000000000001</ele>
        <time>2017-10-30T11:56:05Z</time>
      </trkpt>
      <trkpt lat="52.046437002718449" lon="9.503527041524649">
        <ele>158.27000000000001</ele>
        <time>2017-10-30T11:56:06Z</time>
      </trkpt>
      <trkpt lat="52.046373970806599" lon="9.503600969910622">
        <ele>158.75</ele>
        <time>2017-10-30T11:56:07Z</time>
      </trkpt>
      <trkpt lat="52.046287972480059" lon="9.503658972680569">
        <ele>158.75</ele>
        <time>2017-10-30T11:56:08Z</time>
      </trkpt>
      <trkpt lat="52.046212032437325" lon="9.50368101708591">
        <ele>159.24000000000001</ele>
        <time>2017-10-30T11:56:09Z</time>
      </trkpt>
      <trkpt lat="52.046133996918797" lon="9.503655033186078">
        <ele>159.24000000000001</ele>
        <time>2017-10-30T11:56:10Z</time>
      </trkpt>
      <trkpt lat="52.046069037169218" lon="9.503612034022808">
        <ele>159.24000000000001</ele>
        <time>2017-10-30T11:56:11Z</time>
      </trkpt>
      <trkpt lat="52.045995024964213" lon="9.503530981019139">
        <ele>159.72</ele>
        <time>2017-10-30T11:56:12Z</time>
      </trkpt>
      <trkpt lat="52.045910032466054" lon="9.503429979085922">
        <ele>159.72</ele>
        <time>2017-10-30T11:56:13Z</time>
      </trkpt>
      <trkpt lat="52.04523503780365" lon="9.502683989703655">
        <ele>157.31</ele>
        <time>2017-10-30T11:56:18Z</time>
      </trkpt>
      <trkpt lat="52.044329037889838" lon="9.501761980354786">
        <ele>151.06</ele>
        <time>2017-10-30T11:56:24Z</time>
      </trkpt>
      <trkpt lat="52.044238010421395" lon="9.501594007015228">
        <ele>150.09999999999999</ele>
        <time>2017-10-30T11:56:25Z</time>
      </trkpt>
      <trkpt lat="52.044174978509545" lon="9.50142502784729">
        <ele>149.13999999999999</ele>
        <time>2017-10-30T11:56:26Z</time>
      </trkpt>
      <trkpt lat="52.04411999322474" lon="9.501243978738785">
        <ele>148.18000000000001</ele>
        <time>2017-10-30T11:56:27Z</time>
      </trkpt>
      <trkpt lat="52.044073976576328" lon="9.501063013449311">
        <ele>147.22</ele>
        <time>2017-10-30T11:56:28Z</time>
      </trkpt>
      <trkpt lat="52.044029971584678" lon="9.500892022624612">
        <ele>146.25999999999999</ele>
        <time>2017-10-30T11:56:29Z</time>
      </trkpt>
      <trkpt lat="52.043748004361987" lon="9.499843027442694">
        <ele>140.00999999999999</ele>
        <time>2017-10-30T11:56:35Z</time>
      </trkpt>
      <trkpt lat="52.043692013248801" lon="9.499669019132853">
        <ele>139.05000000000001</ele>
        <time>2017-10-30T11:56:36Z</time>
      </trkpt>
      <trkpt lat="52.04298198223114" lon="9.497688040137291">
        <ele>132.31999999999999</ele>
        <time>2017-10-30T11:56:48Z</time>
      </trkpt>
      <trkpt lat="52.042503962293267" lon="9.496344001963735">
        <ele>129.91999999999999</ele>
        <time>2017-10-30T11:56:54Z</time>
      </trkpt>
      <trkpt lat="52.042204979807138" lon="9.495577979832888">
        <ele>127.98999999999999</ele>
        <time>2017-10-30T11:56:57Z</time>
      </trkpt>
      <trkpt lat="52.042096015065908" lon="9.495370024815202">
        <ele>127.51000000000001</ele>
        <time>2017-10-30T11:56:58Z</time>
      </trkpt>
      <trkpt lat="52.04197296872735" lon="9.495211020112038">
        <ele>127.03</ele>
        <time>2017-10-30T11:56:59Z</time>
      </trkpt>
      <trkpt lat="52.041849000379443" lon="9.495051009580493">
        <ele>126.06999999999999</ele>
        <time>2017-10-30T11:57:00Z</time>
      </trkpt>
      <trkpt lat="52.041694018989801" lon="9.494914971292019">
        <ele>125.59</ele>
        <time>2017-10-30T11:57:01Z</time>
      </trkpt>
      <trkpt lat="52.041533002629876" lon="9.494797037914395">
        <ele>125.11</ele>
        <time>2017-10-30T11:57:02Z</time>
      </trkpt>
      <trkpt lat="52.040744014084339" lon="9.494144003838301">
        <ele>122.22</ele>
        <time>2017-10-30T11:57:07Z</time>
      </trkpt>
      <trkpt lat="52.040628008544445" lon="9.493967983871698">
        <ele>121.26000000000001</ele>
        <time>2017-10-30T11:57:08Z</time>
      </trkpt>
      <trkpt lat="52.04051099717617" lon="9.493792969733477">
        <ele>120.3</ele>
        <time>2017-10-30T11:57:09Z</time>
      </trkpt>
      <trkpt lat="52.040405971929431" lon="9.493573028594255">
        <ele>118.86</ele>
        <time>2017-10-30T11:57:10Z</time>
      </trkpt>
      <trkpt lat="52.04031796194613" lon="9.493328025564551">
        <ele>118.38</ele>
        <time>2017-10-30T11:57:11Z</time>
      </trkpt>
      <trkpt lat="52.039464013651013" lon="9.491050997748971">
        <ele>110.69</ele>
        <time>2017-10-30T11:57:19Z</time>
      </trkpt>
      <trkpt lat="52.038433039560914" lon="9.489263975992799">
        <ele>108.29000000000001</ele>
        <time>2017-10-30T11:57:26Z</time>
      </trkpt>
      <trkpt lat="52.038262970745564" lon="9.489092985168099">
        <ele>108.29000000000001</ele>
        <time>2017-10-30T11:57:27Z</time>
      </trkpt>
      <trkpt lat="52.038079993799329" lon="9.488933980464935">
        <ele>108.29000000000001</ele>
        <time>2017-10-30T11:57:28Z</time>
      </trkpt>
      <trkpt lat="52.036672001704574" lon="9.487655991688371">
        <ele>108.29000000000001</ele>
        <time>2017-10-30T11:57:36Z</time>
      </trkpt>
      <trkpt lat="52.036551972851157" lon="9.487461028620601">
        <ele>108.29000000000001</ele>
        <time>2017-10-30T11:57:37Z</time>
      </trkpt>
      <trkpt lat="52.036465974524617" lon="9.487222982570529">
        <ele>108.29000000000001</ele>
        <time>2017-10-30T11:57:38Z</time>
      </trkpt>
      <trkpt lat="52.036405960097909" lon="9.486982002854347">
        <ele>108.29000000000001</ele>
        <time>2017-10-30T11:57:39Z</time>
      </trkpt>
      <trkpt lat="52.0363649725914" lon="9.486727025359869">
        <ele>108.29000000000001</ele>
        <time>2017-10-30T11:57:40Z</time>
      </trkpt>
      <trkpt lat="52.03632096759975" lon="9.486452015116811">
        <ele>108.29000000000001</ele>
        <time>2017-10-30T11:57:41Z</time>
      </trkpt>
      <trkpt lat="52.036274028941989" lon="9.486164012923837">
        <ele>108.29000000000001</ele>
        <time>2017-10-30T11:57:42Z</time>
      </trkpt>
      <trkpt lat="52.035918971523643" lon="9.483070001006126">
        <ele>105.40000000000001</ele>
        <time>2017-10-30T11:57:51Z</time>
      </trkpt>
      <trkpt lat="52.035269038751721" lon="9.477184982970357">
        <ele>94.829999999999998</ele>
        <time>2017-10-30T11:58:06Z</time>
      </trkpt>
      <trkpt lat="52.034651963040233" lon="9.473421005532146">
        <ele>93.870000000000005</ele>
        <time>2017-10-30T11:58:16Z</time>
      </trkpt>
      <trkpt lat="52.034179978072643" lon="9.470893023535609">
        <ele>92.900000000000006</ele>
        <time>2017-10-30T11:58:24Z</time>
      </trkpt>
      <trkpt lat="52.033738000318408" lon="9.468520022928715">
        <ele>90.019999999999996</ele>
        <time>2017-10-30T11:58:33Z</time>
      </trkpt>
      <trkpt lat="52.033510012552142" lon="9.467064002528787">
        <ele>85.209999999999994</ele>
        <time>2017-10-30T11:58:40Z</time>
      </trkpt>
      <trkpt lat="52.033428959548473" lon="9.465407989919186">
        <ele>81.370000000000005</ele>
        <time>2017-10-30T11:58:50Z</time>
      </trkpt>
      <trkpt lat="52.03333499841392" lon="9.464636016637087">
        <ele>80.409999999999997</ele>
        <time>2017-10-30T11:58:55Z</time>
      </trkpt>
      <trkpt lat="52.033309014514089" lon="9.464487992227078">
        <ele>80.409999999999997</ele>
        <time>2017-10-30T11:58:56Z</time>
      </trkpt>
      <trkpt lat="52.032945994287729" lon="9.46301001124084">
        <ele>80.409999999999997</ele>
        <time>2017-10-30T11:59:07Z</time>
      </trkpt>
      <trkpt lat="52.032810039818287" lon="9.462610026821494">
        <ele>80.409999999999997</ele>
        <time>2017-10-30T11:59:10Z</time>
      </trkpt>
      <trkpt lat="52.032768968492746" lon="9.462481029331684">
        <ele>80.890000000000001</ele>
        <time>2017-10-30T11:59:11Z</time>
      </trkpt>
      <trkpt lat="52.032691016793251" lon="9.462237032130361">
        <ele>81.370000000000005</ele>
        <time>2017-10-30T11:59:13Z</time>
      </trkpt>
      <trkpt lat="52.032523965463042" lon="9.46174199692905">
        <ele>81.849999999999994</ele>
        <time>2017-10-30T11:59:19Z</time>
      </trkpt>
      <trkpt lat="52.0323689840734" lon="9.461539993062615">
        <ele>82.329999999999998</ele>
        <time>2017-10-30T11:59:25Z</time>
      </trkpt>
      <trkpt lat="52.032318022102118" lon="9.461479978635907">
        <ele>82.329999999999998</ele>
        <time>2017-10-30T11:59:26Z</time>
      </trkpt>
      <trkpt lat="52.031785016879439" lon="9.461331032216549">
        <ele>80.890000000000001</ele>
        <time>2017-10-30T11:59:32Z</time>
      </trkpt>
      <trkpt lat="52.03170002438128" lon="9.461331032216549">
        <ele>80.409999999999997</ele>
        <time>2017-10-30T11:59:33Z</time>
      </trkpt>
      <trkpt lat="52.03159399330616" lon="9.461331032216549">
        <ele>79.930000000000007</ele>
        <time>2017-10-30T11:59:34Z</time>
      </trkpt>
      <trkpt lat="52.031516963616014" lon="9.46137897670269">
        <ele>79.930000000000007</ele>
        <time>2017-10-30T11:59:35Z</time>
      </trkpt>
      <trkpt lat="52.031429037451744" lon="9.461447959765792">
        <ele>79.930000000000007</ele>
        <time>2017-10-30T11:59:36Z</time>
      </trkpt>
      <trkpt lat="52.031240025535226" lon="9.461597995832562">
        <ele>79.450000000000003</ele>
        <time>2017-10-30T11:59:38Z</time>
      </trkpt>
      <trkpt lat="52.03060501255095" lon="9.462213981896639">
        <ele>81.370000000000005</ele>
        <time>2017-10-30T11:59:46Z</time>
      </trkpt>
      <trkpt lat="52.030571987852454" lon="9.462253963574767">
        <ele>81.849999999999994</ele>
        <time>2017-10-30T11:59:47Z</time>
      </trkpt>
      <trkpt lat="52.030480960384011" lon="9.462218005210161">
        <ele>81.849999999999994</ele>
        <time>2017-10-30T11:59:48Z</time>
      </trkpt>
      <trkpt lat="52.030461011454463" lon="9.462166037410498">
        <ele>81.849999999999994</ele>
        <time>2017-10-30T11:59:49Z</time>
      </trkpt>
      <trkpt lat="52.030436033383012" lon="9.462101999670267">
        <ele>81.849999999999994</ele>
        <time>2017-10-30T11:59:50Z</time>
      </trkpt>
      <trkpt lat="52.030400997027755" lon="9.462013989686966">
        <ele>81.849999999999994</ele>
        <time>2017-10-30T11:59:51Z</time>
      </trkpt>
      <trkpt lat="52.030359003692865" lon="9.461907958611846">
        <ele>82.329999999999998</ele>
        <time>2017-10-30T11:59:52Z</time>
      </trkpt>
      <trkpt lat="52.030311981216073" lon="9.461788013577461">
        <ele>82.329999999999998</ele>
        <time>2017-10-30T11:59:53Z</time>
      </trkpt>
      <trkpt lat="52.029905039817095" lon="9.460494015365839">
        <ele>83.769999999999996</ele>
        <time>2017-10-30T12:00:00Z</time>
      </trkpt>
      <trkpt lat="52.029404975473881" lon="9.45877798832953">
        <ele>83.769999999999996</ele>
        <time>2017-10-30T12:00:08Z</time>
      </trkpt>
      <trkpt lat="52.028770968317986" lon="9.457311993464828">
        <ele>80.409999999999997</ele>
        <time>2017-10-30T12:00:16Z</time>
      </trkpt>
      <trkpt lat="52.02779003418982" lon="9.455537963658571">
        <ele>80.409999999999997</ele>
        <time>2017-10-30T12:00:24Z</time>
      </trkpt>
      <trkpt lat="52.026640037074685" lon="9.453608030453324">
        <ele>78.969999999999999</ele>
        <time>2017-10-30T12:00:32Z</time>
      </trkpt>
      <trkpt lat="52.026476003229618" lon="9.453463023528457">
        <ele>78.969999999999999</ele>
        <time>2017-10-30T12:00:33Z</time>
      </trkpt>
      <trkpt lat="52.026283973827958" lon="9.453350035473704">
        <ele>78.969999999999999</ele>
        <time>2017-10-30T12:00:34Z</time>
      </trkpt>
      <trkpt lat="52.024647993966937" lon="9.452386032789946">
        <ele>78.969999999999999</ele>
        <time>2017-10-30T12:00:41Z</time>
      </trkpt>
      <trkpt lat="52.021020976826549" lon="9.450345039367676">
        <ele>78</ele>
        <time>2017-10-30T12:00:55Z</time>
      </trkpt>
      <trkpt lat="52.019470995292068" lon="9.449382964521647">
        <ele>76.560000000000002</ele>
        <time>2017-10-30T12:01:02Z</time>
      </trkpt>
      <trkpt lat="52.018334995955229" lon="9.44840001873672">
        <ele>75.120000000000005</ele>
        <time>2017-10-30T12:01:09Z</time>
      </trkpt>
      <trkpt lat="52.017557993531227" lon="9.447664003819227">
        <ele>74.640000000000001</ele>
        <time>2017-10-30T12:01:17Z</time>
      </trkpt>
      <trkpt lat="52.016588039696217" lon="9.446710981428623">
        <ele>75.120000000000005</ele>
        <time>2017-10-30T12:01:27Z</time>
      </trkpt>
      <trkpt lat="52.016513021662831" lon="9.446566980332136">
        <ele>75.120000000000005</ele>
        <time>2017-10-30T12:01:28Z</time>
      </trkpt>
      <trkpt lat="52.0164680108428" lon="9.446419961750507">
        <ele>75.120000000000005</ele>
        <time>2017-10-30T12:01:29Z</time>
      </trkpt>
      <trkpt lat="52.01638201251626" lon="9.446313008666039">
        <ele>74.640000000000001</ele>
        <time>2017-10-30T12:01:30Z</time>
      </trkpt>
      <trkpt lat="52.01629601418972" lon="9.446184011176229">
        <ele>74.640000000000001</ele>
        <time>2017-10-30T12:01:31Z</time>
      </trkpt>
      <trkpt lat="52.016206998378038" lon="9.446049984544516">
        <ele>74.159999999999997</ele>
        <time>2017-10-30T12:01:32Z</time>
      </trkpt>
      <trkpt lat="52.016116976737976" lon="9.445916041731834">
        <ele>74.159999999999997</ele>
        <time>2017-10-30T12:01:33Z</time>
      </trkpt>
      <trkpt lat="52.015075022354722" lon="9.444476030766964">
        <ele>74.640000000000001</ele>
        <time>2017-10-30T12:01:44Z</time>
      </trkpt>
      <trkpt lat="52.013951009139419" lon="9.442999977618456">
        <ele>74.159999999999997</ele>
        <time>2017-10-30T12:01:52Z</time>
      </trkpt>
      <trkpt lat="52.013815976679325" lon="9.442893024533987">
        <ele>73.680000000000007</ele>
        <time>2017-10-30T12:01:53Z</time>
      </trkpt>
      <trkpt lat="52.013668036088347" lon="9.442843990400434">
        <ele>73.680000000000007</ele>
        <time>2017-10-30T12:01:54Z</time>
      </trkpt>
      <trkpt lat="52.01350400224328" lon="9.442863017320633">
        <ele>73.680000000000007</ele>
        <time>2017-10-30T12:01:55Z</time>
      </trkpt>
      <trkpt lat="52.013327982276678" lon="9.442883972078562">
        <ele>73.680000000000007</ele>
        <time>2017-10-30T12:01:56Z</time>
      </trkpt>
      <trkpt lat="52.011827034875751" lon="9.443060997873545">
        <ele>74.640000000000001</ele>
        <time>2017-10-30T12:02:03Z</time>
      </trkpt>
      <trkpt lat="52.008774010464549" lon="9.443452013656497">
        <ele>76.079999999999998</ele>
        <time>2017-10-30T12:02:15Z</time>
      </trkpt>
      <trkpt lat="52.006127005442977" lon="9.443777985870838">
        <ele>76.079999999999998</ele>
        <time>2017-10-30T12:02:26Z</time>
      </trkpt>
      <trkpt lat="52.005989039316773" lon="9.443739010021091">
        <ele>75.599999999999994</ele>
        <time>2017-10-30T12:02:27Z</time>
      </trkpt>
      <trkpt lat="52.005869010463357" lon="9.443705985322595">
        <ele>75.599999999999994</ele>
        <time>2017-10-30T12:02:28Z</time>
      </trkpt>
      <trkpt lat="52.005770020186901" lon="9.443616969510913">
        <ele>75.599999999999994</ele>
        <time>2017-10-30T12:02:29Z</time>
      </trkpt>
      <trkpt lat="52.005669018253684" lon="9.443471962586045">
        <ele>75.599999999999994</ele>
        <time>2017-10-30T12:02:30Z</time>
      </trkpt>
      <trkpt lat="52.005556030198932" lon="9.443312035873532">
        <ele>75.599999999999994</ele>
        <time>2017-10-30T12:02:31Z</time>
      </trkpt>
      <trkpt lat="52.004426987841725" lon="9.441674966365099">
        <ele>75.599999999999994</ele>
        <time>2017-10-30T12:02:39Z</time>
      </trkpt>
      <trkpt lat="52.003510007634759" lon="9.44027703255415">
        <ele>75.120000000000005</ele>
        <time>2017-10-30T12:02:46Z</time>
      </trkpt>
      <trkpt lat="52.002981025725603" lon="9.43948402069509">
        <ele>74.640000000000001</ele>
        <time>2017-10-30T12:02:51Z</time>
      </trkpt>
      <trkpt lat="52.002903996035457" lon="9.439318981021643">
        <ele>74.159999999999997</ele>
        <time>2017-10-30T12:02:52Z</time>
      </trkpt>
      <trkpt lat="52.002842975780368" lon="9.43911999464035">
        <ele>74.159999999999997</ele>
        <time>2017-10-30T12:02:53Z</time>
      </trkpt>
      <trkpt lat="52.002809029072523" lon="9.43892503157258">
        <ele>73.680000000000007</ele>
        <time>2017-10-30T12:02:54Z</time>
      </trkpt>
      <trkpt lat="52.002776004374027" lon="9.438738031312823">
        <ele>73.680000000000007</ele>
        <time>2017-10-30T12:02:55Z</time>
      </trkpt>
      <trkpt lat="52.002644995227456" lon="9.437983995303512">
        <ele>73.680000000000007</ele>
        <time>2017-10-30T12:03:00Z</time>
      </trkpt>
      <trkpt lat="52.002616999670863" lon="9.437861032783985">
        <ele>73.680000000000007</ele>
        <time>2017-10-30T12:03:01Z</time>
      </trkpt>
      <trkpt lat="52.00256603769958" lon="9.437759025022388">
        <ele>73.680000000000007</ele>
        <time>2017-10-30T12:03:02Z</time>
      </trkpt>
      <trkpt lat="52.002505017444491" lon="9.437660034745932">
        <ele>73.680000000000007</ele>
        <time>2017-10-30T12:03:03Z</time>
      </trkpt>
      <trkpt lat="52.0024389680475" lon="9.437574958428741">
        <ele>73.680000000000007</ele>
        <time>2017-10-30T12:03:04Z</time>
      </trkpt>
      <trkpt lat="52.00237300246954" lon="9.437489965930581">
        <ele>73.680000000000007</ele>
        <time>2017-10-30T12:03:05Z</time>
      </trkpt>
      <trkpt lat="52.00198701582849" lon="9.436988979578018">
        <ele>74.159999999999997</ele>
        <time>2017-10-30T12:03:11Z</time>
      </trkpt>
      <trkpt lat="52.00192297808826" lon="9.436909016221762">
        <ele>74.159999999999997</ele>
        <time>2017-10-30T12:03:12Z</time>
      </trkpt>
      <trkpt lat="52.001859024167061" lon="9.436829974874854">
        <ele>73.680000000000007</ele>
        <time>2017-10-30T12:03:13Z</time>
      </trkpt>
      <trkpt lat="52.001749975606799" lon="9.436696032062173">
        <ele>73.200000000000003</ele>
        <time>2017-10-30T12:03:15Z</time>
      </trkpt>
      <trkpt lat="52.001715023070574" lon="9.436653032898903">
        <ele>73.200000000000003</ele>
        <time>2017-10-30T12:03:16Z</time>
      </trkpt>
      <trkpt lat="52.00164302252233" lon="9.436617996543646">
        <ele>72.719999999999999</ele>
        <time>2017-10-30T12:03:17Z</time>
      </trkpt>
      <trkpt lat="52.001588037237525" lon="9.436625959351659">
        <ele>72.719999999999999</ele>
        <time>2017-10-30T12:03:18Z</time>
      </trkpt>
      <trkpt lat="52.001519976183772" lon="9.436635011807084">
        <ele>72.719999999999999</ele>
        <time>2017-10-30T12:03:19Z</time>
      </trkpt>
      <trkpt lat="52.001267010346055" lon="9.436643980443478">
        <ele>72.239999999999995</ele>
        <time>2017-10-30T12:03:22Z</time>
      </trkpt>
      <trkpt lat="52.000288004055619" lon="9.436568962410092">
        <ele>71.269999999999996</ele>
        <time>2017-10-30T12:03:31Z</time>
      </trkpt>
      <trkpt lat="52.000181972980499" lon="9.436576003208756">
        <ele>71.269999999999996</ele>
        <time>2017-10-30T12:03:32Z</time>
      </trkpt>
      <trkpt lat="51.999548971652985" lon="9.436884038150311">
        <ele>72.239999999999995</ele>
        <time>2017-10-30T12:03:39Z</time>
      </trkpt>
      <trkpt lat="51.999488035216928" lon="9.436919996514916">
        <ele>72.719999999999999</ele>
        <time>2017-10-30T12:03:40Z</time>
      </trkpt>
      <trkpt lat="51.999418968334794" lon="9.43701496347785">
        <ele>72.239999999999995</ele>
        <time>2017-10-30T12:03:41Z</time>
      </trkpt>
      <trkpt lat="51.999402036890388" lon="9.437127029523253">
        <ele>72.239999999999995</ele>
        <time>2017-10-30T12:03:42Z</time>
      </trkpt>
      <trkpt lat="51.999383009970188" lon="9.437246974557638">
        <ele>72.239999999999995</ele>
        <time>2017-10-30T12:03:43Z</time>
      </trkpt>
      <trkpt lat="51.999363983049989" lon="9.437382007017732">
        <ele>72.719999999999999</ele>
        <time>2017-10-30T12:03:44Z</time>
      </trkpt>
      <trkpt lat="51.999359959736466" lon="9.437525002285838">
        <ele>72.719999999999999</ele>
        <time>2017-10-30T12:03:45Z</time>
      </trkpt>
      <trkpt lat="51.99934302829206" lon="9.438199996948242">
        <ele>73.200000000000003</ele>
        <time>2017-10-30T12:03:49Z</time>
      </trkpt>
      <trkpt lat="51.999330036342144" lon="9.438292030245066">
        <ele>73.200000000000003</ele>
        <time>2017-10-30T12:03:50Z</time>
      </trkpt>
      <trkpt lat="51.999283013865352" lon="9.438422033563256">
        <ele>73.200000000000003</ele>
        <time>2017-10-30T12:03:51Z</time>
      </trkpt>
      <trkpt lat="51.999215958639979" lon="9.438546001911163">
        <ele>72.719999999999999</ele>
        <time>2017-10-30T12:03:52Z</time>
      </trkpt>
      <trkpt lat="51.999142030254006" lon="9.438683968037367">
        <ele>72.719999999999999</ele>
        <time>2017-10-30T12:03:53Z</time>
      </trkpt>
      <trkpt lat="51.998431999236345" lon="9.439977966248989">
        <ele>72.719999999999999</ele>
        <time>2017-10-30T12:04:00Z</time>
      </trkpt>
      <trkpt lat="51.997213019058108" lon="9.442133959382772">
        <ele>76.079999999999998</ele>
        <time>2017-10-30T12:04:09Z</time>
      </trkpt>
      <trkpt lat="51.995288031175733" lon="9.445538017898798">
        <ele>80.409999999999997</ele>
        <time>2017-10-30T12:04:21Z</time>
      </trkpt>
      <trkpt lat="51.993428003042936" lon="9.448893964290619">
        <ele>83.769999999999996</ele>
        <time>2017-10-30T12:04:32Z</time>
      </trkpt>
      <trkpt lat="51.993166990578175" lon="9.449379025027156">
        <ele>83.769999999999996</ele>
        <time>2017-10-30T12:04:34Z</time>
      </trkpt>
      <trkpt lat="51.993098007515073" lon="9.449650011956692">
        <ele>83.769999999999996</ele>
        <time>2017-10-30T12:04:35Z</time>
      </trkpt>
      <trkpt lat="51.993061965331435" lon="9.44994798861444">
        <ele>83.769999999999996</ele>
        <time>2017-10-30T12:04:36Z</time>
      </trkpt>
      <trkpt lat="51.993044028058648" lon="9.450263986364007">
        <ele>83.769999999999996</ele>
        <time>2017-10-30T12:04:37Z</time>
      </trkpt>
      <trkpt lat="51.99302801862359" lon="9.450598005205393">
        <ele>83.769999999999996</ele>
        <time>2017-10-30T12:04:38Z</time>
      </trkpt>
      <trkpt lat="51.992916958406568" lon="9.453012999147177">
        <ele>83.290000000000006</ele>
        <time>2017-10-30T12:04:44Z</time>
      </trkpt>
      <trkpt lat="51.992716966196895" lon="9.457791019231081">
        <ele>83.769999999999996</ele>
        <time>2017-10-30T12:04:55Z</time>
      </trkpt>
      <trkpt lat="51.992523008957505" lon="9.462094036862254">
        <ele>81.849999999999994</ele>
        <time>2017-10-30T12:05:06Z</time>
      </trkpt>
      <trkpt lat="51.992453020066023" lon="9.462406011298299">
        <ele>81.849999999999994</ele>
        <time>2017-10-30T12:05:07Z</time>
      </trkpt>
      <trkpt lat="51.991770984604955" lon="9.464832991361618">
        <ele>80.409999999999997</ele>
        <time>2017-10-30T12:05:14Z</time>
      </trkpt>
      <trkpt lat="51.991363959386945" lon="9.466202007606626">
        <ele>79.930000000000007</ele>
        <time>2017-10-30T12:05:19Z</time>
      </trkpt>
      <trkpt lat="51.991268992424011" lon="9.466310972347856">
        <ele>79.450000000000003</ele>
        <time>2017-10-30T12:05:20Z</time>
      </trkpt>
      <trkpt lat="51.991157010197639" lon="9.466372998431325">
        <ele>79.450000000000003</ele>
        <time>2017-10-30T12:05:21Z</time>
      </trkpt>
      <trkpt lat="51.991034969687462" lon="9.466406023129821">
        <ele>79.450000000000003</ele>
        <time>2017-10-30T12:05:22Z</time>
      </trkpt>
      <trkpt lat="51.990894991904497" lon="9.46640401147306">
        <ele>79.450000000000003</ele>
        <time>2017-10-30T12:05:23Z</time>
      </trkpt>
      <trkpt lat="51.990745039656758" lon="9.46638498455286">
        <ele>79.450000000000003</ele>
        <time>2017-10-30T12:05:24Z</time>
      </trkpt>
      <trkpt lat="51.989652961492538" lon="9.466370986774564">
        <ele>77.519999999999996</ele>
        <time>2017-10-30T12:05:32Z</time>
      </trkpt>
      <trkpt lat="51.98881602846086" lon="9.466605009511113">
        <ele>76.560000000000002</ele>
        <time>2017-10-30T12:05:39Z</time>
      </trkpt>
      <trkpt lat="51.988726006820798" lon="9.466629987582564">
        <ele>76.560000000000002</ele>
        <time>2017-10-30T12:05:40Z</time>
      </trkpt>
      <trkpt lat="51.988670015707612" lon="9.466712968423963">
        <ele>76.560000000000002</ele>
        <time>2017-10-30T12:05:41Z</time>
      </trkpt>
      <trkpt lat="51.988616036251187" lon="9.466797038912773">
        <ele>76.079999999999998</ele>
        <time>2017-10-30T12:05:42Z</time>
      </trkpt>
      <trkpt lat="51.988571025431156" lon="9.466870967298746">
        <ele>76.079999999999998</ele>
        <time>2017-10-30T12:05:43Z</time>
      </trkpt>
      <trkpt lat="51.988571025431156" lon="9.466992001980543">
        <ele>76.079999999999998</ele>
        <time>2017-10-30T12:05:44Z</time>
      </trkpt>
      <trkpt lat="51.988586029037833" lon="9.467124016955495">
        <ele>75.599999999999994</ele>
        <time>2017-10-30T12:05:45Z</time>
      </trkpt>
      <trkpt lat="51.988615030422807" lon="9.467252008616924">
        <ele>75.599999999999994</ele>
        <time>2017-10-30T12:05:46Z</time>
      </trkpt>
      <trkpt lat="51.988641014322639" lon="9.467362985014916">
        <ele>75.120000000000005</ele>
        <time>2017-10-30T12:05:47Z</time>
      </trkpt>
      <trkpt lat="51.988661969080567" lon="9.467455018311739">
        <ele>75.120000000000005</ele>
        <time>2017-10-30T12:05:48Z</time>
      </trkpt>
      <trkpt lat="51.988616958260536" lon="9.467646963894367">
        <ele>75.120000000000005</ele>
        <time>2017-10-30T12:05:49Z</time>
      </trkpt>
      <trkpt lat="51.988571025431156" lon="9.467663979157805">
        <ele>74.640000000000001</ele>
        <time>2017-10-30T12:05:50Z</time>
      </trkpt>
      <trkpt lat="51.988508999347687" lon="9.467685017734766">
        <ele>74.159999999999997</ele>
        <time>2017-10-30T12:05:51Z</time>
      </trkpt>
      <trkpt lat="51.988433981314301" lon="9.467711001634598">
        <ele>74.159999999999997</ele>
        <time>2017-10-30T12:05:52Z</time>
      </trkpt>
      <trkpt lat="51.987799974158406" lon="9.467933038249612">
        <ele>73.680000000000007</ele>
        <time>2017-10-30T12:06:00Z</time>
      </trkpt>
      <trkpt lat="51.98769997805357" lon="9.468020964413881">
        <ele>74.159999999999997</ele>
        <time>2017-10-30T12:06:07Z</time>
      </trkpt>
      <trkpt lat="51.987565029412508" lon="9.468162031844258">
        <ele>75.599999999999994</ele>
        <time>2017-10-30T12:06:34Z</time>
      </trkpt>
      <trkpt lat="51.986849969252944" lon="9.468830991536379">
        <ele>79.450000000000003</ele>
        <time>2017-10-30T12:06:41Z</time>
      </trkpt>
      <trkpt lat="51.986082019284368" lon="9.469587961211801">
        <ele>79.450000000000003</ele>
        <time>2017-10-30T12:06:50Z</time>
      </trkpt>
      <trkpt lat="51.986013958230615" lon="9.469678988680244">
        <ele>78.969999999999999</ele>
        <time>2017-10-30T12:06:51Z</time>
      </trkpt>
      <trkpt lat="51.985945980995893" lon="9.469774039462209">
        <ele>78.480000000000004</ele>
        <time>2017-10-30T12:06:52Z</time>
      </trkpt>
      <trkpt lat="51.985737020149827" lon="9.470065981149674">
        <ele>78</ele>
        <time>2017-10-30T12:06:56Z</time>
      </trkpt>
      <trkpt lat="51.985662002116442" lon="9.470140999183059">
        <ele>77.519999999999996</ele>
        <time>2017-10-30T12:07:03Z</time>
      </trkpt>
      <trkpt lat="51.985654039308429" lon="9.470148961991072">
        <ele>78</ele>
        <time>2017-10-30T12:07:14Z</time>
      </trkpt>
      <trkpt lat="51.985610034316778" lon="9.470192966982722">
        <ele>78</ele>
        <time>2017-10-30T12:07:15Z</time>
      </trkpt>
      <trkpt lat="51.985590001568198" lon="9.470091965049505">
        <ele>77.519999999999996</ele>
        <time>2017-10-30T12:07:16Z</time>
      </trkpt>
      <trkpt lat="51.985577009618282" lon="9.470024993643165">
        <ele>77.519999999999996</ele>
        <time>2017-10-30T12:07:17Z</time>
      </trkpt>
      <trkpt lat="51.985559994354844" lon="9.469940001145005">
        <ele>77.519999999999996</ele>
        <time>2017-10-30T12:07:18Z</time>
      </trkpt>
      <trkpt lat="51.985541973263025" lon="9.469850985333324">
        <ele>77.040000000000006</ele>
        <time>2017-10-30T12:07:19Z</time>
      </trkpt>
      <trkpt lat="51.985525041818619" lon="9.469766998663545">
        <ele>77.040000000000006</ele>
        <time>2017-10-30T12:07:20Z</time>
      </trkpt>
      <trkpt lat="51.985502997413278" lon="9.469657028093934">
        <ele>76.560000000000002</ele>
        <time>2017-10-30T12:07:21Z</time>
      </trkpt>
      <trkpt lat="51.985462009906769" lon="9.469616962596774">
        <ele>76.560000000000002</ele>
        <time>2017-10-30T12:07:22Z</time>
      </trkpt>
      <trkpt lat="51.985328989103436" lon="9.469483019784093">
        <ele>76.079999999999998</ele>
        <time>2017-10-30T12:07:24Z</time>
      </trkpt>
      <trkpt lat="51.984947025775909" lon="9.469100972637534">
        <ele>75.599999999999994</ele>
        <time>2017-10-30T12:07:31Z</time>
      </trkpt>
      <trkpt lat="51.984903020784259" lon="9.469056967645884">
        <ele>76.079999999999998</ele>
        <time>2017-10-30T12:07:32Z</time>
      </trkpt>
      <trkpt lat="51.984837977215648" lon="9.468992007896304">
        <ele>76.079999999999998</ele>
        <time>2017-10-30T12:07:33Z</time>
      </trkpt>
      <trkpt lat="51.984705962240696" lon="9.468754967674613">
        <ele>76.560000000000002</ele>
        <time>2017-10-30T12:07:37Z</time>
      </trkpt>
      <trkpt lat="51.984675033017993" lon="9.468699982389808">
        <ele>76.560000000000002</ele>
        <time>2017-10-30T12:07:38Z</time>
      </trkpt>
      <trkpt lat="51.984645025804639" lon="9.468646002933383">
        <ele>76.560000000000002</ele>
        <time>2017-10-30T12:07:39Z</time>
      </trkpt>
      <trkpt lat="51.984473029151559" lon="9.468254987150431">
        <ele>76.560000000000002</ele>
        <time>2017-10-30T12:07:48Z</time>
      </trkpt>
      <trkpt lat="51.984444027766585" lon="9.468150967732072">
        <ele>76.560000000000002</ele>
        <time>2017-10-30T12:07:50Z</time>
      </trkpt>
      <trkpt lat="51.984278988093138" lon="9.467473039403558">
        <ele>78.480000000000004</ele>
        <time>2017-10-30T12:07:59Z</time>
      </trkpt>
      <trkpt lat="51.984279993921518" lon="9.467489970847964">
        <ele>78.969999999999999</ele>
        <time>2017-10-30T12:08:00Z</time>
      </trkpt>
      <trkpt lat="51.984279993921518" lon="9.467489970847964">
        <ele>78.969999999999999</ele>
        <time>2017-10-30T12:08:01Z</time>
      </trkpt>
      <trkpt lat="51.984254010021687" lon="9.46745602414012">
        <ele>79.450000000000003</ele>
        <time>2017-10-30T12:08:02Z</time>
      </trkpt>
      <trkpt lat="51.984310001134872" lon="9.467591978609562">
        <ele>79.450000000000003</ele>
        <time>2017-10-30T12:08:03Z</time>
      </trkpt>
      <trkpt lat="51.984301032498479" lon="9.467597007751465">
        <ele>79.930000000000007</ele>
        <time>2017-10-30T12:08:04Z</time>
      </trkpt>
      <trkpt lat="51.984276976436377" lon="9.467440014705062">
        <ele>80.409999999999997</ele>
        <time>2017-10-30T12:08:05Z</time>
      </trkpt>
      <trkpt lat="51.984278988093138" lon="9.46747999638319">
        <ele>80.409999999999997</ele>
        <time>2017-10-30T12:08:06Z</time>
      </trkpt>
      <trkpt lat="51.984285023063421" lon="9.467515032738447">
        <ele>80.409999999999997</ele>
        <time>2017-10-30T12:08:07Z</time>
      </trkpt>
      <trkpt lat="51.984300026670098" lon="9.467590972781181">
        <ele>80.409999999999997</ele>
        <time>2017-10-30T12:08:08Z</time>
      </trkpt>
      <trkpt lat="51.984319975599647" lon="9.467689041048288">
        <ele>80.409999999999997</ele>
        <time>2017-10-30T12:08:09Z</time>
      </trkpt>
      <trkpt lat="51.98434797115624" lon="9.467799011617899">
        <ele>80.409999999999997</ele>
        <time>2017-10-30T12:08:10Z</time>
      </trkpt>
      <trkpt lat="51.984406979754567" lon="9.468014007434249">
        <ele>79.930000000000007</ele>
        <time>2017-10-30T12:08:12Z</time>
      </trkpt>
      <trkpt lat="51.984461965039372" lon="9.468521028757095">
        <ele>77.040000000000006</ele>
        <time>2017-10-30T12:08:19Z</time>
      </trkpt>
      <trkpt lat="51.984432963654399" lon="9.468579031527042">
        <ele>76.560000000000002</ele>
        <time>2017-10-30T12:08:20Z</time>
      </trkpt>
      <trkpt lat="51.984400022774935" lon="9.468644997105002">
        <ele>76.560000000000002</ele>
        <time>2017-10-30T12:08:21Z</time>
      </trkpt>
      <trkpt lat="51.984187038615346" lon="9.468997959047556">
        <ele>75.120000000000005</ele>
        <time>2017-10-30T12:08:26Z</time>
      </trkpt>
      <trkpt lat="51.98413398116827" lon="9.469052022323012">
        <ele>74.640000000000001</ele>
        <time>2017-10-30T12:08:27Z</time>
      </trkpt>
      <trkpt lat="51.983978999778628" lon="9.469205997884274">
        <ele>73.680000000000007</ele>
        <time>2017-10-30T12:08:30Z</time>
      </trkpt>
      <trkpt lat="51.983929965645075" lon="9.469256037846208">
        <ele>73.680000000000007</ele>
        <time>2017-10-30T12:08:31Z</time>
      </trkpt>
      <trkpt lat="51.983882021158934" lon="9.469349998980761">
        <ele>73.680000000000007</ele>
        <time>2017-10-30T12:08:32Z</time>
      </trkpt>
      <trkpt lat="51.983865005895495" lon="9.46943499147892">
        <ele>73.680000000000007</ele>
        <time>2017-10-30T12:08:33Z</time>
      </trkpt>
      <trkpt lat="51.983848996460438" lon="9.469542028382421">
        <ele>73.680000000000007</ele>
        <time>2017-10-30T12:08:34Z</time>
      </trkpt>
      <trkpt lat="51.983844973146915" lon="9.469642024487257">
        <ele>74.159999999999997</ele>
        <time>2017-10-30T12:08:35Z</time>
      </trkpt>
      <trkpt lat="51.983836004510522" lon="9.469871018081904">
        <ele>74.640000000000001</ele>
        <time>2017-10-30T12:08:38Z</time>
      </trkpt>
      <trkpt lat="51.983833992853761" lon="9.46992801502347">
        <ele>74.640000000000001</ele>
        <time>2017-10-30T12:08:39Z</time>
      </trkpt>
      <trkpt lat="51.983831981197" lon="9.469972020015121">
        <ele>74.640000000000001</ele>
        <time>2017-10-30T12:08:40Z</time>
      </trkpt>
      <trkpt lat="51.983829969540238" lon="9.470013007521629">
        <ele>74.640000000000001</ele>
        <time>2017-10-30T12:08:41Z</time>
      </trkpt>
      <trkpt lat="51.983756963163614" lon="9.470048965886235">
        <ele>74.640000000000001</ele>
        <time>2017-10-30T12:08:42Z</time>
      </trkpt>
      <trkpt lat="51.983698038384318" lon="9.470052989199758">
        <ele>74.640000000000001</ele>
        <time>2017-10-30T12:08:43Z</time>
      </trkpt>
      <trkpt lat="51.983625032007694" lon="9.470059024170041">
        <ele>75.120000000000005</ele>
        <time>2017-10-30T12:08:44Z</time>
      </trkpt>
      <trkpt lat="51.983539033681154" lon="9.470062041655183">
        <ele>75.120000000000005</ele>
        <time>2017-10-30T12:08:45Z</time>
      </trkpt>
      <trkpt lat="51.983440965414047" lon="9.470034968107939">
        <ele>75.120000000000005</ele>
        <time>2017-10-30T12:08:46Z</time>
      </trkpt>
      <trkpt lat="51.983313979580998" lon="9.470000015571713">
        <ele>75.120000000000005</ele>
        <time>2017-10-30T12:08:47Z</time>
      </trkpt>
      <trkpt lat="51.983224041759968" lon="9.469951987266541">
        <ele>75.599999999999994</ele>
        <time>2017-10-30T12:08:48Z</time>
      </trkpt>
      <trkpt lat="51.983110969886184" lon="9.469889961183071">
        <ele>76.079999999999998</ele>
        <time>2017-10-30T12:08:49Z</time>
      </trkpt>
      <trkpt lat="51.982993958517909" lon="9.469827013090253">
        <ele>76.560000000000002</ele>
        <time>2017-10-30T12:08:50Z</time>
      </trkpt>
      <trkpt lat="51.982870995998383" lon="9.469760041683912">
        <ele>76.560000000000002</ele>
        <time>2017-10-30T12:08:51Z</time>
      </trkpt>
      <trkpt lat="51.982485009357333" lon="9.469576980918646">
        <ele>77.519999999999996</ele>
        <time>2017-10-30T12:08:54Z</time>
      </trkpt>
      <trkpt lat="51.98237000964582" lon="9.469581004232168">
        <ele>78</ele>
        <time>2017-10-30T12:08:55Z</time>
      </trkpt>
      <trkpt lat="51.982269007712603" lon="9.469591984525323">
        <ele>78.480000000000004</ele>
        <time>2017-10-30T12:08:56Z</time>
      </trkpt>
      <trkpt lat="51.982196001335979" lon="9.469686029478908">
        <ele>78.969999999999999</ele>
        <time>2017-10-30T12:08:57Z</time>
      </trkpt>
      <trkpt lat="51.982127018272877" lon="9.469782002270222">
        <ele>79.450000000000003</ele>
        <time>2017-10-30T12:08:58Z</time>
      </trkpt>
      <trkpt lat="51.982057029381394" lon="9.469880992546678">
        <ele>79.450000000000003</ele>
        <time>2017-10-30T12:08:59Z</time>
      </trkpt>
      <trkpt lat="51.981979999691248" lon="9.469966990873218">
        <ele>79.930000000000007</ele>
        <time>2017-10-30T12:09:00Z</time>
      </trkpt>
      <trkpt lat="51.98189701884985" lon="9.470058018341661">
        <ele>79.450000000000003</ele>
        <time>2017-10-30T12:09:01Z</time>
      </trkpt>
      <trkpt lat="51.98181202635169" lon="9.470150973647833">
        <ele>79.450000000000003</ele>
        <time>2017-10-30T12:09:02Z</time>
      </trkpt>
      <trkpt lat="51.981724016368389" lon="9.470162959769368">
        <ele>79.930000000000007</ele>
        <time>2017-10-30T12:09:03Z</time>
      </trkpt>
      <trkpt lat="51.981625026091933" lon="9.470145022496581">
        <ele>79.930000000000007</ele>
        <time>2017-10-30T12:09:04Z</time>
      </trkpt>
      <trkpt lat="51.981531986966729" lon="9.470076961442828">
        <ele>79.930000000000007</ele>
        <time>2017-10-30T12:09:05Z</time>
      </trkpt>
      <trkpt lat="51.981430985033512" lon="9.470003033056855">
        <ele>79.930000000000007</ele>
        <time>2017-10-30T12:09:06Z</time>
      </trkpt>
      <trkpt lat="51.981324031949043" lon="9.469926003366709">
        <ele>79.450000000000003</ele>
        <time>2017-10-30T12:09:07Z</time>
      </trkpt>
      <trkpt lat="51.981220012530684" lon="9.469848973676562">
        <ele>79.450000000000003</ele>
        <time>2017-10-30T12:09:08Z</time>
      </trkpt>
      <trkpt lat="51.98110400699079" lon="9.469763981178403">
        <ele>79.450000000000003</ele>
        <time>2017-10-30T12:09:09Z</time>
      </trkpt>
      <trkpt lat="51.980978026986122" lon="9.469728022813797">
        <ele>79.930000000000007</ele>
        <time>2017-10-30T12:09:10Z</time>
      </trkpt>
      <trkpt lat="51.980849029496312" lon="9.469689968973398">
        <ele>79.930000000000007</ele>
        <time>2017-10-30T12:09:11Z</time>
      </trkpt>
      <trkpt lat="51.980005977675319" lon="9.469379000365734">
        <ele>81.849999999999994</ele>
        <time>2017-10-30T12:09:19Z</time>
      </trkpt>
      <trkpt lat="51.979674976319075" lon="9.46915696375072">
        <ele>82.810000000000002</ele>
        <time>2017-10-30T12:09:22Z</time>
      </trkpt>
      <trkpt lat="51.979567017406225" lon="9.469060990959406">
        <ele>83.290000000000006</ele>
        <time>2017-10-30T12:09:23Z</time>
      </trkpt>
      <trkpt lat="51.978545011952519" lon="9.467965979129076">
        <ele>87.140000000000001</ele>
        <time>2017-10-30T12:09:33Z</time>
      </trkpt>
      <trkpt lat="51.978209987282753" lon="9.467606982216239">
        <ele>88.579999999999998</ele>
        <time>2017-10-30T12:09:40Z</time>
      </trkpt>
      <trkpt lat="51.978209987282753" lon="9.467606982216239">
        <ele>89.060000000000002</ele>
        <time>2017-10-30T12:09:51Z</time>
      </trkpt>
    </trkseg>
  </trk>

  <trk>
    <name>Track vom: 2017-10-30 13:10</name>
    <extensions>
      <gpxx:TrackExtension>
        <gpxx:DisplayColor>DarkGray</gpxx:DisplayColor>
      </gpxx:TrackExtension>
    </extensions>
    <trkseg>
      <trkpt lat="51.978209987282753" lon="9.467606982216239">
        <ele>89.060000000000002</ele>
        <time>2017-10-30T12:10:04Z</time>
      </trkpt>
      <trkpt lat="51.977947968989611" lon="9.467326020821929">
        <ele>90.980000000000004</ele>
        <time>2017-10-30T12:10:13Z</time>
      </trkpt>
      <trkpt lat="51.976994024589658" lon="9.466305021196604">
        <ele>93.390000000000001</ele>
        <time>2017-10-30T12:10:22Z</time>
      </trkpt>
      <trkpt lat="51.975892977789044" lon="9.465221995487809">
        <ele>97.709999999999994</ele>
        <time>2017-10-30T12:10:31Z</time>
      </trkpt>
      <trkpt lat="51.97573397308588" lon="9.465124011039734">
        <ele>97.709999999999994</ele>
        <time>2017-10-30T12:10:32Z</time>
      </trkpt>
      <trkpt lat="51.974342996254563" lon="9.464572984725237">
        <ele>100.11</ele>
        <time>2017-10-30T12:10:39Z</time>
      </trkpt>
      <trkpt lat="51.972149033099413" lon="9.463834036141634">
        <ele>104.92</ele>
        <time>2017-10-30T12:10:48Z</time>
      </trkpt>
      <trkpt lat="51.970117008313537" lon="9.463193994015455">
        <ele>111.17</ele>
        <time>2017-10-30T12:10:56Z</time>
      </trkpt>
      <trkpt lat="51.968263015151024" lon="9.462422020733357">
        <ele>115.5</ele>
        <time>2017-10-30T12:11:04Z</time>
      </trkpt>
      <trkpt lat="51.968042990192771" lon="9.462429983541369">
        <ele>115.98</ele>
        <time>2017-10-30T12:11:05Z</time>
      </trkpt>
      <trkpt lat="51.967817014083266" lon="9.462464014068246">
        <ele>116.45999999999999</ele>
        <time>2017-10-30T12:11:06Z</time>
      </trkpt>
      <trkpt lat="51.966338027268648" lon="9.462692001834512">
        <ele>117.90000000000001</ele>
        <time>2017-10-30T12:11:12Z</time>
      </trkpt>
      <trkpt lat="51.966081038117409" lon="9.462802978232503">
        <ele>118.38</ele>
        <time>2017-10-30T12:11:13Z</time>
      </trkpt>
      <trkpt lat="51.964254034683108" lon="9.463629014790058">
        <ele>124.63</ele>
        <time>2017-10-30T12:11:20Z</time>
      </trkpt>
      <trkpt lat="51.962224021553993" lon="9.464829973876476">
        <ele>131.84</ele>
        <time>2017-10-30T12:11:28Z</time>
      </trkpt>
      <trkpt lat="51.960502965375781" lon="9.466647002846003">
        <ele>138.09</ele>
        <time>2017-10-30T12:11:36Z</time>
      </trkpt>
      <trkpt lat="51.959464028477669" lon="9.468529997393489">
        <ele>142.88999999999999</ele>
        <time>2017-10-30T12:11:43Z</time>
      </trkpt>
      <trkpt lat="51.959065971896052" lon="9.469396015629172">
        <ele>144.81999999999999</ele>
        <time>2017-10-30T12:11:48Z</time>
      </trkpt>
      <trkpt lat="51.959006963297725" lon="9.469535993412137">
        <ele>144.81999999999999</ele>
        <time>2017-10-30T12:11:49Z</time>
      </trkpt>
      <trkpt lat="51.958471024408937" lon="9.470734018832445">
        <ele>145.78</ele>
        <time>2017-10-30T12:11:58Z</time>
      </trkpt>
      <trkpt lat="51.958399023860693" lon="9.4708520360291">
        <ele>146.25999999999999</ele>
        <time>2017-10-30T12:11:59Z</time>
      </trkpt>
      <trkpt lat="51.958330040797591" lon="9.470965024083853">
        <ele>146.74000000000001</ele>
        <time>2017-10-30T12:12:00Z</time>
      </trkpt>
      <trkpt lat="51.95802703499794" lon="9.471445977687836">
        <ele>149.62</ele>
        <time>2017-10-30T12:12:04Z</time>
      </trkpt>
      <trkpt lat="51.957941958680749" lon="9.471517978236079">
        <ele>150.09999999999999</ele>
        <time>2017-10-30T12:12:05Z</time>
      </trkpt>
      <trkpt lat="51.95785696618259" lon="9.471590984612703">
        <ele>150.58000000000001</ele>
        <time>2017-10-30T12:12:06Z</time>
      </trkpt>
      <trkpt lat="51.957737021148205" lon="9.471674971282482">
        <ele>151.06</ele>
        <time>2017-10-30T12:12:07Z</time>
      </trkpt>
      <trkpt lat="51.95764197036624" lon="9.471680000424385">
        <ele>152.03</ele>
        <time>2017-10-30T12:12:08Z</time>
      </trkpt>
      <trkpt lat="51.957455975934863" lon="9.47169098071754">
        <ele>152.50999999999999</ele>
        <time>2017-10-30T12:12:10Z</time>
      </trkpt>
      <trkpt lat="51.957343993708491" lon="9.471677988767624">
        <ele>152.50999999999999</ele>
        <time>2017-10-30T12:12:11Z</time>
      </trkpt>
      <trkpt lat="51.957253972068429" lon="9.471619985997677">
        <ele>152.99000000000001</ele>
        <time>2017-10-30T12:12:12Z</time>
      </trkpt>
      <trkpt lat="51.957165040075779" lon="9.471563994884491">
        <ele>152.99000000000001</ele>
        <time>2017-10-30T12:12:13Z</time>
      </trkpt>
      <trkpt lat="51.957075018435717" lon="9.471504986286163">
        <ele>152.99000000000001</ele>
        <time>2017-10-30T12:12:14Z</time>
      </trkpt>
      <trkpt lat="51.956981979310513" lon="9.471442960202694">
        <ele>152.99000000000001</ele>
        <time>2017-10-30T12:12:15Z</time>
      </trkpt>
      <trkpt lat="51.956886006519198" lon="9.47141001932323">
        <ele>153.47</ele>
        <time>2017-10-30T12:12:16Z</time>
      </trkpt>
      <trkpt lat="51.956777963787317" lon="9.471396021544933">
        <ele>153.47</ele>
        <time>2017-10-30T12:12:17Z</time>
      </trkpt>
      <trkpt lat="51.956671010702848" lon="9.471415970474482">
        <ele>153.94999999999999</ele>
        <time>2017-10-30T12:12:18Z</time>
      </trkpt>
      <trkpt lat="51.956562967970967" lon="9.471439020708203">
        <ele>154.43000000000001</ele>
        <time>2017-10-30T12:12:19Z</time>
      </trkpt>
      <trkpt lat="51.95645802654326" lon="9.471460981294513">
        <ele>154.43000000000001</ele>
        <time>2017-10-30T12:12:20Z</time>
      </trkpt>
      <trkpt lat="51.956247976049781" lon="9.471553014591336">
        <ele>155.38999999999999</ele>
        <time>2017-10-30T12:12:22Z</time>
      </trkpt>
      <trkpt lat="51.956149991601706" lon="9.471633983775973">
        <ele>156.34999999999999</ele>
        <time>2017-10-30T12:12:23Z</time>
      </trkpt>
      <trkpt lat="51.956056030467153" lon="9.471738003194332">
        <ele>156.83000000000001</ele>
        <time>2017-10-30T12:12:24Z</time>
      </trkpt>
      <trkpt lat="51.955766016617417" lon="9.472059030085802">
        <ele>159.24000000000001</ele>
        <time>2017-10-30T12:12:27Z</time>
      </trkpt>
      <trkpt lat="51.955668032169342" lon="9.472167994827032">
        <ele>160.19999999999999</ele>
        <time>2017-10-30T12:12:28Z</time>
      </trkpt>
      <trkpt lat="51.955569041892886" lon="9.472277965396643">
        <ele>160.68000000000001</ele>
        <time>2017-10-30T12:12:29Z</time>
      </trkpt>
      <trkpt lat="51.95547298528254" lon="9.472385002300143">
        <ele>161.63999999999999</ele>
        <time>2017-10-30T12:12:30Z</time>
      </trkpt>
      <trkpt lat="51.955371983349323" lon="9.47246303781867">
        <ele>162.59999999999999</ele>
        <time>2017-10-30T12:12:31Z</time>
      </trkpt>
      <trkpt lat="51.955264024436474" lon="9.472444010898471">
        <ele>163.08000000000001</ele>
        <time>2017-10-30T12:12:32Z</time>
      </trkpt>
      <trkpt lat="51.955156987532973" lon="9.4724200386554">
        <ele>164.52000000000001</ele>
        <time>2017-10-30T12:12:33Z</time>
      </trkpt>
      <trkpt lat="51.955059003084898" lon="9.472318030893803">
        <ele>165.47999999999999</ele>
        <time>2017-10-30T12:12:34Z</time>
      </trkpt>
      <trkpt lat="51.954945009201765" lon="9.472200013697147">
        <ele>166.44999999999999</ele>
        <time>2017-10-30T12:12:35Z</time>
      </trkpt>
      <trkpt lat="51.953912023454905" lon="9.47110902518034">
        <ele>173.66</ele>
        <time>2017-10-30T12:12:42Z</time>
      </trkpt>
      <trkpt lat="51.953653022646904" lon="9.470764026045799">
        <ele>176.06</ele>
        <time>2017-10-30T12:12:44Z</time>
      </trkpt>
      <trkpt lat="51.953558977693319" lon="9.470534026622772">
        <ele>177.02000000000001</ele>
        <time>2017-10-30T12:12:45Z</time>
      </trkpt>
      <trkpt lat="51.95349502377212" lon="9.470269996672869">
        <ele>177.97999999999999</ele>
        <time>2017-10-30T12:12:46Z</time>
      </trkpt>
      <trkpt lat="51.953442972153425" lon="9.469975959509611">
        <ele>178.94</ele>
        <time>2017-10-30T12:12:47Z</time>
      </trkpt>
      <trkpt lat="51.953400978818536" lon="9.469665996730328">
        <ele>180.38</ele>
        <time>2017-10-30T12:12:48Z</time>
      </trkpt>
      <trkpt lat="51.953056985512376" lon="9.467123011127114">
        <ele>191.44</ele>
        <time>2017-10-30T12:12:56Z</time>
      </trkpt>
      <trkpt lat="51.952881971374154" lon="9.465971002355218">
        <ele>197.69</ele>
        <time>2017-10-30T12:13:02Z</time>
      </trkpt>
      <trkpt lat="51.952830003574491" lon="9.465685011819005">
        <ele>199.13</ele>
        <time>2017-10-30T12:13:04Z</time>
      </trkpt>
      <trkpt lat="51.952779041603208" lon="9.46558996103704">
        <ele>199.61000000000001</ele>
        <time>2017-10-30T12:13:05Z</time>
      </trkpt>
      <trkpt lat="51.952710980549455" lon="9.46550496853888">
        <ele>200.09</ele>
        <time>2017-10-30T12:13:06Z</time>
      </trkpt>
      <trkpt lat="51.95263696834445" lon="9.465425005182624">
        <ele>200.56999999999999</ele>
        <time>2017-10-30T12:13:07Z</time>
      </trkpt>
      <trkpt lat="51.952549964189529" lon="9.46539600379765">
        <ele>200.56999999999999</ele>
        <time>2017-10-30T12:13:08Z</time>
      </trkpt>
      <trkpt lat="51.952467989176512" lon="9.465358033776283">
        <ele>201.05000000000001</ele>
        <time>2017-10-30T12:13:09Z</time>
      </trkpt>
      <trkpt lat="51.952385008335114" lon="9.465312017127872">
        <ele>201.05000000000001</ele>
        <time>2017-10-30T12:13:10Z</time>
      </trkpt>
      <trkpt lat="51.952296998351812" lon="9.465263988822699">
        <ele>201.53</ele>
        <time>2017-10-30T12:13:11Z</time>
      </trkpt>
      <trkpt lat="51.952221980318427" lon="9.465193999931216">
        <ele>202.00999999999999</ele>
        <time>2017-10-30T12:13:12Z</time>
      </trkpt>
      <trkpt lat="51.952137993648648" lon="9.465110013261437">
        <ele>202.49000000000001</ele>
        <time>2017-10-30T12:13:13Z</time>
      </trkpt>
      <trkpt lat="51.95205501280725" lon="9.465022003278136">
        <ele>202.49000000000001</ele>
        <time>2017-10-30T12:13:14Z</time>
      </trkpt>
      <trkpt lat="51.951988963410258" lon="9.464912032708526">
        <ele>202.49000000000001</ele>
        <time>2017-10-30T12:13:15Z</time>
      </trkpt>
      <trkpt lat="51.951930960640311" lon="9.464769959449768">
        <ele>202.49000000000001</ele>
        <time>2017-10-30T12:13:16Z</time>
      </trkpt>
      <trkpt lat="51.951872035861015" lon="9.464624030515552">
        <ele>202.00999999999999</ele>
        <time>2017-10-30T12:13:17Z</time>
      </trkpt>
      <trkpt lat="51.951811015605927" lon="9.464476006105542">
        <ele>202.00999999999999</ele>
        <time>2017-10-30T12:13:18Z</time>
      </trkpt>
      <trkpt lat="51.951757958158851" lon="9.46432001888752">
        <ele>201.53</ele>
        <time>2017-10-30T12:13:19Z</time>
      </trkpt>
      <trkpt lat="51.951229982078075" lon="9.462421014904976">
        <ele>194.80000000000001</ele>
        <time>2017-10-30T12:13:29Z</time>
      </trkpt>
      <trkpt lat="51.950671998783946" lon="9.460542965680361">
        <ele>186.63</ele>
        <time>2017-10-30T12:13:36Z</time>
      </trkpt>
      <trkpt lat="51.949724005535245" lon="9.457848016172648">
        <ele>176.06</ele>
        <time>2017-10-30T12:13:44Z</time>
      </trkpt>
      <trkpt lat="51.94866000674665" lon="9.456201978027821">
        <ele>168.84999999999999</ele>
        <time>2017-10-30T12:13:50Z</time>
      </trkpt>
      <trkpt lat="51.947686029598117" lon="9.454488968476653">
        <ele>160.68000000000001</ele>
        <time>2017-10-30T12:13:56Z</time>
      </trkpt>
      <trkpt lat="51.94752199575305" lon="9.45426600985229">
        <ele>159.24000000000001</ele>
        <time>2017-10-30T12:13:57Z</time>
      </trkpt>
      <trkpt lat="51.947356034070253" lon="9.454068029299378">
        <ele>158.27000000000001</ele>
        <time>2017-10-30T12:13:58Z</time>
      </trkpt>
      <trkpt lat="51.947182025760412" lon="9.453911036252976">
        <ele>156.83000000000001</ele>
        <time>2017-10-30T12:13:59Z</time>
      </trkpt>
      <trkpt lat="51.947013968601823" lon="9.453759994357824">
        <ele>155.87</ele>
        <time>2017-10-30T12:14:00Z</time>
      </trkpt>
      <trkpt lat="51.946824034675956" lon="9.453675001859665">
        <ele>154.43000000000001</ele>
        <time>2017-10-30T12:14:01Z</time>
      </trkpt>
      <trkpt lat="51.946623036637902" lon="9.453638959676027">
        <ele>153.47</ele>
        <time>2017-10-30T12:14:02Z</time>
      </trkpt>
      <trkpt lat="51.946418015286326" lon="9.453605012968183">
        <ele>152.50999999999999</ele>
        <time>2017-10-30T12:14:03Z</time>
      </trkpt>
      <trkpt lat="51.945443032309413" lon="9.453503005206585">
        <ele>148.66</ele>
        <time>2017-10-30T12:14:08Z</time>
      </trkpt>
      <trkpt lat="51.945274975150824" lon="9.453547010198236">
        <ele>148.18000000000001</ele>
        <time>2017-10-30T12:14:09Z</time>
      </trkpt>
      <trkpt lat="51.945142038166523" lon="9.453624961897731">
        <ele>147.22</ele>
        <time>2017-10-30T12:14:10Z</time>
      </trkpt>
      <trkpt lat="51.944969035685062" lon="9.453727975487709">
        <ele>146.25999999999999</ele>
        <time>2017-10-30T12:14:12Z</time>
      </trkpt>
      <trkpt lat="51.944853030145168" lon="9.453671984374523">
        <ele>145.78</ele>
        <time>2017-10-30T12:14:13Z</time>
      </trkpt>
      <trkpt lat="51.944827968254685" lon="9.453583974391222">
        <ele>145.30000000000001</ele>
        <time>2017-10-30T12:14:14Z</time>
      </trkpt>
      <trkpt lat="51.944792009890079" lon="9.453456988558173">
        <ele>144.81999999999999</ele>
        <time>2017-10-30T12:14:15Z</time>
      </trkpt>
      <trkpt lat="51.944746999070048" lon="9.45329999551177">
        <ele>145.30000000000001</ele>
        <time>2017-10-30T12:14:16Z</time>
      </trkpt>
      <trkpt lat="51.944695031270385" lon="9.453118024393916">
        <ele>145.30000000000001</ele>
        <time>2017-10-30T12:14:17Z</time>
      </trkpt>
      <trkpt lat="51.944625964388251" lon="9.452876960858703">
        <ele>145.30000000000001</ele>
        <time>2017-10-30T12:14:18Z</time>
      </trkpt>
      <trkpt lat="51.944589000195265" lon="9.452672023326159">
        <ele>145.30000000000001</ele>
        <time>2017-10-30T12:14:19Z</time>
      </trkpt>
      <trkpt lat="51.944254981353879" lon="9.450264992192388">
        <ele>149.62</ele>
        <time>2017-10-30T12:14:27Z</time>
      </trkpt>
      <trkpt lat="51.944239977747202" lon="9.449766017496586">
        <ele>151.06</ele>
        <time>2017-10-30T12:14:29Z</time>
      </trkpt>
      <trkpt lat="51.944265039637685" lon="9.449501987546682">
        <ele>152.03</ele>
        <time>2017-10-30T12:14:30Z</time>
      </trkpt>
      <trkpt lat="51.944287000223994" lon="9.449277017265558">
        <ele>152.50999999999999</ele>
        <time>2017-10-30T12:14:31Z</time>
      </trkpt>
      <trkpt lat="51.944308960810304" lon="9.449054980650544">
        <ele>152.99000000000001</ele>
        <time>2017-10-30T12:14:32Z</time>
      </trkpt>
      <trkpt lat="51.944340979680419" lon="9.448837973177433">
        <ele>153.47</ele>
        <time>2017-10-30T12:14:33Z</time>
      </trkpt>
      <trkpt lat="51.94440602324903" lon="9.448633035644889">
        <ele>153.94999999999999</ele>
        <time>2017-10-30T12:14:34Z</time>
      </trkpt>
      <trkpt lat="51.944494033232331" lon="9.448393983766437">
        <ele>154.43000000000001</ele>
        <time>2017-10-30T12:14:35Z</time>
      </trkpt>
      <trkpt lat="51.944620013237" lon="9.448253000155091">
        <ele>154.91</ele>
        <time>2017-10-30T12:14:36Z</time>
      </trkpt>
      <trkpt lat="51.94475001655519" lon="9.448107993230224">
        <ele>155.38999999999999</ele>
        <time>2017-10-30T12:14:37Z</time>
      </trkpt>
      <trkpt lat="51.944886976853013" lon="9.447971032932401">
        <ele>155.87</ele>
        <time>2017-10-30T12:14:38Z</time>
      </trkpt>
      <trkpt lat="51.945039024576545" lon="9.447855027392507">
        <ele>156.34999999999999</ele>
        <time>2017-10-30T12:14:39Z</time>
      </trkpt>
      <trkpt lat="51.94520004093647" lon="9.447732986882329">
        <ele>156.83000000000001</ele>
        <time>2017-10-30T12:14:40Z</time>
      </trkpt>
      <trkpt lat="51.945378994569182" lon="9.447639025747776">
        <ele>157.31</ele>
        <time>2017-10-30T12:14:41Z</time>
      </trkpt>
      <trkpt lat="51.94556700065732" lon="9.447588985785842">
        <ele>157.31</ele>
        <time>2017-10-30T12:14:42Z</time>
      </trkpt>
      <trkpt lat="51.947138020768762" lon="9.447165029123426">
        <ele>161.63999999999999</ele>
        <time>2017-10-30T12:14:50Z</time>
      </trkpt>
      <trkpt lat="51.948709040880203" lon="9.446869986131787">
        <ele>166.44999999999999</ele>
        <time>2017-10-30T12:14:58Z</time>
      </trkpt>
      <trkpt lat="51.949232993647456" lon="9.446862023323774">
        <ele>168.84999999999999</ele>
        <time>2017-10-30T12:15:01Z</time>
      </trkpt>
      <trkpt lat="51.949933972209692" lon="9.447134016081691">
        <ele>171.72999999999999</ele>
        <time>2017-10-30T12:15:06Z</time>
      </trkpt>
      <trkpt lat="51.950073027983308" lon="9.44713301025331">
        <ele>172.21000000000001</ele>
        <time>2017-10-30T12:15:07Z</time>
      </trkpt>
      <trkpt lat="51.950218034908175" lon="9.44711297750473">
        <ele>172.69</ele>
        <time>2017-10-30T12:15:08Z</time>
      </trkpt>
      <trkpt lat="51.951361997053027" lon="9.446646021679044">
        <ele>177.02000000000001</ele>
        <time>2017-10-30T12:15:15Z</time>
      </trkpt>
      <trkpt lat="51.951534999534488" lon="9.446626994758844">
        <ele>177.5</ele>
        <time>2017-10-30T12:15:16Z</time>
      </trkpt>
      <trkpt lat="51.951705990359187" lon="9.446619031950831">
        <ele>177.5</ele>
        <time>2017-10-30T12:15:17Z</time>
      </trkpt>
      <trkpt lat="51.952718021348119" lon="9.446696983650327">
        <ele>179.41999999999999</ele>
        <time>2017-10-30T12:15:23Z</time>
      </trkpt>
      <trkpt lat="51.953037036582828" lon="9.446633029729128">
        <ele>179.90000000000001</ele>
        <time>2017-10-30T12:15:25Z</time>
      </trkpt>
      <trkpt lat="51.953207021579146" lon="9.446598999202251">
        <ele>180.38</ele>
        <time>2017-10-30T12:15:26Z</time>
      </trkpt>
      <trkpt lat="51.953385975211859" lon="9.446489028632641">
        <ele>180.87</ele>
        <time>2017-10-30T12:15:27Z</time>
      </trkpt>
      <trkpt lat="51.953557971864939" lon="9.446360031142831">
        <ele>180.87</ele>
        <time>2017-10-30T12:15:28Z</time>
      </trkpt>
      <trkpt lat="51.953733991831541" lon="9.446172025054693">
        <ele>181.34999999999999</ele>
        <time>2017-10-30T12:15:29Z</time>
      </trkpt>
      <trkpt lat="51.954259034246206" lon="9.445562995970249">
        <ele>182.31</ele>
        <time>2017-10-30T12:15:32Z</time>
      </trkpt>
      <trkpt lat="51.954443017020822" lon="9.44534900598228">
        <ele>182.78999999999999</ele>
        <time>2017-10-30T12:15:33Z</time>
      </trkpt>
      <trkpt lat="51.95463202893734" lon="9.445151025429368">
        <ele>183.75</ele>
        <time>2017-10-30T12:15:34Z</time>
      </trkpt>
      <trkpt lat="51.95555898360908" lon="9.44423102773726">
        <ele>188.56</ele>
        <time>2017-10-30T12:15:39Z</time>
      </trkpt>
      <trkpt lat="51.955699967220426" lon="9.443980995565653">
        <ele>189.52000000000001</ele>
        <time>2017-10-30T12:15:40Z</time>
      </trkpt>
      <trkpt lat="51.95581597276032" lon="9.443673966452479">
        <ele>190.47999999999999</ele>
        <time>2017-10-30T12:15:41Z</time>
      </trkpt>
      <trkpt lat="51.955914041027427" lon="9.443367021158338">
        <ele>191.91999999999999</ele>
        <time>2017-10-30T12:15:42Z</time>
      </trkpt>
      <trkpt lat="51.956014037132263" lon="9.443054040893912">
        <ele>192.88</ele>
        <time>2017-10-30T12:15:43Z</time>
      </trkpt>
      <trkpt lat="51.956115961074829" lon="9.442737037315965">
        <ele>194.31999999999999</ele>
        <time>2017-10-30T12:15:44Z</time>
      </trkpt>
      <trkpt lat="51.956217968836427" lon="9.442417016252875">
        <ele>195.28</ele>
        <time>2017-10-30T12:15:45Z</time>
      </trkpt>
      <trkpt lat="51.956483004614711" lon="9.441440021619201">
        <ele>199.13</ele>
        <time>2017-10-30T12:15:48Z</time>
      </trkpt>
      <trkpt lat="51.956537989899516" lon="9.441103991121054">
        <ele>200.56999999999999</ele>
        <time>2017-10-30T12:15:49Z</time>
      </trkpt>
      <trkpt lat="51.95656799711287" lon="9.440768966451287">
        <ele>201.53</ele>
        <time>2017-10-30T12:15:50Z</time>
      </trkpt>
      <trkpt lat="51.956595992669463" lon="9.440446011722088">
        <ele>202.97999999999999</ele>
        <time>2017-10-30T12:15:51Z</time>
      </trkpt>
      <trkpt lat="51.956584006547928" lon="9.440133031457663">
        <ele>204.41999999999999</ele>
        <time>2017-10-30T12:15:52Z</time>
      </trkpt>
      <trkpt lat="51.95656699128449" lon="9.439818039536476">
        <ele>205.86000000000001</ele>
        <time>2017-10-30T12:15:53Z</time>
      </trkpt>
      <trkpt lat="51.956543019041419" lon="9.439490977674723">
        <ele>207.30000000000001</ele>
        <time>2017-10-30T12:15:54Z</time>
      </trkpt>
      <trkpt lat="51.956188967451453" lon="9.436929970979691">
        <ele>215.47</ele>
        <time>2017-10-30T12:16:01Z</time>
      </trkpt>
      <trkpt lat="51.955400984734297" lon="9.43200996145606">
        <ele>223.16</ele>
        <time>2017-10-30T12:16:13Z</time>
      </trkpt>
      <trkpt lat="51.954509988427162" lon="9.426181018352509">
        <ele>232.78</ele>
        <time>2017-10-30T12:16:27Z</time>
      </trkpt>
      <trkpt lat="51.95371001958847" lon="9.421044001355767">
        <ele>240.47</ele>
        <time>2017-10-30T12:16:39Z</time>
      </trkpt>
      <trkpt lat="51.952684996649623" lon="9.416246032342315">
        <ele>252</ele>
        <time>2017-10-30T12:16:50Z</time>
      </trkpt>
      <trkpt lat="51.951557965949178" lon="9.411262990906835">
        <ele>272.19</ele>
        <time>2017-10-30T12:17:02Z</time>
      </trkpt>
      <trkpt lat="51.951211960986257" lon="9.409731030464172">
        <ele>279.39999999999998</ele>
        <time>2017-10-30T12:17:08Z</time>
      </trkpt>
      <trkpt lat="51.951041975989938" lon="9.408979006111622">
        <ele>283.25</ele>
        <time>2017-10-30T12:17:14Z</time>
      </trkpt>
      <trkpt lat="51.95100300014019" lon="9.408809021115303">
        <ele>285.17000000000002</ele>
        <time>2017-10-30T12:17:17Z</time>
      </trkpt>
      <trkpt lat="51.950964024290442" lon="9.408688992261887">
        <ele>285.64999999999998</ele>
        <time>2017-10-30T12:17:18Z</time>
      </trkpt>
      <trkpt lat="51.950866039842367" lon="9.408635012805462">
        <ele>286.13</ele>
        <time>2017-10-30T12:17:19Z</time>
      </trkpt>
      <trkpt lat="51.950311996042728" lon="9.408376011997461">
        <ele>287.56999999999999</ele>
        <time>2017-10-30T12:17:23Z</time>
      </trkpt>
      <trkpt lat="51.950147040188313" lon="9.40839696675539">
        <ele>288.05000000000001</ele>
        <time>2017-10-30T12:17:24Z</time>
      </trkpt>
      <trkpt lat="51.949975965544581" lon="9.408423034474254">
        <ele>288.52999999999997</ele>
        <time>2017-10-30T12:17:25Z</time>
      </trkpt>
      <trkpt lat="51.94982198998332" lon="9.408490005880594">
        <ele>288.52999999999997</ele>
        <time>2017-10-30T12:17:26Z</time>
      </trkpt>
      <trkpt lat="51.949677988886833" lon="9.408553037792444">
        <ele>288.52999999999997</ele>
        <time>2017-10-30T12:17:27Z</time>
      </trkpt>
      <trkpt lat="51.949548991397023" lon="9.408650016412139">
        <ele>288.52999999999997</ele>
        <time>2017-10-30T12:17:28Z</time>
      </trkpt>
      <trkpt lat="51.949319997802377" lon="9.408841039985418">
        <ele>288.52999999999997</ele>
        <time>2017-10-30T12:17:30Z</time>
      </trkpt>
      <trkpt lat="51.94911103695631" lon="9.40901798196137">
        <ele>288.52999999999997</ele>
        <time>2017-10-30T12:17:32Z</time>
      </trkpt>
      <trkpt lat="51.94900400005281" lon="9.409088976681233">
        <ele>288.52999999999997</ele>
        <time>2017-10-30T12:17:33Z</time>
      </trkpt>
      <trkpt lat="51.94889503531158" lon="9.409160977229476">
        <ele>288.52999999999997</ele>
        <time>2017-10-30T12:17:34Z</time>
      </trkpt>
      <trkpt lat="51.948782969266176" lon="9.409216968342662">
        <ele>288.05000000000001</ele>
        <time>2017-10-30T12:17:35Z</time>
      </trkpt>
      <trkpt lat="51.948666041716933" lon="9.409263990819454">
        <ele>288.52999999999997</ele>
        <time>2017-10-30T12:17:36Z</time>
      </trkpt>
      <trkpt lat="51.947476984933019" lon="9.409412015229464">
        <ele>287.08999999999997</ele>
        <time>2017-10-30T12:17:46Z</time>
      </trkpt>
      <trkpt lat="51.947124022990465" lon="9.409347977489233">
        <ele>284.69</ele>
        <time>2017-10-30T12:17:49Z</time>
      </trkpt>
      <trkpt lat="51.947016986086965" lon="9.409270025789738">
        <ele>284.20999999999998</ele>
        <time>2017-10-30T12:17:50Z</time>
      </trkpt>
      <trkpt lat="51.946913972496986" lon="9.409196013584733">
        <ele>283.73000000000002</ele>
        <time>2017-10-30T12:17:51Z</time>
      </trkpt>
      <trkpt lat="51.946825962513685" lon="9.409130970016122">
        <ele>283.25</ele>
        <time>2017-10-30T12:17:52Z</time>
      </trkpt>
      <trkpt lat="51.946753039956093" lon="9.409079002216458">
        <ele>282.76999999999998</ele>
        <time>2017-10-30T12:17:53Z</time>
      </trkpt>
      <trkpt lat="51.946669975295663" lon="9.408954028040171">
        <ele>282.76999999999998</ele>
        <time>2017-10-30T12:17:55Z</time>
      </trkpt>
      <trkpt lat="51.946644997224212" lon="9.40891002304852">
        <ele>282.27999999999997</ele>
        <time>2017-10-30T12:17:56Z</time>
      </trkpt>
      <trkpt lat="51.946567967534065" lon="9.408954028040171">
        <ele>282.27999999999997</ele>
        <time>2017-10-30T12:17:57Z</time>
      </trkpt>
      <trkpt lat="51.946528991684318" lon="9.409014964476228">
        <ele>281.80000000000001</ele>
        <time>2017-10-30T12:17:58Z</time>
      </trkpt>
      <trkpt lat="51.946480963379145" lon="9.409091994166374">
        <ele>281.80000000000001</ele>
        <time>2017-10-30T12:17:59Z</time>
      </trkpt>
      <trkpt lat="51.946422960609198" lon="9.409186039119959">
        <ele>281.31999999999999</ele>
        <time>2017-10-30T12:18:00Z</time>
      </trkpt>
      <trkpt lat="51.946363030001521" lon="9.409283017739654">
        <ele>281.31999999999999</ele>
        <time>2017-10-30T12:18:01Z</time>
      </trkpt>
      <trkpt lat="51.946296980604529" lon="9.409387959167361">
        <ele>281.80000000000001</ele>
        <time>2017-10-30T12:18:02Z</time>
      </trkpt>
      <trkpt lat="51.945984000340104" lon="9.409870002418757">
        <ele>282.27999999999997</ele>
        <time>2017-10-30T12:18:06Z</time>
      </trkpt>
      <trkpt lat="51.9458909612149" lon="9.40996203571558">
        <ele>282.27999999999997</ele>
        <time>2017-10-30T12:18:07Z</time>
      </trkpt>
      <trkpt lat="51.945799011737108" lon="9.410053985193372">
        <ele>282.27999999999997</ele>
        <time>2017-10-30T12:18:08Z</time>
      </trkpt>
      <trkpt lat="51.945701027289033" lon="9.410133026540279">
        <ele>282.27999999999997</ele>
        <time>2017-10-30T12:18:09Z</time>
      </trkpt>
      <trkpt lat="51.945600025355816" lon="9.410202009603381">
        <ele>281.80000000000001</ele>
        <time>2017-10-30T12:18:10Z</time>
      </trkpt>
      <trkpt lat="51.944740964099765" lon="9.410963002592325">
        <ele>280.83999999999997</ele>
        <time>2017-10-30T12:18:20Z</time>
      </trkpt>
      <trkpt lat="51.944665024057031" lon="9.411073978990316">
        <ele>280.83999999999997</ele>
        <time>2017-10-30T12:18:21Z</time>
      </trkpt>
      <trkpt lat="51.944583971053362" lon="9.411185961216688">
        <ele>280.36000000000001</ele>
        <time>2017-10-30T12:18:22Z</time>
      </trkpt>
      <trkpt lat="51.944503001868725" lon="9.411296015605331">
        <ele>280.36000000000001</ele>
        <time>2017-10-30T12:18:23Z</time>
      </trkpt>
      <trkpt lat="51.944425972178578" lon="9.411400035023689">
        <ele>279.88</ele>
        <time>2017-10-30T12:18:24Z</time>
      </trkpt>
      <trkpt lat="51.944189015775919" lon="9.411723995581269">
        <ele>278.44</ele>
        <time>2017-10-30T12:18:27Z</time>
      </trkpt>
      <trkpt lat="51.943875029683113" lon="9.412149041891098">
        <ele>276.04000000000002</ele>
        <time>2017-10-30T12:18:31Z</time>
      </trkpt>
      <trkpt lat="51.943585015833378" lon="9.412470990791917">
        <ele>274.11000000000001</ele>
        <time>2017-10-30T12:18:35Z</time>
      </trkpt>
      <trkpt lat="51.943523995578289" lon="9.412526981905103">
        <ele>274.11000000000001</ele>
        <time>2017-10-30T12:18:36Z</time>
      </trkpt>
      <trkpt lat="51.943470016121864" lon="9.412577021867037">
        <ele>273.63</ele>
        <time>2017-10-30T12:18:37Z</time>
      </trkpt>
      <trkpt lat="51.943426011130214" lon="9.412547014653683">
        <ele>273.63</ele>
        <time>2017-10-30T12:18:38Z</time>
      </trkpt>
      <trkpt lat="51.943382006138563" lon="9.412511978298426">
        <ele>273.63</ele>
        <time>2017-10-30T12:18:39Z</time>
      </trkpt>
      <trkpt lat="51.943344036117196" lon="9.412440983578563">
        <ele>273.14999999999998</ele>
        <time>2017-10-30T12:18:40Z</time>
      </trkpt>
      <trkpt lat="51.943303970620036" lon="9.412311986088753">
        <ele>273.14999999999998</ele>
        <time>2017-10-30T12:18:41Z</time>
      </trkpt>
      <trkpt lat="51.943258037790656" lon="9.412161028012633">
        <ele>273.14999999999998</ele>
        <time>2017-10-30T12:18:42Z</time>
      </trkpt>
      <trkpt lat="51.942934999242425" lon="9.411194007843733">
        <ele>270.26999999999998</ele>
        <time>2017-10-30T12:18:47Z</time>
      </trkpt>
      <trkpt lat="51.942824022844434" lon="9.411019999533892">
        <ele>269.79000000000002</ele>
        <time>2017-10-30T12:18:48Z</time>
      </trkpt>
      <trkpt lat="51.942711034789681" lon="9.41084498539567">
        <ele>269.31</ele>
        <time>2017-10-30T12:18:49Z</time>
      </trkpt>
      <trkpt lat="51.942576002329588" lon="9.410738032311201">
        <ele>269.31</ele>
        <time>2017-10-30T12:18:50Z</time>
      </trkpt>
      <trkpt lat="51.942415991798043" lon="9.410626972094178">
        <ele>269.79000000000002</ele>
        <time>2017-10-30T12:18:51Z</time>
      </trkpt>
      <trkpt lat="51.94227802567184" lon="9.410565029829741">
        <ele>270.26999999999998</ele>
        <time>2017-10-30T12:18:52Z</time>
      </trkpt>
      <trkpt lat="51.94212899543345" lon="9.410497974604368">
        <ele>270.75</ele>
        <time>2017-10-30T12:18:53Z</time>
      </trkpt>
      <trkpt lat="51.94200100377202" lon="9.410439971834421">
        <ele>271.23000000000002</ele>
        <time>2017-10-30T12:18:54Z</time>
      </trkpt>
      <trkpt lat="51.941916011273861" lon="9.410345004871488">
        <ele>271.70999999999998</ele>
        <time>2017-10-30T12:18:55Z</time>
      </trkpt>
      <trkpt lat="51.941815009340644" lon="9.410219024866819">
        <ele>272.67000000000002</ele>
        <time>2017-10-30T12:18:56Z</time>
      </trkpt>
      <trkpt lat="51.941771004348993" lon="9.410107964649797">
        <ele>273.14999999999998</ele>
        <time>2017-10-30T12:18:57Z</time>
      </trkpt>
      <trkpt lat="51.941705960780382" lon="9.409943008795381">
        <ele>273.63</ele>
        <time>2017-10-30T12:18:58Z</time>
      </trkpt>
      <trkpt lat="51.941569000482559" lon="9.409595998004079">
        <ele>275.56</ele>
        <time>2017-10-30T12:19:00Z</time>
      </trkpt>
      <trkpt lat="51.941478978842497" lon="9.409470017999411">
        <ele>276.04000000000002</ele>
        <time>2017-10-30T12:19:01Z</time>
      </trkpt>
      <trkpt lat="51.941363979130983" lon="9.409387037158012">
        <ele>277</ele>
        <time>2017-10-30T12:19:02Z</time>
      </trkpt>
      <trkpt lat="51.941245961934328" lon="9.409302966669202">
        <ele>277.48000000000002</ele>
        <time>2017-10-30T12:19:03Z</time>
      </trkpt>
      <trkpt lat="51.941129034385085" lon="9.409217974171042">
        <ele>277.95999999999998</ele>
        <time>2017-10-30T12:19:04Z</time>
      </trkpt>
      <trkpt lat="51.941000036895275" lon="9.40912501886487">
        <ele>278.44</ele>
        <time>2017-10-30T12:19:05Z</time>
      </trkpt>
      <trkpt lat="51.940902974456549" lon="9.408981017768383">
        <ele>278.92000000000002</ele>
        <time>2017-10-30T12:19:06Z</time>
      </trkpt>
      <trkpt lat="51.940791998058558" lon="9.408814972266555">
        <ele>279.88</ele>
        <time>2017-10-30T12:19:07Z</time>
      </trkpt>
      <trkpt lat="51.940032010897994" lon="9.407744016498327">
        <ele>284.69</ele>
        <time>2017-10-30T12:19:13Z</time>
      </trkpt>
      <trkpt lat="51.939909970387816" lon="9.407644020393491">
        <ele>286.13</ele>
        <time>2017-10-30T12:19:14Z</time>
      </trkpt>
      <trkpt lat="51.939776027575135" lon="9.407595992088318">
        <ele>287.08999999999997</ele>
        <time>2017-10-30T12:19:15Z</time>
      </trkpt>
      <trkpt lat="51.939626997336745" lon="9.407591968774796">
        <ele>287.08999999999997</ele>
        <time>2017-10-30T12:19:16Z</time>
      </trkpt>
      <trkpt lat="51.939459023997188" lon="9.407616024836898">
        <ele>287.56999999999999</ele>
        <time>2017-10-30T12:19:17Z</time>
      </trkpt>
      <trkpt lat="51.93811297416687" lon="9.407800007611513">
        <ele>287.08999999999997</ele>
        <time>2017-10-30T12:19:23Z</time>
      </trkpt>
      <trkpt lat="51.935061039403081" lon="9.408262018114328">
        <ele>281.31999999999999</ele>
        <time>2017-10-30T12:19:34Z</time>
      </trkpt>
      <trkpt lat="51.932856012135744" lon="9.408462010324001">
        <ele>272.19</ele>
        <time>2017-10-30T12:19:42Z</time>
      </trkpt>
      <trkpt lat="51.930836979299784" lon="9.408884961158037">
        <ele>268.82999999999998</ele>
        <time>2017-10-30T12:19:50Z</time>
      </trkpt>
      <trkpt lat="51.930177994072437" lon="9.409076990559697">
        <ele>269.79000000000002</ele>
        <time>2017-10-30T12:19:54Z</time>
      </trkpt>
      <trkpt lat="51.930061988532543" lon="9.409152008593082">
        <ele>269.79000000000002</ele>
        <time>2017-10-30T12:19:55Z</time>
      </trkpt>
      <trkpt lat="51.929956041276455" lon="9.409243036061525">
        <ele>269.79000000000002</ele>
        <time>2017-10-30T12:19:56Z</time>
      </trkpt>
      <trkpt lat="51.929875994101167" lon="9.409414026886225">
        <ele>269.79000000000002</ele>
        <time>2017-10-30T12:19:57Z</time>
      </trkpt>
      <trkpt lat="51.929811034351587" lon="9.409612007439137">
        <ele>269.31</ele>
        <time>2017-10-30T12:19:58Z</time>
      </trkpt>
      <trkpt lat="51.929783038794994" lon="9.409865979105234">
        <ele>268.82999999999998</ele>
        <time>2017-10-30T12:19:59Z</time>
      </trkpt>
      <trkpt lat="51.929751019924879" lon="9.410154987126589">
        <ele>268.82999999999998</ele>
        <time>2017-10-30T12:20:00Z</time>
      </trkpt>
      <trkpt lat="51.929506016895175" lon="9.412362026050687">
        <ele>268.35000000000002</ele>
        <time>2017-10-30T12:20:06Z</time>
      </trkpt>
      <trkpt lat="51.929333014413714" lon="9.415146997198463">
        <ele>272.19</ele>
        <time>2017-10-30T12:20:13Z</time>
      </trkpt>
      <trkpt lat="51.929192030802369" lon="9.417223026975989">
        <ele>275.06999999999999</ele>
        <time>2017-10-30T12:20:19Z</time>
      </trkpt>
      <trkpt lat="51.929126987233758" lon="9.417495019733906">
        <ele>275.56</ele>
        <time>2017-10-30T12:20:20Z</time>
      </trkpt>
      <trkpt lat="51.929064961150289" lon="9.417757038027048">
        <ele>275.56</ele>
        <time>2017-10-30T12:20:21Z</time>
      </trkpt>
      <trkpt lat="51.929005030542612" lon="9.418007992208004">
        <ele>276.04000000000002</ele>
        <time>2017-10-30T12:20:22Z</time>
      </trkpt>
      <trkpt lat="51.928898999467492" lon="9.418208990246058">
        <ele>276.04000000000002</ele>
        <time>2017-10-30T12:20:23Z</time>
      </trkpt>
      <trkpt lat="51.928783999755979" lon="9.418427003547549">
        <ele>276.51999999999998</ele>
        <time>2017-10-30T12:20:24Z</time>
      </trkpt>
      <trkpt lat="51.928661959245801" lon="9.418657002970576">
        <ele>276.51999999999998</ele>
        <time>2017-10-30T12:20:25Z</time>
      </trkpt>
      <trkpt lat="51.928535979241133" lon="9.418895971029997">
        <ele>277</ele>
        <time>2017-10-30T12:20:26Z</time>
      </trkpt>
      <trkpt lat="51.928402036428452" lon="9.419152960181236">
        <ele>277.48000000000002</ele>
        <time>2017-10-30T12:20:27Z</time>
      </trkpt>
      <trkpt lat="51.928311008960009" lon="9.419464012607932">
        <ele>277.95999999999998</ele>
        <time>2017-10-30T12:20:28Z</time>
      </trkpt>
      <trkpt lat="51.927497964352369" lon="9.422184024006128">
        <ele>281.80000000000001</ele>
        <time>2017-10-30T12:20:37Z</time>
      </trkpt>
      <trkpt lat="51.926619959995151" lon="9.424104988574982">
        <ele>282.76999999999998</ele>
        <time>2017-10-30T12:20:44Z</time>
      </trkpt>
      <trkpt lat="51.925897020846605" lon="9.425436034798622">
        <ele>284.20999999999998</ele>
        <time>2017-10-30T12:20:50Z</time>
      </trkpt>
      <trkpt lat="51.925781015306711" lon="9.425570983439684">
        <ele>284.20999999999998</ele>
        <time>2017-10-30T12:20:51Z</time>
      </trkpt>
      <trkpt lat="51.925655035302043" lon="9.425702998414636">
        <ele>283.73000000000002</ele>
        <time>2017-10-30T12:20:52Z</time>
      </trkpt>
      <trkpt lat="51.925506005063653" lon="9.425782039761543">
        <ele>283.73000000000002</ele>
        <time>2017-10-30T12:20:53Z</time>
      </trkpt>
      <trkpt lat="51.925351023674011" lon="9.425864014774561">
        <ele>283.25</ele>
        <time>2017-10-30T12:20:54Z</time>
      </trkpt>
      <trkpt lat="51.925194030627608" lon="9.425955964252353">
        <ele>282.76999999999998</ele>
        <time>2017-10-30T12:20:55Z</time>
      </trkpt>
      <trkpt lat="51.924644010141492" lon="9.426302975043654">
        <ele>281.31999999999999</ele>
        <time>2017-10-30T12:20:59Z</time>
      </trkpt>
      <trkpt lat="51.924536973237991" lon="9.426439013332129">
        <ele>280.83999999999997</ele>
        <time>2017-10-30T12:21:00Z</time>
      </trkpt>
      <trkpt lat="51.924427002668381" lon="9.426589971408248">
        <ele>280.36000000000001</ele>
        <time>2017-10-30T12:21:01Z</time>
      </trkpt>
      <trkpt lat="51.924351984634995" lon="9.426795998588204">
        <ele>279.88</ele>
        <time>2017-10-30T12:21:02Z</time>
      </trkpt>
      <trkpt lat="51.924292976036668" lon="9.427037984132767">
        <ele>279.39999999999998</ele>
        <time>2017-10-30T12:21:03Z</time>
      </trkpt>
      <trkpt lat="51.92423103377223" lon="9.427296984940767">
        <ele>278.92000000000002</ele>
        <time>2017-10-30T12:21:04Z</time>
      </trkpt>
      <trkpt lat="51.923642037436366" lon="9.429186014458537">
        <ele>276.04000000000002</ele>
        <time>2017-10-30T12:21:11Z</time>
      </trkpt>
      <trkpt lat="51.923530977219343" lon="9.429357005283237">
        <ele>275.06999999999999</ele>
        <time>2017-10-30T12:21:12Z</time>
      </trkpt>
      <trkpt lat="51.923424024134874" lon="9.429521039128304">
        <ele>274.58999999999997</ele>
        <time>2017-10-30T12:21:13Z</time>
      </trkpt>
      <trkpt lat="51.923299971967936" lon="9.429654981940985">
        <ele>273.63</ele>
        <time>2017-10-30T12:21:14Z</time>
      </trkpt>
      <trkpt lat="51.92315798252821" lon="9.429740980267525">
        <ele>272.67000000000002</ele>
        <time>2017-10-30T12:21:15Z</time>
      </trkpt>
      <trkpt lat="51.923008030280471" lon="9.429832007735968">
        <ele>271.70999999999998</ele>
        <time>2017-10-30T12:21:16Z</time>
      </trkpt>
      <trkpt lat="51.922843996435404" lon="9.429919011890888">
        <ele>270.75</ele>
        <time>2017-10-30T12:21:17Z</time>
      </trkpt>
      <trkpt lat="51.922681974247098" lon="9.429926974698901">
        <ele>269.79000000000002</ele>
        <time>2017-10-30T12:21:18Z</time>
      </trkpt>
      <trkpt lat="51.922527998685837" lon="9.429935021325946">
        <ele>268.35000000000002</ele>
        <time>2017-10-30T12:21:19Z</time>
      </trkpt>
      <trkpt lat="51.922389026731253" lon="9.429909037426114">
        <ele>267.38</ele>
        <time>2017-10-30T12:21:20Z</time>
      </trkpt>
      <trkpt lat="51.922263968735933" lon="9.429854974150658">
        <ele>266.42000000000002</ele>
        <time>2017-10-30T12:21:21Z</time>
      </trkpt>
      <trkpt lat="51.922151986509562" lon="9.429807029664516">
        <ele>265.45999999999998</ele>
        <time>2017-10-30T12:21:22Z</time>
      </trkpt>
      <trkpt lat="51.922009997069836" lon="9.429746009409428">
        <ele>264.01999999999998</ele>
        <time>2017-10-30T12:21:24Z</time>
      </trkpt>
      <trkpt lat="51.92191201262176" lon="9.429759001359344">
        <ele>263.06</ele>
        <time>2017-10-30T12:21:25Z</time>
      </trkpt>
      <trkpt lat="51.921859038993716" lon="9.429766964167357">
        <ele>262.10000000000002</ele>
        <time>2017-10-30T12:21:26Z</time>
      </trkpt>
      <trkpt lat="51.921816039830446" lon="9.429839970543981">
        <ele>261.62</ele>
        <time>2017-10-30T12:21:27Z</time>
      </trkpt>
      <trkpt lat="51.921791983768344" lon="9.429905014112592">
        <ele>260.64999999999998</ele>
        <time>2017-10-30T12:21:28Z</time>
      </trkpt>
      <trkpt lat="51.921784020960331" lon="9.429992018267512">
        <ele>259.69</ele>
        <time>2017-10-30T12:21:29Z</time>
      </trkpt>
      <trkpt lat="51.921777985990047" lon="9.430065024644136">
        <ele>259.20999999999998</ele>
        <time>2017-10-30T12:21:30Z</time>
      </trkpt>
      <trkpt lat="51.921773040667176" lon="9.430121015757322">
        <ele>258.25</ele>
        <time>2017-10-30T12:21:31Z</time>
      </trkpt>
      <trkpt lat="51.921768011525273" lon="9.430167032405734">
        <ele>257.76999999999998</ele>
        <time>2017-10-30T12:21:32Z</time>
      </trkpt>
      <trkpt lat="51.921768011525273" lon="9.430167032405734">
        <ele>257.29000000000002</ele>
        <time>2017-10-30T12:21:42Z</time>
      </trkpt>
      <trkpt lat="51.921760970726609" lon="9.430249007418752">
        <ele>255.84999999999999</ele>
        <time>2017-10-30T12:22:26Z</time>
      </trkpt>
      <trkpt lat="51.921763988211751" lon="9.431014023721218">
        <ele>253.93000000000001</ele>
        <time>2017-10-30T12:22:31Z</time>
      </trkpt>
      <trkpt lat="51.921773962676525" lon="9.432621002197266">
        <ele>246.72</ele>
        <time>2017-10-30T12:22:39Z</time>
      </trkpt>
      <trkpt lat="51.921753007918596" lon="9.43278000690043">
        <ele>245.75</ele>
        <time>2017-10-30T12:22:40Z</time>
      </trkpt>
      <trkpt lat="51.921721994876862" lon="9.432928031310439">
        <ele>244.78999999999999</ele>
        <time>2017-10-30T12:22:41Z</time>
      </trkpt>
      <trkpt lat="51.921667009592056" lon="9.433043031021953">
        <ele>243.83000000000001</ele>
        <time>2017-10-30T12:22:42Z</time>
      </trkpt>
      <trkpt lat="51.921599032357335" lon="9.433131963014603">
        <ele>243.34999999999999</ele>
        <time>2017-10-30T12:22:43Z</time>
      </trkpt>
      <trkpt lat="51.92152502015233" lon="9.433170016855001">
        <ele>242.38999999999999</ele>
        <time>2017-10-30T12:22:44Z</time>
      </trkpt>
      <trkpt lat="51.921434998512268" lon="9.43318996578455">
        <ele>241.91</ele>
        <time>2017-10-30T12:22:45Z</time>
      </trkpt>
      <trkpt lat="51.921340031549335" lon="9.433174040168524">
        <ele>241.43000000000001</ele>
        <time>2017-10-30T12:22:46Z</time>
      </trkpt>
      <trkpt lat="51.921241041272879" lon="9.433116959407926">
        <ele>240.94999999999999</ele>
        <time>2017-10-30T12:22:47Z</time>
      </trkpt>
      <trkpt lat="51.921174991875887" lon="9.432999026030302">
        <ele>240.47</ele>
        <time>2017-10-30T12:22:48Z</time>
      </trkpt>
      <trkpt lat="51.921111037954688" lon="9.432877991348505">
        <ele>240.47</ele>
        <time>2017-10-30T12:22:49Z</time>
      </trkpt>
      <trkpt lat="51.921047000214458" lon="9.432758968323469">
        <ele>239.99000000000001</ele>
        <time>2017-10-30T12:22:50Z</time>
      </trkpt>
      <trkpt lat="51.920982962474227" lon="9.432640029117465">
        <ele>239.99000000000001</ele>
        <time>2017-10-30T12:22:51Z</time>
      </trkpt>
      <trkpt lat="51.920752041041851" lon="9.432207019999623">
        <ele>238.06</ele>
        <time>2017-10-30T12:22:55Z</time>
      </trkpt>
      <trkpt lat="51.920697977766395" lon="9.4321149867028">
        <ele>237.09999999999999</ele>
        <time>2017-10-30T12:22:56Z</time>
      </trkpt>
      <trkpt lat="51.920624971389771" lon="9.432097971439362">
        <ele>236.62</ele>
        <time>2017-10-30T12:22:57Z</time>
      </trkpt>
      <trkpt lat="51.920556994155049" lon="9.4321149867028">
        <ele>236.13999999999999</ele>
        <time>2017-10-30T12:22:58Z</time>
      </trkpt>
      <trkpt lat="51.920488011091948" lon="9.432197967544198">
        <ele>235.66</ele>
        <time>2017-10-30T12:22:59Z</time>
      </trkpt>
      <trkpt lat="51.920460015535355" lon="9.432300981134176">
        <ele>235.18000000000001</ele>
        <time>2017-10-30T12:23:00Z</time>
      </trkpt>
      <trkpt lat="51.920448029413819" lon="9.432449005544186">
        <ele>234.69999999999999</ele>
        <time>2017-10-30T12:23:01Z</time>
      </trkpt>
      <trkpt lat="51.920455992221832" lon="9.432599041610956">
        <ele>234.69999999999999</ele>
        <time>2017-10-30T12:23:02Z</time>
      </trkpt>
      <trkpt lat="51.920464960858226" lon="9.432763997465372">
        <ele>234.22</ele>
        <time>2017-10-30T12:23:03Z</time>
      </trkpt>
      <trkpt lat="51.920525981113315" lon="9.433862026780844">
        <ele>230.37</ele>
        <time>2017-10-30T12:23:09Z</time>
      </trkpt>
      <trkpt lat="51.920550037175417" lon="9.434008961543441">
        <ele>229.88999999999999</ele>
        <time>2017-10-30T12:23:10Z</time>
      </trkpt>
      <trkpt lat="51.920579960569739" lon="9.434149023145437">
        <ele>229.41</ele>
        <time>2017-10-30T12:23:11Z</time>
      </trkpt>
      <trkpt lat="51.920660007745028" lon="9.434524029493332">
        <ele>227.49000000000001</ele>
        <time>2017-10-30T12:23:14Z</time>
      </trkpt>
      <trkpt lat="51.920661013573408" lon="9.434658978134394">
        <ele>226.53</ele>
        <time>2017-10-30T12:23:15Z</time>
      </trkpt>
      <trkpt lat="51.920625977218151" lon="9.434741036966443">
        <ele>226.05000000000001</ele>
        <time>2017-10-30T12:23:16Z</time>
      </trkpt>
      <trkpt lat="51.920574009418488" lon="9.434786969795823">
        <ele>225.56999999999999</ele>
        <time>2017-10-30T12:23:17Z</time>
      </trkpt>
      <trkpt lat="51.92053796723485" lon="9.434751011431217">
        <ele>224.61000000000001</ele>
        <time>2017-10-30T12:23:18Z</time>
      </trkpt>
      <trkpt lat="51.920485999435186" lon="9.434695020318031">
        <ele>224.12</ele>
        <time>2017-10-30T12:23:19Z</time>
      </trkpt>
      <trkpt lat="51.920419028028846" lon="9.434622013941407">
        <ele>223.16</ele>
        <time>2017-10-30T12:23:20Z</time>
      </trkpt>
      <trkpt lat="51.920339986681938" lon="9.434535009786487">
        <ele>222.68000000000001</ele>
        <time>2017-10-30T12:23:21Z</time>
      </trkpt>
      <trkpt lat="51.920162960886955" lon="9.434342980384827">
        <ele>221.72</ele>
        <time>2017-10-30T12:23:23Z</time>
      </trkpt>
      <trkpt lat="51.920065982267261" lon="9.434257987886667">
        <ele>220.75999999999999</ele>
        <time>2017-10-30T12:23:24Z</time>
      </trkpt>
      <trkpt lat="51.919964980334044" lon="9.434213982895017">
        <ele>220.28</ele>
        <time>2017-10-30T12:23:25Z</time>
      </trkpt>
      <trkpt lat="51.919856015592813" lon="9.434210965409875">
        <ele>219.80000000000001</ele>
        <time>2017-10-30T12:23:26Z</time>
      </trkpt>
      <trkpt lat="51.919753002002835" lon="9.434257987886667">
        <ele>219.31999999999999</ele>
        <time>2017-10-30T12:23:27Z</time>
      </trkpt>
      <trkpt lat="51.919652000069618" lon="9.434311967343092">
        <ele>219.31999999999999</ele>
        <time>2017-10-30T12:23:28Z</time>
      </trkpt>
      <trkpt lat="51.919566001743078" lon="9.434393020346761">
        <ele>218.84</ele>
        <time>2017-10-30T12:23:29Z</time>
      </trkpt>
      <trkpt lat="51.919392999261618" lon="9.434555964544416">
        <ele>217.88</ele>
        <time>2017-10-30T12:23:31Z</time>
      </trkpt>
      <trkpt lat="51.919299960136414" lon="9.434616984799504">
        <ele>217.40000000000001</ele>
        <time>2017-10-30T12:23:32Z</time>
      </trkpt>
      <trkpt lat="51.919198958203197" lon="9.434616984799504">
        <ele>216.91</ele>
        <time>2017-10-30T12:23:33Z</time>
      </trkpt>
      <trkpt lat="51.919090999290347" lon="9.434616984799504">
        <ele>215.94999999999999</ele>
        <time>2017-10-30T12:23:34Z</time>
      </trkpt>
      <trkpt lat="51.918992009013891" lon="9.434567028656602">
        <ele>214.50999999999999</ele>
        <time>2017-10-30T12:23:35Z</time>
      </trkpt>
      <trkpt lat="51.918887989595532" lon="9.434498967602849">
        <ele>213.55000000000001</ele>
        <time>2017-10-30T12:23:36Z</time>
      </trkpt>
      <trkpt lat="51.918791010975838" lon="9.434401988983154">
        <ele>212.59</ele>
        <time>2017-10-30T12:23:37Z</time>
      </trkpt>
      <trkpt lat="51.918695038184524" lon="9.43430601619184">
        <ele>211.15000000000001</ele>
        <time>2017-10-30T12:23:38Z</time>
      </trkpt>
      <trkpt lat="51.918597975745797" lon="9.434209037572146">
        <ele>210.19</ele>
        <time>2017-10-30T12:23:39Z</time>
      </trkpt>
      <trkpt lat="51.918523963540792" lon="9.434032011777163">
        <ele>208.74000000000001</ele>
        <time>2017-10-30T12:23:40Z</time>
      </trkpt>
      <trkpt lat="51.91845296882093" lon="9.433864960446954">
        <ele>207.30000000000001</ele>
        <time>2017-10-30T12:23:41Z</time>
      </trkpt>
      <trkpt lat="51.918383985757828" lon="9.433698998764157">
        <ele>206.34</ele>
        <time>2017-10-30T12:23:42Z</time>
      </trkpt>
      <trkpt lat="51.918317014351487" lon="9.433538988232613">
        <ele>204.90000000000001</ele>
        <time>2017-10-30T12:23:43Z</time>
      </trkpt>
      <trkpt lat="51.918147029355168" lon="9.433135986328125">
        <ele>201.53</ele>
        <time>2017-10-30T12:23:46Z</time>
      </trkpt>
      <trkpt lat="51.918056001886725" lon="9.43301897495985">
        <ele>200.56999999999999</ele>
        <time>2017-10-30T12:23:47Z</time>
      </trkpt>
      <trkpt lat="51.91798098385334" lon="9.432934988290072">
        <ele>200.09</ele>
        <time>2017-10-30T12:23:48Z</time>
      </trkpt>
      <trkpt lat="51.917889034375548" lon="9.432913027703762">
        <ele>199.13</ele>
        <time>2017-10-30T12:23:49Z</time>
      </trkpt>
      <trkpt lat="51.917800018563867" lon="9.432961978018284">
        <ele>198.65000000000001</ele>
        <time>2017-10-30T12:23:50Z</time>
      </trkpt>
      <trkpt lat="51.917704967781901" lon="9.433027021586895">
        <ele>198.16999999999999</ele>
        <time>2017-10-30T12:23:51Z</time>
      </trkpt>
      <trkpt lat="51.917623998597264" lon="9.433143027126789">
        <ele>197.21000000000001</ele>
        <time>2017-10-30T12:23:52Z</time>
      </trkpt>
      <trkpt lat="51.917539006099105" lon="9.433264983817935">
        <ele>196.72999999999999</ele>
        <time>2017-10-30T12:23:53Z</time>
      </trkpt>
      <trkpt lat="51.91748502664268" lon="9.433447038754821">
        <ele>195.77000000000001</ele>
        <time>2017-10-30T12:23:54Z</time>
      </trkpt>
      <trkpt lat="51.917439009994268" lon="9.433632027357817">
        <ele>194.80000000000001</ele>
        <time>2017-10-30T12:23:55Z</time>
      </trkpt>
      <trkpt lat="51.917395005002618" lon="9.433834031224251">
        <ele>193.84</ele>
        <time>2017-10-30T12:23:56Z</time>
      </trkpt>
      <trkpt lat="51.917386036366224" lon="9.434038968756795">
        <ele>193.36000000000001</ele>
        <time>2017-10-30T12:23:57Z</time>
      </trkpt>
      <trkpt lat="51.917376983910799" lon="9.434232003986836">
        <ele>192.40000000000001</ele>
        <time>2017-10-30T12:23:58Z</time>
      </trkpt>
      <trkpt lat="51.917369021102786" lon="9.434412969276309">
        <ele>191.91999999999999</ele>
        <time>2017-10-30T12:23:59Z</time>
      </trkpt>
      <trkpt lat="51.917361980304122" lon="9.434577003121376">
        <ele>190.96000000000001</ele>
        <time>2017-10-30T12:24:00Z</time>
      </trkpt>
      <trkpt lat="51.91735502332449" lon="9.434724021703005">
        <ele>190.47999999999999</ele>
        <time>2017-10-30T12:24:01Z</time>
      </trkpt>
      <trkpt lat="51.917315041646361" lon="9.434836003929377">
        <ele>189.52000000000001</ele>
        <time>2017-10-30T12:24:02Z</time>
      </trkpt>
      <trkpt lat="51.917259972542524" lon="9.434934994205833">
        <ele>189.03999999999999</ele>
        <time>2017-10-30T12:24:03Z</time>
      </trkpt>
      <trkpt lat="51.917187971994281" lon="9.43497103638947">
        <ele>188.08000000000001</ele>
        <time>2017-10-30T12:24:04Z</time>
      </trkpt>
      <trkpt lat="51.917115971446037" lon="9.434966007247567">
        <ele>187.11000000000001</ele>
        <time>2017-10-30T12:24:05Z</time>
      </trkpt>
      <trkpt lat="51.917041037231684" lon="9.434912027791143">
        <ele>186.63</ele>
        <time>2017-10-30T12:24:06Z</time>
      </trkpt>
      <trkpt lat="51.91697096452117" lon="9.434833992272615">
        <ele>185.66999999999999</ele>
        <time>2017-10-30T12:24:07Z</time>
      </trkpt>
      <trkpt lat="51.916910028085113" lon="9.434697031974793">
        <ele>185.19</ele>
        <time>2017-10-30T12:24:08Z</time>
      </trkpt>
      <trkpt lat="51.91684297285974" lon="9.434545990079641">
        <ele>184.22999999999999</ele>
        <time>2017-10-30T12:24:09Z</time>
      </trkpt>
      <trkpt lat="51.916783964261413" lon="9.43437097594142">
        <ele>183.75</ele>
        <time>2017-10-30T12:24:10Z</time>
      </trkpt>
      <trkpt lat="51.916728978976607" lon="9.434171989560127">
        <ele>182.78999999999999</ele>
        <time>2017-10-30T12:24:11Z</time>
      </trkpt>
      <trkpt lat="51.916671982035041" lon="9.433965962380171">
        <ele>182.31</ele>
        <time>2017-10-30T12:24:12Z</time>
      </trkpt>
      <trkpt lat="51.916517000645399" lon="9.433409990742803">
        <ele>179.41999999999999</ele>
        <time>2017-10-30T12:24:15Z</time>
      </trkpt>
      <trkpt lat="51.916463021188974" lon="9.43327596411109">
        <ele>178.46000000000001</ele>
        <time>2017-10-30T12:24:16Z</time>
      </trkpt>
      <trkpt lat="51.916380962356925" lon="9.433202035725117">
        <ele>177.5</ele>
        <time>2017-10-30T12:24:17Z</time>
      </trkpt>
      <trkpt lat="51.916293036192656" lon="9.43316699936986">
        <ele>177.02000000000001</ele>
        <time>2017-10-30T12:24:18Z</time>
      </trkpt>
      <trkpt lat="51.91619798541069" lon="9.433145960792899">
        <ele>176.06</ele>
        <time>2017-10-30T12:24:19Z</time>
      </trkpt>
      <trkpt lat="51.916108969599009" lon="9.433194994926453">
        <ele>175.58000000000001</ele>
        <time>2017-10-30T12:24:20Z</time>
      </trkpt>
      <trkpt lat="51.916023977100849" lon="9.433243023231626">
        <ele>174.62</ele>
        <time>2017-10-30T12:24:21Z</time>
      </trkpt>
      <trkpt lat="51.915961029008031" lon="9.433356011286378">
        <ele>174.13999999999999</ele>
        <time>2017-10-30T12:24:22Z</time>
      </trkpt>
      <trkpt lat="51.915893973782659" lon="9.433478973805904">
        <ele>173.16999999999999</ele>
        <time>2017-10-30T12:24:23Z</time>
      </trkpt>
      <trkpt lat="51.91587695851922" lon="9.433613000437617">
        <ele>172.69</ele>
        <time>2017-10-30T12:24:24Z</time>
      </trkpt>
      <trkpt lat="51.915893973782659" lon="9.433775022625923">
        <ele>171.72999999999999</ele>
        <time>2017-10-30T12:24:25Z</time>
      </trkpt>
      <trkpt lat="51.915920963510871" lon="9.433933021500707">
        <ele>171.25</ele>
        <time>2017-10-30T12:24:26Z</time>
      </trkpt>
      <trkpt lat="51.915948959067464" lon="9.434095965698361">
        <ele>170.77000000000001</ele>
        <time>2017-10-30T12:24:27Z</time>
      </trkpt>
      <trkpt lat="51.915975026786327" lon="9.434246001765132">
        <ele>169.81</ele>
        <time>2017-10-30T12:24:28Z</time>
      </trkpt>
      <trkpt lat="51.915979972109199" lon="9.434386985376477">
        <ele>168.84999999999999</ele>
        <time>2017-10-30T12:24:29Z</time>
      </trkpt>
      <trkpt lat="51.915977038443089" lon="9.434537021443248">
        <ele>168.37</ele>
        <time>2017-10-30T12:24:30Z</time>
      </trkpt>
      <trkpt lat="51.915925992652774" lon="9.434638023376465">
        <ele>167.88999999999999</ele>
        <time>2017-10-30T12:24:31Z</time>
      </trkpt>
      <trkpt lat="51.915851980447769" lon="9.434709018096328">
        <ele>166.93000000000001</ele>
        <time>2017-10-30T12:24:32Z</time>
      </trkpt>
      <trkpt lat="51.915770005434752" lon="9.434723015874624">
        <ele>166.44999999999999</ele>
        <time>2017-10-30T12:24:33Z</time>
      </trkpt>
      <trkpt lat="51.915683001279831" lon="9.434641962870956">
        <ele>165.96000000000001</ele>
        <time>2017-10-30T12:24:34Z</time>
      </trkpt>
      <trkpt lat="51.915598008781672" lon="9.434544984251261">
        <ele>165</ele>
        <time>2017-10-30T12:24:35Z</time>
      </trkpt>
      <trkpt lat="51.915520979091525" lon="9.434411963447928">
        <ele>164.03999999999999</ele>
        <time>2017-10-30T12:24:36Z</time>
      </trkpt>
      <trkpt lat="51.915442021563649" lon="9.434256982058287">
        <ele>163.56</ele>
        <time>2017-10-30T12:24:37Z</time>
      </trkpt>
      <trkpt lat="51.915371026843786" lon="9.434072999283671">
        <ele>162.59999999999999</ele>
        <time>2017-10-30T12:24:38Z</time>
      </trkpt>
      <trkpt lat="51.915299026295543" lon="9.433888010680676">
        <ele>161.63999999999999</ele>
        <time>2017-10-30T12:24:39Z</time>
      </trkpt>
      <trkpt lat="51.914903987199068" lon="9.432864999398589">
        <ele>156.83000000000001</ele>
        <time>2017-10-30T12:24:45Z</time>
      </trkpt>
      <trkpt lat="51.914769960567355" lon="9.432590994983912">
        <ele>154.91</ele>
        <time>2017-10-30T12:24:47Z</time>
      </trkpt>
      <trkpt lat="51.914687985554338" lon="9.432514971122146">
        <ele>153.94999999999999</ele>
        <time>2017-10-30T12:24:48Z</time>
      </trkpt>
      <trkpt lat="51.914601987227798" lon="9.432478006929159">
        <ele>153.47</ele>
        <time>2017-10-30T12:24:49Z</time>
      </trkpt>
      <trkpt lat="51.914519006386399" lon="9.432503990828991">
        <ele>152.50999999999999</ele>
        <time>2017-10-30T12:24:50Z</time>
      </trkpt>
      <trkpt lat="51.91441398113966" lon="9.432556964457035">
        <ele>152.03</ele>
        <time>2017-10-30T12:24:51Z</time>
      </trkpt>
      <trkpt lat="51.914381040260196" lon="9.432638017460704">
        <ele>151.53999999999999</ele>
        <time>2017-10-30T12:24:52Z</time>
      </trkpt>
      <trkpt lat="51.914362013339996" lon="9.432775983586907">
        <ele>150.58000000000001</ele>
        <time>2017-10-30T12:24:53Z</time>
      </trkpt>
      <trkpt lat="51.91434902139008" lon="9.432930964976549">
        <ele>149.62</ele>
        <time>2017-10-30T12:24:54Z</time>
      </trkpt>
      <trkpt lat="51.914336029440165" lon="9.4331010337919">
        <ele>148.66</ele>
        <time>2017-10-30T12:24:55Z</time>
      </trkpt>
      <trkpt lat="51.914338041096926" lon="9.433260038495064">
        <ele>147.69999999999999</ele>
        <time>2017-10-30T12:24:56Z</time>
      </trkpt>
      <trkpt lat="51.914366036653519" lon="9.43342499434948">
        <ele>147.22</ele>
        <time>2017-10-30T12:24:57Z</time>
      </trkpt>
      <trkpt lat="51.914395038038492" lon="9.433594979345799">
        <ele>146.74000000000001</ele>
        <time>2017-10-30T12:24:58Z</time>
      </trkpt>
      <trkpt lat="51.914425967261195" lon="9.433770999312401">
        <ele>146.25999999999999</ele>
        <time>2017-10-30T12:24:59Z</time>
      </trkpt>
      <trkpt lat="51.914510037750006" lon="9.434258993715048">
        <ele>144.34</ele>
        <time>2017-10-30T12:25:02Z</time>
      </trkpt>
      <trkpt lat="51.914535015821457" lon="9.434406012296677">
        <ele>143.37</ele>
        <time>2017-10-30T12:25:03Z</time>
      </trkpt>
      <trkpt lat="51.91456301137805" lon="9.434575997292996">
        <ele>142.88999999999999</ele>
        <time>2017-10-30T12:25:04Z</time>
      </trkpt>
      <trkpt lat="51.914525963366032" lon="9.434699965640903">
        <ele>141.93000000000001</ele>
        <time>2017-10-30T12:25:05Z</time>
      </trkpt>
      <trkpt lat="51.914467038586736" lon="9.434812031686306">
        <ele>140.97</ele>
        <time>2017-10-30T12:25:06Z</time>
      </trkpt>
      <trkpt lat="51.914394032210112" lon="9.43486399948597">
        <ele>139.53</ele>
        <time>2017-10-30T12:25:07Z</time>
      </trkpt>
      <trkpt lat="51.914304010570049" lon="9.434881014749408">
        <ele>138.56999999999999</ele>
        <time>2017-10-30T12:25:08Z</time>
      </trkpt>
      <trkpt lat="51.914231004193425" lon="9.434803985059261">
        <ele>137.61000000000001</ele>
        <time>2017-10-30T12:25:09Z</time>
      </trkpt>
      <trkpt lat="51.914166966453195" lon="9.434719998389483">
        <ele>136.63999999999999</ele>
        <time>2017-10-30T12:25:10Z</time>
      </trkpt>
      <trkpt lat="51.914096977561712" lon="9.434627965092659">
        <ele>136.16</ele>
        <time>2017-10-30T12:25:11Z</time>
      </trkpt>
      <trkpt lat="51.913954988121986" lon="9.434402994811535">
        <ele>134.72</ele>
        <time>2017-10-30T12:25:13Z</time>
      </trkpt>
      <trkpt lat="51.913647959008813" lon="9.433762030676007">
        <ele>130.88</ele>
        <time>2017-10-30T12:25:17Z</time>
      </trkpt>
      <trkpt lat="51.913494989275932" lon="9.43340303376317">
        <ele>128.94999999999999</ele>
        <time>2017-10-30T12:25:19Z</time>
      </trkpt>
      <trkpt lat="51.913449978455901" lon="9.433200024068356">
        <ele>128.47</ele>
        <time>2017-10-30T12:25:20Z</time>
      </trkpt>
      <trkpt lat="51.913403961807489" lon="9.432990979403257">
        <ele>127.51000000000001</ele>
        <time>2017-10-30T12:25:21Z</time>
      </trkpt>
      <trkpt lat="51.913349982351065" lon="9.432585965842009">
        <ele>126.55</ele>
        <time>2017-10-30T12:25:23Z</time>
      </trkpt>
      <trkpt lat="51.913293991237879" lon="9.432058995589614">
        <ele>125.11</ele>
        <time>2017-10-30T12:25:26Z</time>
      </trkpt>
      <trkpt lat="51.913277981802821" lon="9.431905020028353">
        <ele>124.63</ele>
        <time>2017-10-30T12:25:27Z</time>
      </trkpt>
      <trkpt lat="51.913203969597816" lon="9.431808963418007">
        <ele>123.67</ele>
        <time>2017-10-30T12:25:28Z</time>
      </trkpt>
      <trkpt lat="51.913139009848237" lon="9.431735035032034">
        <ele>123.19</ele>
        <time>2017-10-30T12:25:29Z</time>
      </trkpt>
      <trkpt lat="51.9130580406636" lon="9.431731011718512">
        <ele>122.22</ele>
        <time>2017-10-30T12:25:30Z</time>
      </trkpt>
      <trkpt lat="51.912976987659931" lon="9.431767975911498">
        <ele>121.73999999999999</ele>
        <time>2017-10-30T12:25:31Z</time>
      </trkpt>
      <trkpt lat="51.912914039567113" lon="9.431851962581277">
        <ele>120.78</ele>
        <time>2017-10-30T12:25:32Z</time>
      </trkpt>
      <trkpt lat="51.912855030968785" lon="9.43196696229279">
        <ele>119.81999999999999</ele>
        <time>2017-10-30T12:25:33Z</time>
      </trkpt>
      <trkpt lat="51.912818988785148" lon="9.432111969217658">
        <ele>119.34</ele>
        <time>2017-10-30T12:25:34Z</time>
      </trkpt>
      <trkpt lat="51.912794010713696" lon="9.432285977527499">
        <ele>118.38</ele>
        <time>2017-10-30T12:25:35Z</time>
      </trkpt>
      <trkpt lat="51.912775989621878" lon="9.43248001858592">
        <ele>117.90000000000001</ele>
        <time>2017-10-30T12:25:36Z</time>
      </trkpt>
      <trkpt lat="51.912756962701678" lon="9.432686967775226">
        <ele>116.94</ele>
        <time>2017-10-30T12:25:37Z</time>
      </trkpt>
      <trkpt lat="51.91275998018682" lon="9.434030000120401">
        <ele>112.13</ele>
        <time>2017-10-30T12:25:45Z</time>
      </trkpt>
      <trkpt lat="51.912768026813865" lon="9.434624025598168">
        <ele>110.20999999999999</ele>
        <time>2017-10-30T12:25:50Z</time>
      </trkpt>
      <trkpt lat="51.912755034863949" lon="9.434740031138063">
        <ele>109.73</ele>
        <time>2017-10-30T12:25:51Z</time>
      </trkpt>
      <trkpt lat="51.912738019600511" lon="9.434842960909009">
        <ele>109.73</ele>
        <time>2017-10-30T12:25:52Z</time>
      </trkpt>
      <trkpt lat="51.912714969366789" lon="9.434969024732709">
        <ele>109.73</ele>
        <time>2017-10-30T12:25:53Z</time>
      </trkpt>
      <trkpt lat="51.91267398186028" lon="9.435062985867262">
        <ele>109.73</ele>
        <time>2017-10-30T12:25:54Z</time>
      </trkpt>
      <trkpt lat="51.912629976868629" lon="9.43514496088028">
        <ele>109.25</ele>
        <time>2017-10-30T12:25:55Z</time>
      </trkpt>
      <trkpt lat="51.912598041817546" lon="9.435193995013833">
        <ele>109.25</ele>
        <time>2017-10-30T12:25:56Z</time>
      </trkpt>
      <trkpt lat="51.912577003240585" lon="9.435226013883948">
        <ele>108.77</ele>
        <time>2017-10-30T12:25:57Z</time>
      </trkpt>
      <trkpt lat="51.912416992709041" lon="9.435219978913665">
        <ele>108.29000000000001</ele>
        <time>2017-10-30T12:25:58Z</time>
      </trkpt>
      <trkpt lat="51.912416992709041" lon="9.435219978913665">
        <ele>108.29000000000001</ele>
        <time>2017-10-30T12:25:59Z</time>
      </trkpt>
      <trkpt lat="51.912396959960461" lon="9.435175973922014">
        <ele>107.31999999999999</ele>
        <time>2017-10-30T12:26:02Z</time>
      </trkpt>
      <trkpt lat="51.912380028516054" lon="9.435136998072267">
        <ele>107.31999999999999</ele>
        <time>2017-10-30T12:26:03Z</time>
      </trkpt>
      <trkpt lat="51.912349015474319" lon="9.435069020837545">
        <ele>106.84</ele>
        <time>2017-10-30T12:26:04Z</time>
      </trkpt>
      <trkpt lat="51.912304004654288" lon="9.434962989762425">
        <ele>106.36</ele>
        <time>2017-10-30T12:26:05Z</time>
      </trkpt>
      <trkpt lat="51.912254970520735" lon="9.434826029464603">
        <ele>105.88</ele>
        <time>2017-10-30T12:26:06Z</time>
      </trkpt>
      <trkpt lat="51.91192296333611" lon="9.433592967689037">
        <ele>102.04000000000001</ele>
        <time>2017-10-30T12:26:12Z</time>
      </trkpt>
      <trkpt lat="51.911864038556814" lon="9.433185020461679">
        <ele>100.59999999999999</ele>
        <time>2017-10-30T12:26:14Z</time>
      </trkpt>
      <trkpt lat="51.911840988323092" lon="9.431549040600658">
        <ele>95.310000000000002</ele>
        <time>2017-10-30T12:26:23Z</time>
      </trkpt>
      <trkpt lat="51.911848029121757" lon="9.431376960128546">
        <ele>94.829999999999998</ele>
        <time>2017-10-30T12:26:24Z</time>
      </trkpt>
      <trkpt lat="51.911849034950137" lon="9.430892989039421">
        <ele>93.390000000000001</ele>
        <time>2017-10-30T12:26:27Z</time>
      </trkpt>
      <trkpt lat="51.911838976666331" lon="9.430217994377017">
        <ele>90.980000000000004</ele>
        <time>2017-10-30T12:26:31Z</time>
      </trkpt>
      <trkpt lat="51.912009967491031" lon="9.4282709620893">
        <ele>84.25</ele>
        <time>2017-10-30T12:26:42Z</time>
      </trkpt>
      <trkpt lat="51.912122033536434" lon="9.426601035520434">
        <ele>82.329999999999998</ele>
        <time>2017-10-30T12:26:51Z</time>
      </trkpt>
      <trkpt lat="51.91213502548635" lon="9.425839958712459">
        <ele>80.890000000000001</ele>
        <time>2017-10-30T12:26:55Z</time>
      </trkpt>
      <trkpt lat="51.912138964980841" lon="9.425625968724489">
        <ele>80.409999999999997</ele>
        <time>2017-10-30T12:26:56Z</time>
      </trkpt>
      <trkpt lat="51.912107029929757" lon="9.425480039790273">
        <ele>79.930000000000007</ele>
        <time>2017-10-30T12:26:57Z</time>
      </trkpt>
      <trkpt lat="51.912051038816571" lon="9.425321035087109">
        <ele>79.930000000000007</ele>
        <time>2017-10-30T12:26:58Z</time>
      </trkpt>
      <trkpt lat="51.911987001076341" lon="9.425161024555564">
        <ele>79.450000000000003</ele>
        <time>2017-10-30T12:26:59Z</time>
      </trkpt>
      <trkpt lat="51.911923969164491" lon="9.4250020198524">
        <ele>79.450000000000003</ele>
        <time>2017-10-30T12:27:00Z</time>
      </trkpt>
      <trkpt lat="51.911745015531778" lon="9.424491981044412">
        <ele>78.969999999999999</ele>
        <time>2017-10-30T12:27:03Z</time>
      </trkpt>
      <trkpt lat="51.911706039682031" lon="9.424300035461783">
        <ele>78.480000000000004</ele>
        <time>2017-10-30T12:27:04Z</time>
      </trkpt>
      <trkpt lat="51.911693969741464" lon="9.424114963039756">
        <ele>78.480000000000004</ele>
        <time>2017-10-30T12:27:05Z</time>
      </trkpt>
      <trkpt lat="51.911681983619928" lon="9.423927962779999">
        <ele>78.969999999999999</ele>
        <time>2017-10-30T12:27:06Z</time>
      </trkpt>
      <trkpt lat="51.911669997498393" lon="9.423739034682512">
        <ele>78.969999999999999</ele>
        <time>2017-10-30T12:27:07Z</time>
      </trkpt>
      <trkpt lat="51.911516021937132" lon="9.42163098603487">
        <ele>79.930000000000007</ele>
        <time>2017-10-30T12:27:18Z</time>
      </trkpt>
      <trkpt lat="51.911285016685724" lon="9.418803015723825">
        <ele>80.890000000000001</ele>
        <time>2017-10-30T12:27:33Z</time>
      </trkpt>
      <trkpt lat="51.911051999777555" lon="9.416362037882209">
        <ele>85.209999999999994</ele>
        <time>2017-10-30T12:27:46Z</time>
      </trkpt>
      <trkpt lat="51.911004977300763" lon="9.415986025705934">
        <ele>86.180000000000007</ele>
        <time>2017-10-30T12:27:48Z</time>
      </trkpt>
      <trkpt lat="51.910979999229312" lon="9.415798019617796">
        <ele>87.140000000000001</ele>
        <time>2017-10-30T12:27:49Z</time>
      </trkpt>
      <trkpt lat="51.910956026986241" lon="9.41561202518642">
        <ele>87.620000000000005</ele>
        <time>2017-10-30T12:27:50Z</time>
      </trkpt>
      <trkpt lat="51.910601975396276" lon="9.413770018145442">
        <ele>90.980000000000004</ele>
        <time>2017-10-30T12:27:59Z</time>
      </trkpt>
      <trkpt lat="51.909951036795974" lon="9.411797001957893">
        <ele>89.540000000000006</ele>
        <time>2017-10-30T12:28:05Z</time>
      </trkpt>
      <trkpt lat="51.908940011635423" lon="9.410311980172992">
        <ele>87.140000000000001</ele>
        <time>2017-10-30T12:28:10Z</time>
      </trkpt>
      <trkpt lat="51.907411990687251" lon="9.409260973334312">
        <ele>86.659999999999997</ele>
        <time>2017-10-30T12:28:16Z</time>
      </trkpt>
      <trkpt lat="51.905012000352144" lon="9.408078035339713">
        <ele>87.140000000000001</ele>
        <time>2017-10-30T12:28:25Z</time>
      </trkpt>
      <trkpt lat="51.902933036908507" lon="9.407066004350781">
        <ele>86.180000000000007</ele>
        <time>2017-10-30T12:28:34Z</time>
      </trkpt>
      <trkpt lat="51.90145798958838" lon="9.406636012718082">
        <ele>86.659999999999997</ele>
        <time>2017-10-30T12:28:41Z</time>
      </trkpt>
      <trkpt lat="51.900023007765412" lon="9.406925020739436">
        <ele>89.540000000000006</ele>
        <time>2017-10-30T12:28:48Z</time>
      </trkpt>
      <trkpt lat="51.899204012006521" lon="9.407193996012211">
        <ele>93.390000000000001</ele>
        <time>2017-10-30T12:28:54Z</time>
      </trkpt>
      <trkpt lat="51.899096975103021" lon="9.407193996012211">
        <ele>93.390000000000001</ele>
        <time>2017-10-30T12:28:55Z</time>
      </trkpt>
      <trkpt lat="51.898992033675313" lon="9.407171029597521">
        <ele>92.900000000000006</ele>
        <time>2017-10-30T12:28:56Z</time>
      </trkpt>
      <trkpt lat="51.898890025913715" lon="9.40710699185729">
        <ele>92.420000000000002</ele>
        <time>2017-10-30T12:28:57Z</time>
      </trkpt>
      <trkpt lat="51.89881500788033" lon="9.407018981873989">
        <ele>91.939999999999998</ele>
        <time>2017-10-30T12:28:58Z</time>
      </trkpt>
      <trkpt lat="51.898748958483338" lon="9.406910017132759">
        <ele>90.980000000000004</ele>
        <time>2017-10-30T12:28:59Z</time>
      </trkpt>
      <trkpt lat="51.898678969591856" lon="9.406796023249626">
        <ele>90.5</ele>
        <time>2017-10-30T12:29:00Z</time>
      </trkpt>
      <trkpt lat="51.898605041205883" lon="9.406670965254307">
        <ele>90.019999999999996</ele>
        <time>2017-10-30T12:29:01Z</time>
      </trkpt>
      <trkpt lat="51.897985031828284" lon="9.405554998666048">
        <ele>86.180000000000007</ele>
        <time>2017-10-30T12:29:09Z</time>
      </trkpt>
      <trkpt lat="51.897900961339474" lon="9.405447039753199">
        <ele>85.689999999999998</ele>
        <time>2017-10-30T12:29:10Z</time>
      </trkpt>
      <trkpt lat="51.897791996598244" lon="9.40540999174118">
        <ele>85.209999999999994</ele>
        <time>2017-10-30T12:29:11Z</time>
      </trkpt>
      <trkpt lat="51.897680014371872" lon="9.405381996184588">
        <ele>84.730000000000004</ele>
        <time>2017-10-30T12:29:12Z</time>
      </trkpt>
      <trkpt lat="51.89756702631712" lon="9.405395993962884">
        <ele>84.25</ele>
        <time>2017-10-30T12:29:13Z</time>
      </trkpt>
      <trkpt lat="51.897446997463703" lon="9.405443016439676">
        <ele>83.769999999999996</ele>
        <time>2017-10-30T12:29:14Z</time>
      </trkpt>
      <trkpt lat="51.897325040772557" lon="9.405490960925818">
        <ele>83.290000000000006</ele>
        <time>2017-10-30T12:29:15Z</time>
      </trkpt>
      <trkpt lat="51.897206017747521" lon="9.40553798340261">
        <ele>82.810000000000002</ele>
        <time>2017-10-30T12:29:16Z</time>
      </trkpt>
      <trkpt lat="51.895820992067456" lon="9.406138965860009">
        <ele>83.769999999999996</ele>
        <time>2017-10-30T12:29:28Z</time>
      </trkpt>
      <trkpt lat="51.894448958337307" lon="9.406791999936104">
        <ele>86.180000000000007</ele>
        <time>2017-10-30T12:29:40Z</time>
      </trkpt>
      <trkpt lat="51.893565002828836" lon="9.407302960753441">
        <ele>89.060000000000002</ele>
        <time>2017-10-30T12:29:45Z</time>
      </trkpt>
      <trkpt lat="51.892378041520715" lon="9.408610034734011">
        <ele>93.870000000000005</ele>
        <time>2017-10-30T12:29:51Z</time>
      </trkpt>
      <trkpt lat="51.891039032489061" lon="9.410913968458772">
        <ele>96.75</ele>
        <time>2017-10-30T12:29:58Z</time>
      </trkpt>
      <trkpt lat="51.889136005192995" lon="9.414810966700316">
        <ele>95.790000000000006</ele>
        <time>2017-10-30T12:30:08Z</time>
      </trkpt>
      <trkpt lat="51.887570014223456" lon="9.419378014281392">
        <ele>90.980000000000004</ele>
        <time>2017-10-30T12:30:18Z</time>
      </trkpt>
      <trkpt lat="51.886525964364409" lon="9.423696035519242">
        <ele>86.180000000000007</ele>
        <time>2017-10-30T12:30:27Z</time>
      </trkpt>
      <trkpt lat="51.885933028534055" lon="9.426031988114119">
        <ele>85.689999999999998</ele>
        <time>2017-10-30T12:30:33Z</time>
      </trkpt>
      <trkpt lat="51.885561961680651" lon="9.427157007157803">
        <ele>85.689999999999998</ele>
        <time>2017-10-30T12:30:38Z</time>
      </trkpt>
      <trkpt lat="51.88504203222692" lon="9.429281987249851">
        <ele>86.659999999999997</ele>
        <time>2017-10-30T12:30:50Z</time>
      </trkpt>
      <trkpt lat="51.884483965113759" lon="9.432009039446712">
        <ele>87.140000000000001</ele>
        <time>2017-10-30T12:31:05Z</time>
      </trkpt>
      <trkpt lat="51.884428979828954" lon="9.432173995301127">
        <ele>86.659999999999997</ele>
        <time>2017-10-30T12:31:06Z</time>
      </trkpt>
      <trkpt lat="51.884200992062688" lon="9.432835998013616">
        <ele>83.769999999999996</ele>
        <time>2017-10-30T12:31:10Z</time>
      </trkpt>
      <trkpt lat="51.884165033698082" lon="9.433032972738147">
        <ele>83.290000000000006</ele>
        <time>2017-10-30T12:31:11Z</time>
      </trkpt>
      <trkpt lat="51.884131003171206" lon="9.433213016018271">
        <ele>83.290000000000006</ele>
        <time>2017-10-30T12:31:12Z</time>
      </trkpt>
      <trkpt lat="51.884094038978219" lon="9.433415019884706">
        <ele>83.290000000000006</ele>
        <time>2017-10-30T12:31:13Z</time>
      </trkpt>
      <trkpt lat="51.884094038978219" lon="9.433590034022927">
        <ele>82.810000000000002</ele>
        <time>2017-10-30T12:31:14Z</time>
      </trkpt>
      <trkpt lat="51.884094038978219" lon="9.433783991262317">
        <ele>82.810000000000002</ele>
        <time>2017-10-30T12:31:15Z</time>
      </trkpt>
      <trkpt lat="51.884041987359524" lon="9.434147011488676">
        <ele>82.810000000000002</ele>
        <time>2017-10-30T12:31:17Z</time>
      </trkpt>
      <trkpt lat="51.884007034823298" lon="9.434322025626898">
        <ele>82.810000000000002</ele>
        <time>2017-10-30T12:31:18Z</time>
      </trkpt>
      <trkpt lat="51.883970992639661" lon="9.43449997343123">
        <ele>83.290000000000006</ele>
        <time>2017-10-30T12:31:19Z</time>
      </trkpt>
      <trkpt lat="51.883913995698094" lon="9.434656966477633">
        <ele>83.769999999999996</ele>
        <time>2017-10-30T12:31:20Z</time>
      </trkpt>
      <trkpt lat="51.883848030120134" lon="9.434816977009177">
        <ele>83.769999999999996</ele>
        <time>2017-10-30T12:31:21Z</time>
      </trkpt>
      <trkpt lat="51.883715009316802" lon="9.43514303304255">
        <ele>83.769999999999996</ele>
        <time>2017-10-30T12:31:23Z</time>
      </trkpt>
      <trkpt lat="51.883311001583934" lon="9.436094965785742">
        <ele>81.849999999999994</ele>
        <time>2017-10-30T12:31:29Z</time>
      </trkpt>
      <trkpt lat="51.883244030177593" lon="9.436251958832145">
        <ele>81.370000000000005</ele>
        <time>2017-10-30T12:31:30Z</time>
      </trkpt>
      <trkpt lat="51.883176974952221" lon="9.436406018212438">
        <ele>80.890000000000001</ele>
        <time>2017-10-30T12:31:31Z</time>
      </trkpt>
      <trkpt lat="51.883105980232358" lon="9.436576003208756">
        <ele>80.409999999999997</ele>
        <time>2017-10-30T12:31:32Z</time>
      </trkpt>
      <trkpt lat="51.883075973019004" lon="9.436760991811752">
        <ele>79.930000000000007</ele>
        <time>2017-10-30T12:31:33Z</time>
      </trkpt>
      <trkpt lat="51.882768021896482" lon="9.438613979145885">
        <ele>82.810000000000002</ele>
        <time>2017-10-30T12:31:43Z</time>
      </trkpt>
      <trkpt lat="51.882355967536569" lon="9.440614990890026">
        <ele>83.769999999999996</ele>
        <time>2017-10-30T12:31:54Z</time>
      </trkpt>
      <trkpt lat="51.881664041429758" lon="9.442697977647185">
        <ele>84.730000000000004</ele>
        <time>2017-10-30T12:32:06Z</time>
      </trkpt>
      <trkpt lat="51.8811110034585" lon="9.444112004712224">
        <ele>86.180000000000007</ele>
        <time>2017-10-30T12:32:11Z</time>
      </trkpt>
      <trkpt lat="51.880196034908295" lon="9.446433037519455">
        <ele>90.019999999999996</ele>
        <time>2017-10-30T12:32:17Z</time>
      </trkpt>
      <trkpt lat="51.878646975383162" lon="9.450329029932618">
        <ele>91.459999999999994</ele>
        <time>2017-10-30T12:32:26Z</time>
      </trkpt>
      <trkpt lat="51.877504019066691" lon="9.45263396948576">
        <ele>90.980000000000004</ele>
        <time>2017-10-30T12:32:32Z</time>
      </trkpt>
      <trkpt lat="51.875880025327206" lon="9.455799981951714">
        <ele>94.349999999999994</ele>
        <time>2017-10-30T12:32:40Z</time>
      </trkpt>
      <trkpt lat="51.875076033174992" lon="9.458025963976979">
        <ele>95.310000000000002</ele>
        <time>2017-10-30T12:32:46Z</time>
      </trkpt>
      <trkpt lat="51.874632965773344" lon="9.458893993869424">
        <ele>95.790000000000006</ele>
        <time>2017-10-30T12:32:49Z</time>
      </trkpt>
      <trkpt lat="51.874473039060831" lon="9.459155006334186">
        <ele>95.790000000000006</ele>
        <time>2017-10-30T12:32:50Z</time>
      </trkpt>
      <trkpt lat="51.874309005215764" lon="9.45940000936389">
        <ele>95.790000000000006</ele>
        <time>2017-10-30T12:32:51Z</time>
      </trkpt>
      <trkpt lat="51.874113036319613" lon="9.459579968824983">
        <ele>95.310000000000002</ele>
        <time>2017-10-30T12:32:52Z</time>
      </trkpt>
      <trkpt lat="51.873927041888237" lon="9.459750959649682">
        <ele>95.310000000000002</ele>
        <time>2017-10-30T12:32:53Z</time>
      </trkpt>
      <trkpt lat="51.873738029971719" lon="9.459904013201594">
        <ele>95.310000000000002</ele>
        <time>2017-10-30T12:32:54Z</time>
      </trkpt>
      <trkpt lat="51.873547006398439" lon="9.460011972114444">
        <ele>94.829999999999998</ele>
        <time>2017-10-30T12:32:55Z</time>
      </trkpt>
      <trkpt lat="51.873359000310302" lon="9.460118003189564">
        <ele>94.829999999999998</ele>
        <time>2017-10-30T12:32:56Z</time>
      </trkpt>
      <trkpt lat="51.871987972408533" lon="9.460684033110738">
        <ele>93.390000000000001</ele>
        <time>2017-10-30T12:33:02Z</time>
      </trkpt>
      <trkpt lat="51.870526000857353" lon="9.461122993379831">
        <ele>93.870000000000005</ele>
        <time>2017-10-30T12:33:08Z</time>
      </trkpt>
      <trkpt lat="51.868721041828394" lon="9.461083011701703">
        <ele>96.269999999999996</ele>
        <time>2017-10-30T12:33:17Z</time>
      </trkpt>
      <trkpt lat="51.866736961528659" lon="9.460627036169171">
        <ele>101.08</ele>
        <time>2017-10-30T12:33:27Z</time>
      </trkpt>
      <trkpt lat="51.8654690310359" lon="9.45976504124701">
        <ele>105.40000000000001</ele>
        <time>2017-10-30T12:33:35Z</time>
      </trkpt>
      <trkpt lat="51.86375199817121" lon="9.45804800838232">
        <ele>111.17</ele>
        <time>2017-10-30T12:33:46Z</time>
      </trkpt>
      <trkpt lat="51.862295977771282" lon="9.456514958292246">
        <ele>111.65000000000001</ele>
        <time>2017-10-30T12:33:55Z</time>
      </trkpt>
      <trkpt lat="51.861729025840759" lon="9.455830994993448">
        <ele>112.61</ele>
        <time>2017-10-30T12:33:59Z</time>
      </trkpt>
      <trkpt lat="51.861587036401033" lon="9.455648018047214">
        <ele>113.09</ele>
        <time>2017-10-30T12:34:00Z</time>
      </trkpt>
      <trkpt lat="51.860408037900925" lon="9.454425014555454">
        <ele>114.05</ele>
        <time>2017-10-30T12:34:08Z</time>
      </trkpt>
      <trkpt lat="51.859101969748735" lon="9.453328996896744">
        <ele>110.69</ele>
        <time>2017-10-30T12:34:16Z</time>
      </trkpt>
      <trkpt lat="51.858814973384142" lon="9.453164041042328">
        <ele>109.73</ele>
        <time>2017-10-30T12:34:18Z</time>
      </trkpt>
      <trkpt lat="51.858674995601177" lon="9.453122969716787">
        <ele>109.25</ele>
        <time>2017-10-30T12:34:19Z</time>
      </trkpt>
      <trkpt lat="51.858539041131735" lon="9.453082988038659">
        <ele>108.77</ele>
        <time>2017-10-30T12:34:20Z</time>
      </trkpt>
      <trkpt lat="51.858289008960128" lon="9.452905040234327">
        <ele>107.31999999999999</ele>
        <time>2017-10-30T12:34:22Z</time>
      </trkpt>
      <trkpt lat="51.858174009248614" lon="9.452812001109123">
        <ele>106.84</ele>
        <time>2017-10-30T12:34:23Z</time>
      </trkpt>
      <trkpt lat="51.857235990464687" lon="9.452226022258401">
        <ele>103.48</ele>
        <time>2017-10-30T12:34:30Z</time>
      </trkpt>
      <trkpt lat="51.856069983914495" lon="9.451346006244421">
        <ele>97.230000000000004</ele>
        <time>2017-10-30T12:34:37Z</time>
      </trkpt>
      <trkpt lat="51.854808004572988" lon="9.449971038848162">
        <ele>94.829999999999998</ele>
        <time>2017-10-30T12:34:43Z</time>
      </trkpt>
      <trkpt lat="51.853520963340998" lon="9.448386020958424">
        <ele>94.349999999999994</ele>
        <time>2017-10-30T12:34:50Z</time>
      </trkpt>
      <trkpt lat="51.852250015363097" lon="9.446687009185553">
        <ele>93.870000000000005</ele>
        <time>2017-10-30T12:34:55Z</time>
      </trkpt>
      <trkpt lat="51.84987299144268" lon="9.44397303275764">
        <ele>92.420000000000002</ele>
        <time>2017-10-30T12:35:03Z</time>
      </trkpt>
      <trkpt lat="51.848614029586315" lon="9.442585995420814">
        <ele>92.420000000000002</ele>
        <time>2017-10-30T12:35:08Z</time>
      </trkpt>
      <trkpt lat="51.847823029384017" lon="9.441870013251901">
        <ele>93.390000000000001</ele>
        <time>2017-10-30T12:35:12Z</time>
      </trkpt>
      <trkpt lat="51.847651032730937" lon="9.441793989390135">
        <ele>93.870000000000005</ele>
        <time>2017-10-30T12:35:13Z</time>
      </trkpt>
      <trkpt lat="51.847473001107574" lon="9.441772028803825">
        <ele>93.870000000000005</ele>
        <time>2017-10-30T12:35:14Z</time>
      </trkpt>
      <trkpt lat="51.847296981140971" lon="9.441750990226865">
        <ele>94.349999999999994</ele>
        <time>2017-10-30T12:35:15Z</time>
      </trkpt>
      <trkpt lat="51.84712297283113" lon="9.441698016598821">
        <ele>94.349999999999994</ele>
        <time>2017-10-30T12:35:16Z</time>
      </trkpt>
      <trkpt lat="51.846942007541656" lon="9.441601959988475">
        <ele>93.870000000000005</ele>
        <time>2017-10-30T12:35:17Z</time>
      </trkpt>
      <trkpt lat="51.846772022545338" lon="9.441415965557098">
        <ele>93.870000000000005</ele>
        <time>2017-10-30T12:35:18Z</time>
      </trkpt>
      <trkpt lat="51.846586028113961" lon="9.441212033852935">
        <ele>93.870000000000005</ele>
        <time>2017-10-30T12:35:19Z</time>
      </trkpt>
      <trkpt lat="51.845219023525715" lon="9.439473962411284">
        <ele>95.790000000000006</ele>
        <time>2017-10-30T12:35:26Z</time>
      </trkpt>
      <trkpt lat="51.844062991440296" lon="9.436886971816421">
        <ele>99.150000000000006</ele>
        <time>2017-10-30T12:35:33Z</time>
      </trkpt>
      <trkpt lat="51.843363018706441" lon="9.43520899862051">
        <ele>102.04000000000001</ele>
        <time>2017-10-30T12:35:38Z</time>
      </trkpt>
      <trkpt lat="51.842966973781586" lon="9.434178024530411">
        <ele>103.48</ele>
        <time>2017-10-30T12:35:42Z</time>
      </trkpt>
      <trkpt lat="51.842912994325161" lon="9.433874012902379">
        <ele>103</ele>
        <time>2017-10-30T12:35:43Z</time>
      </trkpt>
      <trkpt lat="51.842756001278758" lon="9.432983016595244">
        <ele>102.04000000000001</ele>
        <time>2017-10-30T12:35:46Z</time>
      </trkpt>
      <trkpt lat="51.842662040144205" lon="9.432746982201934">
        <ele>101.08</ele>
        <time>2017-10-30T12:35:47Z</time>
      </trkpt>
      <trkpt lat="51.842560032382607" lon="9.432532992213965">
        <ele>100.59999999999999</ele>
        <time>2017-10-30T12:35:48Z</time>
      </trkpt>
      <trkpt lat="51.842432040721178" lon="9.432368036359549">
        <ele>100.11</ele>
        <time>2017-10-30T12:35:49Z</time>
      </trkpt>
      <trkpt lat="51.842288039624691" lon="9.432219006121159">
        <ele>100.11</ele>
        <time>2017-10-30T12:35:50Z</time>
      </trkpt>
      <trkpt lat="51.842135991901159" lon="9.432061007246375">
        <ele>99.629999999999995</ele>
        <time>2017-10-30T12:35:51Z</time>
      </trkpt>
      <trkpt lat="51.841983022168279" lon="9.431894961744547">
        <ele>99.629999999999995</ele>
        <time>2017-10-30T12:35:52Z</time>
      </trkpt>
      <trkpt lat="51.841834997758269" lon="9.431715002283454">
        <ele>99.150000000000006</ele>
        <time>2017-10-30T12:35:53Z</time>
      </trkpt>
      <trkpt lat="51.841685967519879" lon="9.43153403699398">
        <ele>99.150000000000006</ele>
        <time>2017-10-30T12:35:54Z</time>
      </trkpt>
      <trkpt lat="51.840775022283196" lon="9.430205002427101">
        <ele>100.11</ele>
        <time>2017-10-30T12:36:01Z</time>
      </trkpt>
      <trkpt lat="51.840648958459496" lon="9.430059995502234">
        <ele>100.11</ele>
        <time>2017-10-30T12:36:02Z</time>
      </trkpt>
      <trkpt lat="51.840510992333293" lon="9.429934015497565">
        <ele>100.59999999999999</ele>
        <time>2017-10-30T12:36:03Z</time>
      </trkpt>
      <trkpt lat="51.840371014550328" lon="9.429806023836136">
        <ele>100.59999999999999</ele>
        <time>2017-10-30T12:36:04Z</time>
      </trkpt>
      <trkpt lat="51.840233970433474" lon="9.429680965840817">
        <ele>100.59999999999999</ele>
        <time>2017-10-30T12:36:05Z</time>
      </trkpt>
      <trkpt lat="51.840094998478889" lon="9.429607959464192">
        <ele>101.08</ele>
        <time>2017-10-30T12:36:06Z</time>
      </trkpt>
      <trkpt lat="51.839961977675557" lon="9.429538976401091">
        <ele>101.08</ele>
        <time>2017-10-30T12:36:07Z</time>
      </trkpt>
      <trkpt lat="51.838737968355417" lon="9.429268995299935">
        <ele>98.189999999999998</ele>
        <time>2017-10-30T12:36:17Z</time>
      </trkpt>
      <trkpt lat="51.837735995650291" lon="9.429180985316634">
        <ele>95.790000000000006</ele>
        <time>2017-10-30T12:36:25Z</time>
      </trkpt>
      <trkpt lat="51.837612027302384" lon="9.429167993366718">
        <ele>95.310000000000002</ele>
        <time>2017-10-30T12:36:26Z</time>
      </trkpt>
      <trkpt lat="51.836669985204935" lon="9.429406961426139">
        <ele>92.420000000000002</ele>
        <time>2017-10-30T12:36:34Z</time>
      </trkpt>
      <trkpt lat="51.836198000237346" lon="9.429649030789733">
        <ele>89.060000000000002</ele>
        <time>2017-10-30T12:36:38Z</time>
      </trkpt>
      <trkpt lat="51.836092974990606" lon="9.429703010246158">
        <ele>88.099999999999994</ele>
        <time>2017-10-30T12:36:39Z</time>
      </trkpt>
      <trkpt lat="51.83597001247108" lon="9.429751038551331">
        <ele>87.140000000000001</ele>
        <time>2017-10-30T12:36:40Z</time>
      </trkpt>
      <trkpt lat="51.835853001102805" lon="9.429796971380711">
        <ele>86.180000000000007</ele>
        <time>2017-10-30T12:36:41Z</time>
      </trkpt>
      <trkpt lat="51.835732972249389" lon="9.429843993857503">
        <ele>85.689999999999998</ele>
        <time>2017-10-30T12:36:42Z</time>
      </trkpt>
      <trkpt lat="51.835612021386623" lon="9.429891016334295">
        <ele>84.730000000000004</ele>
        <time>2017-10-30T12:36:43Z</time>
      </trkpt>
      <trkpt lat="51.834343001246452" lon="9.430574979633093">
        <ele>78.969999999999999</ele>
        <time>2017-10-30T12:36:54Z</time>
      </trkpt>
      <trkpt lat="51.83382298797369" lon="9.431160958483815">
        <ele>80.409999999999997</ele>
        <time>2017-10-30T12:37:02Z</time>
      </trkpt>
      <trkpt lat="51.833697007969022" lon="9.431354999542236">
        <ele>81.849999999999994</ele>
        <time>2017-10-30T12:37:09Z</time>
      </trkpt>
      <trkpt lat="51.833491986617446" lon="9.431735035032034">
        <ele>82.810000000000002</ele>
        <time>2017-10-30T12:37:12Z</time>
      </trkpt>
      <trkpt lat="51.833419986069202" lon="9.431883981451392">
        <ele>82.810000000000002</ele>
        <time>2017-10-30T12:37:13Z</time>
      </trkpt>
      <trkpt lat="51.833347985520959" lon="9.432034017518163">
        <ele>82.810000000000002</ele>
        <time>2017-10-30T12:37:14Z</time>
      </trkpt>
      <trkpt lat="51.83266100473702" lon="9.433173034340143">
        <ele>84.25</ele>
        <time>2017-10-30T12:37:23Z</time>
      </trkpt>
      <trkpt lat="51.831934964284301" lon="9.434468960389495">
        <ele>87.140000000000001</ele>
        <time>2017-10-30T12:37:31Z</time>
      </trkpt>
      <trkpt lat="51.831044973805547" lon="9.436257993802428">
        <ele>89.060000000000002</ele>
        <time>2017-10-30T12:37:41Z</time>
      </trkpt>
      <trkpt lat="51.830102009698749" lon="9.438041998073459">
        <ele>89.540000000000006</ele>
        <time>2017-10-30T12:37:51Z</time>
      </trkpt>
      <trkpt lat="51.829772014170885" lon="9.438744988292456">
        <ele>90.019999999999996</ele>
        <time>2017-10-30T12:37:55Z</time>
      </trkpt>
      <trkpt lat="51.829469008371234" lon="9.439241029322147">
        <ele>90.019999999999996</ele>
        <time>2017-10-30T12:37:58Z</time>
      </trkpt>
      <trkpt lat="51.829343028366566" lon="9.439350999891758">
        <ele>90.5</ele>
        <time>2017-10-30T12:37:59Z</time>
      </trkpt>
      <trkpt lat="51.829214030876756" lon="9.439464993774891">
        <ele>90.5</ele>
        <time>2017-10-30T12:38:00Z</time>
      </trkpt>
      <trkpt lat="51.828356981277466" lon="9.4403210375458">
        <ele>90.5</ele>
        <time>2017-10-30T12:38:07Z</time>
      </trkpt>
      <trkpt lat="51.828252961859107" lon="9.44045196287334">
        <ele>90.5</ele>
        <time>2017-10-30T12:38:08Z</time>
      </trkpt>
      <trkpt lat="51.828169981017709" lon="9.440608033910394">
        <ele>90.980000000000004</ele>
        <time>2017-10-30T12:38:09Z</time>
      </trkpt>
      <trkpt lat="51.828094962984324" lon="9.440781958401203">
        <ele>91.459999999999994</ele>
        <time>2017-10-30T12:38:10Z</time>
      </trkpt>
      <trkpt lat="51.828040983527899" lon="9.440968036651611">
        <ele>91.939999999999998</ele>
        <time>2017-10-30T12:38:11Z</time>
      </trkpt>
      <trkpt lat="51.827988009899855" lon="9.441157970577478">
        <ele>92.420000000000002</ele>
        <time>2017-10-30T12:38:12Z</time>
      </trkpt>
      <trkpt lat="51.827935036271811" lon="9.441345976665616">
        <ele>92.420000000000002</ele>
        <time>2017-10-30T12:38:13Z</time>
      </trkpt>
      <trkpt lat="51.82789103128016" lon="9.441542029380798">
        <ele>92.900000000000006</ele>
        <time>2017-10-30T12:38:14Z</time>
      </trkpt>
      <trkpt lat="51.827872004359961" lon="9.44174000993371">
        <ele>93.390000000000001</ele>
        <time>2017-10-30T12:38:15Z</time>
      </trkpt>
      <trkpt lat="51.827852977439761" lon="9.441938996315002">
        <ele>93.870000000000005</ele>
        <time>2017-10-30T12:38:16Z</time>
      </trkpt>
      <trkpt lat="51.827705036848783" lon="9.443795001134276">
        <ele>94.349999999999994</ele>
        <time>2017-10-30T12:38:27Z</time>
      </trkpt>
      <trkpt lat="51.827652985230088" lon="9.444372011348605">
        <ele>92.900000000000006</ele>
        <time>2017-10-30T12:38:31Z</time>
      </trkpt>
      <trkpt lat="51.827623983845115" lon="9.444494973868132">
        <ele>92.420000000000002</ele>
        <time>2017-10-30T12:38:32Z</time>
      </trkpt>
      <trkpt lat="51.827595988288522" lon="9.444610979408026">
        <ele>91.939999999999998</ele>
        <time>2017-10-30T12:38:33Z</time>
      </trkpt>
      <trkpt lat="51.827574027702212" lon="9.444702006876469">
        <ele>91.939999999999998</ele>
        <time>2017-10-30T12:38:34Z</time>
      </trkpt>
      <trkpt lat="51.827501021325588" lon="9.444751963019371">
        <ele>91.939999999999998</ele>
        <time>2017-10-30T12:38:35Z</time>
      </trkpt>
      <trkpt lat="51.827457016333938" lon="9.444782976061106">
        <ele>91.459999999999994</ele>
        <time>2017-10-30T12:38:36Z</time>
      </trkpt>
      <trkpt lat="51.827277978882194" lon="9.444906022399664">
        <ele>90.5</ele>
        <time>2017-10-30T12:38:41Z</time>
      </trkpt>
      <trkpt lat="51.827241014689207" lon="9.444931000471115">
        <ele>90.5</ele>
        <time>2017-10-30T12:38:42Z</time>
      </trkpt>
      <trkpt lat="51.827234979718924" lon="9.445069972425699">
        <ele>90.5</ele>
        <time>2017-10-30T12:38:43Z</time>
      </trkpt>
      <trkpt lat="51.827236991375685" lon="9.445126969367266">
        <ele>90.5</ele>
        <time>2017-10-30T12:38:44Z</time>
      </trkpt>
      <trkpt lat="51.827239003032446" lon="9.445190001279116">
        <ele>90.980000000000004</ele>
        <time>2017-10-30T12:38:45Z</time>
      </trkpt>
      <trkpt lat="51.827241014689207" lon="9.445262001827359">
        <ele>90.980000000000004</ele>
        <time>2017-10-30T12:38:46Z</time>
      </trkpt>
      <trkpt lat="51.827243026345968" lon="9.445339031517506">
        <ele>91.459999999999994</ele>
        <time>2017-10-30T12:38:47Z</time>
      </trkpt>
      <trkpt lat="51.827253000810742" lon="9.445645976811647">
        <ele>92.420000000000002</ele>
        <time>2017-10-30T12:38:51Z</time>
      </trkpt>
      <trkpt lat="51.827253000810742" lon="9.445645976811647">
        <ele>92.420000000000002</ele>
        <time>2017-10-30T12:38:53Z</time>
      </trkpt>
      <trkpt lat="51.827253000810742" lon="9.445645976811647">
        <ele>91.939999999999998</ele>
        <time>2017-10-30T12:38:54Z</time>
      </trkpt>
      <trkpt lat="51.827253000810742" lon="9.445645976811647">
        <ele>91.939999999999998</ele>
        <time>2017-10-30T12:38:55Z</time>
      </trkpt>
      <trkpt lat="51.827253000810742" lon="9.445645976811647">
        <ele>91.939999999999998</ele>
        <time>2017-10-30T12:38:56Z</time>
      </trkpt>
      <trkpt lat="51.827253000810742" lon="9.445645976811647">
        <ele>91.459999999999994</ele>
        <time>2017-10-30T12:38:57Z</time>
      </trkpt>
      <trkpt lat="51.827253000810742" lon="9.445645976811647">
        <ele>90.980000000000004</ele>
        <time>2017-10-30T12:38:58Z</time>
      </trkpt>
      <trkpt lat="51.827253000810742" lon="9.445645976811647">
        <ele>90.5</ele>
        <time>2017-10-30T12:38:59Z</time>
      </trkpt>
      <trkpt lat="51.827724985778332" lon="9.445859966799617">
        <ele>89.540000000000006</ele>
        <time>2017-10-30T12:39:04Z</time>
      </trkpt>
      <trkpt lat="51.827726997435093" lon="9.445859966799617">
        <ele>89.540000000000006</ele>
        <time>2017-10-30T12:39:05Z</time>
      </trkpt>
      <trkpt lat="51.827754992991686" lon="9.445859966799617">
        <ele>89.540000000000006</ele>
        <time>2017-10-30T12:39:06Z</time>
      </trkpt>
      <trkpt lat="51.827779971063137" lon="9.445859966799617">
        <ele>89.060000000000002</ele>
        <time>2017-10-30T12:39:07Z</time>
      </trkpt>
      <trkpt lat="51.827810984104872" lon="9.445859966799617">
        <ele>88.579999999999998</ele>
        <time>2017-10-30T12:39:08Z</time>
      </trkpt>
      <trkpt lat="51.82784803211689" lon="9.445859966799617">
        <ele>88.099999999999994</ele>
        <time>2017-10-30T12:39:09Z</time>
      </trkpt>
      <trkpt lat="51.827887007966638" lon="9.445859966799617">
        <ele>87.140000000000001</ele>
        <time>2017-10-30T12:39:10Z</time>
      </trkpt>
      <trkpt lat="51.828028997406363" lon="9.445859966799617">
        <ele>85.689999999999998</ele>
        <time>2017-10-30T12:39:13Z</time>
      </trkpt>
      <trkpt lat="51.828079037368298" lon="9.445859966799617">
        <ele>85.209999999999994</ele>
        <time>2017-10-30T12:39:14Z</time>
      </trkpt>
      <trkpt lat="51.8281289935112" lon="9.445859966799617">
        <ele>85.209999999999994</ele>
        <time>2017-10-30T12:39:15Z</time>
      </trkpt>
      <trkpt lat="51.828175010159612" lon="9.445852003991604">
        <ele>84.730000000000004</ele>
        <time>2017-10-30T12:39:16Z</time>
      </trkpt>
      <trkpt lat="51.828209962695837" lon="9.445835994556546">
        <ele>84.730000000000004</ele>
        <time>2017-10-30T12:39:17Z</time>
      </trkpt>
      <trkpt lat="51.828242987394333" lon="9.44582199677825">
        <ele>85.209999999999994</ele>
        <time>2017-10-30T12:39:18Z</time>
      </trkpt>
      <trkpt lat="51.82827802374959" lon="9.445806993171573">
        <ele>85.209999999999994</ele>
        <time>2017-10-30T12:39:19Z</time>
      </trkpt>
      <trkpt lat="51.828305013477802" lon="9.445796012878418">
        <ele>85.209999999999994</ele>
        <time>2017-10-30T12:39:20Z</time>
      </trkpt>
      <trkpt lat="51.828324962407351" lon="9.445786960422993">
        <ele>85.209999999999994</ele>
        <time>2017-10-30T12:39:21Z</time>
      </trkpt>
      <trkpt lat="51.828346000984311" lon="9.445777991786599">
        <ele>84.730000000000004</ele>
        <time>2017-10-30T12:39:22Z</time>
      </trkpt>
      <trkpt lat="51.828361004590988" lon="9.445772040635347">
        <ele>84.25</ele>
        <time>2017-10-30T12:39:23Z</time>
      </trkpt>
      <trkpt lat="51.828376008197665" lon="9.445764999836683">
        <ele>84.25</ele>
        <time>2017-10-30T12:39:24Z</time>
      </trkpt>
      <trkpt lat="51.828390005975962" lon="9.4457589648664">
        <ele>83.769999999999996</ele>
        <time>2017-10-30T12:39:25Z</time>
      </trkpt>
      <trkpt lat="51.828390005975962" lon="9.4457589648664">
        <ele>83.290000000000006</ele>
        <time>2017-10-30T12:39:27Z</time>
      </trkpt>
      <trkpt lat="51.828390005975962" lon="9.4457589648664">
        <ele>82.810000000000002</ele>
        <time>2017-10-30T12:39:45Z</time>
      </trkpt>
      <trkpt lat="51.828390005975962" lon="9.4457589648664">
        <ele>82.329999999999998</ele>
        <time>2017-10-30T12:40:42Z</time>
      </trkpt>
      <trkpt lat="51.828390005975962" lon="9.4457589648664">
        <ele>83.290000000000006</ele>
        <time>2017-10-30T12:41:36Z</time>
      </trkpt>
      <trkpt lat="51.828390005975962" lon="9.4457589648664">
        <ele>83.290000000000006</ele>
        <time>2017-10-30T12:42:31Z</time>
      </trkpt>
      <trkpt lat="51.828390005975962" lon="9.4457589648664">
        <ele>83.290000000000006</ele>
        <time>2017-10-30T12:43:26Z</time>
      </trkpt>
      <trkpt lat="51.828390005975962" lon="9.4457589648664">
        <ele>83.769999999999996</ele>
        <time>2017-10-30T12:44:30Z</time>
      </trkpt>
      <trkpt lat="51.828390005975962" lon="9.4457589648664">
        <ele>83.769999999999996</ele>
        <time>2017-10-30T12:45:11Z</time>
      </trkpt>
      <trkpt lat="51.828449014574289" lon="9.445733986794949">
        <ele>83.769999999999996</ele>
        <time>2017-10-30T12:45:19Z</time>
      </trkpt>
      <trkpt lat="51.828453959897161" lon="9.445731975138187">
        <ele>83.290000000000006</ele>
        <time>2017-10-30T12:45:20Z</time>
      </trkpt>
      <trkpt lat="51.828453959897161" lon="9.445731975138187">
        <ele>83.290000000000006</ele>
        <time>2017-10-30T12:45:21Z</time>
      </trkpt>
      <trkpt lat="51.828453959897161" lon="9.445731975138187">
        <ele>83.290000000000006</ele>
        <time>2017-10-30T12:45:22Z</time>
      </trkpt>
      <trkpt lat="51.82845002040267" lon="9.44569299928844">
        <ele>83.290000000000006</ele>
        <time>2017-10-30T12:45:23Z</time>
      </trkpt>
      <trkpt lat="51.828441973775625" lon="9.445628961548209">
        <ele>83.290000000000006</ele>
        <time>2017-10-30T12:45:24Z</time>
      </trkpt>
      <trkpt lat="51.828367961570621" lon="9.445065027102828">
        <ele>83.290000000000006</ele>
        <time>2017-10-30T12:45:31Z</time>
      </trkpt>
      <trkpt lat="51.828356981277466" lon="9.444990009069443">
        <ele>83.290000000000006</ele>
        <time>2017-10-30T12:45:32Z</time>
      </trkpt>
      <trkpt lat="51.828281963244081" lon="9.444406041875482">
        <ele>84.730000000000004</ele>
        <time>2017-10-30T12:45:41Z</time>
      </trkpt>
      <trkpt lat="51.828281963244081" lon="9.444406041875482">
        <ele>84.730000000000004</ele>
        <time>2017-10-30T12:45:45Z</time>
      </trkpt>
      <trkpt lat="51.828281963244081" lon="9.444406041875482">
        <ele>85.209999999999994</ele>
        <time>2017-10-30T12:45:46Z</time>
      </trkpt>
      <trkpt lat="51.828281963244081" lon="9.444439988583326">
        <ele>85.209999999999994</ele>
        <time>2017-10-30T12:45:49Z</time>
      </trkpt>
      <trkpt lat="51.828281963244081" lon="9.444465972483158">
        <ele>85.209999999999994</ele>
        <time>2017-10-30T12:45:50Z</time>
      </trkpt>
      <trkpt lat="51.828281963244081" lon="9.444379974156618">
        <ele>85.209999999999994</ele>
        <time>2017-10-30T12:45:51Z</time>
      </trkpt>
      <trkpt lat="51.828281963244081" lon="9.444379974156618">
        <ele>85.209999999999994</ele>
        <time>2017-10-30T12:45:52Z</time>
      </trkpt>
      <trkpt lat="51.828281963244081" lon="9.444379974156618">
        <ele>85.209999999999994</ele>
        <time>2017-10-30T12:45:53Z</time>
      </trkpt>
      <trkpt lat="51.827574027702212" lon="9.444702006876469">
        <ele>86.659999999999997</ele>
        <time>2017-10-30T12:46:01Z</time>
      </trkpt>
      <trkpt lat="51.827574027702212" lon="9.444702006876469">
        <ele>87.140000000000001</ele>
        <time>2017-10-30T12:46:02Z</time>
      </trkpt>
      <trkpt lat="51.827574027702212" lon="9.444702006876469">
        <ele>87.620000000000005</ele>
        <time>2017-10-30T12:46:03Z</time>
      </trkpt>
      <trkpt lat="51.827574027702212" lon="9.444702006876469">
        <ele>88.099999999999994</ele>
        <time>2017-10-30T12:46:04Z</time>
      </trkpt>
      <trkpt lat="51.827603029087186" lon="9.444922031834722">
        <ele>88.099999999999994</ele>
        <time>2017-10-30T12:46:05Z</time>
      </trkpt>
      <trkpt lat="51.827609986066818" lon="9.444977017119527">
        <ele>88.579999999999998</ele>
        <time>2017-10-30T12:46:06Z</time>
      </trkpt>
      <trkpt lat="51.827618032693863" lon="9.445038037374616">
        <ele>88.579999999999998</ele>
        <time>2017-10-30T12:46:07Z</time>
      </trkpt>
      <trkpt lat="51.827625995501876" lon="9.445102997124195">
        <ele>88.579999999999998</ele>
        <time>2017-10-30T12:46:08Z</time>
      </trkpt>
      <trkpt lat="51.827695984393358" lon="9.445642037317157">
        <ele>86.659999999999997</ele>
        <time>2017-10-30T12:46:17Z</time>
      </trkpt>
      <trkpt lat="51.827703025192022" lon="9.445690987631679">
        <ele>86.659999999999997</ele>
        <time>2017-10-30T12:46:18Z</time>
      </trkpt>
      <trkpt lat="51.827562041580677" lon="9.44584596902132">
        <ele>87.140000000000001</ele>
        <time>2017-10-30T12:46:24Z</time>
      </trkpt>
      <trkpt lat="51.827518958598375" lon="9.44584202952683">
        <ele>87.140000000000001</ele>
        <time>2017-10-30T12:46:25Z</time>
      </trkpt>
      <trkpt lat="51.827366994693875" lon="9.445828031748533">
        <ele>87.620000000000005</ele>
        <time>2017-10-30T12:46:28Z</time>
      </trkpt>
      <trkpt lat="51.827323995530605" lon="9.445824008435011">
        <ele>88.099999999999994</ele>
        <time>2017-10-30T12:46:29Z</time>
      </trkpt>
      <trkpt lat="51.827286025509238" lon="9.445820990949869">
        <ele>88.099999999999994</ele>
        <time>2017-10-30T12:46:30Z</time>
      </trkpt>
      <trkpt lat="51.827257024124265" lon="9.445817973464727">
        <ele>88.099999999999994</ele>
        <time>2017-10-30T12:46:31Z</time>
      </trkpt>
      <trkpt lat="51.827253000810742" lon="9.445755025371909">
        <ele>88.579999999999998</ele>
        <time>2017-10-30T12:46:32Z</time>
      </trkpt>
      <trkpt lat="51.827253000810742" lon="9.44571303203702">
        <ele>88.579999999999998</ele>
        <time>2017-10-30T12:46:33Z</time>
      </trkpt>
      <trkpt lat="51.827253000810742" lon="9.445645976811647">
        <ele>88.579999999999998</ele>
        <time>2017-10-30T12:46:34Z</time>
      </trkpt>
      <trkpt lat="51.827245960012078" lon="9.44541597738862">
        <ele>88.099999999999994</ele>
        <time>2017-10-30T12:46:40Z</time>
      </trkpt>
      <trkpt lat="51.827245038002729" lon="9.445383036509156">
        <ele>88.099999999999994</ele>
        <time>2017-10-30T12:46:44Z</time>
      </trkpt>
      <trkpt lat="51.827243026345968" lon="9.445336014032364">
        <ele>88.099999999999994</ele>
        <time>2017-10-30T12:46:45Z</time>
      </trkpt>
      <trkpt lat="51.827234979718924" lon="9.445066032931209">
        <ele>87.620000000000005</ele>
        <time>2017-10-30T12:46:49Z</time>
      </trkpt>
      <trkpt lat="51.827274039387703" lon="9.444908034056425">
        <ele>87.140000000000001</ele>
        <time>2017-10-30T12:46:50Z</time>
      </trkpt>
      <trkpt lat="51.827318966388702" lon="9.44487702101469">
        <ele>86.659999999999997</ele>
        <time>2017-10-30T12:46:51Z</time>
      </trkpt>
      <trkpt lat="51.827370012179017" lon="9.444841984659433">
        <ele>86.180000000000007</ele>
        <time>2017-10-30T12:46:52Z</time>
      </trkpt>
      <trkpt lat="51.827417034655809" lon="9.444809965789318">
        <ele>85.689999999999998</ele>
        <time>2017-10-30T12:46:53Z</time>
      </trkpt>
      <trkpt lat="51.827453998848796" lon="9.444784987717867">
        <ele>85.689999999999998</ele>
        <time>2017-10-30T12:46:54Z</time>
      </trkpt>
      <trkpt lat="51.827483000233769" lon="9.444765038788319">
        <ele>85.689999999999998</ele>
        <time>2017-10-30T12:46:55Z</time>
      </trkpt>
      <trkpt lat="51.827512001618743" lon="9.444745006039739">
        <ele>85.689999999999998</ele>
        <time>2017-10-30T12:46:56Z</time>
      </trkpt>
      <trkpt lat="51.827550977468491" lon="9.444718016311526">
        <ele>85.689999999999998</ele>
        <time>2017-10-30T12:46:57Z</time>
      </trkpt>
      <trkpt lat="51.827577967196703" lon="9.444685997441411">
        <ele>85.689999999999998</ele>
        <time>2017-10-30T12:46:58Z</time>
      </trkpt>
      <trkpt lat="51.827602023258805" lon="9.444588012993336">
        <ele>86.180000000000007</ele>
        <time>2017-10-30T12:46:59Z</time>
      </trkpt>
      <trkpt lat="51.827629012987018" lon="9.444473013281822">
        <ele>86.180000000000007</ele>
        <time>2017-10-30T12:47:00Z</time>
      </trkpt>
      <trkpt lat="51.827658014371991" lon="9.444350972771645">
        <ele>86.659999999999997</ele>
        <time>2017-10-30T12:47:01Z</time>
      </trkpt>
      <trkpt lat="51.827682992443442" lon="9.444215018302202">
        <ele>87.140000000000001</ele>
        <time>2017-10-30T12:47:02Z</time>
      </trkpt>
      <trkpt lat="51.827707970514894" lon="9.443730963394046">
        <ele>88.099999999999994</ele>
        <time>2017-10-30T12:47:05Z</time>
      </trkpt>
      <trkpt lat="51.827940987423062" lon="9.441324016079307">
        <ele>87.620000000000005</ele>
        <time>2017-10-30T12:47:18Z</time>
      </trkpt>
      <trkpt lat="51.828032014891505" lon="9.440999971702695">
        <ele>86.180000000000007</ele>
        <time>2017-10-30T12:47:20Z</time>
      </trkpt>
      <trkpt lat="51.828076019883156" lon="9.440841972827911">
        <ele>85.689999999999998</ele>
        <time>2017-10-30T12:47:21Z</time>
      </trkpt>
      <trkpt lat="51.828134022653103" lon="9.440693026408553">
        <ele>85.209999999999994</ele>
        <time>2017-10-30T12:47:22Z</time>
      </trkpt>
      <trkpt lat="51.828197976574302" lon="9.440542990341783">
        <ele>84.730000000000004</ele>
        <time>2017-10-30T12:47:23Z</time>
      </trkpt>
      <trkpt lat="51.828281963244081" lon="9.440414998680353">
        <ele>84.730000000000004</ele>
        <time>2017-10-30T12:47:24Z</time>
      </trkpt>
      <trkpt lat="51.828375002369285" lon="9.440297987312079">
        <ele>84.25</ele>
        <time>2017-10-30T12:47:25Z</time>
      </trkpt>
      <trkpt lat="51.828467035666108" lon="9.440181981772184">
        <ele>83.769999999999996</ele>
        <time>2017-10-30T12:47:26Z</time>
      </trkpt>
      <trkpt lat="51.8285589851439" lon="9.44006497040391">
        <ele>83.290000000000006</ele>
        <time>2017-10-30T12:47:27Z</time>
      </trkpt>
      <trkpt lat="51.828654035925865" lon="9.43995600566268">
        <ele>83.290000000000006</ele>
        <time>2017-10-30T12:47:28Z</time>
      </trkpt>
      <trkpt lat="51.828755037859082" lon="9.439867995679379">
        <ele>83.290000000000006</ele>
        <time>2017-10-30T12:47:29Z</time>
      </trkpt>
      <trkpt lat="51.829719040542841" lon="9.438837021589279">
        <ele>84.25</ele>
        <time>2017-10-30T12:47:39Z</time>
      </trkpt>
      <trkpt lat="51.830396968871355" lon="9.437349988147616">
        <ele>86.180000000000007</ele>
        <time>2017-10-30T12:47:48Z</time>
      </trkpt>
      <trkpt lat="51.831370024010539" lon="9.435708979144692">
        <ele>86.180000000000007</ele>
        <time>2017-10-30T12:47:59Z</time>
      </trkpt>
      <trkpt lat="51.831870004534721" lon="9.434635005891323">
        <ele>85.689999999999998</ele>
        <time>2017-10-30T12:48:06Z</time>
      </trkpt>
      <trkpt lat="51.831919038668275" lon="9.434511037543416">
        <ele>85.689999999999998</ele>
        <time>2017-10-30T12:48:07Z</time>
      </trkpt>
      <trkpt lat="51.832055998966098" lon="9.434214988723397">
        <ele>85.209999999999994</ele>
        <time>2017-10-30T12:48:13Z</time>
      </trkpt>
      <trkpt lat="51.832077959552407" lon="9.434170983731747">
        <ele>84.730000000000004</ele>
        <time>2017-10-30T12:48:17Z</time>
      </trkpt>
      <trkpt lat="51.832072008401155" lon="9.434088002890348">
        <ele>84.730000000000004</ele>
        <time>2017-10-30T12:48:18Z</time>
      </trkpt>
      <trkpt lat="51.832034960389137" lon="9.434045003727078">
        <ele>85.209999999999994</ele>
        <time>2017-10-30T12:48:19Z</time>
      </trkpt>
      <trkpt lat="51.831986010074615" lon="9.433987000957131">
        <ele>84.730000000000004</ele>
        <time>2017-10-30T12:48:20Z</time>
      </trkpt>
      <trkpt lat="51.83193102478981" lon="9.433922041207552">
        <ele>85.209999999999994</ele>
        <time>2017-10-30T12:48:21Z</time>
      </trkpt>
      <trkpt lat="51.831607986241579" lon="9.433544017374516">
        <ele>85.209999999999994</ele>
        <time>2017-10-30T12:48:26Z</time>
      </trkpt>
      <trkpt lat="51.831529028713703" lon="9.433477967977524">
        <ele>85.209999999999994</ele>
        <time>2017-10-30T12:48:27Z</time>
      </trkpt>
      <trkpt lat="51.83090097270906" lon="9.432954015210271">
        <ele>85.689999999999998</ele>
        <time>2017-10-30T12:48:34Z</time>
      </trkpt>
    </trkseg>
  </trk>

  <trk>
    <name>Track vom: 2017-10-30 13:48</name>
    <extensions>
      <gpxx:TrackExtension>
        <gpxx:DisplayColor>DarkGray</gpxx:DisplayColor>
      </gpxx:TrackExtension>
    </extensions>
    <trkseg>
      <trkpt lat="51.830509034916759" lon="9.432594012469053">
        <ele>85.689999999999998</ele>
        <time>2017-10-30T12:48:38Z</time>
      </trkpt>
      <trkpt lat="51.82963203638792" lon="9.431564966216683">
        <ele>86.180000000000007</ele>
        <time>2017-10-30T12:48:45Z</time>
      </trkpt>
      <trkpt lat="51.828094962984324" lon="9.42972999997437">
        <ele>86.180000000000007</ele>
        <time>2017-10-30T12:48:54Z</time>
      </trkpt>
      <trkpt lat="51.825327007099986" lon="9.426443958655">
        <ele>84.730000000000004</ele>
        <time>2017-10-30T12:49:08Z</time>
      </trkpt>
      <trkpt lat="51.823305962607265" lon="9.423521021381021">
        <ele>85.689999999999998</ele>
        <time>2017-10-30T12:49:18Z</time>
      </trkpt>
      <trkpt lat="51.821691021323204" lon="9.420116040855646">
        <ele>88.579999999999998</ele>
        <time>2017-10-30T12:49:27Z</time>
      </trkpt>
      <trkpt lat="51.820451002568007" lon="9.416233040392399">
        <ele>92.420000000000002</ele>
        <time>2017-10-30T12:49:36Z</time>
      </trkpt>
      <trkpt lat="51.818863973021507" lon="9.410137971863151">
        <ele>98.670000000000002</ele>
        <time>2017-10-30T12:49:50Z</time>
      </trkpt>
      <trkpt lat="51.818002983927727" lon="9.407146973535419">
        <ele>99.629999999999995</ele>
        <time>2017-10-30T12:49:58Z</time>
      </trkpt>
      <trkpt lat="51.817178037017584" lon="9.405076978728175">
        <ele>101.08</ele>
        <time>2017-10-30T12:50:05Z</time>
      </trkpt>
      <trkpt lat="51.816359963268042" lon="9.403727995231748">
        <ele>103.48</ele>
        <time>2017-10-30T12:50:12Z</time>
      </trkpt>
      <trkpt lat="51.815931983292103" lon="9.403177974745631">
        <ele>103.95999999999999</ele>
        <time>2017-10-30T12:50:18Z</time>
      </trkpt>
      <trkpt lat="51.81566703133285" lon="9.402887960895896">
        <ele>104.92</ele>
        <time>2017-10-30T12:50:26Z</time>
      </trkpt>
      <trkpt lat="51.815591007471085" lon="9.402817972004414">
        <ele>104.92</ele>
        <time>2017-10-30T12:50:29Z</time>
      </trkpt>
      <trkpt lat="51.815541973337531" lon="9.402772961184382">
        <ele>104.92</ele>
        <time>2017-10-30T12:50:30Z</time>
      </trkpt>
      <trkpt lat="51.814770000055432" lon="9.40220701508224">
        <ele>105.40000000000001</ele>
        <time>2017-10-30T12:50:39Z</time>
      </trkpt>
      <trkpt lat="51.813635006546974" lon="9.401711979880929">
        <ele>106.36</ele>
        <time>2017-10-30T12:50:47Z</time>
      </trkpt>
      <trkpt lat="51.812197007238865" lon="9.401441998779774">
        <ele>107.81</ele>
        <time>2017-10-30T12:50:55Z</time>
      </trkpt>
      <trkpt lat="51.81012399494648" lon="9.400989962741733">
        <ele>110.69</ele>
        <time>2017-10-30T12:51:04Z</time>
      </trkpt>
      <trkpt lat="51.808201018720865" lon="9.40063800662756">
        <ele>112.13</ele>
        <time>2017-10-30T12:51:11Z</time>
      </trkpt>
      <trkpt lat="51.806755978614092" lon="9.401036985218525">
        <ele>111.65000000000001</ele>
        <time>2017-10-30T12:51:17Z</time>
      </trkpt>
      <trkpt lat="51.805041963234544" lon="9.402227969840169">
        <ele>108.29000000000001</ele>
        <time>2017-10-30T12:51:24Z</time>
      </trkpt>
      <trkpt lat="51.8034209869802" lon="9.403248969465494">
        <ele>102.04000000000001</ele>
        <time>2017-10-30T12:51:31Z</time>
      </trkpt>
      <trkpt lat="51.802044007927179" lon="9.403160959482193">
        <ele>97.709999999999994</ele>
        <time>2017-10-30T12:51:37Z</time>
      </trkpt>
      <trkpt lat="51.800275007262826" lon="9.40226904116571">
        <ele>93.870000000000005</ele>
        <time>2017-10-30T12:51:45Z</time>
      </trkpt>
      <trkpt lat="51.798679009079933" lon="9.401373015716672">
        <ele>93.870000000000005</ele>
        <time>2017-10-30T12:51:51Z</time>
      </trkpt>
      <trkpt lat="51.796991983428597" lon="9.400418987497687">
        <ele>93.870000000000005</ele>
        <time>2017-10-30T12:51:58Z</time>
      </trkpt>
      <trkpt lat="51.795274028554559" lon="9.39947702921927">
        <ele>94.349999999999994</ele>
        <time>2017-10-30T12:52:07Z</time>
      </trkpt>
      <trkpt lat="51.793548027053475" lon="9.397937022149563">
        <ele>93.870000000000005</ele>
        <time>2017-10-30T12:52:17Z</time>
      </trkpt>
      <trkpt lat="51.792580001056194" lon="9.396334988996387">
        <ele>93.870000000000005</ele>
        <time>2017-10-30T12:52:25Z</time>
      </trkpt>
      <trkpt lat="51.791311986744404" lon="9.394475966691971">
        <ele>94.349999999999994</ele>
        <time>2017-10-30T12:52:33Z</time>
      </trkpt>
      <trkpt lat="51.790155032649636" lon="9.393483968451619">
        <ele>95.310000000000002</ele>
        <time>2017-10-30T12:52:41Z</time>
      </trkpt>
      <trkpt lat="51.788680991157889" lon="9.392054015770555">
        <ele>98.189999999999998</ele>
        <time>2017-10-30T12:52:51Z</time>
      </trkpt>
      <trkpt lat="51.787707014009356" lon="9.390396997332573">
        <ele>101.08</ele>
        <time>2017-10-30T12:53:00Z</time>
      </trkpt>
      <trkpt lat="51.787020033225417" lon="9.389095036312938">
        <ele>102.52</ele>
        <time>2017-10-30T12:53:09Z</time>
      </trkpt>
      <trkpt lat="51.786285024136305" lon="9.387796008959413">
        <ele>101.56</ele>
        <time>2017-10-30T12:53:19Z</time>
      </trkpt>
      <trkpt lat="51.78588897921145" lon="9.387196032330394">
        <ele>102.52</ele>
        <time>2017-10-30T12:53:27Z</time>
      </trkpt>
      <trkpt lat="51.785199986770749" lon="9.386189030483365">
        <ele>100.59999999999999</ele>
        <time>2017-10-30T12:53:35Z</time>
      </trkpt>
      <trkpt lat="51.784379985183477" lon="9.384725969284773">
        <ele>98.670000000000002</ele>
        <time>2017-10-30T12:53:44Z</time>
      </trkpt>
      <trkpt lat="51.783867012709379" lon="9.383378997445107">
        <ele>97.709999999999994</ele>
        <time>2017-10-30T12:53:52Z</time>
      </trkpt>
      <trkpt lat="51.783800041303039" lon="9.38325603492558">
        <ele>98.189999999999998</ele>
        <time>2017-10-30T12:53:53Z</time>
      </trkpt>
      <trkpt lat="51.783715970814228" lon="9.38314899802208">
        <ele>98.670000000000002</ele>
        <time>2017-10-30T12:53:54Z</time>
      </trkpt>
      <trkpt lat="51.783627960830927" lon="9.383037015795708">
        <ele>98.670000000000002</ele>
        <time>2017-10-30T12:53:55Z</time>
      </trkpt>
      <trkpt lat="51.783523019403219" lon="9.382960991933942">
        <ele>99.150000000000006</ele>
        <time>2017-10-30T12:53:56Z</time>
      </trkpt>
      <trkpt lat="51.783411037176847" lon="9.382897038012743">
        <ele>99.150000000000006</ele>
        <time>2017-10-30T12:53:57Z</time>
      </trkpt>
      <trkpt lat="51.783298971131444" lon="9.382856972515583">
        <ele>99.150000000000006</ele>
        <time>2017-10-30T12:53:58Z</time>
      </trkpt>
      <trkpt lat="51.78318296559155" lon="9.38284800387919">
        <ele>99.150000000000006</ele>
        <time>2017-10-30T12:53:59Z</time>
      </trkpt>
      <trkpt lat="51.783069977536798" lon="9.382839035242796">
        <ele>99.150000000000006</ele>
        <time>2017-10-30T12:54:00Z</time>
      </trkpt>
      <trkpt lat="51.78245197981596" lon="9.382817996665835">
        <ele>99.150000000000006</ele>
        <time>2017-10-30T12:54:08Z</time>
      </trkpt>
      <trkpt lat="51.782375033944845" lon="9.382817996665835">
        <ele>99.629999999999995</ele>
        <time>2017-10-30T12:54:19Z</time>
      </trkpt>
      <trkpt lat="51.781976977363229" lon="9.382834006100893">
        <ele>99.150000000000006</ele>
        <time>2017-10-30T12:54:25Z</time>
      </trkpt>
      <trkpt lat="51.781680006533861" lon="9.382808022201061">
        <ele>98.189999999999998</ele>
        <time>2017-10-30T12:54:29Z</time>
      </trkpt>
      <trkpt lat="51.781346993520856" lon="9.382651029154658">
        <ele>96.269999999999996</ele>
        <time>2017-10-30T12:54:32Z</time>
      </trkpt>
      <trkpt lat="51.781235011294484" lon="9.382581040263176">
        <ele>95.790000000000006</ele>
        <time>2017-10-30T12:54:33Z</time>
      </trkpt>
      <trkpt lat="51.781124034896493" lon="9.382512979209423">
        <ele>95.310000000000002</ele>
        <time>2017-10-30T12:54:34Z</time>
      </trkpt>
      <trkpt lat="51.781020015478134" lon="9.382394040003419">
        <ele>95.310000000000002</ele>
        <time>2017-10-30T12:54:35Z</time>
      </trkpt>
      <trkpt lat="51.780918007716537" lon="9.382258001714945">
        <ele>94.829999999999998</ele>
        <time>2017-10-30T12:54:36Z</time>
      </trkpt>
      <trkpt lat="51.780808037146926" lon="9.382110983133316">
        <ele>94.349999999999994</ele>
        <time>2017-10-30T12:54:37Z</time>
      </trkpt>
      <trkpt lat="51.780693959444761" lon="9.381949966773391">
        <ele>93.870000000000005</ele>
        <time>2017-10-30T12:54:38Z</time>
      </trkpt>
      <trkpt lat="51.780594969168305" lon="9.381765983998776">
        <ele>93.870000000000005</ele>
        <time>2017-10-30T12:54:39Z</time>
      </trkpt>
      <trkpt lat="51.779716964811087" lon="9.380105026066303">
        <ele>93.870000000000005</ele>
        <time>2017-10-30T12:54:49Z</time>
      </trkpt>
      <trkpt lat="51.779374983161688" lon="9.379439000040293">
        <ele>95.790000000000006</ele>
        <time>2017-10-30T12:54:56Z</time>
      </trkpt>
      <trkpt lat="51.779360985383391" lon="9.3794110044837">
        <ele>95.790000000000006</ele>
        <time>2017-10-30T12:55:04Z</time>
      </trkpt>
      <trkpt lat="51.779360985383391" lon="9.3794110044837">
        <ele>96.269999999999996</ele>
        <time>2017-10-30T12:55:50Z</time>
      </trkpt>
      <trkpt lat="51.779360985383391" lon="9.3794110044837">
        <ele>96.269999999999996</ele>
        <time>2017-10-30T12:55:53Z</time>
      </trkpt>
      <trkpt lat="51.779341036453843" lon="9.379370016977191">
        <ele>97.230000000000004</ele>
        <time>2017-10-30T12:55:54Z</time>
      </trkpt>
      <trkpt lat="51.779319997876883" lon="9.379327017813921">
        <ele>97.709999999999994</ele>
        <time>2017-10-30T12:55:55Z</time>
      </trkpt>
      <trkpt lat="51.778984973207116" lon="9.378651017323136">
        <ele>97.709999999999994</ele>
        <time>2017-10-30T12:56:04Z</time>
      </trkpt>
      <trkpt lat="51.778967035934329" lon="9.378612041473389">
        <ele>97.230000000000004</ele>
        <time>2017-10-30T12:56:12Z</time>
      </trkpt>
      <trkpt lat="51.778908027336001" lon="9.378490000963211">
        <ele>96.75</ele>
        <time>2017-10-30T12:56:23Z</time>
      </trkpt>
      <trkpt lat="51.778522962704301" lon="9.377662958577275">
        <ele>93.870000000000005</ele>
        <time>2017-10-30T12:56:29Z</time>
      </trkpt>
      <trkpt lat="51.777730034664273" lon="9.375878032296896">
        <ele>93.870000000000005</ele>
        <time>2017-10-30T12:56:40Z</time>
      </trkpt>
      <trkpt lat="51.776952026411891" lon="9.374746978282929">
        <ele>95.310000000000002</ele>
        <time>2017-10-30T12:56:49Z</time>
      </trkpt>
      <trkpt lat="51.776033034548163" lon="9.374149013310671">
        <ele>96.269999999999996</ele>
        <time>2017-10-30T12:56:59Z</time>
      </trkpt>
      <trkpt lat="51.775939995422959" lon="9.374134009703994">
        <ele>96.269999999999996</ele>
        <time>2017-10-30T12:57:00Z</time>
      </trkpt>
      <trkpt lat="51.775889033451676" lon="9.3741250410676">
        <ele>95.790000000000006</ele>
        <time>2017-10-30T12:57:01Z</time>
      </trkpt>
      <trkpt lat="51.775788031518459" lon="9.373940974473953">
        <ele>95.790000000000006</ele>
        <time>2017-10-30T12:57:02Z</time>
      </trkpt>
      <trkpt lat="51.775792976841331" lon="9.373878026381135">
        <ele>95.310000000000002</ele>
        <time>2017-10-30T12:57:03Z</time>
      </trkpt>
      <trkpt lat="51.775797000154853" lon="9.37382304109633">
        <ele>95.310000000000002</ele>
        <time>2017-10-30T12:57:04Z</time>
      </trkpt>
      <trkpt lat="51.775803035125136" lon="9.373747017234564">
        <ele>95.310000000000002</ele>
        <time>2017-10-30T12:57:06Z</time>
      </trkpt>
      <trkpt lat="51.775803035125136" lon="9.373747017234564">
        <ele>95.310000000000002</ele>
        <time>2017-10-30T12:57:07Z</time>
      </trkpt>
      <trkpt lat="51.775801023468375" lon="9.373769983649254">
        <ele>95.310000000000002</ele>
        <time>2017-10-30T12:57:08Z</time>
      </trkpt>
      <trkpt lat="51.775799011811614" lon="9.373797979205847">
        <ele>95.310000000000002</ele>
        <time>2017-10-30T12:57:09Z</time>
      </trkpt>
      <trkpt lat="51.775799011811614" lon="9.373797979205847">
        <ele>95.310000000000002</ele>
        <time>2017-10-30T12:57:22Z</time>
      </trkpt>
      <trkpt lat="51.775793982669711" lon="9.373864028602839">
        <ele>95.310000000000002</ele>
        <time>2017-10-30T12:58:03Z</time>
      </trkpt>
      <trkpt lat="51.775789959356189" lon="9.373923959210515">
        <ele>95.790000000000006</ele>
        <time>2017-10-30T12:58:04Z</time>
      </trkpt>
      <trkpt lat="51.775687029585242" lon="9.374100985005498">
        <ele>95.790000000000006</ele>
        <time>2017-10-30T12:58:05Z</time>
      </trkpt>
      <trkpt lat="51.775633972138166" lon="9.374097967520356">
        <ele>95.790000000000006</ele>
        <time>2017-10-30T12:58:06Z</time>
      </trkpt>
      <trkpt lat="51.775562977418303" lon="9.374094028025866">
        <ele>95.790000000000006</ele>
        <time>2017-10-30T12:58:07Z</time>
      </trkpt>
      <trkpt lat="51.775481002405286" lon="9.374090004712343">
        <ele>95.310000000000002</ele>
        <time>2017-10-30T12:58:08Z</time>
      </trkpt>
      <trkpt lat="51.775391986593604" lon="9.37408497557044">
        <ele>95.310000000000002</ele>
        <time>2017-10-30T12:58:09Z</time>
      </trkpt>
      <trkpt lat="51.775299031287432" lon="9.374107019975781">
        <ele>95.310000000000002</ele>
        <time>2017-10-30T12:58:10Z</time>
      </trkpt>
      <trkpt lat="51.775200041010976" lon="9.374131998047233">
        <ele>95.310000000000002</ele>
        <time>2017-10-30T12:58:11Z</time>
      </trkpt>
      <trkpt lat="51.774437958374619" lon="9.374462999403477">
        <ele>93.390000000000001</ele>
        <time>2017-10-30T12:58:20Z</time>
      </trkpt>
      <trkpt lat="51.774241989478469" lon="9.374583028256893">
        <ele>92.420000000000002</ele>
        <time>2017-10-30T12:58:24Z</time>
      </trkpt>
      <trkpt lat="51.774206031113863" lon="9.374614963307977">
        <ele>92.420000000000002</ele>
        <time>2017-10-30T12:58:25Z</time>
      </trkpt>
      <trkpt lat="51.774122966453433" lon="9.37468696385622">
        <ele>90.5</ele>
        <time>2017-10-30T12:58:33Z</time>
      </trkpt>
      <trkpt lat="51.774122966453433" lon="9.37468696385622">
        <ele>90.5</ele>
        <time>2017-10-30T12:59:10Z</time>
      </trkpt>
      <trkpt lat="51.773978965356946" lon="9.37481202185154">
        <ele>90.019999999999996</ele>
        <time>2017-10-30T12:59:34Z</time>
      </trkpt>
      <trkpt lat="51.773291984573007" lon="9.375440999865532">
        <ele>89.540000000000006</ele>
        <time>2017-10-30T12:59:39Z</time>
      </trkpt>
      <trkpt lat="51.771873012185097" lon="9.376913029700518">
        <ele>88.579999999999998</ele>
        <time>2017-10-30T12:59:49Z</time>
      </trkpt>
      <trkpt lat="51.770972041413188" lon="9.377875020727515">
        <ele>89.060000000000002</ele>
        <time>2017-10-30T12:59:57Z</time>
      </trkpt>
      <trkpt lat="51.770443981513381" lon="9.378435015678406">
        <ele>89.060000000000002</ele>
        <time>2017-10-30T13:00:03Z</time>
      </trkpt>
      <trkpt lat="51.770392013713717" lon="9.378490000963211">
        <ele>89.060000000000002</ele>
        <time>2017-10-30T13:00:04Z</time>
      </trkpt>
      <trkpt lat="51.770345997065306" lon="9.378537023440003">
        <ele>89.540000000000006</ele>
        <time>2017-10-30T13:00:05Z</time>
      </trkpt>
      <trkpt lat="51.7703100387007" lon="9.378574993461371">
        <ele>89.540000000000006</ele>
        <time>2017-10-30T13:00:06Z</time>
      </trkpt>
      <trkpt lat="51.770281037315726" lon="9.378605000674725">
        <ele>89.540000000000006</ele>
        <time>2017-10-30T13:00:07Z</time>
      </trkpt>
      <trkpt lat="51.770281037315726" lon="9.378605000674725">
        <ele>89.540000000000006</ele>
        <time>2017-10-30T13:00:08Z</time>
      </trkpt>
      <trkpt lat="51.770261004567146" lon="9.378626961261034">
        <ele>90.019999999999996</ele>
        <time>2017-10-30T13:00:14Z</time>
      </trkpt>
      <trkpt lat="51.770239965990186" lon="9.378649005666375">
        <ele>90.5</ele>
        <time>2017-10-30T13:00:15Z</time>
      </trkpt>
      <trkpt lat="51.769948024302721" lon="9.378870036453009">
        <ele>90.5</ele>
        <time>2017-10-30T13:00:19Z</time>
      </trkpt>
      <trkpt lat="51.769831012934446" lon="9.378931978717446">
        <ele>90.980000000000004</ele>
        <time>2017-10-30T13:00:20Z</time>
      </trkpt>
      <trkpt lat="51.769697992131114" lon="9.378971038386226">
        <ele>90.980000000000004</ele>
        <time>2017-10-30T13:00:21Z</time>
      </trkpt>
      <trkpt lat="51.769556002691388" lon="9.378953017294407">
        <ele>90.5</ele>
        <time>2017-10-30T13:00:22Z</time>
      </trkpt>
      <trkpt lat="51.769403032958508" lon="9.378933990374208">
        <ele>90.5</ele>
        <time>2017-10-30T13:00:23Z</time>
      </trkpt>
      <trkpt lat="51.769257020205259" lon="9.37883198261261">
        <ele>90.5</ele>
        <time>2017-10-30T13:00:24Z</time>
      </trkpt>
      <trkpt lat="51.769104972481728" lon="9.37872402369976">
        <ele>90.019999999999996</ele>
        <time>2017-10-30T13:00:25Z</time>
      </trkpt>
      <trkpt lat="51.767788007855415" lon="9.37780000269413">
        <ele>91.459999999999994</ele>
        <time>2017-10-30T13:00:34Z</time>
      </trkpt>
      <trkpt lat="51.766326958313584" lon="9.377252999693155">
        <ele>91.459999999999994</ele>
        <time>2017-10-30T13:00:43Z</time>
      </trkpt>
      <trkpt lat="51.764612020924687" lon="9.376941025257111">
        <ele>91.939999999999998</ele>
        <time>2017-10-30T13:00:50Z</time>
      </trkpt>
      <trkpt lat="51.762445969507098" lon="9.376075007021427">
        <ele>92.420000000000002</ele>
        <time>2017-10-30T13:00:58Z</time>
      </trkpt>
      <trkpt lat="51.760654002428055" lon="9.375111004337668">
        <ele>92.420000000000002</ele>
        <time>2017-10-30T13:01:05Z</time>
      </trkpt>
      <trkpt lat="51.759167974814773" lon="9.374030996114016">
        <ele>92.420000000000002</ele>
        <time>2017-10-30T13:01:12Z</time>
      </trkpt>
      <trkpt lat="51.7585189640522" lon="9.37358901835978">
        <ele>93.390000000000001</ele>
        <time>2017-10-30T13:01:16Z</time>
      </trkpt>
      <trkpt lat="51.758373035117984" lon="9.373548030853272">
        <ele>93.390000000000001</ele>
        <time>2017-10-30T13:01:17Z</time>
      </trkpt>
      <trkpt lat="51.758230961859226" lon="9.373565968126059">
        <ele>93.870000000000005</ele>
        <time>2017-10-30T13:01:18Z</time>
      </trkpt>
      <trkpt lat="51.757943965494633" lon="9.373612990602851">
        <ele>94.349999999999994</ele>
        <time>2017-10-30T13:01:20Z</time>
      </trkpt>
      <trkpt lat="51.757798036560416" lon="9.373564040288329">
        <ele>94.829999999999998</ele>
        <time>2017-10-30T13:01:21Z</time>
      </trkpt>
      <trkpt lat="51.757630985230207" lon="9.373507965356112">
        <ele>94.829999999999998</ele>
        <time>2017-10-30T13:01:22Z</time>
      </trkpt>
      <trkpt lat="51.756546031683683" lon="9.372999016195536">
        <ele>94.349999999999994</ele>
        <time>2017-10-30T13:01:27Z</time>
      </trkpt>
      <trkpt lat="51.754055013880134" lon="9.371908027678728">
        <ele>94.349999999999994</ele>
        <time>2017-10-30T13:01:36Z</time>
      </trkpt>
      <trkpt lat="51.749967997893691" lon="9.370104996487498">
        <ele>95.310000000000002</ele>
        <time>2017-10-30T13:01:50Z</time>
      </trkpt>
      <trkpt lat="51.745738992467523" lon="9.368255026638508">
        <ele>95.790000000000006</ele>
        <time>2017-10-30T13:02:05Z</time>
      </trkpt>
      <trkpt lat="51.741851968690753" lon="9.366531958803535">
        <ele>93.870000000000005</ele>
        <time>2017-10-30T13:02:19Z</time>
      </trkpt>
      <trkpt lat="51.739531019702554" lon="9.365516994148493">
        <ele>92.900000000000006</ele>
        <time>2017-10-30T13:02:29Z</time>
      </trkpt>
      <trkpt lat="51.738378005102277" lon="9.364950964227319">
        <ele>92.420000000000002</ele>
        <time>2017-10-30T13:02:38Z</time>
      </trkpt>
      <trkpt lat="51.736879991367459" lon="9.363974975422025">
        <ele>91.459999999999994</ele>
        <time>2017-10-30T13:02:52Z</time>
      </trkpt>
      <trkpt lat="51.736244978383183" lon="9.363549007102847">
        <ele>92.420000000000002</ele>
        <time>2017-10-30T13:02:58Z</time>
      </trkpt>
      <trkpt lat="51.736140958964825" lon="9.363479018211365">
        <ele>92.900000000000006</ele>
        <time>2017-10-30T13:02:59Z</time>
      </trkpt>
      <trkpt lat="51.73561398871243" lon="9.363124966621399">
        <ele>93.870000000000005</ele>
        <time>2017-10-30T13:03:04Z</time>
      </trkpt>
      <trkpt lat="51.734298029914498" lon="9.36232902109623">
        <ele>95.790000000000006</ele>
        <time>2017-10-30T13:03:16Z</time>
      </trkpt>
      <trkpt lat="51.73387298360467" lon="9.36200799420476">
        <ele>96.75</ele>
        <time>2017-10-30T13:03:23Z</time>
      </trkpt>
      <trkpt lat="51.733821015805006" lon="9.361956026405096">
        <ele>96.75</ele>
        <time>2017-10-30T13:03:24Z</time>
      </trkpt>
      <trkpt lat="51.733716996386647" lon="9.361962983384728">
        <ele>96.269999999999996</ele>
        <time>2017-10-30T13:03:25Z</time>
      </trkpt>
      <trkpt lat="51.733670979738235" lon="9.36203196644783">
        <ele>96.75</ele>
        <time>2017-10-30T13:03:26Z</time>
      </trkpt>
      <trkpt lat="51.733617000281811" lon="9.36211402527988">
        <ele>96.75</ele>
        <time>2017-10-30T13:03:27Z</time>
      </trkpt>
      <trkpt lat="51.733553968369961" lon="9.362207986414433">
        <ele>96.269999999999996</ele>
        <time>2017-10-30T13:03:28Z</time>
      </trkpt>
      <trkpt lat="51.73348599113524" lon="9.36230898834765">
        <ele>96.269999999999996</ele>
        <time>2017-10-30T13:03:29Z</time>
      </trkpt>
      <trkpt lat="51.733332015573978" lon="9.362519038841128">
        <ele>95.790000000000006</ele>
        <time>2017-10-30T13:03:31Z</time>
      </trkpt>
      <trkpt lat="51.73327099531889" lon="9.362672008574009">
        <ele>95.790000000000006</ele>
        <time>2017-10-30T13:03:32Z</time>
      </trkpt>
      <trkpt lat="51.73273203894496" lon="9.364082012325525">
        <ele>93.390000000000001</ele>
        <time>2017-10-30T13:03:40Z</time>
      </trkpt>
      <trkpt lat="51.732076993212104" lon="9.366301959380508">
        <ele>90.980000000000004</ele>
        <time>2017-10-30T13:03:50Z</time>
      </trkpt>
      <trkpt lat="51.731294961646199" lon="9.368327027186751">
        <ele>89.060000000000002</ele>
        <time>2017-10-30T13:03:57Z</time>
      </trkpt>
      <trkpt lat="51.730848038569093" lon="9.369083996862173">
        <ele>88.579999999999998</ele>
        <time>2017-10-30T13:04:00Z</time>
      </trkpt>
      <trkpt lat="51.730662966147065" lon="9.369276026263833">
        <ele>88.579999999999998</ele>
        <time>2017-10-30T13:04:01Z</time>
      </trkpt>
      <trkpt lat="51.730473032221198" lon="9.369445005431771">
        <ele>88.579999999999998</ele>
        <time>2017-10-30T13:04:02Z</time>
      </trkpt>
      <trkpt lat="51.730273040011525" lon="9.369569979608059">
        <ele>88.099999999999994</ele>
        <time>2017-10-30T13:04:03Z</time>
      </trkpt>
      <trkpt lat="51.730067012831569" lon="9.369668969884515">
        <ele>88.579999999999998</ele>
        <time>2017-10-30T13:04:04Z</time>
      </trkpt>
      <trkpt lat="51.728746024891734" lon="9.370040036737919">
        <ele>89.060000000000002</ele>
        <time>2017-10-30T13:04:09Z</time>
      </trkpt>
      <trkpt lat="51.726215025410056" lon="9.370759036391974">
        <ele>90.5</ele>
        <time>2017-10-30T13:04:18Z</time>
      </trkpt>
      <trkpt lat="51.725254962220788" lon="9.371039997786284">
        <ele>91.459999999999994</ele>
        <time>2017-10-30T13:04:24Z</time>
      </trkpt>
      <trkpt lat="51.724637970328331" lon="9.371276032179594">
        <ele>93.870000000000005</ele>
        <time>2017-10-30T13:04:29Z</time>
      </trkpt>
      <trkpt lat="51.724523976445198" lon="9.371345015242696">
        <ele>94.349999999999994</ele>
        <time>2017-10-30T13:04:30Z</time>
      </trkpt>
      <trkpt lat="51.724417023360729" lon="9.371442999690771">
        <ele>94.829999999999998</ele>
        <time>2017-10-30T13:04:31Z</time>
      </trkpt>
      <trkpt lat="51.723691988736391" lon="9.372101984918118">
        <ele>100.11</ele>
        <time>2017-10-30T13:04:38Z</time>
      </trkpt>
      <trkpt lat="51.723488979041576" lon="9.372148001566529">
        <ele>102.04000000000001</ele>
        <time>2017-10-30T13:04:40Z</time>
      </trkpt>
      <trkpt lat="51.723389988765121" lon="9.372113971039653">
        <ele>102.52</ele>
        <time>2017-10-30T13:04:41Z</time>
      </trkpt>
      <trkpt lat="51.723288986831903" lon="9.372052028775215">
        <ele>103.48</ele>
        <time>2017-10-30T13:04:42Z</time>
      </trkpt>
      <trkpt lat="51.722947005182505" lon="9.371841978281736">
        <ele>105.88</ele>
        <time>2017-10-30T13:04:45Z</time>
      </trkpt>
      <trkpt lat="51.722813984379172" lon="9.371795039623976">
        <ele>106.84</ele>
        <time>2017-10-30T13:04:46Z</time>
      </trkpt>
      <trkpt lat="51.722668977454305" lon="9.371815994381905">
        <ele>107.81</ele>
        <time>2017-10-30T13:04:47Z</time>
      </trkpt>
      <trkpt lat="51.722507961094379" lon="9.371838960796595">
        <ele>108.77</ele>
        <time>2017-10-30T13:04:48Z</time>
      </trkpt>
      <trkpt lat="51.722335964441299" lon="9.371864022687078">
        <ele>109.73</ele>
        <time>2017-10-30T13:04:49Z</time>
      </trkpt>
      <trkpt lat="51.722151981666684" lon="9.371906016021967">
        <ele>111.17</ele>
        <time>2017-10-30T13:04:50Z</time>
      </trkpt>
      <trkpt lat="51.72074600122869" lon="9.37232100404799">
        <ele>117.42</ele>
        <time>2017-10-30T13:04:56Z</time>
      </trkpt>
      <trkpt lat="51.718940958380699" lon="9.372886028140783">
        <ele>119.34</ele>
        <time>2017-10-30T13:05:02Z</time>
      </trkpt>
      <trkpt lat="51.717487033456564" lon="9.373350972309709">
        <ele>121.73999999999999</ele>
        <time>2017-10-30T13:05:08Z</time>
      </trkpt>
      <trkpt lat="51.715595992282033" lon="9.373950026929379">
        <ele>122.70999999999999</ele>
        <time>2017-10-30T13:05:16Z</time>
      </trkpt>
      <trkpt lat="51.714795017614961" lon="9.374162005260587">
        <ele>123.67</ele>
        <time>2017-10-30T13:05:21Z</time>
      </trkpt>
      <trkpt lat="51.714681023731828" lon="9.374153958633542">
        <ele>123.67</ele>
        <time>2017-10-30T13:05:22Z</time>
      </trkpt>
      <trkpt lat="51.714573986828327" lon="9.374100985005498">
        <ele>123.19</ele>
        <time>2017-10-30T13:05:23Z</time>
      </trkpt>
      <trkpt lat="51.714482959359884" lon="9.374010963365436">
        <ele>122.70999999999999</ele>
        <time>2017-10-30T13:05:24Z</time>
      </trkpt>
      <trkpt lat="51.714390004053712" lon="9.373918008059263">
        <ele>122.22</ele>
        <time>2017-10-30T13:05:25Z</time>
      </trkpt>
      <trkpt lat="51.71430098824203" lon="9.373816000297666">
        <ele>121.73999999999999</ele>
        <time>2017-10-30T13:05:26Z</time>
      </trkpt>
      <trkpt lat="51.71412798576057" lon="9.373591030016542">
        <ele>121.26000000000001</ele>
        <time>2017-10-30T13:05:28Z</time>
      </trkpt>
      <trkpt lat="51.714018015190959" lon="9.373547025024891">
        <ele>121.26000000000001</ele>
        <time>2017-10-30T13:05:29Z</time>
      </trkpt>
      <trkpt lat="51.71391298994422" lon="9.373505031690002">
        <ele>120.78</ele>
        <time>2017-10-30T13:05:30Z</time>
      </trkpt>
      <trkpt lat="51.713795978575945" lon="9.373539984226227">
        <ele>120.3</ele>
        <time>2017-10-30T13:05:31Z</time>
      </trkpt>
      <trkpt lat="51.713677039369941" lon="9.373592035844922">
        <ele>120.3</ele>
        <time>2017-10-30T13:05:32Z</time>
      </trkpt>
      <trkpt lat="51.713564973324537" lon="9.373710975050926">
        <ele>119.81999999999999</ele>
        <time>2017-10-30T13:05:33Z</time>
      </trkpt>
      <trkpt lat="51.713442010805011" lon="9.373840978369117">
        <ele>119.81999999999999</ele>
        <time>2017-10-30T13:05:34Z</time>
      </trkpt>
      <trkpt lat="51.71331200748682" lon="9.373978022485972">
        <ele>120.3</ele>
        <time>2017-10-30T13:05:35Z</time>
      </trkpt>
      <trkpt lat="51.71191499568522" lon="9.375348966568708">
        <ele>121.73999999999999</ele>
        <time>2017-10-30T13:05:45Z</time>
      </trkpt>
      <trkpt lat="51.710364008322358" lon="9.376331996172667">
        <ele>124.15000000000001</ele>
        <time>2017-10-30T13:05:53Z</time>
      </trkpt>
      <trkpt lat="51.708661979064345" lon="9.376566018909216">
        <ele>127.03</ele>
        <time>2017-10-30T13:06:01Z</time>
      </trkpt>
      <trkpt lat="51.70785304158926" lon="9.376845974475145">
        <ele>129.43000000000001</ele>
        <time>2017-10-30T13:06:05Z</time>
      </trkpt>
      <trkpt lat="51.707677021622658" lon="9.377010008320212">
        <ele>129.91999999999999</ele>
        <time>2017-10-30T13:06:06Z</time>
      </trkpt>
      <trkpt lat="51.707504019141197" lon="9.37717798165977">
        <ele>130.40000000000001</ele>
        <time>2017-10-30T13:06:07Z</time>
      </trkpt>
      <trkpt lat="51.707330010831356" lon="9.377346038818359">
        <ele>130.88</ele>
        <time>2017-10-30T13:06:08Z</time>
      </trkpt>
      <trkpt lat="51.707161031663418" lon="9.377527004107833">
        <ele>131.84</ele>
        <time>2017-10-30T13:06:09Z</time>
      </trkpt>
      <trkpt lat="51.707008983939886" lon="9.377746023237705">
        <ele>132.31999999999999</ele>
        <time>2017-10-30T13:06:10Z</time>
      </trkpt>
      <trkpt lat="51.706860037520528" lon="9.377961019054055">
        <ele>132.80000000000001</ele>
        <time>2017-10-30T13:06:11Z</time>
      </trkpt>
      <trkpt lat="51.706740008667111" lon="9.378220019862056">
        <ele>133.75999999999999</ele>
        <time>2017-10-30T13:06:12Z</time>
      </trkpt>
      <trkpt lat="51.706640012562275" lon="9.378493018448353">
        <ele>134.24000000000001</ele>
        <time>2017-10-30T13:06:13Z</time>
      </trkpt>
      <trkpt lat="51.706540016457438" lon="9.378770040348172">
        <ele>135.19999999999999</ele>
        <time>2017-10-30T13:06:14Z</time>
      </trkpt>
      <trkpt lat="51.706439014524221" lon="9.379048990085721">
        <ele>135.68000000000001</ele>
        <time>2017-10-30T13:06:15Z</time>
      </trkpt>
      <trkpt lat="51.706001982092857" lon="9.380917986854911">
        <ele>139.53</ele>
        <time>2017-10-30T13:06:20Z</time>
      </trkpt>
      <trkpt lat="51.705625969916582" lon="9.38211802393198">
        <ele>141.44999999999999</ele>
        <time>2017-10-30T13:06:23Z</time>
      </trkpt>
      <trkpt lat="51.705454979091883" lon="9.38246101140976">
        <ele>141.93000000000001</ele>
        <time>2017-10-30T13:06:24Z</time>
      </trkpt>
      <trkpt lat="51.705282982438803" lon="9.382791006937623">
        <ele>142.88999999999999</ele>
        <time>2017-10-30T13:06:25Z</time>
      </trkpt>
      <trkpt lat="51.705091958865523" lon="9.383070040494204">
        <ele>143.84999999999999</ele>
        <time>2017-10-30T13:06:26Z</time>
      </trkpt>
      <trkpt lat="51.704893978312612" lon="9.383302973583341">
        <ele>144.34</ele>
        <time>2017-10-30T13:06:27Z</time>
      </trkpt>
      <trkpt lat="51.7046959977597" lon="9.383509000763297">
        <ele>145.30000000000001</ele>
        <time>2017-10-30T13:06:28Z</time>
      </trkpt>
      <trkpt lat="51.704507991671562" lon="9.383698012679815">
        <ele>145.78</ele>
        <time>2017-10-30T13:06:29Z</time>
      </trkpt>
      <trkpt lat="51.704314034432173" lon="9.383847964927554">
        <ele>146.25999999999999</ele>
        <time>2017-10-30T13:06:30Z</time>
      </trkpt>
      <trkpt lat="51.702948035672307" lon="9.384646005928516">
        <ele>147.69999999999999</ele>
        <time>2017-10-30T13:06:36Z</time>
      </trkpt>
      <trkpt lat="51.700905030593276" lon="9.384934008121491">
        <ele>146.25999999999999</ele>
        <time>2017-10-30T13:06:43Z</time>
      </trkpt>
      <trkpt lat="51.6990249697119" lon="9.384201010689139">
        <ele>142.41</ele>
        <time>2017-10-30T13:06:50Z</time>
      </trkpt>
      <trkpt lat="51.697835996747017" lon="9.383080014958978">
        <ele>140.00999999999999</ele>
        <time>2017-10-30T13:06:55Z</time>
      </trkpt>
      <trkpt lat="51.695645973086357" lon="9.380567036569119">
        <ele>136.16</ele>
        <time>2017-10-30T13:07:04Z</time>
      </trkpt>
      <trkpt lat="51.693725008517504" lon="9.379353001713753">
        <ele>131.36000000000001</ele>
        <time>2017-10-30T13:07:11Z</time>
      </trkpt>
      <trkpt lat="51.691801026463509" lon="9.378841035068035">
        <ele>127.03</ele>
        <time>2017-10-30T13:07:18Z</time>
      </trkpt>
      <trkpt lat="51.690048035234213" lon="9.378684964030981">
        <ele>122.22</ele>
        <time>2017-10-30T13:07:25Z</time>
      </trkpt>
      <trkpt lat="51.688574999570847" lon="9.378755036741495">
        <ele>117.42</ele>
        <time>2017-10-30T13:07:31Z</time>
      </trkpt>
      <trkpt lat="51.686746990308166" lon="9.378670966252685">
        <ele>110.69</ele>
        <time>2017-10-30T13:07:40Z</time>
      </trkpt>
      <trkpt lat="51.685270015150309" lon="9.377933023497462">
        <ele>107.81</ele>
        <time>2017-10-30T13:07:48Z</time>
      </trkpt>
      <trkpt lat="51.683624982833862" lon="9.376958962529898">
        <ele>107.31999999999999</ele>
        <time>2017-10-30T13:07:58Z</time>
      </trkpt>
      <trkpt lat="51.682237023487687" lon="9.376715971156955">
        <ele>107.31999999999999</ele>
        <time>2017-10-30T13:08:05Z</time>
      </trkpt>
      <trkpt lat="51.681030029430985" lon="9.376456970348954">
        <ele>105.40000000000001</ele>
        <time>2017-10-30T13:08:10Z</time>
      </trkpt>
      <trkpt lat="51.680819978937507" lon="9.376335013657808">
        <ele>104.92</ele>
        <time>2017-10-30T13:08:11Z</time>
      </trkpt>
      <trkpt lat="51.68061101809144" lon="9.376196963712573">
        <ele>104.44</ele>
        <time>2017-10-30T13:08:12Z</time>
      </trkpt>
      <trkpt lat="51.679950021207333" lon="9.37563001178205">
        <ele>103.48</ele>
        <time>2017-10-30T13:08:16Z</time>
      </trkpt>
      <trkpt lat="51.679825969040394" lon="9.375575026497245">
        <ele>103</ele>
        <time>2017-10-30T13:08:17Z</time>
      </trkpt>
      <trkpt lat="51.67973100207746" lon="9.37554401345551">
        <ele>102.52</ele>
        <time>2017-10-30T13:08:18Z</time>
      </trkpt>
      <trkpt lat="51.67962497100234" lon="9.375604027882218">
        <ele>102.04000000000001</ele>
        <time>2017-10-30T13:08:19Z</time>
      </trkpt>
      <trkpt lat="51.679541990160942" lon="9.375683991238475">
        <ele>102.04000000000001</ele>
        <time>2017-10-30T13:08:20Z</time>
      </trkpt>
      <trkpt lat="51.679456997662783" lon="9.375803014263511">
        <ele>102.04000000000001</ele>
        <time>2017-10-30T13:08:21Z</time>
      </trkpt>
      <trkpt lat="51.67936697602272" lon="9.375928994268179">
        <ele>101.56</ele>
        <time>2017-10-30T13:08:22Z</time>
      </trkpt>
      <trkpt lat="51.679278966039419" lon="9.376051034778357">
        <ele>101.08</ele>
        <time>2017-10-30T13:08:23Z</time>
      </trkpt>
      <trkpt lat="51.679197996854782" lon="9.37616603448987">
        <ele>101.08</ele>
        <time>2017-10-30T13:08:24Z</time>
      </trkpt>
      <trkpt lat="51.679090037941933" lon="9.376243986189365">
        <ele>100.59999999999999</ele>
        <time>2017-10-30T13:08:25Z</time>
      </trkpt>
      <trkpt lat="51.678959028795362" lon="9.376272987574339">
        <ele>100.59999999999999</ele>
        <time>2017-10-30T13:08:26Z</time>
      </trkpt>
      <trkpt lat="51.678852997720242" lon="9.376262007281184">
        <ele>100.59999999999999</ele>
        <time>2017-10-30T13:08:27Z</time>
      </trkpt>
      <trkpt lat="51.678730035200715" lon="9.376244992017746">
        <ele>100.59999999999999</ele>
        <time>2017-10-30T13:08:28Z</time>
      </trkpt>
      <trkpt lat="51.677272003144026" lon="9.375969981774688">
        <ele>101.08</ele>
        <time>2017-10-30T13:08:39Z</time>
      </trkpt>
      <trkpt lat="51.675475006923079" lon="9.375689020380378">
        <ele>101.56</ele>
        <time>2017-10-30T13:08:54Z</time>
      </trkpt>
      <trkpt lat="51.673975987359881" lon="9.375481987372041">
        <ele>99.629999999999995</ele>
        <time>2017-10-30T13:09:07Z</time>
      </trkpt>
      <trkpt lat="51.672960016876459" lon="9.375339997932315">
        <ele>100.11</ele>
        <time>2017-10-30T13:09:16Z</time>
      </trkpt>
      <trkpt lat="51.671894006431103" lon="9.37517998740077">
        <ele>99.629999999999995</ele>
        <time>2017-10-30T13:09:26Z</time>
      </trkpt>
      <trkpt lat="51.670438991859555" lon="9.37498401850462">
        <ele>97.709999999999994</ele>
        <time>2017-10-30T13:09:38Z</time>
      </trkpt>
      <trkpt lat="51.669098976999521" lon="9.37479198910296">
        <ele>95.310000000000002</ele>
        <time>2017-10-30T13:09:49Z</time>
      </trkpt>
      <trkpt lat="51.667801039293408" lon="9.37462099827826">
        <ele>96.269999999999996</ele>
        <time>2017-10-30T13:10:00Z</time>
      </trkpt>
      <trkpt lat="51.667066030204296" lon="9.374479008838534">
        <ele>96.269999999999996</ele>
        <time>2017-10-30T13:10:09Z</time>
      </trkpt>
      <trkpt lat="51.666906019672751" lon="9.374462999403477">
        <ele>97.230000000000004</ele>
        <time>2017-10-30T13:10:12Z</time>
      </trkpt>
      <trkpt lat="51.666848016902804" lon="9.374458976089954">
        <ele>97.230000000000004</ele>
        <time>2017-10-30T13:10:13Z</time>
      </trkpt>
      <trkpt lat="51.666139997541904" lon="9.374365014955401">
        <ele>96.75</ele>
        <time>2017-10-30T13:10:22Z</time>
      </trkpt>
      <trkpt lat="51.66561596095562" lon="9.374128980562091">
        <ele>95.310000000000002</ele>
        <time>2017-10-30T13:10:32Z</time>
      </trkpt>
      <trkpt lat="51.665514037013054" lon="9.37408204190433">
        <ele>95.790000000000006</ele>
        <time>2017-10-30T13:10:36Z</time>
      </trkpt>
      <trkpt lat="51.66548796929419" lon="9.374069971963763">
        <ele>95.790000000000006</ele>
        <time>2017-10-30T13:10:37Z</time>
      </trkpt>
      <trkpt lat="51.665446981787682" lon="9.374051028862596">
        <ele>96.269999999999996</ele>
        <time>2017-10-30T13:10:38Z</time>
      </trkpt>
      <trkpt lat="51.665063006803393" lon="9.373840978369117">
        <ele>97.230000000000004</ele>
        <time>2017-10-30T13:10:44Z</time>
      </trkpt>
      <trkpt lat="51.664972985163331" lon="9.373788004741073">
        <ele>97.230000000000004</ele>
        <time>2017-10-30T13:10:47Z</time>
      </trkpt>
      <trkpt lat="51.664958987385035" lon="9.373779958114028">
        <ele>97.230000000000004</ele>
        <time>2017-10-30T13:10:48Z</time>
      </trkpt>
      <trkpt lat="51.664958987385035" lon="9.373779958114028">
        <ele>97.230000000000004</ele>
        <time>2017-10-30T13:10:49Z</time>
      </trkpt>
      <trkpt lat="51.664934009313583" lon="9.373765038326383">
        <ele>97.709999999999994</ele>
        <time>2017-10-30T13:10:50Z</time>
      </trkpt>
      <trkpt lat="51.664917999878526" lon="9.373754980042577">
        <ele>97.709999999999994</ele>
        <time>2017-10-30T13:10:51Z</time>
      </trkpt>
      <trkpt lat="51.664893021807075" lon="9.37374098226428">
        <ele>98.189999999999998</ele>
        <time>2017-10-30T13:10:52Z</time>
      </trkpt>
      <trkpt lat="51.664857985451818" lon="9.373720027506352">
        <ele>98.670000000000002</ele>
        <time>2017-10-30T13:10:53Z</time>
      </trkpt>
      <trkpt lat="51.664814986288548" lon="9.373694965615869">
        <ele>98.670000000000002</ele>
        <time>2017-10-30T13:10:54Z</time>
      </trkpt>
      <trkpt lat="51.664220960810781" lon="9.373344015330076">
        <ele>100.59999999999999</ele>
        <time>2017-10-30T13:11:02Z</time>
      </trkpt>
      <trkpt lat="51.663889959454536" lon="9.373162966221571">
        <ele>101.56</ele>
        <time>2017-10-30T13:11:06Z</time>
      </trkpt>
      <trkpt lat="51.663591982796788" lon="9.373000022023916">
        <ele>102.04000000000001</ele>
        <time>2017-10-30T13:11:10Z</time>
      </trkpt>
      <trkpt lat="51.663519982248545" lon="9.372960962355137">
        <ele>102.52</ele>
        <time>2017-10-30T13:11:11Z</time>
      </trkpt>
      <trkpt lat="51.663446975871921" lon="9.372920980677009">
        <ele>102.52</ele>
        <time>2017-10-30T13:11:12Z</time>
      </trkpt>
      <trkpt lat="51.663375981152058" lon="9.372883010655642">
        <ele>102.52</ele>
        <time>2017-10-30T13:11:13Z</time>
      </trkpt>
      <trkpt lat="51.663306998088956" lon="9.372845040634275">
        <ele>103</ele>
        <time>2017-10-30T13:11:14Z</time>
      </trkpt>
      <trkpt lat="51.663047997280955" lon="9.3727090023458">
        <ele>103</ele>
        <time>2017-10-30T13:11:19Z</time>
      </trkpt>
      <trkpt lat="51.663011033087969" lon="9.372692992910743">
        <ele>103</ele>
        <time>2017-10-30T13:11:20Z</time>
      </trkpt>
      <trkpt lat="51.662897039204836" lon="9.37264203093946">
        <ele>103</ele>
        <time>2017-10-30T13:11:29Z</time>
      </trkpt>
      <trkpt lat="51.662897039204836" lon="9.37264203093946">
        <ele>102.52</ele>
        <time>2017-10-30T13:12:15Z</time>
      </trkpt>
      <trkpt lat="51.662786984816194" lon="9.372592996805906">
        <ele>102.52</ele>
        <time>2017-10-30T13:12:31Z</time>
      </trkpt>
      <trkpt lat="51.66213302873075" lon="9.372317986562848">
        <ele>104.44</ele>
        <time>2017-10-30T13:12:39Z</time>
      </trkpt>
      <trkpt lat="51.661099959164858" lon="9.37212604098022">
        <ele>103.95999999999999</ele>
        <time>2017-10-30T13:12:47Z</time>
      </trkpt>
      <trkpt lat="51.660002013668418" lon="9.371920013800263">
        <ele>101.08</ele>
        <time>2017-10-30T13:12:56Z</time>
      </trkpt>
      <trkpt lat="51.658353041857481" lon="9.371596975252032">
        <ele>100.11</ele>
        <time>2017-10-30T13:13:10Z</time>
      </trkpt>
      <trkpt lat="51.657062983140349" lon="9.371353983879089">
        <ele>99.150000000000006</ele>
        <time>2017-10-30T13:13:20Z</time>
      </trkpt>
      <trkpt lat="51.656546993181109" lon="9.371264968067408">
        <ele>99.150000000000006</ele>
        <time>2017-10-30T13:13:23Z</time>
      </trkpt>
      <trkpt lat="51.655082004144788" lon="9.371037986129522">
        <ele>101.08</ele>
        <time>2017-10-30T13:13:30Z</time>
      </trkpt>
      <trkpt lat="51.652592997997999" lon="9.370949976146221">
        <ele>112.61</ele>
        <time>2017-10-30T13:13:40Z</time>
      </trkpt>
      <trkpt lat="51.650817962363362" lon="9.370840005576611">
        <ele>121.26000000000001</ele>
        <time>2017-10-30T13:13:47Z</time>
      </trkpt>
      <trkpt lat="51.649350039660931" lon="9.371472001075745">
        <ele>127.03</ele>
        <time>2017-10-30T13:13:53Z</time>
      </trkpt>
      <trkpt lat="51.64715800434351" lon="9.372689975425601">
        <ele>134.72</ele>
        <time>2017-10-30T13:14:02Z</time>
      </trkpt>
      <trkpt lat="51.645607016980648" lon="9.372781002894044">
        <ele>139.05000000000001</ele>
        <time>2017-10-30T13:14:08Z</time>
      </trkpt>
      <trkpt lat="51.64387296885252" lon="9.3731580208987">
        <ele>140.00999999999999</ele>
        <time>2017-10-30T13:14:15Z</time>
      </trkpt>
      <trkpt lat="51.642720960080624" lon="9.373319037258625">
        <ele>138.09</ele>
        <time>2017-10-30T13:14:20Z</time>
      </trkpt>
      <trkpt lat="51.64140198379755" lon="9.373127007856965">
        <ele>135.19999999999999</ele>
        <time>2017-10-30T13:14:27Z</time>
      </trkpt>
      <trkpt lat="51.641212971881032" lon="9.373149974271655">
        <ele>134.72</ele>
        <time>2017-10-30T13:14:28Z</time>
      </trkpt>
      <trkpt lat="51.641021026298404" lon="9.373173024505377">
        <ele>134.24000000000001</ele>
        <time>2017-10-30T13:14:29Z</time>
      </trkpt>
      <trkpt lat="51.640836037695408" lon="9.373265979811549">
        <ele>133.75999999999999</ele>
        <time>2017-10-30T13:14:30Z</time>
      </trkpt>
      <trkpt lat="51.64065096527338" lon="9.373419033363462">
        <ele>133.75999999999999</ele>
        <time>2017-10-30T13:14:31Z</time>
      </trkpt>
      <trkpt lat="51.640461031347513" lon="9.373576026409864">
        <ele>133.75999999999999</ele>
        <time>2017-10-30T13:14:32Z</time>
      </trkpt>
      <trkpt lat="51.640290040522814" lon="9.373736958950758">
        <ele>133.75999999999999</ele>
        <time>2017-10-30T13:14:33Z</time>
      </trkpt>
      <trkpt lat="51.64015500806272" lon="9.373957989737392">
        <ele>134.24000000000001</ele>
        <time>2017-10-30T13:14:34Z</time>
      </trkpt>
      <trkpt lat="51.640031961724162" lon="9.374159993603826">
        <ele>134.72</ele>
        <time>2017-10-30T13:14:35Z</time>
      </trkpt>
      <trkpt lat="51.639945041388273" lon="9.374357974156737">
        <ele>135.68000000000001</ele>
        <time>2017-10-30T13:14:36Z</time>
      </trkpt>
      <trkpt lat="51.639798022806644" lon="9.374712025746703">
        <ele>137.13</ele>
        <time>2017-10-30T13:14:39Z</time>
      </trkpt>
      <trkpt lat="51.639780001714826" lon="9.374757036566734">
        <ele>137.61000000000001</ele>
        <time>2017-10-30T13:14:40Z</time>
      </trkpt>
      <trkpt lat="51.63976700976491" lon="9.374788971617818">
        <ele>138.09</ele>
        <time>2017-10-30T13:14:41Z</time>
      </trkpt>
      <trkpt lat="51.639752006158233" lon="9.374826019629836">
        <ele>139.05000000000001</ele>
        <time>2017-10-30T13:14:50Z</time>
      </trkpt>
      <trkpt lat="51.63974798284471" lon="9.37483498826623">
        <ele>139.05000000000001</ele>
        <time>2017-10-30T13:14:51Z</time>
      </trkpt>
      <trkpt lat="51.63974798284471" lon="9.37483498826623">
        <ele>139.53</ele>
        <time>2017-10-30T13:14:52Z</time>
      </trkpt>
      <trkpt lat="51.63974798284471" lon="9.37483498826623">
        <ele>140.00999999999999</ele>
        <time>2017-10-30T13:15:09Z</time>
      </trkpt>
      <trkpt lat="51.63974798284471" lon="9.37483498826623">
        <ele>140.00999999999999</ele>
        <time>2017-10-30T13:15:55Z</time>
      </trkpt>
      <trkpt lat="51.63974798284471" lon="9.37483498826623">
        <ele>140.00999999999999</ele>
        <time>2017-10-30T13:16:36Z</time>
      </trkpt>
      <trkpt lat="51.63974798284471" lon="9.37483498826623">
        <ele>140.00999999999999</ele>
        <time>2017-10-30T13:17:29Z</time>
      </trkpt>
      <trkpt lat="51.639700038358569" lon="9.374961974099279">
        <ele>138.56999999999999</ele>
        <time>2017-10-30T13:17:36Z</time>
      </trkpt>
      <trkpt lat="51.639671958982944" lon="9.375057024881244">
        <ele>138.09</ele>
        <time>2017-10-30T13:17:37Z</time>
      </trkpt>
      <trkpt lat="51.639633988961577" lon="9.375185016542673">
        <ele>138.09</ele>
        <time>2017-10-30T13:17:38Z</time>
      </trkpt>
      <trkpt lat="51.639586966484785" lon="9.375341003760696">
        <ele>138.09</ele>
        <time>2017-10-30T13:17:39Z</time>
      </trkpt>
      <trkpt lat="51.63953198119998" lon="9.375524986535311">
        <ele>138.09</ele>
        <time>2017-10-30T13:17:40Z</time>
      </trkpt>
      <trkpt lat="51.639011967927217" lon="9.377269009128213">
        <ele>142.88999999999999</ele>
        <time>2017-10-30T13:17:47Z</time>
      </trkpt>
      <trkpt lat="51.638218034058809" lon="9.379163989797235">
        <ele>146.74000000000001</ele>
        <time>2017-10-30T13:17:53Z</time>
      </trkpt>
      <trkpt lat="51.637311028316617" lon="9.380604000762105">
        <ele>148.18000000000001</ele>
        <time>2017-10-30T13:17:59Z</time>
      </trkpt>
      <trkpt lat="51.636253986507654" lon="9.381880983710289">
        <ele>148.66</ele>
        <time>2017-10-30T13:18:07Z</time>
      </trkpt>
      <trkpt lat="51.635420992970467" lon="9.383097030222416">
        <ele>146.25999999999999</ele>
        <time>2017-10-30T13:18:15Z</time>
      </trkpt>
      <trkpt lat="51.635271962732077" lon="9.383525010198355">
        <ele>145.30000000000001</ele>
        <time>2017-10-30T13:18:20Z</time>
      </trkpt>
      <trkpt lat="51.635271962732077" lon="9.383525010198355">
        <ele>145.30000000000001</ele>
        <time>2017-10-30T13:18:32Z</time>
      </trkpt>
      <trkpt lat="51.635189987719059" lon="9.383929017931223">
        <ele>145.78</ele>
        <time>2017-10-30T13:18:38Z</time>
      </trkpt>
      <trkpt lat="51.634992007166147" lon="9.385409010574222">
        <ele>148.18000000000001</ele>
        <time>2017-10-30T13:18:43Z</time>
      </trkpt>
      <trkpt lat="51.634667040780187" lon="9.388272017240524">
        <ele>149.62</ele>
        <time>2017-10-30T13:18:50Z</time>
      </trkpt>
      <trkpt lat="51.634198995307088" lon="9.392593977972865">
        <ele>151.53999999999999</ele>
        <time>2017-10-30T13:18:59Z</time>
      </trkpt>
      <trkpt lat="51.634143004193902" lon="9.395881025120616">
        <ele>150.58000000000001</ele>
        <time>2017-10-30T13:19:06Z</time>
      </trkpt>
      <trkpt lat="51.634173011407256" lon="9.398676976561546">
        <ele>150.09999999999999</ele>
        <time>2017-10-30T13:19:12Z</time>
      </trkpt>
      <trkpt lat="51.634213998913765" lon="9.399116020649672">
        <ele>149.62</ele>
        <time>2017-10-30T13:19:13Z</time>
      </trkpt>
      <trkpt lat="51.63456997834146" lon="9.402631977573037">
        <ele>147.69999999999999</ele>
        <time>2017-10-30T13:19:21Z</time>
      </trkpt>
      <trkpt lat="51.635072976350784" lon="9.406391009688377">
        <ele>138.09</ele>
        <time>2017-10-30T13:19:30Z</time>
      </trkpt>
      <trkpt lat="51.635173978284001" lon="9.406728968024254">
        <ele>137.13</ele>
        <time>2017-10-30T13:19:31Z</time>
      </trkpt>
      <trkpt lat="51.635299036279321" lon="9.407051000744104">
        <ele>136.16</ele>
        <time>2017-10-30T13:19:32Z</time>
      </trkpt>
      <trkpt lat="51.635425016283989" lon="9.407372027635574">
        <ele>134.72</ele>
        <time>2017-10-30T13:19:33Z</time>
      </trkpt>
      <trkpt lat="51.636726977303624" lon="9.409629022702575">
        <ele>124.63</ele>
        <time>2017-10-30T13:19:41Z</time>
      </trkpt>
      <trkpt lat="51.637600958347321" lon="9.411117983981967">
        <ele>117.42</ele>
        <time>2017-10-30T13:19:48Z</time>
      </trkpt>
      <trkpt lat="51.638112002983689" lon="9.411827009171248">
        <ele>113.09</ele>
        <time>2017-10-30T13:19:54Z</time>
      </trkpt>
      <trkpt lat="51.638202024623752" lon="9.411921976134181">
        <ele>112.61</ele>
        <time>2017-10-30T13:19:55Z</time>
      </trkpt>
      <trkpt lat="51.638297997415066" lon="9.41200696863234">
        <ele>111.65000000000001</ele>
        <time>2017-10-30T13:19:56Z</time>
      </trkpt>
      <trkpt lat="51.638418026268482" lon="9.412042004987598">
        <ele>111.17</ele>
        <time>2017-10-30T13:19:57Z</time>
      </trkpt>
      <trkpt lat="51.638540988788009" lon="9.412078969180584">
        <ele>110.69</ele>
        <time>2017-10-30T13:19:58Z</time>
      </trkpt>
      <trkpt lat="51.638662023469806" lon="9.412115011364222">
        <ele>110.69</ele>
        <time>2017-10-30T13:19:59Z</time>
      </trkpt>
      <trkpt lat="51.639129985123873" lon="9.412276027724147">
        <ele>108.29000000000001</ele>
        <time>2017-10-30T13:20:03Z</time>
      </trkpt>
      <trkpt lat="51.63923098705709" lon="9.412377029657364">
        <ele>107.81</ele>
        <time>2017-10-30T13:20:04Z</time>
      </trkpt>
      <trkpt lat="51.639314973726869" lon="9.412513989955187">
        <ele>107.31999999999999</ele>
        <time>2017-10-30T13:20:05Z</time>
      </trkpt>
      <trkpt lat="51.639397032558918" lon="9.412652039900422">
        <ele>106.36</ele>
        <time>2017-10-30T13:20:06Z</time>
      </trkpt>
      <trkpt lat="51.639479007571936" lon="9.412792017683387">
        <ele>105.88</ele>
        <time>2017-10-30T13:20:07Z</time>
      </trkpt>
      <trkpt lat="51.640074038878083" lon="9.4142160192132">
        <ele>100.59999999999999</ele>
        <time>2017-10-30T13:20:16Z</time>
      </trkpt>
      <trkpt lat="51.641183970496058" lon="9.416694967076182">
        <ele>96.269999999999996</ele>
        <time>2017-10-30T13:20:32Z</time>
      </trkpt>
      <trkpt lat="51.642287028953433" lon="9.418940981850028">
        <ele>97.709999999999994</ele>
        <time>2017-10-30T13:20:47Z</time>
      </trkpt>
      <trkpt lat="51.642686007544398" lon="9.419771963730454">
        <ele>97.709999999999994</ele>
        <time>2017-10-30T13:20:54Z</time>
      </trkpt>
      <trkpt lat="51.64271199144423" lon="9.419828960672021">
        <ele>97.709999999999994</ele>
        <time>2017-10-30T13:20:55Z</time>
      </trkpt>
      <trkpt lat="51.642739987000823" lon="9.41988998092711">
        <ele>97.709999999999994</ele>
        <time>2017-10-30T13:20:56Z</time>
      </trkpt>
      <trkpt lat="51.642845012247562" lon="9.420116040855646">
        <ele>97.709999999999994</ele>
        <time>2017-10-30T13:20:59Z</time>
      </trkpt>
      <trkpt lat="51.643152041360736" lon="9.420776031911373">
        <ele>99.150000000000006</ele>
        <time>2017-10-30T13:21:08Z</time>
      </trkpt>
      <trkpt lat="51.643174001947045" lon="9.420822970569134">
        <ele>98.670000000000002</ele>
        <time>2017-10-30T13:21:10Z</time>
      </trkpt>
      <trkpt lat="51.6431849822402" lon="9.420846020802856">
        <ele>99.150000000000006</ele>
        <time>2017-10-30T13:21:11Z</time>
      </trkpt>
      <trkpt lat="51.643457980826497" lon="9.421434011310339">
        <ele>99.150000000000006</ele>
        <time>2017-10-30T13:21:19Z</time>
      </trkpt>
      <trkpt lat="51.643944969400764" lon="9.422614015638828">
        <ele>100.11</ele>
        <time>2017-10-30T13:21:29Z</time>
      </trkpt>
      <trkpt lat="51.64400196634233" lon="9.422766985371709">
        <ele>100.11</ele>
        <time>2017-10-30T13:21:30Z</time>
      </trkpt>
      <trkpt lat="51.644674027338624" lon="9.424511007964611">
        <ele>101.56</ele>
        <time>2017-10-30T13:21:41Z</time>
      </trkpt>
      <trkpt lat="51.645457986742258" lon="9.426503973081708">
        <ele>102.52</ele>
        <time>2017-10-30T13:21:53Z</time>
      </trkpt>
      <trkpt lat="51.646267008036375" lon="9.428640017285943">
        <ele>101.56</ele>
        <time>2017-10-30T13:22:02Z</time>
      </trkpt>
      <trkpt lat="51.647253977134824" lon="9.431559015065432">
        <ele>99.150000000000006</ele>
        <time>2017-10-30T13:22:12Z</time>
      </trkpt>
      <trkpt lat="51.647316003218293" lon="9.431894961744547">
        <ele>99.150000000000006</ele>
        <time>2017-10-30T13:22:13Z</time>
      </trkpt>
      <trkpt lat="51.647362019866705" lon="9.434384973719716">
        <ele>98.189999999999998</ele>
        <time>2017-10-30T13:22:20Z</time>
      </trkpt>
      <trkpt lat="51.646851981058717" lon="9.436666024848819">
        <ele>98.189999999999998</ele>
        <time>2017-10-30T13:22:27Z</time>
      </trkpt>
      <trkpt lat="51.646224008873105" lon="9.439088981598616">
        <ele>99.629999999999995</ele>
        <time>2017-10-30T13:22:35Z</time>
      </trkpt>
      <trkpt lat="51.645346004515886" lon="9.441347988322377">
        <ele>101.08</ele>
        <time>2017-10-30T13:22:44Z</time>
      </trkpt>
      <trkpt lat="51.644339002668858" lon="9.443200975656509">
        <ele>101.56</ele>
        <time>2017-10-30T13:22:53Z</time>
      </trkpt>
      <trkpt lat="51.643339963629842" lon="9.445271976292133">
        <ele>103</ele>
        <time>2017-10-30T13:23:03Z</time>
      </trkpt>
      <trkpt lat="51.642546029761434" lon="9.447000995278359">
        <ele>104.92</ele>
        <time>2017-10-30T13:23:12Z</time>
      </trkpt>
      <trkpt lat="51.642470005899668" lon="9.447167040780187">
        <ele>104.92</ele>
        <time>2017-10-30T13:23:13Z</time>
      </trkpt>
      <trkpt lat="51.642244029790163" lon="9.447422018274665">
        <ele>104.44</ele>
        <time>2017-10-30T13:23:15Z</time>
      </trkpt>
      <trkpt lat="51.641197968274355" lon="9.448447041213512">
        <ele>102.52</ele>
        <time>2017-10-30T13:23:23Z</time>
      </trkpt>
      <trkpt lat="51.640784991905093" lon="9.448816012591124">
        <ele>103</ele>
        <time>2017-10-30T13:23:27Z</time>
      </trkpt>
      <trkpt lat="51.640726989135146" lon="9.448867980390787">
        <ele>103.48</ele>
        <time>2017-10-30T13:23:28Z</time>
      </trkpt>
      <trkpt lat="51.640689019113779" lon="9.448902010917664">
        <ele>103.48</ele>
        <time>2017-10-30T13:23:29Z</time>
      </trkpt>
      <trkpt lat="51.640695976093411" lon="9.449038971215487">
        <ele>103.95999999999999</ele>
        <time>2017-10-30T13:23:30Z</time>
      </trkpt>
      <trkpt lat="51.640737969428301" lon="9.449100997298956">
        <ele>104.44</ele>
        <time>2017-10-30T13:23:31Z</time>
      </trkpt>
      <trkpt lat="51.640787003561854" lon="9.449171992018819">
        <ele>104.44</ele>
        <time>2017-10-30T13:23:32Z</time>
      </trkpt>
      <trkpt lat="51.640839977189898" lon="9.449248015880585">
        <ele>104.44</ele>
        <time>2017-10-30T13:23:33Z</time>
      </trkpt>
      <trkpt lat="51.64114298298955" lon="9.449594020843506">
        <ele>102.04000000000001</ele>
        <time>2017-10-30T13:23:38Z</time>
      </trkpt>
      <trkpt lat="51.641365019604564" lon="9.449829971417785">
        <ele>100.11</ele>
        <time>2017-10-30T13:23:42Z</time>
      </trkpt>
      <trkpt lat="51.641418999060988" lon="9.449907001107931">
        <ele>100.11</ele>
        <time>2017-10-30T13:23:43Z</time>
      </trkpt>
      <trkpt lat="51.641703983768821" lon="9.450216041877866">
        <ele>98.189999999999998</ele>
        <time>2017-10-30T13:23:49Z</time>
      </trkpt>
      <trkpt lat="51.641961978748441" lon="9.450494991615415">
        <ele>98.189999999999998</ele>
        <time>2017-10-30T13:23:59Z</time>
      </trkpt>
      <trkpt lat="51.641961978748441" lon="9.450494991615415">
        <ele>97.709999999999994</ele>
        <time>2017-10-30T13:24:40Z</time>
      </trkpt>
      <trkpt lat="51.642157025635242" lon="9.450705964118242">
        <ele>98.189999999999998</ele>
        <time>2017-10-30T13:24:56Z</time>
      </trkpt>
      <trkpt lat="51.642637979239225" lon="9.451265959069133">
        <ele>95.310000000000002</ele>
        <time>2017-10-30T13:25:06Z</time>
      </trkpt>
      <trkpt lat="51.64279798977077" lon="9.451452037319541">
        <ele>93.870000000000005</ele>
        <time>2017-10-30T13:25:09Z</time>
      </trkpt>
      <trkpt lat="51.642854986712337" lon="9.451524037867785">
        <ele>93.870000000000005</ele>
        <time>2017-10-30T13:25:10Z</time>
      </trkpt>
      <trkpt lat="51.643337029963732" lon="9.452132983133197">
        <ele>93.870000000000005</ele>
        <time>2017-10-30T13:25:18Z</time>
      </trkpt>
      <trkpt lat="51.643756041303277" lon="9.452688032761216">
        <ele>95.310000000000002</ele>
        <time>2017-10-30T13:25:26Z</time>
      </trkpt>
      <trkpt lat="51.644052006304264" lon="9.453140990808606">
        <ele>95.790000000000006</ele>
        <time>2017-10-30T13:25:30Z</time>
      </trkpt>
      <trkpt lat="51.64412803016603" lon="9.453288009390235">
        <ele>96.269999999999996</ele>
        <time>2017-10-30T13:25:31Z</time>
      </trkpt>
      <trkpt lat="51.644555004313588" lon="9.454636992886663">
        <ele>99.150000000000006</ele>
        <time>2017-10-30T13:25:39Z</time>
      </trkpt>
      <trkpt lat="51.644781986251473" lon="9.455410977825522">
        <ele>99.150000000000006</ele>
        <time>2017-10-30T13:25:44Z</time>
      </trkpt>
      <trkpt lat="51.644849041476846" lon="9.455538969486952">
        <ele>99.150000000000006</ele>
        <time>2017-10-30T13:25:45Z</time>
      </trkpt>
      <trkpt lat="51.644911989569664" lon="9.455652963370085">
        <ele>99.150000000000006</ele>
        <time>2017-10-30T13:25:46Z</time>
      </trkpt>
      <trkpt lat="51.645280038937926" lon="9.456118997186422">
        <ele>99.150000000000006</ele>
        <time>2017-10-30T13:25:51Z</time>
      </trkpt>
      <trkpt lat="51.646240018308163" lon="9.457233035936952">
        <ele>102.52</ele>
        <time>2017-10-30T13:26:02Z</time>
      </trkpt>
      <trkpt lat="51.647205026820302" lon="9.458400970324874">
        <ele>106.36</ele>
        <time>2017-10-30T13:26:12Z</time>
      </trkpt>
      <trkpt lat="51.648332979530096" lon="9.459656998515129">
        <ele>107.31999999999999</ele>
        <time>2017-10-30T13:26:23Z</time>
      </trkpt>
      <trkpt lat="51.649381974712014" lon="9.460999025031924">
        <ele>106.36</ele>
        <time>2017-10-30T13:26:33Z</time>
      </trkpt>
      <trkpt lat="51.650371961295605" lon="9.462804989889264">
        <ele>102.52</ele>
        <time>2017-10-30T13:26:41Z</time>
      </trkpt>
      <trkpt lat="51.652107015252113" lon="9.466522028669715">
        <ele>102.04000000000001</ele>
        <time>2017-10-30T13:26:54Z</time>
      </trkpt>
      <trkpt lat="51.653233040124178" lon="9.469973025843501">
        <ele>103.95999999999999</ele>
        <time>2017-10-30T13:27:04Z</time>
      </trkpt>
      <trkpt lat="51.654122024774551" lon="9.474287023767829">
        <ele>105.88</ele>
        <time>2017-10-30T13:27:15Z</time>
      </trkpt>
      <trkpt lat="51.654729964211583" lon="9.478244036436081">
        <ele>107.81</ele>
        <time>2017-10-30T13:27:25Z</time>
      </trkpt>
      <trkpt lat="51.655074041336775" lon="9.482608996331692">
        <ele>106.84</ele>
        <time>2017-10-30T13:27:36Z</time>
      </trkpt>
      <trkpt lat="51.655333964154124" lon="9.486970016732812">
        <ele>105.40000000000001</ele>
        <time>2017-10-30T13:27:47Z</time>
      </trkpt>
      <trkpt lat="51.655137995257974" lon="9.489448964595795">
        <ele>104.44</ele>
        <time>2017-10-30T13:27:54Z</time>
      </trkpt>
      <trkpt lat="51.654348000884056" lon="9.491652986034751">
        <ele>103</ele>
        <time>2017-10-30T13:28:01Z</time>
      </trkpt>
      <trkpt lat="51.653170008212328" lon="9.493267005309463">
        <ele>103.48</ele>
        <time>2017-10-30T13:28:08Z</time>
      </trkpt>
      <trkpt lat="51.651708958670497" lon="9.494232013821602">
        <ele>104.44</ele>
        <time>2017-10-30T13:28:15Z</time>
      </trkpt>
      <trkpt lat="51.650125030428171" lon="9.494266966357827">
        <ele>104.44</ele>
        <time>2017-10-30T13:28:22Z</time>
      </trkpt>
      <trkpt lat="51.647930983453989" lon="9.493710994720459">
        <ele>104.44</ele>
        <time>2017-10-30T13:28:31Z</time>
      </trkpt>
      <trkpt lat="51.645256988704205" lon="9.492643978446722">
        <ele>104.44</ele>
        <time>2017-10-30T13:28:42Z</time>
      </trkpt>
      <trkpt lat="51.642375960946083" lon="9.491455005481839">
        <ele>103</ele>
        <time>2017-10-30T13:28:54Z</time>
      </trkpt>
      <trkpt lat="51.640121983364224" lon="9.490946978330612">
        <ele>102.04000000000001</ele>
        <time>2017-10-30T13:29:03Z</time>
      </trkpt>
      <trkpt lat="51.638515004888177" lon="9.490374997258186">
        <ele>102.52</ele>
        <time>2017-10-30T13:29:10Z</time>
      </trkpt>
      <trkpt lat="51.636830996721983" lon="9.49033903889358">
        <ele>103.48</ele>
        <time>2017-10-30T13:29:17Z</time>
      </trkpt>
      <trkpt lat="51.634634016081691" lon="9.491163985803723">
        <ele>103.95999999999999</ele>
        <time>2017-10-30T13:29:26Z</time>
      </trkpt>
      <trkpt lat="51.63259101100266" lon="9.492739029228687">
        <ele>106.36</ele>
        <time>2017-10-30T13:29:35Z</time>
      </trkpt>
      <trkpt lat="51.630574995651841" lon="9.495288971811533">
        <ele>112.13</ele>
        <time>2017-10-30T13:29:45Z</time>
      </trkpt>
      <trkpt lat="51.628986038267612" lon="9.497890966013074">
        <ele>115.01000000000001</ele>
        <time>2017-10-30T13:29:54Z</time>
      </trkpt>
      <trkpt lat="51.627524988725781" lon="9.50061097741127">
        <ele>114.05</ele>
        <time>2017-10-30T13:30:03Z</time>
      </trkpt>
      <trkpt lat="51.627277974039316" lon="9.50125596486032">
        <ele>113.09</ele>
        <time>2017-10-30T13:30:05Z</time>
      </trkpt>
      <trkpt lat="51.627170015126467" lon="9.501590989530087">
        <ele>113.09</ele>
        <time>2017-10-30T13:30:06Z</time>
      </trkpt>
      <trkpt lat="51.626552017405629" lon="9.504230031743646">
        <ele>112.13</ele>
        <time>2017-10-30T13:30:13Z</time>
      </trkpt>
      <trkpt lat="51.625968972221017" lon="9.506317963823676">
        <ele>111.17</ele>
        <time>2017-10-30T13:30:19Z</time>
      </trkpt>
      <trkpt lat="51.625116029754281" lon="9.509003022685647">
        <ele>107.81</ele>
        <time>2017-10-30T13:30:26Z</time>
      </trkpt>
      <trkpt lat="51.624748986214399" lon="9.51193300075829">
        <ele>106.84</ele>
        <time>2017-10-30T13:30:33Z</time>
      </trkpt>
      <trkpt lat="51.624629963189363" lon="9.517100024968386">
        <ele>106.36</ele>
        <time>2017-10-30T13:30:45Z</time>
      </trkpt>
      <trkpt lat="51.624246994033456" lon="9.519964037463069">
        <ele>114.05</ele>
        <time>2017-10-30T13:30:52Z</time>
      </trkpt>
      <trkpt lat="51.624138029292226" lon="9.522575000301004">
        <ele>120.78</ele>
        <time>2017-10-30T13:30:59Z</time>
      </trkpt>
      <trkpt lat="51.624479005113244" lon="9.525299035012722">
        <ele>124.63</ele>
        <time>2017-10-30T13:31:07Z</time>
      </trkpt>
      <trkpt lat="51.625030031427741" lon="9.528295984491706">
        <ele>127.03</ele>
        <time>2017-10-30T13:31:16Z</time>
      </trkpt>
      <trkpt lat="51.625261036679149" lon="9.530605031177402">
        <ele>134.24000000000001</ele>
        <time>2017-10-30T13:31:23Z</time>
      </trkpt>
      <trkpt lat="51.625549960881472" lon="9.533748999238014">
        <ele>142.41</ele>
        <time>2017-10-30T13:31:32Z</time>
      </trkpt>
      <trkpt lat="51.626076009124517" lon="9.536157036200166">
        <ele>146.25999999999999</ele>
        <time>2017-10-30T13:31:40Z</time>
      </trkpt>
      <trkpt lat="51.626582024618983" lon="9.537676004692912">
        <ele>144.81999999999999</ele>
        <time>2017-10-30T13:31:46Z</time>
      </trkpt>
      <trkpt lat="51.626695012673736" lon="9.537893012166023">
        <ele>144.34</ele>
        <time>2017-10-30T13:31:47Z</time>
      </trkpt>
      <trkpt lat="51.627602018415928" lon="9.539785981178284">
        <ele>138.56999999999999</ele>
        <time>2017-10-30T13:31:55Z</time>
      </trkpt>
      <trkpt lat="51.628071991726756" lon="9.541205037385225">
        <ele>138.09</ele>
        <time>2017-10-30T13:32:01Z</time>
      </trkpt>
      <trkpt lat="51.628132006153464" lon="9.541464960202575">
        <ele>138.09</ele>
        <time>2017-10-30T13:32:02Z</time>
      </trkpt>
      <trkpt lat="51.62816796451807" lon="9.541738964617252">
        <ele>138.09</ele>
        <time>2017-10-30T13:32:03Z</time>
      </trkpt>
      <trkpt lat="51.62816796451807" lon="9.542022021487355">
        <ele>138.09</ele>
        <time>2017-10-30T13:32:04Z</time>
      </trkpt>
      <trkpt lat="51.62816796451807" lon="9.542313041165471">
        <ele>138.09</ele>
        <time>2017-10-30T13:32:05Z</time>
      </trkpt>
      <trkpt lat="51.62816402502358" lon="9.542615963146091">
        <ele>138.56999999999999</ele>
        <time>2017-10-30T13:32:06Z</time>
      </trkpt>
      <trkpt lat="51.628109039738774" lon="9.542902959510684">
        <ele>138.56999999999999</ele>
        <time>2017-10-30T13:32:07Z</time>
      </trkpt>
      <trkpt lat="51.62803796119988" lon="9.543178975582123">
        <ele>138.56999999999999</ele>
        <time>2017-10-30T13:32:08Z</time>
      </trkpt>
      <trkpt lat="51.627951040863991" lon="9.543447028845549">
        <ele>138.56999999999999</ele>
        <time>2017-10-30T13:32:09Z</time>
      </trkpt>
      <trkpt lat="51.627864958718419" lon="9.54371097497642">
        <ele>138.56999999999999</ele>
        <time>2017-10-30T13:32:10Z</time>
      </trkpt>
      <trkpt lat="51.627776026725769" lon="9.543952038511634">
        <ele>138.56999999999999</ele>
        <time>2017-10-30T13:32:11Z</time>
      </trkpt>
      <trkpt lat="51.627662032842636" lon="9.544168962165713">
        <ele>138.56999999999999</ele>
        <time>2017-10-30T13:32:12Z</time>
      </trkpt>
      <trkpt lat="51.627532029524446" lon="9.544363003224134">
        <ele>138.09</ele>
        <time>2017-10-30T13:32:13Z</time>
      </trkpt>
      <trkpt lat="51.627389034256339" lon="9.544542040675879">
        <ele>138.09</ele>
        <time>2017-10-30T13:32:14Z</time>
      </trkpt>
      <trkpt lat="51.627230029553175" lon="9.544674977660179">
        <ele>138.09</ele>
        <time>2017-10-30T13:32:15Z</time>
      </trkpt>
      <trkpt lat="51.627063984051347" lon="9.544794000685215">
        <ele>137.61000000000001</ele>
        <time>2017-10-30T13:32:16Z</time>
      </trkpt>
      <trkpt lat="51.626901961863041" lon="9.544909000396729">
        <ele>137.13</ele>
        <time>2017-10-30T13:32:17Z</time>
      </trkpt>
      <trkpt lat="51.62670498713851" lon="9.544983012601733">
        <ele>137.13</ele>
        <time>2017-10-30T13:32:18Z</time>
      </trkpt>
      <trkpt lat="51.626515975221992" lon="9.545055013149977">
        <ele>136.63999999999999</ele>
        <time>2017-10-30T13:32:19Z</time>
      </trkpt>
      <trkpt lat="51.625477960333228" lon="9.54544996842742">
        <ele>136.63999999999999</ele>
        <time>2017-10-30T13:32:25Z</time>
      </trkpt>
      <trkpt lat="51.62520001642406" lon="9.545558011159301">
        <ele>136.16</ele>
        <time>2017-10-30T13:32:29Z</time>
      </trkpt>
      <trkpt lat="51.62520001642406" lon="9.545558011159301">
        <ele>136.16</ele>
        <time>2017-10-30T13:32:30Z</time>
      </trkpt>
      <trkpt lat="51.625189958140254" lon="9.5455770380795">
        <ele>135.68000000000001</ele>
        <time>2017-10-30T13:32:36Z</time>
      </trkpt>
      <trkpt lat="51.625363966450095" lon="9.545494979247451">
        <ele>134.72</ele>
        <time>2017-10-30T13:32:49Z</time>
      </trkpt>
      <trkpt lat="51.625878028571606" lon="9.545295992866159">
        <ele>134.72</ele>
        <time>2017-10-30T13:32:54Z</time>
      </trkpt>
      <trkpt lat="51.626975974068046" lon="9.544857032597065">
        <ele>134.72</ele>
        <time>2017-10-30T13:33:01Z</time>
      </trkpt>
      <trkpt lat="51.627259030938148" lon="9.54465402290225">
        <ele>134.72</ele>
        <time>2017-10-30T13:33:03Z</time>
      </trkpt>
      <trkpt lat="51.627400014549494" lon="9.544528964906931">
        <ele>134.72</ele>
        <time>2017-10-30T13:33:04Z</time>
      </trkpt>
      <trkpt lat="51.627531023696065" lon="9.544364009052515">
        <ele>135.19999999999999</ele>
        <time>2017-10-30T13:33:05Z</time>
      </trkpt>
      <trkpt lat="51.627653986215591" lon="9.54418396577239">
        <ele>135.19999999999999</ele>
        <time>2017-10-30T13:33:06Z</time>
      </trkpt>
      <trkpt lat="51.627759011462331" lon="9.543983973562717">
        <ele>135.19999999999999</ele>
        <time>2017-10-30T13:33:07Z</time>
      </trkpt>
      <trkpt lat="51.627847021445632" lon="9.543765038251877">
        <ele>135.68000000000001</ele>
        <time>2017-10-30T13:33:08Z</time>
      </trkpt>
      <trkpt lat="51.627922039479017" lon="9.54353503882885">
        <ele>136.16</ele>
        <time>2017-10-30T13:33:09Z</time>
      </trkpt>
      <trkpt lat="51.627994040027261" lon="9.543315013870597">
        <ele>136.16</ele>
        <time>2017-10-30T13:33:10Z</time>
      </trkpt>
      <trkpt lat="51.62805799394846" lon="9.543118039146066">
        <ele>135.68000000000001</ele>
        <time>2017-10-30T13:33:11Z</time>
      </trkpt>
      <trkpt lat="51.628106022253633" lon="9.542919974774122">
        <ele>135.68000000000001</ele>
        <time>2017-10-30T13:33:12Z</time>
      </trkpt>
      <trkpt lat="51.62810099311173" lon="9.541327999904752">
        <ele>135.19999999999999</ele>
        <time>2017-10-30T13:33:20Z</time>
      </trkpt>
      <trkpt lat="51.628053970634937" lon="9.541124990209937">
        <ele>135.19999999999999</ele>
        <time>2017-10-30T13:33:21Z</time>
      </trkpt>
      <trkpt lat="51.628008037805557" lon="9.540918963029981">
        <ele>134.72</ele>
        <time>2017-10-30T13:33:22Z</time>
      </trkpt>
      <trkpt lat="51.627548038959503" lon="9.53964801505208">
        <ele>133.75999999999999</ele>
        <time>2017-10-30T13:33:29Z</time>
      </trkpt>
      <trkpt lat="51.62735098041594" lon="9.539177035912871">
        <ele>134.24000000000001</ele>
        <time>2017-10-30T13:33:35Z</time>
      </trkpt>
      <trkpt lat="51.627315022051334" lon="9.53909195959568">
        <ele>134.72</ele>
        <time>2017-10-30T13:33:39Z</time>
      </trkpt>
      <trkpt lat="51.627315022051334" lon="9.53909195959568">
        <ele>133.75999999999999</ele>
        <time>2017-10-30T13:33:55Z</time>
      </trkpt>
    </trkseg>
  </trk>

  <trk>
    <name>Track vom: 2017-10-30 14:34</name>
    <extensions>
      <gpxx:TrackExtension>
        <gpxx:DisplayColor>DarkGray</gpxx:DisplayColor>
      </gpxx:TrackExtension>
    </extensions>
    <trkseg>
      <trkpt lat="51.627315022051334" lon="9.53909195959568">
        <ele>133.75999999999999</ele>
        <time>2017-10-30T13:34:09Z</time>
      </trkpt>
      <trkpt lat="51.627315022051334" lon="9.53909195959568">
        <ele>133.75999999999999</ele>
        <time>2017-10-30T13:34:27Z</time>
      </trkpt>
      <trkpt lat="51.627299012616277" lon="9.53900302760303">
        <ele>134.24000000000001</ele>
        <time>2017-10-30T13:34:28Z</time>
      </trkpt>
      <trkpt lat="51.627289038151503" lon="9.539026999846101">
        <ele>134.72</ele>
        <time>2017-10-30T13:34:29Z</time>
      </trkpt>
      <trkpt lat="51.627291971817613" lon="9.539038985967636">
        <ele>134.72</ele>
        <time>2017-10-30T13:34:30Z</time>
      </trkpt>
      <trkpt lat="51.627312004566193" lon="9.539086008444428">
        <ele>134.72</ele>
        <time>2017-10-30T13:34:31Z</time>
      </trkpt>
      <trkpt lat="51.627342011779547" lon="9.539157003164291">
        <ele>134.72</ele>
        <time>2017-10-30T13:34:32Z</time>
      </trkpt>
      <trkpt lat="51.627380987629294" lon="9.539247024804354">
        <ele>134.24000000000001</ele>
        <time>2017-10-30T13:34:33Z</time>
      </trkpt>
      <trkpt lat="51.627794969826937" lon="9.540277998894453">
        <ele>135.68000000000001</ele>
        <time>2017-10-30T13:34:40Z</time>
      </trkpt>
      <trkpt lat="51.628108033910394" lon="9.541361024603248">
        <ele>136.63999999999999</ele>
        <time>2017-10-30T13:34:45Z</time>
      </trkpt>
      <trkpt lat="51.628156984224916" lon="9.541575014591217">
        <ele>136.63999999999999</ele>
        <time>2017-10-30T13:34:46Z</time>
      </trkpt>
      <trkpt lat="51.62816796451807" lon="9.541757991537452">
        <ele>137.13</ele>
        <time>2017-10-30T13:34:47Z</time>
      </trkpt>
      <trkpt lat="51.62816796451807" lon="9.541867040097714">
        <ele>137.13</ele>
        <time>2017-10-30T13:34:48Z</time>
      </trkpt>
      <trkpt lat="51.62816796451807" lon="9.541929988190532">
        <ele>137.13</ele>
        <time>2017-10-30T13:34:49Z</time>
      </trkpt>
      <trkpt lat="51.62816796451807" lon="9.541929988190532">
        <ele>137.13</ele>
        <time>2017-10-30T13:34:58Z</time>
      </trkpt>
      <trkpt lat="51.62816796451807" lon="9.541959995403886">
        <ele>137.61000000000001</ele>
        <time>2017-10-30T13:35:04Z</time>
      </trkpt>
      <trkpt lat="51.628233008086681" lon="9.541657995432615">
        <ele>137.61000000000001</ele>
        <time>2017-10-30T13:35:05Z</time>
      </trkpt>
      <trkpt lat="51.628243988379836" lon="9.541664030402899">
        <ele>137.61000000000001</ele>
        <time>2017-10-30T13:35:06Z</time>
      </trkpt>
      <trkpt lat="51.62816796451807" lon="9.541919007897377">
        <ele>137.61000000000001</ele>
        <time>2017-10-30T13:35:07Z</time>
      </trkpt>
      <trkpt lat="51.62816796451807" lon="9.541878020390868">
        <ele>137.61000000000001</ele>
        <time>2017-10-30T13:35:08Z</time>
      </trkpt>
      <trkpt lat="51.62816796451807" lon="9.541832003742456">
        <ele>137.61000000000001</ele>
        <time>2017-10-30T13:35:09Z</time>
      </trkpt>
      <trkpt lat="51.62816796451807" lon="9.541783975437284">
        <ele>137.61000000000001</ele>
        <time>2017-10-30T13:35:10Z</time>
      </trkpt>
      <trkpt lat="51.62816796451807" lon="9.541735025122762">
        <ele>137.61000000000001</ele>
        <time>2017-10-30T13:35:11Z</time>
      </trkpt>
      <trkpt lat="51.628216998651624" lon="9.541650032624602">
        <ele>137.61000000000001</ele>
        <time>2017-10-30T13:35:12Z</time>
      </trkpt>
      <trkpt lat="51.628234013915062" lon="9.541659001260996">
        <ele>137.61000000000001</ele>
        <time>2017-10-30T13:35:13Z</time>
      </trkpt>
      <trkpt lat="51.628258991986513" lon="9.541670987382531">
        <ele>137.13</ele>
        <time>2017-10-30T13:35:14Z</time>
      </trkpt>
      <trkpt lat="51.62829696200788" lon="9.541690014302731">
        <ele>137.13</ele>
        <time>2017-10-30T13:35:15Z</time>
      </trkpt>
      <trkpt lat="51.62833602167666" lon="9.541744999587536">
        <ele>137.13</ele>
        <time>2017-10-30T13:35:16Z</time>
      </trkpt>
      <trkpt lat="51.628391006961465" lon="9.541822029277682">
        <ele>137.13</ele>
        <time>2017-10-30T13:35:17Z</time>
      </trkpt>
      <trkpt lat="51.628443980589509" lon="9.541934011504054">
        <ele>136.63999999999999</ele>
        <time>2017-10-30T13:35:18Z</time>
      </trkpt>
      <trkpt lat="51.628499971702695" lon="9.542064014822245">
        <ele>136.16</ele>
        <time>2017-10-30T13:35:19Z</time>
      </trkpt>
      <trkpt lat="51.628560991957784" lon="9.542210027575493">
        <ele>135.68000000000001</ele>
        <time>2017-10-30T13:35:20Z</time>
      </trkpt>
      <trkpt lat="51.628856034949422" lon="9.542900025844574">
        <ele>134.72</ele>
        <time>2017-10-30T13:35:24Z</time>
      </trkpt>
      <trkpt lat="51.628962988033891" lon="9.54308501444757">
        <ele>134.72</ele>
        <time>2017-10-30T13:35:25Z</time>
      </trkpt>
      <trkpt lat="51.629084022715688" lon="9.543243013322353">
        <ele>133.75999999999999</ele>
        <time>2017-10-30T13:35:26Z</time>
      </trkpt>
      <trkpt lat="51.62949800491333" lon="9.543834021314979">
        <ele>132.31999999999999</ele>
        <time>2017-10-30T13:35:30Z</time>
      </trkpt>
      <trkpt lat="51.629553996026516" lon="9.543996965512633">
        <ele>131.84</ele>
        <time>2017-10-30T13:35:31Z</time>
      </trkpt>
      <trkpt lat="51.629596995189786" lon="9.544173991307616">
        <ele>131.36000000000001</ele>
        <time>2017-10-30T13:35:32Z</time>
      </trkpt>
      <trkpt lat="51.629643011838198" lon="9.544365014880896">
        <ele>130.40000000000001</ele>
        <time>2017-10-30T13:35:33Z</time>
      </trkpt>
      <trkpt lat="51.629691962152719" lon="9.544566012918949">
        <ele>129.91999999999999</ele>
        <time>2017-10-30T13:35:34Z</time>
      </trkpt>
      <trkpt lat="51.629715012386441" lon="9.544775979593396">
        <ele>128.94999999999999</ele>
        <time>2017-10-30T13:35:35Z</time>
      </trkpt>
      <trkpt lat="51.629760023206472" lon="9.545528003945947">
        <ele>125.11</ele>
        <time>2017-10-30T13:35:39Z</time>
      </trkpt>
      <trkpt lat="51.629748037084937" lon="9.54566203057766">
        <ele>124.15000000000001</ele>
        <time>2017-10-30T13:35:40Z</time>
      </trkpt>
      <trkpt lat="51.629736972972751" lon="9.545782981440425">
        <ele>123.19</ele>
        <time>2017-10-30T13:35:41Z</time>
      </trkpt>
      <trkpt lat="51.629687016829848" lon="9.545890018343926">
        <ele>122.22</ele>
        <time>2017-10-30T13:35:42Z</time>
      </trkpt>
      <trkpt lat="51.62962700240314" lon="9.545990014448762">
        <ele>120.78</ele>
        <time>2017-10-30T13:35:43Z</time>
      </trkpt>
      <trkpt lat="51.629545027390122" lon="9.546074001118541">
        <ele>119.81999999999999</ele>
        <time>2017-10-30T13:35:44Z</time>
      </trkpt>
      <trkpt lat="51.629452994093299" lon="9.546147007495165">
        <ele>118.86</ele>
        <time>2017-10-30T13:35:45Z</time>
      </trkpt>
      <trkpt lat="51.629358027130365" lon="9.546223031356931">
        <ele>117.90000000000001</ele>
        <time>2017-10-30T13:35:46Z</time>
      </trkpt>
      <trkpt lat="51.629181001335382" lon="9.546425035223365">
        <ele>115.98</ele>
        <time>2017-10-30T13:35:48Z</time>
      </trkpt>
      <trkpt lat="51.628898028284311" lon="9.546818984672427">
        <ele>112.61</ele>
        <time>2017-10-30T13:35:51Z</time>
      </trkpt>
      <trkpt lat="51.628837008029222" lon="9.546967009082437">
        <ele>111.17</ele>
        <time>2017-10-30T13:35:52Z</time>
      </trkpt>
      <trkpt lat="51.628762995824218" lon="9.547149986028671">
        <ele>110.20999999999999</ele>
        <time>2017-10-30T13:35:53Z</time>
      </trkpt>
      <trkpt lat="51.628409028053284" lon="9.547950960695744">
        <ele>105.40000000000001</ele>
        <time>2017-10-30T13:35:57Z</time>
      </trkpt>
      <trkpt lat="51.628284975886345" lon="9.548120023682714">
        <ele>104.44</ele>
        <time>2017-10-30T13:35:58Z</time>
      </trkpt>
      <trkpt lat="51.627084016799927" lon="9.549705963581801">
        <ele>101.08</ele>
        <time>2017-10-30T13:36:07Z</time>
      </trkpt>
      <trkpt lat="51.62653299048543" lon="9.550342988222837">
        <ele>101.56</ele>
        <time>2017-10-30T13:36:13Z</time>
      </trkpt>
      <trkpt lat="51.62646995857358" lon="9.550396967679262">
        <ele>101.56</ele>
        <time>2017-10-30T13:36:14Z</time>
      </trkpt>
      <trkpt lat="51.626412961632013" lon="9.550447007641196">
        <ele>101.56</ele>
        <time>2017-10-30T13:36:15Z</time>
      </trkpt>
      <trkpt lat="51.626366022974253" lon="9.550487995147705">
        <ele>101.56</ele>
        <time>2017-10-30T13:36:16Z</time>
      </trkpt>
      <trkpt lat="51.626309026032686" lon="9.550502998754382">
        <ele>101.56</ele>
        <time>2017-10-30T13:36:17Z</time>
      </trkpt>
      <trkpt lat="51.626258986070752" lon="9.550516996532679">
        <ele>101.56</ele>
        <time>2017-10-30T13:36:18Z</time>
      </trkpt>
      <trkpt lat="51.626217998564243" lon="9.550527976825833">
        <ele>101.56</ele>
        <time>2017-10-30T13:36:19Z</time>
      </trkpt>
      <trkpt lat="51.626176005229354" lon="9.550539962947369">
        <ele>101.56</ele>
        <time>2017-10-30T13:36:20Z</time>
      </trkpt>
      <trkpt lat="51.626129988580942" lon="9.550552032887936">
        <ele>101.56</ele>
        <time>2017-10-30T13:36:21Z</time>
      </trkpt>
      <trkpt lat="51.626096963882446" lon="9.550550021231175">
        <ele>101.56</ele>
        <time>2017-10-30T13:36:22Z</time>
      </trkpt>
      <trkpt lat="51.625894038006663" lon="9.550530994310975">
        <ele>100.11</ele>
        <time>2017-10-30T13:36:32Z</time>
      </trkpt>
      <trkpt lat="51.625894038006663" lon="9.550530994310975">
        <ele>100.59999999999999</ele>
        <time>2017-10-30T13:37:18Z</time>
      </trkpt>
      <trkpt lat="51.625894038006663" lon="9.550530994310975">
        <ele>101.08</ele>
        <time>2017-10-30T13:38:13Z</time>
      </trkpt>
      <trkpt lat="51.625894038006663" lon="9.550530994310975">
        <ele>100.59999999999999</ele>
        <time>2017-10-30T13:39:17Z</time>
      </trkpt>
      <trkpt lat="51.625894038006663" lon="9.550530994310975">
        <ele>100.59999999999999</ele>
        <time>2017-10-30T13:40:17Z</time>
      </trkpt>
      <trkpt lat="51.625894038006663" lon="9.550530994310975">
        <ele>100.11</ele>
        <time>2017-10-30T13:40:40Z</time>
      </trkpt>
      <trkpt lat="51.625827988609672" lon="9.550625961273909">
        <ele>99.150000000000006</ele>
        <time>2017-10-30T13:40:57Z</time>
      </trkpt>
      <trkpt lat="51.625811979174614" lon="9.55064800567925">
        <ele>99.150000000000006</ele>
        <time>2017-10-30T13:40:58Z</time>
      </trkpt>
      <trkpt lat="51.625793036073446" lon="9.550677007064223">
        <ele>98.670000000000002</ele>
        <time>2017-10-30T13:40:59Z</time>
      </trkpt>
      <trkpt lat="51.625701002776623" lon="9.550810027867556">
        <ele>98.670000000000002</ele>
        <time>2017-10-30T13:41:11Z</time>
      </trkpt>
      <trkpt lat="51.625701002776623" lon="9.550810027867556">
        <ele>98.670000000000002</ele>
        <time>2017-10-30T13:41:53Z</time>
      </trkpt>
      <trkpt lat="51.625701002776623" lon="9.550810027867556">
        <ele>98.189999999999998</ele>
        <time>2017-10-30T13:42:38Z</time>
      </trkpt>
      <trkpt lat="51.625701002776623" lon="9.550810027867556">
        <ele>98.189999999999998</ele>
        <time>2017-10-30T13:43:25Z</time>
      </trkpt>
      <trkpt lat="51.625701002776623" lon="9.550810027867556">
        <ele>97.709999999999994</ele>
        <time>2017-10-30T13:44:07Z</time>
      </trkpt>
      <trkpt lat="51.625701002776623" lon="9.550810027867556">
        <ele>97.709999999999994</ele>
        <time>2017-10-30T13:44:54Z</time>
      </trkpt>
      <trkpt lat="51.625358015298843" lon="9.551820969209075">
        <ele>98.670000000000002</ele>
        <time>2017-10-30T13:45:23Z</time>
      </trkpt>
      <trkpt lat="51.625230023637414" lon="9.552102014422417">
        <ele>100.59999999999999</ele>
        <time>2017-10-30T13:45:28Z</time>
      </trkpt>
      <trkpt lat="51.625195993110538" lon="9.552177032455802">
        <ele>100.59999999999999</ele>
        <time>2017-10-30T13:45:29Z</time>
      </trkpt>
      <trkpt lat="51.625149976462126" lon="9.552251966670156">
        <ele>101.08</ele>
        <time>2017-10-30T13:45:30Z</time>
      </trkpt>
      <trkpt lat="51.625076970085502" lon="9.552255989983678">
        <ele>101.08</ele>
        <time>2017-10-30T13:45:31Z</time>
      </trkpt>
      <trkpt lat="51.625012010335922" lon="9.552218019962311">
        <ele>101.08</ele>
        <time>2017-10-30T13:45:32Z</time>
      </trkpt>
      <trkpt lat="51.624939003959298" lon="9.552175020799041">
        <ele>101.08</ele>
        <time>2017-10-30T13:45:33Z</time>
      </trkpt>
      <trkpt lat="51.624863985925913" lon="9.552132021635771">
        <ele>101.08</ele>
        <time>2017-10-30T13:45:34Z</time>
      </trkpt>
      <trkpt lat="51.624714033678174" lon="9.55206697806716">
        <ele>101.08</ele>
        <time>2017-10-30T13:45:36Z</time>
      </trkpt>
      <trkpt lat="51.62464396096766" lon="9.552080975845456">
        <ele>101.08</ele>
        <time>2017-10-30T13:45:37Z</time>
      </trkpt>
      <trkpt lat="51.624579001218081" lon="9.552093967795372">
        <ele>101.08</ele>
        <time>2017-10-30T13:45:38Z</time>
      </trkpt>
      <trkpt lat="51.624539019539952" lon="9.552134033292532">
        <ele>101.08</ele>
        <time>2017-10-30T13:45:39Z</time>
      </trkpt>
      <trkpt lat="51.624490991234779" lon="9.552206033840776">
        <ele>101.08</ele>
        <time>2017-10-30T13:45:40Z</time>
      </trkpt>
      <trkpt lat="51.624441035091877" lon="9.552280968055129">
        <ele>101.08</ele>
        <time>2017-10-30T13:45:41Z</time>
      </trkpt>
      <trkpt lat="51.624392000958323" lon="9.552354980260134">
        <ele>101.08</ele>
        <time>2017-10-30T13:45:42Z</time>
      </trkpt>
      <trkpt lat="51.624354030936956" lon="9.55245103687048">
        <ele>101.08</ele>
        <time>2017-10-30T13:45:43Z</time>
      </trkpt>
      <trkpt lat="51.624312959611416" lon="9.552554972469807">
        <ele>101.08</ele>
        <time>2017-10-30T13:45:44Z</time>
      </trkpt>
      <trkpt lat="51.624270966276526" lon="9.552662009373307">
        <ele>101.56</ele>
        <time>2017-10-30T13:45:45Z</time>
      </trkpt>
      <trkpt lat="51.623786995187402" lon="9.55393698066473">
        <ele>103.48</ele>
        <time>2017-10-30T13:45:56Z</time>
      </trkpt>
      <trkpt lat="51.623602006584406" lon="9.554523965343833">
        <ele>106.84</ele>
        <time>2017-10-30T13:46:02Z</time>
      </trkpt>
      <trkpt lat="51.623584991320968" lon="9.554585991427302">
        <ele>107.31999999999999</ele>
        <time>2017-10-30T13:46:03Z</time>
      </trkpt>
      <trkpt lat="51.623510979115963" lon="9.554669978097081">
        <ele>107.31999999999999</ele>
        <time>2017-10-30T13:46:04Z</time>
      </trkpt>
      <trkpt lat="51.623462028801441" lon="9.554643994197249">
        <ele>107.31999999999999</ele>
        <time>2017-10-30T13:46:05Z</time>
      </trkpt>
      <trkpt lat="51.623404026031494" lon="9.554612981155515">
        <ele>107.81</ele>
        <time>2017-10-30T13:46:06Z</time>
      </trkpt>
      <trkpt lat="51.623339988291264" lon="9.554578028619289">
        <ele>108.29000000000001</ele>
        <time>2017-10-30T13:46:07Z</time>
      </trkpt>
      <trkpt lat="51.623276034370065" lon="9.554543998092413">
        <ele>108.29000000000001</ele>
        <time>2017-10-30T13:46:08Z</time>
      </trkpt>
      <trkpt lat="51.62318198941648" lon="9.554575011134148">
        <ele>108.77</ele>
        <time>2017-10-30T13:46:09Z</time>
      </trkpt>
      <trkpt lat="51.622983003035188" lon="9.554565958678722">
        <ele>109.73</ele>
        <time>2017-10-30T13:46:11Z</time>
      </trkpt>
      <trkpt lat="51.622911002486944" lon="9.554436039179564">
        <ele>109.73</ele>
        <time>2017-10-30T13:46:12Z</time>
      </trkpt>
      <trkpt lat="51.622826009988785" lon="9.554395973682404">
        <ele>109.25</ele>
        <time>2017-10-30T13:46:13Z</time>
      </trkpt>
      <trkpt lat="51.622716039419174" lon="9.55434400588274">
        <ele>108.77</ele>
        <time>2017-10-30T13:46:14Z</time>
      </trkpt>
      <trkpt lat="51.622601039707661" lon="9.554289020597935">
        <ele>108.77</ele>
        <time>2017-10-30T13:46:15Z</time>
      </trkpt>
      <trkpt lat="51.621304024010897" lon="9.55391300842166">
        <ele>110.20999999999999</ele>
        <time>2017-10-30T13:46:25Z</time>
      </trkpt>
      <trkpt lat="51.620377991348505" lon="9.553715027868748">
        <ele>114.53</ele>
        <time>2017-10-30T13:46:33Z</time>
      </trkpt>
      <trkpt lat="51.619152976199985" lon="9.553000973537564">
        <ele>117.42</ele>
        <time>2017-10-30T13:46:41Z</time>
      </trkpt>
      <trkpt lat="51.617351034656167" lon="9.55191601999104">
        <ele>120.78</ele>
        <time>2017-10-30T13:46:50Z</time>
      </trkpt>
      <trkpt lat="51.615754030644894" lon="9.55077800899744">
        <ele>125.11</ele>
        <time>2017-10-30T13:46:58Z</time>
      </trkpt>
      <trkpt lat="51.61512496881187" lon="9.550492018461227">
        <ele>125.59</ele>
        <time>2017-10-30T13:47:02Z</time>
      </trkpt>
      <trkpt lat="51.614965964108706" lon="9.550481038168073">
        <ele>125.11</ele>
        <time>2017-10-30T13:47:03Z</time>
      </trkpt>
      <trkpt lat="51.614800002425909" lon="9.550467962399125">
        <ele>124.15000000000001</ele>
        <time>2017-10-30T13:47:04Z</time>
      </trkpt>
      <trkpt lat="51.613209033384919" lon="9.550384981557727">
        <ele>125.11</ele>
        <time>2017-10-30T13:47:12Z</time>
      </trkpt>
      <trkpt lat="51.611370965838432" lon="9.55021901987493">
        <ele>129.91999999999999</ele>
        <time>2017-10-30T13:47:21Z</time>
      </trkpt>
      <trkpt lat="51.608372004702687" lon="9.549820041283965">
        <ele>127.03</ele>
        <time>2017-10-30T13:47:35Z</time>
      </trkpt>
      <trkpt lat="51.605810998007655" lon="9.549633963033557">
        <ele>119.81999999999999</ele>
        <time>2017-10-30T13:47:47Z</time>
      </trkpt>
      <trkpt lat="51.604499984532595" lon="9.549547964707017">
        <ele>114.05</ele>
        <time>2017-10-30T13:47:54Z</time>
      </trkpt>
      <trkpt lat="51.604327987879515" lon="9.549489039927721">
        <ele>113.56999999999999</ele>
        <time>2017-10-30T13:47:55Z</time>
      </trkpt>
      <trkpt lat="51.603418970480561" lon="9.549225009977818">
        <ele>108.29000000000001</ele>
        <time>2017-10-30T13:48:01Z</time>
      </trkpt>
      <trkpt lat="51.60328796133399" lon="9.549268009141088">
        <ele>107.31999999999999</ele>
        <time>2017-10-30T13:48:02Z</time>
      </trkpt>
      <trkpt lat="51.603161981329322" lon="9.549310002475977">
        <ele>106.84</ele>
        <time>2017-10-30T13:48:03Z</time>
      </trkpt>
      <trkpt lat="51.603041030466557" lon="9.549350989982486">
        <ele>106.36</ele>
        <time>2017-10-30T13:48:04Z</time>
      </trkpt>
      <trkpt lat="51.602938016876578" lon="9.549455009400845">
        <ele>106.36</ele>
        <time>2017-10-30T13:48:05Z</time>
      </trkpt>
      <trkpt lat="51.602804996073246" lon="9.549587024375796">
        <ele>105.88</ele>
        <time>2017-10-30T13:48:06Z</time>
      </trkpt>
      <trkpt lat="51.602741964161396" lon="9.549735970795155">
        <ele>105.40000000000001</ele>
        <time>2017-10-30T13:48:07Z</time>
      </trkpt>
      <trkpt lat="51.602660994976759" lon="9.549926994368434">
        <ele>104.92</ele>
        <time>2017-10-30T13:48:08Z</time>
      </trkpt>
      <trkpt lat="51.602568961679935" lon="9.550145007669926">
        <ele>104.92</ele>
        <time>2017-10-30T13:48:09Z</time>
      </trkpt>
      <trkpt lat="51.602505007758737" lon="9.550337959080935">
        <ele>104.44</ele>
        <time>2017-10-30T13:48:10Z</time>
      </trkpt>
      <trkpt lat="51.6018679831177" lon="9.552524965256453">
        <ele>104.92</ele>
        <time>2017-10-30T13:48:20Z</time>
      </trkpt>
      <trkpt lat="51.601522983983159" lon="9.554610969498754">
        <ele>106.36</ele>
        <time>2017-10-30T13:48:27Z</time>
      </trkpt>
      <trkpt lat="51.601026020944118" lon="9.557956019416452">
        <ele>107.81</ele>
        <time>2017-10-30T13:48:37Z</time>
      </trkpt>
      <trkpt lat="51.600860981270671" lon="9.559369962662458">
        <ele>107.81</ele>
        <time>2017-10-30T13:48:41Z</time>
      </trkpt>
      <trkpt lat="51.600831979885697" lon="9.56158303655684">
        <ele>108.29000000000001</ele>
        <time>2017-10-30T13:48:46Z</time>
      </trkpt>
      <trkpt lat="51.600812030956149" lon="9.563638027757406">
        <ele>108.29000000000001</ele>
        <time>2017-10-30T13:48:52Z</time>
      </trkpt>
      <trkpt lat="51.600733995437622" lon="9.565874990075827">
        <ele>107.31999999999999</ele>
        <time>2017-10-30T13:48:59Z</time>
      </trkpt>
      <trkpt lat="51.600629976019263" lon="9.568549990653992">
        <ele>106.36</ele>
        <time>2017-10-30T13:49:05Z</time>
      </trkpt>
      <trkpt lat="51.600408023223281" lon="9.57275602966547">
        <ele>109.25</ele>
        <time>2017-10-30T13:49:15Z</time>
      </trkpt>
      <trkpt lat="51.600013989955187" lon="9.57634499296546">
        <ele>112.13</ele>
        <time>2017-10-30T13:49:24Z</time>
      </trkpt>
      <trkpt lat="51.599342012777925" lon="9.579126024618745">
        <ele>111.65000000000001</ele>
        <time>2017-10-30T13:49:31Z</time>
      </trkpt>
      <trkpt lat="51.598825016990304" lon="9.580651028081775">
        <ele>111.17</ele>
        <time>2017-10-30T13:49:36Z</time>
      </trkpt>
      <trkpt lat="51.598085984587669" lon="9.582461016252637">
        <ele>111.65000000000001</ele>
        <time>2017-10-30T13:49:43Z</time>
      </trkpt>
      <trkpt lat="51.597207980230451" lon="9.584624972194433">
        <ele>108.29000000000001</ele>
        <time>2017-10-30T13:49:49Z</time>
      </trkpt>
      <trkpt lat="51.596550000831485" lon="9.586577033624053">
        <ele>108.29000000000001</ele>
        <time>2017-10-30T13:49:55Z</time>
      </trkpt>
      <trkpt lat="51.59615102224052" lon="9.588113017380238">
        <ele>108.77</ele>
        <time>2017-10-30T13:50:00Z</time>
      </trkpt>
      <trkpt lat="51.596036022529006" lon="9.5883550029248">
        <ele>108.77</ele>
        <time>2017-10-30T13:50:01Z</time>
      </trkpt>
      <trkpt lat="51.59589696675539" lon="9.588563963770866">
        <ele>108.77</ele>
        <time>2017-10-30T13:50:02Z</time>
      </trkpt>
      <trkpt lat="51.595748020336032" lon="9.588755993172526">
        <ele>108.77</ele>
        <time>2017-10-30T13:50:03Z</time>
      </trkpt>
      <trkpt lat="51.595597984269261" lon="9.588951962068677">
        <ele>108.29000000000001</ele>
        <time>2017-10-30T13:50:04Z</time>
      </trkpt>
      <trkpt lat="51.59542297013104" lon="9.589092023670673">
        <ele>108.29000000000001</ele>
        <time>2017-10-30T13:50:05Z</time>
      </trkpt>
      <trkpt lat="51.595243010669947" lon="9.589223032817245">
        <ele>108.29000000000001</ele>
        <time>2017-10-30T13:50:06Z</time>
      </trkpt>
      <trkpt lat="51.593891009688377" lon="9.590202961117029">
        <ele>107.81</ele>
        <time>2017-10-30T13:50:14Z</time>
      </trkpt>
      <trkpt lat="51.593300001695752" lon="9.590679975226522">
        <ele>108.29000000000001</ele>
        <time>2017-10-30T13:50:19Z</time>
      </trkpt>
      <trkpt lat="51.593212997540832" lon="9.590807966887951">
        <ele>108.29000000000001</ele>
        <time>2017-10-30T13:50:20Z</time>
      </trkpt>
      <trkpt lat="51.593128005042672" lon="9.590950962156057">
        <ele>108.77</ele>
        <time>2017-10-30T13:50:21Z</time>
      </trkpt>
      <trkpt lat="51.593039995059371" lon="9.591095969080925">
        <ele>108.77</ele>
        <time>2017-10-30T13:50:22Z</time>
      </trkpt>
      <trkpt lat="51.592962965369225" lon="9.591249022632837">
        <ele>109.25</ele>
        <time>2017-10-30T13:50:23Z</time>
      </trkpt>
      <trkpt lat="51.592574967071414" lon="9.592056032270193">
        <ele>109.73</ele>
        <time>2017-10-30T13:50:28Z</time>
      </trkpt>
      <trkpt lat="51.592498021200299" lon="9.592215958982706">
        <ele>110.20999999999999</ele>
        <time>2017-10-30T13:50:29Z</time>
      </trkpt>
      <trkpt lat="51.591860996559262" lon="9.593538036569953">
        <ele>110.69</ele>
        <time>2017-10-30T13:50:38Z</time>
      </trkpt>
      <trkpt lat="51.591597972437739" lon="9.593946989625692">
        <ele>111.17</ele>
        <time>2017-10-30T13:50:41Z</time>
      </trkpt>
      <trkpt lat="51.590764978900552" lon="9.595016017556191">
        <ele>111.17</ele>
        <time>2017-10-30T13:50:50Z</time>
      </trkpt>
      <trkpt lat="51.59067302942276" lon="9.595138980075717">
        <ele>110.69</ele>
        <time>2017-10-30T13:50:51Z</time>
      </trkpt>
      <trkpt lat="51.59037496894598" lon="9.595446009188891">
        <ele>109.73</ele>
        <time>2017-10-30T13:50:54Z</time>
      </trkpt>
      <trkpt lat="51.590264998376369" lon="9.595519015565515">
        <ele>109.73</ele>
        <time>2017-10-30T13:50:55Z</time>
      </trkpt>
      <trkpt lat="51.590140024200082" lon="9.595544999465346">
        <ele>109.25</ele>
        <time>2017-10-30T13:50:56Z</time>
      </trkpt>
      <trkpt lat="51.590014966204762" lon="9.595564026385546">
        <ele>109.73</ele>
        <time>2017-10-30T13:50:57Z</time>
      </trkpt>
      <trkpt lat="51.589889992028475" lon="9.595542987808585">
        <ele>109.73</ele>
        <time>2017-10-30T13:50:58Z</time>
      </trkpt>
      <trkpt lat="51.589769041165709" lon="9.595503006130457">
        <ele>110.20999999999999</ele>
        <time>2017-10-30T13:50:59Z</time>
      </trkpt>
      <trkpt lat="51.589648006483912" lon="9.595462018623948">
        <ele>110.20999999999999</ele>
        <time>2017-10-30T13:51:00Z</time>
      </trkpt>
      <trkpt lat="51.589526971802115" lon="9.59542203694582">
        <ele>110.20999999999999</ele>
        <time>2017-10-30T13:51:01Z</time>
      </trkpt>
      <trkpt lat="51.589408032596111" lon="9.59538197144866">
        <ele>110.20999999999999</ele>
        <time>2017-10-30T13:51:02Z</time>
      </trkpt>
      <trkpt lat="51.589289009571075" lon="9.595342995598912">
        <ele>110.69</ele>
        <time>2017-10-30T13:51:03Z</time>
      </trkpt>
      <trkpt lat="51.589182978495955" lon="9.595267977565527">
        <ele>110.69</ele>
        <time>2017-10-30T13:51:04Z</time>
      </trkpt>
      <trkpt lat="51.589082982391119" lon="9.59518700838089">
        <ele>110.20999999999999</ele>
        <time>2017-10-30T13:51:05Z</time>
      </trkpt>
      <trkpt lat="51.588981980457902" lon="9.595105033367872">
        <ele>110.20999999999999</ele>
        <time>2017-10-30T13:51:06Z</time>
      </trkpt>
      <trkpt lat="51.588774025440216" lon="9.594949968159199">
        <ele>110.20999999999999</ele>
        <time>2017-10-30T13:51:08Z</time>
      </trkpt>
      <trkpt lat="51.588661959394813" lon="9.594892971217632">
        <ele>110.20999999999999</ele>
        <time>2017-10-30T13:51:09Z</time>
      </trkpt>
      <trkpt lat="51.58854796551168" lon="9.594838991761208">
        <ele>109.73</ele>
        <time>2017-10-30T13:51:10Z</time>
      </trkpt>
      <trkpt lat="51.587957041338086" lon="9.594660960137844">
        <ele>110.20999999999999</ele>
        <time>2017-10-30T13:51:15Z</time>
      </trkpt>
      <trkpt lat="51.58704400062561" lon="9.594318978488445">
        <ele>108.29000000000001</ele>
        <time>2017-10-30T13:51:23Z</time>
      </trkpt>
      <trkpt lat="51.586925983428955" lon="9.594300035387278">
        <ele>108.29000000000001</ele>
        <time>2017-10-30T13:51:24Z</time>
      </trkpt>
      <trkpt lat="51.585998022928834" lon="9.594419980421662">
        <ele>107.81</ele>
        <time>2017-10-30T13:51:30Z</time>
      </trkpt>
      <trkpt lat="51.584215024486184" lon="9.594291988760233">
        <ele>107.31999999999999</ele>
        <time>2017-10-30T13:51:38Z</time>
      </trkpt>
      <trkpt lat="51.582562029361725" lon="9.594415035098791">
        <ele>107.81</ele>
        <time>2017-10-30T13:51:45Z</time>
      </trkpt>
      <trkpt lat="51.580366976559162" lon="9.594559958204627">
        <ele>107.81</ele>
        <time>2017-10-30T13:51:54Z</time>
      </trkpt>
      <trkpt lat="51.578122973442078" lon="9.595385994762182">
        <ele>110.20999999999999</ele>
        <time>2017-10-30T13:52:03Z</time>
      </trkpt>
      <trkpt lat="51.575373038649559" lon="9.596224017441273">
        <ele>111.65000000000001</ele>
        <time>2017-10-30T13:52:14Z</time>
      </trkpt>
      <trkpt lat="51.573460036888719" lon="9.597052987664938">
        <ele>110.69</ele>
        <time>2017-10-30T13:52:22Z</time>
      </trkpt>
      <trkpt lat="51.569665968418121" lon="9.599273018538952">
        <ele>113.56999999999999</ele>
        <time>2017-10-30T13:52:38Z</time>
      </trkpt>
      <trkpt lat="51.56766596250236" lon="9.600807996466756">
        <ele>119.81999999999999</ele>
        <time>2017-10-30T13:52:47Z</time>
      </trkpt>
      <trkpt lat="51.566228969022632" lon="9.602466020733118">
        <ele>117.90000000000001</ele>
        <time>2017-10-30T13:52:54Z</time>
      </trkpt>
      <trkpt lat="51.564675970003009" lon="9.603856997564435">
        <ele>112.61</ele>
        <time>2017-10-30T13:53:01Z</time>
      </trkpt>
      <trkpt lat="51.562268016859889" lon="9.605975020676851">
        <ele>109.73</ele>
        <time>2017-10-30T13:53:12Z</time>
      </trkpt>
      <trkpt lat="51.560063995420933" lon="9.608537033200264">
        <ele>110.69</ele>
        <time>2017-10-30T13:53:23Z</time>
      </trkpt>
      <trkpt lat="51.558095002546906" lon="9.610857982188463">
        <ele>111.17</ele>
        <time>2017-10-30T13:53:33Z</time>
      </trkpt>
      <trkpt lat="51.556358020752668" lon="9.612145023420453">
        <ele>110.69</ele>
        <time>2017-10-30T13:53:41Z</time>
      </trkpt>
      <trkpt lat="51.554075963795185" lon="9.613486966118217">
        <ele>112.61</ele>
        <time>2017-10-30T13:53:51Z</time>
      </trkpt>
      <trkpt lat="51.552558001130819" lon="9.614546019583941">
        <ele>113.56999999999999</ele>
        <time>2017-10-30T13:53:58Z</time>
      </trkpt>
      <trkpt lat="51.549963969737291" lon="9.616854982450604">
        <ele>115.01000000000001</ele>
        <time>2017-10-30T13:54:09Z</time>
      </trkpt>
      <trkpt lat="51.547693982720375" lon="9.618907039985061">
        <ele>116.94</ele>
        <time>2017-10-30T13:54:19Z</time>
      </trkpt>
      <trkpt lat="51.545969992876053" lon="9.620230961591005">
        <ele>118.38</ele>
        <time>2017-10-30T13:54:27Z</time>
      </trkpt>
      <trkpt lat="51.544560994952917" lon="9.621481038630009">
        <ele>117.90000000000001</ele>
        <time>2017-10-30T13:54:34Z</time>
      </trkpt>
      <trkpt lat="51.543429018929601" lon="9.622695995494723">
        <ele>115.98</ele>
        <time>2017-10-30T13:54:41Z</time>
      </trkpt>
      <trkpt lat="51.542975977063179" lon="9.623111989349127">
        <ele>115.5</ele>
        <time>2017-10-30T13:54:45Z</time>
      </trkpt>
      <trkpt lat="51.542892996221781" lon="9.623229000717402">
        <ele>115.01000000000001</ele>
        <time>2017-10-30T13:54:46Z</time>
      </trkpt>
      <trkpt lat="51.542827030643821" lon="9.62335498072207">
        <ele>115.01000000000001</ele>
        <time>2017-10-30T13:54:47Z</time>
      </trkpt>
      <trkpt lat="51.542759975418448" lon="9.623480960726738">
        <ele>115.01000000000001</ele>
        <time>2017-10-30T13:54:48Z</time>
      </trkpt>
      <trkpt lat="51.542724017053843" lon="9.62363401427865">
        <ele>114.53</ele>
        <time>2017-10-30T13:54:49Z</time>
      </trkpt>
      <trkpt lat="51.542715970426798" lon="9.623799975961447">
        <ele>114.53</ele>
        <time>2017-10-30T13:54:50Z</time>
      </trkpt>
      <trkpt lat="51.542707001790404" lon="9.623974990099669">
        <ele>114.53</ele>
        <time>2017-10-30T13:54:51Z</time>
      </trkpt>
      <trkpt lat="51.542698033154011" lon="9.624152015894651">
        <ele>114.53</ele>
        <time>2017-10-30T13:54:52Z</time>
      </trkpt>
      <trkpt lat="51.542607005685568" lon="9.625808028504252">
        <ele>116.94</ele>
        <time>2017-10-30T13:55:02Z</time>
      </trkpt>
      <trkpt lat="51.542572975158691" lon="9.625949012115598">
        <ele>116.94</ele>
        <time>2017-10-30T13:55:03Z</time>
      </trkpt>
      <trkpt lat="51.542537016794086" lon="9.626097958534956">
        <ele>116.94</ele>
        <time>2017-10-30T13:55:04Z</time>
      </trkpt>
      <trkpt lat="51.542477002367377" lon="9.626231985166669">
        <ele>116.94</ele>
        <time>2017-10-30T13:55:05Z</time>
      </trkpt>
      <trkpt lat="51.542402990162373" lon="9.626377997919917">
        <ele>116.94</ele>
        <time>2017-10-30T13:55:06Z</time>
      </trkpt>
      <trkpt lat="51.542326966300607" lon="9.626527028158307">
        <ele>116.45999999999999</ele>
        <time>2017-10-30T13:55:07Z</time>
      </trkpt>
      <trkpt lat="51.541798990219831" lon="9.627568982541561">
        <ele>116.45999999999999</ele>
        <time>2017-10-30T13:55:14Z</time>
      </trkpt>
      <trkpt lat="51.541721038520336" lon="9.627702003344894">
        <ele>115.98</ele>
        <time>2017-10-30T13:55:15Z</time>
      </trkpt>
      <trkpt lat="51.541614001616836" lon="9.627767968922854">
        <ele>115.98</ele>
        <time>2017-10-30T13:55:16Z</time>
      </trkpt>
      <trkpt lat="51.541493972763419" lon="9.627841981127858">
        <ele>115.5</ele>
        <time>2017-10-30T13:55:17Z</time>
      </trkpt>
      <trkpt lat="51.541347960010171" lon="9.627870982512832">
        <ele>115.01000000000001</ele>
        <time>2017-10-30T13:55:18Z</time>
      </trkpt>
      <trkpt lat="51.541202031075954" lon="9.627880034968257">
        <ele>114.53</ele>
        <time>2017-10-30T13:55:19Z</time>
      </trkpt>
      <trkpt lat="51.541055012494326" lon="9.627854973077774">
        <ele>114.05</ele>
        <time>2017-10-30T13:55:20Z</time>
      </trkpt>
      <trkpt lat="51.540918974205852" lon="9.627783978357911">
        <ele>113.09</ele>
        <time>2017-10-30T13:55:21Z</time>
      </trkpt>
      <trkpt lat="51.54078796505928" lon="9.62771600112319">
        <ele>112.61</ele>
        <time>2017-10-30T13:55:22Z</time>
      </trkpt>
      <trkpt lat="51.540665002539754" lon="9.627651963382959">
        <ele>112.13</ele>
        <time>2017-10-30T13:55:23Z</time>
      </trkpt>
      <trkpt lat="51.540556959807873" lon="9.627542998641729">
        <ele>111.65000000000001</ele>
        <time>2017-10-30T13:55:24Z</time>
      </trkpt>
      <trkpt lat="51.540470961481333" lon="9.627411989495158">
        <ele>111.65000000000001</ele>
        <time>2017-10-30T13:55:25Z</time>
      </trkpt>
      <trkpt lat="51.54039996676147" lon="9.627258013933897">
        <ele>111.65000000000001</ele>
        <time>2017-10-30T13:55:26Z</time>
      </trkpt>
      <trkpt lat="51.540323020890355" lon="9.627090040594339">
        <ele>111.17</ele>
        <time>2017-10-30T13:55:27Z</time>
      </trkpt>
      <trkpt lat="51.540243979543447" lon="9.626902034506202">
        <ele>110.69</ele>
        <time>2017-10-30T13:55:28Z</time>
      </trkpt>
      <trkpt lat="51.540159992873669" lon="9.626698018983007">
        <ele>110.20999999999999</ele>
        <time>2017-10-30T13:55:29Z</time>
      </trkpt>
      <trkpt lat="51.54007600620389" lon="9.62646902538836">
        <ele>109.73</ele>
        <time>2017-10-30T13:55:30Z</time>
      </trkpt>
      <trkpt lat="51.539634028449655" lon="9.62543997913599">
        <ele>107.81</ele>
        <time>2017-10-30T13:55:35Z</time>
      </trkpt>
      <trkpt lat="51.539501007646322" lon="9.625306958332658">
        <ele>107.81</ele>
        <time>2017-10-30T13:55:36Z</time>
      </trkpt>
      <trkpt lat="51.539405034855008" lon="9.625251973047853">
        <ele>107.81</ele>
        <time>2017-10-30T13:55:37Z</time>
      </trkpt>
      <trkpt lat="51.539291962981224" lon="9.625220960006118">
        <ele>107.81</ele>
        <time>2017-10-30T13:55:38Z</time>
      </trkpt>
      <trkpt lat="51.539166988804936" lon="9.625186007469893">
        <ele>107.81</ele>
        <time>2017-10-30T13:55:39Z</time>
      </trkpt>
      <trkpt lat="51.539018964394927" lon="9.625162035226822">
        <ele>107.81</ele>
        <time>2017-10-30T13:55:40Z</time>
      </trkpt>
      <trkpt lat="51.538029983639717" lon="9.625178966671228">
        <ele>106.36</ele>
        <time>2017-10-30T13:55:45Z</time>
      </trkpt>
      <trkpt lat="51.536702960729599" lon="9.624756015837193">
        <ele>101.56</ele>
        <time>2017-10-30T13:55:51Z</time>
      </trkpt>
      <trkpt lat="51.534905964508653" lon="9.624068029224873">
        <ele>104.44</ele>
        <time>2017-10-30T13:55:59Z</time>
      </trkpt>
      <trkpt lat="51.533096982166171" lon="9.623581962659955">
        <ele>114.05</ele>
        <time>2017-10-30T13:56:07Z</time>
      </trkpt>
      <trkpt lat="51.531194038689137" lon="9.623313993215561">
        <ele>119.34</ele>
        <time>2017-10-30T13:56:16Z</time>
      </trkpt>
      <trkpt lat="51.530836969614029" lon="9.623192958533764">
        <ele>120.78</ele>
        <time>2017-10-30T13:56:18Z</time>
      </trkpt>
      <trkpt lat="51.530641000717878" lon="9.623086005449295">
        <ele>120.78</ele>
        <time>2017-10-30T13:56:19Z</time>
      </trkpt>
      <trkpt lat="51.529453033581376" lon="9.622315037995577">
        <ele>121.73999999999999</ele>
        <time>2017-10-30T13:56:25Z</time>
      </trkpt>
      <trkpt lat="51.528486013412476" lon="9.621164035052061">
        <ele>122.70999999999999</ele>
        <time>2017-10-30T13:56:31Z</time>
      </trkpt>
      <trkpt lat="51.527509018778801" lon="9.619838017970324">
        <ele>123.19</ele>
        <time>2017-10-30T13:56:38Z</time>
      </trkpt>
      <trkpt lat="51.526621961966157" lon="9.618629012256861">
        <ele>123.67</ele>
        <time>2017-10-30T13:56:48Z</time>
      </trkpt>
      <trkpt lat="51.525792991742492" lon="9.618003973737359">
        <ele>124.15000000000001</ele>
        <time>2017-10-30T13:56:56Z</time>
      </trkpt>
      <trkpt lat="51.525686038658023" lon="9.617951000109315">
        <ele>124.63</ele>
        <time>2017-10-30T13:56:57Z</time>
      </trkpt>
      <trkpt lat="51.525570033118129" lon="9.617951000109315">
        <ele>124.63</ele>
        <time>2017-10-30T13:56:58Z</time>
      </trkpt>
      <trkpt lat="51.525456961244345" lon="9.617954017594457">
        <ele>125.11</ele>
        <time>2017-10-30T13:56:59Z</time>
      </trkpt>
      <trkpt lat="51.525338022038341" lon="9.617973966524005">
        <ele>125.59</ele>
        <time>2017-10-30T13:57:00Z</time>
      </trkpt>
      <trkpt lat="51.525220004841685" lon="9.617995005100966">
        <ele>126.06999999999999</ele>
        <time>2017-10-30T13:57:01Z</time>
      </trkpt>
      <trkpt lat="51.52510198764503" lon="9.618015037849546">
        <ele>126.06999999999999</ele>
        <time>2017-10-30T13:57:02Z</time>
      </trkpt>
      <trkpt lat="51.524487007409334" lon="9.618079997599125">
        <ele>127.98999999999999</ele>
        <time>2017-10-30T13:57:07Z</time>
      </trkpt>
      <trkpt lat="51.524360021576285" lon="9.618058959022164">
        <ele>127.98999999999999</ele>
        <time>2017-10-30T13:57:08Z</time>
      </trkpt>
      <trkpt lat="51.524247033521533" lon="9.617980001494288">
        <ele>127.98999999999999</ele>
        <time>2017-10-30T13:57:09Z</time>
      </trkpt>
      <trkpt lat="51.524142008274794" lon="9.617869025096297">
        <ele>127.98999999999999</ele>
        <time>2017-10-30T13:57:10Z</time>
      </trkpt>
      <trkpt lat="51.524033965542912" lon="9.617729969322681">
        <ele>128.47</ele>
        <time>2017-10-30T13:57:11Z</time>
      </trkpt>
      <trkpt lat="51.523917960003018" lon="9.617580017074943">
        <ele>128.47</ele>
        <time>2017-10-30T13:57:12Z</time>
      </trkpt>
      <trkpt lat="51.522734016180038" lon="9.615960968658328">
        <ele>131.36000000000001</ele>
        <time>2017-10-30T13:57:21Z</time>
      </trkpt>
      <trkpt lat="51.522510973736644" lon="9.615651005879045">
        <ele>131.84</ele>
        <time>2017-10-30T13:57:23Z</time>
      </trkpt>
      <trkpt lat="51.522433022037148" lon="9.615486972033978">
        <ele>131.84</ele>
        <time>2017-10-30T13:57:24Z</time>
      </trkpt>
      <trkpt lat="51.522369990125299" lon="9.615297960117459">
        <ele>132.31999999999999</ele>
        <time>2017-10-30T13:57:25Z</time>
      </trkpt>
      <trkpt lat="51.522338977083564" lon="9.615108026191592">
        <ele>132.31999999999999</ele>
        <time>2017-10-30T13:57:26Z</time>
      </trkpt>
      <trkpt lat="51.522338977083564" lon="9.614915996789932">
        <ele>132.80000000000001</ele>
        <time>2017-10-30T13:57:27Z</time>
      </trkpt>
      <trkpt lat="51.522338977083564" lon="9.614736037328839">
        <ele>132.80000000000001</ele>
        <time>2017-10-30T13:57:28Z</time>
      </trkpt>
      <trkpt lat="51.522338977083564" lon="9.614558005705476">
        <ele>132.80000000000001</ele>
        <time>2017-10-30T13:57:29Z</time>
      </trkpt>
      <trkpt lat="51.522317016497254" lon="9.614387014880776">
        <ele>133.28</ele>
        <time>2017-10-30T13:57:30Z</time>
      </trkpt>
      <trkpt lat="51.522282985970378" lon="9.614215018227696">
        <ele>133.28</ele>
        <time>2017-10-30T13:57:31Z</time>
      </trkpt>
      <trkpt lat="51.522219032049179" lon="9.614079985767603">
        <ele>133.75999999999999</ele>
        <time>2017-10-30T13:57:32Z</time>
      </trkpt>
      <trkpt lat="51.522134961560369" lon="9.613936990499497">
        <ele>134.72</ele>
        <time>2017-10-30T13:57:33Z</time>
      </trkpt>
      <trkpt lat="51.522045023739338" lon="9.613800030201674">
        <ele>135.19999999999999</ele>
        <time>2017-10-30T13:57:34Z</time>
      </trkpt>
      <trkpt lat="51.521920971572399" lon="9.613720988854766">
        <ele>136.16</ele>
        <time>2017-10-30T13:57:35Z</time>
      </trkpt>
      <trkpt lat="51.521801026538014" lon="9.613641025498509">
        <ele>136.63999999999999</ele>
        <time>2017-10-30T13:57:36Z</time>
      </trkpt>
      <trkpt lat="51.521693989634514" lon="9.613551003858447">
        <ele>136.63999999999999</ele>
        <time>2017-10-30T13:57:37Z</time>
      </trkpt>
      <trkpt lat="51.521589970216155" lon="9.613465005531907">
        <ele>137.13</ele>
        <time>2017-10-30T13:57:38Z</time>
      </trkpt>
      <trkpt lat="51.52149299159646" lon="9.61338403634727">
        <ele>137.13</ele>
        <time>2017-10-30T13:57:39Z</time>
      </trkpt>
      <trkpt lat="51.521410010755062" lon="9.613245986402035">
        <ele>137.61000000000001</ele>
        <time>2017-10-30T13:57:40Z</time>
      </trkpt>
      <trkpt lat="51.521357959136367" lon="9.613073989748955">
        <ele>137.61000000000001</ele>
        <time>2017-10-30T13:57:41Z</time>
      </trkpt>
      <trkpt lat="51.5213009621948" lon="9.612887995317578">
        <ele>138.09</ele>
        <time>2017-10-30T13:57:42Z</time>
      </trkpt>
      <trkpt lat="51.521250000223517" lon="9.612677022814751">
        <ele>138.56999999999999</ele>
        <time>2017-10-30T13:57:43Z</time>
      </trkpt>
      <trkpt lat="51.520945988595486" lon="9.610866028815508">
        <ele>141.93000000000001</ele>
        <time>2017-10-30T13:57:50Z</time>
      </trkpt>
      <trkpt lat="51.520972978323698" lon="9.610052984207869">
        <ele>143.84999999999999</ele>
        <time>2017-10-30T13:57:53Z</time>
      </trkpt>
      <trkpt lat="51.520981024950743" lon="9.609812004491687">
        <ele>144.81999999999999</ele>
        <time>2017-10-30T13:57:54Z</time>
      </trkpt>
      <trkpt lat="51.520931990817189" lon="9.609510004520416">
        <ele>145.30000000000001</ele>
        <time>2017-10-30T13:57:55Z</time>
      </trkpt>
      <trkpt lat="51.520833000540733" lon="9.60930397734046">
        <ele>145.78</ele>
        <time>2017-10-30T13:57:56Z</time>
      </trkpt>
      <trkpt lat="51.520731998607516" lon="9.609093004837632">
        <ele>145.78</ele>
        <time>2017-10-30T13:57:57Z</time>
      </trkpt>
      <trkpt lat="51.520688999444246" lon="9.608866022899747">
        <ele>146.25999999999999</ele>
        <time>2017-10-30T13:57:58Z</time>
      </trkpt>
      <trkpt lat="51.520624039694667" lon="9.608570979908109">
        <ele>146.74000000000001</ele>
        <time>2017-10-30T13:57:59Z</time>
      </trkpt>
      <trkpt lat="51.520529994741082" lon="9.608356989920139">
        <ele>147.22</ele>
        <time>2017-10-30T13:58:00Z</time>
      </trkpt>
      <trkpt lat="51.52048397809267" lon="9.608150962740183">
        <ele>147.22</ele>
        <time>2017-10-30T13:58:01Z</time>
      </trkpt>
      <trkpt lat="51.520347017794847" lon="9.606367964297533">
        <ele>150.58000000000001</ele>
        <time>2017-10-30T13:58:07Z</time>
      </trkpt>
      <trkpt lat="51.520322039723396" lon="9.606041992083192">
        <ele>151.53999999999999</ele>
        <time>2017-10-30T13:58:09Z</time>
      </trkpt>
      <trkpt lat="51.520236963406205" lon="9.605860020965338">
        <ele>152.03</ele>
        <time>2017-10-30T13:58:10Z</time>
      </trkpt>
      <trkpt lat="51.520172003656626" lon="9.605719959363341">
        <ele>152.50999999999999</ele>
        <time>2017-10-30T13:58:11Z</time>
      </trkpt>
      <trkpt lat="51.52007301338017" lon="9.605638990178704">
        <ele>152.99000000000001</ele>
        <time>2017-10-30T13:58:12Z</time>
      </trkpt>
      <trkpt lat="51.519981985911727" lon="9.6055649779737">
        <ele>152.99000000000001</ele>
        <time>2017-10-30T13:58:13Z</time>
      </trkpt>
      <trkpt lat="51.519935969263315" lon="9.605527007952333">
        <ele>152.99000000000001</ele>
        <time>2017-10-30T13:58:14Z</time>
      </trkpt>
      <trkpt lat="51.519872015342116" lon="9.6054130140692">
        <ele>152.99000000000001</ele>
        <time>2017-10-30T13:58:15Z</time>
      </trkpt>
      <trkpt lat="51.519829016178846" lon="9.605331039056182">
        <ele>152.99000000000001</ele>
        <time>2017-10-30T13:58:16Z</time>
      </trkpt>
      <trkpt lat="51.519835973158479" lon="9.605231964960694">
        <ele>152.99000000000001</ele>
        <time>2017-10-30T13:58:17Z</time>
      </trkpt>
      <trkpt lat="51.519844019785523" lon="9.605129035189748">
        <ele>152.99000000000001</ele>
        <time>2017-10-30T13:58:18Z</time>
      </trkpt>
      <trkpt lat="51.519934963434935" lon="9.605000959709287">
        <ele>153.47</ele>
        <time>2017-10-30T13:58:19Z</time>
      </trkpt>
      <trkpt lat="51.52003102004528" lon="9.60494102910161">
        <ele>153.47</ele>
        <time>2017-10-30T13:58:20Z</time>
      </trkpt>
      <trkpt lat="51.520130010321736" lon="9.60487799718976">
        <ele>153.94999999999999</ele>
        <time>2017-10-30T13:58:21Z</time>
      </trkpt>
      <trkpt lat="51.520210979506373" lon="9.604827035218477">
        <ele>153.47</ele>
        <time>2017-10-30T13:58:22Z</time>
      </trkpt>
      <trkpt lat="51.520258001983166" lon="9.604680016636848">
        <ele>153.47</ele>
        <time>2017-10-30T13:58:23Z</time>
      </trkpt>
      <trkpt lat="51.520258001983166" lon="9.60451296530664">
        <ele>153.47</ele>
        <time>2017-10-30T13:58:24Z</time>
      </trkpt>
      <trkpt lat="51.520258001983166" lon="9.604304004460573">
        <ele>152.99000000000001</ele>
        <time>2017-10-30T13:58:25Z</time>
      </trkpt>
      <trkpt lat="51.520258001983166" lon="9.604065958410502">
        <ele>152.03</ele>
        <time>2017-10-30T13:58:26Z</time>
      </trkpt>
      <trkpt lat="51.520218020305037" lon="9.603262972086668">
        <ele>149.62</ele>
        <time>2017-10-30T13:58:29Z</time>
      </trkpt>
      <trkpt lat="51.520082987844944" lon="9.602382034063339">
        <ele>146.74000000000001</ele>
        <time>2017-10-30T13:58:32Z</time>
      </trkpt>
      <trkpt lat="51.5200109872967" lon="9.602082967758179">
        <ele>146.25999999999999</ele>
        <time>2017-10-30T13:58:33Z</time>
      </trkpt>
      <trkpt lat="51.519362982362509" lon="9.599495977163315">
        <ele>140.97</ele>
        <time>2017-10-30T13:58:41Z</time>
      </trkpt>
      <trkpt lat="51.518370984122157" lon="9.597304025664926">
        <ele>140.97</ele>
        <time>2017-10-30T13:58:49Z</time>
      </trkpt>
      <trkpt lat="51.51758098974824" lon="9.595238976180553">
        <ele>139.53</ele>
        <time>2017-10-30T13:58:56Z</time>
      </trkpt>
      <trkpt lat="51.516597038134933" lon="9.593144003301859">
        <ele>137.61000000000001</ele>
        <time>2017-10-30T13:59:04Z</time>
      </trkpt>
      <trkpt lat="51.515695983543992" lon="9.591824021190405">
        <ele>135.19999999999999</ele>
        <time>2017-10-30T13:59:10Z</time>
      </trkpt>
      <trkpt lat="51.515535973012447" lon="9.591688988730311">
        <ele>134.72</ele>
        <time>2017-10-30T13:59:11Z</time>
      </trkpt>
      <trkpt lat="51.515373028814793" lon="9.591570971533656">
        <ele>133.75999999999999</ele>
        <time>2017-10-30T13:59:12Z</time>
      </trkpt>
      <trkpt lat="51.515199020504951" lon="9.59146804176271">
        <ele>133.28</ele>
        <time>2017-10-30T13:59:13Z</time>
      </trkpt>
      <trkpt lat="51.515011014416814" lon="9.591447003185749">
        <ele>132.80000000000001</ele>
        <time>2017-10-30T13:59:14Z</time>
      </trkpt>
      <trkpt lat="51.514814961701632" lon="9.591424036771059">
        <ele>131.84</ele>
        <time>2017-10-30T13:59:15Z</time>
      </trkpt>
      <trkpt lat="51.514612035825849" lon="9.591400986537337">
        <ele>131.36000000000001</ele>
        <time>2017-10-30T13:59:16Z</time>
      </trkpt>
      <trkpt lat="51.513851964846253" lon="9.59142797626555">
        <ele>127.98999999999999</ele>
        <time>2017-10-30T13:59:20Z</time>
      </trkpt>
      <trkpt lat="51.513377968221903" lon="9.591666022315621">
        <ele>125.11</ele>
        <time>2017-10-30T13:59:23Z</time>
      </trkpt>
      <trkpt lat="51.513247964903712" lon="9.59181597456336">
        <ele>124.63</ele>
        <time>2017-10-30T13:59:24Z</time>
      </trkpt>
      <trkpt lat="51.513128019869328" lon="9.59198797121644">
        <ele>123.67</ele>
        <time>2017-10-30T13:59:25Z</time>
      </trkpt>
      <trkpt lat="51.513007991015911" lon="9.592174971476197">
        <ele>123.19</ele>
        <time>2017-10-30T13:59:26Z</time>
      </trkpt>
      <trkpt lat="51.512881005182862" lon="9.592373035848141">
        <ele>122.22</ele>
        <time>2017-10-30T13:59:27Z</time>
      </trkpt>
      <trkpt lat="51.512759970501065" lon="9.592592976987362">
        <ele>121.73999999999999</ele>
        <time>2017-10-30T13:59:28Z</time>
      </trkpt>
      <trkpt lat="51.511906022205949" lon="9.594623995944858">
        <ele>115.5</ele>
        <time>2017-10-30T13:59:35Z</time>
      </trkpt>
      <trkpt lat="51.511175958439708" lon="9.596531968563795">
        <ele>112.61</ele>
        <time>2017-10-30T13:59:42Z</time>
      </trkpt>
      <trkpt lat="51.510177003219724" lon="9.599192971363664">
        <ele>114.05</ele>
        <time>2017-10-30T13:59:52Z</time>
      </trkpt>
      <trkpt lat="51.509221969172359" lon="9.601296996697784">
        <ele>115.98</ele>
        <time>2017-10-30T14:00:00Z</time>
      </trkpt>
      <trkpt lat="51.50784901343286" lon="9.60311503149569">
        <ele>116.94</ele>
        <time>2017-10-30T14:00:08Z</time>
      </trkpt>
      <trkpt lat="51.506962962448597" lon="9.604071993380785">
        <ele>118.86</ele>
        <time>2017-10-30T14:00:14Z</time>
      </trkpt>
      <trkpt lat="51.506820973008871" lon="9.60416997782886">
        <ele>119.34</ele>
        <time>2017-10-30T14:00:15Z</time>
      </trkpt>
      <trkpt lat="51.506660962477326" lon="9.604256981983781">
        <ele>119.81999999999999</ele>
        <time>2017-10-30T14:00:16Z</time>
      </trkpt>
      <trkpt lat="51.506487037986517" lon="9.604327976703644">
        <ele>119.81999999999999</ele>
        <time>2017-10-30T14:00:17Z</time>
      </trkpt>
      <trkpt lat="51.506299031898379" lon="9.604343986138701">
        <ele>119.34</ele>
        <time>2017-10-30T14:00:18Z</time>
      </trkpt>
      <trkpt lat="51.506099039688706" lon="9.60436100140214">
        <ele>118.86</ele>
        <time>2017-10-30T14:00:19Z</time>
      </trkpt>
      <trkpt lat="51.504910988733172" lon="9.604483963921666">
        <ele>116.94</ele>
        <time>2017-10-30T14:00:25Z</time>
      </trkpt>
      <trkpt lat="51.504727005958557" lon="9.604544984176755">
        <ele>116.45999999999999</ele>
        <time>2017-10-30T14:00:26Z</time>
      </trkpt>
      <trkpt lat="51.504547968506813" lon="9.604651015251875">
        <ele>116.45999999999999</ele>
        <time>2017-10-30T14:00:27Z</time>
      </trkpt>
      <trkpt lat="51.503456979990005" lon="9.605509992688894">
        <ele>116.45999999999999</ele>
        <time>2017-10-30T14:00:34Z</time>
      </trkpt>
      <trkpt lat="51.502571012824774" lon="9.606247013434768">
        <ele>117.90000000000001</ele>
        <time>2017-10-30T14:00:42Z</time>
      </trkpt>
      <trkpt lat="51.50202602148056" lon="9.60659402422607">
        <ele>117.90000000000001</ele>
        <time>2017-10-30T14:00:47Z</time>
      </trkpt>
      <trkpt lat="51.501344991847873" lon="9.606901975348592">
        <ele>119.81999999999999</ele>
        <time>2017-10-30T14:00:53Z</time>
      </trkpt>
      <trkpt lat="51.501238038763404" lon="9.606986967846751">
        <ele>119.81999999999999</ele>
        <time>2017-10-30T14:00:54Z</time>
      </trkpt>
      <trkpt lat="51.501019019633532" lon="9.607168016955257">
        <ele>119.81999999999999</ele>
        <time>2017-10-30T14:00:56Z</time>
      </trkpt>
      <trkpt lat="51.499809008091688" lon="9.607958011329174">
        <ele>118.86</ele>
        <time>2017-10-30T14:01:07Z</time>
      </trkpt>
      <trkpt lat="51.499357977882028" lon="9.608196979388595">
        <ele>117.90000000000001</ele>
        <time>2017-10-30T14:01:11Z</time>
      </trkpt>
      <trkpt lat="51.499245995655656" lon="9.608246013522148">
        <ele>118.38</ele>
        <time>2017-10-30T14:01:12Z</time>
      </trkpt>
      <trkpt lat="51.498328009620309" lon="9.60855295881629">
        <ele>118.86</ele>
        <time>2017-10-30T14:01:20Z</time>
      </trkpt>
      <trkpt lat="51.498212004080415" lon="9.608639962971211">
        <ele>118.86</ele>
        <time>2017-10-30T14:01:21Z</time>
      </trkpt>
      <trkpt lat="51.498108990490437" lon="9.608717998489738">
        <ele>118.38</ele>
        <time>2017-10-30T14:01:22Z</time>
      </trkpt>
      <trkpt lat="51.498004971072078" lon="9.608797039836645">
        <ele>118.38</ele>
        <time>2017-10-30T14:01:23Z</time>
      </trkpt>
      <trkpt lat="51.497898017987609" lon="9.608878009021282">
        <ele>118.38</ele>
        <time>2017-10-30T14:01:24Z</time>
      </trkpt>
      <trkpt lat="51.49779399856925" lon="9.608956966549158">
        <ele>117.90000000000001</ele>
        <time>2017-10-30T14:01:25Z</time>
      </trkpt>
      <trkpt lat="51.49768796749413" lon="9.609037013724446">
        <ele>117.90000000000001</ele>
        <time>2017-10-30T14:01:26Z</time>
      </trkpt>
      <trkpt lat="51.49701900780201" lon="9.609358962625265">
        <ele>115.5</ele>
        <time>2017-10-30T14:01:32Z</time>
      </trkpt>
      <trkpt lat="51.496688006445765" lon="9.609486032277346">
        <ele>114.05</ele>
        <time>2017-10-30T14:01:35Z</time>
      </trkpt>
      <trkpt lat="51.496572000905871" lon="9.609503969550133">
        <ele>114.05</ele>
        <time>2017-10-30T14:01:36Z</time>
      </trkpt>
      <trkpt lat="51.496453983709216" lon="9.609504975378513">
        <ele>114.05</ele>
        <time>2017-10-30T14:01:37Z</time>
      </trkpt>
      <trkpt lat="51.496338983997703" lon="9.609449990093708">
        <ele>114.53</ele>
        <time>2017-10-30T14:01:38Z</time>
      </trkpt>
      <trkpt lat="51.496223984286189" lon="9.609396010637283">
        <ele>114.53</ele>
        <time>2017-10-30T14:01:39Z</time>
      </trkpt>
      <trkpt lat="51.496105967089534" lon="9.609340019524097">
        <ele>114.53</ele>
        <time>2017-10-30T14:01:40Z</time>
      </trkpt>
      <trkpt lat="51.495636999607086" lon="9.609126029536128">
        <ele>114.53</ele>
        <time>2017-10-30T14:01:44Z</time>
      </trkpt>
      <trkpt lat="51.495512025430799" lon="9.60911002010107">
        <ele>114.53</ele>
        <time>2017-10-30T14:01:45Z</time>
      </trkpt>
      <trkpt lat="51.495377998799086" lon="9.60911002010107">
        <ele>115.01000000000001</ele>
        <time>2017-10-30T14:01:46Z</time>
      </trkpt>
      <trkpt lat="51.495240032672882" lon="9.60911002010107">
        <ele>115.01000000000001</ele>
        <time>2017-10-30T14:01:47Z</time>
      </trkpt>
      <trkpt lat="51.495092008262873" lon="9.60913298651576">
        <ele>115.01000000000001</ele>
        <time>2017-10-30T14:01:48Z</time>
      </trkpt>
      <trkpt lat="51.494950018823147" lon="9.609215967357159">
        <ele>115.01000000000001</ele>
        <time>2017-10-30T14:01:49Z</time>
      </trkpt>
      <trkpt lat="51.494803000241518" lon="9.609302971512079">
        <ele>115.01000000000001</ele>
        <time>2017-10-30T14:01:50Z</time>
      </trkpt>
      <trkpt lat="51.493373969569802" lon="9.610369987785816">
        <ele>115.5</ele>
        <time>2017-10-30T14:01:59Z</time>
      </trkpt>
      <trkpt lat="51.491847960278392" lon="9.612005967646837">
        <ele>120.78</ele>
        <time>2017-10-30T14:02:08Z</time>
      </trkpt>
      <trkpt lat="51.489948034286499" lon="9.613888962194324">
        <ele>124.15000000000001</ele>
        <time>2017-10-30T14:02:18Z</time>
      </trkpt>
      <trkpt lat="51.488309958949685" lon="9.615355962887406">
        <ele>123.19</ele>
        <time>2017-10-30T14:02:25Z</time>
      </trkpt>
      <trkpt lat="51.486756959930062" lon="9.61658701300621">
        <ele>121.26000000000001</ele>
        <time>2017-10-30T14:02:31Z</time>
      </trkpt>
      <trkpt lat="51.484256973490119" lon="9.618975017219782">
        <ele>119.34</ele>
        <time>2017-10-30T14:02:41Z</time>
      </trkpt>
      <trkpt lat="51.480768006294966" lon="9.622704964131117">
        <ele>119.34</ele>
        <time>2017-10-30T14:02:56Z</time>
      </trkpt>
      <trkpt lat="51.478742016479373" lon="9.625036977231503">
        <ele>119.34</ele>
        <time>2017-10-30T14:03:05Z</time>
      </trkpt>
      <trkpt lat="51.477130008861423" lon="9.626950984820724">
        <ele>118.86</ele>
        <time>2017-10-30T14:03:13Z</time>
      </trkpt>
      <trkpt lat="51.476365998387337" lon="9.628544971346855">
        <ele>119.34</ele>
        <time>2017-10-30T14:03:19Z</time>
      </trkpt>
      <trkpt lat="51.476066010072827" lon="9.630095958709717">
        <ele>119.34</ele>
        <time>2017-10-30T14:03:24Z</time>
      </trkpt>
      <trkpt lat="51.475823018699884" lon="9.632201995700598">
        <ele>120.3</ele>
        <time>2017-10-30T14:03:29Z</time>
      </trkpt>
      <trkpt lat="51.475597964599729" lon="9.633881980553269">
        <ele>121.73999999999999</ele>
        <time>2017-10-30T14:03:34Z</time>
      </trkpt>
      <trkpt lat="51.475122040137649" lon="9.63682696223259">
        <ele>121.26000000000001</ele>
        <time>2017-10-30T14:03:43Z</time>
      </trkpt>
      <trkpt lat="51.474494989961386" lon="9.639348993077874">
        <ele>118.86</ele>
        <time>2017-10-30T14:03:49Z</time>
      </trkpt>
      <trkpt lat="51.473500980064273" lon="9.641295019537211">
        <ele>117.90000000000001</ele>
        <time>2017-10-30T14:03:55Z</time>
      </trkpt>
      <trkpt lat="51.472307983785868" lon="9.642796972766519">
        <ele>117.90000000000001</ele>
        <time>2017-10-30T14:04:02Z</time>
      </trkpt>
      <trkpt lat="51.470620958134532" lon="9.644472012296319">
        <ele>119.34</ele>
        <time>2017-10-30T14:04:12Z</time>
      </trkpt>
      <trkpt lat="51.469185976311564" lon="9.645302994176745">
        <ele>119.34</ele>
        <time>2017-10-30T14:04:18Z</time>
      </trkpt>
      <trkpt lat="51.468024998903275" lon="9.645681018009782">
        <ele>118.86</ele>
        <time>2017-10-30T14:04:23Z</time>
      </trkpt>
      <trkpt lat="51.467789970338345" lon="9.645684035494924">
        <ele>118.86</ele>
        <time>2017-10-30T14:04:24Z</time>
      </trkpt>
      <trkpt lat="51.467554019764066" lon="9.645641036331654">
        <ele>118.86</ele>
        <time>2017-10-30T14:04:25Z</time>
      </trkpt>
      <trkpt lat="51.467321002855897" lon="9.645599965006113">
        <ele>118.86</ele>
        <time>2017-10-30T14:04:26Z</time>
      </trkpt>
      <trkpt lat="51.467096032574773" lon="9.645503992214799">
        <ele>118.86</ele>
        <time>2017-10-30T14:04:27Z</time>
      </trkpt>
      <trkpt lat="51.466869972646236" lon="9.645383963361383">
        <ele>118.86</ele>
        <time>2017-10-30T14:04:28Z</time>
      </trkpt>
      <trkpt lat="51.465316973626614" lon="9.644147967919707">
        <ele>120.78</ele>
        <time>2017-10-30T14:04:35Z</time>
      </trkpt>
      <trkpt lat="51.464105034247041" lon="9.643091009929776">
        <ele>121.26000000000001</ele>
        <time>2017-10-30T14:04:41Z</time>
      </trkpt>
      <trkpt lat="51.463876962661743" lon="9.642997970804572">
        <ele>121.26000000000001</ele>
        <time>2017-10-30T14:04:42Z</time>
      </trkpt>
      <trkpt lat="51.463644029572606" lon="9.642904009670019">
        <ele>121.73999999999999</ele>
        <time>2017-10-30T14:04:43Z</time>
      </trkpt>
      <trkpt lat="51.463401960209012" lon="9.642865033820272">
        <ele>122.22</ele>
        <time>2017-10-30T14:04:44Z</time>
      </trkpt>
      <trkpt lat="51.46316098049283" lon="9.642868973314762">
        <ele>123.19</ele>
        <time>2017-10-30T14:04:45Z</time>
      </trkpt>
      <trkpt lat="51.46292201243341" lon="9.642872996628285">
        <ele>124.15000000000001</ele>
        <time>2017-10-30T14:04:46Z</time>
      </trkpt>
      <trkpt lat="51.461213026195765" lon="9.642750034108758">
        <ele>133.28</ele>
        <time>2017-10-30T14:04:54Z</time>
      </trkpt>
      <trkpt lat="51.459721969440579" lon="9.642275031656027">
        <ele>136.63999999999999</ele>
        <time>2017-10-30T14:05:00Z</time>
      </trkpt>
      <trkpt lat="51.457926984876394" lon="9.641625015065074">
        <ele>140.49000000000001</ele>
        <time>2017-10-30T14:05:07Z</time>
      </trkpt>
      <trkpt lat="51.45553202368319" lon="9.641317985951901">
        <ele>149.13999999999999</ele>
        <time>2017-10-30T14:05:16Z</time>
      </trkpt>
      <trkpt lat="51.454196032136679" lon="9.641544967889786">
        <ele>153.94999999999999</ele>
        <time>2017-10-30T14:05:22Z</time>
      </trkpt>
      <trkpt lat="51.453628996387124" lon="9.641948975622654">
        <ele>155.87</ele>
        <time>2017-10-30T14:05:25Z</time>
      </trkpt>
      <trkpt lat="51.452747974544764" lon="9.643231993541122">
        <ele>154.43000000000001</ele>
        <time>2017-10-30T14:05:31Z</time>
      </trkpt>
      <trkpt lat="51.452623000368476" lon="9.643442966043949">
        <ele>153.47</ele>
        <time>2017-10-30T14:05:32Z</time>
      </trkpt>
      <trkpt lat="51.452497020363808" lon="9.643655028194189">
        <ele>152.50999999999999</ele>
        <time>2017-10-30T14:05:33Z</time>
      </trkpt>
      <trkpt lat="51.452370034530759" lon="9.643868012353778">
        <ele>151.53999999999999</ele>
        <time>2017-10-30T14:05:34Z</time>
      </trkpt>
      <trkpt lat="51.452246988192201" lon="9.644075967371464">
        <ele>150.09999999999999</ele>
        <time>2017-10-30T14:05:35Z</time>
      </trkpt>
      <trkpt lat="51.452099969610572" lon="9.644249975681305">
        <ele>148.66</ele>
        <time>2017-10-30T14:05:36Z</time>
      </trkpt>
      <trkpt lat="51.451954040676355" lon="9.644403029233217">
        <ele>147.22</ele>
        <time>2017-10-30T14:05:37Z</time>
      </trkpt>
      <trkpt lat="51.451808027923107" lon="9.644554993137717">
        <ele>144.81999999999999</ele>
        <time>2017-10-30T14:05:38Z</time>
      </trkpt>
      <trkpt lat="51.451646005734801" lon="9.64468801394105">
        <ele>142.88999999999999</ele>
        <time>2017-10-30T14:05:39Z</time>
      </trkpt>
      <trkpt lat="51.451476020738482" lon="9.644798990339041">
        <ele>140.97</ele>
        <time>2017-10-30T14:05:40Z</time>
      </trkpt>
      <trkpt lat="51.451292959973216" lon="9.644875014200807">
        <ele>139.05000000000001</ele>
        <time>2017-10-30T14:05:41Z</time>
      </trkpt>
      <trkpt lat="51.451111994683743" lon="9.644927987828851">
        <ele>136.63999999999999</ele>
        <time>2017-10-30T14:05:42Z</time>
      </trkpt>
      <trkpt lat="51.450930023565888" lon="9.644967969506979">
        <ele>135.19999999999999</ele>
        <time>2017-10-30T14:05:43Z</time>
      </trkpt>
      <trkpt lat="51.450751991942525" lon="9.644983978942037">
        <ele>133.28</ele>
        <time>2017-10-30T14:05:44Z</time>
      </trkpt>
      <trkpt lat="51.450554011389613" lon="9.644976016134024">
        <ele>132.31999999999999</ele>
        <time>2017-10-30T14:05:45Z</time>
      </trkpt>
      <trkpt lat="51.448739999905229" lon="9.644636968150735">
        <ele>125.59</ele>
        <time>2017-10-30T14:05:53Z</time>
      </trkpt>
      <trkpt lat="51.446006996557117" lon="9.643537010997534">
        <ele>126.55</ele>
        <time>2017-10-30T14:06:04Z</time>
      </trkpt>
      <trkpt lat="51.442745011299849" lon="9.641869012266398">
        <ele>125.59</ele>
        <time>2017-10-30T14:06:17Z</time>
      </trkpt>
      <trkpt lat="51.441969014704227" lon="9.641546979546547">
        <ele>125.11</ele>
        <time>2017-10-30T14:06:22Z</time>
      </trkpt>
      <trkpt lat="51.440786998718977" lon="9.641254032030702">
        <ele>124.63</ele>
        <time>2017-10-30T14:06:32Z</time>
      </trkpt>
      <trkpt lat="51.439114976674318" lon="9.640924958512187">
        <ele>124.15000000000001</ele>
        <time>2017-10-30T14:06:46Z</time>
      </trkpt>
      <trkpt lat="51.437817038968205" lon="9.640931999310851">
        <ele>123.67</ele>
        <time>2017-10-30T14:06:57Z</time>
      </trkpt>
      <trkpt lat="51.436757985502481" lon="9.640913978219032">
        <ele>124.63</ele>
        <time>2017-10-30T14:07:06Z</time>
      </trkpt>
      <trkpt lat="51.436531003564596" lon="9.640842983499169">
        <ele>124.63</ele>
        <time>2017-10-30T14:07:08Z</time>
      </trkpt>
      <trkpt lat="51.436414998024702" lon="9.640807025134563">
        <ele>124.63</ele>
        <time>2017-10-30T14:07:09Z</time>
      </trkpt>
      <trkpt lat="51.435232982039452" lon="9.640624970197678">
        <ele>123.67</ele>
        <time>2017-10-30T14:07:19Z</time>
      </trkpt>
      <trkpt lat="51.433963961899281" lon="9.641067031770945">
        <ele>123.67</ele>
        <time>2017-10-30T14:07:30Z</time>
      </trkpt>
      <trkpt lat="51.432763002812862" lon="9.64189600199461">
        <ele>124.15000000000001</ele>
        <time>2017-10-30T14:07:41Z</time>
      </trkpt>
      <trkpt lat="51.431499011814594" lon="9.642318030819297">
        <ele>123.67</ele>
        <time>2017-10-30T14:07:52Z</time>
      </trkpt>
      <trkpt lat="51.430339040234685" lon="9.642589017748833">
        <ele>125.11</ele>
        <time>2017-10-30T14:08:02Z</time>
      </trkpt>
      <trkpt lat="51.428876984864473" lon="9.643280021846294">
        <ele>128.47</ele>
        <time>2017-10-30T14:08:15Z</time>
      </trkpt>
      <trkpt lat="51.427560020238161" lon="9.64400103315711">
        <ele>134.24000000000001</ele>
        <time>2017-10-30T14:08:27Z</time>
      </trkpt>
      <trkpt lat="51.426638010889292" lon="9.644847018644214">
        <ele>140.00999999999999</ele>
        <time>2017-10-30T14:08:36Z</time>
      </trkpt>
      <trkpt lat="51.426444975659251" lon="9.645223030820489">
        <ele>142.41</ele>
        <time>2017-10-30T14:08:42Z</time>
      </trkpt>
      <trkpt lat="51.426252024248242" lon="9.645244991406798">
        <ele>143.37</ele>
        <time>2017-10-30T14:08:46Z</time>
      </trkpt>
      <trkpt lat="51.426200978457928" lon="9.64522797614336">
        <ele>143.37</ele>
        <time>2017-10-30T14:08:47Z</time>
      </trkpt>
      <trkpt lat="51.42547301016748" lon="9.64511800557375">
        <ele>140.97</ele>
        <time>2017-10-30T14:08:54Z</time>
      </trkpt>
      <trkpt lat="51.424596011638641" lon="9.64531003497541">
        <ele>136.63999999999999</ele>
        <time>2017-10-30T14:09:03Z</time>
      </trkpt>
      <trkpt lat="51.42452702857554" lon="9.64531003497541">
        <ele>136.16</ele>
        <time>2017-10-30T14:09:04Z</time>
      </trkpt>
      <trkpt lat="51.424458967521787" lon="9.64531003497541">
        <ele>135.68000000000001</ele>
        <time>2017-10-30T14:09:05Z</time>
      </trkpt>
      <trkpt lat="51.424405993893743" lon="9.64531003497541">
        <ele>135.68000000000001</ele>
        <time>2017-10-30T14:09:06Z</time>
      </trkpt>
      <trkpt lat="51.424341034144163" lon="9.645256977528334">
        <ele>135.68000000000001</ele>
        <time>2017-10-30T14:09:07Z</time>
      </trkpt>
      <trkpt lat="51.42427297309041" lon="9.645201992243528">
        <ele>135.19999999999999</ele>
        <time>2017-10-30T14:09:08Z</time>
      </trkpt>
      <trkpt lat="51.424201978370547" lon="9.645143989473581">
        <ele>135.19999999999999</ele>
        <time>2017-10-30T14:09:09Z</time>
      </trkpt>
      <trkpt lat="51.424126038327813" lon="9.645081963390112">
        <ele>135.19999999999999</ele>
        <time>2017-10-30T14:09:10Z</time>
      </trkpt>
      <trkpt lat="51.424042973667383" lon="9.644995965063572">
        <ele>134.72</ele>
        <time>2017-10-30T14:09:11Z</time>
      </trkpt>
      <trkpt lat="51.423973990604281" lon="9.644876020029187">
        <ele>134.24000000000001</ele>
        <time>2017-10-30T14:09:12Z</time>
      </trkpt>
      <trkpt lat="51.423219032585621" lon="9.643191006034613">
        <ele>130.88</ele>
        <time>2017-10-30T14:09:23Z</time>
      </trkpt>
      <trkpt lat="51.42295902594924" lon="9.642635034397245">
        <ele>130.40000000000001</ele>
        <time>2017-10-30T14:09:28Z</time>
      </trkpt>
      <trkpt lat="51.42291996628046" lon="9.64256202802062">
        <ele>129.91999999999999</ele>
        <time>2017-10-30T14:09:29Z</time>
      </trkpt>
      <trkpt lat="51.422891970723867" lon="9.642506958916783">
        <ele>129.91999999999999</ele>
        <time>2017-10-30T14:09:30Z</time>
      </trkpt>
      <trkpt lat="51.422820976004004" lon="9.642372010275722">
        <ele>128.94999999999999</ele>
        <time>2017-10-30T14:09:35Z</time>
      </trkpt>
      <trkpt lat="51.422807984054089" lon="9.642348038032651">
        <ele>128.47</ele>
        <time>2017-10-30T14:09:36Z</time>
      </trkpt>
      <trkpt lat="51.422760039567947" lon="9.642290035262704">
        <ele>128.47</ele>
        <time>2017-10-30T14:09:38Z</time>
      </trkpt>
      <trkpt lat="51.422708993777633" lon="9.64223999530077">
        <ele>127.98999999999999</ele>
        <time>2017-10-30T14:09:39Z</time>
      </trkpt>
      <trkpt lat="51.422647973522544" lon="9.6421779692173">
        <ele>127.98999999999999</ele>
        <time>2017-10-30T14:09:40Z</time>
      </trkpt>
      <trkpt lat="51.422593994066119" lon="9.642129018902779">
        <ele>127.51000000000001</ele>
        <time>2017-10-30T14:09:41Z</time>
      </trkpt>
      <trkpt lat="51.422526016831398" lon="9.642104040831327">
        <ele>127.51000000000001</ele>
        <time>2017-10-30T14:09:42Z</time>
      </trkpt>
      <trkpt lat="51.42244697548449" lon="9.642086019739509">
        <ele>127.51000000000001</ele>
        <time>2017-10-30T14:09:43Z</time>
      </trkpt>
      <trkpt lat="51.422365000471473" lon="9.642066992819309">
        <ele>127.51000000000001</ele>
        <time>2017-10-30T14:09:44Z</time>
      </trkpt>
      <trkpt lat="51.422282019630075" lon="9.64204796589911">
        <ele>126.55</ele>
        <time>2017-10-30T14:09:45Z</time>
      </trkpt>
      <trkpt lat="51.422205995768309" lon="9.642073027789593">
        <ele>126.06999999999999</ele>
        <time>2017-10-30T14:09:46Z</time>
      </trkpt>
      <trkpt lat="51.421428993344307" lon="9.642463037744165">
        <ele>124.63</ele>
        <time>2017-10-30T14:09:55Z</time>
      </trkpt>
      <trkpt lat="51.421254985034466" lon="9.642590023577213">
        <ele>124.15000000000001</ele>
        <time>2017-10-30T14:09:57Z</time>
      </trkpt>
      <trkpt lat="51.421167980879545" lon="9.642655989155173">
        <ele>124.15000000000001</ele>
        <time>2017-10-30T14:09:58Z</time>
      </trkpt>
      <trkpt lat="51.420249994844198" lon="9.643876980990171">
        <ele>125.59</ele>
        <time>2017-10-30T14:10:09Z</time>
      </trkpt>
      <trkpt lat="51.419395040720701" lon="9.645041981711984">
        <ele>127.03</ele>
        <time>2017-10-30T14:10:19Z</time>
      </trkpt>
      <trkpt lat="51.41890000551939" lon="9.64550499804318">
        <ele>126.55</ele>
        <time>2017-10-30T14:10:24Z</time>
      </trkpt>
      <trkpt lat="51.417816979810596" lon="9.64604202657938">
        <ele>125.59</ele>
        <time>2017-10-30T14:10:32Z</time>
      </trkpt>
      <trkpt lat="51.417683959007263" lon="9.646048983559012">
        <ele>125.11</ele>
        <time>2017-10-30T14:10:33Z</time>
      </trkpt>
      <trkpt lat="51.417555967345834" lon="9.646057030186057">
        <ele>124.63</ele>
        <time>2017-10-30T14:10:34Z</time>
      </trkpt>
      <trkpt lat="51.417426969856024" lon="9.646036997437477">
        <ele>124.15000000000001</ele>
        <time>2017-10-30T14:10:35Z</time>
      </trkpt>
      <trkpt lat="51.417296966537833" lon="9.645993998274207">
        <ele>123.67</ele>
        <time>2017-10-30T14:10:36Z</time>
      </trkpt>
      <trkpt lat="51.417161012068391" lon="9.645942030474544">
        <ele>123.67</ele>
        <time>2017-10-30T14:10:37Z</time>
      </trkpt>
      <trkpt lat="51.417036959901452" lon="9.645846979692578">
        <ele>123.19</ele>
        <time>2017-10-30T14:10:38Z</time>
      </trkpt>
      <trkpt lat="51.416529016569257" lon="9.645513966679573">
        <ele>122.22</ele>
        <time>2017-10-30T14:10:42Z</time>
      </trkpt>
      <trkpt lat="51.415594015270472" lon="9.645023038610816">
        <ele>119.81999999999999</ele>
        <time>2017-10-30T14:10:50Z</time>
      </trkpt>
      <trkpt lat="51.415281035006046" lon="9.644936034455895">
        <ele>119.34</ele>
        <time>2017-10-30T14:10:54Z</time>
      </trkpt>
      <trkpt lat="51.415138961747289" lon="9.644910972565413">
        <ele>118.86</ele>
        <time>2017-10-30T14:11:01Z</time>
      </trkpt>
      <trkpt lat="51.415056986734271" lon="9.644896974787116">
        <ele>118.38</ele>
        <time>2017-10-30T14:11:12Z</time>
      </trkpt>
      <trkpt lat="51.415009964257479" lon="9.644889011979103">
        <ele>118.38</ele>
        <time>2017-10-30T14:11:13Z</time>
      </trkpt>
      <trkpt lat="51.414959002286196" lon="9.644966963678598">
        <ele>118.86</ele>
        <time>2017-10-30T14:11:14Z</time>
      </trkpt>
      <trkpt lat="51.414951961487532" lon="9.645057991147041">
        <ele>118.86</ele>
        <time>2017-10-30T14:11:15Z</time>
      </trkpt>
      <trkpt lat="51.414945004507899" lon="9.6451620105654">
        <ele>119.34</ele>
        <time>2017-10-30T14:11:16Z</time>
      </trkpt>
      <trkpt lat="51.414942992851138" lon="9.64526804164052">
        <ele>119.34</ele>
        <time>2017-10-30T14:11:17Z</time>
      </trkpt>
      <trkpt lat="51.414942992851138" lon="9.645388992503285">
        <ele>119.34</ele>
        <time>2017-10-30T14:11:18Z</time>
      </trkpt>
      <trkpt lat="51.414950033649802" lon="9.645515978336334">
        <ele>119.34</ele>
        <time>2017-10-30T14:11:19Z</time>
      </trkpt>
      <trkpt lat="51.414965037256479" lon="9.645668026059866">
        <ele>119.81999999999999</ele>
        <time>2017-10-30T14:11:20Z</time>
      </trkpt>
      <trkpt lat="51.414984986186028" lon="9.647267041727901">
        <ele>125.11</ele>
        <time>2017-10-30T14:11:30Z</time>
      </trkpt>
      <trkpt lat="51.415008036419749" lon="9.648271026089788">
        <ele>126.06999999999999</ele>
        <time>2017-10-30T14:11:39Z</time>
      </trkpt>
      <trkpt lat="51.415113983675838" lon="9.648553999140859">
        <ele>126.55</ele>
        <time>2017-10-30T14:11:44Z</time>
      </trkpt>
      <trkpt lat="51.415133010596037" lon="9.648604961112142">
        <ele>126.55</ele>
        <time>2017-10-30T14:11:45Z</time>
      </trkpt>
      <trkpt lat="51.415136028081179" lon="9.648614013567567">
        <ele>126.06999999999999</ele>
        <time>2017-10-30T14:11:46Z</time>
      </trkpt>
      <trkpt lat="51.41514197923243" lon="9.648612001910806">
        <ele>126.06999999999999</ele>
        <time>2017-10-30T14:11:47Z</time>
      </trkpt>
      <trkpt lat="51.41520501114428" lon="9.648591969162226">
        <ele>126.06999999999999</ele>
        <time>2017-10-30T14:11:48Z</time>
      </trkpt>
      <trkpt lat="51.415272988379002" lon="9.648570008575916">
        <ele>126.06999999999999</ele>
        <time>2017-10-30T14:11:49Z</time>
      </trkpt>
      <trkpt lat="51.416100030764937" lon="9.648402035236359">
        <ele>122.70999999999999</ele>
        <time>2017-10-30T14:12:00Z</time>
      </trkpt>
      <trkpt lat="51.416660025715828" lon="9.648571014404297">
        <ele>119.34</ele>
        <time>2017-10-30T14:12:09Z</time>
      </trkpt>
      <trkpt lat="51.416660025715828" lon="9.648571014404297">
        <ele>119.34</ele>
        <time>2017-10-30T14:12:10Z</time>
      </trkpt>
      <trkpt lat="51.416764967143536" lon="9.648703029379249">
        <ele>118.86</ele>
        <time>2017-10-30T14:12:13Z</time>
      </trkpt>
      <trkpt lat="51.416832022368908" lon="9.648786010220647">
        <ele>118.38</ele>
        <time>2017-10-30T14:12:16Z</time>
      </trkpt>
      <trkpt lat="51.416664971038699" lon="9.648555004969239">
        <ele>118.86</ele>
        <time>2017-10-30T14:12:17Z</time>
      </trkpt>
      <trkpt lat="51.416680980473757" lon="9.648506976664066">
        <ele>118.86</ele>
        <time>2017-10-30T14:12:18Z</time>
      </trkpt>
      <trkpt lat="51.416702019050717" lon="9.648425001651049">
        <ele>118.86</ele>
        <time>2017-10-30T14:12:19Z</time>
      </trkpt>
      <trkpt lat="51.416721967980266" lon="9.64834202080965">
        <ele>118.38</ele>
        <time>2017-10-30T14:12:20Z</time>
      </trkpt>
      <trkpt lat="51.416994966566563" lon="9.648243030533195">
        <ele>118.38</ele>
        <time>2017-10-30T14:12:24Z</time>
      </trkpt>
      <trkpt lat="51.41703000292182" lon="9.648269014433026">
        <ele>118.38</ele>
        <time>2017-10-30T14:12:25Z</time>
      </trkpt>
      <trkpt lat="51.417076019570231" lon="9.648303966969252">
        <ele>117.90000000000001</ele>
        <time>2017-10-30T14:12:26Z</time>
      </trkpt>
      <trkpt lat="51.417563008144498" lon="9.648495996370912">
        <ele>116.94</ele>
        <time>2017-10-30T14:12:33Z</time>
      </trkpt>
      <trkpt lat="51.418389966711402" lon="9.648408992215991">
        <ele>116.94</ele>
        <time>2017-10-30T14:12:43Z</time>
      </trkpt>
      <trkpt lat="51.418504966422915" lon="9.648399017751217">
        <ele>116.94</ele>
        <time>2017-10-30T14:12:44Z</time>
      </trkpt>
      <trkpt lat="51.418561963364482" lon="9.648426007479429">
        <ele>116.94</ele>
        <time>2017-10-30T14:12:45Z</time>
      </trkpt>
      <trkpt lat="51.418636981397867" lon="9.648460960015655">
        <ele>116.94</ele>
        <time>2017-10-30T14:12:46Z</time>
      </trkpt>
      <trkpt lat="51.418704958632588" lon="9.64849297888577">
        <ele>117.42</ele>
        <time>2017-10-30T14:12:47Z</time>
      </trkpt>
      <trkpt lat="51.41883403994143" lon="9.64855601079762">
        <ele>117.42</ele>
        <time>2017-10-30T14:12:49Z</time>
      </trkpt>
      <trkpt lat="51.418929006904364" lon="9.648650977760553">
        <ele>117.42</ele>
        <time>2017-10-30T14:12:51Z</time>
      </trkpt>
      <trkpt lat="51.418975023552775" lon="9.648698000237346">
        <ele>117.42</ele>
        <time>2017-10-30T14:12:52Z</time>
      </trkpt>
      <trkpt lat="51.419021040201187" lon="9.648744016885757">
        <ele>116.94</ele>
        <time>2017-10-30T14:12:53Z</time>
      </trkpt>
      <trkpt lat="51.4193070307374" lon="9.648939985781908">
        <ele>115.5</ele>
        <time>2017-10-30T14:12:59Z</time>
      </trkpt>
      <trkpt lat="51.419407026842237" lon="9.649000000208616">
        <ele>115.5</ele>
        <time>2017-10-30T14:13:00Z</time>
      </trkpt>
      <trkpt lat="51.419473998248577" lon="9.649000000208616">
        <ele>115.01000000000001</ele>
        <time>2017-10-30T14:13:02Z</time>
      </trkpt>
      <trkpt lat="51.419532001018524" lon="9.649000000208616">
        <ele>115.01000000000001</ele>
        <time>2017-10-30T14:13:03Z</time>
      </trkpt>
      <trkpt lat="51.419834000989795" lon="9.64896303601563">
        <ele>114.05</ele>
        <time>2017-10-30T14:13:08Z</time>
      </trkpt>
      <trkpt lat="51.419895021244884" lon="9.648953983560205">
        <ele>113.56999999999999</ele>
        <time>2017-10-30T14:13:09Z</time>
      </trkpt>
      <trkpt lat="51.41995201818645" lon="9.648945014923811">
        <ele>113.09</ele>
        <time>2017-10-30T14:13:10Z</time>
      </trkpt>
      <trkpt lat="51.420149998739362" lon="9.648916013538837">
        <ele>112.61</ele>
        <time>2017-10-30T14:13:14Z</time>
      </trkpt>
      <trkpt lat="51.420195009559393" lon="9.648909978568554">
        <ele>112.61</ele>
        <time>2017-10-30T14:13:15Z</time>
      </trkpt>
      <trkpt lat="51.420235997065902" lon="9.648904027417302">
        <ele>113.09</ele>
        <time>2017-10-30T14:13:16Z</time>
      </trkpt>
      <trkpt lat="51.420310009270906" lon="9.648887012153864">
        <ele>113.09</ele>
        <time>2017-10-30T14:13:17Z</time>
      </trkpt>
      <trkpt lat="51.420332975685596" lon="9.648833032697439">
        <ele>113.56999999999999</ele>
        <time>2017-10-30T14:13:18Z</time>
      </trkpt>
      <trkpt lat="51.420354014262557" lon="9.648785004392266">
        <ele>114.05</ele>
        <time>2017-10-30T14:13:19Z</time>
      </trkpt>
      <trkpt lat="51.420372035354376" lon="9.648743011057377">
        <ele>114.53</ele>
        <time>2017-10-30T14:13:20Z</time>
      </trkpt>
      <trkpt lat="51.420372035354376" lon="9.648743011057377">
        <ele>115.98</ele>
        <time>2017-10-30T14:13:22Z</time>
      </trkpt>
      <trkpt lat="51.420386033132672" lon="9.648628011345863">
        <ele>116.45999999999999</ele>
        <time>2017-10-30T14:13:23Z</time>
      </trkpt>
      <trkpt lat="51.420391984283924" lon="9.648586018010974">
        <ele>116.94</ele>
        <time>2017-10-30T14:13:24Z</time>
      </trkpt>
      <trkpt lat="51.420393995940685" lon="9.648571014404297">
        <ele>116.94</ele>
        <time>2017-10-30T14:13:25Z</time>
      </trkpt>
      <trkpt lat="51.420393995940685" lon="9.648571014404297">
        <ele>116.94</ele>
        <time>2017-10-30T14:13:26Z</time>
      </trkpt>
      <trkpt lat="51.420393995940685" lon="9.648494990542531">
        <ele>116.94</ele>
        <time>2017-10-30T14:13:27Z</time>
      </trkpt>
      <trkpt lat="51.420393995940685" lon="9.648485016077757">
        <ele>117.42</ele>
        <time>2017-10-30T14:13:28Z</time>
      </trkpt>
      <trkpt lat="51.420393995940685" lon="9.648485016077757">
        <ele>117.90000000000001</ele>
        <time>2017-10-30T14:13:29Z</time>
      </trkpt>
      <trkpt lat="51.420383015647531" lon="9.648464983329177">
        <ele>117.90000000000001</ele>
        <time>2017-10-30T14:13:30Z</time>
      </trkpt>
      <trkpt lat="51.420375974848866" lon="9.64845098555088">
        <ele>118.38</ele>
        <time>2017-10-30T14:13:31Z</time>
      </trkpt>
      <trkpt lat="51.420375974848866" lon="9.64845098555088">
        <ele>117.90000000000001</ele>
        <time>2017-10-30T14:13:46Z</time>
      </trkpt>
      <trkpt lat="51.420375974848866" lon="9.64845098555088">
        <ele>118.38</ele>
        <time>2017-10-30T14:14:38Z</time>
      </trkpt>
      <trkpt lat="51.420439006760716" lon="9.648489961400628">
        <ele>124.63</ele>
        <time>2017-10-30T14:17:22Z</time>
      </trkpt>
      <trkpt lat="51.420389972627163" lon="9.648421984165907">
        <ele>123.67</ele>
        <time>2017-10-30T14:18:04Z</time>
      </trkpt>
      <trkpt lat="51.420411011204123" lon="9.648397006094456">
        <ele>125.11</ele>
        <time>2017-10-30T14:19:00Z</time>
      </trkpt>
      <trkpt lat="51.420402964577079" lon="9.64838501997292">
        <ele>126.55</ele>
        <time>2017-10-30T14:19:49Z</time>
      </trkpt>
      <trkpt lat="51.420401958748698" lon="9.648387031629682">
        <ele>126.55</ele>
        <time>2017-10-30T14:20:36Z</time>
      </trkpt>
      <trkpt lat="51.420149998739362" lon="9.648216040804982">
        <ele>125.59</ele>
        <time>2017-10-30T14:20:47Z</time>
      </trkpt>
      <trkpt lat="51.419990994036198" lon="9.648152003064752">
        <ele>125.11</ele>
        <time>2017-10-30T14:20:49Z</time>
      </trkpt>
      <trkpt lat="51.419907007366419" lon="9.648118978366256">
        <ele>124.63</ele>
        <time>2017-10-30T14:20:50Z</time>
      </trkpt>
      <trkpt lat="51.419750014320016" lon="9.648056030273438">
        <ele>123.67</ele>
        <time>2017-10-30T14:20:52Z</time>
      </trkpt>
      <trkpt lat="51.419692011550069" lon="9.648056030273438">
        <ele>123.19</ele>
        <time>2017-10-30T14:20:53Z</time>
      </trkpt>
      <trkpt lat="51.419631997123361" lon="9.648095006123185">
        <ele>123.19</ele>
        <time>2017-10-30T14:20:54Z</time>
      </trkpt>
      <trkpt lat="51.419578017666936" lon="9.648132976144552">
        <ele>122.70999999999999</ele>
        <time>2017-10-30T14:20:55Z</time>
      </trkpt>
      <trkpt lat="51.419524038210511" lon="9.648171029984951">
        <ele>122.22</ele>
        <time>2017-10-30T14:20:56Z</time>
      </trkpt>
      <trkpt lat="51.419472992420197" lon="9.648207994177938">
        <ele>121.73999999999999</ele>
        <time>2017-10-30T14:20:57Z</time>
      </trkpt>
      <trkpt lat="51.419419012963772" lon="9.648245964199305">
        <ele>121.26000000000001</ele>
        <time>2017-10-30T14:20:58Z</time>
      </trkpt>
      <trkpt lat="51.419146014377475" lon="9.648441011086106">
        <ele>120.3</ele>
        <time>2017-10-30T14:21:03Z</time>
      </trkpt>
      <trkpt lat="51.419084994122386" lon="9.648485016077757">
        <ele>119.81999999999999</ele>
        <time>2017-10-30T14:21:04Z</time>
      </trkpt>
      <trkpt lat="51.41896597109735" lon="9.648515023291111">
        <ele>119.34</ele>
        <time>2017-10-30T14:21:06Z</time>
      </trkpt>
      <trkpt lat="51.418902017176151" lon="9.648531032726169">
        <ele>119.34</ele>
        <time>2017-10-30T14:21:07Z</time>
      </trkpt>
      <trkpt lat="51.418826999142766" lon="9.648549975827336">
        <ele>118.86</ele>
        <time>2017-10-30T14:21:08Z</time>
      </trkpt>
      <trkpt lat="51.418705964460969" lon="9.64849297888577">
        <ele>118.38</ele>
        <time>2017-10-30T14:21:10Z</time>
      </trkpt>
      <trkpt lat="51.418643016368151" lon="9.648463977500796">
        <ele>118.86</ele>
        <time>2017-10-30T14:21:11Z</time>
      </trkpt>
      <trkpt lat="51.418572021648288" lon="9.648431036621332">
        <ele>119.34</ele>
        <time>2017-10-30T14:21:12Z</time>
      </trkpt>
      <trkpt lat="51.418497003614902" lon="9.648400023579598">
        <ele>118.86</ele>
        <time>2017-10-30T14:21:13Z</time>
      </trkpt>
      <trkpt lat="51.418417962267995" lon="9.64840698055923">
        <ele>118.86</ele>
        <time>2017-10-30T14:21:14Z</time>
      </trkpt>
      <trkpt lat="51.418334981426597" lon="9.648414021357894">
        <ele>118.86</ele>
        <time>2017-10-30T14:21:15Z</time>
      </trkpt>
      <trkpt lat="51.41825501807034" lon="9.648419972509146">
        <ele>118.86</ele>
        <time>2017-10-30T14:21:16Z</time>
      </trkpt>
      <trkpt lat="51.417697034776211" lon="9.648522986099124">
        <ele>120.3</ele>
        <time>2017-10-30T14:21:23Z</time>
      </trkpt>
      <trkpt lat="51.417614975944161" lon="9.648512005805969">
        <ele>120.3</ele>
        <time>2017-10-30T14:21:24Z</time>
      </trkpt>
      <trkpt lat="51.417540041729808" lon="9.648489039391279">
        <ele>120.3</ele>
        <time>2017-10-30T14:21:25Z</time>
      </trkpt>
      <trkpt lat="51.417309958487749" lon="9.648418966680765">
        <ele>119.34</ele>
        <time>2017-10-30T14:21:28Z</time>
      </trkpt>
      <trkpt lat="51.417169980704784" lon="9.648374961689115">
        <ele>118.86</ele>
        <time>2017-10-30T14:21:30Z</time>
      </trkpt>
      <trkpt lat="51.417119018733501" lon="9.648335985839367">
        <ele>118.38</ele>
        <time>2017-10-30T14:21:31Z</time>
      </trkpt>
      <trkpt lat="51.417045006528497" lon="9.648279994726181">
        <ele>117.90000000000001</ele>
        <time>2017-10-30T14:21:33Z</time>
      </trkpt>
      <trkpt lat="51.41701097600162" lon="9.64825501665473">
        <ele>117.90000000000001</ele>
        <time>2017-10-30T14:21:34Z</time>
      </trkpt>
      <trkpt lat="51.416832022368908" lon="9.648120990023017">
        <ele>117.90000000000001</ele>
        <time>2017-10-30T14:21:35Z</time>
      </trkpt>
      <trkpt lat="51.416660025715828" lon="9.648571014404297">
        <ele>118.38</ele>
        <time>2017-10-30T14:21:42Z</time>
      </trkpt>
      <trkpt lat="51.416660025715828" lon="9.648571014404297">
        <ele>118.86</ele>
        <time>2017-10-30T14:21:43Z</time>
      </trkpt>
      <trkpt lat="51.416660025715828" lon="9.648571014404297">
        <ele>118.86</ele>
        <time>2017-10-30T14:21:44Z</time>
      </trkpt>
      <trkpt lat="51.416291976347566" lon="9.648452997207642">
        <ele>119.81999999999999</ele>
        <time>2017-10-30T14:21:49Z</time>
      </trkpt>
      <trkpt lat="51.416049990803003" lon="9.648405974730849">
        <ele>118.38</ele>
        <time>2017-10-30T14:21:52Z</time>
      </trkpt>
      <trkpt lat="51.415662998333573" lon="9.648445034399629">
        <ele>116.45999999999999</ele>
        <time>2017-10-30T14:21:57Z</time>
      </trkpt>
      <trkpt lat="51.415436016395688" lon="9.648518040776253">
        <ele>116.45999999999999</ele>
        <time>2017-10-30T14:22:01Z</time>
      </trkpt>
      <trkpt lat="51.415244992822409" lon="9.64857897721231">
        <ele>117.90000000000001</ele>
        <time>2017-10-30T14:22:10Z</time>
      </trkpt>
      <trkpt lat="51.415071990340948" lon="9.648443022742868">
        <ele>125.59</ele>
        <time>2017-10-30T14:22:32Z</time>
      </trkpt>
      <trkpt lat="51.415047012269497" lon="9.648376973345876">
        <ele>125.59</ele>
        <time>2017-10-30T14:22:33Z</time>
      </trkpt>
      <trkpt lat="51.415008036419749" lon="9.648271026089788">
        <ele>126.06999999999999</ele>
        <time>2017-10-30T14:22:34Z</time>
      </trkpt>
      <trkpt lat="51.414993032813072" lon="9.647640036419034">
        <ele>127.03</ele>
        <time>2017-10-30T14:22:39Z</time>
      </trkpt>
      <trkpt lat="51.414965037256479" lon="9.645636007189751">
        <ele>127.98999999999999</ele>
        <time>2017-10-30T14:22:51Z</time>
      </trkpt>
      <trkpt lat="51.414942992851138" lon="9.645435009151697">
        <ele>127.51000000000001</ele>
        <time>2017-10-30T14:22:53Z</time>
      </trkpt>
      <trkpt lat="51.414942992851138" lon="9.645374994724989">
        <ele>127.03</ele>
        <time>2017-10-30T14:22:54Z</time>
      </trkpt>
      <trkpt lat="51.414942992851138" lon="9.645329983904958">
        <ele>127.03</ele>
        <time>2017-10-30T14:22:55Z</time>
      </trkpt>
      <trkpt lat="51.414942992851138" lon="9.645294025540352">
        <ele>126.55</ele>
        <time>2017-10-30T14:22:56Z</time>
      </trkpt>
      <trkpt lat="51.414942992851138" lon="9.645294025540352">
        <ele>126.06999999999999</ele>
        <time>2017-10-30T14:22:57Z</time>
      </trkpt>
      <trkpt lat="51.414942992851138" lon="9.645294025540352">
        <ele>125.11</ele>
        <time>2017-10-30T14:23:15Z</time>
      </trkpt>
      <trkpt lat="51.414948021993041" lon="9.645120017230511">
        <ele>124.15000000000001</ele>
        <time>2017-10-30T14:23:50Z</time>
      </trkpt>
      <trkpt lat="51.414952967315912" lon="9.645049022510648">
        <ele>125.11</ele>
        <time>2017-10-30T14:23:51Z</time>
      </trkpt>
      <trkpt lat="51.414956990629435" lon="9.644982973113656">
        <ele>125.11</ele>
        <time>2017-10-30T14:23:52Z</time>
      </trkpt>
      <trkpt lat="51.414922038093209" lon="9.644871996715665">
        <ele>125.11</ele>
        <time>2017-10-30T14:23:53Z</time>
      </trkpt>
      <trkpt lat="51.414862023666501" lon="9.64486001059413">
        <ele>125.11</ele>
        <time>2017-10-30T14:23:54Z</time>
      </trkpt>
      <trkpt lat="51.414790023118258" lon="9.644846012815833">
        <ele>125.11</ele>
        <time>2017-10-30T14:23:55Z</time>
      </trkpt>
      <trkpt lat="51.414709975942969" lon="9.644828997552395">
        <ele>125.11</ele>
        <time>2017-10-30T14:23:56Z</time>
      </trkpt>
      <trkpt lat="51.414621965959668" lon="9.644811982288957">
        <ele>125.11</ele>
        <time>2017-10-30T14:23:57Z</time>
      </trkpt>
      <trkpt lat="51.41451601870358" lon="9.644779963418841">
        <ele>125.11</ele>
        <time>2017-10-30T14:23:58Z</time>
      </trkpt>
      <trkpt lat="51.414424991235137" lon="9.644721960648894">
        <ele>125.11</ele>
        <time>2017-10-30T14:23:59Z</time>
      </trkpt>
      <trkpt lat="51.413632985204458" lon="9.644347038120031">
        <ele>125.11</ele>
        <time>2017-10-30T14:24:06Z</time>
      </trkpt>
      <trkpt lat="51.413435004651546" lon="9.644373022019863">
        <ele>125.59</ele>
        <time>2017-10-30T14:24:08Z</time>
      </trkpt>
      <trkpt lat="51.413345988839865" lon="9.644385008141398">
        <ele>125.59</ele>
        <time>2017-10-30T14:24:09Z</time>
      </trkpt>
      <trkpt lat="51.413040971383452" lon="9.644425995647907">
        <ele>124.15000000000001</ele>
        <time>2017-10-30T14:24:16Z</time>
      </trkpt>
      <trkpt lat="51.41290501691401" lon="9.64443001896143">
        <ele>122.22</ele>
        <time>2017-10-30T14:24:26Z</time>
      </trkpt>
      <trkpt lat="51.412522969767451" lon="9.644394982606173">
        <ele>122.22</ele>
        <time>2017-10-30T14:24:31Z</time>
      </trkpt>
      <trkpt lat="51.412445018067956" lon="9.644370004534721">
        <ele>122.22</ele>
        <time>2017-10-30T14:24:32Z</time>
      </trkpt>
      <trkpt lat="51.41236899420619" lon="9.644318036735058">
        <ele>122.70999999999999</ele>
        <time>2017-10-30T14:24:33Z</time>
      </trkpt>
      <trkpt lat="51.412295987829566" lon="9.644262967631221">
        <ele>122.70999999999999</ele>
        <time>2017-10-30T14:24:34Z</time>
      </trkpt>
      <trkpt lat="51.412224993109703" lon="9.644174035638571">
        <ele>122.70999999999999</ele>
        <time>2017-10-30T14:24:35Z</time>
      </trkpt>
      <trkpt lat="51.41217595897615" lon="9.64408703148365">
        <ele>122.70999999999999</ele>
        <time>2017-10-30T14:24:36Z</time>
      </trkpt>
      <trkpt lat="51.41213002614677" lon="9.644005978479981">
        <ele>123.19</ele>
        <time>2017-10-30T14:24:37Z</time>
      </trkpt>
      <trkpt lat="51.412080992013216" lon="9.643919980153441">
        <ele>123.19</ele>
        <time>2017-10-30T14:24:38Z</time>
      </trkpt>
      <trkpt lat="51.412028018385172" lon="9.643825013190508">
        <ele>123.19</ele>
        <time>2017-10-30T14:24:39Z</time>
      </trkpt>
      <trkpt lat="51.411974038928747" lon="9.643729040399194">
        <ele>123.19</ele>
        <time>2017-10-30T14:24:40Z</time>
      </trkpt>
      <trkpt lat="51.411916958168149" lon="9.643628960475326">
        <ele>123.67</ele>
        <time>2017-10-30T14:24:41Z</time>
      </trkpt>
      <trkpt lat="51.411836994811893" lon="9.643561989068985">
        <ele>123.67</ele>
        <time>2017-10-30T14:24:42Z</time>
      </trkpt>
      <trkpt lat="51.411748984828591" lon="9.643515972420573">
        <ele>123.67</ele>
        <time>2017-10-30T14:24:43Z</time>
      </trkpt>
      <trkpt lat="51.411664998158813" lon="9.643472973257303">
        <ele>123.67</ele>
        <time>2017-10-30T14:24:44Z</time>
      </trkpt>
      <trkpt lat="51.411583023145795" lon="9.643429974094033">
        <ele>123.67</ele>
        <time>2017-10-30T14:24:45Z</time>
      </trkpt>
      <trkpt lat="51.410774001851678" lon="9.643245991319418">
        <ele>125.11</ele>
        <time>2017-10-30T14:24:54Z</time>
      </trkpt>
      <trkpt lat="51.410166984423995" lon="9.643187988549471">
        <ele>127.98999999999999</ele>
        <time>2017-10-30T14:25:02Z</time>
      </trkpt>
      <trkpt lat="51.40996003523469" lon="9.643165022134781">
        <ele>129.43000000000001</ele>
        <time>2017-10-30T14:25:05Z</time>
      </trkpt>
      <trkpt lat="51.409128969535232" lon="9.64320600964129">
        <ele>135.19999999999999</ele>
        <time>2017-10-30T14:25:13Z</time>
      </trkpt>
      <trkpt lat="51.408252976834774" lon="9.643259989097714">
        <ele>135.68000000000001</ele>
        <time>2017-10-30T14:25:21Z</time>
      </trkpt>
      <trkpt lat="51.408162033185363" lon="9.643253032118082">
        <ele>134.72</ele>
        <time>2017-10-30T14:25:22Z</time>
      </trkpt>
      <trkpt lat="51.408060025423765" lon="9.643200980499387">
        <ele>134.24000000000001</ele>
        <time>2017-10-30T14:25:23Z</time>
      </trkpt>
      <trkpt lat="51.407968997955322" lon="9.643126968294382">
        <ele>133.75999999999999</ele>
        <time>2017-10-30T14:25:24Z</time>
      </trkpt>
      <trkpt lat="51.407873025164008" lon="9.643049016594887">
        <ele>133.28</ele>
        <time>2017-10-30T14:25:25Z</time>
      </trkpt>
      <trkpt lat="51.407775962725282" lon="9.64297098107636">
        <ele>133.28</ele>
        <time>2017-10-30T14:25:26Z</time>
      </trkpt>
      <trkpt lat="51.407692981883883" lon="9.642858998849988">
        <ele>132.80000000000001</ele>
        <time>2017-10-30T14:25:27Z</time>
      </trkpt>
      <trkpt lat="51.406727973371744" lon="9.641667008399963">
        <ele>131.84</ele>
        <time>2017-10-30T14:25:38Z</time>
      </trkpt>
      <trkpt lat="51.406063036993146" lon="9.640969969332218">
        <ele>131.84</ele>
        <time>2017-10-30T14:25:45Z</time>
      </trkpt>
      <trkpt lat="51.405909983441234" lon="9.640686996281147">
        <ele>131.84</ele>
        <time>2017-10-30T14:25:47Z</time>
      </trkpt>
      <trkpt lat="51.405056035146117" lon="9.639113964512944">
        <ele>130.88</ele>
        <time>2017-10-30T14:25:57Z</time>
      </trkpt>
      <trkpt lat="51.404774989932775" lon="9.638593029230833">
        <ele>131.36000000000001</ele>
        <time>2017-10-30T14:26:00Z</time>
      </trkpt>
      <trkpt lat="51.4046770054847" lon="9.638411980122328">
        <ele>131.84</ele>
        <time>2017-10-30T14:26:01Z</time>
      </trkpt>
      <trkpt lat="51.404469972476363" lon="9.63807100430131">
        <ele>132.31999999999999</ele>
        <time>2017-10-30T14:26:03Z</time>
      </trkpt>
      <trkpt lat="51.404036041349173" lon="9.637391986325383">
        <ele>133.75999999999999</ele>
        <time>2017-10-30T14:26:07Z</time>
      </trkpt>
      <trkpt lat="51.403930010274053" lon="9.637202974408865">
        <ele>133.75999999999999</ele>
        <time>2017-10-30T14:26:08Z</time>
      </trkpt>
      <trkpt lat="51.403849041089416" lon="9.636974986642599">
        <ele>133.75999999999999</ele>
        <time>2017-10-30T14:26:09Z</time>
      </trkpt>
      <trkpt lat="51.40368802472949" lon="9.636516999453306">
        <ele>133.28</ele>
        <time>2017-10-30T14:26:11Z</time>
      </trkpt>
      <trkpt lat="51.403628010302782" lon="9.636274008080363">
        <ele>132.80000000000001</ele>
        <time>2017-10-30T14:26:12Z</time>
      </trkpt>
      <trkpt lat="51.403529020026326" lon="9.635745026171207">
        <ele>132.31999999999999</ele>
        <time>2017-10-30T14:26:14Z</time>
      </trkpt>
      <trkpt lat="51.403528014197946" lon="9.635186959058046">
        <ele>131.84</ele>
        <time>2017-10-30T14:26:16Z</time>
      </trkpt>
      <trkpt lat="51.403734041377902" lon="9.632438030093908">
        <ele>130.40000000000001</ele>
        <time>2017-10-30T14:26:25Z</time>
      </trkpt>
      <trkpt lat="51.404334018006921" lon="9.628058988600969">
        <ele>129.91999999999999</ele>
        <time>2017-10-30T14:26:38Z</time>
      </trkpt>
      <trkpt lat="51.40433301217854" lon="9.625907018780708">
        <ele>129.43000000000001</ele>
        <time>2017-10-30T14:26:44Z</time>
      </trkpt>
      <trkpt lat="51.404314991086721" lon="9.625536035746336">
        <ele>129.43000000000001</ele>
        <time>2017-10-30T14:26:45Z</time>
      </trkpt>
      <trkpt lat="51.404403001070023" lon="9.622932029888034">
        <ele>130.40000000000001</ele>
        <time>2017-10-30T14:26:52Z</time>
      </trkpt>
      <trkpt lat="51.404958972707391" lon="9.62047403678298">
        <ele>131.84</ele>
        <time>2017-10-30T14:26:59Z</time>
      </trkpt>
      <trkpt lat="51.405217973515391" lon="9.617967009544373">
        <ele>131.84</ele>
        <time>2017-10-30T14:27:06Z</time>
      </trkpt>
      <trkpt lat="51.405588034540415" lon="9.61499503813684">
        <ele>128.94999999999999</ele>
        <time>2017-10-30T14:27:14Z</time>
      </trkpt>
      <trkpt lat="51.405878970399499" lon="9.611852997913957">
        <ele>129.43000000000001</ele>
        <time>2017-10-30T14:27:22Z</time>
      </trkpt>
      <trkpt lat="51.405628016218543" lon="9.609328033402562">
        <ele>129.91999999999999</ele>
        <time>2017-10-30T14:27:28Z</time>
      </trkpt>
      <trkpt lat="51.405416959896684" lon="9.606910021975637">
        <ele>129.91999999999999</ele>
        <time>2017-10-30T14:27:34Z</time>
      </trkpt>
      <trkpt lat="51.40532199293375" lon="9.606535015627742">
        <ele>129.91999999999999</ele>
        <time>2017-10-30T14:27:35Z</time>
      </trkpt>
      <trkpt lat="51.405223002657294" lon="9.606149028986692">
        <ele>129.91999999999999</ele>
        <time>2017-10-30T14:27:36Z</time>
      </trkpt>
      <trkpt lat="51.405103979632258" lon="9.60577704012394">
        <ele>129.91999999999999</ele>
        <time>2017-10-30T14:27:37Z</time>
      </trkpt>
      <trkpt lat="51.404967019334435" lon="9.605411002412438">
        <ele>129.91999999999999</ele>
        <time>2017-10-30T14:27:38Z</time>
      </trkpt>
      <trkpt lat="51.40340999700129" lon="9.601773004978895">
        <ele>131.84</ele>
        <time>2017-10-30T14:27:48Z</time>
      </trkpt>
      <trkpt lat="51.401660023257136" lon="9.597928980365396">
        <ele>135.68000000000001</ele>
        <time>2017-10-30T14:27:59Z</time>
      </trkpt>
      <trkpt lat="51.401232965290546" lon="9.595729988068342">
        <ele>137.13</ele>
        <time>2017-10-30T14:28:05Z</time>
      </trkpt>
      <trkpt lat="51.401199018582702" lon="9.595363028347492">
        <ele>137.13</ele>
        <time>2017-10-30T14:28:06Z</time>
      </trkpt>
      <trkpt lat="51.401409991085529" lon="9.592860024422407">
        <ele>135.19999999999999</ele>
        <time>2017-10-30T14:28:13Z</time>
      </trkpt>
      <trkpt lat="51.401589028537273" lon="9.592269016429782">
        <ele>134.24000000000001</ele>
        <time>2017-10-30T14:28:15Z</time>
      </trkpt>
      <trkpt lat="51.401696987450123" lon="9.592005992308259">
        <ele>133.75999999999999</ele>
        <time>2017-10-30T14:28:16Z</time>
      </trkpt>
      <trkpt lat="51.401939978823066" lon="9.59155797958374">
        <ele>132.31999999999999</ele>
        <time>2017-10-30T14:28:18Z</time>
      </trkpt>
      <trkpt lat="51.402091020718217" lon="9.591327980160713">
        <ele>131.36000000000001</ele>
        <time>2017-10-30T14:28:19Z</time>
      </trkpt>
      <trkpt lat="51.402254970744252" lon="9.59112798795104">
        <ele>130.88</ele>
        <time>2017-10-30T14:28:20Z</time>
      </trkpt>
      <trkpt lat="51.4024200104177" lon="9.590924978256226">
        <ele>130.40000000000001</ele>
        <time>2017-10-30T14:28:21Z</time>
      </trkpt>
      <trkpt lat="51.402589995414019" lon="9.59071802906692">
        <ele>129.91999999999999</ele>
        <time>2017-10-30T14:28:22Z</time>
      </trkpt>
      <trkpt lat="51.402903981506824" lon="9.590283008292317">
        <ele>129.91999999999999</ele>
        <time>2017-10-30T14:28:24Z</time>
      </trkpt>
      <trkpt lat="51.403038008138537" lon="9.590054014697671">
        <ele>129.91999999999999</ele>
        <time>2017-10-30T14:28:25Z</time>
      </trkpt>
      <trkpt lat="51.403156025335193" lon="9.589803982526064">
        <ele>129.91999999999999</ele>
        <time>2017-10-30T14:28:26Z</time>
      </trkpt>
      <trkpt lat="51.403834037482738" lon="9.587747985497117">
        <ele>129.43000000000001</ele>
        <time>2017-10-30T14:28:33Z</time>
      </trkpt>
      <trkpt lat="51.403888016939163" lon="9.587429976090789">
        <ele>129.43000000000001</ele>
        <time>2017-10-30T14:28:34Z</time>
      </trkpt>
      <trkpt lat="51.404090020805597" lon="9.585525020956993">
        <ele>128.47</ele>
        <time>2017-10-30T14:28:41Z</time>
      </trkpt>
      <trkpt lat="51.404098989441991" lon="9.584622960537672">
        <ele>127.98999999999999</ele>
        <time>2017-10-30T14:28:46Z</time>
      </trkpt>
      <trkpt lat="51.404089014977217" lon="9.584450041875243">
        <ele>127.98999999999999</ele>
        <time>2017-10-30T14:28:47Z</time>
      </trkpt>
      <trkpt lat="51.404021037742496" lon="9.583909995853901">
        <ele>127.51000000000001</ele>
        <time>2017-10-30T14:28:50Z</time>
      </trkpt>
      <trkpt lat="51.403582999482751" lon="9.582169996574521">
        <ele>127.51000000000001</ele>
        <time>2017-10-30T14:28:59Z</time>
      </trkpt>
      <trkpt lat="51.403199024498463" lon="9.581339014694095">
        <ele>126.06999999999999</ele>
        <time>2017-10-30T14:29:05Z</time>
      </trkpt>
      <trkpt lat="51.403127023950219" lon="9.581064004451037">
        <ele>125.11</ele>
        <time>2017-10-30T14:29:07Z</time>
      </trkpt>
      <trkpt lat="51.403093999251723" lon="9.580917991697788">
        <ele>125.11</ele>
        <time>2017-10-30T14:29:08Z</time>
      </trkpt>
      <trkpt lat="51.403076983988285" lon="9.580768961459398">
        <ele>124.63</ele>
        <time>2017-10-30T14:29:09Z</time>
      </trkpt>
      <trkpt lat="51.403060974553227" lon="9.580629989504814">
        <ele>124.15000000000001</ele>
        <time>2017-10-30T14:29:10Z</time>
      </trkpt>
      <trkpt lat="51.403046976774931" lon="9.580509960651398">
        <ele>124.15000000000001</ele>
        <time>2017-10-30T14:29:11Z</time>
      </trkpt>
      <trkpt lat="51.403035996481776" lon="9.580408036708832">
        <ele>123.67</ele>
        <time>2017-10-30T14:29:12Z</time>
      </trkpt>
      <trkpt lat="51.403027027845383" lon="9.580328995361924">
        <ele>123.67</ele>
        <time>2017-10-30T14:29:13Z</time>
      </trkpt>
      <trkpt lat="51.403072960674763" lon="9.580184994265437">
        <ele>123.67</ele>
        <time>2017-10-30T14:29:14Z</time>
      </trkpt>
      <trkpt lat="51.403117971494794" lon="9.58016898483038">
        <ele>123.67</ele>
        <time>2017-10-30T14:29:15Z</time>
      </trkpt>
      <trkpt lat="51.403176980093122" lon="9.58014702424407">
        <ele>123.19</ele>
        <time>2017-10-30T14:29:16Z</time>
      </trkpt>
      <trkpt lat="51.403247974812984" lon="9.580121040344238">
        <ele>123.67</ele>
        <time>2017-10-30T14:29:17Z</time>
      </trkpt>
      <trkpt lat="51.403763964772224" lon="9.579934040084481">
        <ele>126.55</ele>
        <time>2017-10-30T14:29:23Z</time>
      </trkpt>
      <trkpt lat="51.403820961713791" lon="9.579913001507521">
        <ele>127.51000000000001</ele>
        <time>2017-10-30T14:29:24Z</time>
      </trkpt>
      <trkpt lat="51.403864966705441" lon="9.579896992072463">
        <ele>127.98999999999999</ele>
        <time>2017-10-30T14:29:25Z</time>
      </trkpt>
      <trkpt lat="51.403910983353853" lon="9.579879976809025">
        <ele>128.94999999999999</ele>
        <time>2017-10-30T14:29:26Z</time>
      </trkpt>
      <trkpt lat="51.403954988345504" lon="9.579791966825724">
        <ele>129.43000000000001</ele>
        <time>2017-10-30T14:29:27Z</time>
      </trkpt>
      <trkpt lat="51.403951970860362" lon="9.579691970720887">
        <ele>130.40000000000001</ele>
        <time>2017-10-30T14:29:28Z</time>
      </trkpt>
      <trkpt lat="51.403948031365871" lon="9.579560961574316">
        <ele>131.36000000000001</ele>
        <time>2017-10-30T14:29:29Z</time>
      </trkpt>
      <trkpt lat="51.403944008052349" lon="9.579410003498197">
        <ele>131.84</ele>
        <time>2017-10-30T14:29:30Z</time>
      </trkpt>
      <trkpt lat="51.403921963647008" lon="9.577776035293937">
        <ele>134.24000000000001</ele>
        <time>2017-10-30T14:29:39Z</time>
      </trkpt>
      <trkpt lat="51.403915006667376" lon="9.577069021761417">
        <ele>134.24000000000001</ele>
        <time>2017-10-30T14:29:43Z</time>
      </trkpt>
      <trkpt lat="51.403952976688743" lon="9.576889984309673">
        <ele>133.75999999999999</ele>
        <time>2017-10-30T14:29:44Z</time>
      </trkpt>
      <trkpt lat="51.403997987508774" lon="9.576725028455257">
        <ele>133.28</ele>
        <time>2017-10-30T14:29:45Z</time>
      </trkpt>
      <trkpt lat="51.404392020776868" lon="9.575231038033962">
        <ele>132.80000000000001</ele>
        <time>2017-10-30T14:29:55Z</time>
      </trkpt>
      <trkpt lat="51.404415993019938" lon="9.575076978653669">
        <ele>132.80000000000001</ele>
        <time>2017-10-30T14:29:56Z</time>
      </trkpt>
      <trkpt lat="51.404439965263009" lon="9.574917973950505">
        <ele>132.80000000000001</ele>
        <time>2017-10-30T14:29:57Z</time>
      </trkpt>
      <trkpt lat="51.404465027153492" lon="9.574760980904102">
        <ele>133.28</ele>
        <time>2017-10-30T14:29:58Z</time>
      </trkpt>
      <trkpt lat="51.404465027153492" lon="9.574586972594261">
        <ele>133.28</ele>
        <time>2017-10-30T14:29:59Z</time>
      </trkpt>
      <trkpt lat="51.404454968869686" lon="9.574417993426323">
        <ele>133.75999999999999</ele>
        <time>2017-10-30T14:30:00Z</time>
      </trkpt>
      <trkpt lat="51.404446000233293" lon="9.574249014258385">
        <ele>133.28</ele>
        <time>2017-10-30T14:30:01Z</time>
      </trkpt>
      <trkpt lat="51.404436025768518" lon="9.574081962928176">
        <ele>133.28</ele>
        <time>2017-10-30T14:30:02Z</time>
      </trkpt>
      <trkpt lat="51.404279032722116" lon="9.571826979517937">
        <ele>138.09</ele>
        <time>2017-10-30T14:30:15Z</time>
      </trkpt>
      <trkpt lat="51.404163027182221" lon="9.570103995501995">
        <ele>143.37</ele>
        <time>2017-10-30T14:30:21Z</time>
      </trkpt>
      <trkpt lat="51.404085997492075" lon="9.567537037655711">
        <ele>153.47</ele>
        <time>2017-10-30T14:30:28Z</time>
      </trkpt>
      <trkpt lat="51.404135031625628" lon="9.56652601249516">
        <ele>160.68000000000001</ele>
        <time>2017-10-30T14:30:32Z</time>
      </trkpt>
      <trkpt lat="51.404163027182221" lon="9.566372036933899">
        <ele>162.59999999999999</ele>
        <time>2017-10-30T14:30:33Z</time>
      </trkpt>
      <trkpt lat="51.404208960011601" lon="9.56626701168716">
        <ele>163.56</ele>
        <time>2017-10-30T14:30:34Z</time>
      </trkpt>
      <trkpt lat="51.404271991923451" lon="9.566172966733575">
        <ele>165</ele>
        <time>2017-10-30T14:30:35Z</time>
      </trkpt>
      <trkpt lat="51.404343992471695" lon="9.56611798144877">
        <ele>166.44999999999999</ele>
        <time>2017-10-30T14:30:36Z</time>
      </trkpt>
      <trkpt lat="51.404443988576531" lon="9.566089985892177">
        <ele>167.88999999999999</ele>
        <time>2017-10-30T14:30:37Z</time>
      </trkpt>
      <trkpt lat="51.404551025480032" lon="9.566097026690841">
        <ele>169.33000000000001</ele>
        <time>2017-10-30T14:30:38Z</time>
      </trkpt>
      <trkpt lat="51.4046770054847" lon="9.566109012812376">
        <ele>170.28999999999999</ele>
        <time>2017-10-30T14:30:39Z</time>
      </trkpt>
      <trkpt lat="51.404813965782523" lon="9.566122004762292">
        <ele>171.72999999999999</ele>
        <time>2017-10-30T14:30:40Z</time>
      </trkpt>
      <trkpt lat="51.405248986557126" lon="9.566184030845761">
        <ele>175.58000000000001</ele>
        <time>2017-10-30T14:30:43Z</time>
      </trkpt>
      <trkpt lat="51.405488960444927" lon="9.566339012235403">
        <ele>178.46000000000001</ele>
        <time>2017-10-30T14:30:45Z</time>
      </trkpt>
      <trkpt lat="51.405819961801171" lon="9.566640006378293">
        <ele>183.75</ele>
        <time>2017-10-30T14:30:50Z</time>
      </trkpt>
      <trkpt lat="51.405960023403168" lon="9.566813008859754">
        <ele>186.63</ele>
        <time>2017-10-30T14:30:53Z</time>
      </trkpt>
      <trkpt lat="51.406067982316017" lon="9.566946029663086">
        <ele>189.03999999999999</ele>
        <time>2017-10-30T14:30:55Z</time>
      </trkpt>
      <trkpt lat="51.406109975650907" lon="9.566993974149227">
        <ele>189.52000000000001</ele>
        <time>2017-10-30T14:30:56Z</time>
      </trkpt>
      <trkpt lat="51.40615900978446" lon="9.567026998847723">
        <ele>190.47999999999999</ele>
        <time>2017-10-30T14:30:57Z</time>
      </trkpt>
      <trkpt lat="51.406187005341053" lon="9.567026998847723">
        <ele>191.44</ele>
        <time>2017-10-30T14:30:58Z</time>
      </trkpt>
      <trkpt lat="51.406223969534039" lon="9.56701803021133">
        <ele>192.40000000000001</ele>
        <time>2017-10-30T14:30:59Z</time>
      </trkpt>
      <trkpt lat="51.406246013939381" lon="9.566950974985957">
        <ele>193.36000000000001</ele>
        <time>2017-10-30T14:31:00Z</time>
      </trkpt>
      <trkpt lat="51.406238973140717" lon="9.566884003579617">
        <ele>193.84</ele>
        <time>2017-10-30T14:31:01Z</time>
      </trkpt>
      <trkpt lat="51.406219024211168" lon="9.566794987767935">
        <ele>194.80000000000001</ele>
        <time>2017-10-30T14:31:02Z</time>
      </trkpt>
      <trkpt lat="51.406163033097982" lon="9.566693985834718">
        <ele>195.77000000000001</ele>
        <time>2017-10-30T14:31:03Z</time>
      </trkpt>
      <trkpt lat="51.406091032549739" lon="9.566561970859766">
        <ele>196.25</ele>
        <time>2017-10-30T14:31:04Z</time>
      </trkpt>
      <trkpt lat="51.406004028394818" lon="9.566404977813363">
        <ele>197.21000000000001</ele>
        <time>2017-10-30T14:31:05Z</time>
      </trkpt>
      <trkpt lat="51.405911995097995" lon="9.566239016130567">
        <ele>198.16999999999999</ele>
        <time>2017-10-30T14:31:06Z</time>
      </trkpt>
      <trkpt lat="51.405824990943074" lon="9.566048998385668">
        <ele>199.61000000000001</ele>
        <time>2017-10-30T14:31:07Z</time>
      </trkpt>
      <trkpt lat="51.405368009582162" lon="9.564950969070196">
        <ele>205.38</ele>
        <time>2017-10-30T14:31:12Z</time>
      </trkpt>
      <trkpt lat="51.4052779879421" lon="9.564704960212112">
        <ele>206.81999999999999</ele>
        <time>2017-10-30T14:31:13Z</time>
      </trkpt>
      <trkpt lat="51.405197018757463" lon="9.564440008252859">
        <ele>208.74000000000001</ele>
        <time>2017-10-30T14:31:14Z</time>
      </trkpt>
      <trkpt lat="51.405115965753794" lon="9.564171032980084">
        <ele>210.19</ele>
        <time>2017-10-30T14:31:15Z</time>
      </trkpt>
      <trkpt lat="51.405036002397537" lon="9.563903985545039">
        <ele>211.63</ele>
        <time>2017-10-30T14:31:16Z</time>
      </trkpt>
      <trkpt lat="51.40433301217854" lon="9.562153005972505">
        <ele>222.19999999999999</ele>
        <time>2017-10-30T14:31:23Z</time>
      </trkpt>
      <trkpt lat="51.403184020891786" lon="9.560680976137519">
        <ele>234.22</ele>
        <time>2017-10-30T14:31:31Z</time>
      </trkpt>
      <trkpt lat="51.402249019593" lon="9.559570038691163">
        <ele>242.38999999999999</ele>
        <time>2017-10-30T14:31:38Z</time>
      </trkpt>
      <trkpt lat="51.402064030990005" lon="9.559188997372985">
        <ele>244.31</ele>
        <time>2017-10-30T14:31:40Z</time>
      </trkpt>
      <trkpt lat="51.401988007128239" lon="9.558997973799706">
        <ele>245.75</ele>
        <time>2017-10-30T14:31:41Z</time>
      </trkpt>
      <trkpt lat="51.401933021843433" lon="9.558823965489864">
        <ele>246.72</ele>
        <time>2017-10-30T14:31:42Z</time>
      </trkpt>
      <trkpt lat="51.40190402045846" lon="9.558616010472179">
        <ele>248.16</ele>
        <time>2017-10-30T14:31:43Z</time>
      </trkpt>
      <trkpt lat="51.401878036558628" lon="9.558420041576028">
        <ele>249.12</ele>
        <time>2017-10-30T14:31:44Z</time>
      </trkpt>
      <trkpt lat="51.401902008801699" lon="9.558262964710593">
        <ele>250.56</ele>
        <time>2017-10-30T14:31:45Z</time>
      </trkpt>
      <trkpt lat="51.401939978823066" lon="9.558107983320952">
        <ele>252</ele>
        <time>2017-10-30T14:31:46Z</time>
      </trkpt>
      <trkpt lat="51.401998987421393" lon="9.557937998324633">
        <ele>253.44</ele>
        <time>2017-10-30T14:31:47Z</time>
      </trkpt>
      <trkpt lat="51.402061013504863" lon="9.557759966701269">
        <ele>253.93000000000001</ele>
        <time>2017-10-30T14:31:48Z</time>
      </trkpt>
      <trkpt lat="51.402133014053106" lon="9.557614959776402">
        <ele>254.41</ele>
        <time>2017-10-30T14:31:49Z</time>
      </trkpt>
      <trkpt lat="51.402233010157943" lon="9.557469030842185">
        <ele>254.88999999999999</ele>
        <time>2017-10-30T14:31:50Z</time>
      </trkpt>
      <trkpt lat="51.402338035404682" lon="9.557316983118653">
        <ele>255.37</ele>
        <time>2017-10-30T14:31:51Z</time>
      </trkpt>
      <trkpt lat="51.402447000145912" lon="9.557156972587109">
        <ele>254.88999999999999</ele>
        <time>2017-10-30T14:31:52Z</time>
      </trkpt>
      <trkpt lat="51.402690997347236" lon="9.556803004816175">
        <ele>253.44</ele>
        <time>2017-10-30T14:31:54Z</time>
      </trkpt>
      <trkpt lat="51.402824018150568" lon="9.55660100094974">
        <ele>251.52000000000001</ele>
        <time>2017-10-30T14:31:55Z</time>
      </trkpt>
      <trkpt lat="51.403576964512467" lon="9.555352013558149">
        <ele>243.83000000000001</ele>
        <time>2017-10-30T14:32:01Z</time>
      </trkpt>
      <trkpt lat="51.404809020459652" lon="9.553985008969903">
        <ele>235.18000000000001</ele>
        <time>2017-10-30T14:32:08Z</time>
      </trkpt>
      <trkpt lat="51.407199036329985" lon="9.551341021433473">
        <ele>221.24000000000001</ele>
        <time>2017-10-30T14:32:20Z</time>
      </trkpt>
      <trkpt lat="51.408453974872828" lon="9.549844013527036">
        <ele>217.40000000000001</ele>
        <time>2017-10-30T14:32:27Z</time>
      </trkpt>
      <trkpt lat="51.409074990078807" lon="9.549048990011215">
        <ele>213.55000000000001</ele>
        <time>2017-10-30T14:32:32Z</time>
      </trkpt>
      <trkpt lat="51.409195018932223" lon="9.54895100556314">
        <ele>212.59</ele>
        <time>2017-10-30T14:32:33Z</time>
      </trkpt>
      <trkpt lat="51.409475980326533" lon="9.548845980316401">
        <ele>210.66999999999999</ele>
        <time>2017-10-30T14:32:35Z</time>
      </trkpt>
      <trkpt lat="51.409633979201317" lon="9.548805998638272">
        <ele>209.69999999999999</ele>
        <time>2017-10-30T14:32:36Z</time>
      </trkpt>
      <trkpt lat="51.410104958340526" lon="9.548656968399882">
        <ele>206.81999999999999</ele>
        <time>2017-10-30T14:32:39Z</time>
      </trkpt>
      <trkpt lat="51.410249965265393" lon="9.548559989780188">
        <ele>205.38</ele>
        <time>2017-10-30T14:32:40Z</time>
      </trkpt>
      <trkpt lat="51.41039396636188" lon="9.548443984240294">
        <ele>204.41999999999999</ele>
        <time>2017-10-30T14:32:41Z</time>
      </trkpt>
      <trkpt lat="51.410812977701426" lon="9.548071995377541">
        <ele>202.49000000000001</ele>
        <time>2017-10-30T14:32:44Z</time>
      </trkpt>
      <trkpt lat="51.410963013768196" lon="9.548051040619612">
        <ele>202.00999999999999</ele>
        <time>2017-10-30T14:32:45Z</time>
      </trkpt>
      <trkpt lat="51.411105003207922" lon="9.548038970679045">
        <ele>202.00999999999999</ele>
        <time>2017-10-30T14:32:46Z</time>
      </trkpt>
      <trkpt lat="51.411394011229277" lon="9.547966970130801">
        <ele>202.49000000000001</ele>
        <time>2017-10-30T14:32:48Z</time>
      </trkpt>
      <trkpt lat="51.411522002890706" lon="9.547877032309771">
        <ele>203.46000000000001</ele>
        <time>2017-10-30T14:32:49Z</time>
      </trkpt>
      <trkpt lat="51.411627028137445" lon="9.547734959051013">
        <ele>203.94</ele>
        <time>2017-10-30T14:32:50Z</time>
      </trkpt>
      <trkpt lat="51.411740016192198" lon="9.547576038166881">
        <ele>204.90000000000001</ele>
        <time>2017-10-30T14:32:51Z</time>
      </trkpt>
      <trkpt lat="51.411857027560472" lon="9.547408986836672">
        <ele>206.34</ele>
        <time>2017-10-30T14:32:52Z</time>
      </trkpt>
      <trkpt lat="51.412872998043895" lon="9.546126974746585">
        <ele>216.91</ele>
        <time>2017-10-30T14:32:59Z</time>
      </trkpt>
      <trkpt lat="51.413323022425175" lon="9.545614002272487">
        <ele>222.68000000000001</ele>
        <time>2017-10-30T14:33:02Z</time>
      </trkpt>
      <trkpt lat="51.413439027965069" lon="9.545408980920911">
        <ele>224.61000000000001</ele>
        <time>2017-10-30T14:33:03Z</time>
      </trkpt>
      <trkpt lat="51.413539024069905" lon="9.545179987326264">
        <ele>226.05000000000001</ele>
        <time>2017-10-30T14:33:04Z</time>
      </trkpt>
      <trkpt lat="51.413642037659883" lon="9.544941019266844">
        <ele>227.97</ele>
        <time>2017-10-30T14:33:05Z</time>
      </trkpt>
      <trkpt lat="51.413739016279578" lon="9.54467698931694">
        <ele>229.41</ele>
        <time>2017-10-30T14:33:06Z</time>
      </trkpt>
      <trkpt lat="51.414376962929964" lon="9.542949981987476">
        <ele>240.94999999999999</ele>
        <time>2017-10-30T14:33:13Z</time>
      </trkpt>
      <trkpt lat="51.414476959034801" lon="9.542802963405848">
        <ele>241.91</ele>
        <time>2017-10-30T14:33:14Z</time>
      </trkpt>
      <trkpt lat="51.41460201703012" lon="9.542688969522715">
        <ele>243.34999999999999</ele>
        <time>2017-10-30T14:33:15Z</time>
      </trkpt>
      <trkpt lat="51.414739983156323" lon="9.542584028095007">
        <ele>244.31</ele>
        <time>2017-10-30T14:33:16Z</time>
      </trkpt>
      <trkpt lat="51.414881972596049" lon="9.542509010061622">
        <ele>245.27000000000001</ele>
        <time>2017-10-30T14:33:17Z</time>
      </trkpt>
      <trkpt lat="51.415010970085859" lon="9.542441032826901">
        <ele>246.22999999999999</ele>
        <time>2017-10-30T14:33:18Z</time>
      </trkpt>
      <trkpt lat="51.415142985060811" lon="9.542428962886334">
        <ele>247.19999999999999</ele>
        <time>2017-10-30T14:33:19Z</time>
      </trkpt>
      <trkpt lat="51.415277011692524" lon="9.542445978149772">
        <ele>247.19999999999999</ele>
        <time>2017-10-30T14:33:20Z</time>
      </trkpt>
      <trkpt lat="51.415411960333586" lon="9.542500041425228">
        <ele>247.68000000000001</ele>
        <time>2017-10-30T14:33:21Z</time>
      </trkpt>
      <trkpt lat="51.415552021935582" lon="9.542556032538414">
        <ele>248.63999999999999</ele>
        <time>2017-10-30T14:33:22Z</time>
      </trkpt>
      <trkpt lat="51.415688982233405" lon="9.542611017823219">
        <ele>249.59999999999999</ele>
        <time>2017-10-30T14:33:23Z</time>
      </trkpt>
      <trkpt lat="51.41582602635026" lon="9.54257195815444">
        <ele>250.08000000000001</ele>
        <time>2017-10-30T14:33:24Z</time>
      </trkpt>
      <trkpt lat="51.41595602966845" lon="9.542531976476312">
        <ele>250.56</ele>
        <time>2017-10-30T14:33:25Z</time>
      </trkpt>
      <trkpt lat="51.416072035208344" lon="9.542475985363126">
        <ele>251.03999999999999</ele>
        <time>2017-10-30T14:33:26Z</time>
      </trkpt>
      <trkpt lat="51.416185023263097" lon="9.542378000915051">
        <ele>251.52000000000001</ele>
        <time>2017-10-30T14:33:27Z</time>
      </trkpt>
      <trkpt lat="51.416302034631371" lon="9.542276998981834">
        <ele>252</ele>
        <time>2017-10-30T14:33:28Z</time>
      </trkpt>
      <trkpt lat="51.416418040171266" lon="9.542178008705378">
        <ele>252</ele>
        <time>2017-10-30T14:33:29Z</time>
      </trkpt>
      <trkpt lat="51.416509989649057" lon="9.542097961530089">
        <ele>252</ele>
        <time>2017-10-30T14:33:30Z</time>
      </trkpt>
      <trkpt lat="51.416664971038699" lon="9.542107013985515">
        <ele>252</ele>
        <time>2017-10-30T14:33:31Z</time>
      </trkpt>
      <trkpt lat="51.416812995448709" lon="9.542114976793528">
        <ele>252</ele>
        <time>2017-10-30T14:33:32Z</time>
      </trkpt>
      <trkpt lat="51.416973005980253" lon="9.542124029248953">
        <ele>252.96000000000001</ele>
        <time>2017-10-30T14:33:33Z</time>
      </trkpt>
      <trkpt lat="51.417142990976572" lon="9.542132997885346">
        <ele>253.93000000000001</ele>
        <time>2017-10-30T14:33:34Z</time>
      </trkpt>
      <trkpt lat="51.417326973751187" lon="9.542130986228585">
        <ele>254.41</ele>
        <time>2017-10-30T14:33:35Z</time>
      </trkpt>
      <trkpt lat="51.418853988870978" lon="9.541761009022594">
        <ele>263.06</ele>
        <time>2017-10-30T14:33:43Z</time>
      </trkpt>
      <trkpt lat="51.419240981340408" lon="9.541610972955823">
        <ele>265.94</ele>
        <time>2017-10-30T14:33:46Z</time>
      </trkpt>
      <trkpt lat="51.419339971616864" lon="9.541541989892721">
        <ele>266.42000000000002</ele>
        <time>2017-10-30T14:33:47Z</time>
      </trkpt>
      <trkpt lat="51.419400991871953" lon="9.541404023766518">
        <ele>266.89999999999998</ele>
        <time>2017-10-30T14:33:48Z</time>
      </trkpt>
      <trkpt lat="51.419433010742068" lon="9.541250970214605">
        <ele>267.38</ele>
        <time>2017-10-30T14:33:49Z</time>
      </trkpt>
      <trkpt lat="51.419467041268945" lon="9.541073022410274">
        <ele>267.86000000000001</ele>
        <time>2017-10-30T14:33:50Z</time>
      </trkpt>
      <trkpt lat="51.419499982148409" lon="9.540880993008614">
        <ele>268.35000000000002</ele>
        <time>2017-10-30T14:33:51Z</time>
      </trkpt>
      <trkpt lat="51.419527977705002" lon="9.54065996222198">
        <ele>269.31</ele>
        <time>2017-10-30T14:33:52Z</time>
      </trkpt>
      <trkpt lat="51.419678013771772" lon="9.53923998400569">
        <ele>273.14999999999998</ele>
        <time>2017-10-30T14:33:58Z</time>
      </trkpt>
      <trkpt lat="51.419710032641888" lon="9.538262989372015">
        <ele>276.04000000000002</ele>
        <time>2017-10-30T14:34:04Z</time>
      </trkpt>
      <trkpt lat="51.419676002115011" lon="9.537611966952682">
        <ele>277.95999999999998</ele>
        <time>2017-10-30T14:34:09Z</time>
      </trkpt>
      <trkpt lat="51.419671978801489" lon="9.537535021081567">
        <ele>278.44</ele>
        <time>2017-10-30T14:34:10Z</time>
      </trkpt>
      <trkpt lat="51.419669967144728" lon="9.537487998604775">
        <ele>278.92000000000002</ele>
        <time>2017-10-30T14:34:11Z</time>
      </trkpt>
      <trkpt lat="51.419668039306998" lon="9.537455979734659">
        <ele>279.39999999999998</ele>
        <time>2017-10-30T14:34:12Z</time>
      </trkpt>
      <trkpt lat="51.419700980186462" lon="9.537385990843177">
        <ele>279.39999999999998</ele>
        <time>2017-10-30T14:34:13Z</time>
      </trkpt>
      <trkpt lat="51.419712966307998" lon="9.537388002499938">
        <ele>279.88</ele>
        <time>2017-10-30T14:34:14Z</time>
      </trkpt>
      <trkpt lat="51.419743979349732" lon="9.53739495947957">
        <ele>279.88</ele>
        <time>2017-10-30T14:34:15Z</time>
      </trkpt>
      <trkpt lat="51.419801982119679" lon="9.537408035248518">
        <ele>280.36000000000001</ele>
        <time>2017-10-30T14:34:16Z</time>
      </trkpt>
      <trkpt lat="51.419879011809826" lon="9.537424966692925">
        <ele>280.83999999999997</ele>
        <time>2017-10-30T14:34:17Z</time>
      </trkpt>
      <trkpt lat="51.420708987861872" lon="9.537608027458191">
        <ele>282.76999999999998</ele>
        <time>2017-10-30T14:34:24Z</time>
      </trkpt>
      <trkpt lat="51.421570982784033" lon="9.537797961384058">
        <ele>284.20999999999998</ele>
        <time>2017-10-30T14:34:32Z</time>
      </trkpt>
      <trkpt lat="51.42162999138236" lon="9.537812964990735">
        <ele>284.20999999999998</ele>
        <time>2017-10-30T14:34:33Z</time>
      </trkpt>
      <trkpt lat="51.421681037172675" lon="9.537826962769032">
        <ele>284.20999999999998</ele>
        <time>2017-10-30T14:34:34Z</time>
      </trkpt>
      <trkpt lat="51.421756977215409" lon="9.537673993036151">
        <ele>284.20999999999998</ele>
        <time>2017-10-30T14:34:35Z</time>
      </trkpt>
      <trkpt lat="51.421752031892538" lon="9.537597969174385">
        <ele>284.20999999999998</ele>
        <time>2017-10-30T14:34:36Z</time>
      </trkpt>
      <trkpt lat="51.421747002750635" lon="9.537505013868213">
        <ele>284.20999999999998</ele>
        <time>2017-10-30T14:34:37Z</time>
      </trkpt>
      <trkpt lat="51.421702997758985" lon="9.53741499222815">
        <ele>284.20999999999998</ele>
        <time>2017-10-30T14:34:38Z</time>
      </trkpt>
      <trkpt lat="51.421630997210741" lon="9.537297980859876">
        <ele>284.20999999999998</ele>
        <time>2017-10-30T14:34:39Z</time>
      </trkpt>
      <trkpt lat="51.42096203751862" lon="9.536233982071281">
        <ele>281.31999999999999</ele>
        <time>2017-10-30T14:34:45Z</time>
      </trkpt>
      <trkpt lat="51.420293999835849" lon="9.535041991621256">
        <ele>280.36000000000001</ele>
        <time>2017-10-30T14:34:52Z</time>
      </trkpt>
      <trkpt lat="51.420221999287605" lon="9.534866977483034">
        <ele>280.83999999999997</ele>
        <time>2017-10-30T14:34:53Z</time>
      </trkpt>
      <trkpt lat="51.420175982639194" lon="9.534694980829954">
        <ele>280.83999999999997</ele>
        <time>2017-10-30T14:34:54Z</time>
      </trkpt>
      <trkpt lat="51.420130971819162" lon="9.534517033025622">
        <ele>280.83999999999997</ele>
        <time>2017-10-30T14:34:55Z</time>
      </trkpt>
      <trkpt lat="51.420096019282937" lon="9.534332966431975">
        <ele>280.83999999999997</ele>
        <time>2017-10-30T14:34:56Z</time>
      </trkpt>
      <trkpt lat="51.42006098292768" lon="9.534150995314121">
        <ele>281.31999999999999</ele>
        <time>2017-10-30T14:34:57Z</time>
      </trkpt>
      <trkpt lat="51.420044973492622" lon="9.533966006711125">
        <ele>281.31999999999999</ele>
        <time>2017-10-30T14:34:58Z</time>
      </trkpt>
      <trkpt lat="51.42003801651299" lon="9.533774983137846">
        <ele>281.80000000000001</ele>
        <time>2017-10-30T14:34:59Z</time>
      </trkpt>
      <trkpt lat="51.420030975714326" lon="9.533583037555218">
        <ele>281.80000000000001</ele>
        <time>2017-10-30T14:35:00Z</time>
      </trkpt>
      <trkpt lat="51.420028964057565" lon="9.530500005930662">
        <ele>291.42000000000002</ele>
        <time>2017-10-30T14:35:15Z</time>
      </trkpt>
      <trkpt lat="51.420116974040866" lon="9.527325024828315">
        <ele>307.75999999999999</ele>
        <time>2017-10-30T14:35:26Z</time>
      </trkpt>
      <trkpt lat="51.42033901065588" lon="9.524882035329938">
        <ele>314.00999999999999</ele>
        <time>2017-10-30T14:35:34Z</time>
      </trkpt>
      <trkpt lat="51.420628018677235" lon="9.522895021364093">
        <ele>313.52999999999997</ele>
        <time>2017-10-30T14:35:39Z</time>
      </trkpt>
      <trkpt lat="51.421576011925936" lon="9.517793962731957">
        <ele>327.47000000000003</ele>
        <time>2017-10-30T14:35:51Z</time>
      </trkpt>
      <trkpt lat="51.422014972195029" lon="9.515796974301338">
        <ele>336.60000000000002</ele>
        <time>2017-10-30T14:35:57Z</time>
      </trkpt>
      <trkpt lat="51.422786023467779" lon="9.513032035902143">
        <ele>341.88999999999999</ele>
        <time>2017-10-30T14:36:05Z</time>
      </trkpt>
      <trkpt lat="51.423838958144188" lon="9.509319020435214">
        <ele>346.20999999999998</ele>
        <time>2017-10-30T14:36:16Z</time>
      </trkpt>
      <trkpt lat="51.424586037173867" lon="9.50649700127542">
        <ele>341.41000000000003</ele>
        <time>2017-10-30T14:36:25Z</time>
      </trkpt>
      <trkpt lat="51.425076965242624" lon="9.5044120028615">
        <ele>332.75</ele>
        <time>2017-10-30T14:36:32Z</time>
      </trkpt>
      <trkpt lat="51.425464963540435" lon="9.50136199593544">
        <ele>316.41000000000003</ele>
        <time>2017-10-30T14:36:41Z</time>
      </trkpt>
      <trkpt lat="51.425694040954113" lon="9.498106967657805">
        <ele>300.55000000000001</ele>
        <time>2017-10-30T14:36:50Z</time>
      </trkpt>
      <trkpt lat="51.425769980996847" lon="9.496391024440527">
        <ele>291.89999999999998</ele>
        <time>2017-10-30T14:36:55Z</time>
      </trkpt>
      <trkpt lat="51.425824966281652" lon="9.496058011427522">
        <ele>291.42000000000002</ele>
        <time>2017-10-30T14:36:56Z</time>
      </trkpt>
      <trkpt lat="51.425892021507025" lon="9.495721980929375">
        <ele>290.94</ele>
        <time>2017-10-30T14:36:57Z</time>
      </trkpt>
      <trkpt lat="51.426327964290977" lon="9.493382005020976">
        <ele>284.69</ele>
        <time>2017-10-30T14:37:05Z</time>
      </trkpt>
      <trkpt lat="51.426389990374446" lon="9.492169981822372">
        <ele>279.39999999999998</ele>
        <time>2017-10-30T14:37:10Z</time>
      </trkpt>
      <trkpt lat="51.426365012302995" lon="9.491921039298177">
        <ele>278.44</ele>
        <time>2017-10-30T14:37:11Z</time>
      </trkpt>
      <trkpt lat="51.426312038674951" lon="9.491676958277822">
        <ele>277.48000000000002</ele>
        <time>2017-10-30T14:37:12Z</time>
      </trkpt>
      <trkpt lat="51.426258981227875" lon="9.491427009925246">
        <ele>277</ele>
        <time>2017-10-30T14:37:13Z</time>
      </trkpt>
      <trkpt lat="51.426168959587812" lon="9.491204973310232">
        <ele>277</ele>
        <time>2017-10-30T14:37:14Z</time>
      </trkpt>
      <trkpt lat="51.426069969311357" lon="9.490977991372347">
        <ele>277.48000000000002</ele>
        <time>2017-10-30T14:37:15Z</time>
      </trkpt>
      <trkpt lat="51.425967961549759" lon="9.490745980292559">
        <ele>277.95999999999998</ele>
        <time>2017-10-30T14:37:16Z</time>
      </trkpt>
      <trkpt lat="51.425852039828897" lon="9.49053299613297">
        <ele>278.44</ele>
        <time>2017-10-30T14:37:17Z</time>
      </trkpt>
      <trkpt lat="51.425731005147099" lon="9.490319006145001">
        <ele>278.92000000000002</ele>
        <time>2017-10-30T14:37:18Z</time>
      </trkpt>
      <trkpt lat="51.425092974677682" lon="9.488711021840572">
        <ele>281.31999999999999</ele>
        <time>2017-10-30T14:37:25Z</time>
      </trkpt>
      <trkpt lat="51.425046036019921" lon="9.488157983869314">
        <ele>280.36000000000001</ele>
        <time>2017-10-30T14:37:27Z</time>
      </trkpt>
      <trkpt lat="51.4250229857862" lon="9.487888002768159">
        <ele>279.88</ele>
        <time>2017-10-30T14:37:28Z</time>
      </trkpt>
      <trkpt lat="51.424997001886368" lon="9.487347034737468">
        <ele>278.92000000000002</ele>
        <time>2017-10-30T14:37:30Z</time>
      </trkpt>
      <trkpt lat="51.425026003271341" lon="9.487092979252338">
        <ele>278.44</ele>
        <time>2017-10-30T14:37:31Z</time>
      </trkpt>
      <trkpt lat="51.425053998827934" lon="9.486842025071383">
        <ele>277.48000000000002</ele>
        <time>2017-10-30T14:37:32Z</time>
      </trkpt>
      <trkpt lat="51.425083000212908" lon="9.486588975414634">
        <ele>276.51999999999998</ele>
        <time>2017-10-30T14:37:33Z</time>
      </trkpt>
      <trkpt lat="51.425138991326094" lon="9.486338021233678">
        <ele>275.56</ele>
        <time>2017-10-30T14:37:34Z</time>
      </trkpt>
      <trkpt lat="51.425208980217576" lon="9.486088994890451">
        <ele>274.11000000000001</ele>
        <time>2017-10-30T14:37:35Z</time>
      </trkpt>
      <trkpt lat="51.425521038472652" lon="9.484845958650112">
        <ele>268.82999999999998</ele>
        <time>2017-10-30T14:37:40Z</time>
      </trkpt>
      <trkpt lat="51.425564959645271" lon="9.484598021954298">
        <ele>268.35000000000002</ele>
        <time>2017-10-30T14:37:41Z</time>
      </trkpt>
      <trkpt lat="51.425564959645271" lon="9.484331980347633">
        <ele>266.89999999999998</ele>
        <time>2017-10-30T14:37:42Z</time>
      </trkpt>
      <trkpt lat="51.425564959645271" lon="9.484053030610085">
        <ele>266.42000000000002</ele>
        <time>2017-10-30T14:37:43Z</time>
      </trkpt>
      <trkpt lat="51.425554985180497" lon="9.483772991225123">
        <ele>265.45999999999998</ele>
        <time>2017-10-30T14:37:44Z</time>
      </trkpt>
      <trkpt lat="51.425521960482001" lon="9.483491024002433">
        <ele>264.5</ele>
        <time>2017-10-30T14:37:45Z</time>
      </trkpt>
      <trkpt lat="51.425482984632254" lon="9.483211990445852">
        <ele>263.54000000000002</ele>
        <time>2017-10-30T14:37:46Z</time>
      </trkpt>
      <trkpt lat="51.42543101683259" lon="9.482946032658219">
        <ele>262.57999999999998</ele>
        <time>2017-10-30T14:37:47Z</time>
      </trkpt>
      <trkpt lat="51.425221972167492" lon="9.481866024434567">
        <ele>259.69</ele>
        <time>2017-10-30T14:37:51Z</time>
      </trkpt>
      <trkpt lat="51.425221972167492" lon="9.481634013354778">
        <ele>259.20999999999998</ele>
        <time>2017-10-30T14:37:52Z</time>
      </trkpt>
      <trkpt lat="51.425233036279678" lon="9.481373000890017">
        <ele>258.73000000000002</ele>
        <time>2017-10-30T14:37:53Z</time>
      </trkpt>
      <trkpt lat="51.425254996865988" lon="9.48112296871841">
        <ele>258.25</ele>
        <time>2017-10-30T14:37:54Z</time>
      </trkpt>
      <trkpt lat="51.425277041271329" lon="9.480884000658989">
        <ele>257.29000000000002</ele>
        <time>2017-10-30T14:37:55Z</time>
      </trkpt>
      <trkpt lat="51.425296990200877" lon="9.480660958215594">
        <ele>256.81</ele>
        <time>2017-10-30T14:37:56Z</time>
      </trkpt>
      <trkpt lat="51.42538701184094" lon="9.479752024635673">
        <ele>253.44</ele>
        <time>2017-10-30T14:38:02Z</time>
      </trkpt>
      <trkpt lat="51.425424981862307" lon="9.479620009660721">
        <ele>252.96000000000001</ele>
        <time>2017-10-30T14:38:03Z</time>
      </trkpt>
      <trkpt lat="51.425479967147112" lon="9.47955496609211">
        <ele>252</ele>
        <time>2017-10-30T14:38:04Z</time>
      </trkpt>
      <trkpt lat="51.425565965473652" lon="9.47950903326273">
        <ele>251.52000000000001</ele>
        <time>2017-10-30T14:38:05Z</time>
      </trkpt>
      <trkpt lat="51.425647018477321" lon="9.479513978585601">
        <ele>250.56</ele>
        <time>2017-10-30T14:38:06Z</time>
      </trkpt>
      <trkpt lat="51.425733016803861" lon="9.479520013555884">
        <ele>249.59999999999999</ele>
        <time>2017-10-30T14:38:07Z</time>
      </trkpt>
      <trkpt lat="51.425822032615542" lon="9.479525964707136">
        <ele>249.12</ele>
        <time>2017-10-30T14:38:08Z</time>
      </trkpt>
      <trkpt lat="51.425912976264954" lon="9.479563012719154">
        <ele>248.16</ele>
        <time>2017-10-30T14:38:09Z</time>
      </trkpt>
      <trkpt lat="51.425994029268622" lon="9.479606011882424">
        <ele>247.68000000000001</ele>
        <time>2017-10-30T14:38:10Z</time>
      </trkpt>
      <trkpt lat="51.426257975399494" lon="9.479741966351867">
        <ele>246.72</ele>
        <time>2017-10-30T14:38:13Z</time>
      </trkpt>
      <trkpt lat="51.426595011726022" lon="9.479922009631991">
        <ele>244.78999999999999</ele>
        <time>2017-10-30T14:38:17Z</time>
      </trkpt>
      <trkpt lat="51.426895000040531" lon="9.480085037648678">
        <ele>243.34999999999999</ele>
        <time>2017-10-30T14:38:20Z</time>
      </trkpt>
      <trkpt lat="51.426930958405137" lon="9.480097023770213">
        <ele>242.87</ele>
        <time>2017-10-30T14:38:21Z</time>
      </trkpt>
      <trkpt lat="51.427003964781761" lon="9.480120996013284">
        <ele>241.91</ele>
        <time>2017-10-30T14:38:22Z</time>
      </trkpt>
      <trkpt lat="51.427148971706629" lon="9.480170030146837">
        <ele>240.94999999999999</ele>
        <time>2017-10-30T14:38:24Z</time>
      </trkpt>
      <trkpt lat="51.427226001396775" lon="9.480199031531811">
        <ele>240.47</ele>
        <time>2017-10-30T14:38:25Z</time>
      </trkpt>
      <trkpt lat="51.427477039396763" lon="9.480255022644997">
        <ele>239.50999999999999</ele>
        <time>2017-10-30T14:38:28Z</time>
      </trkpt>
      <trkpt lat="51.42792496830225" lon="9.480292992666364">
        <ele>238.06</ele>
        <time>2017-10-30T14:38:33Z</time>
      </trkpt>
      <trkpt lat="51.42800903879106" lon="9.480287041515112">
        <ele>237.58000000000001</ele>
        <time>2017-10-30T14:38:34Z</time>
      </trkpt>
      <trkpt lat="51.428870027884841" lon="9.48021998628974">
        <ele>239.02000000000001</ele>
        <time>2017-10-30T14:38:45Z</time>
      </trkpt>
      <trkpt lat="51.428939010947943" lon="9.480208000168204">
        <ele>240.47</ele>
        <time>2017-10-30T14:38:46Z</time>
      </trkpt>
      <trkpt lat="51.429012017324567" lon="9.480189979076386">
        <ele>241.43000000000001</ele>
        <time>2017-10-30T14:38:47Z</time>
      </trkpt>
      <trkpt lat="51.430054977536201" lon="9.479845985770226">
        <ele>249.59999999999999</ele>
        <time>2017-10-30T14:38:59Z</time>
      </trkpt>
      <trkpt lat="51.430840026587248" lon="9.479478020220995">
        <ele>245.75</ele>
        <time>2017-10-30T14:39:07Z</time>
      </trkpt>
      <trkpt lat="51.43149197101593" lon="9.479213990271092">
        <ele>241.91</ele>
        <time>2017-10-30T14:39:12Z</time>
      </trkpt>
      <trkpt lat="51.431631026789546" lon="9.479180965572596">
        <ele>240.47</ele>
        <time>2017-10-30T14:39:13Z</time>
      </trkpt>
      <trkpt lat="51.431777961552143" lon="9.479174008592963">
        <ele>239.50999999999999</ele>
        <time>2017-10-30T14:39:14Z</time>
      </trkpt>
      <trkpt lat="51.431929003447294" lon="9.479166967794299">
        <ele>238.53999999999999</ele>
        <time>2017-10-30T14:39:15Z</time>
      </trkpt>
      <trkpt lat="51.432089013978839" lon="9.479209966957569">
        <ele>238.06</ele>
        <time>2017-10-30T14:39:16Z</time>
      </trkpt>
      <trkpt lat="51.432236032560468" lon="9.479290014132857">
        <ele>237.09999999999999</ele>
        <time>2017-10-30T14:39:17Z</time>
      </trkpt>
      <trkpt lat="51.432384978979826" lon="9.479370983317494">
        <ele>236.62</ele>
        <time>2017-10-30T14:39:18Z</time>
      </trkpt>
      <trkpt lat="51.432536020874977" lon="9.479481959715486">
        <ele>236.13999999999999</ele>
        <time>2017-10-30T14:39:19Z</time>
      </trkpt>
      <trkpt lat="51.432666024193168" lon="9.47963803075254">
        <ele>236.13999999999999</ele>
        <time>2017-10-30T14:39:20Z</time>
      </trkpt>
      <trkpt lat="51.432783035561442" lon="9.479823019355536">
        <ele>236.13999999999999</ele>
        <time>2017-10-30T14:39:21Z</time>
      </trkpt>
      <trkpt lat="51.432880014181137" lon="9.480017982423306">
        <ele>236.13999999999999</ele>
        <time>2017-10-30T14:39:22Z</time>
      </trkpt>
      <trkpt lat="51.432979004457593" lon="9.480226021260023">
        <ele>236.13999999999999</ele>
        <time>2017-10-30T14:39:23Z</time>
      </trkpt>
      <trkpt lat="51.433056034147739" lon="9.480454009026289">
        <ele>236.13999999999999</ele>
        <time>2017-10-30T14:39:24Z</time>
      </trkpt>
      <trkpt lat="51.433133985847235" lon="9.480684008449316">
        <ele>236.13999999999999</ele>
        <time>2017-10-30T14:39:25Z</time>
      </trkpt>
      <trkpt lat="51.433451995253563" lon="9.481611968949437">
        <ele>237.58000000000001</ele>
        <time>2017-10-30T14:39:29Z</time>
      </trkpt>
      <trkpt lat="51.433663973584771" lon="9.482036009430885">
        <ele>238.06</ele>
        <time>2017-10-30T14:39:31Z</time>
      </trkpt>
      <trkpt lat="51.433776961639524" lon="9.482246981933713">
        <ele>238.53999999999999</ele>
        <time>2017-10-30T14:39:32Z</time>
      </trkpt>
      <trkpt lat="51.434072004631162" lon="9.482549987733364">
        <ele>238.53999999999999</ele>
        <time>2017-10-30T14:39:34Z</time>
      </trkpt>
      <trkpt lat="51.434225980192423" lon="9.482668004930019">
        <ele>238.53999999999999</ele>
        <time>2017-10-30T14:39:35Z</time>
      </trkpt>
      <trkpt lat="51.434374004602432" lon="9.482780992984772">
        <ele>238.06</ele>
        <time>2017-10-30T14:39:36Z</time>
      </trkpt>
      <trkpt lat="51.434527980163693" lon="9.482869002968073">
        <ele>238.06</ele>
        <time>2017-10-30T14:39:37Z</time>
      </trkpt>
      <trkpt lat="51.434681033715606" lon="9.482908984646201">
        <ele>238.06</ele>
        <time>2017-10-30T14:39:38Z</time>
      </trkpt>
      <trkpt lat="51.434828974306583" lon="9.482947960495949">
        <ele>237.58000000000001</ele>
        <time>2017-10-30T14:39:39Z</time>
      </trkpt>
      <trkpt lat="51.434995019808412" lon="9.482934968546033">
        <ele>237.09999999999999</ele>
        <time>2017-10-30T14:39:40Z</time>
      </trkpt>
      <trkpt lat="51.435160981491208" lon="9.482864979654551">
        <ele>237.09999999999999</ele>
        <time>2017-10-30T14:39:41Z</time>
      </trkpt>
      <trkpt lat="51.435320992022753" lon="9.482770012691617">
        <ele>238.06</ele>
        <time>2017-10-30T14:39:42Z</time>
      </trkpt>
      <trkpt lat="51.435995986685157" lon="9.482444962486625">
        <ele>238.53999999999999</ele>
        <time>2017-10-30T14:39:46Z</time>
      </trkpt>
      <trkpt lat="51.43617301248014" lon="9.482382014393807">
        <ele>239.02000000000001</ele>
        <time>2017-10-30T14:39:47Z</time>
      </trkpt>
      <trkpt lat="51.43636797554791" lon="9.482402969151735">
        <ele>239.50999999999999</ele>
        <time>2017-10-30T14:39:48Z</time>
      </trkpt>
      <trkpt lat="51.436569979414344" lon="9.482424007728696">
        <ele>239.99000000000001</ele>
        <time>2017-10-30T14:39:49Z</time>
      </trkpt>
      <trkpt lat="51.436764020472765" lon="9.482573959976435">
        <ele>240.94999999999999</ele>
        <time>2017-10-30T14:39:50Z</time>
      </trkpt>
      <trkpt lat="51.436960995197296" lon="9.482727013528347">
        <ele>241.91</ele>
        <time>2017-10-30T14:39:51Z</time>
      </trkpt>
      <trkpt lat="51.437159981578588" lon="9.482883000746369">
        <ele>243.34999999999999</ele>
        <time>2017-10-30T14:39:52Z</time>
      </trkpt>
      <trkpt lat="51.437573963776231" lon="9.483157005161047">
        <ele>245.75</ele>
        <time>2017-10-30T14:39:54Z</time>
      </trkpt>
      <trkpt lat="51.437794994562864" lon="9.483240991830826">
        <ele>247.68000000000001</ele>
        <time>2017-10-30T14:39:55Z</time>
      </trkpt>
      <trkpt lat="51.438016025349498" lon="9.483325984328985">
        <ele>249.12</ele>
        <time>2017-10-30T14:39:56Z</time>
      </trkpt>
      <trkpt lat="51.440498996526003" lon="9.483929984271526">
        <ele>265.45999999999998</ele>
        <time>2017-10-30T14:40:07Z</time>
      </trkpt>
      <trkpt lat="51.442023999989033" lon="9.48367802426219">
        <ele>274.58999999999997</ele>
        <time>2017-10-30T14:40:14Z</time>
      </trkpt>
      <trkpt lat="51.44401797093451" lon="9.483304023742676">
        <ele>285.64999999999998</ele>
        <time>2017-10-30T14:40:23Z</time>
      </trkpt>
      <trkpt lat="51.445823013782501" lon="9.483772991225123">
        <ele>291.89999999999998</ele>
        <time>2017-10-30T14:40:31Z</time>
      </trkpt>
      <trkpt lat="51.447579022496939" lon="9.483882961794734">
        <ele>289.00999999999999</ele>
        <time>2017-10-30T14:40:39Z</time>
      </trkpt>
      <trkpt lat="51.447987975552678" lon="9.484077002853155">
        <ele>288.05000000000001</ele>
        <time>2017-10-30T14:40:41Z</time>
      </trkpt>
      <trkpt lat="51.448199031874537" lon="9.484257968142629">
        <ele>287.56999999999999</ele>
        <time>2017-10-30T14:40:42Z</time>
      </trkpt>
      <trkpt lat="51.448402963578701" lon="9.48443298228085">
        <ele>287.08999999999997</ele>
        <time>2017-10-30T14:40:43Z</time>
      </trkpt>
      <trkpt lat="51.448606979101896" lon="9.484617970883846">
        <ele>286.61000000000001</ele>
        <time>2017-10-30T14:40:44Z</time>
      </trkpt>
      <trkpt lat="51.448782999068499" lon="9.484877977520227">
        <ele>286.61000000000001</ele>
        <time>2017-10-30T14:40:45Z</time>
      </trkpt>
      <trkpt lat="51.448962036520243" lon="9.485143013298512">
        <ele>286.61000000000001</ele>
        <time>2017-10-30T14:40:46Z</time>
      </trkpt>
      <trkpt lat="51.449135961011052" lon="9.485427998006344">
        <ele>286.61000000000001</ele>
        <time>2017-10-30T14:40:47Z</time>
      </trkpt>
      <trkpt lat="51.44927803426981" lon="9.48576302267611">
        <ele>286.61000000000001</ele>
        <time>2017-10-30T14:40:48Z</time>
      </trkpt>
      <trkpt lat="51.449419017881155" lon="9.486097963526845">
        <ele>287.08999999999997</ele>
        <time>2017-10-30T14:40:49Z</time>
      </trkpt>
      <trkpt lat="51.45024798810482" lon="9.487627996131778">
        <ele>291.42000000000002</ele>
        <time>2017-10-30T14:40:55Z</time>
      </trkpt>
      <trkpt lat="51.45093597471714" lon="9.488543970510364">
        <ele>296.69999999999999</ele>
        <time>2017-10-30T14:41:02Z</time>
      </trkpt>
      <trkpt lat="51.451768968254328" lon="9.489711988717318">
        <ele>302.94999999999999</ele>
        <time>2017-10-30T14:41:12Z</time>
      </trkpt>
      <trkpt lat="51.451937025412917" lon="9.489940982311964">
        <ele>304.38999999999999</ele>
        <time>2017-10-30T14:41:14Z</time>
      </trkpt>
      <trkpt lat="51.452020006254315" lon="9.490055982023478">
        <ele>304.88</ele>
        <time>2017-10-30T14:41:15Z</time>
      </trkpt>
      <trkpt lat="51.452097035944462" lon="9.490160001441836">
        <ele>305.83999999999997</ele>
        <time>2017-10-30T14:41:16Z</time>
      </trkpt>
      <trkpt lat="51.452165013179183" lon="9.49025304056704">
        <ele>306.80000000000001</ele>
        <time>2017-10-30T14:41:17Z</time>
      </trkpt>
      <trkpt lat="51.452225027605891" lon="9.490335015580058">
        <ele>307.27999999999997</ele>
        <time>2017-10-30T14:41:18Z</time>
      </trkpt>
      <trkpt lat="51.452275989577174" lon="9.490406010299921">
        <ele>308.24000000000001</ele>
        <time>2017-10-30T14:41:19Z</time>
      </trkpt>
      <trkpt lat="51.452321000397205" lon="9.490466024726629">
        <ele>309.19999999999999</ele>
        <time>2017-10-30T14:41:20Z</time>
      </trkpt>
      <trkpt lat="51.452416973188519" lon="9.490494020283222">
        <ele>310.16000000000003</ele>
        <time>2017-10-30T14:41:21Z</time>
      </trkpt>
      <trkpt lat="51.452448992058635" lon="9.490425959229469">
        <ele>310.63999999999999</ele>
        <time>2017-10-30T14:41:22Z</time>
      </trkpt>
      <trkpt lat="51.452491991221905" lon="9.4903380330652">
        <ele>311.60000000000002</ele>
        <time>2017-10-30T14:41:23Z</time>
      </trkpt>
      <trkpt lat="51.452542031183839" lon="9.49023200199008">
        <ele>311.60000000000002</ele>
        <time>2017-10-30T14:41:24Z</time>
      </trkpt>
      <trkpt lat="51.45306296646595" lon="9.489142019301653">
        <ele>305.36000000000001</ele>
        <time>2017-10-30T14:41:33Z</time>
      </trkpt>
      <trkpt lat="51.453253990039229" lon="9.488785034045577">
        <ele>304.88</ele>
        <time>2017-10-30T14:41:36Z</time>
      </trkpt>
      <trkpt lat="51.453666966408491" lon="9.488087994977832">
        <ele>304.38999999999999</ele>
        <time>2017-10-30T14:41:42Z</time>
      </trkpt>
      <trkpt lat="51.454635998234153" lon="9.487063977867365">
        <ele>301.50999999999999</ele>
        <time>2017-10-30T14:41:52Z</time>
      </trkpt>
      <trkpt lat="51.455856990069151" lon="9.485884979367256">
        <ele>296.69999999999999</ele>
        <time>2017-10-30T14:42:01Z</time>
      </trkpt>
      <trkpt lat="51.456009959802032" lon="9.485786994919181">
        <ele>296.69999999999999</ele>
        <time>2017-10-30T14:42:02Z</time>
      </trkpt>
      <trkpt lat="51.456172987818718" lon="9.485706025734544">
        <ele>297.18000000000001</ele>
        <time>2017-10-30T14:42:03Z</time>
      </trkpt>
      <trkpt lat="51.456344984471798" lon="9.485651962459087">
        <ele>297.18000000000001</ele>
        <time>2017-10-30T14:42:04Z</time>
      </trkpt>
      <trkpt lat="51.4565210044384" lon="9.48563695885241">
        <ele>297.18000000000001</ele>
        <time>2017-10-30T14:42:05Z</time>
      </trkpt>
      <trkpt lat="51.456705993041396" lon="9.485674006864429">
        <ele>297.67000000000002</ele>
        <time>2017-10-30T14:42:06Z</time>
      </trkpt>
      <trkpt lat="51.456897016614676" lon="9.485711976885796">
        <ele>298.14999999999998</ele>
        <time>2017-10-30T14:42:07Z</time>
      </trkpt>
      <trkpt lat="51.45804600790143" lon="9.485928984358907">
        <ele>301.50999999999999</ele>
        <time>2017-10-30T14:42:14Z</time>
      </trkpt>
      <trkpt lat="51.458481028676033" lon="9.485959997400641">
        <ele>304.88</ele>
        <time>2017-10-30T14:42:20Z</time>
      </trkpt>
      <trkpt lat="51.458510030061007" lon="9.485962009057403">
        <ele>304.88</ele>
        <time>2017-10-30T14:42:21Z</time>
      </trkpt>
      <trkpt lat="51.458542970940471" lon="9.485936025157571">
        <ele>305.36000000000001</ele>
        <time>2017-10-30T14:42:22Z</time>
      </trkpt>
      <trkpt lat="51.458534002304077" lon="9.485823037102819">
        <ele>305.83999999999997</ele>
        <time>2017-10-30T14:42:23Z</time>
      </trkpt>
      <trkpt lat="51.458523022010922" lon="9.485670989379287">
        <ele>305.83999999999997</ele>
        <time>2017-10-30T14:42:24Z</time>
      </trkpt>
      <trkpt lat="51.458509024232626" lon="9.485491029918194">
        <ele>305.83999999999997</ele>
        <time>2017-10-30T14:42:25Z</time>
      </trkpt>
      <trkpt lat="51.458493014797568" lon="9.485280979424715">
        <ele>305.83999999999997</ele>
        <time>2017-10-30T14:42:26Z</time>
      </trkpt>
      <trkpt lat="51.45832403562963" lon="9.483561012893915">
        <ele>305.36000000000001</ele>
        <time>2017-10-30T14:42:32Z</time>
      </trkpt>
      <trkpt lat="51.45783101208508" lon="9.480287963524461">
        <ele>307.75999999999999</ele>
        <time>2017-10-30T14:42:41Z</time>
      </trkpt>
      <trkpt lat="51.457698997110128" lon="9.47830899618566">
        <ele>310.63999999999999</ele>
        <time>2017-10-30T14:42:47Z</time>
      </trkpt>
      <trkpt lat="51.457731015980244" lon="9.478032980114222">
        <ele>310.63999999999999</ele>
        <time>2017-10-30T14:42:48Z</time>
      </trkpt>
      <trkpt lat="51.457777032628655" lon="9.477754030376673">
        <ele>310.63999999999999</ele>
        <time>2017-10-30T14:42:49Z</time>
      </trkpt>
      <trkpt lat="51.457850961014628" lon="9.477472985163331">
        <ele>310.63999999999999</ele>
        <time>2017-10-30T14:42:50Z</time>
      </trkpt>
      <trkpt lat="51.457944000139832" lon="9.477180037647486">
        <ele>310.63999999999999</ele>
        <time>2017-10-30T14:42:51Z</time>
      </trkpt>
      <trkpt lat="51.458853017538786" lon="9.474551975727081">
        <ele>309.19999999999999</ele>
        <time>2017-10-30T14:42:59Z</time>
      </trkpt>
      <trkpt lat="51.459477972239256" lon="9.472459014505148">
        <ele>303.43000000000001</ele>
        <time>2017-10-30T14:43:06Z</time>
      </trkpt>
      <trkpt lat="51.459576040506363" lon="9.472220968455076">
        <ele>302.47000000000003</ele>
        <time>2017-10-30T14:43:07Z</time>
      </trkpt>
      <trkpt lat="51.460222033783793" lon="9.470366975292563">
        <ele>290.94</ele>
        <time>2017-10-30T14:43:14Z</time>
      </trkpt>
      <trkpt lat="51.460407022386789" lon="9.469621991738677">
        <ele>284.69</ele>
        <time>2017-10-30T14:43:18Z</time>
      </trkpt>
      <trkpt lat="51.460461001843214" lon="9.469495005905628">
        <ele>283.25</ele>
        <time>2017-10-30T14:43:19Z</time>
      </trkpt>
      <trkpt lat="51.460522022098303" lon="9.469374977052212">
        <ele>282.76999999999998</ele>
        <time>2017-10-30T14:43:20Z</time>
      </trkpt>
      <trkpt lat="51.46060399711132" lon="9.469271963462234">
        <ele>281.80000000000001</ele>
        <time>2017-10-30T14:43:21Z</time>
      </trkpt>
      <trkpt lat="51.460699969902635" lon="9.469194011762738">
        <ele>280.83999999999997</ele>
        <time>2017-10-30T14:43:22Z</time>
      </trkpt>
      <trkpt lat="51.460803989320993" lon="9.469108013436198">
        <ele>279.88</ele>
        <time>2017-10-30T14:43:23Z</time>
      </trkpt>
      <trkpt lat="51.460913959890604" lon="9.469016985967755">
        <ele>278.92000000000002</ele>
        <time>2017-10-30T14:43:24Z</time>
      </trkpt>
      <trkpt lat="51.461336994543672" lon="9.46870400570333">
        <ele>277</ele>
        <time>2017-10-30T14:43:28Z</time>
      </trkpt>
      <trkpt lat="51.461963038891554" lon="9.468340985476971">
        <ele>273.63</ele>
        <time>2017-10-30T14:43:34Z</time>
      </trkpt>
      <trkpt lat="51.46204300224781" lon="9.468283988535404">
        <ele>273.63</ele>
        <time>2017-10-30T14:43:35Z</time>
      </trkpt>
      <trkpt lat="51.462130006402731" lon="9.468132024630904">
        <ele>273.14999999999998</ele>
        <time>2017-10-30T14:43:36Z</time>
      </trkpt>
      <trkpt lat="51.462202006950974" lon="9.468005038797855">
        <ele>273.14999999999998</ele>
        <time>2017-10-30T14:43:37Z</time>
      </trkpt>
      <trkpt lat="51.462259003892541" lon="9.467846034094691">
        <ele>272.67000000000002</ele>
        <time>2017-10-30T14:43:38Z</time>
      </trkpt>
      <trkpt lat="51.462309965863824" lon="9.467686023563147">
        <ele>272.67000000000002</ele>
        <time>2017-10-30T14:43:39Z</time>
      </trkpt>
      <trkpt lat="51.462441980838776" lon="9.467208003625274">
        <ele>271.23000000000002</ele>
        <time>2017-10-30T14:43:42Z</time>
      </trkpt>
      <trkpt lat="51.462548011913896" lon="9.466509958729148">
        <ele>269.31</ele>
        <time>2017-10-30T14:43:46Z</time>
      </trkpt>
      <trkpt lat="51.462595034390688" lon="9.466027999296784">
        <ele>267.86000000000001</ele>
        <time>2017-10-30T14:43:49Z</time>
      </trkpt>
      <trkpt lat="51.462610960006714" lon="9.465864971280098">
        <ele>267.86000000000001</ele>
        <time>2017-10-30T14:43:50Z</time>
      </trkpt>
      <trkpt lat="51.46275001578033" lon="9.465005993843079">
        <ele>266.42000000000002</ele>
        <time>2017-10-30T14:43:56Z</time>
      </trkpt>
      <trkpt lat="51.462788991630077" lon="9.46489904075861">
        <ele>266.42000000000002</ele>
        <time>2017-10-30T14:43:57Z</time>
      </trkpt>
      <trkpt lat="51.46283701993525" lon="9.464851012453437">
        <ele>266.42000000000002</ele>
        <time>2017-10-30T14:43:58Z</time>
      </trkpt>
      <trkpt lat="51.462939027696848" lon="9.464857969433069">
        <ele>265.94</ele>
        <time>2017-10-30T14:43:59Z</time>
      </trkpt>
      <trkpt lat="51.463021002709866" lon="9.464864004403353">
        <ele>265.94</ele>
        <time>2017-10-30T14:44:00Z</time>
      </trkpt>
      <trkpt lat="51.46311697550118" lon="9.464870039373636">
        <ele>265.94</ele>
        <time>2017-10-30T14:44:01Z</time>
      </trkpt>
      <trkpt lat="51.463229963555932" lon="9.464878002181649">
        <ele>265.45999999999998</ele>
        <time>2017-10-30T14:44:02Z</time>
      </trkpt>
      <trkpt lat="51.46395399235189" lon="9.464914966374636">
        <ele>265.45999999999998</ele>
        <time>2017-10-30T14:44:09Z</time>
      </trkpt>
      <trkpt lat="51.464259009808302" lon="9.464914966374636">
        <ele>265.45999999999998</ele>
        <time>2017-10-30T14:44:12Z</time>
      </trkpt>
      <trkpt lat="51.464871978387237" lon="9.464884037151933">
        <ele>264.98000000000002</ele>
        <time>2017-10-30T14:44:20Z</time>
      </trkpt>
      <trkpt lat="51.464954037219286" lon="9.464874984696508">
        <ele>264.5</ele>
        <time>2017-10-30T14:44:22Z</time>
      </trkpt>
      <trkpt lat="51.465030983090401" lon="9.464803989976645">
        <ele>264.5</ele>
        <time>2017-10-30T14:44:23Z</time>
      </trkpt>
      <trkpt lat="51.465046992525458" lon="9.464728971943259">
        <ele>264.5</ele>
        <time>2017-10-30T14:44:24Z</time>
      </trkpt>
      <trkpt lat="51.465066019445658" lon="9.464641967788339">
        <ele>264.5</ele>
        <time>2017-10-30T14:44:25Z</time>
      </trkpt>
      <trkpt lat="51.465084962546825" lon="9.464551024138928">
        <ele>264.01999999999998</ele>
        <time>2017-10-30T14:44:26Z</time>
      </trkpt>
      <trkpt lat="51.465119998902082" lon="9.464517999440432">
        <ele>264.01999999999998</ele>
        <time>2017-10-30T14:44:27Z</time>
      </trkpt>
      <trkpt lat="51.465175990015268" lon="9.464498972520232">
        <ele>264.01999999999998</ele>
        <time>2017-10-30T14:44:28Z</time>
      </trkpt>
      <trkpt lat="51.465252013877034" lon="9.4644729886204">
        <ele>263.54000000000002</ele>
        <time>2017-10-30T14:44:29Z</time>
      </trkpt>
      <trkpt lat="51.465341029688716" lon="9.464440969750285">
        <ele>263.06</ele>
        <time>2017-10-30T14:44:30Z</time>
      </trkpt>
      <trkpt lat="51.466108979657292" lon="9.464262016117573">
        <ele>260.64999999999998</ele>
        <time>2017-10-30T14:44:36Z</time>
      </trkpt>
      <trkpt lat="51.466433024033904" lon="9.46419102139771">
        <ele>260.17000000000002</ele>
        <time>2017-10-30T14:44:38Z</time>
      </trkpt>
      <trkpt lat="51.467997003346682" lon="9.46380696259439">
        <ele>255.84999999999999</ele>
        <time>2017-10-30T14:44:46Z</time>
      </trkpt>
      <trkpt lat="51.46926200017333" lon="9.463199023157358">
        <ele>251.03999999999999</ele>
        <time>2017-10-30T14:44:53Z</time>
      </trkpt>
      <trkpt lat="51.469404995441437" lon="9.463071031495929">
        <ele>251.03999999999999</ele>
        <time>2017-10-30T14:44:54Z</time>
      </trkpt>
      <trkpt lat="51.469574980437756" lon="9.462918983772397">
        <ele>250.56</ele>
        <time>2017-10-30T14:44:55Z</time>
      </trkpt>
      <trkpt lat="51.470377966761589" lon="9.462081966921687">
        <ele>247.19999999999999</ele>
        <time>2017-10-30T14:45:00Z</time>
      </trkpt>
      <trkpt lat="51.470531020313501" lon="9.46189496666193">
        <ele>246.72</ele>
        <time>2017-10-30T14:45:01Z</time>
      </trkpt>
      <trkpt lat="51.470667980611324" lon="9.461665973067284">
        <ele>245.75</ele>
        <time>2017-10-30T14:45:02Z</time>
      </trkpt>
      <trkpt lat="51.470774011686444" lon="9.461391968652606">
        <ele>245.27000000000001</ele>
        <time>2017-10-30T14:45:03Z</time>
      </trkpt>
      <trkpt lat="51.470865039154887" lon="9.46109801530838">
        <ele>244.78999999999999</ele>
        <time>2017-10-30T14:45:04Z</time>
      </trkpt>
      <trkpt lat="51.470956988632679" lon="9.460800038650632">
        <ele>244.78999999999999</ele>
        <time>2017-10-30T14:45:05Z</time>
      </trkpt>
      <trkpt lat="51.47115396335721" lon="9.45983100682497">
        <ele>243.83000000000001</ele>
        <time>2017-10-30T14:45:08Z</time>
      </trkpt>
      <trkpt lat="51.471212971955538" lon="9.459496987983584">
        <ele>243.34999999999999</ele>
        <time>2017-10-30T14:45:09Z</time>
      </trkpt>
      <trkpt lat="51.471239039674401" lon="9.459138996899128">
        <ele>243.34999999999999</ele>
        <time>2017-10-30T14:45:10Z</time>
      </trkpt>
      <trkpt lat="51.471231998875737" lon="9.458771031349897">
        <ele>242.87</ele>
        <time>2017-10-30T14:45:11Z</time>
      </trkpt>
      <trkpt lat="51.47119402885437" lon="9.458402981981635">
        <ele>243.34999999999999</ele>
        <time>2017-10-30T14:45:12Z</time>
      </trkpt>
      <trkpt lat="51.471176007762551" lon="9.458028981462121">
        <ele>243.34999999999999</ele>
        <time>2017-10-30T14:45:13Z</time>
      </trkpt>
      <trkpt lat="51.471162009984255" lon="9.45546898059547">
        <ele>246.72</ele>
        <time>2017-10-30T14:45:20Z</time>
      </trkpt>
      <trkpt lat="51.471313973888755" lon="9.454452004283667">
        <ele>247.68000000000001</ele>
        <time>2017-10-30T14:45:23Z</time>
      </trkpt>
      <trkpt lat="51.471403995528817" lon="9.454152015969157">
        <ele>247.68000000000001</ele>
        <time>2017-10-30T14:45:24Z</time>
      </trkpt>
      <trkpt lat="51.471502985805273" lon="9.453839035704732">
        <ele>247.68000000000001</ele>
        <time>2017-10-30T14:45:25Z</time>
      </trkpt>
      <trkpt lat="51.471998021006584" lon="9.452563980594277">
        <ele>245.27000000000001</ele>
        <time>2017-10-30T14:45:29Z</time>
      </trkpt>
      <trkpt lat="51.472107991576195" lon="9.452229039743543">
        <ele>244.31</ele>
        <time>2017-10-30T14:45:30Z</time>
      </trkpt>
      <trkpt lat="51.472855992615223" lon="9.448991026729345">
        <ele>243.83000000000001</ele>
        <time>2017-10-30T14:45:39Z</time>
      </trkpt>
      <trkpt lat="51.473847990855575" lon="9.445355040952563">
        <ele>248.16</ele>
        <time>2017-10-30T14:45:49Z</time>
      </trkpt>
      <trkpt lat="51.474030967801809" lon="9.444289030507207">
        <ele>255.37</ele>
        <time>2017-10-30T14:45:53Z</time>
      </trkpt>
      <trkpt lat="51.474070027470589" lon="9.44412499666214">
        <ele>256.32999999999998</ele>
        <time>2017-10-30T14:45:54Z</time>
      </trkpt>
      <trkpt lat="51.474164994433522" lon="9.444022988900542">
        <ele>257.29000000000002</ele>
        <time>2017-10-30T14:45:55Z</time>
      </trkpt>
      <trkpt lat="51.474270019680262" lon="9.44395300000906">
        <ele>258.25</ele>
        <time>2017-10-30T14:45:56Z</time>
      </trkpt>
      <trkpt lat="51.474390970543027" lon="9.443888962268829">
        <ele>258.73000000000002</ele>
        <time>2017-10-30T14:45:57Z</time>
      </trkpt>
      <trkpt lat="51.474537989124656" lon="9.443834982812405">
        <ele>258.73000000000002</ele>
        <time>2017-10-30T14:45:58Z</time>
      </trkpt>
      <trkpt lat="51.475413981825113" lon="9.443293008953333">
        <ele>258.73000000000002</ele>
        <time>2017-10-30T14:46:03Z</time>
      </trkpt>
      <trkpt lat="51.475603999570012" lon="9.443156970664859">
        <ele>258.73000000000002</ele>
        <time>2017-10-30T14:46:04Z</time>
      </trkpt>
      <trkpt lat="51.475755041465163" lon="9.442948009818792">
        <ele>258.25</ele>
        <time>2017-10-30T14:46:05Z</time>
      </trkpt>
      <trkpt lat="51.477245008572936" lon="9.44083702750504">
        <ele>254.88999999999999</ele>
        <time>2017-10-30T14:46:14Z</time>
      </trkpt>
      <trkpt lat="51.477814977988601" lon="9.440008979290724">
        <ele>252.96000000000001</ele>
        <time>2017-10-30T14:46:18Z</time>
      </trkpt>
      <trkpt lat="51.47798496298492" lon="9.439847962930799">
        <ele>252</ele>
        <time>2017-10-30T14:46:19Z</time>
      </trkpt>
      <trkpt lat="51.478175986558199" lon="9.439723994582892">
        <ele>252</ele>
        <time>2017-10-30T14:46:20Z</time>
      </trkpt>
      <trkpt lat="51.479724962264299" lon="9.439123012125492">
        <ele>248.63999999999999</ele>
        <time>2017-10-30T14:46:27Z</time>
      </trkpt>
      <trkpt lat="51.480975039303303" lon="9.438943974673748">
        <ele>245.27000000000001</ele>
        <time>2017-10-30T14:46:33Z</time>
      </trkpt>
      <trkpt lat="51.481355996802449" lon="9.438875997439027">
        <ele>244.31</ele>
        <time>2017-10-30T14:46:35Z</time>
      </trkpt>
      <trkpt lat="51.481545008718967" lon="9.438791004940867">
        <ele>243.34999999999999</ele>
        <time>2017-10-30T14:46:36Z</time>
      </trkpt>
      <trkpt lat="51.483198003843427" lon="9.438096983358264">
        <ele>237.09999999999999</ele>
        <time>2017-10-30T14:46:44Z</time>
      </trkpt>
      <trkpt lat="51.484511028975248" lon="9.437297014519572">
        <ele>227.97</ele>
        <time>2017-10-30T14:46:51Z</time>
      </trkpt>
      <trkpt lat="51.485850960016251" lon="9.436300992965698">
        <ele>209.69999999999999</ele>
        <time>2017-10-30T14:46:59Z</time>
      </trkpt>
      <trkpt lat="51.48610501550138" lon="9.435980971902609">
        <ele>204.90000000000001</ele>
        <time>2017-10-30T14:47:01Z</time>
      </trkpt>
      <trkpt lat="51.486224960535765" lon="9.435805035755038">
        <ele>202.49000000000001</ele>
        <time>2017-10-30T14:47:02Z</time>
      </trkpt>
      <trkpt lat="51.486337026581168" lon="9.435596996918321">
        <ele>200.09</ele>
        <time>2017-10-30T14:47:03Z</time>
      </trkpt>
      <trkpt lat="51.486446997150779" lon="9.435393987223506">
        <ele>197.69</ele>
        <time>2017-10-30T14:47:04Z</time>
      </trkpt>
      <trkpt lat="51.486550010740757" lon="9.435202041640878">
        <ele>195.28</ele>
        <time>2017-10-30T14:47:05Z</time>
      </trkpt>
      <trkpt lat="51.487018978223205" lon="9.434332000091672">
        <ele>184.22999999999999</ele>
        <time>2017-10-30T14:47:11Z</time>
      </trkpt>
      <trkpt lat="51.487175971269608" lon="9.434163020923734">
        <ele>180.38</ele>
        <time>2017-10-30T14:47:13Z</time>
      </trkpt>
      <trkpt lat="51.487270016223192" lon="9.434115998446941">
        <ele>178.94</ele>
        <time>2017-10-30T14:47:14Z</time>
      </trkpt>
      <trkpt lat="51.487375041469932" lon="9.434085991233587">
        <ele>177.5</ele>
        <time>2017-10-30T14:47:15Z</time>
      </trkpt>
      <trkpt lat="51.487477971240878" lon="9.434065958485007">
        <ele>176.06</ele>
        <time>2017-10-30T14:47:16Z</time>
      </trkpt>
      <trkpt lat="51.487578973174095" lon="9.434046009555459">
        <ele>174.62</ele>
        <time>2017-10-30T14:47:17Z</time>
      </trkpt>
      <trkpt lat="51.488290010020137" lon="9.433885999023914">
        <ele>167.41</ele>
        <time>2017-10-30T14:47:24Z</time>
      </trkpt>
      <trkpt lat="51.488381959497929" lon="9.43385498598218">
        <ele>166.44999999999999</ele>
        <time>2017-10-30T14:47:25Z</time>
      </trkpt>
      <trkpt lat="51.48846703581512" lon="9.433792037889361">
        <ele>165.96000000000001</ele>
        <time>2017-10-30T14:47:26Z</time>
      </trkpt>
      <trkpt lat="51.488541970029473" lon="9.433717019855976">
        <ele>165.47999999999999</ele>
        <time>2017-10-30T14:47:27Z</time>
      </trkpt>
      <trkpt lat="51.48859997279942" lon="9.43357402458787">
        <ele>165.47999999999999</ele>
        <time>2017-10-30T14:47:28Z</time>
      </trkpt>
      <trkpt lat="51.48864297196269" lon="9.43342600017786">
        <ele>165</ele>
        <time>2017-10-30T14:47:29Z</time>
      </trkpt>
      <trkpt lat="51.488680019974709" lon="9.433257021009922">
        <ele>164.03999999999999</ele>
        <time>2017-10-30T14:47:30Z</time>
      </trkpt>
      <trkpt lat="51.488699968904257" lon="9.433075971901417">
        <ele>163.56</ele>
        <time>2017-10-30T14:47:31Z</time>
      </trkpt>
      <trkpt lat="51.488708015531301" lon="9.432880003005266">
        <ele>163.56</ele>
        <time>2017-10-30T14:47:32Z</time>
      </trkpt>
      <trkpt lat="51.488686976954341" lon="9.432702977210283">
        <ele>163.08000000000001</ele>
        <time>2017-10-30T14:47:33Z</time>
      </trkpt>
      <trkpt lat="51.488646995276213" lon="9.432356972247362">
        <ele>163.08000000000001</ele>
        <time>2017-10-30T14:47:35Z</time>
      </trkpt>
      <trkpt lat="51.488626962527633" lon="9.432191010564566">
        <ele>163.08000000000001</ele>
        <time>2017-10-30T14:47:36Z</time>
      </trkpt>
      <trkpt lat="51.488606007769704" lon="9.432015996426344">
        <ele>163.56</ele>
        <time>2017-10-30T14:47:37Z</time>
      </trkpt>
      <trkpt lat="51.488567031919956" lon="9.431859003379941">
        <ele>164.03999999999999</ele>
        <time>2017-10-30T14:47:38Z</time>
      </trkpt>
      <trkpt lat="51.488528978079557" lon="9.431711984798312">
        <ele>164.52000000000001</ele>
        <time>2017-10-30T14:47:39Z</time>
      </trkpt>
      <trkpt lat="51.488453038036823" lon="9.431414008140564">
        <ele>165.47999999999999</ele>
        <time>2017-10-30T14:47:41Z</time>
      </trkpt>
      <trkpt lat="51.488414984196424" lon="9.431263972073793">
        <ele>165.47999999999999</ele>
        <time>2017-10-30T14:47:42Z</time>
      </trkpt>
      <trkpt lat="51.488377014175057" lon="9.431114019826055">
        <ele>165.96000000000001</ele>
        <time>2017-10-30T14:47:43Z</time>
      </trkpt>
      <trkpt lat="51.487905029207468" lon="9.429130023345351">
        <ele>165.96000000000001</ele>
        <time>2017-10-30T14:47:55Z</time>
      </trkpt>
      <trkpt lat="51.487797992303967" lon="9.428644962608814">
        <ele>165.96000000000001</ele>
        <time>2017-10-30T14:47:58Z</time>
      </trkpt>
      <trkpt lat="51.487762033939362" lon="9.428479000926018">
        <ele>165.47999999999999</ele>
        <time>2017-10-30T14:47:59Z</time>
      </trkpt>
      <trkpt lat="51.487448969855905" lon="9.426873028278351">
        <ele>168.84999999999999</ele>
        <time>2017-10-30T14:48:08Z</time>
      </trkpt>
      <trkpt lat="51.487448969855905" lon="9.426669012755156">
        <ele>169.33000000000001</ele>
        <time>2017-10-30T14:48:09Z</time>
      </trkpt>
      <trkpt lat="51.48745902813971" lon="9.426456028595567">
        <ele>169.33000000000001</ele>
        <time>2017-10-30T14:48:10Z</time>
      </trkpt>
      <trkpt lat="51.487505966797471" lon="9.426232986152172">
        <ele>169.81</ele>
        <time>2017-10-30T14:48:11Z</time>
      </trkpt>
      <trkpt lat="51.487559024244547" lon="9.425983037799597">
        <ele>169.81</ele>
        <time>2017-10-30T14:48:12Z</time>
      </trkpt>
      <trkpt lat="51.487660026177764" lon="9.425739962607622">
        <ele>169.81</ele>
        <time>2017-10-30T14:48:13Z</time>
      </trkpt>
      <trkpt lat="51.487766979262233" lon="9.425481967628002">
        <ele>170.28999999999999</ele>
        <time>2017-10-30T14:48:14Z</time>
      </trkpt>
      <trkpt lat="51.488285986706614" lon="9.42423096857965">
        <ele>173.66</ele>
        <time>2017-10-30T14:48:19Z</time>
      </trkpt>
      <trkpt lat="51.4883419778198" lon="9.423986971378326">
        <ele>174.13999999999999</ele>
        <time>2017-10-30T14:48:20Z</time>
      </trkpt>
      <trkpt lat="51.488368967548013" lon="9.423737023025751">
        <ele>175.09999999999999</ele>
        <time>2017-10-30T14:48:21Z</time>
      </trkpt>
      <trkpt lat="51.488393023610115" lon="9.423468969762325">
        <ele>176.06</ele>
        <time>2017-10-30T14:48:22Z</time>
      </trkpt>
      <trkpt lat="51.488416995853186" lon="9.423192031681538">
        <ele>176.53999999999999</ele>
        <time>2017-10-30T14:48:23Z</time>
      </trkpt>
      <trkpt lat="51.488441973924637" lon="9.422905035316944">
        <ele>177.02000000000001</ele>
        <time>2017-10-30T14:48:24Z</time>
      </trkpt>
      <trkpt lat="51.48846996948123" lon="9.422591971233487">
        <ele>177.97999999999999</ele>
        <time>2017-10-30T14:48:25Z</time>
      </trkpt>
      <trkpt lat="51.489045973867178" lon="9.420124003663659">
        <ele>182.31</ele>
        <time>2017-10-30T14:48:32Z</time>
      </trkpt>
      <trkpt lat="51.48975701071322" lon="9.417348001152277">
        <ele>188.08000000000001</ele>
        <time>2017-10-30T14:48:40Z</time>
      </trkpt>
      <trkpt lat="51.490303007885814" lon="9.414490023627877">
        <ele>186.63</ele>
        <time>2017-10-30T14:48:48Z</time>
      </trkpt>
      <trkpt lat="51.491350997239351" lon="9.410433014854789">
        <ele>180.38</ele>
        <time>2017-10-30T14:48:59Z</time>
      </trkpt>
      <trkpt lat="51.491995984688401" lon="9.408601988106966">
        <ele>179.90000000000001</ele>
        <time>2017-10-30T14:49:05Z</time>
      </trkpt>
      <trkpt lat="51.493022013455629" lon="9.406563006341457">
        <ele>177.97999999999999</ele>
        <time>2017-10-30T14:49:12Z</time>
      </trkpt>
      <trkpt lat="51.493677981197834" lon="9.4052379950881">
        <ele>175.58000000000001</ele>
        <time>2017-10-30T14:49:17Z</time>
      </trkpt>
      <trkpt lat="51.493814019486308" lon="9.404734997078776">
        <ele>174.13999999999999</ele>
        <time>2017-10-30T14:49:19Z</time>
      </trkpt>
      <trkpt lat="51.493860958144069" lon="9.404497034847736">
        <ele>173.66</ele>
        <time>2017-10-30T14:49:20Z</time>
      </trkpt>
      <trkpt lat="51.49398903362453" lon="9.403828997164965">
        <ele>171.72999999999999</ele>
        <time>2017-10-30T14:49:23Z</time>
      </trkpt>
      <trkpt lat="51.494062962010503" lon="9.403617018833756">
        <ele>171.25</ele>
        <time>2017-10-30T14:49:24Z</time>
      </trkpt>
      <trkpt lat="51.49414200335741" lon="9.403407974168658">
        <ele>170.77000000000001</ele>
        <time>2017-10-30T14:49:25Z</time>
      </trkpt>
      <trkpt lat="51.494223978370428" lon="9.40321896225214">
        <ele>170.28999999999999</ele>
        <time>2017-10-30T14:49:26Z</time>
      </trkpt>
      <trkpt lat="51.494310982525349" lon="9.403059035539627">
        <ele>169.81</ele>
        <time>2017-10-30T14:49:27Z</time>
      </trkpt>
      <trkpt lat="51.494392035529017" lon="9.402907993644476">
        <ele>169.33000000000001</ele>
        <time>2017-10-30T14:49:28Z</time>
      </trkpt>
      <trkpt lat="51.495514959096909" lon="9.400845961645246">
        <ele>159.24000000000001</ele>
        <time>2017-10-30T14:49:42Z</time>
      </trkpt>
      <trkpt lat="51.49635499343276" lon="9.399187015369535">
        <ele>152.03</ele>
        <time>2017-10-30T14:49:53Z</time>
      </trkpt>
      <trkpt lat="51.496468987315893" lon="9.398860037326813">
        <ele>152.03</ele>
        <time>2017-10-30T14:49:55Z</time>
      </trkpt>
      <trkpt lat="51.496521960943937" lon="9.398691980168223">
        <ele>152.03</ele>
        <time>2017-10-30T14:49:56Z</time>
      </trkpt>
      <trkpt lat="51.497136019170284" lon="9.396809991449118">
        <ele>147.69999999999999</ele>
        <time>2017-10-30T14:50:07Z</time>
      </trkpt>
      <trkpt lat="51.49719100445509" lon="9.396701026707888">
        <ele>147.22</ele>
        <time>2017-10-30T14:50:08Z</time>
      </trkpt>
      <trkpt lat="51.497280020266771" lon="9.396593989804387">
        <ele>146.25999999999999</ele>
        <time>2017-10-30T14:50:09Z</time>
      </trkpt>
      <trkpt lat="51.497347997501493" lon="9.396512014791369">
        <ele>145.78</ele>
        <time>2017-10-30T14:50:10Z</time>
      </trkpt>
      <trkpt lat="51.497414968907833" lon="9.396439008414745">
        <ele>145.30000000000001</ele>
        <time>2017-10-30T14:50:11Z</time>
      </trkpt>
      <trkpt lat="51.497490992769599" lon="9.39640598371625">
        <ele>144.81999999999999</ele>
        <time>2017-10-30T14:50:12Z</time>
      </trkpt>
      <trkpt lat="51.497562993317842" lon="9.396373964846134">
        <ele>144.34</ele>
        <time>2017-10-30T14:50:13Z</time>
      </trkpt>
      <trkpt lat="51.497632982209325" lon="9.396343035623431">
        <ele>143.84999999999999</ele>
        <time>2017-10-30T14:50:14Z</time>
      </trkpt>
      <trkpt lat="51.498089963570237" lon="9.396145977079868">
        <ele>142.41</ele>
        <time>2017-10-30T14:50:20Z</time>
      </trkpt>
      <trkpt lat="51.498171016573906" lon="9.396112030372024">
        <ele>142.88999999999999</ele>
        <time>2017-10-30T14:50:21Z</time>
      </trkpt>
      <trkpt lat="51.498256009072065" lon="9.396071964874864">
        <ele>142.88999999999999</ele>
        <time>2017-10-30T14:50:22Z</time>
      </trkpt>
      <trkpt lat="51.498504029586911" lon="9.395950008183718">
        <ele>143.37</ele>
        <time>2017-10-30T14:50:25Z</time>
      </trkpt>
      <trkpt lat="51.498586004599929" lon="9.395957970991731">
        <ele>143.84999999999999</ele>
        <time>2017-10-30T14:50:26Z</time>
      </trkpt>
      <trkpt lat="51.498665967956185" lon="9.395966017618775">
        <ele>144.34</ele>
        <time>2017-10-30T14:50:27Z</time>
      </trkpt>
      <trkpt lat="51.498747020959854" lon="9.396004993468523">
        <ele>144.34</ele>
        <time>2017-10-30T14:50:28Z</time>
      </trkpt>
      <trkpt lat="51.498810974881053" lon="9.396069031208754">
        <ele>144.81999999999999</ele>
        <time>2017-10-30T14:50:29Z</time>
      </trkpt>
      <trkpt lat="51.498875012621284" lon="9.396131979301572">
        <ele>144.81999999999999</ele>
        <time>2017-10-30T14:50:30Z</time>
      </trkpt>
      <trkpt lat="51.49893200956285" lon="9.396188976243138">
        <ele>145.30000000000001</ele>
        <time>2017-10-30T14:50:31Z</time>
      </trkpt>
      <trkpt lat="51.49899797514081" lon="9.396268017590046">
        <ele>145.78</ele>
        <time>2017-10-30T14:50:32Z</time>
      </trkpt>
      <trkpt lat="51.499023959040642" lon="9.396369019523263">
        <ele>146.25999999999999</ele>
        <time>2017-10-30T14:50:33Z</time>
      </trkpt>
      <trkpt lat="51.499050026759505" lon="9.396467003971338">
        <ele>146.74000000000001</ele>
        <time>2017-10-30T14:50:34Z</time>
      </trkpt>
      <trkpt lat="51.499072993174195" lon="9.396558031439781">
        <ele>147.22</ele>
        <time>2017-10-30T14:50:35Z</time>
      </trkpt>
      <trkpt lat="51.499095037579536" lon="9.396641012281179">
        <ele>147.69999999999999</ele>
        <time>2017-10-30T14:50:36Z</time>
      </trkpt>
      <trkpt lat="51.499122027307749" lon="9.396744025871158">
        <ele>148.18000000000001</ele>
        <time>2017-10-30T14:50:37Z</time>
      </trkpt>
      <trkpt lat="51.499114986509085" lon="9.396829018369317">
        <ele>148.66</ele>
        <time>2017-10-30T14:50:38Z</time>
      </trkpt>
      <trkpt lat="51.499108029529452" lon="9.396910993382335">
        <ele>149.13999999999999</ele>
        <time>2017-10-30T14:50:39Z</time>
      </trkpt>
      <trkpt lat="51.499082967638969" lon="9.397033033892512">
        <ele>150.09999999999999</ele>
        <time>2017-10-30T14:50:40Z</time>
      </trkpt>
      <trkpt lat="51.49906100705266" lon="9.397074021399021">
        <ele>150.58000000000001</ele>
        <time>2017-10-30T14:50:41Z</time>
      </trkpt>
      <trkpt lat="51.499044997617602" lon="9.397105034440756">
        <ele>151.06</ele>
        <time>2017-10-30T14:50:42Z</time>
      </trkpt>
      <trkpt lat="51.499028988182545" lon="9.397134035825729">
        <ele>151.53999999999999</ele>
        <time>2017-10-30T14:50:43Z</time>
      </trkpt>
      <trkpt lat="51.498857997357845" lon="9.397103022783995">
        <ele>151.53999999999999</ele>
        <time>2017-10-30T14:50:44Z</time>
      </trkpt>
      <trkpt lat="51.498830001801252" lon="9.397048959508538">
        <ele>152.03</ele>
        <time>2017-10-30T14:50:45Z</time>
      </trkpt>
      <trkpt lat="51.498798988759518" lon="9.396988023072481">
        <ele>152.50999999999999</ele>
        <time>2017-10-30T14:50:46Z</time>
      </trkpt>
      <trkpt lat="51.498764958232641" lon="9.39692297950387">
        <ele>152.99000000000001</ele>
        <time>2017-10-30T14:50:47Z</time>
      </trkpt>
      <trkpt lat="51.498248968273401" lon="9.396166009828448">
        <ele>155.38999999999999</ele>
        <time>2017-10-30T14:50:56Z</time>
      </trkpt>
      <trkpt lat="51.497327964752913" lon="9.395211981609464">
        <ele>154.91</ele>
        <time>2017-10-30T14:51:08Z</time>
      </trkpt>
      <trkpt lat="51.497119003906846" lon="9.394912999123335">
        <ele>153.47</ele>
        <time>2017-10-30T14:51:12Z</time>
      </trkpt>
      <trkpt lat="51.497083967551589" lon="9.394862037152052">
        <ele>152.99000000000001</ele>
        <time>2017-10-30T14:51:13Z</time>
      </trkpt>
      <trkpt lat="51.497044991701841" lon="9.394806968048215">
        <ele>152.99000000000001</ele>
        <time>2017-10-30T14:51:14Z</time>
      </trkpt>
      <trkpt lat="51.49691398255527" lon="9.394520977512002">
        <ele>152.03</ele>
        <time>2017-10-30T14:51:18Z</time>
      </trkpt>
      <trkpt lat="51.496879030019045" lon="9.394435985013843">
        <ele>151.53999999999999</ele>
        <time>2017-10-30T14:51:19Z</time>
      </trkpt>
      <trkpt lat="51.496812980622053" lon="9.394281003624201">
        <ele>151.06</ele>
        <time>2017-10-30T14:51:21Z</time>
      </trkpt>
      <trkpt lat="51.496757995337248" lon="9.39414999447763">
        <ele>150.09999999999999</ele>
        <time>2017-10-30T14:51:23Z</time>
      </trkpt>
      <trkpt lat="51.496737962588668" lon="9.394103977829218">
        <ele>149.62</ele>
        <time>2017-10-30T14:51:24Z</time>
      </trkpt>
      <trkpt lat="51.496726982295513" lon="9.394076988101006">
        <ele>149.13999999999999</ele>
        <time>2017-10-30T14:51:25Z</time>
      </trkpt>
      <trkpt lat="51.496746009215713" lon="9.393875990062952">
        <ele>148.66</ele>
        <time>2017-10-30T14:51:26Z</time>
      </trkpt>
      <trkpt lat="51.496777022257447" lon="9.393841959536076">
        <ele>148.18000000000001</ele>
        <time>2017-10-30T14:51:27Z</time>
      </trkpt>
      <trkpt lat="51.496910965070128" lon="9.393695024773479">
        <ele>145.30000000000001</ele>
        <time>2017-10-30T14:51:34Z</time>
      </trkpt>
      <trkpt lat="51.496910965070128" lon="9.393695024773479">
        <ele>145.30000000000001</ele>
        <time>2017-10-30T14:51:44Z</time>
      </trkpt>
      <trkpt lat="51.496952958405018" lon="9.393648002296686">
        <ele>144.81999999999999</ele>
        <time>2017-10-30T14:51:45Z</time>
      </trkpt>
      <trkpt lat="51.497109029442072" lon="9.393474999815226">
        <ele>144.81999999999999</ele>
        <time>2017-10-30T14:51:53Z</time>
      </trkpt>
      <trkpt lat="51.497594006359577" lon="9.392931014299393">
        <ele>144.34</ele>
        <time>2017-10-30T14:51:59Z</time>
      </trkpt>
      <trkpt lat="51.498248968273401" lon="9.39221897162497">
        <ele>143.84999999999999</ele>
        <time>2017-10-30T14:52:07Z</time>
      </trkpt>
      <trkpt lat="51.499446993693709" lon="9.39097099006176">
        <ele>143.84999999999999</ele>
        <time>2017-10-30T14:52:21Z</time>
      </trkpt>
      <trkpt lat="51.499634999781847" lon="9.390817014500499">
        <ele>143.84999999999999</ele>
        <time>2017-10-30T14:52:23Z</time>
      </trkpt>
      <trkpt lat="51.50084400549531" lon="9.39011100679636">
        <ele>147.69999999999999</ele>
        <time>2017-10-30T14:52:35Z</time>
      </trkpt>
      <trkpt lat="51.501957038417459" lon="9.389647990465164">
        <ele>151.53999999999999</ele>
        <time>2017-10-30T14:52:46Z</time>
      </trkpt>
      <trkpt lat="51.502226013690233" lon="9.389506001025438">
        <ele>151.53999999999999</ele>
        <time>2017-10-30T14:52:52Z</time>
      </trkpt>
      <trkpt lat="51.502246968448162" lon="9.389430982992053">
        <ele>152.03</ele>
        <time>2017-10-30T14:52:53Z</time>
      </trkpt>
      <trkpt lat="51.502274964004755" lon="9.389335010200739">
        <ele>152.03</ele>
        <time>2017-10-30T14:52:54Z</time>
      </trkpt>
      <trkpt lat="51.502290973439813" lon="9.389210036024451">
        <ele>152.50999999999999</ele>
        <time>2017-10-30T14:52:55Z</time>
      </trkpt>
      <trkpt lat="51.502270018681884" lon="9.389076009392738">
        <ele>152.99000000000001</ele>
        <time>2017-10-30T14:52:56Z</time>
      </trkpt>
      <trkpt lat="51.502245962619781" lon="9.388925973325968">
        <ele>152.99000000000001</ele>
        <time>2017-10-30T14:52:57Z</time>
      </trkpt>
      <trkpt lat="51.501972964033484" lon="9.387408010661602">
        <ele>156.83000000000001</ele>
        <time>2017-10-30T14:53:05Z</time>
      </trkpt>
      <trkpt lat="51.50181395933032" lon="9.38652103766799">
        <ele>158.27000000000001</ele>
        <time>2017-10-30T14:53:10Z</time>
      </trkpt>
      <trkpt lat="51.501785041764379" lon="9.386354992166162">
        <ele>158.27000000000001</ele>
        <time>2017-10-30T14:53:11Z</time>
      </trkpt>
      <trkpt lat="51.5015559643507" lon="9.384786989539862">
        <ele>161.16</ele>
        <time>2017-10-30T14:53:21Z</time>
      </trkpt>
      <trkpt lat="51.50157599709928" lon="9.384638965129852">
        <ele>161.63999999999999</ele>
        <time>2017-10-30T14:53:22Z</time>
      </trkpt>
      <trkpt lat="51.501597035676241" lon="9.384491024538875">
        <ele>161.63999999999999</ele>
        <time>2017-10-30T14:53:23Z</time>
      </trkpt>
      <trkpt lat="51.501616984605789" lon="9.384343000128865">
        <ele>162.12</ele>
        <time>2017-10-30T14:53:24Z</time>
      </trkpt>
      <trkpt lat="51.501647997647524" lon="9.384193969890475">
        <ele>162.12</ele>
        <time>2017-10-30T14:53:25Z</time>
      </trkpt>
      <trkpt lat="51.501696025952697" lon="9.384068995714188">
        <ele>162.59999999999999</ele>
        <time>2017-10-30T14:53:26Z</time>
      </trkpt>
      <trkpt lat="51.501740030944347" lon="9.383952990174294">
        <ele>162.59999999999999</ele>
        <time>2017-10-30T14:53:27Z</time>
      </trkpt>
      <trkpt lat="51.501900963485241" lon="9.383535990491509">
        <ele>163.08000000000001</ele>
        <time>2017-10-30T14:53:33Z</time>
      </trkpt>
      <trkpt lat="51.501916972920299" lon="9.383492991328239">
        <ele>163.08000000000001</ele>
        <time>2017-10-30T14:53:34Z</time>
      </trkpt>
      <trkpt lat="51.501913033425808" lon="9.383352007716894">
        <ele>163.08000000000001</ele>
        <time>2017-10-30T14:53:35Z</time>
      </trkpt>
      <trkpt lat="51.50185695849359" lon="9.383288975805044">
        <ele>163.08000000000001</ele>
        <time>2017-10-30T14:53:36Z</time>
      </trkpt>
      <trkpt lat="51.501783030107617" lon="9.383205994963646">
        <ele>163.08000000000001</ele>
        <time>2017-10-30T14:53:37Z</time>
      </trkpt>
      <trkpt lat="51.501695020124316" lon="9.38310700468719">
        <ele>163.08000000000001</ele>
        <time>2017-10-30T14:53:38Z</time>
      </trkpt>
      <trkpt lat="51.501594018191099" lon="9.382994016632438">
        <ele>163.08000000000001</ele>
        <time>2017-10-30T14:53:39Z</time>
      </trkpt>
      <trkpt lat="51.501483963802457" lon="9.38287097029388">
        <ele>163.08000000000001</ele>
        <time>2017-10-30T14:53:40Z</time>
      </trkpt>
      <trkpt lat="51.500674020498991" lon="9.381858017295599">
        <ele>162.59999999999999</ele>
        <time>2017-10-30T14:53:48Z</time>
      </trkpt>
      <trkpt lat="51.499639023095369" lon="9.380237963050604">
        <ele>162.59999999999999</ele>
        <time>2017-10-30T14:54:00Z</time>
      </trkpt>
      <trkpt lat="51.499555036425591" lon="9.380095973610878">
        <ele>163.08000000000001</ele>
        <time>2017-10-30T14:54:01Z</time>
      </trkpt>
      <trkpt lat="51.498721959069371" lon="9.37822999432683">
        <ele>165.96000000000001</ele>
        <time>2017-10-30T14:54:13Z</time>
      </trkpt>
      <trkpt lat="51.497959038242698" lon="9.376306012272835">
        <ele>171.72999999999999</ele>
        <time>2017-10-30T14:54:25Z</time>
      </trkpt>
      <trkpt lat="51.497710011899471" lon="9.375881971791387">
        <ele>173.66</ele>
        <time>2017-10-30T14:54:28Z</time>
      </trkpt>
      <trkpt lat="51.497619990259409" lon="9.375754985958338">
        <ele>174.13999999999999</ele>
        <time>2017-10-30T14:54:29Z</time>
      </trkpt>
      <trkpt lat="51.497185975313187" lon="9.375396994873881">
        <ele>176.06</ele>
        <time>2017-10-30T14:54:33Z</time>
      </trkpt>
      <trkpt lat="51.495771026238799" lon="9.374703979119659">
        <ele>177.97999999999999</ele>
        <time>2017-10-30T14:54:45Z</time>
      </trkpt>
      <trkpt lat="51.495461985468864" lon="9.374395022168756">
        <ele>176.53999999999999</ele>
        <time>2017-10-30T14:54:48Z</time>
      </trkpt>
      <trkpt lat="51.495364001020789" lon="9.374284967780113">
        <ele>176.53999999999999</ele>
        <time>2017-10-30T14:54:49Z</time>
      </trkpt>
      <trkpt lat="51.495273979380727" lon="9.374157981947064">
        <ele>176.06</ele>
        <time>2017-10-30T14:54:50Z</time>
      </trkpt>
      <trkpt lat="51.495196027681231" lon="9.373999983072281">
        <ele>176.06</ele>
        <time>2017-10-30T14:54:51Z</time>
      </trkpt>
      <trkpt lat="51.49512997828424" lon="9.373829998075962">
        <ele>176.06</ele>
        <time>2017-10-30T14:54:52Z</time>
      </trkpt>
      <trkpt lat="51.495063006877899" lon="9.373659007251263">
        <ele>175.58000000000001</ele>
        <time>2017-10-30T14:54:53Z</time>
      </trkpt>
      <trkpt lat="51.495015984401107" lon="9.373479969799519">
        <ele>175.58000000000001</ele>
        <time>2017-10-30T14:54:54Z</time>
      </trkpt>
      <trkpt lat="51.494980026036501" lon="9.373311996459961">
        <ele>175.58000000000001</ele>
        <time>2017-10-30T14:54:55Z</time>
      </trkpt>
      <trkpt lat="51.494955969974399" lon="9.373126002028585">
        <ele>175.09999999999999</ele>
        <time>2017-10-30T14:54:56Z</time>
      </trkpt>
      <trkpt lat="51.494933003559709" lon="9.37294595874846">
        <ele>175.09999999999999</ele>
        <time>2017-10-30T14:54:57Z</time>
      </trkpt>
      <trkpt lat="51.494921017438173" lon="9.372756024822593">
        <ele>175.09999999999999</ele>
        <time>2017-10-30T14:54:58Z</time>
      </trkpt>
      <trkpt lat="51.494934009388089" lon="9.372569024562836">
        <ele>175.09999999999999</ele>
        <time>2017-10-30T14:54:59Z</time>
      </trkpt>
      <trkpt lat="51.494948007166386" lon="9.372376995161176">
        <ele>175.09999999999999</ele>
        <time>2017-10-30T14:55:00Z</time>
      </trkpt>
      <trkpt lat="51.494960999116302" lon="9.372185971587896">
        <ele>175.58000000000001</ele>
        <time>2017-10-30T14:55:01Z</time>
      </trkpt>
      <trkpt lat="51.4950439799577" lon="9.370269030332565">
        <ele>182.78999999999999</ele>
        <time>2017-10-30T14:55:11Z</time>
      </trkpt>
      <trkpt lat="51.495040962472558" lon="9.370069038122892">
        <ele>183.27000000000001</ele>
        <time>2017-10-30T14:55:12Z</time>
      </trkpt>
      <trkpt lat="51.495023025199771" lon="9.367776000872254">
        <ele>195.28</ele>
        <time>2017-10-30T14:55:24Z</time>
      </trkpt>
      <trkpt lat="51.495070969685912" lon="9.366200035437942">
        <ele>203.46000000000001</ele>
        <time>2017-10-30T14:55:30Z</time>
      </trkpt>
      <trkpt lat="51.495056971907616" lon="9.362894967198372">
        <ele>218.84</ele>
        <time>2017-10-30T14:55:39Z</time>
      </trkpt>
      <trkpt lat="51.494604013860226" lon="9.359029987826943">
        <ele>232.78</ele>
        <time>2017-10-30T14:55:49Z</time>
      </trkpt>
      <trkpt lat="51.494474010542035" lon="9.355875039473176">
        <ele>240.47</ele>
        <time>2017-10-30T14:55:56Z</time>
      </trkpt>
      <trkpt lat="51.494758995249867" lon="9.352376013994217">
        <ele>250.08000000000001</ele>
        <time>2017-10-30T14:56:04Z</time>
      </trkpt>
      <trkpt lat="51.494992012158036" lon="9.348206017166376">
        <ele>254.41</ele>
        <time>2017-10-30T14:56:13Z</time>
      </trkpt>
      <trkpt lat="51.49517398327589" lon="9.343436965718865">
        <ele>264.98000000000002</ele>
        <time>2017-10-30T14:56:23Z</time>
      </trkpt>
      <trkpt lat="51.495485035702586" lon="9.337833998724818">
        <ele>277</ele>
        <time>2017-10-30T14:56:35Z</time>
      </trkpt>
      <trkpt lat="51.495716040953994" lon="9.334748033434153">
        <ele>279.88</ele>
        <time>2017-10-30T14:56:43Z</time>
      </trkpt>
      <trkpt lat="51.495928019285202" lon="9.332740986719728">
        <ele>280.36000000000001</ele>
        <time>2017-10-30T14:56:50Z</time>
      </trkpt>
      <trkpt lat="51.495974035933614" lon="9.330130023881793">
        <ele>281.31999999999999</ele>
        <time>2017-10-30T14:56:56Z</time>
      </trkpt>
      <trkpt lat="51.495957020670176" lon="9.326438969001174">
        <ele>284.20999999999998</ele>
        <time>2017-10-30T14:57:05Z</time>
      </trkpt>
      <trkpt lat="51.495327036827803" lon="9.323643017560244">
        <ele>282.27999999999997</ele>
        <time>2017-10-30T14:57:12Z</time>
      </trkpt>
      <trkpt lat="51.494954964146018" lon="9.3206060025841">
        <ele>281.31999999999999</ele>
        <time>2017-10-30T14:57:19Z</time>
      </trkpt>
      <trkpt lat="51.495031993836164" lon="9.31710496544838">
        <ele>280.36000000000001</ele>
        <time>2017-10-30T14:57:27Z</time>
      </trkpt>
      <trkpt lat="51.495063006877899" lon="9.314615037292242">
        <ele>276.51999999999998</ele>
        <time>2017-10-30T14:57:33Z</time>
      </trkpt>
      <trkpt lat="51.495035011321306" lon="9.314230978488922">
        <ele>275.56</ele>
        <time>2017-10-30T14:57:34Z</time>
      </trkpt>
      <trkpt lat="51.494948007166386" lon="9.313901988789439">
        <ele>274.58999999999997</ele>
        <time>2017-10-30T14:57:35Z</time>
      </trkpt>
      <trkpt lat="51.494841976091266" lon="9.313572999089956">
        <ele>273.63</ele>
        <time>2017-10-30T14:57:36Z</time>
      </trkpt>
      <trkpt lat="51.494712978601456" lon="9.313250966370106">
        <ele>272.19</ele>
        <time>2017-10-30T14:57:37Z</time>
      </trkpt>
      <trkpt lat="51.494576018303633" lon="9.312913008034229">
        <ele>271.23000000000002</ele>
        <time>2017-10-30T14:57:38Z</time>
      </trkpt>
      <trkpt lat="51.493749981746078" lon="9.310876037925482">
        <ele>260.64999999999998</ele>
        <time>2017-10-30T14:57:44Z</time>
      </trkpt>
      <trkpt lat="51.493676975369453" lon="9.310569008812308">
        <ele>258.73000000000002</ele>
        <time>2017-10-30T14:57:45Z</time>
      </trkpt>
      <trkpt lat="51.493632970377803" lon="9.310286035761237">
        <ele>256.81</ele>
        <time>2017-10-30T14:57:46Z</time>
      </trkpt>
      <trkpt lat="51.49354001507163" lon="9.309668960049748">
        <ele>252</ele>
        <time>2017-10-30T14:57:49Z</time>
      </trkpt>
      <trkpt lat="51.493525011464953" lon="9.309530993923545">
        <ele>250.56</ele>
        <time>2017-10-30T14:57:50Z</time>
      </trkpt>
      <trkpt lat="51.493549989536405" lon="9.309418005868793">
        <ele>249.59999999999999</ele>
        <time>2017-10-30T14:57:51Z</time>
      </trkpt>
      <trkpt lat="51.493589971214533" lon="9.309308035299182">
        <ele>248.16</ele>
        <time>2017-10-30T14:57:52Z</time>
      </trkpt>
      <trkpt lat="51.493673035874963" lon="9.309263024479151">
        <ele>247.19999999999999</ele>
        <time>2017-10-30T14:57:53Z</time>
      </trkpt>
      <trkpt lat="51.493771020323038" lon="9.309266963973641">
        <ele>246.22999999999999</ele>
        <time>2017-10-30T14:57:54Z</time>
      </trkpt>
      <trkpt lat="51.49388300254941" lon="9.309271993115544">
        <ele>245.27000000000001</ele>
        <time>2017-10-30T14:57:55Z</time>
      </trkpt>
      <trkpt lat="51.493994984775782" lon="9.309276016429067">
        <ele>244.78999999999999</ele>
        <time>2017-10-30T14:57:56Z</time>
      </trkpt>
      <trkpt lat="51.494103027507663" lon="9.309280961751938">
        <ele>243.34999999999999</ele>
        <time>2017-10-30T14:57:57Z</time>
      </trkpt>
      <trkpt lat="51.49420696310699" lon="9.309226982295513">
        <ele>242.38999999999999</ele>
        <time>2017-10-30T14:57:58Z</time>
      </trkpt>
      <trkpt lat="51.494325986132026" lon="9.309122040867806">
        <ele>241.43000000000001</ele>
        <time>2017-10-30T14:57:59Z</time>
      </trkpt>
      <trkpt lat="51.494461018592119" lon="9.30900301784277">
        <ele>239.99000000000001</ele>
        <time>2017-10-30T14:58:00Z</time>
      </trkpt>
      <trkpt lat="51.494609965011477" lon="9.308873014524579">
        <ele>238.53999999999999</ele>
        <time>2017-10-30T14:58:01Z</time>
      </trkpt>
      <trkpt lat="51.494768969714642" lon="9.308733036741614">
        <ele>237.58000000000001</ele>
        <time>2017-10-30T14:58:02Z</time>
      </trkpt>
      <trkpt lat="51.494949012994766" lon="9.30861996486783">
        <ele>236.62</ele>
        <time>2017-10-30T14:58:03Z</time>
      </trkpt>
      <trkpt lat="51.496594967320561" lon="9.307957040145993">
        <ele>227.97</ele>
        <time>2017-10-30T14:58:11Z</time>
      </trkpt>
      <trkpt lat="51.498420964926481" lon="9.307034024968743">
        <ele>215.94999999999999</ele>
        <time>2017-10-30T14:58:21Z</time>
      </trkpt>
      <trkpt lat="51.498552979901433" lon="9.306923970580101">
        <ele>214.99000000000001</ele>
        <time>2017-10-30T14:58:22Z</time>
      </trkpt>
      <trkpt lat="51.498677032068372" lon="9.306773012503982">
        <ele>214.03</ele>
        <time>2017-10-30T14:58:23Z</time>
      </trkpt>
      <trkpt lat="51.498798988759518" lon="9.306588023900986">
        <ele>212.59</ele>
        <time>2017-10-30T14:58:24Z</time>
      </trkpt>
      <trkpt lat="51.498926980420947" lon="9.306393982842565">
        <ele>211.15000000000001</ele>
        <time>2017-10-30T14:58:25Z</time>
      </trkpt>
      <trkpt lat="51.499508013948798" lon="9.305384969338775">
        <ele>202.97999999999999</ele>
        <time>2017-10-30T14:58:30Z</time>
      </trkpt>
      <trkpt lat="51.499610021710396" lon="9.305142983794212">
        <ele>201.05000000000001</ele>
        <time>2017-10-30T14:58:31Z</time>
      </trkpt>
      <trkpt lat="51.499998020008206" lon="9.303835993632674">
        <ele>190.96000000000001</ele>
        <time>2017-10-30T14:58:36Z</time>
      </trkpt>
      <trkpt lat="51.500065997242928" lon="9.303531982004643">
        <ele>189.03999999999999</ele>
        <time>2017-10-30T14:58:37Z</time>
      </trkpt>
      <trkpt lat="51.500347964465618" lon="9.300966029986739">
        <ele>173.66</ele>
        <time>2017-10-30T14:58:45Z</time>
      </trkpt>
      <trkpt lat="51.500792037695646" lon="9.298939034342766">
        <ele>160.68000000000001</ele>
        <time>2017-10-30T14:58:52Z</time>
      </trkpt>
      <trkpt lat="51.500941989943385" lon="9.298250041902065">
        <ele>155.38999999999999</ele>
        <time>2017-10-30T14:58:57Z</time>
      </trkpt>
      <trkpt lat="51.500976020470262" lon="9.298097994178534">
        <ele>152.50999999999999</ele>
        <time>2017-10-30T14:59:02Z</time>
      </trkpt>
      <trkpt lat="51.500978032127023" lon="9.298024987801909">
        <ele>152.03</ele>
        <time>2017-10-30T14:59:03Z</time>
      </trkpt>
      <trkpt lat="51.500936960801482" lon="9.297975031659007">
        <ele>151.53999999999999</ele>
        <time>2017-10-30T14:59:04Z</time>
      </trkpt>
      <trkpt lat="51.500876024365425" lon="9.297899007797241">
        <ele>150.58000000000001</ele>
        <time>2017-10-30T14:59:05Z</time>
      </trkpt>
      <trkpt lat="51.500800000503659" lon="9.297804962843657">
        <ele>150.09999999999999</ele>
        <time>2017-10-30T14:59:06Z</time>
      </trkpt>
      <trkpt lat="51.500710984691978" lon="9.297693986445665">
        <ele>149.62</ele>
        <time>2017-10-30T14:59:07Z</time>
      </trkpt>
      <trkpt lat="51.499912021681666" lon="9.29693098179996">
        <ele>147.22</ele>
        <time>2017-10-30T14:59:13Z</time>
      </trkpt>
      <trkpt lat="51.498507969081402" lon="9.296149034053087">
        <ele>145.78</ele>
        <time>2017-10-30T14:59:20Z</time>
      </trkpt>
      <trkpt lat="51.497140964493155" lon="9.295403966680169">
        <ele>142.88999999999999</ele>
        <time>2017-10-30T14:59:28Z</time>
      </trkpt>
      <trkpt lat="51.496324986219406" lon="9.294424038380384">
        <ele>142.88999999999999</ele>
        <time>2017-10-30T14:59:34Z</time>
      </trkpt>
      <trkpt lat="51.496204035356641" lon="9.294219017028809">
        <ele>143.37</ele>
        <time>2017-10-30T14:59:35Z</time>
      </trkpt>
      <trkpt lat="51.496130023151636" lon="9.293999997898936">
        <ele>143.84999999999999</ele>
        <time>2017-10-30T14:59:36Z</time>
      </trkpt>
      <trkpt lat="51.496051987633109" lon="9.293763963505626">
        <ele>144.81999999999999</ele>
        <time>2017-10-30T14:59:37Z</time>
      </trkpt>
      <trkpt lat="51.495973030105233" lon="9.293526001274586">
        <ele>145.30000000000001</ele>
        <time>2017-10-30T14:59:38Z</time>
      </trkpt>
      <trkpt lat="51.495920978486538" lon="9.293254008516669">
        <ele>146.25999999999999</ele>
        <time>2017-10-30T14:59:39Z</time>
      </trkpt>
      <trkpt lat="51.495819976553321" lon="9.291880968958139">
        <ele>150.58000000000001</ele>
        <time>2017-10-30T14:59:44Z</time>
      </trkpt>
      <trkpt lat="51.49590102955699" lon="9.290157984942198">
        <ele>155.87</ele>
        <time>2017-10-30T14:59:50Z</time>
      </trkpt>
      <trkpt lat="51.495885020121932" lon="9.289868976920843">
        <ele>156.34999999999999</ele>
        <time>2017-10-30T14:59:51Z</time>
      </trkpt>
      <trkpt lat="51.49586196988821" lon="9.289573011919856">
        <ele>156.83000000000001</ele>
        <time>2017-10-30T14:59:52Z</time>
      </trkpt>
      <trkpt lat="51.495835985988379" lon="9.289270006120205">
        <ele>157.31</ele>
        <time>2017-10-30T14:59:53Z</time>
      </trkpt>
      <trkpt lat="51.49577303789556" lon="9.28898099809885">
        <ele>157.78999999999999</ele>
        <time>2017-10-30T14:59:54Z</time>
      </trkpt>
      <trkpt lat="51.495701037347317" lon="9.288700958713889">
        <ele>157.78999999999999</ele>
        <time>2017-10-30T14:59:55Z</time>
      </trkpt>
      <trkpt lat="51.495529962703586" lon="9.288113974034786">
        <ele>157.78999999999999</ele>
        <time>2017-10-30T14:59:57Z</time>
      </trkpt>
      <trkpt lat="51.494861003011465" lon="9.286180017516017">
        <ele>152.99000000000001</ele>
        <time>2017-10-30T15:00:04Z</time>
      </trkpt>
      <trkpt lat="51.494618011638522" lon="9.285126999020577">
        <ele>149.62</ele>
        <time>2017-10-30T15:00:10Z</time>
      </trkpt>
      <trkpt lat="51.494511980563402" lon="9.284046990796924">
        <ele>146.74000000000001</ele>
        <time>2017-10-30T15:00:17Z</time>
      </trkpt>
      <trkpt lat="51.494433023035526" lon="9.283763011917472">
        <ele>146.25999999999999</ele>
        <time>2017-10-30T15:00:19Z</time>
      </trkpt>
      <trkpt lat="51.494368985295296" lon="9.283623034134507">
        <ele>145.78</ele>
        <time>2017-10-30T15:00:20Z</time>
      </trkpt>
      <trkpt lat="51.494300002232194" lon="9.283488001674414">
        <ele>146.25999999999999</ele>
        <time>2017-10-30T15:00:21Z</time>
      </trkpt>
      <trkpt lat="51.494079977273941" lon="9.283059015870094">
        <ele>145.78</ele>
        <time>2017-10-30T15:00:24Z</time>
      </trkpt>
      <trkpt lat="51.494001019746065" lon="9.282905040308833">
        <ele>145.30000000000001</ele>
        <time>2017-10-30T15:00:25Z</time>
      </trkpt>
      <trkpt lat="51.493951985612512" lon="9.282732959836721">
        <ele>145.30000000000001</ele>
        <time>2017-10-30T15:00:26Z</time>
      </trkpt>
      <trkpt lat="51.49390303529799" lon="9.282548977062106">
        <ele>144.81999999999999</ele>
        <time>2017-10-30T15:00:27Z</time>
      </trkpt>
      <trkpt lat="51.493852995336056" lon="9.282361976802349">
        <ele>144.81999999999999</ele>
        <time>2017-10-30T15:00:28Z</time>
      </trkpt>
      <trkpt lat="51.493457034230232" lon="9.280160972848535">
        <ele>144.81999999999999</ele>
        <time>2017-10-30T15:00:39Z</time>
      </trkpt>
      <trkpt lat="51.493272967636585" lon="9.278388032689691">
        <ele>146.25999999999999</ele>
        <time>2017-10-30T15:00:48Z</time>
      </trkpt>
      <trkpt lat="51.493142964318395" lon="9.277844969183207">
        <ele>146.74000000000001</ele>
        <time>2017-10-30T15:00:51Z</time>
      </trkpt>
      <trkpt lat="51.493098037317395" lon="9.277673978358507">
        <ele>147.22</ele>
        <time>2017-10-30T15:00:52Z</time>
      </trkpt>
      <trkpt lat="51.49272202514112" lon="9.27625902928412">
        <ele>153.47</ele>
        <time>2017-10-30T15:01:02Z</time>
      </trkpt>
      <trkpt lat="51.492385994642973" lon="9.274532021954656">
        <ele>156.83000000000001</ele>
        <time>2017-10-30T15:01:11Z</time>
      </trkpt>
      <trkpt lat="51.492313994094729" lon="9.274133965373039">
        <ele>157.31</ele>
        <time>2017-10-30T15:01:13Z</time>
      </trkpt>
      <trkpt lat="51.491679986938834" lon="9.272498991340399">
        <ele>157.78999999999999</ele>
        <time>2017-10-30T15:01:22Z</time>
      </trkpt>
      <trkpt lat="51.491512013599277" lon="9.272145023569465">
        <ele>157.78999999999999</ele>
        <time>2017-10-30T15:01:24Z</time>
      </trkpt>
      <trkpt lat="51.490639038383961" lon="9.270422039553523">
        <ele>155.38999999999999</ele>
        <time>2017-10-30T15:01:33Z</time>
      </trkpt>
      <trkpt lat="51.489416034892201" lon="9.267992964014411">
        <ele>152.50999999999999</ele>
        <time>2017-10-30T15:01:42Z</time>
      </trkpt>
      <trkpt lat="51.488127987831831" lon="9.26523900590837">
        <ele>150.58000000000001</ele>
        <time>2017-10-30T15:01:51Z</time>
      </trkpt>
      <trkpt lat="51.48722399957478" lon="9.262352026998997">
        <ele>150.58000000000001</ele>
        <time>2017-10-30T15:01:59Z</time>
      </trkpt>
      <trkpt lat="51.486636009067297" lon="9.258813019841909">
        <ele>154.91</ele>
        <time>2017-10-30T15:02:08Z</time>
      </trkpt>
      <trkpt lat="51.486526960507035" lon="9.256357960402966">
        <ele>159.24000000000001</ele>
        <time>2017-10-30T15:02:15Z</time>
      </trkpt>
      <trkpt lat="51.487001040950418" lon="9.254449987784028">
        <ele>158.75</ele>
        <time>2017-10-30T15:02:21Z</time>
      </trkpt>
      <trkpt lat="51.487112017348409" lon="9.254155028611422">
        <ele>158.75</ele>
        <time>2017-10-30T15:02:22Z</time>
      </trkpt>
      <trkpt lat="51.487815007567406" lon="9.252930013462901">
        <ele>154.91</ele>
        <time>2017-10-30T15:02:28Z</time>
      </trkpt>
      <trkpt lat="51.488111978396773" lon="9.252413017675281">
        <ele>152.99000000000001</ele>
        <time>2017-10-30T15:02:32Z</time>
      </trkpt>
      <trkpt lat="51.488176016137004" lon="9.252288965508342">
        <ele>152.50999999999999</ele>
        <time>2017-10-30T15:02:33Z</time>
      </trkpt>
      <trkpt lat="51.488386988639832" lon="9.251933991909027">
        <ele>151.53999999999999</ele>
        <time>2017-10-30T15:02:36Z</time>
      </trkpt>
      <trkpt lat="51.488466029986739" lon="9.251824021339417">
        <ele>151.06</ele>
        <time>2017-10-30T15:02:37Z</time>
      </trkpt>
      <trkpt lat="51.488543981686234" lon="9.251749003306031">
        <ele>151.53999999999999</ele>
        <time>2017-10-30T15:02:38Z</time>
      </trkpt>
      <trkpt lat="51.488623023033142" lon="9.251698963344097">
        <ele>151.53999999999999</ele>
        <time>2017-10-30T15:02:39Z</time>
      </trkpt>
      <trkpt lat="51.488692006096244" lon="9.251655964180827">
        <ele>151.53999999999999</ele>
        <time>2017-10-30T15:02:40Z</time>
      </trkpt>
      <trkpt lat="51.488744979724288" lon="9.251623023301363">
        <ele>151.53999999999999</ele>
        <time>2017-10-30T15:02:41Z</time>
      </trkpt>
      <trkpt lat="51.488793008029461" lon="9.251593016088009">
        <ele>151.53999999999999</ele>
        <time>2017-10-30T15:02:42Z</time>
      </trkpt>
      <trkpt lat="51.48885796777904" lon="9.251568038016558">
        <ele>151.53999999999999</ele>
        <time>2017-10-30T15:02:43Z</time>
      </trkpt>
      <trkpt lat="51.488917982205749" lon="9.25159502774477">
        <ele>151.53999999999999</ele>
        <time>2017-10-30T15:02:44Z</time>
      </trkpt>
      <trkpt lat="51.488988976925611" lon="9.251626962795854">
        <ele>151.53999999999999</ele>
        <time>2017-10-30T15:02:45Z</time>
      </trkpt>
      <trkpt lat="51.489164996892214" lon="9.25168002024293">
        <ele>151.06</ele>
        <time>2017-10-30T15:02:47Z</time>
      </trkpt>
      <trkpt lat="51.4897580165416" lon="9.251627968624234">
        <ele>150.09999999999999</ele>
        <time>2017-10-30T15:02:53Z</time>
      </trkpt>
      <trkpt lat="51.489852983504534" lon="9.251606008037925">
        <ele>150.58000000000001</ele>
        <time>2017-10-30T15:02:54Z</time>
      </trkpt>
      <trkpt lat="51.489949962124228" lon="9.251583963632584">
        <ele>150.58000000000001</ele>
        <time>2017-10-30T15:02:55Z</time>
      </trkpt>
      <trkpt lat="51.490159006789327" lon="9.251537024974823">
        <ele>151.06</ele>
        <time>2017-10-30T15:02:57Z</time>
      </trkpt>
      <trkpt lat="51.490266965702176" lon="9.251513974741101">
        <ele>151.53999999999999</ele>
        <time>2017-10-30T15:02:58Z</time>
      </trkpt>
      <trkpt lat="51.490755965933204" lon="9.251583041623235">
        <ele>151.53999999999999</ele>
        <time>2017-10-30T15:03:02Z</time>
      </trkpt>
      <trkpt lat="51.491142958402634" lon="9.251682031899691">
        <ele>152.03</ele>
        <time>2017-10-30T15:03:05Z</time>
      </trkpt>
      <trkpt lat="51.491272961720824" lon="9.251695023849607">
        <ele>152.50999999999999</ele>
        <time>2017-10-30T15:03:06Z</time>
      </trkpt>
      <trkpt lat="51.491399025544524" lon="9.251707009971142">
        <ele>152.50999999999999</ele>
        <time>2017-10-30T15:03:07Z</time>
      </trkpt>
      <trkpt lat="51.491523999720812" lon="9.25168002024293">
        <ele>152.99000000000001</ele>
        <time>2017-10-30T15:03:08Z</time>
      </trkpt>
      <trkpt lat="51.491646962240338" lon="9.251614976674318">
        <ele>153.47</ele>
        <time>2017-10-30T15:03:09Z</time>
      </trkpt>
      <trkpt lat="51.491763973608613" lon="9.251510035246611">
        <ele>153.94999999999999</ele>
        <time>2017-10-30T15:03:10Z</time>
      </trkpt>
      <trkpt lat="51.491879979148507" lon="9.25138195976615">
        <ele>153.94999999999999</ele>
        <time>2017-10-30T15:03:11Z</time>
      </trkpt>
      <trkpt lat="51.491968994960189" lon="9.251196971163154">
        <ele>153.94999999999999</ele>
        <time>2017-10-30T15:03:12Z</time>
      </trkpt>
      <trkpt lat="51.492058010771871" lon="9.251003013923764">
        <ele>153.47</ele>
        <time>2017-10-30T15:03:13Z</time>
      </trkpt>
      <trkpt lat="51.492151971906424" lon="9.250802015885711">
        <ele>152.99000000000001</ele>
        <time>2017-10-30T15:03:14Z</time>
      </trkpt>
      <trkpt lat="51.492351964116096" lon="9.250402031466365">
        <ele>152.03</ele>
        <time>2017-10-30T15:03:16Z</time>
      </trkpt>
      <trkpt lat="51.492457995191216" lon="9.25019801594317">
        <ele>151.53999999999999</ele>
        <time>2017-10-30T15:03:17Z</time>
      </trkpt>
      <trkpt lat="51.492591015994549" lon="9.250035993754864">
        <ele>151.53999999999999</ele>
        <time>2017-10-30T15:03:18Z</time>
      </trkpt>
      <trkpt lat="51.492726970463991" lon="9.249871037900448">
        <ele>151.06</ele>
        <time>2017-10-30T15:03:19Z</time>
      </trkpt>
      <trkpt lat="51.492866026237607" lon="9.249702980741859">
        <ele>151.53999999999999</ele>
        <time>2017-10-30T15:03:20Z</time>
      </trkpt>
      <trkpt lat="51.493145981803536" lon="9.249364016577601">
        <ele>152.03</ele>
        <time>2017-10-30T15:03:22Z</time>
      </trkpt>
      <trkpt lat="51.493248995393515" lon="9.249136028811336">
        <ele>152.03</ele>
        <time>2017-10-30T15:03:23Z</time>
      </trkpt>
      <trkpt lat="51.493351003155112" lon="9.248897982761264">
        <ele>152.03</ele>
        <time>2017-10-30T15:03:24Z</time>
      </trkpt>
      <trkpt lat="51.493457034230232" lon="9.248649962246418">
        <ele>152.03</ele>
        <time>2017-10-30T15:03:25Z</time>
      </trkpt>
      <trkpt lat="51.493547977879643" lon="9.248376963660121">
        <ele>152.50999999999999</ele>
        <time>2017-10-30T15:03:26Z</time>
      </trkpt>
      <trkpt lat="51.493815025314689" lon="9.247298967093229">
        <ele>152.50999999999999</ele>
        <time>2017-10-30T15:03:30Z</time>
      </trkpt>
      <trkpt lat="51.493843020871282" lon="9.247053964063525">
        <ele>152.50999999999999</ele>
        <time>2017-10-30T15:03:31Z</time>
      </trkpt>
      <trkpt lat="51.493865987285972" lon="9.246806027367711">
        <ele>152.50999999999999</ele>
        <time>2017-10-30T15:03:32Z</time>
      </trkpt>
      <trkpt lat="51.493877973407507" lon="9.246539985761046">
        <ele>152.50999999999999</ele>
        <time>2017-10-30T15:03:33Z</time>
      </trkpt>
      <trkpt lat="51.493880990892649" lon="9.246261036023498">
        <ele>152.50999999999999</ele>
        <time>2017-10-30T15:03:34Z</time>
      </trkpt>
      <trkpt lat="51.49386397562921" lon="9.245970016345382">
        <ele>152.03</ele>
        <time>2017-10-30T15:03:35Z</time>
      </trkpt>
      <trkpt lat="51.493846960365772" lon="9.245661981403828">
        <ele>152.03</ele>
        <time>2017-10-30T15:03:36Z</time>
      </trkpt>
      <trkpt lat="51.493558036163449" lon="9.242855971679092">
        <ele>151.53999999999999</ele>
        <time>2017-10-30T15:03:44Z</time>
      </trkpt>
      <trkpt lat="51.493068030104041" lon="9.240102013573051">
        <ele>151.06</ele>
        <time>2017-10-30T15:03:52Z</time>
      </trkpt>
      <trkpt lat="51.493032993748784" lon="9.239534977823496">
        <ele>151.06</ele>
        <time>2017-10-30T15:03:54Z</time>
      </trkpt>
      <trkpt lat="51.493013966828585" lon="9.239244963973761">
        <ele>151.53999999999999</ele>
        <time>2017-10-30T15:03:55Z</time>
      </trkpt>
      <trkpt lat="51.493024025112391" lon="9.238953022286296">
        <ele>151.53999999999999</ele>
        <time>2017-10-30T15:03:56Z</time>
      </trkpt>
      <trkpt lat="51.493055960163474" lon="9.238668037578464">
        <ele>151.53999999999999</ele>
        <time>2017-10-30T15:03:57Z</time>
      </trkpt>
      <trkpt lat="51.493086973205209" lon="9.238386992365122">
        <ele>152.03</ele>
        <time>2017-10-30T15:03:58Z</time>
      </trkpt>
      <trkpt lat="51.493155034258962" lon="9.238107958808541">
        <ele>152.03</ele>
        <time>2017-10-30T15:03:59Z</time>
      </trkpt>
      <trkpt lat="51.493236003443599" lon="9.237797996029258">
        <ele>152.03</ele>
        <time>2017-10-30T15:04:00Z</time>
      </trkpt>
      <trkpt lat="51.493327030912042" lon="9.237456014379859">
        <ele>152.50999999999999</ele>
        <time>2017-10-30T15:04:01Z</time>
      </trkpt>
      <trkpt lat="51.493908986449242" lon="9.235070021823049">
        <ele>153.94999999999999</ele>
        <time>2017-10-30T15:04:07Z</time>
      </trkpt>
      <trkpt lat="51.49435699917376" lon="9.233272019773722">
        <ele>155.87</ele>
        <time>2017-10-30T15:04:13Z</time>
      </trkpt>
      <trkpt lat="51.494444003328681" lon="9.233021987602115">
        <ele>156.34999999999999</ele>
        <time>2017-10-30T15:04:14Z</time>
      </trkpt>
      <trkpt lat="51.49459102191031" lon="9.232801040634513">
        <ele>156.83000000000001</ele>
        <time>2017-10-30T15:04:15Z</time>
      </trkpt>
      <trkpt lat="51.494734017178416" lon="9.232586966827512">
        <ele>157.31</ele>
        <time>2017-10-30T15:04:16Z</time>
      </trkpt>
      <trkpt lat="51.494883969426155" lon="9.232393009588122">
        <ele>157.31</ele>
        <time>2017-10-30T15:04:17Z</time>
      </trkpt>
      <trkpt lat="51.495052026584744" lon="9.2322370223701">
        <ele>157.78999999999999</ele>
        <time>2017-10-30T15:04:18Z</time>
      </trkpt>
      <trkpt lat="51.495227962732315" lon="9.232120011001825">
        <ele>158.27000000000001</ele>
        <time>2017-10-30T15:04:19Z</time>
      </trkpt>
      <trkpt lat="51.495415968820453" lon="9.232035018503666">
        <ele>158.27000000000001</ele>
        <time>2017-10-30T15:04:20Z</time>
      </trkpt>
      <trkpt lat="51.49560397490859" lon="9.231971986591816">
        <ele>158.75</ele>
        <time>2017-10-30T15:04:21Z</time>
      </trkpt>
      <trkpt lat="51.495801033452153" lon="9.23197902739048">
        <ele>159.24000000000001</ele>
        <time>2017-10-30T15:04:22Z</time>
      </trkpt>
      <trkpt lat="51.496002031490207" lon="9.231985984370112">
        <ele>159.72</ele>
        <time>2017-10-30T15:04:23Z</time>
      </trkpt>
      <trkpt lat="51.496208980679512" lon="9.232011968269944">
        <ele>160.19999999999999</ele>
        <time>2017-10-30T15:04:24Z</time>
      </trkpt>
      <trkpt lat="51.49641802534461" lon="9.232098972424865">
        <ele>160.19999999999999</ele>
        <time>2017-10-30T15:04:25Z</time>
      </trkpt>
      <trkpt lat="51.496621035039425" lon="9.232254037633538">
        <ele>161.16</ele>
        <time>2017-10-30T15:04:26Z</time>
      </trkpt>
      <trkpt lat="51.496828990057111" lon="9.232411030679941">
        <ele>161.63999999999999</ele>
        <time>2017-10-30T15:04:27Z</time>
      </trkpt>
      <trkpt lat="51.497930036857724" lon="9.233222985640168">
        <ele>167.41</ele>
        <time>2017-10-30T15:04:33Z</time>
      </trkpt>
      <trkpt lat="51.498425994068384" lon="9.233303032815456">
        <ele>168.84999999999999</ele>
        <time>2017-10-30T15:04:38Z</time>
      </trkpt>
      <trkpt lat="51.498629003763199" lon="9.233316024765372">
        <ele>169.81</ele>
        <time>2017-10-30T15:04:46Z</time>
      </trkpt>
      <trkpt lat="51.49908103980124" lon="9.233156014233828">
        <ele>168.84999999999999</ele>
        <time>2017-10-30T15:04:51Z</time>
      </trkpt>
      <trkpt lat="51.499497033655643" lon="9.232810009270906">
        <ele>167.88999999999999</ele>
        <time>2017-10-30T15:04:54Z</time>
      </trkpt>
      <trkpt lat="51.499656960368156" lon="9.232623009011149">
        <ele>166.93000000000001</ele>
        <time>2017-10-30T15:04:55Z</time>
      </trkpt>
      <trkpt lat="51.500787008553743" lon="9.23124703578651">
        <ele>161.63999999999999</ele>
        <time>2017-10-30T15:05:01Z</time>
      </trkpt>
      <trkpt lat="51.502547040581703" lon="9.229931998997927">
        <ele>161.63999999999999</ele>
        <time>2017-10-30T15:05:08Z</time>
      </trkpt>
      <trkpt lat="51.506339013576508" lon="9.227184997871518">
        <ele>177.5</ele>
        <time>2017-10-30T15:05:23Z</time>
      </trkpt>
      <trkpt lat="51.507831998169422" lon="9.226104989647865">
        <ele>184.71000000000001</ele>
        <time>2017-10-30T15:05:30Z</time>
      </trkpt>
      <trkpt lat="51.508854003623128" lon="9.225241988897324">
        <ele>186.15000000000001</ele>
        <time>2017-10-30T15:05:37Z</time>
      </trkpt>
      <trkpt lat="51.509335041046143" lon="9.224756006151438">
        <ele>184.71000000000001</ele>
        <time>2017-10-30T15:05:42Z</time>
      </trkpt>
      <trkpt lat="51.510419994592667" lon="9.223768031224608">
        <ele>181.83000000000001</ele>
        <time>2017-10-30T15:05:53Z</time>
      </trkpt>
      <trkpt lat="51.510514039546251" lon="9.223685972392559">
        <ele>181.34999999999999</ele>
        <time>2017-10-30T15:05:54Z</time>
      </trkpt>
      <trkpt lat="51.511164978146553" lon="9.223339967429638">
        <ele>181.34999999999999</ele>
        <time>2017-10-30T15:06:01Z</time>
      </trkpt>
      <trkpt lat="51.511263968423009" lon="9.223329992964864">
        <ele>181.34999999999999</ele>
        <time>2017-10-30T15:06:02Z</time>
      </trkpt>
      <trkpt lat="51.512326961383224" lon="9.223100999370217">
        <ele>183.27000000000001</ele>
        <time>2017-10-30T15:06:12Z</time>
      </trkpt>
      <trkpt lat="51.513062976300716" lon="9.222571011632681">
        <ele>188.08000000000001</ele>
        <time>2017-10-30T15:06:21Z</time>
      </trkpt>
      <trkpt lat="51.51334997266531" lon="9.22241703607142">
        <ele>190.96000000000001</ele>
        <time>2017-10-30T15:06:29Z</time>
      </trkpt>
      <trkpt lat="51.513384003192186" lon="9.222473027184606">
        <ele>190.96000000000001</ele>
        <time>2017-10-30T15:06:30Z</time>
      </trkpt>
      <trkpt lat="51.51343303732574" lon="9.222553996369243">
        <ele>190.96000000000001</ele>
        <time>2017-10-30T15:06:31Z</time>
      </trkpt>
      <trkpt lat="51.513546025380492" lon="9.222740996629">
        <ele>191.44</ele>
        <time>2017-10-30T15:06:33Z</time>
      </trkpt>
      <trkpt lat="51.513665970414877" lon="9.222937971353531">
        <ele>192.40000000000001</ele>
        <time>2017-10-30T15:06:36Z</time>
      </trkpt>
      <trkpt lat="51.513717016205192" lon="9.222943000495434">
        <ele>192.88</ele>
        <time>2017-10-30T15:06:37Z</time>
      </trkpt>
      <trkpt lat="51.513755992054939" lon="9.222888015210629">
        <ele>193.36000000000001</ele>
        <time>2017-10-30T15:06:38Z</time>
      </trkpt>
      <trkpt lat="51.514219008386135" lon="9.222231963649392">
        <ele>194.80000000000001</ele>
        <time>2017-10-30T15:06:44Z</time>
      </trkpt>
      <trkpt lat="51.514528971165419" lon="9.221790991723537">
        <ele>194.31999999999999</ele>
        <time>2017-10-30T15:06:48Z</time>
      </trkpt>
      <trkpt lat="51.514586973935366" lon="9.2217100225389">
        <ele>194.31999999999999</ele>
        <time>2017-10-30T15:06:49Z</time>
      </trkpt>
      <trkpt lat="51.514607006683946" lon="9.221552023664117">
        <ele>194.31999999999999</ele>
        <time>2017-10-30T15:06:50Z</time>
      </trkpt>
      <trkpt lat="51.514593008905649" lon="9.221326969563961">
        <ele>194.31999999999999</ele>
        <time>2017-10-30T15:06:51Z</time>
      </trkpt>
      <trkpt lat="51.514603989198804" lon="9.221177017316222">
        <ele>194.80000000000001</ele>
        <time>2017-10-30T15:06:52Z</time>
      </trkpt>
      <trkpt lat="51.514738015830517" lon="9.219360994175077">
        <ele>195.28</ele>
        <time>2017-10-30T15:06:59Z</time>
      </trkpt>
      <trkpt lat="51.515027023851871" lon="9.215386966243386">
        <ele>197.69</ele>
        <time>2017-10-30T15:07:12Z</time>
      </trkpt>
      <trkpt lat="51.515326006338" lon="9.211446968838573">
        <ele>200.56999999999999</ele>
        <time>2017-10-30T15:07:23Z</time>
      </trkpt>
      <trkpt lat="51.515375040471554" lon="9.208931978791952">
        <ele>202.00999999999999</ele>
        <time>2017-10-30T15:07:29Z</time>
      </trkpt>
      <trkpt lat="51.515404041856527" lon="9.20342699624598">
        <ele>193.36000000000001</ele>
        <time>2017-10-30T15:07:40Z</time>
      </trkpt>
      <trkpt lat="51.515437988564372" lon="9.195451028645039">
        <ele>198.16999999999999</ele>
        <time>2017-10-30T15:07:56Z</time>
      </trkpt>
      <trkpt lat="51.515452992171049" lon="9.190397998318076">
        <ele>204.90000000000001</ele>
        <time>2017-10-30T15:08:07Z</time>
      </trkpt>
      <trkpt lat="51.51551803573966" lon="9.189776983112097">
        <ele>205.86000000000001</ele>
        <time>2017-10-30T15:08:09Z</time>
      </trkpt>
      <trkpt lat="51.515575032681227" lon="9.189472971484065">
        <ele>206.34</ele>
        <time>2017-10-30T15:08:10Z</time>
      </trkpt>
      <trkpt lat="51.515662036836147" lon="9.189178012311459">
        <ele>206.81999999999999</ele>
        <time>2017-10-30T15:08:11Z</time>
      </trkpt>
      <trkpt lat="51.515774019062519" lon="9.188894033432007">
        <ele>207.30000000000001</ele>
        <time>2017-10-30T15:08:12Z</time>
      </trkpt>
      <trkpt lat="51.5159079618752" lon="9.188630003482103">
        <ele>207.78</ele>
        <time>2017-10-30T15:08:13Z</time>
      </trkpt>
      <trkpt lat="51.516074007377028" lon="9.18838701210916">
        <ele>207.78</ele>
        <time>2017-10-30T15:08:14Z</time>
      </trkpt>
      <trkpt lat="51.516250027343631" lon="9.188130022957921">
        <ele>207.78</ele>
        <time>2017-10-30T15:08:15Z</time>
      </trkpt>
      <trkpt lat="51.517778970301151" lon="9.185803038999438">
        <ele>205.38</ele>
        <time>2017-10-30T15:08:23Z</time>
      </trkpt>
      <trkpt lat="51.519796997308731" lon="9.182035960257053">
        <ele>199.61000000000001</ele>
        <time>2017-10-30T15:08:34Z</time>
      </trkpt>
      <trkpt lat="51.520557990297675" lon="9.180456977337599">
        <ele>198.65000000000001</ele>
        <time>2017-10-30T15:08:40Z</time>
      </trkpt>
      <trkpt lat="51.520648011937737" lon="9.180193031206727">
        <ele>198.65000000000001</ele>
        <time>2017-10-30T15:08:41Z</time>
      </trkpt>
      <trkpt lat="51.520701991394162" lon="9.179891031235457">
        <ele>199.13</ele>
        <time>2017-10-30T15:08:42Z</time>
      </trkpt>
      <trkpt lat="51.520755970850587" lon="9.179575033485889">
        <ele>199.13</ele>
        <time>2017-10-30T15:08:43Z</time>
      </trkpt>
      <trkpt lat="51.520800981670618" lon="9.179239002987742">
        <ele>199.13</ele>
        <time>2017-10-30T15:08:44Z</time>
      </trkpt>
      <trkpt lat="51.521185962483287" lon="9.175816001370549">
        <ele>205.38</ele>
        <time>2017-10-30T15:08:53Z</time>
      </trkpt>
      <trkpt lat="51.521484022960067" lon="9.173052990809083">
        <ele>210.66999999999999</ele>
        <time>2017-10-30T15:09:01Z</time>
      </trkpt>
      <trkpt lat="51.521691977977753" lon="9.171121967956424">
        <ele>213.06999999999999</ele>
        <time>2017-10-30T15:09:09Z</time>
      </trkpt>
      <trkpt lat="51.521873027086258" lon="9.169413987547159">
        <ele>215.47</ele>
        <time>2017-10-30T15:09:19Z</time>
      </trkpt>
      <trkpt lat="51.521888030692935" lon="9.169270992279053">
        <ele>215.47</ele>
        <time>2017-10-30T15:09:20Z</time>
      </trkpt>
      <trkpt lat="51.521875038743019" lon="9.169106036424637">
        <ele>215.47</ele>
        <time>2017-10-30T15:09:21Z</time>
      </trkpt>
      <trkpt lat="51.521848971024156" lon="9.16879297234118">
        <ele>214.50999999999999</ele>
        <time>2017-10-30T15:09:23Z</time>
      </trkpt>
      <trkpt lat="51.521584019064903" lon="9.166782991960645">
        <ele>213.06999999999999</ele>
        <time>2017-10-30T15:09:35Z</time>
      </trkpt>
      <trkpt lat="51.521395007148385" lon="9.165498968213797">
        <ele>214.03</ele>
        <time>2017-10-30T15:09:43Z</time>
      </trkpt>
      <trkpt lat="51.521424008533359" lon="9.165086997672916">
        <ele>214.50999999999999</ele>
        <time>2017-10-30T15:09:48Z</time>
      </trkpt>
      <trkpt lat="51.521481005474925" lon="9.165086997672916">
        <ele>214.50999999999999</ele>
        <time>2017-10-30T15:09:49Z</time>
      </trkpt>
      <trkpt lat="51.521522998809814" lon="9.165081968531013">
        <ele>214.50999999999999</ele>
        <time>2017-10-30T15:09:50Z</time>
      </trkpt>
      <trkpt lat="51.521602040156722" lon="9.165074005723">
        <ele>214.50999999999999</ele>
        <time>2017-10-30T15:09:51Z</time>
      </trkpt>
      <trkpt lat="51.521691977977753" lon="9.165064031258225">
        <ele>214.50999999999999</ele>
        <time>2017-10-30T15:09:52Z</time>
      </trkpt>
      <trkpt lat="51.52265396900475" lon="9.164942996576428">
        <ele>214.50999999999999</ele>
        <time>2017-10-30T15:10:01Z</time>
      </trkpt>
      <trkpt lat="51.523178005591035" lon="9.164948025718331">
        <ele>213.06999999999999</ele>
        <time>2017-10-30T15:10:08Z</time>
      </trkpt>
      <trkpt lat="51.523219998925924" lon="9.164866972714663">
        <ele>213.06999999999999</ele>
        <time>2017-10-30T15:10:09Z</time>
      </trkpt>
      <trkpt lat="51.523241037502885" lon="9.164782986044884">
        <ele>213.06999999999999</ele>
        <time>2017-10-30T15:10:10Z</time>
      </trkpt>
      <trkpt lat="51.523267021402717" lon="9.164679972454906">
        <ele>213.55000000000001</ele>
        <time>2017-10-30T15:10:11Z</time>
      </trkpt>
      <trkpt lat="51.523297028616071" lon="9.16455801576376">
        <ele>214.03</ele>
        <time>2017-10-30T15:10:12Z</time>
      </trkpt>
      <trkpt lat="51.523313960060477" lon="9.164418037980795">
        <ele>214.03</ele>
        <time>2017-10-30T15:10:13Z</time>
      </trkpt>
      <trkpt lat="51.523328963667154" lon="9.164249980822206">
        <ele>214.50999999999999</ele>
        <time>2017-10-30T15:10:14Z</time>
      </trkpt>
      <trkpt lat="51.523492997512221" lon="9.163001999258995">
        <ele>215.47</ele>
        <time>2017-10-30T15:10:21Z</time>
      </trkpt>
      <trkpt lat="51.523549994453788" lon="9.162836959585547">
        <ele>215.47</ele>
        <time>2017-10-30T15:10:22Z</time>
      </trkpt>
      <trkpt lat="51.523606991395354" lon="9.162674015387893">
        <ele>215.47</ele>
        <time>2017-10-30T15:10:23Z</time>
      </trkpt>
      <trkpt lat="51.523664994165301" lon="9.162524985149503">
        <ele>215.47</ele>
        <time>2017-10-30T15:10:24Z</time>
      </trkpt>
      <trkpt lat="51.523743029683828" lon="9.16238802485168">
        <ele>215.47</ele>
        <time>2017-10-30T15:10:25Z</time>
      </trkpt>
      <trkpt lat="51.524633020162582" lon="9.160815998911858">
        <ele>217.40000000000001</ele>
        <time>2017-10-30T15:10:37Z</time>
      </trkpt>
      <trkpt lat="51.524761011824012" lon="9.160592034459114">
        <ele>217.88</ele>
        <time>2017-10-30T15:10:41Z</time>
      </trkpt>
      <trkpt lat="51.524761011824012" lon="9.160592034459114">
        <ele>217.88</ele>
        <time>2017-10-30T15:10:48Z</time>
      </trkpt>
      <trkpt lat="51.524766962975264" lon="9.160582982003689">
        <ele>218.36000000000001</ele>
        <time>2017-10-30T15:10:49Z</time>
      </trkpt>
      <trkpt lat="51.524804010987282" lon="9.160656994208694">
        <ele>218.84</ele>
        <time>2017-10-30T15:10:58Z</time>
      </trkpt>
      <trkpt lat="51.524806022644043" lon="9.160717008635402">
        <ele>219.31999999999999</ele>
        <time>2017-10-30T15:11:15Z</time>
      </trkpt>
      <trkpt lat="51.524809962138534" lon="9.160721031948924">
        <ele>218.84</ele>
        <time>2017-10-30T15:11:56Z</time>
      </trkpt>
      <trkpt lat="51.524807028472424" lon="9.160722959786654">
        <ele>218.36000000000001</ele>
        <time>2017-10-30T15:12:28Z</time>
      </trkpt>
      <trkpt lat="51.524804010987282" lon="9.160724971443415">
        <ele>218.36000000000001</ele>
        <time>2017-10-30T15:13:14Z</time>
      </trkpt>
      <trkpt lat="51.524795964360237" lon="9.16073402389884">
        <ele>218.36000000000001</ele>
        <time>2017-10-30T15:13:49Z</time>
      </trkpt>
      <trkpt lat="51.524795964360237" lon="9.16073402389884">
        <ele>218.36000000000001</ele>
        <time>2017-10-30T15:13:50Z</time>
      </trkpt>
      <trkpt lat="51.524834018200636" lon="9.160465970635414">
        <ele>218.84</ele>
        <time>2017-10-30T15:13:56Z</time>
      </trkpt>
      <trkpt lat="51.524881962686777" lon="9.160382989794016">
        <ele>219.31999999999999</ele>
        <time>2017-10-30T15:13:57Z</time>
      </trkpt>
      <trkpt lat="51.525474982336164" lon="9.15936098434031">
        <ele>222.68000000000001</ele>
        <time>2017-10-30T15:14:05Z</time>
      </trkpt>
      <trkpt lat="51.5264349617064" lon="9.1576830111444">
        <ele>228.93000000000001</ele>
        <time>2017-10-30T15:14:14Z</time>
      </trkpt>
      <trkpt lat="51.527105011045933" lon="9.155838992446661">
        <ele>230.37</ele>
        <time>2017-10-30T15:14:20Z</time>
      </trkpt>
      <trkpt lat="51.528433039784431" lon="9.151922967284918">
        <ele>231.81</ele>
        <time>2017-10-30T15:14:31Z</time>
      </trkpt>
      <trkpt lat="51.530163986608386" lon="9.148009037598968">
        <ele>234.69999999999999</ele>
        <time>2017-10-30T15:14:43Z</time>
      </trkpt>
      <trkpt lat="51.532010016962886" lon="9.14404003880918">
        <ele>234.69999999999999</ele>
        <time>2017-10-30T15:14:56Z</time>
      </trkpt>
      <trkpt lat="51.532863965258002" lon="9.142622994259">
        <ele>232.30000000000001</ele>
        <time>2017-10-30T15:15:03Z</time>
      </trkpt>
      <trkpt lat="51.533199995756149" lon="9.142155032604933">
        <ele>229.88999999999999</ele>
        <time>2017-10-30T15:15:08Z</time>
      </trkpt>
      <trkpt lat="51.533293034881353" lon="9.142025029286742">
        <ele>229.41</ele>
        <time>2017-10-30T15:15:09Z</time>
      </trkpt>
      <trkpt lat="51.533945985138416" lon="9.141191029921174">
        <ele>226.05000000000001</ele>
        <time>2017-10-30T15:15:16Z</time>
      </trkpt>
      <trkpt lat="51.534074982628226" lon="9.141019033268094">
        <ele>226.05000000000001</ele>
        <time>2017-10-30T15:15:22Z</time>
      </trkpt>
      <trkpt lat="51.534085040912032" lon="9.140838989987969">
        <ele>226.05000000000001</ele>
        <time>2017-10-30T15:15:23Z</time>
      </trkpt>
      <trkpt lat="51.53403902426362" lon="9.140767995268107">
        <ele>226.05000000000001</ele>
        <time>2017-10-30T15:15:24Z</time>
      </trkpt>
      <trkpt lat="51.533981021493673" lon="9.140678979456425">
        <ele>226.05000000000001</ele>
        <time>2017-10-30T15:15:25Z</time>
      </trkpt>
      <trkpt lat="51.533904997631907" lon="9.140560962259769">
        <ele>226.53</ele>
        <time>2017-10-30T15:15:26Z</time>
      </trkpt>
      <trkpt lat="51.533839032053947" lon="9.140445962548256">
        <ele>226.53</ele>
        <time>2017-10-30T15:15:27Z</time>
      </trkpt>
      <trkpt lat="51.533203013241291" lon="9.139157999306917">
        <ele>227.97</ele>
        <time>2017-10-30T15:15:35Z</time>
      </trkpt>
      <trkpt lat="51.532790958881378" lon="9.137566024437547">
        <ele>234.22</ele>
        <time>2017-10-30T15:15:43Z</time>
      </trkpt>
      <trkpt lat="51.532267006114125" lon="9.13542402908206">
        <ele>239.50999999999999</ele>
        <time>2017-10-30T15:15:55Z</time>
      </trkpt>
      <trkpt lat="51.532193999737501" lon="9.135120017454028">
        <ele>240.47</ele>
        <time>2017-10-30T15:15:58Z</time>
      </trkpt>
      <trkpt lat="51.532175978645682" lon="9.135047011077404">
        <ele>240.47</ele>
        <time>2017-10-30T15:15:59Z</time>
      </trkpt>
      <trkpt lat="51.532162986695766" lon="9.134993031620979">
        <ele>240.47</ele>
        <time>2017-10-30T15:16:00Z</time>
      </trkpt>
      <trkpt lat="51.532214032486081" lon="9.134876020252705">
        <ele>240.47</ele>
        <time>2017-10-30T15:16:01Z</time>
      </trkpt>
      <trkpt lat="51.532270023599267" lon="9.134841989725828">
        <ele>240.94999999999999</ele>
        <time>2017-10-30T15:16:02Z</time>
      </trkpt>
      <trkpt lat="51.532343029975891" lon="9.134797984734178">
        <ele>240.94999999999999</ele>
        <time>2017-10-30T15:16:03Z</time>
      </trkpt>
      <trkpt lat="51.533090025186539" lon="9.134356006979942">
        <ele>239.50999999999999</ele>
        <time>2017-10-30T15:16:11Z</time>
      </trkpt>
      <trkpt lat="51.533236037939787" lon="9.134330023080111">
        <ele>239.02000000000001</ele>
        <time>2017-10-30T15:16:13Z</time>
      </trkpt>
      <trkpt lat="51.533302003517747" lon="9.134318036958575">
        <ele>238.53999999999999</ele>
        <time>2017-10-30T15:16:14Z</time>
      </trkpt>
      <trkpt lat="51.533363023772836" lon="9.134306972846389">
        <ele>238.53999999999999</ele>
        <time>2017-10-30T15:16:15Z</time>
      </trkpt>
      <trkpt lat="51.533405017107725" lon="9.134300015866756">
        <ele>238.53999999999999</ele>
        <time>2017-10-30T15:16:16Z</time>
      </trkpt>
      <trkpt lat="51.533433012664318" lon="9.134294986724854">
        <ele>238.53999999999999</ele>
        <time>2017-10-30T15:16:17Z</time>
      </trkpt>
      <trkpt lat="51.53343603014946" lon="9.134285012260079">
        <ele>238.06</ele>
        <time>2017-10-30T15:16:18Z</time>
      </trkpt>
      <trkpt lat="51.533448016270995" lon="9.13424301892519">
        <ele>238.06</ele>
        <time>2017-10-30T15:16:19Z</time>
      </trkpt>
      <trkpt lat="51.533462014049292" lon="9.134195996448398">
        <ele>237.58000000000001</ele>
        <time>2017-10-30T15:16:20Z</time>
      </trkpt>
      <trkpt lat="51.533534014597535" lon="9.133949987590313">
        <ele>237.09999999999999</ele>
        <time>2017-10-30T15:16:24Z</time>
      </trkpt>
      <trkpt lat="51.533563015982509" lon="9.133847979828715">
        <ele>237.09999999999999</ele>
        <time>2017-10-30T15:16:25Z</time>
      </trkpt>
      <trkpt lat="51.533599980175495" lon="9.133723005652428">
        <ele>237.09999999999999</ele>
        <time>2017-10-30T15:16:26Z</time>
      </trkpt>
      <trkpt lat="51.534154023975134" lon="9.132450968027115">
        <ele>238.06</ele>
        <time>2017-10-30T15:16:35Z</time>
      </trkpt>
      <trkpt lat="51.534224012866616" lon="9.132305039092898">
        <ele>238.06</ele>
        <time>2017-10-30T15:16:36Z</time>
      </trkpt>
      <trkpt lat="51.535210981965065" lon="9.130291035398841">
        <ele>239.99000000000001</ele>
        <time>2017-10-30T15:16:49Z</time>
      </trkpt>
      <trkpt lat="51.536242961883545" lon="9.128436958417296">
        <ele>240.94999999999999</ele>
        <time>2017-10-30T15:17:00Z</time>
      </trkpt>
      <trkpt lat="51.537459008395672" lon="9.126515993848443">
        <ele>240.94999999999999</ele>
        <time>2017-10-30T15:17:08Z</time>
      </trkpt>
      <trkpt lat="51.539550963789225" lon="9.123488031327725">
        <ele>237.09999999999999</ele>
        <time>2017-10-30T15:17:20Z</time>
      </trkpt>
      <trkpt lat="51.540328972041607" lon="9.122458985075355">
        <ele>233.25999999999999</ele>
        <time>2017-10-30T15:17:25Z</time>
      </trkpt>
      <trkpt lat="51.540468027815223" lon="9.122254969552159">
        <ele>233.25999999999999</ele>
        <time>2017-10-30T15:17:26Z</time>
      </trkpt>
      <trkpt lat="51.541362963616848" lon="9.120153961703181">
        <ele>230.84999999999999</ele>
        <time>2017-10-30T15:17:33Z</time>
      </trkpt>
      <trkpt lat="51.542329983785748" lon="9.117691023275256">
        <ele>227.49000000000001</ele>
        <time>2017-10-30T15:17:41Z</time>
      </trkpt>
      <trkpt lat="51.543032974004745" lon="9.115214003250003">
        <ele>224.12</ele>
        <time>2017-10-30T15:17:49Z</time>
      </trkpt>
      <trkpt lat="51.543100029230118" lon="9.114952990785241">
        <ele>224.12</ele>
        <time>2017-10-30T15:17:50Z</time>
      </trkpt>
      <trkpt lat="51.543136993423104" lon="9.114662976935506">
        <ele>224.12</ele>
        <time>2017-10-30T15:17:51Z</time>
      </trkpt>
      <trkpt lat="51.543174963444471" lon="9.114357037469745">
        <ele>224.12</ele>
        <time>2017-10-30T15:17:52Z</time>
      </trkpt>
      <trkpt lat="51.543357018381357" lon="9.112052014097571">
        <ele>223.63999999999999</ele>
        <time>2017-10-30T15:18:00Z</time>
      </trkpt>
      <trkpt lat="51.54340798035264" lon="9.111867025494576">
        <ele>223.16</ele>
        <time>2017-10-30T15:18:01Z</time>
      </trkpt>
      <trkpt lat="51.543469000607729" lon="9.111695028841496">
        <ele>223.16</ele>
        <time>2017-10-30T15:18:02Z</time>
      </trkpt>
      <trkpt lat="51.543565979227424" lon="9.111579023301601">
        <ele>222.19999999999999</ele>
        <time>2017-10-30T15:18:03Z</time>
      </trkpt>
      <trkpt lat="51.543673016130924" lon="9.111462011933327">
        <ele>221.72</ele>
        <time>2017-10-30T15:18:04Z</time>
      </trkpt>
      <trkpt lat="51.543798996135592" lon="9.111370984464884">
        <ele>220.75999999999999</ele>
        <time>2017-10-30T15:18:05Z</time>
      </trkpt>
      <trkpt lat="51.543935034424067" lon="9.111294038593769">
        <ele>220.28</ele>
        <time>2017-10-30T15:18:06Z</time>
      </trkpt>
      <trkpt lat="51.544067971408367" lon="9.111219020560384">
        <ele>219.31999999999999</ele>
        <time>2017-10-30T15:18:07Z</time>
      </trkpt>
      <trkpt lat="51.544204009696841" lon="9.111141990870237">
        <ele>218.84</ele>
        <time>2017-10-30T15:18:08Z</time>
      </trkpt>
      <trkpt lat="51.544289002195001" lon="9.110992960631847">
        <ele>218.36000000000001</ele>
        <time>2017-10-30T15:18:09Z</time>
      </trkpt>
      <trkpt lat="51.544382041320205" lon="9.11082599312067">
        <ele>217.88</ele>
        <time>2017-10-30T15:18:10Z</time>
      </trkpt>
      <trkpt lat="51.544517995789647" lon="9.110392984002829">
        <ele>216.91</ele>
        <time>2017-10-30T15:18:12Z</time>
      </trkpt>
      <trkpt lat="51.544582033529878" lon="9.110156027600169">
        <ele>216.43000000000001</ele>
        <time>2017-10-30T15:18:13Z</time>
      </trkpt>
      <trkpt lat="51.544621009379625" lon="9.109899960458279">
        <ele>216.43000000000001</ele>
        <time>2017-10-30T15:18:14Z</time>
      </trkpt>
      <trkpt lat="51.544643975794315" lon="9.109630985185504">
        <ele>215.94999999999999</ele>
        <time>2017-10-30T15:18:15Z</time>
      </trkpt>
      <trkpt lat="51.544668031856418" lon="9.109354969114065">
        <ele>215.94999999999999</ele>
        <time>2017-10-30T15:18:16Z</time>
      </trkpt>
      <trkpt lat="51.544675994664431" lon="9.106920026242733">
        <ele>215.94999999999999</ele>
        <time>2017-10-30T15:18:25Z</time>
      </trkpt>
      <trkpt lat="51.544714970514178" lon="9.106026012450457">
        <ele>216.91</ele>
        <time>2017-10-30T15:18:31Z</time>
      </trkpt>
      <trkpt lat="51.544756041839719" lon="9.105910006910563">
        <ele>216.91</ele>
        <time>2017-10-30T15:18:32Z</time>
      </trkpt>
      <trkpt lat="51.544825024902821" lon="9.105837000533938">
        <ele>216.91</ele>
        <time>2017-10-30T15:18:33Z</time>
      </trkpt>
      <trkpt lat="51.544894007965922" lon="9.105763994157314">
        <ele>216.91</ele>
        <time>2017-10-30T15:18:34Z</time>
      </trkpt>
      <trkpt lat="51.544963996857405" lon="9.105687970295548">
        <ele>216.43000000000001</ele>
        <time>2017-10-30T15:18:35Z</time>
      </trkpt>
      <trkpt lat="51.545041026547551" lon="9.105605995282531">
        <ele>216.43000000000001</ele>
        <time>2017-10-30T15:18:36Z</time>
      </trkpt>
      <trkpt lat="51.545114032924175" lon="9.105596020817757">
        <ele>215.94999999999999</ele>
        <time>2017-10-30T15:18:37Z</time>
      </trkpt>
      <trkpt lat="51.545193996280432" lon="9.105584034696221">
        <ele>215.94999999999999</ele>
        <time>2017-10-30T15:18:38Z</time>
      </trkpt>
      <trkpt lat="51.545273037627339" lon="9.105572970584035">
        <ele>215.47</ele>
        <time>2017-10-30T15:18:39Z</time>
      </trkpt>
      <trkpt lat="51.545541007071733" lon="9.105642959475517">
        <ele>214.99000000000001</ele>
        <time>2017-10-30T15:18:42Z</time>
      </trkpt>
      <trkpt lat="51.545642009004951" lon="9.105683024972677">
        <ele>214.99000000000001</ele>
        <time>2017-10-30T15:18:43Z</time>
      </trkpt>
      <trkpt lat="51.545735970139503" lon="9.10577698610723">
        <ele>214.50999999999999</ele>
        <time>2017-10-30T15:18:44Z</time>
      </trkpt>
      <trkpt lat="51.545822974294424" lon="9.105878993868828">
        <ele>214.50999999999999</ele>
        <time>2017-10-30T15:18:45Z</time>
      </trkpt>
      <trkpt lat="51.545914001762867" lon="9.105986030772328">
        <ele>214.03</ele>
        <time>2017-10-30T15:18:46Z</time>
      </trkpt>
      <trkpt lat="51.546165039762855" lon="9.106275038793683">
        <ele>213.06999999999999</ele>
        <time>2017-10-30T15:18:49Z</time>
      </trkpt>
      <trkpt lat="51.546268975362182" lon="9.106322983279824">
        <ele>213.55000000000001</ele>
        <time>2017-10-30T15:18:50Z</time>
      </trkpt>
      <trkpt lat="51.546469973400235" lon="9.106404036283493">
        <ele>213.55000000000001</ele>
        <time>2017-10-30T15:18:52Z</time>
      </trkpt>
      <trkpt lat="51.546568041667342" lon="9.106415016576648">
        <ele>214.03</ele>
        <time>2017-10-30T15:18:53Z</time>
      </trkpt>
      <trkpt lat="51.54665102250874" lon="9.106408981606364">
        <ele>214.50999999999999</ele>
        <time>2017-10-30T15:18:54Z</time>
      </trkpt>
      <trkpt lat="51.546726040542126" lon="9.106365982443094">
        <ele>214.99000000000001</ele>
        <time>2017-10-30T15:18:55Z</time>
      </trkpt>
      <trkpt lat="51.546791000291705" lon="9.106306973844767">
        <ele>214.99000000000001</ele>
        <time>2017-10-30T15:18:56Z</time>
      </trkpt>
      <trkpt lat="51.546832993626595" lon="9.106203960254788">
        <ele>214.99000000000001</ele>
        <time>2017-10-30T15:18:57Z</time>
      </trkpt>
      <trkpt lat="51.546878004446626" lon="9.106094995513558">
        <ele>215.47</ele>
        <time>2017-10-30T15:18:58Z</time>
      </trkpt>
      <trkpt lat="51.546925026923418" lon="9.105954011902213">
        <ele>215.47</ele>
        <time>2017-10-30T15:18:59Z</time>
      </trkpt>
      <trkpt lat="51.546893008053303" lon="9.105834988877177">
        <ele>215.94999999999999</ele>
        <time>2017-10-30T15:19:00Z</time>
      </trkpt>
      <trkpt lat="51.546857971698046" lon="9.105703979730606">
        <ele>215.94999999999999</ele>
        <time>2017-10-30T15:19:01Z</time>
      </trkpt>
      <trkpt lat="51.54682201333344" lon="9.105569031089544">
        <ele>216.43000000000001</ele>
        <time>2017-10-30T15:19:02Z</time>
      </trkpt>
      <trkpt lat="51.546783959493041" lon="9.105426035821438">
        <ele>216.91</ele>
        <time>2017-10-30T15:19:03Z</time>
      </trkpt>
      <trkpt lat="51.546320021152496" lon="9.104391960427165">
        <ele>222.68000000000001</ele>
        <time>2017-10-30T15:19:11Z</time>
      </trkpt>
      <trkpt lat="51.546257995069027" lon="9.104281989857554">
        <ele>223.63999999999999</ele>
        <time>2017-10-30T15:19:12Z</time>
      </trkpt>
      <trkpt lat="51.546217007562518" lon="9.104149974882603">
        <ele>224.61000000000001</ele>
        <time>2017-10-30T15:19:13Z</time>
      </trkpt>
      <trkpt lat="51.546180965378881" lon="9.104007985442877">
        <ele>225.09</ele>
        <time>2017-10-30T15:19:14Z</time>
      </trkpt>
      <trkpt lat="51.546142995357513" lon="9.103856021538377">
        <ele>225.09</ele>
        <time>2017-10-30T15:19:15Z</time>
      </trkpt>
      <trkpt lat="51.546110976487398" lon="9.10369299352169">
        <ele>225.56999999999999</ele>
        <time>2017-10-30T15:19:16Z</time>
      </trkpt>
      <trkpt lat="51.546099996194243" lon="9.10352099686861">
        <ele>225.09</ele>
        <time>2017-10-30T15:19:17Z</time>
      </trkpt>
      <trkpt lat="51.546089015901089" lon="9.103355035185814">
        <ele>224.61000000000001</ele>
        <time>2017-10-30T15:19:18Z</time>
      </trkpt>
      <trkpt lat="51.546079963445663" lon="9.103039959445596">
        <ele>223.16</ele>
        <time>2017-10-30T15:19:20Z</time>
      </trkpt>
      <trkpt lat="51.546106031164527" lon="9.10287600941956">
        <ele>222.19999999999999</ele>
        <time>2017-10-30T15:19:21Z</time>
      </trkpt>
      <trkpt lat="51.546136038377881" lon="9.102688003331423">
        <ele>221.24000000000001</ele>
        <time>2017-10-30T15:19:22Z</time>
      </trkpt>
      <trkpt lat="51.546192029491067" lon="9.102525981143117">
        <ele>220.75999999999999</ele>
        <time>2017-10-30T15:19:23Z</time>
      </trkpt>
      <trkpt lat="51.546251038089395" lon="9.102357001975179">
        <ele>220.75999999999999</ele>
        <time>2017-10-30T15:19:24Z</time>
      </trkpt>
      <trkpt lat="51.54630996286869" lon="9.102185005322099">
        <ele>220.28</ele>
        <time>2017-10-30T15:19:25Z</time>
      </trkpt>
      <trkpt lat="51.546356985345483" lon="9.102004040032625">
        <ele>220.75999999999999</ele>
        <time>2017-10-30T15:19:26Z</time>
      </trkpt>
      <trkpt lat="51.546398978680372" lon="9.101815028116107">
        <ele>220.75999999999999</ele>
        <time>2017-10-30T15:19:27Z</time>
      </trkpt>
      <trkpt lat="51.546443989500403" lon="9.101617969572544">
        <ele>220.75999999999999</ele>
        <time>2017-10-30T15:19:28Z</time>
      </trkpt>
      <trkpt lat="51.546588996425271" lon="9.100911961868405">
        <ele>219.31999999999999</ele>
        <time>2017-10-30T15:19:31Z</time>
      </trkpt>
      <trkpt lat="51.54662998393178" lon="9.100637035444379">
        <ele>218.84</ele>
        <time>2017-10-30T15:19:32Z</time>
      </trkpt>
      <trkpt lat="51.54667398892343" lon="9.100347021594644">
        <ele>218.84</ele>
        <time>2017-10-30T15:19:33Z</time>
      </trkpt>
      <trkpt lat="51.546894013881683" lon="9.099487038329244">
        <ele>219.31999999999999</ele>
        <time>2017-10-30T15:19:36Z</time>
      </trkpt>
      <trkpt lat="51.547007001936436" lon="9.099218985065818">
        <ele>219.80000000000001</ele>
        <time>2017-10-30T15:19:37Z</time>
      </trkpt>
      <trkpt lat="51.547128036618233" lon="9.098941963165999">
        <ele>220.28</ele>
        <time>2017-10-30T15:19:38Z</time>
      </trkpt>
      <trkpt lat="51.548308962956071" lon="9.096469972282648">
        <ele>226.53</ele>
        <time>2017-10-30T15:19:46Z</time>
      </trkpt>
      <trkpt lat="51.548998039215803" lon="9.094362007454038">
        <ele>227.97</ele>
        <time>2017-10-30T15:19:52Z</time>
      </trkpt>
      <trkpt lat="51.549699017778039" lon="9.090727027505636">
        <ele>234.22</ele>
        <time>2017-10-30T15:20:01Z</time>
      </trkpt>
      <trkpt lat="51.550148958340287" lon="9.088869011029601">
        <ele>236.13999999999999</ele>
        <time>2017-10-30T15:20:06Z</time>
      </trkpt>
      <trkpt lat="51.550275022163987" lon="9.088539015501738">
        <ele>236.62</ele>
        <time>2017-10-30T15:20:07Z</time>
      </trkpt>
      <trkpt lat="51.551789967343211" lon="9.084783000871539">
        <ele>239.02000000000001</ele>
        <time>2017-10-30T15:20:18Z</time>
      </trkpt>
      <trkpt lat="51.552348034456372" lon="9.083706010133028">
        <ele>239.99000000000001</ele>
        <time>2017-10-30T15:20:23Z</time>
      </trkpt>
      <trkpt lat="51.552454987540841" lon="9.083577012643218">
        <ele>239.99000000000001</ele>
        <time>2017-10-30T15:20:24Z</time>
      </trkpt>
      <trkpt lat="51.552570993080735" lon="9.08345497213304">
        <ele>239.99000000000001</ele>
        <time>2017-10-30T15:20:25Z</time>
      </trkpt>
      <trkpt lat="51.552724968641996" lon="9.083397975191474">
        <ele>240.47</ele>
        <time>2017-10-30T15:20:26Z</time>
      </trkpt>
      <trkpt lat="51.552893025800586" lon="9.083335027098656">
        <ele>240.47</ele>
        <time>2017-10-30T15:20:27Z</time>
      </trkpt>
      <trkpt lat="51.55432197265327" lon="9.082811996340752">
        <ele>243.83000000000001</ele>
        <time>2017-10-30T15:20:34Z</time>
      </trkpt>
      <trkpt lat="51.555570038035512" lon="9.082791041582823">
        <ele>249.59999999999999</ele>
        <time>2017-10-30T15:20:40Z</time>
      </trkpt>
      <trkpt lat="51.557029997929931" lon="9.083382971584797">
        <ele>255.84999999999999</ele>
        <time>2017-10-30T15:20:48Z</time>
      </trkpt>
      <trkpt lat="51.557869026437402" lon="9.083648007363081">
        <ele>261.13999999999999</ele>
        <time>2017-10-30T15:20:55Z</time>
      </trkpt>
      <trkpt lat="51.558113023638725" lon="9.083660999312997">
        <ele>263.06</ele>
        <time>2017-10-30T15:21:01Z</time>
      </trkpt>
      <trkpt lat="51.558125009760261" lon="9.083555974066258">
        <ele>263.54000000000002</ele>
        <time>2017-10-30T15:21:02Z</time>
      </trkpt>
      <trkpt lat="51.558141019195318" lon="9.083404010161758">
        <ele>263.54000000000002</ele>
        <time>2017-10-30T15:21:03Z</time>
      </trkpt>
      <trkpt lat="51.558278985321522" lon="9.082152005285025">
        <ele>261.13999999999999</ele>
        <time>2017-10-30T15:21:08Z</time>
      </trkpt>
      <trkpt lat="51.55857402831316" lon="9.079261003062129">
        <ele>258.73000000000002</ele>
        <time>2017-10-30T15:21:16Z</time>
      </trkpt>
      <trkpt lat="51.558728003874421" lon="9.075640020892024">
        <ele>257.76999999999998</ele>
        <time>2017-10-30T15:21:25Z</time>
      </trkpt>
      <trkpt lat="51.558348974213004" lon="9.072720017284155">
        <ele>253.44</ele>
        <time>2017-10-30T15:21:32Z</time>
      </trkpt>
      <trkpt lat="51.557690994814038" lon="9.068307029083371">
        <ele>246.22999999999999</ele>
        <time>2017-10-30T15:21:43Z</time>
      </trkpt>
      <trkpt lat="51.557722007855773" lon="9.065965041518211">
        <ele>246.72</ele>
        <time>2017-10-30T15:21:49Z</time>
      </trkpt>
      <trkpt lat="51.557969022542238" lon="9.064205009490252">
        <ele>248.16</ele>
        <time>2017-10-30T15:21:54Z</time>
      </trkpt>
      <trkpt lat="51.558001963421702" lon="9.063869984820485">
        <ele>248.63999999999999</ele>
        <time>2017-10-30T15:21:55Z</time>
      </trkpt>
      <trkpt lat="51.558001963421702" lon="9.063516017049551">
        <ele>248.63999999999999</ele>
        <time>2017-10-30T15:21:56Z</time>
      </trkpt>
      <trkpt lat="51.557784033939242" lon="9.061141004785895">
        <ele>252</ele>
        <time>2017-10-30T15:22:03Z</time>
      </trkpt>
      <trkpt lat="51.557554034516215" lon="9.059726977720857">
        <ele>254.41</ele>
        <time>2017-10-30T15:22:10Z</time>
      </trkpt>
      <trkpt lat="51.557524027302861" lon="9.058291995897889">
        <ele>256.81</ele>
        <time>2017-10-30T15:22:18Z</time>
      </trkpt>
      <trkpt lat="51.55790900811553" lon="9.056472033262253">
        <ele>258.73000000000002</ele>
        <time>2017-10-30T15:22:28Z</time>
      </trkpt>
      <trkpt lat="51.558046974241734" lon="9.055769965052605">
        <ele>260.64999999999998</ele>
        <time>2017-10-30T15:22:32Z</time>
      </trkpt>
      <trkpt lat="51.558066001161933" lon="9.055630993098021">
        <ele>261.13999999999999</ele>
        <time>2017-10-30T15:22:33Z</time>
      </trkpt>
      <trkpt lat="51.558042028918862" lon="9.055438963696361">
        <ele>261.62</ele>
        <time>2017-10-30T15:22:34Z</time>
      </trkpt>
      <trkpt lat="51.558021996170282" lon="9.055280964821577">
        <ele>262.10000000000002</ele>
        <time>2017-10-30T15:22:35Z</time>
      </trkpt>
      <trkpt lat="51.558002969250083" lon="9.055123971775174">
        <ele>262.57999999999998</ele>
        <time>2017-10-30T15:22:36Z</time>
      </trkpt>
      <trkpt lat="51.557983020320535" lon="9.054966978728771">
        <ele>263.54000000000002</ele>
        <time>2017-10-30T15:22:37Z</time>
      </trkpt>
      <trkpt lat="51.557973967865109" lon="9.054805962368846">
        <ele>264.5</ele>
        <time>2017-10-30T15:22:38Z</time>
      </trkpt>
      <trkpt lat="51.557957036420703" lon="9.054649975150824">
        <ele>264.98000000000002</ele>
        <time>2017-10-30T15:22:39Z</time>
      </trkpt>
      <trkpt lat="51.557940021157265" lon="9.054495999589562">
        <ele>265.94</ele>
        <time>2017-10-30T15:22:40Z</time>
      </trkpt>
      <trkpt lat="51.5579520072788" lon="9.054333977401257">
        <ele>266.89999999999998</ele>
        <time>2017-10-30T15:22:41Z</time>
      </trkpt>
      <trkpt lat="51.557968016713858" lon="9.054181007668376">
        <ele>267.38</ele>
        <time>2017-10-30T15:22:42Z</time>
      </trkpt>
      <trkpt lat="51.557991988956928" lon="9.054028959944844">
        <ele>267.86000000000001</ele>
        <time>2017-10-30T15:22:43Z</time>
      </trkpt>
      <trkpt lat="51.55803800560534" lon="9.053893005475402">
        <ele>268.35000000000002</ele>
        <time>2017-10-30T15:22:44Z</time>
      </trkpt>
      <trkpt lat="51.558083016425371" lon="9.053755961358547">
        <ele>268.82999999999998</ele>
        <time>2017-10-30T15:22:45Z</time>
      </trkpt>
      <trkpt lat="51.558130038902164" lon="9.053616989403963">
        <ele>269.31</ele>
        <time>2017-10-30T15:22:46Z</time>
      </trkpt>
      <trkpt lat="51.558539997786283" lon="9.052329026162624">
        <ele>271.23000000000002</ele>
        <time>2017-10-30T15:22:55Z</time>
      </trkpt>
      <trkpt lat="51.558576039969921" lon="9.052194999530911">
        <ele>271.23000000000002</ele>
        <time>2017-10-30T15:22:56Z</time>
      </trkpt>
      <trkpt lat="51.558610992506146" lon="9.052064996212721">
        <ele>271.23000000000002</ele>
        <time>2017-10-30T15:22:57Z</time>
      </trkpt>
      <trkpt lat="51.558646028861403" lon="9.051931975409389">
        <ele>270.75</ele>
        <time>2017-10-30T15:22:58Z</time>
      </trkpt>
      <trkpt lat="51.558680981397629" lon="9.051801972091198">
        <ele>270.75</ele>
        <time>2017-10-30T15:22:59Z</time>
      </trkpt>
      <trkpt lat="51.558731021359563" lon="9.051555963233113">
        <ele>269.79000000000002</ele>
        <time>2017-10-30T15:23:01Z</time>
      </trkpt>
      <trkpt lat="51.558731021359563" lon="9.051459990441799">
        <ele>268.82999999999998</ele>
        <time>2017-10-30T15:23:02Z</time>
      </trkpt>
      <trkpt lat="51.558794975280762" lon="9.051275001838803">
        <ele>268.35000000000002</ele>
        <time>2017-10-30T15:23:03Z</time>
      </trkpt>
      <trkpt lat="51.558847026899457" lon="9.051275001838803">
        <ele>267.86000000000001</ele>
        <time>2017-10-30T15:23:04Z</time>
      </trkpt>
      <trkpt lat="51.558903018012643" lon="9.051275001838803">
        <ele>267.38</ele>
        <time>2017-10-30T15:23:05Z</time>
      </trkpt>
      <trkpt lat="51.558969989418983" lon="9.051275001838803">
        <ele>266.42000000000002</ele>
        <time>2017-10-30T15:23:06Z</time>
      </trkpt>
      <trkpt lat="51.559049030765891" lon="9.051273996010423">
        <ele>266.42000000000002</ele>
        <time>2017-10-30T15:23:07Z</time>
      </trkpt>
      <trkpt lat="51.559410961344838" lon="9.05124600045383">
        <ele>265.94</ele>
        <time>2017-10-30T15:23:11Z</time>
      </trkpt>
      <trkpt lat="51.559512969106436" lon="9.051238037645817">
        <ele>265.94</ele>
        <time>2017-10-30T15:23:12Z</time>
      </trkpt>
      <trkpt lat="51.559615982696414" lon="9.051230996847153">
        <ele>265.94</ele>
        <time>2017-10-30T15:23:13Z</time>
      </trkpt>
      <trkpt lat="51.55982200987637" lon="9.051214987412095">
        <ele>266.42000000000002</ele>
        <time>2017-10-30T15:23:15Z</time>
      </trkpt>
      <trkpt lat="51.560491975396872" lon="9.051444986835122">
        <ele>267.38</ele>
        <time>2017-10-30T15:23:22Z</time>
      </trkpt>
      <trkpt lat="51.560589037835598" lon="9.051468037068844">
        <ele>267.38</ele>
        <time>2017-10-30T15:23:23Z</time>
      </trkpt>
      <trkpt lat="51.560684004798532" lon="9.051489997655153">
        <ele>267.38</ele>
        <time>2017-10-30T15:23:24Z</time>
      </trkpt>
      <trkpt lat="51.560778971761465" lon="9.051455967128277">
        <ele>267.86000000000001</ele>
        <time>2017-10-30T15:23:25Z</time>
      </trkpt>
      <trkpt lat="51.560877962037921" lon="9.051420008763671">
        <ele>268.35000000000002</ele>
        <time>2017-10-30T15:23:26Z</time>
      </trkpt>
      <trkpt lat="51.562056038528681" lon="9.050969984382391">
        <ele>270.75</ele>
        <time>2017-10-30T15:23:36Z</time>
      </trkpt>
      <trkpt lat="51.563182985410094" lon="9.050185019150376">
        <ele>274.58999999999997</ele>
        <time>2017-10-30T15:23:43Z</time>
      </trkpt>
      <trkpt lat="51.563544999808073" lon="9.049984021112323">
        <ele>276.51999999999998</ele>
        <time>2017-10-30T15:23:45Z</time>
      </trkpt>
      <trkpt lat="51.56373099423945" lon="9.049881007522345">
        <ele>277.48000000000002</ele>
        <time>2017-10-30T15:23:46Z</time>
      </trkpt>
      <trkpt lat="51.563900979235768" lon="9.049881007522345">
        <ele>278.44</ele>
        <time>2017-10-30T15:23:47Z</time>
      </trkpt>
      <trkpt lat="51.564069958403707" lon="9.049881007522345">
        <ele>278.92000000000002</ele>
        <time>2017-10-30T15:23:48Z</time>
      </trkpt>
      <trkpt lat="51.564239021390676" lon="9.049925012513995">
        <ele>279.88</ele>
        <time>2017-10-30T15:23:49Z</time>
      </trkpt>
      <trkpt lat="51.564416969195008" lon="9.049984021112323">
        <ele>280.36000000000001</ele>
        <time>2017-10-30T15:23:50Z</time>
      </trkpt>
      <trkpt lat="51.564601035788655" lon="9.050058033317328">
        <ele>280.83999999999997</ele>
        <time>2017-10-30T15:23:51Z</time>
      </trkpt>
      <trkpt lat="51.56514803878963" lon="9.050278980284929">
        <ele>281.80000000000001</ele>
        <time>2017-10-30T15:23:54Z</time>
      </trkpt>
      <trkpt lat="51.565332021564245" lon="9.050327008590102">
        <ele>282.27999999999997</ele>
        <time>2017-10-30T15:23:55Z</time>
      </trkpt>
      <trkpt lat="51.565522961318493" lon="9.050312004983425">
        <ele>282.27999999999997</ele>
        <time>2017-10-30T15:23:56Z</time>
      </trkpt>
      <trkpt lat="51.565711973235011" lon="9.050246961414814">
        <ele>282.76999999999998</ele>
        <time>2017-10-30T15:23:57Z</time>
      </trkpt>
      <trkpt lat="51.565910037606955" lon="9.050168003886938">
        <ele>282.76999999999998</ele>
        <time>2017-10-30T15:23:58Z</time>
      </trkpt>
      <trkpt lat="51.566112963482738" lon="9.050080999732018">
        <ele>282.76999999999998</ele>
        <time>2017-10-30T15:23:59Z</time>
      </trkpt>
      <trkpt lat="51.566315973177552" lon="9.049950996413827">
        <ele>282.76999999999998</ele>
        <time>2017-10-30T15:24:00Z</time>
      </trkpt>
      <trkpt lat="51.568427039310336" lon="9.048409983515739">
        <ele>279.39999999999998</ele>
        <time>2017-10-30T15:24:10Z</time>
      </trkpt>
      <trkpt lat="51.569745009765029" lon="9.046771991997957">
        <ele>276.04000000000002</ele>
        <time>2017-10-30T15:24:17Z</time>
      </trkpt>
      <trkpt lat="51.571750966832042" lon="9.043789962306619">
        <ele>280.83999999999997</ele>
        <time>2017-10-30T15:24:29Z</time>
      </trkpt>
      <trkpt lat="51.573692969977856" lon="9.04084799811244">
        <ele>283.25</ele>
        <time>2017-10-30T15:24:40Z</time>
      </trkpt>
      <trkpt lat="51.57471003010869" lon="9.038928961381316">
        <ele>280.36000000000001</ele>
        <time>2017-10-30T15:24:47Z</time>
      </trkpt>
      <trkpt lat="51.575213028118014" lon="9.03811801224947">
        <ele>280.36000000000001</ele>
        <time>2017-10-30T15:24:52Z</time>
      </trkpt>
      <trkpt lat="51.575316963717341" lon="9.037999995052815">
        <ele>279.88</ele>
        <time>2017-10-30T15:24:53Z</time>
      </trkpt>
      <trkpt lat="51.5754400100559" lon="9.037909973412752">
        <ele>279.39999999999998</ele>
        <time>2017-10-30T15:24:54Z</time>
      </trkpt>
      <trkpt lat="51.575568001717329" lon="9.037847025319934">
        <ele>279.39999999999998</ele>
        <time>2017-10-30T15:24:55Z</time>
      </trkpt>
      <trkpt lat="51.575692975893617" lon="9.037783993408084">
        <ele>278.92000000000002</ele>
        <time>2017-10-30T15:24:56Z</time>
      </trkpt>
      <trkpt lat="51.576026994735003" lon="9.03764602728188">
        <ele>277.48000000000002</ele>
        <time>2017-10-30T15:24:59Z</time>
      </trkpt>
      <trkpt lat="51.576135959476233" lon="9.037620965391398">
        <ele>277</ele>
        <time>2017-10-30T15:25:00Z</time>
      </trkpt>
      <trkpt lat="51.576241990551353" lon="9.037614008411765">
        <ele>277</ele>
        <time>2017-10-30T15:25:01Z</time>
      </trkpt>
      <trkpt lat="51.576351039111614" lon="9.037632029503584">
        <ele>276.51999999999998</ele>
        <time>2017-10-30T15:25:02Z</time>
      </trkpt>
      <trkpt lat="51.576462015509605" lon="9.037650972604752">
        <ele>276.04000000000002</ele>
        <time>2017-10-30T15:25:03Z</time>
      </trkpt>
      <trkpt lat="51.576583972200751" lon="9.037671005353332">
        <ele>275.56</ele>
        <time>2017-10-30T15:25:04Z</time>
      </trkpt>
      <trkpt lat="51.577343959361315" lon="9.037806037813425">
        <ele>272.19</ele>
        <time>2017-10-30T15:25:11Z</time>
      </trkpt>
      <trkpt lat="51.577457031235099" lon="9.037792962044478">
        <ele>271.70999999999998</ele>
        <time>2017-10-30T15:25:12Z</time>
      </trkpt>
      <trkpt lat="51.578465038910508" lon="9.037297004833818">
        <ele>268.35000000000002</ele>
        <time>2017-10-30T15:25:22Z</time>
      </trkpt>
      <trkpt lat="51.578679028898478" lon="9.037191979587078">
        <ele>266.42000000000002</ele>
        <time>2017-10-30T15:25:25Z</time>
      </trkpt>
      <trkpt lat="51.578751029446721" lon="9.037156021222472">
        <ele>265.94</ele>
        <time>2017-10-30T15:25:26Z</time>
      </trkpt>
      <trkpt lat="51.578840967267752" lon="9.037176975980401">
        <ele>265.45999999999998</ele>
        <time>2017-10-30T15:25:28Z</time>
      </trkpt>
      <trkpt lat="51.579026961699128" lon="9.037220980972052">
        <ele>265.45999999999998</ele>
        <time>2017-10-30T15:25:29Z</time>
      </trkpt>
      <trkpt lat="51.579135004431009" lon="9.037235984578729">
        <ele>265.45999999999998</ele>
        <time>2017-10-30T15:25:30Z</time>
      </trkpt>
      <trkpt lat="51.579231983050704" lon="9.037202959880233">
        <ele>265.94</ele>
        <time>2017-10-30T15:25:31Z</time>
      </trkpt>
      <trkpt lat="51.579327033832669" lon="9.03717203065753">
        <ele>265.94</ele>
        <time>2017-10-30T15:25:32Z</time>
      </trkpt>
      <trkpt lat="51.57941797748208" lon="9.037134982645512">
        <ele>265.94</ele>
        <time>2017-10-30T15:25:33Z</time>
      </trkpt>
      <trkpt lat="51.579660968855023" lon="9.037020988762379">
        <ele>266.42000000000002</ele>
        <time>2017-10-30T15:25:36Z</time>
      </trkpt>
      <trkpt lat="51.57973799854517" lon="9.036985030397773">
        <ele>266.42000000000002</ele>
        <time>2017-10-30T15:25:37Z</time>
      </trkpt>
      <trkpt lat="51.579800024628639" lon="9.037034986540675">
        <ele>266.42000000000002</ele>
        <time>2017-10-30T15:25:38Z</time>
      </trkpt>
      <trkpt lat="51.579873031005263" lon="9.037093995139003">
        <ele>266.42000000000002</ele>
        <time>2017-10-30T15:25:39Z</time>
      </trkpt>
      <trkpt lat="51.57997403293848" lon="9.037177981808782">
        <ele>266.42000000000002</ele>
        <time>2017-10-30T15:25:40Z</time>
      </trkpt>
      <trkpt lat="51.580018037930131" lon="9.037286024540663">
        <ele>265.94</ele>
        <time>2017-10-30T15:25:41Z</time>
      </trkpt>
      <trkpt lat="51.580064976587892" lon="9.037413010373712">
        <ele>265.45999999999998</ele>
        <time>2017-10-30T15:25:42Z</time>
      </trkpt>
      <trkpt lat="51.580110993236303" lon="9.037533961236477">
        <ele>264.5</ele>
        <time>2017-10-30T15:25:43Z</time>
      </trkpt>
      <trkpt lat="51.580158015713096" lon="9.037665976211429">
        <ele>264.01999999999998</ele>
        <time>2017-10-30T15:25:44Z</time>
      </trkpt>
      <trkpt lat="51.580200009047985" lon="9.037800002843142">
        <ele>263.54000000000002</ele>
        <time>2017-10-30T15:25:45Z</time>
      </trkpt>
      <trkpt lat="51.580291036516428" lon="9.038055986166">
        <ele>263.06</ele>
        <time>2017-10-30T15:25:47Z</time>
      </trkpt>
      <trkpt lat="51.580349961295724" lon="9.038178026676178">
        <ele>263.54000000000002</ele>
        <time>2017-10-30T15:25:48Z</time>
      </trkpt>
      <trkpt lat="51.580431014299393" lon="9.038272993639112">
        <ele>264.01999999999998</ele>
        <time>2017-10-30T15:25:49Z</time>
      </trkpt>
      <trkpt lat="51.580508965998888" lon="9.038365026935935">
        <ele>264.01999999999998</ele>
        <time>2017-10-30T15:25:50Z</time>
      </trkpt>
      <trkpt lat="51.580579960718751" lon="9.038447001948953">
        <ele>264.01999999999998</ele>
        <time>2017-10-30T15:25:51Z</time>
      </trkpt>
      <trkpt lat="51.580653972923756" lon="9.038502993062139">
        <ele>264.5</ele>
        <time>2017-10-30T15:25:52Z</time>
      </trkpt>
      <trkpt lat="51.580734020099044" lon="9.038508022204042">
        <ele>264.5</ele>
        <time>2017-10-30T15:25:53Z</time>
      </trkpt>
      <trkpt lat="51.580810965970159" lon="9.038508022204042">
        <ele>264.01999999999998</ele>
        <time>2017-10-30T15:25:54Z</time>
      </trkpt>
      <trkpt lat="51.580883972346783" lon="9.038422023877502">
        <ele>264.01999999999998</ele>
        <time>2017-10-30T15:25:55Z</time>
      </trkpt>
      <trkpt lat="51.580961002036929" lon="9.038330996409059">
        <ele>263.54000000000002</ele>
        <time>2017-10-30T15:25:56Z</time>
      </trkpt>
      <trkpt lat="51.581047000363469" lon="9.038228988647461">
        <ele>263.54000000000002</ele>
        <time>2017-10-30T15:25:57Z</time>
      </trkpt>
      <trkpt lat="51.58111497759819" lon="9.03809898532927">
        <ele>263.54000000000002</ele>
        <time>2017-10-30T15:25:58Z</time>
      </trkpt>
      <trkpt lat="51.581194018945098" lon="9.03794601559639">
        <ele>263.06</ele>
        <time>2017-10-30T15:25:59Z</time>
      </trkpt>
      <trkpt lat="51.581274988129735" lon="9.037788016721606">
        <ele>263.06</ele>
        <time>2017-10-30T15:26:00Z</time>
      </trkpt>
      <trkpt lat="51.581358974799514" lon="9.0376259945333">
        <ele>263.06</ele>
        <time>2017-10-30T15:26:01Z</time>
      </trkpt>
      <trkpt lat="51.581398034468293" lon="9.037426002323628">
        <ele>263.06</ele>
        <time>2017-10-30T15:26:02Z</time>
      </trkpt>
      <trkpt lat="51.581431981176138" lon="9.037218969315291">
        <ele>263.06</ele>
        <time>2017-10-30T15:26:03Z</time>
      </trkpt>
      <trkpt lat="51.581462994217873" lon="9.037031969055533">
        <ele>263.06</ele>
        <time>2017-10-30T15:26:04Z</time>
      </trkpt>
      <trkpt lat="51.581489983946085" lon="9.036862989887595">
        <ele>263.54000000000002</ele>
        <time>2017-10-30T15:26:05Z</time>
      </trkpt>
      <trkpt lat="51.581515967845917" lon="9.036707002669573">
        <ele>263.54000000000002</ele>
        <time>2017-10-30T15:26:06Z</time>
      </trkpt>
      <trkpt lat="51.581558967009187" lon="9.036578005179763">
        <ele>263.54000000000002</ele>
        <time>2017-10-30T15:26:07Z</time>
      </trkpt>
      <trkpt lat="51.581617975607514" lon="9.036478009074926">
        <ele>264.01999999999998</ele>
        <time>2017-10-30T15:26:08Z</time>
      </trkpt>
      <trkpt lat="51.581703973934054" lon="9.036405002698302">
        <ele>264.01999999999998</ele>
        <time>2017-10-30T15:26:09Z</time>
      </trkpt>
      <trkpt lat="51.581811010837555" lon="9.036398967728019">
        <ele>264.01999999999998</ele>
        <time>2017-10-30T15:26:10Z</time>
      </trkpt>
      <trkpt lat="51.581934979185462" lon="9.036392010748386">
        <ele>264.01999999999998</ele>
        <time>2017-10-30T15:26:11Z</time>
      </trkpt>
      <trkpt lat="51.582072023302317" lon="9.036384969949722">
        <ele>263.54000000000002</ele>
        <time>2017-10-30T15:26:12Z</time>
      </trkpt>
      <trkpt lat="51.583352023735642" lon="9.036422017961741">
        <ele>259.20999999999998</ele>
        <time>2017-10-30T15:26:19Z</time>
      </trkpt>
      <trkpt lat="51.585601978003979" lon="9.036751007661223">
        <ele>255.37</ele>
        <time>2017-10-30T15:26:29Z</time>
      </trkpt>
      <trkpt lat="51.586896982043982" lon="9.036954017356038">
        <ele>254.88999999999999</ele>
        <time>2017-10-30T15:26:36Z</time>
      </trkpt>
      <trkpt lat="51.587231000885367" lon="9.037010008469224">
        <ele>254.41</ele>
        <time>2017-10-30T15:26:39Z</time>
      </trkpt>
      <trkpt lat="51.587304007261992" lon="9.037073040381074">
        <ele>254.88999999999999</ele>
        <time>2017-10-30T15:26:40Z</time>
      </trkpt>
      <trkpt lat="51.587368967011571" lon="9.03713003732264">
        <ele>254.41</ele>
        <time>2017-10-30T15:26:41Z</time>
      </trkpt>
      <trkpt lat="51.587424958124757" lon="9.03721603564918">
        <ele>254.88999999999999</ele>
        <time>2017-10-30T15:26:42Z</time>
      </trkpt>
      <trkpt lat="51.587455971166492" lon="9.037287030369043">
        <ele>254.88999999999999</ele>
        <time>2017-10-30T15:26:43Z</time>
      </trkpt>
      <trkpt lat="51.587513973936439" lon="9.037418961524963">
        <ele>254.88999999999999</ele>
        <time>2017-10-30T15:26:46Z</time>
      </trkpt>
      <trkpt lat="51.587568959221244" lon="9.037487022578716">
        <ele>254.88999999999999</ele>
        <time>2017-10-30T15:26:47Z</time>
      </trkpt>
      <trkpt lat="51.587641965597868" lon="9.037444023415446">
        <ele>254.88999999999999</ele>
        <time>2017-10-30T15:26:48Z</time>
      </trkpt>
      <trkpt lat="51.587736010551453" lon="9.03738702647388">
        <ele>254.41</ele>
        <time>2017-10-30T15:26:49Z</time>
      </trkpt>
      <trkpt lat="51.587853021919727" lon="9.037317037582398">
        <ele>254.88999999999999</ele>
        <time>2017-10-30T15:26:50Z</time>
      </trkpt>
      <trkpt lat="51.588821969926357" lon="9.03674203902483">
        <ele>253.93000000000001</ele>
        <time>2017-10-30T15:26:56Z</time>
      </trkpt>
      <trkpt lat="51.590572027489543" lon="9.035710981115699">
        <ele>253.44</ele>
        <time>2017-10-30T15:27:04Z</time>
      </trkpt>
      <trkpt lat="51.592981992289424" lon="9.034339031204581">
        <ele>255.84999999999999</ele>
        <time>2017-10-30T15:27:13Z</time>
      </trkpt>
      <trkpt lat="51.595742991194129" lon="9.033311996608973">
        <ele>261.13999999999999</ele>
        <time>2017-10-30T15:27:22Z</time>
      </trkpt>
      <trkpt lat="51.598026975989342" lon="9.032672960311174">
        <ele>264.5</ele>
        <time>2017-10-30T15:27:30Z</time>
      </trkpt>
      <trkpt lat="51.599910976365209" lon="9.03214599005878">
        <ele>265.94</ele>
        <time>2017-10-30T15:27:37Z</time>
      </trkpt>
      <trkpt lat="51.602444993332028" lon="9.031880032271147">
        <ele>261.62</ele>
        <time>2017-10-30T15:27:45Z</time>
      </trkpt>
      <trkpt lat="51.604313990101218" lon="9.032433992251754">
        <ele>257.76999999999998</ele>
        <time>2017-10-30T15:27:51Z</time>
      </trkpt>
      <trkpt lat="51.606347020715475" lon="9.033851958811283">
        <ele>252.47999999999999</ele>
        <time>2017-10-30T15:27:58Z</time>
      </trkpt>
      <trkpt lat="51.608825968578458" lon="9.035588018596172">
        <ele>246.72</ele>
        <time>2017-10-30T15:28:07Z</time>
      </trkpt>
      <trkpt lat="51.610809965059161" lon="9.036115994676948">
        <ele>243.34999999999999</ele>
        <time>2017-10-30T15:28:14Z</time>
      </trkpt>
      <trkpt lat="51.61254602484405" lon="9.035891024395824">
        <ele>242.38999999999999</ele>
        <time>2017-10-30T15:28:20Z</time>
      </trkpt>
      <trkpt lat="51.614481993019581" lon="9.034924004226923">
        <ele>240.47</ele>
        <time>2017-10-30T15:28:27Z</time>
      </trkpt>
      <trkpt lat="51.616758015006781" lon="9.032886028289795">
        <ele>237.58000000000001</ele>
        <time>2017-10-30T15:28:36Z</time>
      </trkpt>
      <trkpt lat="51.619137972593307" lon="9.030414037406445">
        <ele>235.18000000000001</ele>
        <time>2017-10-30T15:28:46Z</time>
      </trkpt>
      <trkpt lat="51.621168991550803" lon="9.027427984401584">
        <ele>233.25999999999999</ele>
        <time>2017-10-30T15:28:56Z</time>
      </trkpt>
      <trkpt lat="51.622851993888617" lon="9.025384979322553">
        <ele>230.37</ele>
        <time>2017-10-30T15:29:04Z</time>
      </trkpt>
      <trkpt lat="51.624503983184695" lon="9.024329027161002">
        <ele>226.53</ele>
        <time>2017-10-30T15:29:12Z</time>
      </trkpt>
      <trkpt lat="51.626073997467756" lon="9.024185026064515">
        <ele>226.05000000000001</ele>
        <time>2017-10-30T15:29:19Z</time>
      </trkpt>
      <trkpt lat="51.627634037286043" lon="9.024714007973671">
        <ele>227.00999999999999</ele>
        <time>2017-10-30T15:29:25Z</time>
      </trkpt>
      <trkpt lat="51.630330998450518" lon="9.025788987055421">
        <ele>227.49000000000001</ele>
        <time>2017-10-30T15:29:35Z</time>
      </trkpt>
      <trkpt lat="51.632529990747571" lon="9.025880014523864">
        <ele>227.97</ele>
        <time>2017-10-30T15:29:43Z</time>
      </trkpt>
      <trkpt lat="51.63450300693512" lon="9.025116004049778">
        <ele>228.44999999999999</ele>
        <time>2017-10-30T15:29:50Z</time>
      </trkpt>
      <trkpt lat="51.636355994269252" lon="9.023630982264876">
        <ele>230.84999999999999</ele>
        <time>2017-10-30T15:29:57Z</time>
      </trkpt>
      <trkpt lat="51.639277003705502" lon="9.020447032526135">
        <ele>234.22</ele>
        <time>2017-10-30T15:30:09Z</time>
      </trkpt>
      <trkpt lat="51.641191011294723" lon="9.019333999603987">
        <ele>235.66</ele>
        <time>2017-10-30T15:30:16Z</time>
      </trkpt>
      <trkpt lat="51.642795978114009" lon="9.018172016367316">
        <ele>237.09999999999999</ele>
        <time>2017-10-30T15:30:22Z</time>
      </trkpt>
      <trkpt lat="51.645338963717222" lon="9.01482897810638">
        <ele>244.31</ele>
        <time>2017-10-30T15:30:33Z</time>
      </trkpt>
      <trkpt lat="51.647884966805577" lon="9.011774025857449">
        <ele>253.44</ele>
        <time>2017-10-30T15:30:44Z</time>
      </trkpt>
      <trkpt lat="51.649615997448564" lon="9.010769035667181">
        <ele>257.76999999999998</ele>
        <time>2017-10-30T15:30:51Z</time>
      </trkpt>
      <trkpt lat="51.651840973645449" lon="9.010107032954693">
        <ele>261.13999999999999</ele>
        <time>2017-10-30T15:30:58Z</time>
      </trkpt>
      <trkpt lat="51.656259996816516" lon="9.008848993107677">
        <ele>270.26999999999998</ele>
        <time>2017-10-30T15:31:12Z</time>
      </trkpt>
      <trkpt lat="51.660611964762211" lon="9.007589025422931">
        <ele>287.08999999999997</ele>
        <time>2017-10-30T15:31:26Z</time>
      </trkpt>
      <trkpt lat="51.664321962743998" lon="9.006309024989605">
        <ele>298.63</ele>
        <time>2017-10-30T15:31:38Z</time>
      </trkpt>
      <trkpt lat="51.665931036695838" lon="9.005075041204691">
        <ele>300.06999999999999</ele>
        <time>2017-10-30T15:31:44Z</time>
      </trkpt>
      <trkpt lat="51.667167032137513" lon="9.003509972244501">
        <ele>297.67000000000002</ele>
        <time>2017-10-30T15:31:50Z</time>
      </trkpt>
      <trkpt lat="51.668457007035613" lon="9.001236967742443">
        <ele>290.45999999999998</ele>
        <time>2017-10-30T15:31:58Z</time>
      </trkpt>
      <trkpt lat="51.669914033263922" lon="8.998023010790348">
        <ele>283.25</ele>
        <time>2017-10-30T15:32:07Z</time>
      </trkpt>
      <trkpt lat="51.672042030841112" lon="8.993605999276042">
        <ele>287.56999999999999</ele>
        <time>2017-10-30T15:32:19Z</time>
      </trkpt>
      <trkpt lat="51.673794016242027" lon="8.991187987849116">
        <ele>294.30000000000001</ele>
        <time>2017-10-30T15:32:27Z</time>
      </trkpt>
      <trkpt lat="51.675356989726424" lon="8.989891977980733">
        <ele>300.55000000000001</ele>
        <time>2017-10-30T15:32:34Z</time>
      </trkpt>
      <trkpt lat="51.677831998094916" lon="8.988581970334053">
        <ele>309.19999999999999</ele>
        <time>2017-10-30T15:32:43Z</time>
      </trkpt>
      <trkpt lat="51.681123990565538" lon="8.986759996041656">
        <ele>328.91000000000003</ele>
        <time>2017-10-30T15:32:54Z</time>
      </trkpt>
      <trkpt lat="51.682853009551764" lon="8.984954031184316">
        <ele>341.41000000000003</ele>
        <time>2017-10-30T15:33:01Z</time>
      </trkpt>
      <trkpt lat="51.684357980266213" lon="8.982710028067231">
        <ele>351.5</ele>
        <time>2017-10-30T15:33:08Z</time>
      </trkpt>
      <trkpt lat="51.685747029259801" lon="8.979877028614283">
        <ele>362.55000000000001</ele>
        <time>2017-10-30T15:33:16Z</time>
      </trkpt>
      <trkpt lat="51.68716398999095" lon="8.976094024255872">
        <ele>369.27999999999997</ele>
        <time>2017-10-30T15:33:26Z</time>
      </trkpt>
      <trkpt lat="51.688550021499395" lon="8.972209012135863">
        <ele>370.24000000000001</ele>
        <time>2017-10-30T15:33:36Z</time>
      </trkpt>
      <trkpt lat="51.689985003322363" lon="8.968495996668935">
        <ele>366.39999999999998</ele>
        <time>2017-10-30T15:33:45Z</time>
      </trkpt>
      <trkpt lat="51.691957013681531" lon="8.964050989598036">
        <ele>352.94</ele>
        <time>2017-10-30T15:33:56Z</time>
      </trkpt>
      <trkpt lat="51.694689011201262" lon="8.958839038386941">
        <ele>333.70999999999998</ele>
        <time>2017-10-30T15:34:10Z</time>
      </trkpt>
      <trkpt lat="51.696000024676323" lon="8.956671981140971">
        <ele>329.87</ele>
        <time>2017-10-30T15:34:17Z</time>
      </trkpt>
      <trkpt lat="51.697402987629175" lon="8.95466803573072">
        <ele>326.5</ele>
        <time>2017-10-30T15:34:26Z</time>
      </trkpt>
      <trkpt lat="51.698909970000386" lon="8.952670963481069">
        <ele>318.32999999999998</ele>
        <time>2017-10-30T15:34:35Z</time>
      </trkpt>
      <trkpt lat="51.700329026207328" lon="8.951064990833402">
        <ele>309.68000000000001</ele>
        <time>2017-10-30T15:34:45Z</time>
      </trkpt>
      <trkpt lat="51.700759017840028" lon="8.950575990602374">
        <ele>304.38999999999999</ele>
        <time>2017-10-30T15:34:51Z</time>
      </trkpt>
      <trkpt lat="51.700819032266736" lon="8.950508013367653">
        <ele>302.47000000000003</ele>
        <time>2017-10-30T15:34:57Z</time>
      </trkpt>
      <trkpt lat="51.700819032266736" lon="8.950508013367653">
        <ele>302.47000000000003</ele>
        <time>2017-10-30T15:35:27Z</time>
      </trkpt>
      <trkpt lat="51.70102103613317" lon="8.950279019773006">
        <ele>299.11000000000001</ele>
        <time>2017-10-30T15:35:41Z</time>
      </trkpt>
      <trkpt lat="51.70149696059525" lon="8.949775015935302">
        <ele>296.22000000000003</ele>
        <time>2017-10-30T15:35:49Z</time>
      </trkpt>
      <trkpt lat="51.701531996950507" lon="8.94974903203547">
        <ele>295.74000000000001</ele>
        <time>2017-10-30T15:35:50Z</time>
      </trkpt>
      <trkpt lat="51.70155898667872" lon="8.94972899928689">
        <ele>295.74000000000001</ele>
        <time>2017-10-30T15:35:51Z</time>
      </trkpt>
      <trkpt lat="51.70155898667872" lon="8.94972899928689">
        <ele>295.74000000000001</ele>
        <time>2017-10-30T15:36:00Z</time>
      </trkpt>
      <trkpt lat="51.701641967520118" lon="8.949799994006753">
        <ele>295.25999999999999</ele>
        <time>2017-10-30T15:36:08Z</time>
      </trkpt>
      <trkpt lat="51.701766019687057" lon="8.949935026466847">
        <ele>294.77999999999997</ele>
        <time>2017-10-30T15:36:10Z</time>
      </trkpt>
      <trkpt lat="51.702049998566508" lon="8.950001997873187">
        <ele>294.77999999999997</ele>
        <time>2017-10-30T15:36:13Z</time>
      </trkpt>
      <trkpt lat="51.702141026034951" lon="8.950047008693218">
        <ele>295.25999999999999</ele>
        <time>2017-10-30T15:36:14Z</time>
      </trkpt>
      <trkpt lat="51.702215038239956" lon="8.950122026726604">
        <ele>295.25999999999999</ele>
        <time>2017-10-30T15:36:15Z</time>
      </trkpt>
      <trkpt lat="51.702636983245611" lon="8.950554030016065">
        <ele>295.25999999999999</ele>
        <time>2017-10-30T15:36:20Z</time>
      </trkpt>
      <trkpt lat="51.702707977965474" lon="8.950627036392689">
        <ele>295.25999999999999</ele>
        <time>2017-10-30T15:36:21Z</time>
      </trkpt>
      <trkpt lat="51.702762041240931" lon="8.950682021677494">
        <ele>295.25999999999999</ele>
        <time>2017-10-30T15:36:22Z</time>
      </trkpt>
      <trkpt lat="51.702850973233581" lon="8.950773971155286">
        <ele>293.81999999999999</ele>
        <time>2017-10-30T15:36:24Z</time>
      </trkpt>
      <trkpt lat="51.702891960740089" lon="8.950814958661795">
        <ele>293.33999999999997</ele>
        <time>2017-10-30T15:36:25Z</time>
      </trkpt>
      <trkpt lat="51.702928002923727" lon="8.950852006673813">
        <ele>292.86000000000001</ele>
        <time>2017-10-30T15:36:26Z</time>
      </trkpt>
      <trkpt lat="51.703035961836576" lon="8.950956026092172">
        <ele>292.38</ele>
        <time>2017-10-30T15:36:27Z</time>
      </trkpt>
      <trkpt lat="51.703063035383821" lon="8.950892994180322">
        <ele>292.38</ele>
        <time>2017-10-30T15:36:28Z</time>
      </trkpt>
      <trkpt lat="51.70310502871871" lon="8.950797021389008">
        <ele>291.89999999999998</ele>
        <time>2017-10-30T15:36:29Z</time>
      </trkpt>
      <trkpt lat="51.703158002346754" lon="8.95067498087883">
        <ele>291.42000000000002</ele>
        <time>2017-10-30T15:36:30Z</time>
      </trkpt>
      <trkpt lat="51.703216005116701" lon="8.950540032237768">
        <ele>291.42000000000002</ele>
        <time>2017-10-30T15:36:31Z</time>
      </trkpt>
      <trkpt lat="51.70327702537179" lon="8.950398964807391">
        <ele>290.94</ele>
        <time>2017-10-30T15:36:32Z</time>
      </trkpt>
      <trkpt lat="51.703623030334711" lon="8.9495989959687">
        <ele>287.56999999999999</ele>
        <time>2017-10-30T15:36:37Z</time>
      </trkpt>
      <trkpt lat="51.703758984804153" lon="8.949284004047513">
        <ele>286.61000000000001</ele>
        <time>2017-10-30T15:36:39Z</time>
      </trkpt>
      <trkpt lat="51.703822016716003" lon="8.949112007394433">
        <ele>286.61000000000001</ele>
        <time>2017-10-30T15:36:40Z</time>
      </trkpt>
      <trkpt lat="51.704256031662226" lon="8.94779303111136">
        <ele>288.05000000000001</ele>
        <time>2017-10-30T15:36:48Z</time>
      </trkpt>
      <trkpt lat="51.704343035817146" lon="8.947527995333076">
        <ele>287.56999999999999</ele>
        <time>2017-10-30T15:36:51Z</time>
      </trkpt>
      <trkpt lat="51.704412018880248" lon="8.947477033361793">
        <ele>288.05000000000001</ele>
        <time>2017-10-30T15:36:52Z</time>
      </trkpt>
      <trkpt lat="51.704478990286589" lon="8.947427999228239">
        <ele>288.05000000000001</ele>
        <time>2017-10-30T15:36:53Z</time>
      </trkpt>
      <trkpt lat="51.70454696752131" lon="8.947377959266305">
        <ele>288.05000000000001</ele>
        <time>2017-10-30T15:36:54Z</time>
      </trkpt>
      <trkpt lat="51.704612011089921" lon="8.947330014780164">
        <ele>288.05000000000001</ele>
        <time>2017-10-30T15:36:55Z</time>
      </trkpt>
      <trkpt lat="51.70467303134501" lon="8.947286009788513">
        <ele>288.05000000000001</ele>
        <time>2017-10-30T15:36:56Z</time>
      </trkpt>
      <trkpt lat="51.704794988036156" lon="8.947195988148451">
        <ele>288.05000000000001</ele>
        <time>2017-10-30T15:36:58Z</time>
      </trkpt>
      <trkpt lat="51.705059017986059" lon="8.947002030909061">
        <ele>289.00999999999999</ele>
        <time>2017-10-30T15:37:02Z</time>
      </trkpt>
      <trkpt lat="51.705135041847825" lon="8.946946039795876">
        <ele>289.00999999999999</ele>
        <time>2017-10-30T15:37:03Z</time>
      </trkpt>
      <trkpt lat="51.706013968214393" lon="8.946336004883051">
        <ele>290.45999999999998</ele>
        <time>2017-10-30T15:37:12Z</time>
      </trkpt>
      <trkpt lat="51.706218989565969" lon="8.946203989908099">
        <ele>290.94</ele>
        <time>2017-10-30T15:37:14Z</time>
      </trkpt>
      <trkpt lat="51.706656021997333" lon="8.945994023233652">
        <ele>289.97000000000003</ele>
        <time>2017-10-30T15:37:19Z</time>
      </trkpt>
      <trkpt lat="51.706723999232054" lon="8.946030987426639">
        <ele>289.49000000000001</ele>
        <time>2017-10-30T15:37:20Z</time>
      </trkpt>
      <trkpt lat="51.706794993951917" lon="8.946069963276386">
        <ele>289.49000000000001</ele>
        <time>2017-10-30T15:37:21Z</time>
      </trkpt>
      <trkpt lat="51.70686699450016" lon="8.946121009066701">
        <ele>289.49000000000001</ele>
        <time>2017-10-30T15:37:22Z</time>
      </trkpt>
      <trkpt lat="51.706937989220023" lon="8.9461849629879">
        <ele>289.49000000000001</ele>
        <time>2017-10-30T15:37:23Z</time>
      </trkpt>
      <trkpt lat="51.707007978111506" lon="8.94624799489975">
        <ele>289.00999999999999</ele>
        <time>2017-10-30T15:37:24Z</time>
      </trkpt>
      <trkpt lat="51.707074027508497" lon="8.946308009326458">
        <ele>288.52999999999997</ele>
        <time>2017-10-30T15:37:25Z</time>
      </trkpt>
      <trkpt lat="51.707143010571599" lon="8.946369029581547">
        <ele>288.05000000000001</ele>
        <time>2017-10-30T15:37:26Z</time>
      </trkpt>
      <trkpt lat="51.707208976149559" lon="8.946428038179874">
        <ele>287.56999999999999</ele>
        <time>2017-10-30T15:37:27Z</time>
      </trkpt>
      <trkpt lat="51.707261027768254" lon="8.946475982666016">
        <ele>287.56999999999999</ele>
        <time>2017-10-30T15:37:28Z</time>
      </trkpt>
      <trkpt lat="51.707329005002975" lon="8.946451004594564">
        <ele>287.56999999999999</ele>
        <time>2017-10-30T15:37:29Z</time>
      </trkpt>
      <trkpt lat="51.7074020113796" lon="8.946423009037972">
        <ele>287.08999999999997</ele>
        <time>2017-10-30T15:37:30Z</time>
      </trkpt>
      <trkpt lat="51.70748901553452" lon="8.94639702513814">
        <ele>286.13</ele>
        <time>2017-10-30T15:37:31Z</time>
      </trkpt>
      <trkpt lat="51.707579037174582" lon="8.946372969076037">
        <ele>285.64999999999998</ele>
        <time>2017-10-30T15:37:32Z</time>
      </trkpt>
      <trkpt lat="51.707666963338852" lon="8.946348996832967">
        <ele>286.13</ele>
        <time>2017-10-30T15:37:33Z</time>
      </trkpt>
      <trkpt lat="51.707756984978914" lon="8.946325024589896">
        <ele>287.08999999999997</ele>
        <time>2017-10-30T15:37:34Z</time>
      </trkpt>
      <trkpt lat="51.707851029932499" lon="8.946299040690064">
        <ele>287.56999999999999</ele>
        <time>2017-10-30T15:37:35Z</time>
      </trkpt>
      <trkpt lat="51.708571035414934" lon="8.946084966883063">
        <ele>289.00999999999999</ele>
        <time>2017-10-30T15:37:42Z</time>
      </trkpt>
      <trkpt lat="51.709525985643268" lon="8.945500999689102">
        <ele>286.61000000000001</ele>
        <time>2017-10-30T15:37:52Z</time>
      </trkpt>
      <trkpt lat="51.709751039743423" lon="8.945330008864403">
        <ele>285.64999999999998</ele>
        <time>2017-10-30T15:37:55Z</time>
      </trkpt>
      <trkpt lat="51.709818011149764" lon="8.945254990831018">
        <ele>285.64999999999998</ele>
        <time>2017-10-30T15:37:56Z</time>
      </trkpt>
      <trkpt lat="51.709882970899343" lon="8.945180978626013">
        <ele>285.17000000000002</ele>
        <time>2017-10-30T15:37:57Z</time>
      </trkpt>
      <trkpt lat="51.710048010572791" lon="8.944987021386623">
        <ele>284.20999999999998</ele>
        <time>2017-10-30T15:38:00Z</time>
      </trkpt>
      <trkpt lat="51.710176002234221" lon="8.944788035005331">
        <ele>283.25</ele>
        <time>2017-10-30T15:38:03Z</time>
      </trkpt>
      <trkpt lat="51.710176002234221" lon="8.944788035005331">
        <ele>282.76999999999998</ele>
        <time>2017-10-30T15:38:04Z</time>
      </trkpt>
      <trkpt lat="51.710236016660929" lon="8.944605980068445">
        <ele>282.76999999999998</ele>
        <time>2017-10-30T15:38:05Z</time>
      </trkpt>
      <trkpt lat="51.710269963368773" lon="8.944337004795671">
        <ele>282.76999999999998</ele>
        <time>2017-10-30T15:38:07Z</time>
      </trkpt>
      <trkpt lat="51.710412036627531" lon="8.94321802072227">
        <ele>282.27999999999997</ele>
        <time>2017-10-30T15:38:14Z</time>
      </trkpt>
      <trkpt lat="51.710480013862252" lon="8.942700019106269">
        <ele>281.80000000000001</ele>
        <time>2017-10-30T15:38:18Z</time>
      </trkpt>
      <trkpt lat="51.710451012477279" lon="8.942585019394755">
        <ele>281.80000000000001</ele>
        <time>2017-10-30T15:38:19Z</time>
      </trkpt>
      <trkpt lat="51.710430979728699" lon="8.942505978047848">
        <ele>281.80000000000001</ele>
        <time>2017-10-30T15:38:20Z</time>
      </trkpt>
      <trkpt lat="51.710416981950402" lon="8.94244696944952">
        <ele>281.80000000000001</ele>
        <time>2017-10-30T15:38:21Z</time>
      </trkpt>
      <trkpt lat="51.71041002497077" lon="8.942331969738007">
        <ele>281.80000000000001</ele>
        <time>2017-10-30T15:38:22Z</time>
      </trkpt>
      <trkpt lat="51.710441038012505" lon="8.942285031080246">
        <ele>281.80000000000001</ele>
        <time>2017-10-30T15:38:23Z</time>
      </trkpt>
      <trkpt lat="51.710483031347394" lon="8.942220993340015">
        <ele>281.80000000000001</ele>
        <time>2017-10-30T15:38:24Z</time>
      </trkpt>
      <trkpt lat="51.710537010803819" lon="8.942139018326998">
        <ele>281.80000000000001</ele>
        <time>2017-10-30T15:38:25Z</time>
      </trkpt>
      <trkpt lat="51.710599958896637" lon="8.942043967545033">
        <ele>281.80000000000001</ele>
        <time>2017-10-30T15:38:26Z</time>
      </trkpt>
      <trkpt lat="51.71066801995039" lon="8.941941037774086">
        <ele>281.80000000000001</ele>
        <time>2017-10-30T15:38:27Z</time>
      </trkpt>
      <trkpt lat="51.711381990462542" lon="8.940863041207194">
        <ele>277.95999999999998</ele>
        <time>2017-10-30T15:38:35Z</time>
      </trkpt>
      <trkpt lat="51.711552981287241" lon="8.940605968236923">
        <ele>276.51999999999998</ele>
        <time>2017-10-30T15:38:37Z</time>
      </trkpt>
      <trkpt lat="51.711649037897587" lon="8.940513012930751">
        <ele>276.51999999999998</ele>
        <time>2017-10-30T15:38:38Z</time>
      </trkpt>
      <trkpt lat="51.711751967668533" lon="8.94042600877583">
        <ele>276.04000000000002</ele>
        <time>2017-10-30T15:38:39Z</time>
      </trkpt>
      <trkpt lat="51.712319003418088" lon="8.939969027414918">
        <ele>276.04000000000002</ele>
        <time>2017-10-30T15:38:45Z</time>
      </trkpt>
      <trkpt lat="51.712385974824429" lon="8.939917981624603">
        <ele>275.56</ele>
        <time>2017-10-30T15:38:46Z</time>
      </trkpt>
      <trkpt lat="51.712454035878181" lon="8.93986701965332">
        <ele>275.06999999999999</ele>
        <time>2017-10-30T15:38:47Z</time>
      </trkpt>
      <trkpt lat="51.71251798979938" lon="8.939797030761838">
        <ele>275.06999999999999</ele>
        <time>2017-10-30T15:38:48Z</time>
      </trkpt>
      <trkpt lat="51.712584961205721" lon="8.939724024385214">
        <ele>274.58999999999997</ele>
        <time>2017-10-30T15:38:49Z</time>
      </trkpt>
      <trkpt lat="51.712656039744616" lon="8.939644983038306">
        <ele>274.11000000000001</ele>
        <time>2017-10-30T15:38:50Z</time>
      </trkpt>
      <trkpt lat="51.712726028636098" lon="8.939536018297076">
        <ele>274.11000000000001</ele>
        <time>2017-10-30T15:38:51Z</time>
      </trkpt>
      <trkpt lat="51.712858965620399" lon="8.939313981682062">
        <ele>273.14999999999998</ele>
        <time>2017-10-30T15:38:53Z</time>
      </trkpt>
      <trkpt lat="51.712923003360629" lon="8.939186995849013">
        <ele>272.67000000000002</ele>
        <time>2017-10-30T15:38:54Z</time>
      </trkpt>
      <trkpt lat="51.712977988645434" lon="8.939056992530823">
        <ele>272.19</ele>
        <time>2017-10-30T15:38:55Z</time>
      </trkpt>
      <trkpt lat="51.713098017498851" lon="8.938773013651371">
        <ele>270.75</ele>
        <time>2017-10-30T15:38:57Z</time>
      </trkpt>
      <trkpt lat="51.71311603859067" lon="8.938683997839689">
        <ele>270.26999999999998</ele>
        <time>2017-10-30T15:38:58Z</time>
      </trkpt>
      <trkpt lat="51.713142022490501" lon="8.938560029491782">
        <ele>269.79000000000002</ele>
        <time>2017-10-30T15:38:59Z</time>
      </trkpt>
      <trkpt lat="51.713372021913528" lon="8.937267037108541">
        <ele>267.38</ele>
        <time>2017-10-30T15:39:08Z</time>
      </trkpt>
      <trkpt lat="51.713511999696493" lon="8.936370005831122">
        <ele>267.86000000000001</ele>
        <time>2017-10-30T15:39:14Z</time>
      </trkpt>
      <trkpt lat="51.713536977767944" lon="8.936227010563016">
        <ele>267.86000000000001</ele>
        <time>2017-10-30T15:39:15Z</time>
      </trkpt>
      <trkpt lat="51.713562039658427" lon="8.936087032780051">
        <ele>267.38</ele>
        <time>2017-10-30T15:39:16Z</time>
      </trkpt>
      <trkpt lat="51.713591041043401" lon="8.935918975621462">
        <ele>266.89999999999998</ele>
        <time>2017-10-30T15:39:17Z</time>
      </trkpt>
      <trkpt lat="51.713614007458091" lon="8.935800958424807">
        <ele>265.94</ele>
        <time>2017-10-30T15:39:18Z</time>
      </trkpt>
      <trkpt lat="51.713751973584294" lon="8.935041977092624">
        <ele>264.01999999999998</ele>
        <time>2017-10-30T15:39:25Z</time>
      </trkpt>
      <trkpt lat="51.71376395970583" lon="8.934966959059238">
        <ele>263.54000000000002</ele>
        <time>2017-10-30T15:39:26Z</time>
      </trkpt>
      <trkpt lat="51.713889017701149" lon="8.934837961569428">
        <ele>263.06</ele>
        <time>2017-10-30T15:39:28Z</time>
      </trkpt>
      <trkpt lat="51.713959006592631" lon="8.934833016246557">
        <ele>263.06</ele>
        <time>2017-10-30T15:39:29Z</time>
      </trkpt>
      <trkpt lat="51.714111976325512" lon="8.934785993769765">
        <ele>262.57999999999998</ele>
        <time>2017-10-30T15:39:31Z</time>
      </trkpt>
      <trkpt lat="51.714190011844039" lon="8.934725979343057">
        <ele>262.57999999999998</ele>
        <time>2017-10-30T15:39:32Z</time>
      </trkpt>
      <trkpt lat="51.714266035705805" lon="8.934658002108336">
        <ele>262.10000000000002</ele>
        <time>2017-10-30T15:39:33Z</time>
      </trkpt>
      <trkpt lat="51.714329989627004" lon="8.934540990740061">
        <ele>262.10000000000002</ele>
        <time>2017-10-30T15:39:34Z</time>
      </trkpt>
      <trkpt lat="51.714399978518486" lon="8.934415010735393">
        <ele>262.10000000000002</ele>
        <time>2017-10-30T15:39:35Z</time>
      </trkpt>
      <trkpt lat="51.71447197906673" lon="8.934284001588821">
        <ele>262.10000000000002</ele>
        <time>2017-10-30T15:39:36Z</time>
      </trkpt>
      <trkpt lat="51.715362975373864" lon="8.932804008945823">
        <ele>264.01999999999998</ele>
        <time>2017-10-30T15:39:48Z</time>
      </trkpt>
      <trkpt lat="51.715455008670688" lon="8.932737037539482">
        <ele>264.01999999999998</ele>
        <time>2017-10-30T15:39:49Z</time>
      </trkpt>
      <trkpt lat="51.716073006391525" lon="8.93232598900795">
        <ele>263.54000000000002</ele>
        <time>2017-10-30T15:39:56Z</time>
      </trkpt>
      <trkpt lat="51.716154981404543" lon="8.932310985401273">
        <ele>263.06</ele>
        <time>2017-10-30T15:39:57Z</time>
      </trkpt>
      <trkpt lat="51.716523030772805" lon="8.932265974581242">
        <ele>258.25</ele>
        <time>2017-10-30T15:40:04Z</time>
      </trkpt>
      <trkpt lat="51.716582039371133" lon="8.93226396292448">
        <ele>257.76999999999998</ele>
        <time>2017-10-30T15:40:05Z</time>
      </trkpt>
      <trkpt lat="51.716658985242248" lon="8.93226102925837">
        <ele>257.76999999999998</ele>
        <time>2017-10-30T15:40:06Z</time>
      </trkpt>
      <trkpt lat="51.717002978548408" lon="8.932249965146184">
        <ele>258.25</ele>
        <time>2017-10-30T15:40:11Z</time>
      </trkpt>
      <trkpt lat="51.717066010460258" lon="8.932229010388255">
        <ele>258.25</ele>
        <time>2017-10-30T15:40:12Z</time>
      </trkpt>
      <trkpt lat="51.717124013230205" lon="8.932171007618308">
        <ele>258.73000000000002</ele>
        <time>2017-10-30T15:40:13Z</time>
      </trkpt>
      <trkpt lat="51.717186039313674" lon="8.932109987363219">
        <ele>258.73000000000002</ele>
        <time>2017-10-30T15:40:14Z</time>
      </trkpt>
      <trkpt lat="51.717232977971435" lon="8.932005967944861">
        <ele>258.73000000000002</ele>
        <time>2017-10-30T15:40:15Z</time>
      </trkpt>
      <trkpt lat="51.717273965477943" lon="8.931900020688772">
        <ele>258.73000000000002</ele>
        <time>2017-10-30T15:40:16Z</time>
      </trkpt>
      <trkpt lat="51.717312019318342" lon="8.931804969906807">
        <ele>259.20999999999998</ele>
        <time>2017-10-30T15:40:17Z</time>
      </trkpt>
      <trkpt lat="51.717344038188457" lon="8.931722994893789">
        <ele>259.69</ele>
        <time>2017-10-30T15:40:18Z</time>
      </trkpt>
      <trkpt lat="51.717431964352727" lon="8.931499030441046">
        <ele>260.64999999999998</ele>
        <time>2017-10-30T15:40:21Z</time>
      </trkpt>
      <trkpt lat="51.717463983222842" lon="8.931385036557913">
        <ele>261.62</ele>
        <time>2017-10-30T15:40:23Z</time>
      </trkpt>
      <trkpt lat="51.717474041506648" lon="8.931348994374275">
        <ele>261.62</ele>
        <time>2017-10-30T15:40:24Z</time>
      </trkpt>
      <trkpt lat="51.717483010143042" lon="8.931317981332541">
        <ele>262.10000000000002</ele>
        <time>2017-10-30T15:40:25Z</time>
      </trkpt>
      <trkpt lat="51.717490972951055" lon="8.931286968290806">
        <ele>262.10000000000002</ele>
        <time>2017-10-30T15:40:26Z</time>
      </trkpt>
      <trkpt lat="51.717502037063241" lon="8.931248998269439">
        <ele>262.57999999999998</ele>
        <time>2017-10-30T15:40:27Z</time>
      </trkpt>
      <trkpt lat="51.717513017356396" lon="8.931211028248072">
        <ele>263.06</ele>
        <time>2017-10-30T15:40:28Z</time>
      </trkpt>
      <trkpt lat="51.717513017356396" lon="8.931211028248072">
        <ele>263.06</ele>
        <time>2017-10-30T15:40:29Z</time>
      </trkpt>
      <trkpt lat="51.717513017356396" lon="8.931211028248072">
        <ele>262.57999999999998</ele>
        <time>2017-10-30T15:40:42Z</time>
      </trkpt>
      <trkpt lat="51.717513017356396" lon="8.931211028248072">
        <ele>261.62</ele>
        <time>2017-10-30T15:40:56Z</time>
      </trkpt>
      <trkpt lat="51.717513017356396" lon="8.931211028248072">
        <ele>261.62</ele>
        <time>2017-10-30T15:41:23Z</time>
      </trkpt>
      <trkpt lat="51.71758996322751" lon="8.931104997172952">
        <ele>273.14999999999998</ele>
        <time>2017-10-30T15:45:26Z</time>
      </trkpt>
      <trkpt lat="51.717613013461232" lon="8.931141961365938">
        <ele>248.63999999999999</ele>
        <time>2017-10-30T15:46:02Z</time>
      </trkpt>
      <trkpt lat="51.717656012624502" lon="8.931026039645076">
        <ele>259.69</ele>
        <time>2017-10-30T15:47:00Z</time>
      </trkpt>
      <trkpt lat="51.717644026502967" lon="8.931014975532889">
        <ele>257.29000000000002</ele>
        <time>2017-10-30T15:47:36Z</time>
      </trkpt>
      <trkpt lat="51.717579988762736" lon="8.930970970541239">
        <ele>258.25</ele>
        <time>2017-10-30T15:47:38Z</time>
      </trkpt>
      <trkpt lat="51.717582000419497" lon="8.930962001904845">
        <ele>263.54000000000002</ele>
        <time>2017-10-30T15:47:39Z</time>
      </trkpt>
      <trkpt lat="51.717643020674586" lon="8.931070966646075">
        <ele>264.5</ele>
        <time>2017-10-30T15:47:40Z</time>
      </trkpt>
      <trkpt lat="51.71763002872467" lon="8.931046994403005">
        <ele>264.98000000000002</ele>
        <time>2017-10-30T15:47:41Z</time>
      </trkpt>
      <trkpt lat="51.717616030946374" lon="8.931022016331554">
        <ele>264.5</ele>
        <time>2017-10-30T15:47:42Z</time>
      </trkpt>
      <trkpt lat="51.717602033168077" lon="8.930997960269451">
        <ele>264.5</ele>
        <time>2017-10-30T15:47:43Z</time>
      </trkpt>
      <trkpt lat="51.717582000419497" lon="8.930962001904845">
        <ele>264.01999999999998</ele>
        <time>2017-10-30T15:47:44Z</time>
      </trkpt>
      <trkpt lat="51.717582000419497" lon="8.930964013561606">
        <ele>263.54000000000002</ele>
        <time>2017-10-30T15:47:45Z</time>
      </trkpt>
      <trkpt lat="51.71756699681282" lon="8.931016987189651">
        <ele>263.06</ele>
        <time>2017-10-30T15:47:46Z</time>
      </trkpt>
      <trkpt lat="51.717548975721002" lon="8.931082030758262">
        <ele>261.62</ele>
        <time>2017-10-30T15:47:47Z</time>
      </trkpt>
      <trkpt lat="51.717526009306312" lon="8.931162999942899">
        <ele>260.17000000000002</ele>
        <time>2017-10-30T15:47:48Z</time>
      </trkpt>
      <trkpt lat="51.717502037063241" lon="8.931250004097819">
        <ele>258.25</ele>
        <time>2017-10-30T15:47:49Z</time>
      </trkpt>
      <trkpt lat="51.717474041506648" lon="8.931350000202656">
        <ele>256.81</ele>
        <time>2017-10-30T15:47:50Z</time>
      </trkpt>
      <trkpt lat="51.717397011816502" lon="8.931587040424347">
        <ele>253.44</ele>
        <time>2017-10-30T15:47:52Z</time>
      </trkpt>
      <trkpt lat="51.717353006824851" lon="8.931700028479099">
        <ele>252</ele>
        <time>2017-10-30T15:47:53Z</time>
      </trkpt>
      <trkpt lat="51.717315036803484" lon="8.931798012927175">
        <ele>250.56</ele>
        <time>2017-10-30T15:47:54Z</time>
      </trkpt>
      <trkpt lat="51.717224009335041" lon="8.932028012350202">
        <ele>247.19999999999999</ele>
        <time>2017-10-30T15:47:57Z</time>
      </trkpt>
      <trkpt lat="51.717184027656913" lon="8.93211199901998">
        <ele>246.22999999999999</ele>
        <time>2017-10-30T15:47:58Z</time>
      </trkpt>
      <trkpt lat="51.717132981866598" lon="8.932162038981915">
        <ele>244.78999999999999</ele>
        <time>2017-10-30T15:47:59Z</time>
      </trkpt>
      <trkpt lat="51.717080008238554" lon="8.932216018438339">
        <ele>243.83000000000001</ele>
        <time>2017-10-30T15:48:00Z</time>
      </trkpt>
      <trkpt lat="51.717000966891646" lon="8.932249965146184">
        <ele>242.87</ele>
        <time>2017-10-30T15:48:01Z</time>
      </trkpt>
      <trkpt lat="51.716925026848912" lon="8.932250970974565">
        <ele>241.91</ele>
        <time>2017-10-30T15:48:02Z</time>
      </trkpt>
      <trkpt lat="51.716843973845243" lon="8.932253988459706">
        <ele>241.43000000000001</ele>
        <time>2017-10-30T15:48:03Z</time>
      </trkpt>
      <trkpt lat="51.716188006103039" lon="8.932305034250021">
        <ele>235.18000000000001</ele>
        <time>2017-10-30T15:48:12Z</time>
      </trkpt>
      <trkpt lat="51.716146012768149" lon="8.932311991229653">
        <ele>235.18000000000001</ele>
        <time>2017-10-30T15:48:13Z</time>
      </trkpt>
      <trkpt lat="51.716112988069654" lon="8.932318026199937">
        <ele>234.69999999999999</ele>
        <time>2017-10-30T15:48:14Z</time>
      </trkpt>
      <trkpt lat="51.716009974479675" lon="8.93226002342999">
        <ele>234.22</ele>
        <time>2017-10-30T15:48:15Z</time>
      </trkpt>
      <trkpt lat="51.716004023328424" lon="8.93217796459794">
        <ele>233.74000000000001</ele>
        <time>2017-10-30T15:48:16Z</time>
      </trkpt>
      <trkpt lat="51.715995976701379" lon="8.93206899985671">
        <ele>233.74000000000001</ele>
        <time>2017-10-30T15:48:17Z</time>
      </trkpt>
      <trkpt lat="51.715987008064985" lon="8.931950982660055">
        <ele>234.22</ele>
        <time>2017-10-30T15:48:18Z</time>
      </trkpt>
      <trkpt lat="51.715973010286689" lon="8.931756019592285">
        <ele>235.18000000000001</ele>
        <time>2017-10-30T15:48:19Z</time>
      </trkpt>
      <trkpt lat="51.715934034436941" lon="8.931697010993958">
        <ele>235.66</ele>
        <time>2017-10-30T15:48:20Z</time>
      </trkpt>
      <trkpt lat="51.715876031666994" lon="8.931612018495798">
        <ele>236.62</ele>
        <time>2017-10-30T15:48:21Z</time>
      </trkpt>
      <trkpt lat="51.715816017240286" lon="8.931526020169258">
        <ele>236.62</ele>
        <time>2017-10-30T15:48:22Z</time>
      </trkpt>
      <trkpt lat="51.715460959821939" lon="8.931090999394655">
        <ele>238.06</ele>
        <time>2017-10-30T15:48:27Z</time>
      </trkpt>
      <trkpt lat="51.715187039226294" lon="8.930652961134911">
        <ele>239.50999999999999</ele>
        <time>2017-10-30T15:48:32Z</time>
      </trkpt>
      <trkpt lat="51.715152002871037" lon="8.930596970021725">
        <ele>239.99000000000001</ele>
        <time>2017-10-30T15:48:33Z</time>
      </trkpt>
      <trkpt lat="51.715129036456347" lon="8.930560005828738">
        <ele>239.99000000000001</ele>
        <time>2017-10-30T15:48:34Z</time>
      </trkpt>
      <trkpt lat="51.715085031464696" lon="8.930395971983671">
        <ele>241.91</ele>
        <time>2017-10-30T15:48:37Z</time>
      </trkpt>
      <trkpt lat="51.715101040899754" lon="8.930304022505879">
        <ele>241.91</ele>
        <time>2017-10-30T15:48:38Z</time>
      </trkpt>
      <trkpt lat="51.715169018134475" lon="8.929928010329604">
        <ele>244.31</ele>
        <time>2017-10-30T15:48:41Z</time>
      </trkpt>
      <trkpt lat="51.715195002034307" lon="8.929784009233117">
        <ele>244.78999999999999</ele>
        <time>2017-10-30T15:48:42Z</time>
      </trkpt>
      <trkpt lat="51.715220985934138" lon="8.929625004529953">
        <ele>245.75</ele>
        <time>2017-10-30T15:48:43Z</time>
      </trkpt>
      <trkpt lat="51.71520103700459" lon="8.92946700565517">
        <ele>246.72</ele>
        <time>2017-10-30T15:48:44Z</time>
      </trkpt>
      <trkpt lat="51.715179998427629" lon="8.929309006780386">
        <ele>247.19999999999999</ele>
        <time>2017-10-30T15:48:45Z</time>
      </trkpt>
      <trkpt lat="51.71515803784132" lon="8.929138015955687">
        <ele>247.68000000000001</ele>
        <time>2017-10-30T15:48:46Z</time>
      </trkpt>
      <trkpt lat="51.715134987607598" lon="8.928419016301632">
        <ele>250.08000000000001</ele>
        <time>2017-10-30T15:48:51Z</time>
      </trkpt>
      <trkpt lat="51.715154014527798" lon="8.928293958306313">
        <ele>250.56</ele>
        <time>2017-10-30T15:48:52Z</time>
      </trkpt>
      <trkpt lat="51.715173041447997" lon="8.928162027150393">
        <ele>251.03999999999999</ele>
        <time>2017-10-30T15:48:53Z</time>
      </trkpt>
      <trkpt lat="51.71520103700459" lon="8.927979972213507">
        <ele>251.52000000000001</ele>
        <time>2017-10-30T15:48:54Z</time>
      </trkpt>
      <trkpt lat="51.71522400341928" lon="8.927891040220857">
        <ele>252</ele>
        <time>2017-10-30T15:48:55Z</time>
      </trkpt>
      <trkpt lat="51.71550496481359" lon="8.926748000085354">
        <ele>252.96000000000001</ele>
        <time>2017-10-30T15:49:02Z</time>
      </trkpt>
      <trkpt lat="51.715662963688374" lon="8.925542011857033">
        <ele>255.84999999999999</ele>
        <time>2017-10-30T15:49:07Z</time>
      </trkpt>
      <trkpt lat="51.715665981173515" lon="8.925325004383922">
        <ele>256.32999999999998</ele>
        <time>2017-10-30T15:49:08Z</time>
      </trkpt>
      <trkpt lat="51.715652989223599" lon="8.925114031881094">
        <ele>256.81</ele>
        <time>2017-10-30T15:49:09Z</time>
      </trkpt>
      <trkpt lat="51.715638991445303" lon="8.924903981387615">
        <ele>257.29000000000002</ele>
        <time>2017-10-30T15:49:10Z</time>
      </trkpt>
      <trkpt lat="51.715619964525104" lon="8.924687979742885">
        <ele>257.76999999999998</ele>
        <time>2017-10-30T15:49:11Z</time>
      </trkpt>
      <trkpt lat="51.715142028406262" lon="8.922210959717631">
        <ele>259.20999999999998</ele>
        <time>2017-10-30T15:49:22Z</time>
      </trkpt>
      <trkpt lat="51.714694015681744" lon="8.92033601179719">
        <ele>258.25</ele>
        <time>2017-10-30T15:49:31Z</time>
      </trkpt>
      <trkpt lat="51.714632995426655" lon="8.920114981010556">
        <ele>257.76999999999998</ele>
        <time>2017-10-30T15:49:32Z</time>
      </trkpt>
      <trkpt lat="51.714586978778243" lon="8.9198640268296">
        <ele>257.76999999999998</ele>
        <time>2017-10-30T15:49:33Z</time>
      </trkpt>
      <trkpt lat="51.714562000706792" lon="8.919592034071684">
        <ele>257.29000000000002</ele>
        <time>2017-10-30T15:49:34Z</time>
      </trkpt>
      <trkpt lat="51.71453601680696" lon="8.919309983029962">
        <ele>257.29000000000002</ele>
        <time>2017-10-30T15:49:35Z</time>
      </trkpt>
      <trkpt lat="51.714509027078748" lon="8.919016029685736">
        <ele>257.29000000000002</ele>
        <time>2017-10-30T15:49:36Z</time>
      </trkpt>
      <trkpt lat="51.714135026559234" lon="8.916046991944313">
        <ele>259.69</ele>
        <time>2017-10-30T15:49:45Z</time>
      </trkpt>
      <trkpt lat="51.713413009420037" lon="8.913029003888369">
        <ele>262.57999999999998</ele>
        <time>2017-10-30T15:49:54Z</time>
      </trkpt>
      <trkpt lat="51.712205009534955" lon="8.909797025844455">
        <ele>259.69</ele>
        <time>2017-10-30T15:50:04Z</time>
      </trkpt>
      <trkpt lat="51.711114021018147" lon="8.908270010724664">
        <ele>257.29000000000002</ele>
        <time>2017-10-30T15:50:10Z</time>
      </trkpt>
      <trkpt lat="51.71023903414607" lon="8.906610980629921">
        <ele>254.41</ele>
        <time>2017-10-30T15:50:16Z</time>
      </trkpt>
      <trkpt lat="51.709215017035604" lon="8.904703008010984">
        <ele>250.56</ele>
        <time>2017-10-30T15:50:22Z</time>
      </trkpt>
      <trkpt lat="51.707450039684772" lon="8.902112999930978">
        <ele>249.59999999999999</ele>
        <time>2017-10-30T15:50:31Z</time>
      </trkpt>
      <trkpt lat="51.707260021939874" lon="8.901950977742672">
        <ele>249.59999999999999</ele>
        <time>2017-10-30T15:50:32Z</time>
      </trkpt>
      <trkpt lat="51.70708098448813" lon="8.901804964989424">
        <ele>249.59999999999999</ele>
        <time>2017-10-30T15:50:33Z</time>
      </trkpt>
      <trkpt lat="51.706888033077121" lon="8.901690971106291">
        <ele>249.59999999999999</ele>
        <time>2017-10-30T15:50:34Z</time>
      </trkpt>
      <trkpt lat="51.706686029210687" lon="8.901572031900287">
        <ele>249.12</ele>
        <time>2017-10-30T15:50:35Z</time>
      </trkpt>
      <trkpt lat="51.70551398769021" lon="8.90069997869432">
        <ele>247.68000000000001</ele>
        <time>2017-10-30T15:50:40Z</time>
      </trkpt>
      <trkpt lat="51.703806007280946" lon="8.899101968854666">
        <ele>248.16</ele>
        <time>2017-10-30T15:50:47Z</time>
      </trkpt>
      <trkpt lat="51.702083023265004" lon="8.897349983453751">
        <ele>247.19999999999999</ele>
        <time>2017-10-30T15:50:54Z</time>
      </trkpt>
      <trkpt lat="51.699115997180343" lon="8.894594013690949">
        <ele>241.91</ele>
        <time>2017-10-30T15:51:06Z</time>
      </trkpt>
      <trkpt lat="51.696425992995501" lon="8.8910529948771">
        <ele>239.02000000000001</ele>
        <time>2017-10-30T15:51:18Z</time>
      </trkpt>
      <trkpt lat="51.695729037746787" lon="8.890049010515213">
        <ele>238.06</ele>
        <time>2017-10-30T15:51:22Z</time>
      </trkpt>
      <trkpt lat="51.695601968094707" lon="8.889771988615394">
        <ele>237.58000000000001</ele>
        <time>2017-10-30T15:51:23Z</time>
      </trkpt>
      <trkpt lat="51.69483301229775" lon="8.887563021853566">
        <ele>237.09999999999999</ele>
        <time>2017-10-30T15:51:29Z</time>
      </trkpt>
      <trkpt lat="51.693656025454402" lon="8.884001970291138">
        <ele>237.09999999999999</ele>
        <time>2017-10-30T15:51:38Z</time>
      </trkpt>
      <trkpt lat="51.692757988348603" lon="8.881175005808473">
        <ele>232.78</ele>
        <time>2017-10-30T15:51:46Z</time>
      </trkpt>
      <trkpt lat="51.692564031109214" lon="8.880730010569096">
        <ele>232.30000000000001</ele>
        <time>2017-10-30T15:51:48Z</time>
      </trkpt>
      <trkpt lat="51.692439978942275" lon="8.880531024187803">
        <ele>232.78</ele>
        <time>2017-10-30T15:51:49Z</time>
      </trkpt>
      <trkpt lat="51.692293966189027" lon="8.880337988957763">
        <ele>232.78</ele>
        <time>2017-10-30T15:51:50Z</time>
      </trkpt>
      <trkpt lat="51.69212800450623" lon="8.880145037546754">
        <ele>232.78</ele>
        <time>2017-10-30T15:51:51Z</time>
      </trkpt>
      <trkpt lat="51.691944021731615" lon="8.879970023408532">
        <ele>232.78</ele>
        <time>2017-10-30T15:51:52Z</time>
      </trkpt>
      <trkpt lat="51.691754003986716" lon="8.879789980128408">
        <ele>232.78</ele>
        <time>2017-10-30T15:51:53Z</time>
      </trkpt>
      <trkpt lat="51.691546970978379" lon="8.879659976810217">
        <ele>232.78</ele>
        <time>2017-10-30T15:51:54Z</time>
      </trkpt>
      <trkpt lat="51.691351002082229" lon="8.87955604121089">
        <ele>232.78</ele>
        <time>2017-10-30T15:51:55Z</time>
      </trkpt>
      <trkpt lat="51.690713977441192" lon="8.879077015444636">
        <ele>232.30000000000001</ele>
        <time>2017-10-30T15:51:59Z</time>
      </trkpt>
      <trkpt lat="51.690594032406807" lon="8.878936031833291">
        <ele>232.30000000000001</ele>
        <time>2017-10-30T15:52:00Z</time>
      </trkpt>
      <trkpt lat="51.690460005775094" lon="8.878777027130127">
        <ele>232.30000000000001</ele>
        <time>2017-10-30T15:52:01Z</time>
      </trkpt>
      <trkpt lat="51.690399991348386" lon="8.878576029092073">
        <ele>231.81</ele>
        <time>2017-10-30T15:52:02Z</time>
      </trkpt>
      <trkpt lat="51.690326984971762" lon="8.878328008577228">
        <ele>231.81</ele>
        <time>2017-10-30T15:52:03Z</time>
      </trkpt>
      <trkpt lat="51.690261019393802" lon="8.878050986677408">
        <ele>231.81</ele>
        <time>2017-10-30T15:52:04Z</time>
      </trkpt>
      <trkpt lat="51.690205028280616" lon="8.877745969220996">
        <ele>231.81</ele>
        <time>2017-10-30T15:52:05Z</time>
      </trkpt>
      <trkpt lat="51.689954996109009" lon="8.875572960823774">
        <ele>231.33000000000001</ele>
        <time>2017-10-30T15:52:11Z</time>
      </trkpt>
      <trkpt lat="51.689864974468946" lon="8.872079970315099">
        <ele>231.33000000000001</ele>
        <time>2017-10-30T15:52:20Z</time>
      </trkpt>
      <trkpt lat="51.689904034137726" lon="8.871789034456015">
        <ele>231.33000000000001</ele>
        <time>2017-10-30T15:52:21Z</time>
      </trkpt>
      <trkpt lat="51.689945021644235" lon="8.871480999514461">
        <ele>231.33000000000001</ele>
        <time>2017-10-30T15:52:22Z</time>
      </trkpt>
      <trkpt lat="51.690158005803823" lon="8.870543986558914">
        <ele>231.81</ele>
        <time>2017-10-30T15:52:25Z</time>
      </trkpt>
      <trkpt lat="51.690176026895642" lon="8.870224971324205">
        <ele>231.81</ele>
        <time>2017-10-30T15:52:26Z</time>
      </trkpt>
      <trkpt lat="51.690193964168429" lon="8.869902016595006">
        <ele>231.81</ele>
        <time>2017-10-30T15:52:27Z</time>
      </trkpt>
      <trkpt lat="51.690191030502319" lon="8.869563974440098">
        <ele>231.33000000000001</ele>
        <time>2017-10-30T15:52:28Z</time>
      </trkpt>
      <trkpt lat="51.690147025510669" lon="8.869216963648796">
        <ele>231.33000000000001</ele>
        <time>2017-10-30T15:52:29Z</time>
      </trkpt>
      <trkpt lat="51.690082987770438" lon="8.868871964514256">
        <ele>230.84999999999999</ele>
        <time>2017-10-30T15:52:30Z</time>
      </trkpt>
      <trkpt lat="51.690017022192478" lon="8.868519002571702">
        <ele>230.37</ele>
        <time>2017-10-30T15:52:31Z</time>
      </trkpt>
      <trkpt lat="51.689774030819535" lon="8.867173036560416">
        <ele>229.41</ele>
        <time>2017-10-30T15:52:35Z</time>
      </trkpt>
      <trkpt lat="51.689781993627548" lon="8.866848992183805">
        <ele>228.93000000000001</ele>
        <time>2017-10-30T15:52:36Z</time>
      </trkpt>
      <trkpt lat="51.689790962263942" lon="8.866507010534406">
        <ele>228.44999999999999</ele>
        <time>2017-10-30T15:52:37Z</time>
      </trkpt>
      <trkpt lat="51.689833961427212" lon="8.866159999743104">
        <ele>227.97</ele>
        <time>2017-10-30T15:52:38Z</time>
      </trkpt>
      <trkpt lat="51.689899004995823" lon="8.865803014487028">
        <ele>227.97</ele>
        <time>2017-10-30T15:52:39Z</time>
      </trkpt>
      <trkpt lat="51.690379958599806" lon="8.863350972533226">
        <ele>231.33000000000001</ele>
        <time>2017-10-30T15:52:46Z</time>
      </trkpt>
      <trkpt lat="51.690477021038532" lon="8.863077973946929">
        <ele>231.81</ele>
        <time>2017-10-30T15:52:47Z</time>
      </trkpt>
      <trkpt lat="51.690587997436523" lon="8.862814027816057">
        <ele>232.30000000000001</ele>
        <time>2017-10-30T15:52:48Z</time>
      </trkpt>
      <trkpt lat="51.690736021846533" lon="8.86258302256465">
        <ele>232.30000000000001</ele>
        <time>2017-10-30T15:52:49Z</time>
      </trkpt>
      <trkpt lat="51.690892009064555" lon="8.862337013706565">
        <ele>232.78</ele>
        <time>2017-10-30T15:52:50Z</time>
      </trkpt>
      <trkpt lat="51.692095985636115" lon="8.860302977263928">
        <ele>234.69999999999999</ele>
        <time>2017-10-30T15:52:57Z</time>
      </trkpt>
      <trkpt lat="51.692865025252104" lon="8.858889034017921">
        <ele>237.09999999999999</ele>
        <time>2017-10-30T15:53:03Z</time>
      </trkpt>
      <trkpt lat="51.69318001717329" lon="8.85820297524333">
        <ele>236.13999999999999</ele>
        <time>2017-10-30T15:53:07Z</time>
      </trkpt>
      <trkpt lat="51.693237014114857" lon="8.858038019388914">
        <ele>235.66</ele>
        <time>2017-10-30T15:53:08Z</time>
      </trkpt>
      <trkpt lat="51.693393001332879" lon="8.857586989179254">
        <ele>232.78</ele>
        <time>2017-10-30T15:53:11Z</time>
      </trkpt>
      <trkpt lat="51.693607997149229" lon="8.856807975098491">
        <ele>229.88999999999999</ele>
        <time>2017-10-30T15:53:16Z</time>
      </trkpt>
      <trkpt lat="51.693607997149229" lon="8.85667403228581">
        <ele>229.88999999999999</ele>
        <time>2017-10-30T15:53:17Z</time>
      </trkpt>
      <trkpt lat="51.693599028512836" lon="8.856508992612362">
        <ele>229.41</ele>
        <time>2017-10-30T15:53:18Z</time>
      </trkpt>
      <trkpt lat="51.693606991320848" lon="8.85631101205945">
        <ele>228.44999999999999</ele>
        <time>2017-10-30T15:53:19Z</time>
      </trkpt>
      <trkpt lat="51.69363297522068" lon="8.856154019013047">
        <ele>227.49000000000001</ele>
        <time>2017-10-30T15:53:20Z</time>
      </trkpt>
      <trkpt lat="51.693687960505486" lon="8.856008006259799">
        <ele>227.00999999999999</ele>
        <time>2017-10-30T15:53:21Z</time>
      </trkpt>
      <trkpt lat="51.693744035437703" lon="8.855869034305215">
        <ele>226.53</ele>
        <time>2017-10-30T15:53:22Z</time>
      </trkpt>
      <trkpt lat="51.693821987137198" lon="8.855738025158644">
        <ele>226.05000000000001</ele>
        <time>2017-10-30T15:53:23Z</time>
      </trkpt>
      <trkpt lat="51.693904967978597" lon="8.855621013790369">
        <ele>225.56999999999999</ele>
        <time>2017-10-30T15:53:24Z</time>
      </trkpt>
      <trkpt lat="51.693991972133517" lon="8.855499979108572">
        <ele>225.09</ele>
        <time>2017-10-30T15:53:25Z</time>
      </trkpt>
      <trkpt lat="51.69416799210012" lon="8.855255981907249">
        <ele>224.12</ele>
        <time>2017-10-30T15:53:27Z</time>
      </trkpt>
      <trkpt lat="51.694894032552838" lon="8.854373032227159">
        <ele>221.24000000000001</ele>
        <time>2017-10-30T15:53:35Z</time>
      </trkpt>
      <trkpt lat="51.694986987859011" lon="8.854273036122322">
        <ele>221.72</ele>
        <time>2017-10-30T15:53:36Z</time>
      </trkpt>
      <trkpt lat="51.695672962814569" lon="8.853586977347732">
        <ele>222.68000000000001</ele>
        <time>2017-10-30T15:53:43Z</time>
      </trkpt>
      <trkpt lat="51.695768013596535" lon="8.853491004556418">
        <ele>222.68000000000001</ele>
        <time>2017-10-30T15:53:44Z</time>
      </trkpt>
      <trkpt lat="51.695848982781172" lon="8.853344991803169">
        <ele>222.68000000000001</ele>
        <time>2017-10-30T15:53:45Z</time>
      </trkpt>
      <trkpt lat="51.695911008864641" lon="8.85319503955543">
        <ele>222.68000000000001</ele>
        <time>2017-10-30T15:53:46Z</time>
      </trkpt>
      <trkpt lat="51.695973034948111" lon="8.853043997660279">
        <ele>222.68000000000001</ele>
        <time>2017-10-30T15:53:47Z</time>
      </trkpt>
      <trkpt lat="51.696033971384168" lon="8.852894967421889">
        <ele>222.19999999999999</ele>
        <time>2017-10-30T15:53:48Z</time>
      </trkpt>
      <trkpt lat="51.696095997467637" lon="8.852745015174151">
        <ele>222.19999999999999</ele>
        <time>2017-10-30T15:53:49Z</time>
      </trkpt>
      <trkpt lat="51.696654986590147" lon="8.850971991196275">
        <ele>222.68000000000001</ele>
        <time>2017-10-30T15:54:00Z</time>
      </trkpt>
      <trkpt lat="51.696713995188475" lon="8.850648030638695">
        <ele>224.12</ele>
        <time>2017-10-30T15:54:02Z</time>
      </trkpt>
      <trkpt lat="51.696727992966771" lon="8.850474022328854">
        <ele>224.61000000000001</ele>
        <time>2017-10-30T15:54:03Z</time>
      </trkpt>
      <trkpt lat="51.696912981569767" lon="8.848639978095889">
        <ele>230.84999999999999</ele>
        <time>2017-10-30T15:54:13Z</time>
      </trkpt>
      <trkpt lat="51.697119008749723" lon="8.847798015922308">
        <ele>234.22</ele>
        <time>2017-10-30T15:54:18Z</time>
      </trkpt>
      <trkpt lat="51.69717600569129" lon="8.847644962370396">
        <ele>235.18000000000001</ele>
        <time>2017-10-30T15:54:19Z</time>
      </trkpt>
      <trkpt lat="51.69750097207725" lon="8.847150010988116">
        <ele>236.62</ele>
        <time>2017-10-30T15:54:23Z</time>
      </trkpt>
      <trkpt lat="51.698317034170032" lon="8.845990039408207">
        <ele>241.43000000000001</ele>
        <time>2017-10-30T15:54:33Z</time>
      </trkpt>
      <trkpt lat="51.698697991669178" lon="8.844750020653009">
        <ele>242.87</ele>
        <time>2017-10-30T15:54:41Z</time>
      </trkpt>
      <trkpt lat="51.69887401163578" lon="8.843879979103804">
        <ele>245.27000000000001</ele>
        <time>2017-10-30T15:54:46Z</time>
      </trkpt>
      <trkpt lat="51.698888009414077" lon="8.843714017421007">
        <ele>245.75</ele>
        <time>2017-10-30T15:54:47Z</time>
      </trkpt>
      <trkpt lat="51.698910975828767" lon="8.84221600368619">
        <ele>252.47999999999999</ele>
        <time>2017-10-30T15:54:55Z</time>
      </trkpt>
      <trkpt lat="51.69885003939271" lon="8.839640999212861">
        <ele>256.32999999999998</ele>
        <time>2017-10-30T15:55:09Z</time>
      </trkpt>
      <trkpt lat="51.698860013857484" lon="8.838197970762849">
        <ele>258.73000000000002</ele>
        <time>2017-10-30T15:55:17Z</time>
      </trkpt>
      <trkpt lat="51.698863031342626" lon="8.838000996038318">
        <ele>258.73000000000002</ele>
        <time>2017-10-30T15:55:18Z</time>
      </trkpt>
      <trkpt lat="51.698868982493877" lon="8.837591959163547">
        <ele>259.20999999999998</ele>
        <time>2017-10-30T15:55:20Z</time>
      </trkpt>
      <trkpt lat="51.698870994150639" lon="8.837373023852706">
        <ele>259.69</ele>
        <time>2017-10-30T15:55:21Z</time>
      </trkpt>
      <trkpt lat="51.698816008865833" lon="8.835081998258829">
        <ele>258.25</ele>
        <time>2017-10-30T15:55:30Z</time>
      </trkpt>
      <trkpt lat="51.698709977790713" lon="8.832077002152801">
        <ele>258.73000000000002</ele>
        <time>2017-10-30T15:55:39Z</time>
      </trkpt>
      <trkpt lat="51.698647029697895" lon="8.828654000535607">
        <ele>254.88999999999999</ele>
        <time>2017-10-30T15:55:48Z</time>
      </trkpt>
      <trkpt lat="51.698741996660829" lon="8.824573019519448">
        <ele>246.22999999999999</ele>
        <time>2017-10-30T15:55:58Z</time>
      </trkpt>
      <trkpt lat="51.699061011895537" lon="8.820890011265874">
        <ele>238.53999999999999</ele>
        <time>2017-10-30T15:56:06Z</time>
      </trkpt>
      <trkpt lat="51.699181040748954" lon="8.817183030769229">
        <ele>233.74000000000001</ele>
        <time>2017-10-30T15:56:14Z</time>
      </trkpt>
      <trkpt lat="51.69913100078702" lon="8.810863997787237">
        <ele>231.33000000000001</ele>
        <time>2017-10-30T15:56:27Z</time>
      </trkpt>
      <trkpt lat="51.699387989938259" lon="8.807509979233146">
        <ele>228.44999999999999</ele>
        <time>2017-10-30T15:56:35Z</time>
      </trkpt>
      <trkpt lat="51.69979996047914" lon="8.80418797954917">
        <ele>223.16</ele>
        <time>2017-10-30T15:56:43Z</time>
      </trkpt>
      <trkpt lat="51.700322991237044" lon="8.802027963101864">
        <ele>216.91</ele>
        <time>2017-10-30T15:56:49Z</time>
      </trkpt>
      <trkpt lat="51.701305015012622" lon="8.799845986068249">
        <ele>210.19</ele>
        <time>2017-10-30T15:56:56Z</time>
      </trkpt>
      <trkpt lat="51.702967984601855" lon="8.796380991116166">
        <ele>200.56999999999999</ele>
        <time>2017-10-30T15:57:08Z</time>
      </trkpt>
      <trkpt lat="51.704574041068554" lon="8.793053040280938">
        <ele>197.69</ele>
        <time>2017-10-30T15:57:20Z</time>
      </trkpt>
      <trkpt lat="51.706116981804371" lon="8.789884010329843">
        <ele>193.84</ele>
        <time>2017-10-30T15:57:31Z</time>
      </trkpt>
      <trkpt lat="51.707079978659749" lon="8.78773002885282">
        <ele>184.71000000000001</ele>
        <time>2017-10-30T15:57:39Z</time>
      </trkpt>
      <trkpt lat="51.70744501054287" lon="8.786749010905623">
        <ele>180.87</ele>
        <time>2017-10-30T15:57:45Z</time>
      </trkpt>
      <trkpt lat="51.707546012476087" lon="8.786425972357392">
        <ele>179.41999999999999</ele>
        <time>2017-10-30T15:57:51Z</time>
      </trkpt>
      <trkpt lat="51.707562021911144" lon="8.78637601621449">
        <ele>178.94</ele>
        <time>2017-10-30T15:57:58Z</time>
      </trkpt>
      <trkpt lat="51.707586999982595" lon="8.786294041201472">
        <ele>178.46000000000001</ele>
        <time>2017-10-30T15:57:59Z</time>
      </trkpt>
      <trkpt lat="51.707829991355538" lon="8.785291984677315">
        <ele>177.5</ele>
        <time>2017-10-30T15:58:05Z</time>
      </trkpt>
      <trkpt lat="51.708314968273044" lon="8.783141020685434">
        <ele>175.09999999999999</ele>
        <time>2017-10-30T15:58:16Z</time>
      </trkpt>
      <trkpt lat="51.708717970177531" lon="8.781326003372669">
        <ele>170.28999999999999</ele>
        <time>2017-10-30T15:58:26Z</time>
      </trkpt>
      <trkpt lat="51.709040002897382" lon="8.780257981270552">
        <ele>166.93000000000001</ele>
        <time>2017-10-30T15:58:34Z</time>
      </trkpt>
      <trkpt lat="51.709067998453975" lon="8.780187992379069">
        <ele>166.44999999999999</ele>
        <time>2017-10-30T15:58:35Z</time>
      </trkpt>
      <trkpt lat="51.709089959040284" lon="8.780130995437503">
        <ele>165.96000000000001</ele>
        <time>2017-10-30T15:58:36Z</time>
      </trkpt>
      <trkpt lat="51.709106974303722" lon="8.780086990445852">
        <ele>165.47999999999999</ele>
        <time>2017-10-30T15:58:37Z</time>
      </trkpt>
      <trkpt lat="51.709116026759148" lon="8.780064024031162">
        <ele>165</ele>
        <time>2017-10-30T15:58:38Z</time>
      </trkpt>
      <trkpt lat="51.709335967898369" lon="8.779986994341016">
        <ele>164.03999999999999</ele>
        <time>2017-10-30T15:58:46Z</time>
      </trkpt>
      <trkpt lat="51.709386007860303" lon="8.780057989060879">
        <ele>164.03999999999999</ele>
        <time>2017-10-30T15:58:47Z</time>
      </trkpt>
      <trkpt lat="51.709452979266644" lon="8.780153039842844">
        <ele>163.56</ele>
        <time>2017-10-30T15:58:48Z</time>
      </trkpt>
      <trkpt lat="51.710093021392822" lon="8.780966000631452">
        <ele>162.59999999999999</ele>
        <time>2017-10-30T15:58:54Z</time>
      </trkpt>
      <trkpt lat="51.711640991270542" lon="8.782176012173295">
        <ele>158.75</ele>
        <time>2017-10-30T15:59:04Z</time>
      </trkpt>
      <trkpt lat="51.713191978633404" lon="8.782579014077783">
        <ele>153.47</ele>
        <time>2017-10-30T15:59:13Z</time>
      </trkpt>
      <trkpt lat="51.714612040668726" lon="8.78214399330318">
        <ele>145.78</ele>
        <time>2017-10-30T15:59:21Z</time>
      </trkpt>
      <trkpt lat="51.715833032503724" lon="8.781274035573006">
        <ele>140.49000000000001</ele>
        <time>2017-10-30T15:59:29Z</time>
      </trkpt>
      <trkpt lat="51.716358996927738" lon="8.780856030061841">
        <ele>139.05000000000001</ele>
        <time>2017-10-30T15:59:35Z</time>
      </trkpt>
      <trkpt lat="51.716400990262628" lon="8.780821999534965">
        <ele>138.56999999999999</ele>
        <time>2017-10-30T15:59:36Z</time>
      </trkpt>
      <trkpt lat="51.716434014961123" lon="8.780795009806752">
        <ele>138.56999999999999</ele>
        <time>2017-10-30T15:59:37Z</time>
      </trkpt>
      <trkpt lat="51.716461004689336" lon="8.780772965401411">
        <ele>138.56999999999999</ele>
        <time>2017-10-30T15:59:38Z</time>
      </trkpt>
      <trkpt lat="51.716507021337748" lon="8.780734995380044">
        <ele>138.09</ele>
        <time>2017-10-30T15:59:48Z</time>
      </trkpt>
      <trkpt lat="51.716740038245916" lon="8.780545983463526">
        <ele>139.53</ele>
        <time>2017-10-30T16:00:04Z</time>
      </trkpt>
      <trkpt lat="51.717444034293294" lon="8.779984982684255">
        <ele>139.05000000000001</ele>
        <time>2017-10-30T16:00:14Z</time>
      </trkpt>
      <trkpt lat="51.717976033687592" lon="8.779649036005139">
        <ele>138.56999999999999</ele>
        <time>2017-10-30T16:00:21Z</time>
      </trkpt>
      <trkpt lat="51.718155993148685" lon="8.7795440107584">
        <ele>138.56999999999999</ele>
        <time>2017-10-30T16:00:27Z</time>
      </trkpt>
      <trkpt lat="51.718155993148685" lon="8.7795440107584">
        <ele>138.56999999999999</ele>
        <time>2017-10-30T16:00:57Z</time>
      </trkpt>
      <trkpt lat="51.718245008960366" lon="8.779491959139705">
        <ele>138.09</ele>
        <time>2017-10-30T16:01:33Z</time>
      </trkpt>
      <trkpt lat="51.718298988416791" lon="8.779461029917002">
        <ele>138.09</ele>
        <time>2017-10-30T16:01:34Z</time>
      </trkpt>
      <trkpt lat="51.718354979529977" lon="8.779428005218506">
        <ele>138.09</ele>
        <time>2017-10-30T16:01:35Z</time>
      </trkpt>
      <trkpt lat="51.718337964266539" lon="8.779256008565426">
        <ele>138.09</ele>
        <time>2017-10-30T16:01:36Z</time>
      </trkpt>
      <trkpt lat="51.718324972316623" lon="8.779131034389138">
        <ele>138.09</ele>
        <time>2017-10-30T16:01:37Z</time>
      </trkpt>
      <trkpt lat="51.718310974538326" lon="8.778990972787142">
        <ele>138.09</ele>
        <time>2017-10-30T16:01:38Z</time>
      </trkpt>
      <trkpt lat="51.718289013952017" lon="8.778832973912358">
        <ele>138.09</ele>
        <time>2017-10-30T16:01:39Z</time>
      </trkpt>
      <trkpt lat="51.718037975952029" lon="8.776802038773894">
        <ele>137.13</ele>
        <time>2017-10-30T16:01:50Z</time>
      </trkpt>
      <trkpt lat="51.717839995399117" lon="8.774671023711562">
        <ele>136.63999999999999</ele>
        <time>2017-10-30T16:02:01Z</time>
      </trkpt>
      <trkpt lat="51.718100002035499" lon="8.772636987268925">
        <ele>134.24000000000001</ele>
        <time>2017-10-30T16:02:11Z</time>
      </trkpt>
      <trkpt lat="51.718624960631132" lon="8.770731026306748">
        <ele>131.36000000000001</ele>
        <time>2017-10-30T16:02:22Z</time>
      </trkpt>
      <trkpt lat="51.719355024397373" lon="8.76781202852726">
        <ele>124.15000000000001</ele>
        <time>2017-10-30T16:02:38Z</time>
      </trkpt>
      <trkpt lat="51.719869002699852" lon="8.765760976821184">
        <ele>118.38</ele>
        <time>2017-10-30T16:02:50Z</time>
      </trkpt>
      <trkpt lat="51.719991965219378" lon="8.76517198048532">
        <ele>115.98</ele>
        <time>2017-10-30T16:02:56Z</time>
      </trkpt>
      <trkpt lat="51.719998000189662" lon="8.765138033777475">
        <ele>116.94</ele>
        <time>2017-10-30T16:03:07Z</time>
      </trkpt>
      <trkpt lat="51.720003029331565" lon="8.765111966058612">
        <ele>116.94</ele>
        <time>2017-10-30T16:03:14Z</time>
      </trkpt>
      <trkpt lat="51.720011997967958" lon="8.765059998258948">
        <ele>116.94</ele>
        <time>2017-10-30T16:03:15Z</time>
      </trkpt>
      <trkpt lat="51.720180977135897" lon="8.764271009713411">
        <ele>118.38</ele>
        <time>2017-10-30T16:03:21Z</time>
      </trkpt>
      <trkpt lat="51.720366971567273" lon="8.762694960460067">
        <ele>119.81999999999999</ele>
        <time>2017-10-30T16:03:30Z</time>
      </trkpt>
      <trkpt lat="51.720430003479123" lon="8.762153992429376">
        <ele>119.34</ele>
        <time>2017-10-30T16:03:36Z</time>
      </trkpt>
      <trkpt lat="51.720437966287136" lon="8.762052990496159">
        <ele>118.38</ele>
        <time>2017-10-30T16:03:47Z</time>
      </trkpt>
      <trkpt lat="51.720452969893813" lon="8.761742021888495">
        <ele>118.38</ele>
        <time>2017-10-30T16:04:10Z</time>
      </trkpt>
      <trkpt lat="51.720454981550574" lon="8.761630961671472">
        <ele>118.38</ele>
        <time>2017-10-30T16:04:11Z</time>
      </trkpt>
      <trkpt lat="51.72042396850884" lon="8.761529037728906">
        <ele>118.38</ele>
        <time>2017-10-30T16:04:12Z</time>
      </trkpt>
      <trkpt lat="51.720121968537569" lon="8.760322965681553">
        <ele>117.90000000000001</ele>
        <time>2017-10-30T16:04:23Z</time>
      </trkpt>
      <trkpt lat="51.719990959390998" lon="8.759905965998769">
        <ele>117.42</ele>
        <time>2017-10-30T16:04:27Z</time>
      </trkpt>
      <trkpt lat="51.719626011326909" lon="8.759074984118342">
        <ele>116.45999999999999</ele>
        <time>2017-10-30T16:04:36Z</time>
      </trkpt>
      <trkpt lat="51.719586029648781" lon="8.758988985791802">
        <ele>116.45999999999999</ele>
        <time>2017-10-30T16:04:37Z</time>
      </trkpt>
      <trkpt lat="51.719508999958634" lon="8.758823024109006">
        <ele>116.45999999999999</ele>
        <time>2017-10-30T16:04:39Z</time>
      </trkpt>
      <trkpt lat="51.719473041594028" lon="8.758744988590479">
        <ele>116.45999999999999</ele>
        <time>2017-10-30T16:04:40Z</time>
      </trkpt>
      <trkpt lat="51.719440016895533" lon="8.758672988042235">
        <ele>115.98</ele>
        <time>2017-10-30T16:04:41Z</time>
      </trkpt>
      <trkpt lat="51.719325017184019" lon="8.758420022204518">
        <ele>115.5</ele>
        <time>2017-10-30T16:04:45Z</time>
      </trkpt>
      <trkpt lat="51.719258967787027" lon="8.758322959765792">
        <ele>115.01000000000001</ele>
        <time>2017-10-30T16:04:46Z</time>
      </trkpt>
      <trkpt lat="51.719175986945629" lon="8.758364031091332">
        <ele>115.01000000000001</ele>
        <time>2017-10-30T16:04:48Z</time>
      </trkpt>
      <trkpt lat="51.719128964468837" lon="8.758388003334403">
        <ele>115.01000000000001</ele>
        <time>2017-10-30T16:04:49Z</time>
      </trkpt>
      <trkpt lat="51.719038020819426" lon="8.758434019982815">
        <ele>115.01000000000001</ele>
        <time>2017-10-30T16:04:51Z</time>
      </trkpt>
      <trkpt lat="51.719001978635788" lon="8.758451035246253">
        <ele>115.01000000000001</ele>
        <time>2017-10-30T16:04:52Z</time>
      </trkpt>
      <trkpt lat="51.718926038593054" lon="8.758365036919713">
        <ele>114.53</ele>
        <time>2017-10-30T16:04:53Z</time>
      </trkpt>
      <trkpt lat="51.718922015279531" lon="8.758300999179483">
        <ele>114.53</ele>
        <time>2017-10-30T16:04:54Z</time>
      </trkpt>
      <trkpt lat="51.718915980309248" lon="8.758222041651607">
        <ele>114.53</ele>
        <time>2017-10-30T16:04:55Z</time>
      </trkpt>
      <trkpt lat="51.718910029157996" lon="8.758135959506035">
        <ele>114.53</ele>
        <time>2017-10-30T16:04:56Z</time>
      </trkpt>
      <trkpt lat="51.718892008066177" lon="8.757862038910389">
        <ele>115.01000000000001</ele>
        <time>2017-10-30T16:04:59Z</time>
      </trkpt>
      <trkpt lat="51.718885973095894" lon="8.757774028927088">
        <ele>115.01000000000001</ele>
        <time>2017-10-30T16:05:00Z</time>
      </trkpt>
      <trkpt lat="51.718859989196062" lon="8.757474962621927">
        <ele>115.5</ele>
        <time>2017-10-30T16:05:04Z</time>
      </trkpt>
      <trkpt lat="51.718848003074527" lon="8.757390975952148">
        <ele>115.5</ele>
        <time>2017-10-30T16:05:05Z</time>
      </trkpt>
      <trkpt lat="51.71883400529623" lon="8.757324004545808">
        <ele>115.5</ele>
        <time>2017-10-30T16:05:06Z</time>
      </trkpt>
      <trkpt lat="51.718626972287893" lon="8.756687985733151">
        <ele>118.86</ele>
        <time>2017-10-30T16:05:15Z</time>
      </trkpt>
      <trkpt lat="51.718580033630133" lon="8.756566029042006">
        <ele>119.34</ele>
        <time>2017-10-30T16:05:17Z</time>
      </trkpt>
      <trkpt lat="51.718556983396411" lon="8.756508026272059">
        <ele>119.34</ele>
        <time>2017-10-30T16:05:18Z</time>
      </trkpt>
      <trkpt lat="51.718456987291574" lon="8.756185993552208">
        <ele>119.34</ele>
        <time>2017-10-30T16:05:27Z</time>
      </trkpt>
      <trkpt lat="51.718411976471543" lon="8.755968986079097">
        <ele>119.34</ele>
        <time>2017-10-30T16:05:37Z</time>
      </trkpt>
      <trkpt lat="51.718411976471543" lon="8.755968986079097">
        <ele>119.34</ele>
        <time>2017-10-30T16:06:05Z</time>
      </trkpt>
      <trkpt lat="51.718411976471543" lon="8.755968986079097">
        <ele>121.26000000000001</ele>
        <time>2017-10-30T16:06:53Z</time>
      </trkpt>
    </trkseg>
  </trk>

  <trk>
    <name>Track vom: 2017-10-30 17:18</name>
    <extensions>
      <gpxx:TrackExtension>
        <gpxx:DisplayColor>DarkGray</gpxx:DisplayColor>
      </gpxx:TrackExtension>
    </extensions>
    <trkseg>
      <trkpt lat="51.718503003939986" lon="8.755938978865743">
        <ele>131.84</ele>
        <time>2017-10-30T16:18:03Z</time>
      </trkpt>
      <trkpt lat="51.718480959534645" lon="8.755929004400969">
        <ele>132.31999999999999</ele>
        <time>2017-10-30T16:18:48Z</time>
      </trkpt>
      <trkpt lat="51.718478025868535" lon="8.755937973037362">
        <ele>132.80000000000001</ele>
        <time>2017-10-30T16:19:30Z</time>
      </trkpt>
      <trkpt lat="51.718381969258189" lon="8.75582599081099">
        <ele>131.84</ele>
        <time>2017-10-30T16:19:37Z</time>
      </trkpt>
      <trkpt lat="51.718376018106937" lon="8.755795983597636">
        <ele>130.88</ele>
        <time>2017-10-30T16:19:38Z</time>
      </trkpt>
      <trkpt lat="51.718371994793415" lon="8.755777040496469">
        <ele>130.40000000000001</ele>
        <time>2017-10-30T16:19:39Z</time>
      </trkpt>
      <trkpt lat="51.718333018943667" lon="8.755589034408331">
        <ele>129.91999999999999</ele>
        <time>2017-10-30T16:19:40Z</time>
      </trkpt>
      <trkpt lat="51.718333018943667" lon="8.755589034408331">
        <ele>129.91999999999999</ele>
        <time>2017-10-30T16:19:41Z</time>
      </trkpt>
      <trkpt lat="51.71831801533699" lon="8.755600014701486">
        <ele>129.91999999999999</ele>
        <time>2017-10-30T16:19:42Z</time>
      </trkpt>
      <trkpt lat="51.718365037813783" lon="8.75573999248445">
        <ele>129.91999999999999</ele>
        <time>2017-10-30T16:19:43Z</time>
      </trkpt>
      <trkpt lat="51.718368977308273" lon="8.75576295889914">
        <ele>129.91999999999999</ele>
        <time>2017-10-30T16:19:44Z</time>
      </trkpt>
      <trkpt lat="51.718375012278557" lon="8.755790032446384">
        <ele>129.91999999999999</ele>
        <time>2017-10-30T16:19:45Z</time>
      </trkpt>
      <trkpt lat="51.718380963429809" lon="8.755818028002977">
        <ele>129.91999999999999</ele>
        <time>2017-10-30T16:19:46Z</time>
      </trkpt>
      <trkpt lat="51.718385992571712" lon="8.755844011902809">
        <ele>129.91999999999999</ele>
        <time>2017-10-30T16:19:47Z</time>
      </trkpt>
      <trkpt lat="51.718391021713614" lon="8.75586798414588">
        <ele>129.91999999999999</ele>
        <time>2017-10-30T16:19:48Z</time>
      </trkpt>
      <trkpt lat="51.718396972864866" lon="8.755895979702473">
        <ele>129.91999999999999</ele>
        <time>2017-10-30T16:19:49Z</time>
      </trkpt>
      <trkpt lat="51.71855203807354" lon="8.756495034322143">
        <ele>129.43000000000001</ele>
        <time>2017-10-30T16:20:01Z</time>
      </trkpt>
      <trkpt lat="51.718783965334296" lon="8.757090987637639">
        <ele>127.51000000000001</ele>
        <time>2017-10-30T16:20:15Z</time>
      </trkpt>
      <trkpt lat="51.718891002237797" lon="8.757850974798203">
        <ele>127.03</ele>
        <time>2017-10-30T16:20:29Z</time>
      </trkpt>
      <trkpt lat="51.71898496337235" lon="8.758460003882647">
        <ele>126.55</ele>
        <time>2017-10-30T16:20:39Z</time>
      </trkpt>
      <trkpt lat="51.719017988070846" lon="8.758442988619208">
        <ele>127.03</ele>
        <time>2017-10-30T16:20:40Z</time>
      </trkpt>
      <trkpt lat="51.719058975577354" lon="8.75842303968966">
        <ele>127.03</ele>
        <time>2017-10-30T16:20:41Z</time>
      </trkpt>
      <trkpt lat="51.719096023589373" lon="8.758405018597841">
        <ele>127.03</ele>
        <time>2017-10-30T16:20:42Z</time>
      </trkpt>
      <trkpt lat="51.719129970297217" lon="8.758388003334403">
        <ele>127.03</ele>
        <time>2017-10-30T16:20:43Z</time>
      </trkpt>
      <trkpt lat="51.719401041045785" lon="8.758215000852943">
        <ele>125.59</ele>
        <time>2017-10-30T16:20:49Z</time>
      </trkpt>
      <trkpt lat="51.720243003219366" lon="8.757541012018919">
        <ele>123.19</ele>
        <time>2017-10-30T16:21:01Z</time>
      </trkpt>
      <trkpt lat="51.720605017617345" lon="8.757291985675693">
        <ele>122.70999999999999</ele>
        <time>2017-10-30T16:21:06Z</time>
      </trkpt>
      <trkpt lat="51.720671989023685" lon="8.75724102370441">
        <ele>123.19</ele>
        <time>2017-10-30T16:21:07Z</time>
      </trkpt>
      <trkpt lat="51.720736026763916" lon="8.757192995399237">
        <ele>123.67</ele>
        <time>2017-10-30T16:21:08Z</time>
      </trkpt>
      <trkpt lat="51.720970971509814" lon="8.757057040929794">
        <ele>125.59</ele>
        <time>2017-10-30T16:21:12Z</time>
      </trkpt>
      <trkpt lat="51.721026040613651" lon="8.757032984867692">
        <ele>126.55</ele>
        <time>2017-10-30T16:21:13Z</time>
      </trkpt>
      <trkpt lat="51.72108898870647" lon="8.75700599513948">
        <ele>127.03</ele>
        <time>2017-10-30T16:21:14Z</time>
      </trkpt>
      <trkpt lat="51.721398029476404" lon="8.756884960457683">
        <ele>129.43000000000001</ele>
        <time>2017-10-30T16:21:19Z</time>
      </trkpt>
      <trkpt lat="51.721444968134165" lon="8.756875991821289">
        <ele>129.91999999999999</ele>
        <time>2017-10-30T16:21:20Z</time>
      </trkpt>
      <trkpt lat="51.721512023359537" lon="8.756902981549501">
        <ele>129.91999999999999</ele>
        <time>2017-10-30T16:21:21Z</time>
      </trkpt>
      <trkpt lat="51.721552005037665" lon="8.756918990984559">
        <ele>129.91999999999999</ele>
        <time>2017-10-30T16:21:22Z</time>
      </trkpt>
      <trkpt lat="51.721611013635993" lon="8.756987974047661">
        <ele>129.91999999999999</ele>
        <time>2017-10-30T16:21:23Z</time>
      </trkpt>
      <trkpt lat="51.721659963950515" lon="8.757046982645989">
        <ele>129.91999999999999</ele>
        <time>2017-10-30T16:21:24Z</time>
      </trkpt>
      <trkpt lat="51.721705980598927" lon="8.757100962102413">
        <ele>129.91999999999999</ele>
        <time>2017-10-30T16:21:25Z</time>
      </trkpt>
      <trkpt lat="51.722114011645317" lon="8.757587028667331">
        <ele>131.36000000000001</ele>
        <time>2017-10-30T16:21:34Z</time>
      </trkpt>
      <trkpt lat="51.722277961671352" lon="8.757774028927088">
        <ele>130.88</ele>
        <time>2017-10-30T16:21:37Z</time>
      </trkpt>
      <trkpt lat="51.722346022725105" lon="8.757842006161809">
        <ele>130.88</ele>
        <time>2017-10-30T16:21:38Z</time>
      </trkpt>
      <trkpt lat="51.722373012453318" lon="8.757874025031924">
        <ele>130.88</ele>
        <time>2017-10-30T16:21:39Z</time>
      </trkpt>
      <trkpt lat="51.722548026591539" lon="8.758088015019894">
        <ele>130.88</ele>
        <time>2017-10-30T16:21:47Z</time>
      </trkpt>
      <trkpt lat="51.722732009366155" lon="8.758313991129398">
        <ele>131.36000000000001</ele>
        <time>2017-10-30T16:21:55Z</time>
      </trkpt>
      <trkpt lat="51.723021017387509" lon="8.758649015799165">
        <ele>129.91999999999999</ele>
        <time>2017-10-30T16:21:59Z</time>
      </trkpt>
      <trkpt lat="51.724221976473927" lon="8.759671021252871">
        <ele>124.63</ele>
        <time>2017-10-30T16:22:12Z</time>
      </trkpt>
      <trkpt lat="51.724391961470246" lon="8.759815022349358">
        <ele>124.15000000000001</ele>
        <time>2017-10-30T16:22:14Z</time>
      </trkpt>
      <trkpt lat="51.724457005038857" lon="8.759871013462544">
        <ele>124.15000000000001</ele>
        <time>2017-10-30T16:22:15Z</time>
      </trkpt>
      <trkpt lat="51.724739978089929" lon="8.760111993178725">
        <ele>122.70999999999999</ele>
        <time>2017-10-30T16:22:23Z</time>
      </trkpt>
      <trkpt lat="51.724739978089929" lon="8.760111993178725">
        <ele>122.22</ele>
        <time>2017-10-30T16:22:34Z</time>
      </trkpt>
      <trkpt lat="51.724917003884912" lon="8.760263035073876">
        <ele>121.73999999999999</ele>
        <time>2017-10-30T16:22:58Z</time>
      </trkpt>
      <trkpt lat="51.72586097382009" lon="8.760943980887532">
        <ele>121.73999999999999</ele>
        <time>2017-10-30T16:23:07Z</time>
      </trkpt>
      <trkpt lat="51.726821037009358" lon="8.761576982215047">
        <ele>121.26000000000001</ele>
        <time>2017-10-30T16:23:17Z</time>
      </trkpt>
      <trkpt lat="51.727623017504811" lon="8.762101018801332">
        <ele>119.81999999999999</ele>
        <time>2017-10-30T16:23:28Z</time>
      </trkpt>
      <trkpt lat="51.728031970560551" lon="8.762367982417345">
        <ele>119.81999999999999</ele>
        <time>2017-10-30T16:23:37Z</time>
      </trkpt>
      <trkpt lat="51.728364983573556" lon="8.762584989890456">
        <ele>120.78</ele>
        <time>2017-10-30T16:23:46Z</time>
      </trkpt>
      <trkpt lat="51.729298979043961" lon="8.7631940189749">
        <ele>119.81999999999999</ele>
        <time>2017-10-30T16:23:58Z</time>
      </trkpt>
      <trkpt lat="51.730308998376131" lon="8.763878988102078">
        <ele>120.3</ele>
        <time>2017-10-30T16:24:08Z</time>
      </trkpt>
      <trkpt lat="51.731020035222173" lon="8.764367988333106">
        <ele>119.34</ele>
        <time>2017-10-30T16:24:16Z</time>
      </trkpt>
      <trkpt lat="51.732022007927299" lon="8.765086987987161">
        <ele>118.86</ele>
        <time>2017-10-30T16:24:25Z</time>
      </trkpt>
      <trkpt lat="51.732553001493216" lon="8.765457971021533">
        <ele>119.34</ele>
        <time>2017-10-30T16:24:31Z</time>
      </trkpt>
      <trkpt lat="51.732621984556317" lon="8.765508010983467">
        <ele>119.34</ele>
        <time>2017-10-30T16:24:38Z</time>
      </trkpt>
      <trkpt lat="51.732743019238114" lon="8.765593003481627">
        <ele>119.34</ele>
        <time>2017-10-30T16:25:22Z</time>
      </trkpt>
      <trkpt lat="51.733451960608363" lon="8.766012014821172">
        <ele>119.34</ele>
        <time>2017-10-30T16:25:28Z</time>
      </trkpt>
      <trkpt lat="51.734512019902468" lon="8.766681980341673">
        <ele>119.34</ele>
        <time>2017-10-30T16:25:36Z</time>
      </trkpt>
      <trkpt lat="51.736088991165161" lon="8.767713960260153">
        <ele>118.86</ele>
        <time>2017-10-30T16:25:51Z</time>
      </trkpt>
      <trkpt lat="51.737090041860938" lon="8.768403036519885">
        <ele>119.81999999999999</ele>
        <time>2017-10-30T16:26:01Z</time>
      </trkpt>
      <trkpt lat="51.737152989953756" lon="8.768445029854775">
        <ele>119.81999999999999</ele>
        <time>2017-10-30T16:26:02Z</time>
      </trkpt>
      <trkpt lat="51.737299002707005" lon="8.76854301430285">
        <ele>121.26000000000001</ele>
        <time>2017-10-30T16:26:09Z</time>
      </trkpt>
      <trkpt lat="51.737519027665257" lon="8.768691038712859">
        <ele>122.22</ele>
        <time>2017-10-30T16:26:17Z</time>
      </trkpt>
      <trkpt lat="51.738283960148692" lon="8.769191019237042">
        <ele>121.73999999999999</ele>
        <time>2017-10-30T16:26:26Z</time>
      </trkpt>
      <trkpt lat="51.738873962312937" lon="8.769548004493117">
        <ele>122.22</ele>
        <time>2017-10-30T16:26:34Z</time>
      </trkpt>
      <trkpt lat="51.739478968083858" lon="8.769916975870729">
        <ele>122.70999999999999</ele>
        <time>2017-10-30T16:26:39Z</time>
      </trkpt>
      <trkpt lat="51.74094102345407" lon="8.770880978554487">
        <ele>121.26000000000001</ele>
        <time>2017-10-30T16:26:49Z</time>
      </trkpt>
      <trkpt lat="51.742224963381886" lon="8.771716989576817">
        <ele>121.73999999999999</ele>
        <time>2017-10-30T16:27:00Z</time>
      </trkpt>
      <trkpt lat="51.742328982800245" lon="8.771785972639918">
        <ele>121.26000000000001</ele>
        <time>2017-10-30T16:27:01Z</time>
      </trkpt>
      <trkpt lat="51.74369397573173" lon="8.772695995867252">
        <ele>120.78</ele>
        <time>2017-10-30T16:27:14Z</time>
      </trkpt>
      <trkpt lat="51.745050000026822" lon="8.773598978295922">
        <ele>121.73999999999999</ele>
        <time>2017-10-30T16:27:26Z</time>
      </trkpt>
      <trkpt lat="51.746341986581683" lon="8.774444041773677">
        <ele>123.19</ele>
        <time>2017-10-30T16:27:34Z</time>
      </trkpt>
      <trkpt lat="51.747971009463072" lon="8.775551039725542">
        <ele>126.06999999999999</ele>
        <time>2017-10-30T16:27:44Z</time>
      </trkpt>
      <trkpt lat="51.749001983553171" lon="8.776250006631017">
        <ele>126.55</ele>
        <time>2017-10-30T16:27:53Z</time>
      </trkpt>
      <trkpt lat="51.749274982139468" lon="8.776436001062393">
        <ele>125.11</ele>
        <time>2017-10-30T16:27:59Z</time>
      </trkpt>
      <trkpt lat="51.749483020976186" lon="8.776576984673739">
        <ele>124.63</ele>
        <time>2017-10-30T16:28:07Z</time>
      </trkpt>
      <trkpt lat="51.749929022043943" lon="8.77687999047339">
        <ele>125.59</ele>
        <time>2017-10-30T16:28:14Z</time>
      </trkpt>
      <trkpt lat="51.74998702481389" lon="8.776918966323137">
        <ele>125.59</ele>
        <time>2017-10-30T16:28:21Z</time>
      </trkpt>
      <trkpt lat="51.74998702481389" lon="8.776918966323137">
        <ele>126.06999999999999</ele>
        <time>2017-10-30T16:29:06Z</time>
      </trkpt>
      <trkpt lat="51.750133959576488" lon="8.777006976306438">
        <ele>126.55</ele>
        <time>2017-10-30T16:29:46Z</time>
      </trkpt>
      <trkpt lat="51.750194979831576" lon="8.777041006833315">
        <ele>126.55</ele>
        <time>2017-10-30T16:29:47Z</time>
      </trkpt>
      <trkpt lat="51.750253988429904" lon="8.77707302570343">
        <ele>126.55</ele>
        <time>2017-10-30T16:29:48Z</time>
      </trkpt>
      <trkpt lat="51.750315008684993" lon="8.777001025155187">
        <ele>126.55</ele>
        <time>2017-10-30T16:29:49Z</time>
      </trkpt>
      <trkpt lat="51.750344010069966" lon="8.776921983808279">
        <ele>126.55</ele>
        <time>2017-10-30T16:29:50Z</time>
      </trkpt>
      <trkpt lat="51.750381980091333" lon="8.77681503072381">
        <ele>126.55</ele>
        <time>2017-10-30T16:29:51Z</time>
      </trkpt>
      <trkpt lat="51.750447023659945" lon="8.77668502740562">
        <ele>126.55</ele>
        <time>2017-10-30T16:29:52Z</time>
      </trkpt>
      <trkpt lat="51.750512989237905" lon="8.776562986895442">
        <ele>126.55</ele>
        <time>2017-10-30T16:29:53Z</time>
      </trkpt>
      <trkpt lat="51.750626983121037" lon="8.776448993012309">
        <ele>126.55</ele>
        <time>2017-10-30T16:29:54Z</time>
      </trkpt>
      <trkpt lat="51.750724967569113" lon="8.776380009949207">
        <ele>126.55</ele>
        <time>2017-10-30T16:29:55Z</time>
      </trkpt>
      <trkpt lat="51.751858033239841" lon="8.77531198784709">
        <ele>125.59</ele>
        <time>2017-10-30T16:30:06Z</time>
      </trkpt>
      <trkpt lat="51.75299696624279" lon="8.773862002417445">
        <ele>127.03</ele>
        <time>2017-10-30T16:30:18Z</time>
      </trkpt>
      <trkpt lat="51.75316502340138" lon="8.773646000772715">
        <ele>127.03</ele>
        <time>2017-10-30T16:30:23Z</time>
      </trkpt>
      <trkpt lat="51.753267031162977" lon="8.773517003282905">
        <ele>127.03</ele>
        <time>2017-10-30T16:30:28Z</time>
      </trkpt>
      <trkpt lat="51.753311036154628" lon="8.77346302382648">
        <ele>127.03</ele>
        <time>2017-10-30T16:30:29Z</time>
      </trkpt>
      <trkpt lat="51.753364009782672" lon="8.773397980257869">
        <ele>127.03</ele>
        <time>2017-10-30T16:30:30Z</time>
      </trkpt>
      <trkpt lat="51.753427041694522" lon="8.773321034386754">
        <ele>127.03</ele>
        <time>2017-10-30T16:30:31Z</time>
      </trkpt>
      <trkpt lat="51.753495018929243" lon="8.773236963897944">
        <ele>127.03</ele>
        <time>2017-10-30T16:30:32Z</time>
      </trkpt>
      <trkpt lat="51.753567019477487" lon="8.773149037733674">
        <ele>127.03</ele>
        <time>2017-10-30T16:30:33Z</time>
      </trkpt>
      <trkpt lat="51.754373023286462" lon="8.772126026451588">
        <ele>127.03</ele>
        <time>2017-10-30T16:30:43Z</time>
      </trkpt>
      <trkpt lat="51.754768984392285" lon="8.771607019007206">
        <ele>127.03</ele>
        <time>2017-10-30T16:30:49Z</time>
      </trkpt>
      <trkpt lat="51.754824975505471" lon="8.771532000973821">
        <ele>127.03</ele>
        <time>2017-10-30T16:30:50Z</time>
      </trkpt>
      <trkpt lat="51.754879038780928" lon="8.771462012082338">
        <ele>127.03</ele>
        <time>2017-10-30T16:30:51Z</time>
      </trkpt>
      <trkpt lat="51.754936035722494" lon="8.771386994048953">
        <ele>127.03</ele>
        <time>2017-10-30T16:30:52Z</time>
      </trkpt>
      <trkpt lat="51.754999989643693" lon="8.771303007379174">
        <ele>127.03</ele>
        <time>2017-10-30T16:30:53Z</time>
      </trkpt>
      <trkpt lat="51.755067966878414" lon="8.771212985739112">
        <ele>126.55</ele>
        <time>2017-10-30T16:30:54Z</time>
      </trkpt>
      <trkpt lat="51.755675990134478" lon="8.770427014678717">
        <ele>126.06999999999999</ele>
        <time>2017-10-30T16:31:02Z</time>
      </trkpt>
      <trkpt lat="51.756403036415577" lon="8.769227983430028">
        <ele>123.67</ele>
        <time>2017-10-30T16:31:14Z</time>
      </trkpt>
      <trkpt lat="51.757490001618862" lon="8.767661992460489">
        <ele>123.19</ele>
        <time>2017-10-30T16:31:27Z</time>
      </trkpt>
      <trkpt lat="51.758317966014147" lon="8.766526998952031">
        <ele>127.03</ele>
        <time>2017-10-30T16:31:37Z</time>
      </trkpt>
      <trkpt lat="51.758394995704293" lon="8.766510989516974">
        <ele>127.03</ele>
        <time>2017-10-30T16:31:38Z</time>
      </trkpt>
      <trkpt lat="51.758439000695944" lon="8.766510989516974">
        <ele>127.51000000000001</ele>
        <time>2017-10-30T16:31:39Z</time>
      </trkpt>
      <trkpt lat="51.758500020951033" lon="8.766534039750695">
        <ele>127.98999999999999</ele>
        <time>2017-10-30T16:31:40Z</time>
      </trkpt>
      <trkpt lat="51.758554000407457" lon="8.766602016985416">
        <ele>127.98999999999999</ele>
        <time>2017-10-30T16:31:41Z</time>
      </trkpt>
      <trkpt lat="51.758610997349024" lon="8.766721040010452">
        <ele>128.47</ele>
        <time>2017-10-30T16:31:42Z</time>
      </trkpt>
      <trkpt lat="51.758672017604113" lon="8.766864035278559">
        <ele>128.47</ele>
        <time>2017-10-30T16:31:43Z</time>
      </trkpt>
      <trkpt lat="51.758737983182073" lon="8.76701801083982">
        <ele>128.47</ele>
        <time>2017-10-30T16:31:44Z</time>
      </trkpt>
      <trkpt lat="51.758828004822135" lon="8.767142985016108">
        <ele>128.47</ele>
        <time>2017-10-30T16:31:45Z</time>
      </trkpt>
      <trkpt lat="51.758917020633817" lon="8.767240969464183">
        <ele>127.98999999999999</ele>
        <time>2017-10-30T16:31:46Z</time>
      </trkpt>
      <trkpt lat="51.759018022567034" lon="8.767305007204413">
        <ele>127.98999999999999</ele>
        <time>2017-10-30T16:31:47Z</time>
      </trkpt>
      <trkpt lat="51.759115001186728" lon="8.767305007204413">
        <ele>127.51000000000001</ele>
        <time>2017-10-30T16:31:48Z</time>
      </trkpt>
      <trkpt lat="51.759189013391733" lon="8.767305007204413">
        <ele>126.55</ele>
        <time>2017-10-30T16:31:49Z</time>
      </trkpt>
      <trkpt lat="51.759303007274866" lon="8.767215991392732">
        <ele>126.06999999999999</ele>
        <time>2017-10-30T16:31:50Z</time>
      </trkpt>
      <trkpt lat="51.7593979742378" lon="8.767137033864856">
        <ele>125.59</ele>
        <time>2017-10-30T16:31:51Z</time>
      </trkpt>
      <trkpt lat="51.75959100946784" lon="8.766931006684899">
        <ele>124.15000000000001</ele>
        <time>2017-10-30T16:31:53Z</time>
      </trkpt>
      <trkpt lat="51.759736016392708" lon="8.766808966174722">
        <ele>124.15000000000001</ele>
        <time>2017-10-30T16:31:54Z</time>
      </trkpt>
      <trkpt lat="51.759854033589363" lon="8.766799997538328">
        <ele>124.15000000000001</ele>
        <time>2017-10-30T16:31:55Z</time>
      </trkpt>
      <trkpt lat="51.760034998878837" lon="8.766865963116288">
        <ele>123.67</ele>
        <time>2017-10-30T16:31:56Z</time>
      </trkpt>
      <trkpt lat="51.760116973891854" lon="8.766984986141324">
        <ele>123.67</ele>
        <time>2017-10-30T16:31:57Z</time>
      </trkpt>
      <trkpt lat="51.760218981653452" lon="8.767133010551333">
        <ele>123.67</ele>
        <time>2017-10-30T16:31:58Z</time>
      </trkpt>
      <trkpt lat="51.76032098941505" lon="8.767263013869524">
        <ele>123.67</ele>
        <time>2017-10-30T16:31:59Z</time>
      </trkpt>
      <trkpt lat="51.761362021788955" lon="8.768487023189664">
        <ele>125.11</ele>
        <time>2017-10-30T16:32:06Z</time>
      </trkpt>
      <trkpt lat="51.763341994956136" lon="8.770358031615615">
        <ele>127.03</ele>
        <time>2017-10-30T16:32:16Z</time>
      </trkpt>
      <trkpt lat="51.765496982261539" lon="8.77193701453507">
        <ele>127.98999999999999</ele>
        <time>2017-10-30T16:32:26Z</time>
      </trkpt>
      <trkpt lat="51.768546989187598" lon="8.773591015487909">
        <ele>130.88</ele>
        <time>2017-10-30T16:32:40Z</time>
      </trkpt>
      <trkpt lat="51.770930970087647" lon="8.774656020104885">
        <ele>130.88</ele>
        <time>2017-10-30T16:32:51Z</time>
      </trkpt>
      <trkpt lat="51.77396597340703" lon="8.775952029973269">
        <ele>131.84</ele>
        <time>2017-10-30T16:33:05Z</time>
      </trkpt>
      <trkpt lat="51.776288012042642" lon="8.777246028184891">
        <ele>133.28</ele>
        <time>2017-10-30T16:33:16Z</time>
      </trkpt>
      <trkpt lat="51.778061036020517" lon="8.778631975874305">
        <ele>132.80000000000001</ele>
        <time>2017-10-30T16:33:24Z</time>
      </trkpt>
      <trkpt lat="51.779899019747972" lon="8.780831973999739">
        <ele>130.40000000000001</ele>
        <time>2017-10-30T16:33:33Z</time>
      </trkpt>
      <trkpt lat="51.781315980479121" lon="8.783345958217979">
        <ele>130.88</ele>
        <time>2017-10-30T16:33:41Z</time>
      </trkpt>
      <trkpt lat="51.783588984981179" lon="8.788337968289852">
        <ele>132.31999999999999</ele>
        <time>2017-10-30T16:33:54Z</time>
      </trkpt>
      <trkpt lat="51.785166962072253" lon="8.791260989382863">
        <ele>136.16</ele>
        <time>2017-10-30T16:34:02Z</time>
      </trkpt>
      <trkpt lat="51.787292025983334" lon="8.794381991028786">
        <ele>138.56999999999999</ele>
        <time>2017-10-30T16:34:12Z</time>
      </trkpt>
      <trkpt lat="51.789426980540156" lon="8.796835038810968">
        <ele>141.93000000000001</ele>
        <time>2017-10-30T16:34:22Z</time>
      </trkpt>
      <trkpt lat="51.791921015828848" lon="8.799220025539398">
        <ele>144.34</ele>
        <time>2017-10-30T16:34:35Z</time>
      </trkpt>
      <trkpt lat="51.794358976185322" lon="8.801314998418093">
        <ele>145.78</ele>
        <time>2017-10-30T16:34:48Z</time>
      </trkpt>
      <trkpt lat="51.796915037557483" lon="8.803504016250372">
        <ele>146.74000000000001</ele>
        <time>2017-10-30T16:35:01Z</time>
      </trkpt>
      <trkpt lat="51.799499010667205" lon="8.805775009095669">
        <ele>146.74000000000001</ele>
        <time>2017-10-30T16:35:14Z</time>
      </trkpt>
      <trkpt lat="51.801867987960577" lon="8.808180028572679">
        <ele>149.62</ele>
        <time>2017-10-30T16:35:26Z</time>
      </trkpt>
      <trkpt lat="51.803953992202878" lon="8.810652019456029">
        <ele>153.94999999999999</ele>
        <time>2017-10-30T16:35:36Z</time>
      </trkpt>
      <trkpt lat="51.806418020278215" lon="8.814079966396093">
        <ele>156.34999999999999</ele>
        <time>2017-10-30T16:35:46Z</time>
      </trkpt>
      <trkpt lat="51.808443004265428" lon="8.817643029615283">
        <ele>159.24000000000001</ele>
        <time>2017-10-30T16:35:55Z</time>
      </trkpt>
      <trkpt lat="51.810414008796215" lon="8.821189999580383">
        <ele>160.68000000000001</ele>
        <time>2017-10-30T16:36:04Z</time>
      </trkpt>
      <trkpt lat="51.812574025243521" lon="8.824265990406275">
        <ele>163.56</ele>
        <time>2017-10-30T16:36:13Z</time>
      </trkpt>
      <trkpt lat="51.814161976799369" lon="8.826265996322036">
        <ele>165.96000000000001</ele>
        <time>2017-10-30T16:36:20Z</time>
      </trkpt>
      <trkpt lat="51.816300032660365" lon="8.829236039891839">
        <ele>168.37</ele>
        <time>2017-10-30T16:36:31Z</time>
      </trkpt>
      <trkpt lat="51.817835010588169" lon="8.832171969115734">
        <ele>169.81</ele>
        <time>2017-10-30T16:36:40Z</time>
      </trkpt>
      <trkpt lat="51.818732041865587" lon="8.834604984149337">
        <ele>172.21000000000001</ele>
        <time>2017-10-30T16:36:48Z</time>
      </trkpt>
      <trkpt lat="51.819543996825814" lon="8.837624983862042">
        <ele>176.06</ele>
        <time>2017-10-30T16:36:58Z</time>
      </trkpt>
      <trkpt lat="51.819968959316611" lon="8.839847026392818">
        <ele>179.41999999999999</ele>
        <time>2017-10-30T16:37:06Z</time>
      </trkpt>
      <trkpt lat="51.820382019504905" lon="8.842981019988656">
        <ele>184.22999999999999</ele>
        <time>2017-10-30T16:37:17Z</time>
      </trkpt>
      <trkpt lat="51.820689970627427" lon="8.846047958359122">
        <ele>190</ele>
        <time>2017-10-30T16:37:28Z</time>
      </trkpt>
      <trkpt lat="51.820944026112556" lon="8.849080028012395">
        <ele>194.31999999999999</ele>
        <time>2017-10-30T16:37:37Z</time>
      </trkpt>
      <trkpt lat="51.821250971406698" lon="8.852494983002543">
        <ele>199.61000000000001</ele>
        <time>2017-10-30T16:37:47Z</time>
      </trkpt>
      <trkpt lat="51.821517013013363" lon="8.854789026081562">
        <ele>202.49000000000001</ele>
        <time>2017-10-30T16:37:52Z</time>
      </trkpt>
      <trkpt lat="51.822441034018993" lon="8.860462987795472">
        <ele>212.59</ele>
        <time>2017-10-30T16:38:03Z</time>
      </trkpt>
      <trkpt lat="51.823634030297399" lon="8.865487016737461">
        <ele>224.61000000000001</ele>
        <time>2017-10-30T16:38:13Z</time>
      </trkpt>
      <trkpt lat="51.824880000203848" lon="8.869447968900204">
        <ele>234.22</ele>
        <time>2017-10-30T16:38:22Z</time>
      </trkpt>
      <trkpt lat="51.826638020575047" lon="8.874039994552732">
        <ele>245.27000000000001</ele>
        <time>2017-10-30T16:38:33Z</time>
      </trkpt>
      <trkpt lat="51.828097980469465" lon="8.877612026408315">
        <ele>252.47999999999999</ele>
        <time>2017-10-30T16:38:42Z</time>
      </trkpt>
      <trkpt lat="51.829860024154186" lon="8.882037000730634">
        <ele>252.47999999999999</ele>
        <time>2017-10-30T16:38:53Z</time>
      </trkpt>
      <trkpt lat="51.83094103820622" lon="8.885154984891415">
        <ele>249.12</ele>
        <time>2017-10-30T16:39:01Z</time>
      </trkpt>
      <trkpt lat="51.831741007044911" lon="8.888886021450162">
        <ele>243.83000000000001</ele>
        <time>2017-10-30T16:39:09Z</time>
      </trkpt>
      <trkpt lat="51.832475010305643" lon="8.893937040120363">
        <ele>243.83000000000001</ele>
        <time>2017-10-30T16:39:19Z</time>
      </trkpt>
      <trkpt lat="51.833228040486574" lon="8.896457981318235">
        <ele>248.16</ele>
        <time>2017-10-30T16:39:25Z</time>
      </trkpt>
      <trkpt lat="51.834263959899545" lon="8.89807702973485">
        <ele>252.47999999999999</ele>
        <time>2017-10-30T16:39:30Z</time>
      </trkpt>
      <trkpt lat="51.836047964170575" lon="8.899811999872327">
        <ele>259.20999999999998</ele>
        <time>2017-10-30T16:39:37Z</time>
      </trkpt>
      <trkpt lat="51.836812980473042" lon="8.90095504000783">
        <ele>263.06</ele>
        <time>2017-10-30T16:39:41Z</time>
      </trkpt>
      <trkpt lat="51.837672963738441" lon="8.903322005644441">
        <ele>268.35000000000002</ele>
        <time>2017-10-30T16:39:47Z</time>
      </trkpt>
      <trkpt lat="51.838938966393471" lon="8.907611025497317">
        <ele>277</ele>
        <time>2017-10-30T16:39:56Z</time>
      </trkpt>
      <trkpt lat="51.839600969105959" lon="8.909684037789702">
        <ele>280.83999999999997</ele>
        <time>2017-10-30T16:40:01Z</time>
      </trkpt>
      <trkpt lat="51.840586010366678" lon="8.91144298017025">
        <ele>285.17000000000002</ele>
        <time>2017-10-30T16:40:07Z</time>
      </trkpt>
      <trkpt lat="51.841441970318556" lon="8.912164997309446">
        <ele>287.56999999999999</ele>
        <time>2017-10-30T16:40:11Z</time>
      </trkpt>
      <trkpt lat="51.84286898933351" lon="8.912461968138814">
        <ele>291.89999999999998</ele>
        <time>2017-10-30T16:40:17Z</time>
      </trkpt>
      <trkpt lat="51.843112986534834" lon="8.912423998117447">
        <ele>292.86000000000001</ele>
        <time>2017-10-30T16:40:18Z</time>
      </trkpt>
      <trkpt lat="51.843352960422635" lon="8.912349985912442">
        <ele>293.33999999999997</ele>
        <time>2017-10-30T16:40:19Z</time>
      </trkpt>
      <trkpt lat="51.843582037836313" lon="8.912223000079393">
        <ele>294.30000000000001</ele>
        <time>2017-10-30T16:40:20Z</time>
      </trkpt>
      <trkpt lat="51.84381103143096" lon="8.912097020074725">
        <ele>295.25999999999999</ele>
        <time>2017-10-30T16:40:21Z</time>
      </trkpt>
      <trkpt lat="51.844042958691716" lon="8.911969028413296">
        <ele>295.74000000000001</ele>
        <time>2017-10-30T16:40:22Z</time>
      </trkpt>
      <trkpt lat="51.844260971993208" lon="8.911781022325158">
        <ele>296.69999999999999</ele>
        <time>2017-10-30T16:40:23Z</time>
      </trkpt>
      <trkpt lat="51.8444789852947" lon="8.911581030115485">
        <ele>297.67000000000002</ele>
        <time>2017-10-30T16:40:24Z</time>
      </trkpt>
      <trkpt lat="51.846173973754048" lon="8.910117968916893">
        <ele>303.91000000000003</ele>
        <time>2017-10-30T16:40:32Z</time>
      </trkpt>
      <trkpt lat="51.846387041732669" lon="8.910038005560637">
        <ele>304.88</ele>
        <time>2017-10-30T16:40:33Z</time>
      </trkpt>
      <trkpt lat="51.846804963424802" lon="8.909989977255464">
        <ele>305.83999999999997</ele>
        <time>2017-10-30T16:40:35Z</time>
      </trkpt>
      <trkpt lat="51.847007973119617" lon="8.909984026104212">
        <ele>306.31999999999999</ele>
        <time>2017-10-30T16:40:36Z</time>
      </trkpt>
      <trkpt lat="51.847215006127954" lon="8.910025013610721">
        <ele>306.80000000000001</ele>
        <time>2017-10-30T16:40:37Z</time>
      </trkpt>
      <trkpt lat="51.847417009994388" lon="8.910070024430752">
        <ele>307.75999999999999</ele>
        <time>2017-10-30T16:40:38Z</time>
      </trkpt>
      <trkpt lat="51.84761599637568" lon="8.910170020535588">
        <ele>308.24000000000001</ele>
        <time>2017-10-30T16:40:39Z</time>
      </trkpt>
      <trkpt lat="51.84778799302876" lon="8.910256018862128">
        <ele>309.19999999999999</ele>
        <time>2017-10-30T16:40:40Z</time>
      </trkpt>
      <trkpt lat="51.847988991066813" lon="8.910440001636744">
        <ele>309.68000000000001</ele>
        <time>2017-10-30T16:40:41Z</time>
      </trkpt>
      <trkpt lat="51.848171968013048" lon="8.910607974976301">
        <ele>310.63999999999999</ele>
        <time>2017-10-30T16:40:42Z</time>
      </trkpt>
      <trkpt lat="51.848345976322889" lon="8.910786006599665">
        <ele>311.12</ele>
        <time>2017-10-30T16:40:43Z</time>
      </trkpt>
      <trkpt lat="51.848509004339576" lon="8.911003014072776">
        <ele>312.08999999999997</ele>
        <time>2017-10-30T16:40:44Z</time>
      </trkpt>
      <trkpt lat="51.848671026527882" lon="8.911219015717506">
        <ele>312.56999999999999</ele>
        <time>2017-10-30T16:40:45Z</time>
      </trkpt>
      <trkpt lat="51.848816033452749" lon="8.911461001262069">
        <ele>313.52999999999997</ele>
        <time>2017-10-30T16:40:46Z</time>
      </trkpt>
      <trkpt lat="51.848951987922192" lon="8.911733999848366">
        <ele>314.49000000000001</ele>
        <time>2017-10-30T16:40:47Z</time>
      </trkpt>
      <trkpt lat="51.849092971533537" lon="8.912027031183243">
        <ele>314.97000000000003</ele>
        <time>2017-10-30T16:40:48Z</time>
      </trkpt>
      <trkpt lat="51.850136015564203" lon="8.914593989029527">
        <ele>321.69999999999999</ele>
        <time>2017-10-30T16:40:55Z</time>
      </trkpt>
      <trkpt lat="51.851103035733104" lon="8.91709397546947">
        <ele>327.94999999999999</ele>
        <time>2017-10-30T16:41:02Z</time>
      </trkpt>
      <trkpt lat="51.851514000445604" lon="8.917768970131874">
        <ele>329.38999999999999</ele>
        <time>2017-10-30T16:41:05Z</time>
      </trkpt>
      <trkpt lat="51.851641992107034" lon="8.917974997311831">
        <ele>329.38999999999999</ele>
        <time>2017-10-30T16:41:06Z</time>
      </trkpt>
      <trkpt lat="51.851782975718379" lon="8.918150011450052">
        <ele>329.38999999999999</ele>
        <time>2017-10-30T16:41:07Z</time>
      </trkpt>
      <trkpt lat="51.851938962936401" lon="8.918272973969579">
        <ele>329.87</ele>
        <time>2017-10-30T16:41:08Z</time>
      </trkpt>
      <trkpt lat="51.852095033973455" lon="8.918376993387938">
        <ele>329.38999999999999</ele>
        <time>2017-10-30T16:41:09Z</time>
      </trkpt>
      <trkpt lat="51.852249009534717" lon="8.918480006977916">
        <ele>329.38999999999999</ele>
        <time>2017-10-30T16:41:10Z</time>
      </trkpt>
      <trkpt lat="51.852776985615492" lon="8.918638005852699">
        <ele>327.94999999999999</ele>
        <time>2017-10-30T16:41:13Z</time>
      </trkpt>
      <trkpt lat="51.854237029328942" lon="8.919096998870373">
        <ele>319.77999999999997</ele>
        <time>2017-10-30T16:41:20Z</time>
      </trkpt>
      <trkpt lat="51.855290969833732" lon="8.919925969094038">
        <ele>313.05000000000001</ele>
        <time>2017-10-30T16:41:25Z</time>
      </trkpt>
      <trkpt lat="51.856356980279088" lon="8.921574018895626">
        <ele>304.88</ele>
        <time>2017-10-30T16:41:31Z</time>
      </trkpt>
      <trkpt lat="51.857417039573193" lon="8.924167966470122">
        <ele>295.25999999999999</ele>
        <time>2017-10-30T16:41:38Z</time>
      </trkpt>
      <trkpt lat="51.858630990609527" lon="8.926662001758814">
        <ele>284.69</ele>
        <time>2017-10-30T16:41:45Z</time>
      </trkpt>
      <trkpt lat="51.860146019607782" lon="8.929907977581024">
        <ele>269.31</ele>
        <time>2017-10-30T16:41:54Z</time>
      </trkpt>
      <trkpt lat="51.861007008701563" lon="8.932705018669367">
        <ele>262.10000000000002</ele>
        <time>2017-10-30T16:42:02Z</time>
      </trkpt>
      <trkpt lat="51.861500032246113" lon="8.935556039214134">
        <ele>258.25</ele>
        <time>2017-10-30T16:42:09Z</time>
      </trkpt>
      <trkpt lat="51.861684015020728" lon="8.939261008054018">
        <ele>254.88999999999999</ele>
        <time>2017-10-30T16:42:17Z</time>
      </trkpt>
      <trkpt lat="51.861557029187679" lon="8.942885007709265">
        <ele>252.47999999999999</ele>
        <time>2017-10-30T16:42:25Z</time>
      </trkpt>
      <trkpt lat="51.861415039747953" lon="8.945331014692783">
        <ele>250.08000000000001</ele>
        <time>2017-10-30T16:42:32Z</time>
      </trkpt>
      <trkpt lat="51.861420990899205" lon="8.94790199585259">
        <ele>247.68000000000001</ele>
        <time>2017-10-30T16:42:38Z</time>
      </trkpt>
      <trkpt lat="51.861790968105197" lon="8.950978992506862">
        <ele>243.83000000000001</ele>
        <time>2017-10-30T16:42:45Z</time>
      </trkpt>
      <trkpt lat="51.862658997997642" lon="8.95432798191905">
        <ele>237.58000000000001</ele>
        <time>2017-10-30T16:42:53Z</time>
      </trkpt>
      <trkpt lat="51.864012004807591" lon="8.957320991903544">
        <ele>231.81</ele>
        <time>2017-10-30T16:43:01Z</time>
      </trkpt>
      <trkpt lat="51.865600040182471" lon="8.959712013602257">
        <ele>229.41</ele>
        <time>2017-10-30T16:43:08Z</time>
      </trkpt>
      <trkpt lat="51.868322985246778" lon="8.963416982442141">
        <ele>225.09</ele>
        <time>2017-10-30T16:43:19Z</time>
      </trkpt>
      <trkpt lat="51.870152000337839" lon="8.966695982962847">
        <ele>225.56999999999999</ele>
        <time>2017-10-30T16:43:28Z</time>
      </trkpt>
      <trkpt lat="51.871065963059664" lon="8.968964964151382">
        <ele>226.05000000000001</ele>
        <time>2017-10-30T16:43:34Z</time>
      </trkpt>
      <trkpt lat="51.872420981526375" lon="8.973134038969874">
        <ele>222.68000000000001</ele>
        <time>2017-10-30T16:43:45Z</time>
      </trkpt>
      <trkpt lat="51.873668963089585" lon="8.976116990670562">
        <ele>218.84</ele>
        <time>2017-10-30T16:43:53Z</time>
      </trkpt>
      <trkpt lat="51.875409968197346" lon="8.978651007637382">
        <ele>213.55000000000001</ele>
        <time>2017-10-30T16:44:01Z</time>
      </trkpt>
      <trkpt lat="51.87777902930975" lon="8.980914037674666">
        <ele>206.34</ele>
        <time>2017-10-30T16:44:10Z</time>
      </trkpt>
      <trkpt lat="51.879947008565068" lon="8.982812035828829">
        <ele>199.13</ele>
        <time>2017-10-30T16:44:18Z</time>
      </trkpt>
      <trkpt lat="51.882199980318546" lon="8.985411012545228">
        <ele>191.91999999999999</ele>
        <time>2017-10-30T16:44:27Z</time>
      </trkpt>
      <trkpt lat="51.883872002363205" lon="8.988382983952761">
        <ele>186.15000000000001</ele>
        <time>2017-10-30T16:44:35Z</time>
      </trkpt>
      <trkpt lat="51.885067010298371" lon="8.99194504134357">
        <ele>180.87</ele>
        <time>2017-10-30T16:44:43Z</time>
      </trkpt>
      <trkpt lat="51.885864967480302" lon="8.995295036584139">
        <ele>177.5</ele>
        <time>2017-10-30T16:44:51Z</time>
      </trkpt>
      <trkpt lat="51.886766022071242" lon="8.998448979109526">
        <ele>178.46000000000001</ele>
        <time>2017-10-30T16:44:59Z</time>
      </trkpt>
      <trkpt lat="51.887933034449816" lon="9.001398989930749">
        <ele>181.34999999999999</ele>
        <time>2017-10-30T16:45:07Z</time>
      </trkpt>
      <trkpt lat="51.88949198462069" lon="9.004191001877189">
        <ele>186.63</ele>
        <time>2017-10-30T16:45:14Z</time>
      </trkpt>
      <trkpt lat="51.891693994402885" lon="9.007013021036983">
        <ele>193.84</ele>
        <time>2017-10-30T16:45:22Z</time>
      </trkpt>
      <trkpt lat="51.893770024180412" lon="9.008787972852588">
        <ele>201.05000000000001</ele>
        <time>2017-10-30T16:45:29Z</time>
      </trkpt>
      <trkpt lat="51.89582702703774" lon="9.009860018268228">
        <ele>206.34</ele>
        <time>2017-10-30T16:45:36Z</time>
      </trkpt>
      <trkpt lat="51.897598961368203" lon="9.010441973805428">
        <ele>211.63</ele>
        <time>2017-10-30T16:45:43Z</time>
      </trkpt>
      <trkpt lat="51.89907300285995" lon="9.010585974901915">
        <ele>217.88</ele>
        <time>2017-10-30T16:45:50Z</time>
      </trkpt>
      <trkpt lat="51.901020035147667" lon="9.01044599711895">
        <ele>224.61000000000001</ele>
        <time>2017-10-30T16:45:57Z</time>
      </trkpt>
      <trkpt lat="51.903726970776916" lon="9.009491968899965">
        <ele>232.78</ele>
        <time>2017-10-30T16:46:06Z</time>
      </trkpt>
      <trkpt lat="51.906383028253913" lon="9.007946010679007">
        <ele>242.87</ele>
        <time>2017-10-30T16:46:15Z</time>
      </trkpt>
      <trkpt lat="51.908368030562997" lon="9.007314015179873">
        <ele>247.68000000000001</ele>
        <time>2017-10-30T16:46:22Z</time>
      </trkpt>
      <trkpt lat="51.910063019022346" lon="9.007706036791205">
        <ele>249.12</ele>
        <time>2017-10-30T16:46:28Z</time>
      </trkpt>
      <trkpt lat="51.911530019715428" lon="9.008841030299664">
        <ele>243.83000000000001</ele>
        <time>2017-10-30T16:46:34Z</time>
      </trkpt>
      <trkpt lat="51.912707006558776" lon="9.010635009035468">
        <ele>233.74000000000001</ele>
        <time>2017-10-30T16:46:41Z</time>
      </trkpt>
      <trkpt lat="51.913477974012494" lon="9.012731993570924">
        <ele>225.56999999999999</ele>
        <time>2017-10-30T16:46:47Z</time>
      </trkpt>
      <trkpt lat="51.914124973118305" lon="9.015805972740054">
        <ele>214.03</ele>
        <time>2017-10-30T16:46:54Z</time>
      </trkpt>
      <trkpt lat="51.915232976898551" lon="9.020195994526148">
        <ele>198.16999999999999</ele>
        <time>2017-10-30T16:47:04Z</time>
      </trkpt>
      <trkpt lat="51.91583395935595" lon="9.022249979898334">
        <ele>189.52000000000001</ele>
        <time>2017-10-30T16:47:10Z</time>
      </trkpt>
      <trkpt lat="51.91649504005909" lon="9.024748960509896">
        <ele>182.31</ele>
        <time>2017-10-30T16:47:19Z</time>
      </trkpt>
      <trkpt lat="51.917107002809644" lon="9.027511971071363">
        <ele>180.38</ele>
        <time>2017-10-30T16:47:29Z</time>
      </trkpt>
      <trkpt lat="51.917842011898756" lon="9.028961034491658">
        <ele>177.5</ele>
        <time>2017-10-30T16:47:36Z</time>
      </trkpt>
      <trkpt lat="51.91883803345263" lon="9.030602965503931">
        <ele>174.13999999999999</ele>
        <time>2017-10-30T16:47:47Z</time>
      </trkpt>
      <trkpt lat="51.919256960973144" lon="9.031294975429773">
        <ele>173.16999999999999</ele>
        <time>2017-10-30T16:47:52Z</time>
      </trkpt>
      <trkpt lat="51.919387970119715" lon="9.031526986509562">
        <ele>173.16999999999999</ele>
        <time>2017-10-30T16:47:55Z</time>
      </trkpt>
      <trkpt lat="51.919460976496339" lon="9.031472001224756">
        <ele>173.16999999999999</ele>
        <time>2017-10-30T16:47:56Z</time>
      </trkpt>
      <trkpt lat="51.919517973437905" lon="9.031420033425093">
        <ele>173.16999999999999</ele>
        <time>2017-10-30T16:47:57Z</time>
      </trkpt>
      <trkpt lat="51.919772028923035" lon="9.031322970986366">
        <ele>171.72999999999999</ele>
        <time>2017-10-30T16:48:00Z</time>
      </trkpt>
      <trkpt lat="51.919880993664265" lon="9.031310984864831">
        <ele>171.72999999999999</ele>
        <time>2017-10-30T16:48:01Z</time>
      </trkpt>
      <trkpt lat="51.920909034088254" lon="9.03139497153461">
        <ele>173.66</ele>
        <time>2017-10-30T16:48:08Z</time>
      </trkpt>
      <trkpt lat="51.922742994502187" lon="9.031659001484513">
        <ele>171.25</ele>
        <time>2017-10-30T16:48:18Z</time>
      </trkpt>
      <trkpt lat="51.924499003216624" lon="9.032070972025394">
        <ele>156.83000000000001</ele>
        <time>2017-10-30T16:48:26Z</time>
      </trkpt>
      <trkpt lat="51.925354963168502" lon="9.031893024221063">
        <ele>151.53999999999999</ele>
        <time>2017-10-30T16:48:31Z</time>
      </trkpt>
      <trkpt lat="51.925492007285357" lon="9.031834015622735">
        <ele>151.06</ele>
        <time>2017-10-30T16:48:32Z</time>
      </trkpt>
      <trkpt lat="51.926035992801189" lon="9.031381979584694">
        <ele>148.18000000000001</ele>
        <time>2017-10-30T16:48:37Z</time>
      </trkpt>
      <trkpt lat="51.926124002784491" lon="9.031277960166335">
        <ele>147.69999999999999</ele>
        <time>2017-10-30T16:48:38Z</time>
      </trkpt>
      <trkpt lat="51.926210001111031" lon="9.031175030395389">
        <ele>147.69999999999999</ele>
        <time>2017-10-30T16:48:39Z</time>
      </trkpt>
      <trkpt lat="51.927201999351382" lon="9.02960903942585">
        <ele>147.22</ele>
        <time>2017-10-30T16:48:51Z</time>
      </trkpt>
      <trkpt lat="51.927407020702958" lon="9.029160020872951">
        <ele>147.22</ele>
        <time>2017-10-30T16:48:54Z</time>
      </trkpt>
      <trkpt lat="51.927462005987763" lon="9.028992969542742">
        <ele>147.22</ele>
        <time>2017-10-30T16:48:55Z</time>
      </trkpt>
      <trkpt lat="51.927731987088919" lon="9.027809025719762">
        <ele>146.74000000000001</ele>
        <time>2017-10-30T16:49:02Z</time>
      </trkpt>
      <trkpt lat="51.927795019000769" lon="9.027654966339469">
        <ele>146.74000000000001</ele>
        <time>2017-10-30T16:49:03Z</time>
      </trkpt>
      <trkpt lat="51.927870037034154" lon="9.027522029355168">
        <ele>147.22</ele>
        <time>2017-10-30T16:49:04Z</time>
      </trkpt>
      <trkpt lat="51.928037004545331" lon="9.027280965819955">
        <ele>147.69999999999999</ele>
        <time>2017-10-30T16:49:06Z</time>
      </trkpt>
      <trkpt lat="51.928132977336645" lon="9.027177030220628">
        <ele>147.69999999999999</ele>
        <time>2017-10-30T16:49:07Z</time>
      </trkpt>
      <trkpt lat="51.92822802811861" lon="9.027078961953521">
        <ele>147.69999999999999</ele>
        <time>2017-10-30T16:49:08Z</time>
      </trkpt>
      <trkpt lat="51.928741000592709" lon="9.026790037751198">
        <ele>148.66</ele>
        <time>2017-10-30T16:49:12Z</time>
      </trkpt>
      <trkpt lat="51.92889497615397" lon="9.026745026931167">
        <ele>148.66</ele>
        <time>2017-10-30T16:49:13Z</time>
      </trkpt>
      <trkpt lat="51.929064961150289" lon="9.026705967262387">
        <ele>148.66</ele>
        <time>2017-10-30T16:49:14Z</time>
      </trkpt>
      <trkpt lat="51.930588036775589" lon="9.02668702416122">
        <ele>145.78</ele>
        <time>2017-10-30T16:49:21Z</time>
      </trkpt>
      <trkpt lat="51.932507995516062" lon="9.02666799724102">
        <ele>143.84999999999999</ele>
        <time>2017-10-30T16:49:29Z</time>
      </trkpt>
      <trkpt lat="51.933248033747077" lon="9.026618041098118">
        <ele>143.37</ele>
        <time>2017-10-30T16:49:33Z</time>
      </trkpt>
      <trkpt lat="51.933426987379789" lon="9.026577975600958">
        <ele>143.37</ele>
        <time>2017-10-30T16:49:34Z</time>
      </trkpt>
      <trkpt lat="51.933596972376108" lon="9.026499018073082">
        <ele>143.37</ele>
        <time>2017-10-30T16:49:35Z</time>
      </trkpt>
      <trkpt lat="51.933755977079272" lon="9.026401033625007">
        <ele>143.37</ele>
        <time>2017-10-30T16:49:36Z</time>
      </trkpt>
      <trkpt lat="51.933898972347379" lon="9.026270024478436">
        <ele>143.37</ele>
        <time>2017-10-30T16:49:37Z</time>
      </trkpt>
      <trkpt lat="51.934040039777756" lon="9.026141026988626">
        <ele>143.37</ele>
        <time>2017-10-30T16:49:38Z</time>
      </trkpt>
      <trkpt lat="51.934182029217482" lon="9.026011023670435">
        <ele>143.84999999999999</ele>
        <time>2017-10-30T16:49:39Z</time>
      </trkpt>
      <trkpt lat="51.934313960373402" lon="9.025843972340226">
        <ele>143.84999999999999</ele>
        <time>2017-10-30T16:49:40Z</time>
      </trkpt>
      <trkpt lat="51.934998007491231" lon="9.024910982698202">
        <ele>146.74000000000001</ele>
        <time>2017-10-30T16:49:45Z</time>
      </trkpt>
      <trkpt lat="51.935163969174027" lon="9.024728005751967">
        <ele>147.69999999999999</ele>
        <time>2017-10-30T16:49:46Z</time>
      </trkpt>
      <trkpt lat="51.935334037989378" lon="9.02453999966383">
        <ele>149.13999999999999</ele>
        <time>2017-10-30T16:49:47Z</time>
      </trkpt>
      <trkpt lat="51.935522966086864" lon="9.02443396858871">
        <ele>150.09999999999999</ele>
        <time>2017-10-30T16:49:48Z</time>
      </trkpt>
      <trkpt lat="51.935706026852131" lon="9.024331038817763">
        <ele>151.06</ele>
        <time>2017-10-30T16:49:49Z</time>
      </trkpt>
      <trkpt lat="51.935878023505211" lon="9.024237999692559">
        <ele>151.53999999999999</ele>
        <time>2017-10-30T16:49:50Z</time>
      </trkpt>
      <trkpt lat="51.936044991016388" lon="9.024203969165683">
        <ele>152.50999999999999</ele>
        <time>2017-10-30T16:49:51Z</time>
      </trkpt>
      <trkpt lat="51.937134973704815" lon="9.02413297444582">
        <ele>155.87</ele>
        <time>2017-10-30T16:49:59Z</time>
      </trkpt>
      <trkpt lat="51.938553024083376" lon="9.023833991959691">
        <ele>157.31</ele>
        <time>2017-10-30T16:50:11Z</time>
      </trkpt>
      <trkpt lat="51.939775021746755" lon="9.023426966741681">
        <ele>156.34999999999999</ele>
        <time>2017-10-30T16:50:22Z</time>
      </trkpt>
      <trkpt lat="51.940230997279286" lon="9.023327976465225">
        <ele>157.78999999999999</ele>
        <time>2017-10-30T16:50:27Z</time>
      </trkpt>
      <trkpt lat="51.940425038337708" lon="9.023381033912301">
        <ele>159.24000000000001</ele>
        <time>2017-10-30T16:50:33Z</time>
      </trkpt>
      <trkpt lat="51.940429983660579" lon="9.023457979783416">
        <ele>159.72</ele>
        <time>2017-10-30T16:50:34Z</time>
      </trkpt>
      <trkpt lat="51.940437024459243" lon="9.023579014465213">
        <ele>160.19999999999999</ele>
        <time>2017-10-30T16:50:35Z</time>
      </trkpt>
      <trkpt lat="51.940444987267256" lon="9.023728966712952">
        <ele>160.19999999999999</ele>
        <time>2017-10-30T16:50:36Z</time>
      </trkpt>
      <trkpt lat="51.94045496173203" lon="9.023900041356683">
        <ele>160.68000000000001</ele>
        <time>2017-10-30T16:50:37Z</time>
      </trkpt>
      <trkpt lat="51.940526040270925" lon="9.02488499879837">
        <ele>161.63999999999999</ele>
        <time>2017-10-30T16:50:42Z</time>
      </trkpt>
      <trkpt lat="51.940954020246863" lon="9.0266880299896">
        <ele>164.52000000000001</ele>
        <time>2017-10-30T16:50:52Z</time>
      </trkpt>
      <trkpt lat="51.941810986027122" lon="9.028990035876632">
        <ele>166.44999999999999</ele>
        <time>2017-10-30T16:51:06Z</time>
      </trkpt>
      <trkpt lat="51.942423032596707" lon="9.030630039051175">
        <ele>165</ele>
        <time>2017-10-30T16:51:16Z</time>
      </trkpt>
      <trkpt lat="51.942483969032764" lon="9.03079398907721">
        <ele>165.47999999999999</ele>
        <time>2017-10-30T16:51:17Z</time>
      </trkpt>
      <trkpt lat="51.942543983459473" lon="9.030957017093897">
        <ele>165.96000000000001</ele>
        <time>2017-10-30T16:51:18Z</time>
      </trkpt>
      <trkpt lat="51.942605003714561" lon="9.031123984605074">
        <ele>165.96000000000001</ele>
        <time>2017-10-30T16:51:19Z</time>
      </trkpt>
      <trkpt lat="51.942669041454792" lon="9.031296987086535">
        <ele>165.96000000000001</ele>
        <time>2017-10-30T16:51:20Z</time>
      </trkpt>
      <trkpt lat="51.943496000021696" lon="9.033204037696123">
        <ele>168.37</ele>
        <time>2017-10-30T16:51:30Z</time>
      </trkpt>
      <trkpt lat="51.944676004350185" lon="9.03513397090137">
        <ele>171.25</ele>
        <time>2017-10-30T16:51:39Z</time>
      </trkpt>
      <trkpt lat="51.945769004523754" lon="9.037084020674229">
        <ele>169.33000000000001</ele>
        <time>2017-10-30T16:51:47Z</time>
      </trkpt>
      <trkpt lat="51.946237972006202" lon="9.038701979443431">
        <ele>164.03999999999999</ele>
        <time>2017-10-30T16:51:54Z</time>
      </trkpt>
      <trkpt lat="51.946700988337398" lon="9.041044972836971">
        <ele>158.75</ele>
        <time>2017-10-30T16:52:05Z</time>
      </trkpt>
      <trkpt lat="51.947237011045218" lon="9.043414033949375">
        <ele>152.99000000000001</ele>
        <time>2017-10-30T16:52:17Z</time>
      </trkpt>
      <trkpt lat="51.947484025731683" lon="9.044030020013452">
        <ele>152.99000000000001</ele>
        <time>2017-10-30T16:52:21Z</time>
      </trkpt>
      <trkpt lat="51.948306038975716" lon="9.045310020446777">
        <ele>151.06</ele>
        <time>2017-10-30T16:52:31Z</time>
      </trkpt>
      <trkpt lat="51.949011040851474" lon="9.046277040615678">
        <ele>150.58000000000001</ele>
        <time>2017-10-30T16:52:39Z</time>
      </trkpt>
      <trkpt lat="51.949073988944292" lon="9.046427998691797">
        <ele>150.58000000000001</ele>
        <time>2017-10-30T16:52:40Z</time>
      </trkpt>
      <trkpt lat="51.949136015027761" lon="9.046577028930187">
        <ele>150.58000000000001</ele>
        <time>2017-10-30T16:52:41Z</time>
      </trkpt>
      <trkpt lat="51.94917700253427" lon="9.046749025583267">
        <ele>150.58000000000001</ele>
        <time>2017-10-30T16:52:42Z</time>
      </trkpt>
      <trkpt lat="51.949209021404386" lon="9.046924961730838">
        <ele>151.06</ele>
        <time>2017-10-30T16:52:43Z</time>
      </trkpt>
      <trkpt lat="51.94924003444612" lon="9.047105005010963">
        <ele>151.06</ele>
        <time>2017-10-30T16:52:44Z</time>
      </trkpt>
      <trkpt lat="51.949246991425753" lon="9.047295022755861">
        <ele>151.06</ele>
        <time>2017-10-30T16:52:45Z</time>
      </trkpt>
      <trkpt lat="51.949254032224417" lon="9.047482023015618">
        <ele>151.06</ele>
        <time>2017-10-30T16:52:46Z</time>
      </trkpt>
      <trkpt lat="51.949260989204049" lon="9.047667011618614">
        <ele>151.53999999999999</ele>
        <time>2017-10-30T16:52:47Z</time>
      </trkpt>
      <trkpt lat="51.949222013354301" lon="9.047839008271694">
        <ele>151.53999999999999</ele>
        <time>2017-10-30T16:52:48Z</time>
      </trkpt>
      <trkpt lat="51.949182031676173" lon="9.048012010753155">
        <ele>151.53999999999999</ele>
        <time>2017-10-30T16:52:49Z</time>
      </trkpt>
      <trkpt lat="51.949142972007394" lon="9.048183001577854">
        <ele>152.03</ele>
        <time>2017-10-30T16:52:50Z</time>
      </trkpt>
      <trkpt lat="51.949087986722589" lon="9.048338988795877">
        <ele>152.03</ele>
        <time>2017-10-30T16:52:51Z</time>
      </trkpt>
      <trkpt lat="51.949025960639119" lon="9.048492964357138">
        <ele>152.50999999999999</ele>
        <time>2017-10-30T16:52:52Z</time>
      </trkpt>
      <trkpt lat="51.948782969266176" lon="9.049107022583485">
        <ele>153.47</ele>
        <time>2017-10-30T16:52:56Z</time>
      </trkpt>
      <trkpt lat="51.948721027001739" lon="9.049265021458268">
        <ele>153.47</ele>
        <time>2017-10-30T16:52:57Z</time>
      </trkpt>
      <trkpt lat="51.948077967390418" lon="9.050992028787732">
        <ele>156.34999999999999</ele>
        <time>2017-10-30T16:53:07Z</time>
      </trkpt>
      <trkpt lat="51.947690974920988" lon="9.053087001666427">
        <ele>157.31</ele>
        <time>2017-10-30T16:53:15Z</time>
      </trkpt>
      <trkpt lat="51.947538005188107" lon="9.055466959252954">
        <ele>156.34999999999999</ele>
        <time>2017-10-30T16:53:25Z</time>
      </trkpt>
      <trkpt lat="51.947662979364395" lon="9.056878974661231">
        <ele>154.91</ele>
        <time>2017-10-30T16:53:33Z</time>
      </trkpt>
      <trkpt lat="51.947705978527665" lon="9.057105034589768">
        <ele>154.91</ele>
        <time>2017-10-30T16:53:35Z</time>
      </trkpt>
      <trkpt lat="51.947716036811471" lon="9.05715499073267">
        <ele>154.43000000000001</ele>
        <time>2017-10-30T16:53:36Z</time>
      </trkpt>
      <trkpt lat="51.947763981297612" lon="9.057187009602785">
        <ele>154.43000000000001</ele>
        <time>2017-10-30T16:53:37Z</time>
      </trkpt>
      <trkpt lat="51.947792982682586" lon="9.057206036522985">
        <ele>153.94999999999999</ele>
        <time>2017-10-30T16:53:38Z</time>
      </trkpt>
      <trkpt lat="51.947812009602785" lon="9.0572190284729">
        <ele>153.94999999999999</ele>
        <time>2017-10-30T16:53:39Z</time>
      </trkpt>
      <trkpt lat="51.947836987674236" lon="9.057235037907958">
        <ele>153.94999999999999</ele>
        <time>2017-10-30T16:53:42Z</time>
      </trkpt>
      <trkpt lat="51.947845034301281" lon="9.05724098905921">
        <ele>153.94999999999999</ele>
        <time>2017-10-30T16:53:43Z</time>
      </trkpt>
      <trkpt lat="51.947864983230829" lon="9.057184997946024">
        <ele>153.47</ele>
        <time>2017-10-30T16:53:44Z</time>
      </trkpt>
      <trkpt lat="51.947899013757706" lon="9.05709195882082">
        <ele>153.47</ele>
        <time>2017-10-30T16:53:45Z</time>
      </trkpt>
      <trkpt lat="51.947942012920976" lon="9.056976959109306">
        <ele>152.99000000000001</ele>
        <time>2017-10-30T16:53:46Z</time>
      </trkpt>
      <trkpt lat="51.947989035397768" lon="9.056848967447877">
        <ele>152.99000000000001</ele>
        <time>2017-10-30T16:53:47Z</time>
      </trkpt>
      <trkpt lat="51.948584988713264" lon="9.055164037272334">
        <ele>155.38999999999999</ele>
        <time>2017-10-30T16:53:58Z</time>
      </trkpt>
      <trkpt lat="51.949495011940598" lon="9.052895978093147">
        <ele>163.56</ele>
        <time>2017-10-30T16:54:10Z</time>
      </trkpt>
      <trkpt lat="51.950085014104843" lon="9.051753021776676">
        <ele>164.03999999999999</ele>
        <time>2017-10-30T16:54:18Z</time>
      </trkpt>
      <trkpt lat="51.950494972988963" lon="9.050941988825798">
        <ele>165</ele>
        <time>2017-10-30T16:54:25Z</time>
      </trkpt>
      <trkpt lat="51.95110903121531" lon="9.049733988940716">
        <ele>162.59999999999999</ele>
        <time>2017-10-30T16:54:33Z</time>
      </trkpt>
      <trkpt lat="51.95166802033782" lon="9.048667978495359">
        <ele>159.72</ele>
        <time>2017-10-30T16:54:40Z</time>
      </trkpt>
      <trkpt lat="51.952595980837941" lon="9.046865031123161">
        <ele>160.68000000000001</ele>
        <time>2017-10-30T16:54:51Z</time>
      </trkpt>
      <trkpt lat="51.952688014134765" lon="9.046692028641701">
        <ele>160.68000000000001</ele>
        <time>2017-10-30T16:54:52Z</time>
      </trkpt>
      <trkpt lat="51.953578004613519" lon="9.044958986341953">
        <ele>160.68000000000001</ele>
        <time>2017-10-30T16:55:00Z</time>
      </trkpt>
      <trkpt lat="51.955151036381721" lon="9.041895987465978">
        <ele>161.63999999999999</ele>
        <time>2017-10-30T16:55:11Z</time>
      </trkpt>
      <trkpt lat="51.956604961305857" lon="9.039056031033397">
        <ele>163.56</ele>
        <time>2017-10-30T16:55:21Z</time>
      </trkpt>
      <trkpt lat="51.958907973021269" lon="9.035145035013557">
        <ele>163.08000000000001</ele>
        <time>2017-10-30T16:55:35Z</time>
      </trkpt>
      <trkpt lat="51.961129009723663" lon="9.0322520211339">
        <ele>161.16</ele>
        <time>2017-10-30T16:55:47Z</time>
      </trkpt>
      <trkpt lat="51.962572960183024" lon="9.030650993809104">
        <ele>159.72</ele>
        <time>2017-10-30T16:55:55Z</time>
      </trkpt>
      <trkpt lat="51.964256968349218" lon="9.029162032529712">
        <ele>160.19999999999999</ele>
        <time>2017-10-30T16:56:03Z</time>
      </trkpt>
      <trkpt lat="51.965041011571884" lon="9.028637995943427">
        <ele>159.24000000000001</ele>
        <time>2017-10-30T16:56:08Z</time>
      </trkpt>
      <trkpt lat="51.965151987969875" lon="9.028636990115047">
        <ele>159.24000000000001</ele>
        <time>2017-10-30T16:56:09Z</time>
      </trkpt>
      <trkpt lat="51.965242009609938" lon="9.028661968186498">
        <ele>158.75</ele>
        <time>2017-10-30T16:56:10Z</time>
      </trkpt>
      <trkpt lat="51.965331025421619" lon="9.028687030076981">
        <ele>158.75</ele>
        <time>2017-10-30T16:56:11Z</time>
      </trkpt>
      <trkpt lat="51.965425992384553" lon="9.028713013976812">
        <ele>159.24000000000001</ele>
        <time>2017-10-30T16:56:12Z</time>
      </trkpt>
      <trkpt lat="51.96550696156919" lon="9.028786020353437">
        <ele>159.24000000000001</ele>
        <time>2017-10-30T16:56:13Z</time>
      </trkpt>
      <trkpt lat="51.965589020401239" lon="9.028899008408189">
        <ele>159.24000000000001</ele>
        <time>2017-10-30T16:56:14Z</time>
      </trkpt>
      <trkpt lat="51.965672001242638" lon="9.029011996462941">
        <ele>159.72</ele>
        <time>2017-10-30T16:56:15Z</time>
      </trkpt>
      <trkpt lat="51.965755987912416" lon="9.029129007831216">
        <ele>160.19999999999999</ele>
        <time>2017-10-30T16:56:16Z</time>
      </trkpt>
      <trkpt lat="51.965842992067337" lon="9.029249036684632">
        <ele>160.68000000000001</ele>
        <time>2017-10-30T16:56:17Z</time>
      </trkpt>
      <trkpt lat="51.965935025364161" lon="9.029355989769101">
        <ele>160.68000000000001</ele>
        <time>2017-10-30T16:56:18Z</time>
      </trkpt>
      <trkpt lat="51.966043990105391" lon="9.029404018074274">
        <ele>161.16</ele>
        <time>2017-10-30T16:56:19Z</time>
      </trkpt>
      <trkpt lat="51.966155972331762" lon="9.029421033337712">
        <ele>162.12</ele>
        <time>2017-10-30T16:56:20Z</time>
      </trkpt>
      <trkpt lat="51.966274995356798" lon="9.029395971447229">
        <ele>162.59999999999999</ele>
        <time>2017-10-30T16:56:21Z</time>
      </trkpt>
      <trkpt lat="51.966394018381834" lon="9.029371999204159">
        <ele>163.08000000000001</ele>
        <time>2017-10-30T16:56:22Z</time>
      </trkpt>
      <trkpt lat="51.966675985604525" lon="9.029313996434212">
        <ele>164.52000000000001</ele>
        <time>2017-10-30T16:56:25Z</time>
      </trkpt>
      <trkpt lat="51.96673097088933" lon="9.029303016141057">
        <ele>165</ele>
        <time>2017-10-30T16:56:26Z</time>
      </trkpt>
      <trkpt lat="51.966768018901348" lon="9.029294969514012">
        <ele>165</ele>
        <time>2017-10-30T16:56:27Z</time>
      </trkpt>
      <trkpt lat="51.966847982257605" lon="9.029362024739385">
        <ele>165</ele>
        <time>2017-10-30T16:56:28Z</time>
      </trkpt>
      <trkpt lat="51.966868015006185" lon="9.029486998915672">
        <ele>165.47999999999999</ele>
        <time>2017-10-30T16:56:38Z</time>
      </trkpt>
      <trkpt lat="51.966886958107352" lon="9.029604010283947">
        <ele>165.47999999999999</ele>
        <time>2017-10-30T16:56:39Z</time>
      </trkpt>
      <trkpt lat="51.966912019997835" lon="9.029762009158731">
        <ele>165.47999999999999</ele>
        <time>2017-10-30T16:56:40Z</time>
      </trkpt>
      <trkpt lat="51.967107988893986" lon="9.030975960195065">
        <ele>165.47999999999999</ele>
        <time>2017-10-30T16:56:45Z</time>
      </trkpt>
      <trkpt lat="51.967641999945045" lon="9.033472007140517">
        <ele>169.33000000000001</ele>
        <time>2017-10-30T16:56:52Z</time>
      </trkpt>
      <trkpt lat="51.968738017603755" lon="9.037132970988751">
        <ele>173.16999999999999</ele>
        <time>2017-10-30T16:57:01Z</time>
      </trkpt>
      <trkpt lat="51.970112985000014" lon="9.040294038131833">
        <ele>175.09999999999999</ele>
        <time>2017-10-30T16:57:09Z</time>
      </trkpt>
      <trkpt lat="51.971385022625327" lon="9.041906967759132">
        <ele>176.06</ele>
        <time>2017-10-30T16:57:15Z</time>
      </trkpt>
      <trkpt lat="51.971983993425965" lon="9.042396973818541">
        <ele>175.58000000000001</ele>
        <time>2017-10-30T16:57:18Z</time>
      </trkpt>
      <trkpt lat="51.972498977556825" lon="9.042738033458591">
        <ele>175.58000000000001</ele>
        <time>2017-10-30T16:57:21Z</time>
      </trkpt>
      <trkpt lat="51.972641972824931" lon="9.042891003191471">
        <ele>175.58000000000001</ele>
        <time>2017-10-30T16:57:22Z</time>
      </trkpt>
      <trkpt lat="51.972779016941786" lon="9.043051013723016">
        <ele>175.58000000000001</ele>
        <time>2017-10-30T16:57:23Z</time>
      </trkpt>
      <trkpt lat="51.972890999168158" lon="9.043242037296295">
        <ele>175.58000000000001</ele>
        <time>2017-10-30T16:57:24Z</time>
      </trkpt>
      <trkpt lat="51.973008010536432" lon="9.043441023677588">
        <ele>175.58000000000001</ele>
        <time>2017-10-30T16:57:25Z</time>
      </trkpt>
      <trkpt lat="51.974081983789802" lon="9.044944988563657">
        <ele>177.5</ele>
        <time>2017-10-30T16:57:32Z</time>
      </trkpt>
      <trkpt lat="51.974813975393772" lon="9.045990966260433">
        <ele>178.46000000000001</ele>
        <time>2017-10-30T16:57:37Z</time>
      </trkpt>
      <trkpt lat="51.974903997033834" lon="9.046173021197319">
        <ele>178.94</ele>
        <time>2017-10-30T16:57:38Z</time>
      </trkpt>
      <trkpt lat="51.974966023117304" lon="9.046391034498811">
        <ele>179.90000000000001</ele>
        <time>2017-10-30T16:57:39Z</time>
      </trkpt>
      <trkpt lat="51.975006004795432" lon="9.04662799090147">
        <ele>180.38</ele>
        <time>2017-10-30T16:57:40Z</time>
      </trkpt>
      <trkpt lat="51.975030982866883" lon="9.046865031123161">
        <ele>180.38</ele>
        <time>2017-10-30T16:57:41Z</time>
      </trkpt>
      <trkpt lat="51.975049003958702" lon="9.047096958383918">
        <ele>180.38</ele>
        <time>2017-10-30T16:57:42Z</time>
      </trkpt>
      <trkpt lat="51.975020002573729" lon="9.047327963635325">
        <ele>180.87</ele>
        <time>2017-10-30T16:57:43Z</time>
      </trkpt>
      <trkpt lat="51.974881030619144" lon="9.048880040645599">
        <ele>181.34999999999999</ele>
        <time>2017-10-30T16:57:49Z</time>
      </trkpt>
      <trkpt lat="51.974881030619144" lon="9.049154967069626">
        <ele>181.83000000000001</ele>
        <time>2017-10-30T16:57:50Z</time>
      </trkpt>
      <trkpt lat="51.974993012845516" lon="9.050261965021491">
        <ele>182.78999999999999</ele>
        <time>2017-10-30T16:57:54Z</time>
      </trkpt>
      <trkpt lat="51.97502201423049" lon="9.050504034385085">
        <ele>182.78999999999999</ele>
        <time>2017-10-30T16:57:55Z</time>
      </trkpt>
      <trkpt lat="51.975084040313959" lon="9.050726993009448">
        <ele>183.27000000000001</ele>
        <time>2017-10-30T16:57:56Z</time>
      </trkpt>
      <trkpt lat="51.975164003670216" lon="9.050937965512276">
        <ele>183.75</ele>
        <time>2017-10-30T16:57:57Z</time>
      </trkpt>
      <trkpt lat="51.975241033360362" lon="9.05114097520709">
        <ele>183.75</ele>
        <time>2017-10-30T16:57:58Z</time>
      </trkpt>
      <trkpt lat="51.975330971181393" lon="9.051323030143976">
        <ele>183.75</ele>
        <time>2017-10-30T16:57:59Z</time>
      </trkpt>
      <trkpt lat="51.97543297894299" lon="9.05150500126183">
        <ele>184.22999999999999</ele>
        <time>2017-10-30T16:58:00Z</time>
      </trkpt>
      <trkpt lat="51.975541021674871" lon="9.051698036491871">
        <ele>184.22999999999999</ele>
        <time>2017-10-30T16:58:01Z</time>
      </trkpt>
      <trkpt lat="51.976733012124896" lon="9.05328799970448">
        <ele>186.15000000000001</ele>
        <time>2017-10-30T16:58:09Z</time>
      </trkpt>
      <trkpt lat="51.977999014779925" lon="9.054891038686037">
        <ele>189.52000000000001</ele>
        <time>2017-10-30T16:58:16Z</time>
      </trkpt>
      <trkpt lat="51.978644002228975" lon="9.055767031386495">
        <ele>191.44</ele>
        <time>2017-10-30T16:58:22Z</time>
      </trkpt>
      <trkpt lat="51.978723965585232" lon="9.055889993906021">
        <ele>191.44</ele>
        <time>2017-10-30T16:58:24Z</time>
      </trkpt>
      <trkpt lat="51.978795966133475" lon="9.055915977805853">
        <ele>191.44</ele>
        <time>2017-10-30T16:58:25Z</time>
      </trkpt>
      <trkpt lat="51.978825973346829" lon="9.055881025269628">
        <ele>191.91999999999999</ele>
        <time>2017-10-30T16:58:26Z</time>
      </trkpt>
      <trkpt lat="51.978868972510099" lon="9.055829979479313">
        <ele>191.91999999999999</ele>
        <time>2017-10-30T16:58:27Z</time>
      </trkpt>
      <trkpt lat="51.978924041613936" lon="9.055766025558114">
        <ele>192.40000000000001</ele>
        <time>2017-10-30T16:58:28Z</time>
      </trkpt>
      <trkpt lat="51.978991013020277" lon="9.055684972554445">
        <ele>192.40000000000001</ele>
        <time>2017-10-30T16:58:29Z</time>
      </trkpt>
      <trkpt lat="51.979652009904385" lon="9.054903024807572">
        <ele>192.88</ele>
        <time>2017-10-30T16:58:35Z</time>
      </trkpt>
      <trkpt lat="51.979913022369146" lon="9.054661961272359">
        <ele>193.84</ele>
        <time>2017-10-30T16:58:37Z</time>
      </trkpt>
      <trkpt lat="51.981101995334029" lon="9.054133985191584">
        <ele>197.69</ele>
        <time>2017-10-30T16:58:44Z</time>
      </trkpt>
      <trkpt lat="51.982342014089227" lon="9.054116969928145">
        <ele>202.49000000000001</ele>
        <time>2017-10-30T16:58:51Z</time>
      </trkpt>
      <trkpt lat="51.984081007540226" lon="9.054819960147142">
        <ele>209.22</ele>
        <time>2017-10-30T16:59:00Z</time>
      </trkpt>
      <trkpt lat="51.985861994326115" lon="9.055600985884666">
        <ele>213.06999999999999</ele>
        <time>2017-10-30T16:59:09Z</time>
      </trkpt>
      <trkpt lat="51.987149035558105" lon="9.055781029164791">
        <ele>209.69999999999999</ele>
        <time>2017-10-30T16:59:16Z</time>
      </trkpt>
      <trkpt lat="51.988505981862545" lon="9.055510964244604">
        <ele>206.34</ele>
        <time>2017-10-30T16:59:23Z</time>
      </trkpt>
      <trkpt lat="51.989299999549985" lon="9.055245006456971">
        <ele>203.46000000000001</ele>
        <time>2017-10-30T16:59:28Z</time>
      </trkpt>
      <trkpt lat="51.98944098316133" lon="9.055245006456971">
        <ele>202.97999999999999</ele>
        <time>2017-10-30T16:59:29Z</time>
      </trkpt>
      <trkpt lat="51.989591019228101" lon="9.055259004235268">
        <ele>202.49000000000001</ele>
        <time>2017-10-30T16:59:30Z</time>
      </trkpt>
      <trkpt lat="51.989749018102884" lon="9.055325975641608">
        <ele>202.49000000000001</ele>
        <time>2017-10-30T16:59:31Z</time>
      </trkpt>
      <trkpt lat="51.989923026412725" lon="9.055400993674994">
        <ele>202.00999999999999</ele>
        <time>2017-10-30T16:59:32Z</time>
      </trkpt>
      <trkpt lat="51.991542996838689" lon="9.056095015257597">
        <ele>202.49000000000001</ele>
        <time>2017-10-30T16:59:40Z</time>
      </trkpt>
      <trkpt lat="51.99296498671174" lon="9.0567890368402">
        <ele>195.28</ele>
        <time>2017-10-30T16:59:48Z</time>
      </trkpt>
      <trkpt lat="51.993106976151466" lon="9.056808985769749">
        <ele>194.31999999999999</ele>
        <time>2017-10-30T16:59:49Z</time>
      </trkpt>
      <trkpt lat="51.993248965591192" lon="9.056794987991452">
        <ele>193.84</ele>
        <time>2017-10-30T16:59:50Z</time>
      </trkpt>
      <trkpt lat="51.994153037667274" lon="9.056664984673262">
        <ele>189.52000000000001</ele>
        <time>2017-10-30T16:59:58Z</time>
      </trkpt>
      <trkpt lat="51.994610019028187" lon="9.056582003831863">
        <ele>187.59</ele>
        <time>2017-10-30T17:00:04Z</time>
      </trkpt>
      <trkpt lat="51.994680007919669" lon="9.05657596886158">
        <ele>187.11000000000001</ele>
        <time>2017-10-30T17:00:05Z</time>
      </trkpt>
      <trkpt lat="51.994755025953054" lon="9.056577980518341">
        <ele>187.11000000000001</ele>
        <time>2017-10-30T17:00:06Z</time>
      </trkpt>
      <trkpt lat="51.994837000966072" lon="9.056579992175102">
        <ele>187.11000000000001</ele>
        <time>2017-10-30T17:00:07Z</time>
      </trkpt>
      <trkpt lat="51.994922999292612" lon="9.056582003831863">
        <ele>186.63</ele>
        <time>2017-10-30T17:00:08Z</time>
      </trkpt>
      <trkpt lat="51.995711987838149" lon="9.056600024923682">
        <ele>185.19</ele>
        <time>2017-10-30T17:00:17Z</time>
      </trkpt>
      <trkpt lat="51.995802009478211" lon="9.056602958589792">
        <ele>184.71000000000001</ele>
        <time>2017-10-30T17:00:18Z</time>
      </trkpt>
      <trkpt lat="51.996190007776022" lon="9.056613016873598">
        <ele>184.22999999999999</ele>
        <time>2017-10-30T17:00:22Z</time>
      </trkpt>
      <trkpt lat="51.997127020731568" lon="9.056713012978435">
        <ele>187.59</ele>
        <time>2017-10-30T17:00:28Z</time>
      </trkpt>
      <trkpt lat="51.998864002525806" lon="9.057056000456214">
        <ele>197.69</ele>
        <time>2017-10-30T17:00:36Z</time>
      </trkpt>
      <trkpt lat="52.000702992081642" lon="9.057607026770711">
        <ele>200.09</ele>
        <time>2017-10-30T17:00:45Z</time>
      </trkpt>
      <trkpt lat="52.002260014414787" lon="9.058275986462832">
        <ele>193.84</ele>
        <time>2017-10-30T17:00:53Z</time>
      </trkpt>
      <trkpt lat="52.002581041306257" lon="9.058431973680854">
        <ele>192.40000000000001</ele>
        <time>2017-10-30T17:00:55Z</time>
      </trkpt>
      <trkpt lat="52.002886980772018" lon="9.058506991714239">
        <ele>190.47999999999999</ele>
        <time>2017-10-30T17:00:57Z</time>
      </trkpt>
      <trkpt lat="52.003762973472476" lon="9.058526018634439">
        <ele>185.19</ele>
        <time>2017-10-30T17:01:03Z</time>
      </trkpt>
      <trkpt lat="52.003873027861118" lon="9.058545967563987">
        <ele>184.71000000000001</ele>
        <time>2017-10-30T17:01:04Z</time>
      </trkpt>
      <trkpt lat="52.003934970125556" lon="9.05857102945447">
        <ele>183.75</ele>
        <time>2017-10-30T17:01:05Z</time>
      </trkpt>
      <trkpt lat="52.004013005644083" lon="9.05870103277266">
        <ele>182.78999999999999</ele>
        <time>2017-10-30T17:01:06Z</time>
      </trkpt>
      <trkpt lat="52.004063967615366" lon="9.05878602527082">
        <ele>182.31</ele>
        <time>2017-10-30T17:01:07Z</time>
      </trkpt>
      <trkpt lat="52.004103027284145" lon="9.058944024145603">
        <ele>181.34999999999999</ele>
        <time>2017-10-30T17:01:08Z</time>
      </trkpt>
      <trkpt lat="52.004145020619035" lon="9.059111997485161">
        <ele>180.87</ele>
        <time>2017-10-30T17:01:09Z</time>
      </trkpt>
      <trkpt lat="52.004171004518867" lon="9.059304026886821">
        <ele>179.41999999999999</ele>
        <time>2017-10-30T17:01:10Z</time>
      </trkpt>
      <trkpt lat="52.004171004518867" lon="9.059505024924874">
        <ele>178.46000000000001</ele>
        <time>2017-10-30T17:01:11Z</time>
      </trkpt>
      <trkpt lat="52.00415700674057" lon="9.059718009084463">
        <ele>177.5</ele>
        <time>2017-10-30T17:01:12Z</time>
      </trkpt>
      <trkpt lat="52.004102021455765" lon="9.060170967131853">
        <ele>175.58000000000001</ele>
        <time>2017-10-30T17:01:14Z</time>
      </trkpt>
      <trkpt lat="52.004072014242411" lon="9.060410019010305">
        <ele>174.62</ele>
        <time>2017-10-30T17:01:15Z</time>
      </trkpt>
      <trkpt lat="52.003806978464127" lon="9.061870984733105">
        <ele>167.88999999999999</ele>
        <time>2017-10-30T17:01:22Z</time>
      </trkpt>
      <trkpt lat="52.003829022869468" lon="9.061987996101379">
        <ele>167.41</ele>
        <time>2017-10-30T17:01:23Z</time>
      </trkpt>
      <trkpt lat="52.003848971799016" lon="9.062087992206216">
        <ele>166.44999999999999</ele>
        <time>2017-10-30T17:01:24Z</time>
      </trkpt>
      <trkpt lat="52.003865987062454" lon="9.062176002189517">
        <ele>165.96000000000001</ele>
        <time>2017-10-30T17:01:25Z</time>
      </trkpt>
      <trkpt lat="52.003906974568963" lon="9.062234004959464">
        <ele>165.47999999999999</ele>
        <time>2017-10-30T17:01:26Z</time>
      </trkpt>
      <trkpt lat="52.003969000652432" lon="9.062295025214553">
        <ele>164.52000000000001</ele>
        <time>2017-10-30T17:01:27Z</time>
      </trkpt>
      <trkpt lat="52.004039995372295" lon="9.062367025762796">
        <ele>164.03999999999999</ele>
        <time>2017-10-30T17:01:28Z</time>
      </trkpt>
      <trkpt lat="52.004117025062442" lon="9.062443971633911">
        <ele>163.56</ele>
        <time>2017-10-30T17:01:29Z</time>
      </trkpt>
      <trkpt lat="52.004594039171934" lon="9.062885027378798">
        <ele>159.24000000000001</ele>
        <time>2017-10-30T17:01:36Z</time>
      </trkpt>
      <trkpt lat="52.004647012799978" lon="9.062932971864939">
        <ele>158.75</ele>
        <time>2017-10-30T17:01:37Z</time>
      </trkpt>
      <trkpt lat="52.004697974771261" lon="9.062976976856589">
        <ele>157.78999999999999</ele>
        <time>2017-10-30T17:01:38Z</time>
      </trkpt>
      <trkpt lat="52.004743991419673" lon="9.063016958534718">
        <ele>156.83000000000001</ele>
        <time>2017-10-30T17:01:39Z</time>
      </trkpt>
      <trkpt lat="52.004778021946549" lon="9.063047971576452">
        <ele>156.34999999999999</ele>
        <time>2017-10-30T17:01:40Z</time>
      </trkpt>
      <trkpt lat="52.00480199418962" lon="9.063069010153413">
        <ele>155.38999999999999</ele>
        <time>2017-10-30T17:01:41Z</time>
      </trkpt>
      <trkpt lat="52.004812974482775" lon="9.063186021521688">
        <ele>153.94999999999999</ele>
        <time>2017-10-30T17:01:43Z</time>
      </trkpt>
      <trkpt lat="52.004765029996634" lon="9.063363969326019">
        <ele>153.47</ele>
        <time>2017-10-30T17:01:44Z</time>
      </trkpt>
      <trkpt lat="52.004730999469757" lon="9.0634910389781">
        <ele>152.50999999999999</ele>
        <time>2017-10-30T17:01:45Z</time>
      </trkpt>
      <trkpt lat="52.004485996440053" lon="9.064673976972699">
        <ele>151.53999999999999</ele>
        <time>2017-10-30T17:01:52Z</time>
      </trkpt>
      <trkpt lat="52.004346018657088" lon="9.065673016011715">
        <ele>150.58000000000001</ele>
        <time>2017-10-30T17:01:59Z</time>
      </trkpt>
      <trkpt lat="52.004354987293482" lon="9.06579002737999">
        <ele>150.58000000000001</ele>
        <time>2017-10-30T17:02:00Z</time>
      </trkpt>
      <trkpt lat="52.004364039748907" lon="9.065864961594343">
        <ele>150.58000000000001</ele>
        <time>2017-10-30T17:02:01Z</time>
      </trkpt>
      <trkpt lat="52.004369990900159" lon="9.065911984071136">
        <ele>150.58000000000001</ele>
        <time>2017-10-30T17:02:02Z</time>
      </trkpt>
      <trkpt lat="52.00437200255692" lon="9.065932016819716">
        <ele>150.58000000000001</ele>
        <time>2017-10-30T17:02:05Z</time>
      </trkpt>
      <trkpt lat="52.004423970356584" lon="9.066035030409694">
        <ele>150.58000000000001</ele>
        <time>2017-10-30T17:02:06Z</time>
      </trkpt>
      <trkpt lat="52.004481973126531" lon="9.066030001267791">
        <ele>150.58000000000001</ele>
        <time>2017-10-30T17:02:07Z</time>
      </trkpt>
      <trkpt lat="52.005293006077409" lon="9.066198980435729">
        <ele>149.62</ele>
        <time>2017-10-30T17:02:15Z</time>
      </trkpt>
      <trkpt lat="52.005672035738826" lon="9.066296964883804">
        <ele>149.13999999999999</ele>
        <time>2017-10-30T17:02:19Z</time>
      </trkpt>
      <trkpt lat="52.005754010751843" lon="9.066301994025707">
        <ele>149.13999999999999</ele>
        <time>2017-10-30T17:02:20Z</time>
      </trkpt>
      <trkpt lat="52.005886025726795" lon="9.066310040652752">
        <ele>149.13999999999999</ele>
        <time>2017-10-30T17:02:22Z</time>
      </trkpt>
      <trkpt lat="52.005936987698078" lon="9.066312974318862">
        <ele>149.62</ele>
        <time>2017-10-30T17:02:23Z</time>
      </trkpt>
      <trkpt lat="52.005979986861348" lon="9.066315991804004">
        <ele>149.62</ele>
        <time>2017-10-30T17:02:24Z</time>
      </trkpt>
      <trkpt lat="52.006033966317773" lon="9.066422022879124">
        <ele>149.13999999999999</ele>
        <time>2017-10-30T17:02:25Z</time>
      </trkpt>
      <trkpt lat="52.006064979359508" lon="9.066505003720522">
        <ele>149.13999999999999</ele>
        <time>2017-10-30T17:02:26Z</time>
      </trkpt>
      <trkpt lat="52.006103033199906" lon="9.066604999825358">
        <ele>149.13999999999999</ele>
        <time>2017-10-30T17:02:27Z</time>
      </trkpt>
      <trkpt lat="52.006146032363176" lon="9.066718993708491">
        <ele>149.13999999999999</ele>
        <time>2017-10-30T17:02:28Z</time>
      </trkpt>
      <trkpt lat="52.006321968510747" lon="9.067195001989603">
        <ele>149.62</ele>
        <time>2017-10-30T17:02:32Z</time>
      </trkpt>
      <trkpt lat="52.006352981552482" lon="9.067306984215975">
        <ele>149.62</ele>
        <time>2017-10-30T17:02:33Z</time>
      </trkpt>
      <trkpt lat="52.006380977109075" lon="9.067417038604617">
        <ele>149.13999999999999</ele>
        <time>2017-10-30T17:02:34Z</time>
      </trkpt>
      <trkpt lat="52.006386006250978" lon="9.067547963932157">
        <ele>149.62</ele>
        <time>2017-10-30T17:02:35Z</time>
      </trkpt>
      <trkpt lat="52.0063900295645" lon="9.067686013877392">
        <ele>149.62</ele>
        <time>2017-10-30T17:02:36Z</time>
      </trkpt>
      <trkpt lat="52.006394974887371" lon="9.067834038287401">
        <ele>149.62</ele>
        <time>2017-10-30T17:02:37Z</time>
      </trkpt>
      <trkpt lat="52.006400004029274" lon="9.067974016070366">
        <ele>150.09999999999999</ele>
        <time>2017-10-30T17:02:38Z</time>
      </trkpt>
      <trkpt lat="52.006417019292712" lon="9.068108964711428">
        <ele>150.58000000000001</ele>
        <time>2017-10-30T17:02:39Z</time>
      </trkpt>
      <trkpt lat="52.006452977657318" lon="9.068245002999902">
        <ele>151.53999999999999</ele>
        <time>2017-10-30T17:02:40Z</time>
      </trkpt>
      <trkpt lat="52.006493965163827" lon="9.068389004096389">
        <ele>152.03</ele>
        <time>2017-10-30T17:02:41Z</time>
      </trkpt>
      <trkpt lat="52.006549034267664" lon="9.068512972444296">
        <ele>152.99000000000001</ele>
        <time>2017-10-30T17:02:42Z</time>
      </trkpt>
      <trkpt lat="52.006823038682342" lon="9.069129964336753">
        <ele>154.43000000000001</ele>
        <time>2017-10-30T17:02:47Z</time>
      </trkpt>
      <trkpt lat="52.006840975955129" lon="9.069278994575143">
        <ele>154.91</ele>
        <time>2017-10-30T17:02:48Z</time>
      </trkpt>
      <trkpt lat="52.006851034238935" lon="9.06942299567163">
        <ele>154.91</ele>
        <time>2017-10-30T17:02:49Z</time>
      </trkpt>
      <trkpt lat="52.006850028410554" lon="9.069576971232891">
        <ele>155.38999999999999</ele>
        <time>2017-10-30T17:02:50Z</time>
      </trkpt>
      <trkpt lat="52.006846005097032" lon="9.069739999249578">
        <ele>155.87</ele>
        <time>2017-10-30T17:02:51Z</time>
      </trkpt>
      <trkpt lat="52.006833013147116" lon="9.070259006693959">
        <ele>155.87</ele>
        <time>2017-10-30T17:02:54Z</time>
      </trkpt>
      <trkpt lat="52.006855979561806" lon="9.070400996133685">
        <ele>156.34999999999999</ele>
        <time>2017-10-30T17:02:55Z</time>
      </trkpt>
      <trkpt lat="52.006891015917063" lon="9.070533011108637">
        <ele>155.87</ele>
        <time>2017-10-30T17:02:56Z</time>
      </trkpt>
      <trkpt lat="52.006922028958797" lon="9.070652034133673">
        <ele>155.87</ele>
        <time>2017-10-30T17:02:57Z</time>
      </trkpt>
      <trkpt lat="52.006961004808545" lon="9.070754963904619">
        <ele>155.87</ele>
        <time>2017-10-30T17:02:58Z</time>
      </trkpt>
      <trkpt lat="52.007024958729744" lon="9.070866024121642">
        <ele>155.87</ele>
        <time>2017-10-30T17:02:59Z</time>
      </trkpt>
      <trkpt lat="52.007096959277987" lon="9.070942969992757">
        <ele>155.87</ele>
        <time>2017-10-30T17:03:00Z</time>
      </trkpt>
      <trkpt lat="52.007510019466281" lon="9.071383019909263">
        <ele>156.34999999999999</ele>
        <time>2017-10-30T17:03:05Z</time>
      </trkpt>
      <trkpt lat="52.007585959509015" lon="9.071526015177369">
        <ele>156.34999999999999</ele>
        <time>2017-10-30T17:03:06Z</time>
      </trkpt>
      <trkpt lat="52.007662989199162" lon="9.071673033758998">
        <ele>156.83000000000001</ele>
        <time>2017-10-30T17:03:07Z</time>
      </trkpt>
      <trkpt lat="52.007725015282631" lon="9.071852993220091">
        <ele>157.31</ele>
        <time>2017-10-30T17:03:08Z</time>
      </trkpt>
      <trkpt lat="52.007780000567436" lon="9.072054997086525">
        <ele>157.31</ele>
        <time>2017-10-30T17:03:09Z</time>
      </trkpt>
      <trkpt lat="52.008108990266919" lon="9.073126958683133">
        <ele>158.27000000000001</ele>
        <time>2017-10-30T17:03:14Z</time>
      </trkpt>
      <trkpt lat="52.008194988593459" lon="9.073308007791638">
        <ele>158.75</ele>
        <time>2017-10-30T17:03:15Z</time>
      </trkpt>
      <trkpt lat="52.008286016061902" lon="9.073443962261081">
        <ele>158.75</ele>
        <time>2017-10-30T17:03:16Z</time>
      </trkpt>
      <trkpt lat="52.0083689969033" lon="9.073570026084781">
        <ele>158.75</ele>
        <time>2017-10-30T17:03:17Z</time>
      </trkpt>
      <trkpt lat="52.008450971916318" lon="9.073687959462404">
        <ele>159.24000000000001</ele>
        <time>2017-10-30T17:03:18Z</time>
      </trkpt>
      <trkpt lat="52.009219005703926" lon="9.074562024325132">
        <ele>162.12</ele>
        <time>2017-10-30T17:03:26Z</time>
      </trkpt>
      <trkpt lat="52.009306009858847" lon="9.074722034856677">
        <ele>163.08000000000001</ele>
        <time>2017-10-30T17:03:27Z</time>
      </trkpt>
      <trkpt lat="52.010047975927591" lon="9.076100019738078">
        <ele>166.93000000000001</ele>
        <time>2017-10-30T17:03:36Z</time>
      </trkpt>
      <trkpt lat="52.010111007839441" lon="9.076261958107352">
        <ele>166.93000000000001</ele>
        <time>2017-10-30T17:03:37Z</time>
      </trkpt>
      <trkpt lat="52.010173033922911" lon="9.07644803635776">
        <ele>167.41</ele>
        <time>2017-10-30T17:03:38Z</time>
      </trkpt>
      <trkpt lat="52.010222990065813" lon="9.076650040224195">
        <ele>167.88999999999999</ele>
        <time>2017-10-30T17:03:39Z</time>
      </trkpt>
      <trkpt lat="52.010265989229083" lon="9.076880039647222">
        <ele>167.88999999999999</ele>
        <time>2017-10-30T17:03:40Z</time>
      </trkpt>
      <trkpt lat="52.010311000049114" lon="9.077122025191784">
        <ele>168.37</ele>
        <time>2017-10-30T17:03:41Z</time>
      </trkpt>
      <trkpt lat="52.010803017765284" lon="9.079772969707847">
        <ele>171.72999999999999</ele>
        <time>2017-10-30T17:03:50Z</time>
      </trkpt>
      <trkpt lat="52.011465020477772" lon="9.082471020519733">
        <ele>176.06</ele>
        <time>2017-10-30T17:03:59Z</time>
      </trkpt>
      <trkpt lat="52.012446038424969" lon="9.084843015298247">
        <ele>180.38</ele>
        <time>2017-10-30T17:04:08Z</time>
      </trkpt>
      <trkpt lat="52.012958005070686" lon="9.08609502017498">
        <ele>183.27000000000001</ele>
        <time>2017-10-30T17:04:15Z</time>
      </trkpt>
      <trkpt lat="52.013455973938107" lon="9.087320035323501">
        <ele>186.15000000000001</ele>
        <time>2017-10-30T17:04:24Z</time>
      </trkpt>
      <trkpt lat="52.01350400224328" lon="9.087468981742859">
        <ele>186.63</ele>
        <time>2017-10-30T17:04:25Z</time>
      </trkpt>
      <trkpt lat="52.013541972264647" lon="9.087632009759545">
        <ele>187.11000000000001</ele>
        <time>2017-10-30T17:04:26Z</time>
      </trkpt>
      <trkpt lat="52.013709023594856" lon="9.088436001911759">
        <ele>189.03999999999999</ele>
        <time>2017-10-30T17:04:32Z</time>
      </trkpt>
      <trkpt lat="52.013722015544772" lon="9.088497022166848">
        <ele>189.03999999999999</ele>
        <time>2017-10-30T17:04:33Z</time>
      </trkpt>
      <trkpt lat="52.013729978352785" lon="9.088535998016596">
        <ele>189.52000000000001</ele>
        <time>2017-10-30T17:04:34Z</time>
      </trkpt>
      <trkpt lat="52.013729978352785" lon="9.088535998016596">
        <ele>190.96000000000001</ele>
        <time>2017-10-30T17:04:41Z</time>
      </trkpt>
      <trkpt lat="52.013743976131082" lon="9.088586959987879">
        <ele>190.96000000000001</ele>
        <time>2017-10-30T17:04:42Z</time>
      </trkpt>
      <trkpt lat="52.013743976131082" lon="9.088586959987879">
        <ele>190.96000000000001</ele>
        <time>2017-10-30T17:04:43Z</time>
      </trkpt>
      <trkpt lat="52.013819999992847" lon="9.088506996631622">
        <ele>191.44</ele>
        <time>2017-10-30T17:04:54Z</time>
      </trkpt>
      <trkpt lat="52.013959977775812" lon="9.088357966393232">
        <ele>192.40000000000001</ele>
        <time>2017-10-30T17:05:11Z</time>
      </trkpt>
      <trkpt lat="52.014164999127388" lon="9.088182030245662">
        <ele>193.84</ele>
        <time>2017-10-30T17:05:14Z</time>
      </trkpt>
      <trkpt lat="52.014321992173791" lon="9.088140036910772">
        <ele>194.80000000000001</ele>
        <time>2017-10-30T17:05:16Z</time>
      </trkpt>
      <trkpt lat="52.014829013496637" lon="9.088147999718785">
        <ele>197.69</ele>
        <time>2017-10-30T17:05:22Z</time>
      </trkpt>
      <trkpt lat="52.014904031530023" lon="9.088190998882055">
        <ele>198.16999999999999</ele>
        <time>2017-10-30T17:05:23Z</time>
      </trkpt>
      <trkpt lat="52.015057001262903" lon="9.088317984715104">
        <ele>199.13</ele>
        <time>2017-10-30T17:05:25Z</time>
      </trkpt>
      <trkpt lat="52.015871973708272" lon="9.088983004912734">
        <ele>207.78</ele>
        <time>2017-10-30T17:05:33Z</time>
      </trkpt>
      <trkpt lat="52.016932033002377" lon="9.089214010164142">
        <ele>217.88</ele>
        <time>2017-10-30T17:05:41Z</time>
      </trkpt>
      <trkpt lat="52.018777979537845" lon="9.089228007942438">
        <ele>244.31</ele>
        <time>2017-10-30T17:05:54Z</time>
      </trkpt>
      <trkpt lat="52.01992898248136" lon="9.089268995448947">
        <ele>259.20999999999998</ele>
        <time>2017-10-30T17:06:02Z</time>
      </trkpt>
      <trkpt lat="52.020917041227221" lon="9.089503018185496">
        <ele>266.89999999999998</ele>
        <time>2017-10-30T17:06:10Z</time>
      </trkpt>
      <trkpt lat="52.021909961476922" lon="9.090254036709666">
        <ele>274.11000000000001</ele>
        <time>2017-10-30T17:06:19Z</time>
      </trkpt>
      <trkpt lat="52.021997971460223" lon="9.090338023379445">
        <ele>275.56</ele>
        <time>2017-10-30T17:06:20Z</time>
      </trkpt>
      <trkpt lat="52.022666009142995" lon="9.091077977791429">
        <ele>282.76999999999998</ele>
        <time>2017-10-30T17:06:28Z</time>
      </trkpt>
      <trkpt lat="52.023532027378678" lon="9.092178018763661">
        <ele>287.08999999999997</ele>
        <time>2017-10-30T17:06:36Z</time>
      </trkpt>
      <trkpt lat="52.023764960467815" lon="9.092472977936268">
        <ele>289.49000000000001</ele>
        <time>2017-10-30T17:06:39Z</time>
      </trkpt>
      <trkpt lat="52.023835033178329" lon="9.09256199374795">
        <ele>290.94</ele>
        <time>2017-10-30T17:06:40Z</time>
      </trkpt>
      <trkpt lat="52.023966964334249" lon="9.092729967087507">
        <ele>292.86000000000001</ele>
        <time>2017-10-30T17:06:43Z</time>
      </trkpt>
      <trkpt lat="52.024044999852777" lon="9.092771960422397">
        <ele>293.33999999999997</ele>
        <time>2017-10-30T17:06:44Z</time>
      </trkpt>
      <trkpt lat="52.024095039814711" lon="9.092732984572649">
        <ele>294.30000000000001</ele>
        <time>2017-10-30T17:06:45Z</time>
      </trkpt>
      <trkpt lat="52.024162011221051" lon="9.092682022601366">
        <ele>295.25999999999999</ele>
        <time>2017-10-30T17:06:46Z</time>
      </trkpt>
      <trkpt lat="52.024244992062449" lon="9.092618990689516">
        <ele>295.74000000000001</ele>
        <time>2017-10-30T17:06:47Z</time>
      </trkpt>
      <trkpt lat="52.024419000372291" lon="9.092485969886184">
        <ele>297.18000000000001</ele>
        <time>2017-10-30T17:06:49Z</time>
      </trkpt>
      <trkpt lat="52.024491000920534" lon="9.092430984601378">
        <ele>297.67000000000002</ele>
        <time>2017-10-30T17:06:50Z</time>
      </trkpt>
      <trkpt lat="52.024638019502163" lon="9.092455040663481">
        <ele>299.58999999999997</ele>
        <time>2017-10-30T17:06:52Z</time>
      </trkpt>
      <trkpt lat="52.024748995900154" lon="9.092473983764648">
        <ele>300.55000000000001</ele>
        <time>2017-10-30T17:06:53Z</time>
      </trkpt>
      <trkpt lat="52.025058958679438" lon="9.09269199706614">
        <ele>303.43000000000001</ele>
        <time>2017-10-30T17:06:56Z</time>
      </trkpt>
      <trkpt lat="52.025189967826009" lon="9.092697026208043">
        <ele>304.38999999999999</ele>
        <time>2017-10-30T17:06:57Z</time>
      </trkpt>
      <trkpt lat="52.026603994891047" lon="9.092753017321229">
        <ele>306.80000000000001</ele>
        <time>2017-10-30T17:07:06Z</time>
      </trkpt>
      <trkpt lat="52.027627006173134" lon="9.092792998999357">
        <ele>301.50999999999999</ele>
        <time>2017-10-30T17:07:14Z</time>
      </trkpt>
      <trkpt lat="52.027689032256603" lon="9.092796016484499">
        <ele>301.02999999999997</ele>
        <time>2017-10-30T17:07:15Z</time>
      </trkpt>
      <trkpt lat="52.02779003418982" lon="9.092946974560618">
        <ele>300.55000000000001</ele>
        <time>2017-10-30T17:07:16Z</time>
      </trkpt>
      <trkpt lat="52.027977034449577" lon="9.093106985092163">
        <ele>300.55000000000001</ele>
        <time>2017-10-30T17:07:18Z</time>
      </trkpt>
      <trkpt lat="52.028064960613847" lon="9.093092987313867">
        <ele>300.55000000000001</ele>
        <time>2017-10-30T17:07:19Z</time>
      </trkpt>
      <trkpt lat="52.028169985860586" lon="9.093075972050428">
        <ele>301.02999999999997</ele>
        <time>2017-10-30T17:07:20Z</time>
      </trkpt>
      <trkpt lat="52.0291000418365" lon="9.092930965125561">
        <ele>301.99000000000001</ele>
        <time>2017-10-30T17:07:26Z</time>
      </trkpt>
      <trkpt lat="52.03034701757133" lon="9.092829041182995">
        <ele>299.58999999999997</ele>
        <time>2017-10-30T17:07:34Z</time>
      </trkpt>
      <trkpt lat="52.031212029978633" lon="9.092748994007707">
        <ele>293.33999999999997</ele>
        <time>2017-10-30T17:07:40Z</time>
      </trkpt>
      <trkpt lat="52.031331975013018" lon="9.092768020927906">
        <ele>292.38</ele>
        <time>2017-10-30T17:07:41Z</time>
      </trkpt>
      <trkpt lat="52.031543031334877" lon="9.092801967635751">
        <ele>289.49000000000001</ele>
        <time>2017-10-30T17:07:45Z</time>
      </trkpt>
      <trkpt lat="52.031599022448063" lon="9.092811020091176">
        <ele>287.56999999999999</ele>
        <time>2017-10-30T17:07:50Z</time>
      </trkpt>
      <trkpt lat="52.031719973310828" lon="9.092858964577317">
        <ele>286.61000000000001</ele>
        <time>2017-10-30T17:07:52Z</time>
      </trkpt>
      <trkpt lat="52.031803959980607" lon="9.092901963740587">
        <ele>286.61000000000001</ele>
        <time>2017-10-30T17:07:53Z</time>
      </trkpt>
      <trkpt lat="52.031908985227346" lon="9.092955021187663">
        <ele>286.61000000000001</ele>
        <time>2017-10-30T17:07:54Z</time>
      </trkpt>
      <trkpt lat="52.03292403370142" lon="9.093467993661761">
        <ele>290.45999999999998</ele>
        <time>2017-10-30T17:08:01Z</time>
      </trkpt>
      <trkpt lat="52.033700030297041" lon="9.09385004080832">
        <ele>293.33999999999997</ele>
        <time>2017-10-30T17:08:06Z</time>
      </trkpt>
      <trkpt lat="52.033820981159806" lon="9.093860015273094">
        <ele>293.33999999999997</ele>
        <time>2017-10-30T17:08:07Z</time>
      </trkpt>
      <trkpt lat="52.033947966992855" lon="9.093845011666417">
        <ele>292.86000000000001</ele>
        <time>2017-10-30T17:08:08Z</time>
      </trkpt>
      <trkpt lat="52.034070007503033" lon="9.0937630366534">
        <ele>292.86000000000001</ele>
        <time>2017-10-30T17:08:09Z</time>
      </trkpt>
      <trkpt lat="52.034207973629236" lon="9.093671003356576">
        <ele>292.38</ele>
        <time>2017-10-30T17:08:10Z</time>
      </trkpt>
      <trkpt lat="52.034360021352768" lon="9.093570001423359">
        <ele>291.89999999999998</ele>
        <time>2017-10-30T17:08:11Z</time>
      </trkpt>
      <trkpt lat="52.035836996510625" lon="9.092510025948286">
        <ele>291.42000000000002</ele>
        <time>2017-10-30T17:08:19Z</time>
      </trkpt>
      <trkpt lat="52.03675095923245" lon="9.091719025745988">
        <ele>293.33999999999997</ele>
        <time>2017-10-30T17:08:25Z</time>
      </trkpt>
      <trkpt lat="52.037611026316881" lon="9.090268034487963">
        <ele>294.30000000000001</ele>
        <time>2017-10-30T17:08:33Z</time>
      </trkpt>
      <trkpt lat="52.038476038724184" lon="9.088840009644628">
        <ele>288.52999999999997</ele>
        <time>2017-10-30T17:08:40Z</time>
      </trkpt>
      <trkpt lat="52.038629008457065" lon="9.088599029928446">
        <ele>286.61000000000001</ele>
        <time>2017-10-30T17:08:42Z</time>
      </trkpt>
      <trkpt lat="52.038743002340198" lon="9.088346986100078">
        <ele>285.17000000000002</ele>
        <time>2017-10-30T17:08:44Z</time>
      </trkpt>
      <trkpt lat="52.038797987625003" lon="9.088202985003591">
        <ele>284.20999999999998</ele>
        <time>2017-10-30T17:08:45Z</time>
      </trkpt>
      <trkpt lat="52.038851967081428" lon="9.088049009442329">
        <ele>283.73000000000002</ele>
        <time>2017-10-30T17:08:46Z</time>
      </trkpt>
      <trkpt lat="52.039183974266052" lon="9.086631964892149">
        <ele>280.83999999999997</ele>
        <time>2017-10-30T17:08:53Z</time>
      </trkpt>
      <trkpt lat="52.039256980642676" lon="9.086455022916198">
        <ele>280.83999999999997</ele>
        <time>2017-10-30T17:08:54Z</time>
      </trkpt>
      <trkpt lat="52.039330992847681" lon="9.086272967979312">
        <ele>280.83999999999997</ele>
        <time>2017-10-30T17:08:55Z</time>
      </trkpt>
      <trkpt lat="52.039425959810615" lon="9.086101977154613">
        <ele>280.83999999999997</ele>
        <time>2017-10-30T17:08:56Z</time>
      </trkpt>
      <trkpt lat="52.039531990885735" lon="9.085917994379997">
        <ele>280.83999999999997</ele>
        <time>2017-10-30T17:08:57Z</time>
      </trkpt>
      <trkpt lat="52.040867982432246" lon="9.083592016249895">
        <ele>288.05000000000001</ele>
        <time>2017-10-30T17:09:08Z</time>
      </trkpt>
      <trkpt lat="52.041571978479624" lon="9.082325007766485">
        <ele>293.33999999999997</ele>
        <time>2017-10-30T17:09:15Z</time>
      </trkpt>
      <trkpt lat="52.041998030617833" lon="9.080762034282088">
        <ele>297.67000000000002</ele>
        <time>2017-10-30T17:09:24Z</time>
      </trkpt>
      <trkpt lat="52.042128033936024" lon="9.080479983240366">
        <ele>298.14999999999998</ele>
        <time>2017-10-30T17:09:26Z</time>
      </trkpt>
      <trkpt lat="52.042192993685603" lon="9.080362971872091">
        <ele>298.14999999999998</ele>
        <time>2017-10-30T17:09:27Z</time>
      </trkpt>
      <trkpt lat="52.042258037254214" lon="9.080243026837707">
        <ele>298.63</ele>
        <time>2017-10-30T17:09:28Z</time>
      </trkpt>
      <trkpt lat="52.042342023923993" lon="9.080157028511167">
        <ele>298.63</ele>
        <time>2017-10-30T17:09:29Z</time>
      </trkpt>
      <trkpt lat="52.042431039735675" lon="9.080064995214343">
        <ele>299.11000000000001</ele>
        <time>2017-10-30T17:09:30Z</time>
      </trkpt>
      <trkpt lat="52.043251963332295" lon="9.079189002513886">
        <ele>304.38999999999999</ele>
        <time>2017-10-30T17:09:39Z</time>
      </trkpt>
      <trkpt lat="52.043318012729287" lon="9.079079031944275">
        <ele>304.88</ele>
        <time>2017-10-30T17:09:40Z</time>
      </trkpt>
      <trkpt lat="52.043371992185712" lon="9.078951040282846">
        <ele>305.36000000000001</ele>
        <time>2017-10-30T17:09:41Z</time>
      </trkpt>
      <trkpt lat="52.043912960216403" lon="9.07767103984952">
        <ele>310.63999999999999</ele>
        <time>2017-10-30T17:09:51Z</time>
      </trkpt>
      <trkpt lat="52.043995019048452" lon="9.077556040138006">
        <ele>311.12</ele>
        <time>2017-10-30T17:09:52Z</time>
      </trkpt>
      <trkpt lat="52.044088980183005" lon="9.077452020719647">
        <ele>311.60000000000002</ele>
        <time>2017-10-30T17:09:53Z</time>
      </trkpt>
      <trkpt lat="52.044187970459461" lon="9.077340960502625">
        <ele>312.08999999999997</ele>
        <time>2017-10-30T17:09:54Z</time>
      </trkpt>
      <trkpt lat="52.044294001534581" lon="9.077223027125001">
        <ele>312.56999999999999</ele>
        <time>2017-10-30T17:09:55Z</time>
      </trkpt>
      <trkpt lat="52.044405983760953" lon="9.077098974958062">
        <ele>313.05000000000001</ele>
        <time>2017-10-30T17:09:56Z</time>
      </trkpt>
      <trkpt lat="52.045498983934522" lon="9.076337981969118">
        <ele>315.44999999999999</ele>
        <time>2017-10-30T17:10:04Z</time>
      </trkpt>
      <trkpt lat="52.045634016394615" lon="9.076309986412525">
        <ele>315.93000000000001</ele>
        <time>2017-10-30T17:10:05Z</time>
      </trkpt>
      <trkpt lat="52.046868000179529" lon="9.076049979776144">
        <ele>319.77999999999997</ele>
        <time>2017-10-30T17:10:13Z</time>
      </trkpt>
      <trkpt lat="52.0469990093261" lon="9.076021984219551">
        <ele>319.77999999999997</ele>
        <time>2017-10-30T17:10:14Z</time>
      </trkpt>
      <trkpt lat="52.047132030129433" lon="9.075992982834578">
        <ele>320.25999999999999</ele>
        <time>2017-10-30T17:10:15Z</time>
      </trkpt>
      <trkpt lat="52.047383990138769" lon="9.075785027816892">
        <ele>320.25999999999999</ele>
        <time>2017-10-30T17:10:17Z</time>
      </trkpt>
      <trkpt lat="52.047844994813204" lon="9.075335003435612">
        <ele>321.22000000000003</ele>
        <time>2017-10-30T17:10:21Z</time>
      </trkpt>
      <trkpt lat="52.047935016453266" lon="9.075191002339125">
        <ele>321.22000000000003</ele>
        <time>2017-10-30T17:10:22Z</time>
      </trkpt>
      <trkpt lat="52.048001987859607" lon="9.075001990422607">
        <ele>321.22000000000003</ele>
        <time>2017-10-30T17:10:23Z</time>
      </trkpt>
      <trkpt lat="52.048260988667607" lon="9.074350968003273">
        <ele>321.22000000000003</ele>
        <time>2017-10-30T17:10:27Z</time>
      </trkpt>
      <trkpt lat="52.048317985609174" lon="9.074224987998605">
        <ele>321.69999999999999</ele>
        <time>2017-10-30T17:10:28Z</time>
      </trkpt>
      <trkpt lat="52.048398032784462" lon="9.074124991893768">
        <ele>321.22000000000003</ele>
        <time>2017-10-30T17:10:29Z</time>
      </trkpt>
      <trkpt lat="52.048473972827196" lon="9.07408501021564">
        <ele>321.22000000000003</ele>
        <time>2017-10-30T17:10:30Z</time>
      </trkpt>
      <trkpt lat="52.04854697920382" lon="9.074046034365892">
        <ele>321.22000000000003</ele>
        <time>2017-10-30T17:10:31Z</time>
      </trkpt>
      <trkpt lat="52.048626020550728" lon="9.074004041031003">
        <ele>320.74000000000001</ele>
        <time>2017-10-30T17:10:32Z</time>
      </trkpt>
      <trkpt lat="52.048710007220507" lon="9.073960036039352">
        <ele>320.74000000000001</ele>
        <time>2017-10-30T17:10:33Z</time>
      </trkpt>
      <trkpt lat="52.048785025253892" lon="9.073880994692445">
        <ele>321.22000000000003</ele>
        <time>2017-10-30T17:10:34Z</time>
      </trkpt>
      <trkpt lat="52.048849985003471" lon="9.073807988315821">
        <ele>321.69999999999999</ele>
        <time>2017-10-30T17:10:35Z</time>
      </trkpt>
      <trkpt lat="52.048917962238193" lon="9.073716038838029">
        <ele>322.18000000000001</ele>
        <time>2017-10-30T17:10:36Z</time>
      </trkpt>
      <trkpt lat="52.048955010250211" lon="9.073589975014329">
        <ele>322.18000000000001</ele>
        <time>2017-10-30T17:10:37Z</time>
      </trkpt>
      <trkpt lat="52.048993986099958" lon="9.073456032201648">
        <ele>322.66000000000003</ele>
        <time>2017-10-30T17:10:38Z</time>
      </trkpt>
      <trkpt lat="52.049026004970074" lon="9.073281018063426">
        <ele>322.66000000000003</ele>
        <time>2017-10-30T17:10:39Z</time>
      </trkpt>
      <trkpt lat="52.04904000274837" lon="9.073103992268443">
        <ele>323.13999999999999</ele>
        <time>2017-10-30T17:10:40Z</time>
      </trkpt>
      <trkpt lat="52.049056012183428" lon="9.072913974523544">
        <ele>323.13999999999999</ele>
        <time>2017-10-30T17:10:41Z</time>
      </trkpt>
      <trkpt lat="52.049051988869905" lon="9.072696967050433">
        <ele>323.62</ele>
        <time>2017-10-30T17:10:42Z</time>
      </trkpt>
      <trkpt lat="52.049041008576751" lon="9.072480965405703">
        <ele>324.57999999999998</ele>
        <time>2017-10-30T17:10:43Z</time>
      </trkpt>
      <trkpt lat="52.049013013020158" lon="9.072249038144946">
        <ele>325.06</ele>
        <time>2017-10-30T17:10:44Z</time>
      </trkpt>
      <trkpt lat="52.048798017203808" lon="9.070237968116999">
        <ele>332.26999999999998</ele>
        <time>2017-10-30T17:10:52Z</time>
      </trkpt>
      <trkpt lat="52.048875968903303" lon="9.067207993939519">
        <ele>347.17000000000002</ele>
        <time>2017-10-30T17:11:03Z</time>
      </trkpt>
      <trkpt lat="52.049356000497937" lon="9.065129030495882">
        <ele>360.14999999999998</ele>
        <time>2017-10-30T17:11:11Z</time>
      </trkpt>
      <trkpt lat="52.04974701628089" lon="9.064193023368716">
        <ele>365.44</ele>
        <time>2017-10-30T17:11:15Z</time>
      </trkpt>
      <trkpt lat="52.049850029870868" lon="9.064032007008791">
        <ele>366.88</ele>
        <time>2017-10-30T17:11:16Z</time>
      </trkpt>
      <trkpt lat="52.049967963248491" lon="9.063864033669233">
        <ele>368.31999999999999</ele>
        <time>2017-10-30T17:11:17Z</time>
      </trkpt>
      <trkpt lat="52.050100984051824" lon="9.063725983723998">
        <ele>369.75999999999999</ele>
        <time>2017-10-30T17:11:18Z</time>
      </trkpt>
      <trkpt lat="52.050240961834788" lon="9.06357997097075">
        <ele>371.20999999999998</ele>
        <time>2017-10-30T17:11:19Z</time>
      </trkpt>
      <trkpt lat="52.051542000845075" lon="9.062195029109716">
        <ele>376.97000000000003</ele>
        <time>2017-10-30T17:11:28Z</time>
      </trkpt>
      <trkpt lat="52.052269969135523" lon="9.061115020886064">
        <ele>377.94</ele>
        <time>2017-10-30T17:11:35Z</time>
      </trkpt>
      <trkpt lat="52.05236803740263" lon="9.060818972066045">
        <ele>377.94</ele>
        <time>2017-10-30T17:11:37Z</time>
      </trkpt>
      <trkpt lat="52.052410030737519" lon="9.0606589615345">
        <ele>377.94</ele>
        <time>2017-10-30T17:11:38Z</time>
      </trkpt>
      <trkpt lat="52.052431991323829" lon="9.060473972931504">
        <ele>377.44999999999999</ele>
        <time>2017-10-30T17:11:39Z</time>
      </trkpt>
      <trkpt lat="52.05245696939528" lon="9.060266017913818">
        <ele>377.44999999999999</ele>
        <time>2017-10-30T17:11:40Z</time>
      </trkpt>
      <trkpt lat="52.052483959123492" lon="9.060048004612327">
        <ele>376.49000000000001</ele>
        <time>2017-10-30T17:11:41Z</time>
      </trkpt>
      <trkpt lat="52.052511032670736" lon="9.059829991310835">
        <ele>376.00999999999999</ele>
        <time>2017-10-30T17:11:42Z</time>
      </trkpt>
      <trkpt lat="52.052538022398949" lon="9.059622036293149">
        <ele>375.52999999999997</ele>
        <time>2017-10-30T17:11:43Z</time>
      </trkpt>
      <trkpt lat="52.052636006847024" lon="9.059022981673479">
        <ele>373.13</ele>
        <time>2017-10-30T17:11:46Z</time>
      </trkpt>
      <trkpt lat="52.052700966596603" lon="9.058828018605709">
        <ele>372.64999999999998</ele>
        <time>2017-10-30T17:11:47Z</time>
      </trkpt>
      <trkpt lat="52.053052000701427" lon="9.057765025645495">
        <ele>366.88</ele>
        <time>2017-10-30T17:11:52Z</time>
      </trkpt>
      <trkpt lat="52.05331795848906" lon="9.057028004899621">
        <ele>363.04000000000002</ele>
        <time>2017-10-30T17:11:56Z</time>
      </trkpt>
      <trkpt lat="52.05340001732111" lon="9.056869000196457">
        <ele>362.06999999999999</ele>
        <time>2017-10-30T17:11:57Z</time>
      </trkpt>
      <trkpt lat="52.053501019254327" lon="9.056721981614828">
        <ele>361.11000000000001</ele>
        <time>2017-10-30T17:11:58Z</time>
      </trkpt>
      <trkpt lat="52.054019020870328" lon="9.055760996416211">
        <ele>356.31</ele>
        <time>2017-10-30T17:12:04Z</time>
      </trkpt>
      <trkpt lat="52.054065959528089" lon="9.055612972006202">
        <ele>355.33999999999997</ele>
        <time>2017-10-30T17:12:05Z</time>
      </trkpt>
      <trkpt lat="52.054081968963146" lon="9.055452039465308">
        <ele>354.38</ele>
        <time>2017-10-30T17:12:06Z</time>
      </trkpt>
      <trkpt lat="52.054097978398204" lon="9.055291023105383">
        <ele>353.89999999999998</ele>
        <time>2017-10-30T17:12:07Z</time>
      </trkpt>
      <trkpt lat="52.054113987833261" lon="9.055132018402219">
        <ele>352.94</ele>
        <time>2017-10-30T17:12:08Z</time>
      </trkpt>
      <trkpt lat="52.054139971733093" lon="9.053773982450366">
        <ele>345.73000000000002</ele>
        <time>2017-10-30T17:12:16Z</time>
      </trkpt>
      <trkpt lat="52.054124968126416" lon="9.053622018545866">
        <ele>344.76999999999998</ele>
        <time>2017-10-30T17:12:17Z</time>
      </trkpt>
      <trkpt lat="52.054081968963146" lon="9.053508024662733">
        <ele>343.81</ele>
        <time>2017-10-30T17:12:18Z</time>
      </trkpt>
      <trkpt lat="52.054041987285018" lon="9.053408028557897">
        <ele>342.85000000000002</ele>
        <time>2017-10-30T17:12:19Z</time>
      </trkpt>
      <trkpt lat="52.054009968414903" lon="9.053326975554228">
        <ele>342.37</ele>
        <time>2017-10-30T17:12:20Z</time>
      </trkpt>
      <trkpt lat="52.05398297868669" lon="9.053261009976268">
        <ele>341.41000000000003</ele>
        <time>2017-10-30T17:12:21Z</time>
      </trkpt>
      <trkpt lat="52.053962023928761" lon="9.053207030519843">
        <ele>340.44</ele>
        <time>2017-10-30T17:12:22Z</time>
      </trkpt>
      <trkpt lat="52.053941991180182" lon="9.05315900221467">
        <ele>339.95999999999998</ele>
        <time>2017-10-30T17:12:23Z</time>
      </trkpt>
      <trkpt lat="52.053926987573504" lon="9.053122038021684">
        <ele>339.48000000000002</ele>
        <time>2017-10-30T17:12:24Z</time>
      </trkpt>
      <trkpt lat="52.053919024765491" lon="9.053099993616343">
        <ele>338.51999999999998</ele>
        <time>2017-10-30T17:12:25Z</time>
      </trkpt>
      <trkpt lat="52.053952971473336" lon="9.052970996126533">
        <ele>338.04000000000002</ele>
        <time>2017-10-30T17:12:26Z</time>
      </trkpt>
      <trkpt lat="52.053952971473336" lon="9.052970996126533">
        <ele>337.56</ele>
        <time>2017-10-30T17:12:27Z</time>
      </trkpt>
      <trkpt lat="52.054016003385186" lon="9.053017012774944">
        <ele>337.07999999999998</ele>
        <time>2017-10-30T17:12:28Z</time>
      </trkpt>
      <trkpt lat="52.054049028083682" lon="9.053042996674776">
        <ele>336.12</ele>
        <time>2017-10-30T17:12:29Z</time>
      </trkpt>
      <trkpt lat="52.054123962298036" lon="9.053098987787962">
        <ele>335.63999999999999</ele>
        <time>2017-10-30T17:12:30Z</time>
      </trkpt>
      <trkpt lat="52.054145000874996" lon="9.053134024143219">
        <ele>335.16000000000003</ele>
        <time>2017-10-30T17:12:31Z</time>
      </trkpt>
      <trkpt lat="52.054546996951103" lon="9.053891999647021">
        <ele>330.82999999999998</ele>
        <time>2017-10-30T17:12:38Z</time>
      </trkpt>
      <trkpt lat="52.05458102747798" lon="9.054028959944844">
        <ele>330.35000000000002</ele>
        <time>2017-10-30T17:12:39Z</time>
      </trkpt>
      <trkpt lat="52.054616985842586" lon="9.054176984354854">
        <ele>329.87</ele>
        <time>2017-10-30T17:12:40Z</time>
      </trkpt>
      <trkpt lat="52.054655039682984" lon="9.054333977401257">
        <ele>329.38999999999999</ele>
        <time>2017-10-30T17:12:41Z</time>
      </trkpt>
      <trkpt lat="52.054694015532732" lon="9.054493987932801">
        <ele>328.43000000000001</ele>
        <time>2017-10-30T17:12:42Z</time>
      </trkpt>
      <trkpt lat="52.054735003039241" lon="9.05466103926301">
        <ele>327.47000000000003</ele>
        <time>2017-10-30T17:12:43Z</time>
      </trkpt>
      <trkpt lat="52.054784037172794" lon="9.05481300316751">
        <ele>326.99000000000001</ele>
        <time>2017-10-30T17:12:44Z</time>
      </trkpt>
      <trkpt lat="52.054838016629219" lon="9.054963039234281">
        <ele>326.5</ele>
        <time>2017-10-30T17:12:45Z</time>
      </trkpt>
      <trkpt lat="52.054890990257263" lon="9.055107962340117">
        <ele>325.54000000000002</ele>
        <time>2017-10-30T17:12:46Z</time>
      </trkpt>
      <trkpt lat="52.055239006876945" lon="9.055738030001521">
        <ele>322.66000000000003</ele>
        <time>2017-10-30T17:12:51Z</time>
      </trkpt>
      <trkpt lat="52.055293992161751" lon="9.055827967822552">
        <ele>321.69999999999999</ele>
        <time>2017-10-30T17:12:52Z</time>
      </trkpt>
      <trkpt lat="52.055353000760078" lon="9.055894017219544">
        <ele>321.22000000000003</ele>
        <time>2017-10-30T17:12:53Z</time>
      </trkpt>
      <trkpt lat="52.055480992421508" lon="9.056013962253928">
        <ele>319.77999999999997</ele>
        <time>2017-10-30T17:12:55Z</time>
      </trkpt>
      <trkpt lat="52.0555470418185" lon="9.056056961417198">
        <ele>319.30000000000001</ele>
        <time>2017-10-30T17:12:56Z</time>
      </trkpt>
      <trkpt lat="52.055615019053221" lon="9.05610297806561">
        <ele>318.81</ele>
        <time>2017-10-30T17:12:57Z</time>
      </trkpt>
      <trkpt lat="52.055676961317658" lon="9.056183025240898">
        <ele>318.81</ele>
        <time>2017-10-30T17:12:58Z</time>
      </trkpt>
      <trkpt lat="52.055723983794451" lon="9.056276986375451">
        <ele>318.32999999999998</ele>
        <time>2017-10-30T17:12:59Z</time>
      </trkpt>
      <trkpt lat="52.055768994614482" lon="9.056366002187133">
        <ele>317.85000000000002</ele>
        <time>2017-10-30T17:13:00Z</time>
      </trkpt>
      <trkpt lat="52.055818028748035" lon="9.056463986635208">
        <ele>317.85000000000002</ele>
        <time>2017-10-30T17:13:01Z</time>
      </trkpt>
      <trkpt lat="52.056165961548686" lon="9.057568972930312">
        <ele>313.05000000000001</ele>
        <time>2017-10-30T17:13:07Z</time>
      </trkpt>
      <trkpt lat="52.056379029527307" lon="9.058463992550969">
        <ele>309.19999999999999</ele>
        <time>2017-10-30T17:13:13Z</time>
      </trkpt>
      <trkpt lat="52.056393027305603" lon="9.058546973392367">
        <ele>308.72000000000003</ele>
        <time>2017-10-30T17:13:14Z</time>
      </trkpt>
      <trkpt lat="52.056404007598758" lon="9.05861503444612">
        <ele>308.24000000000001</ele>
        <time>2017-10-30T17:13:15Z</time>
      </trkpt>
      <trkpt lat="52.056420017033815" lon="9.058720981702209">
        <ele>307.75999999999999</ele>
        <time>2017-10-30T17:13:16Z</time>
      </trkpt>
      <trkpt lat="52.056420017033815" lon="9.05872299335897">
        <ele>307.27999999999997</ele>
        <time>2017-10-30T17:13:17Z</time>
      </trkpt>
      <trkpt lat="52.056419011205435" lon="9.058764986693859">
        <ele>306.80000000000001</ele>
        <time>2017-10-30T17:13:18Z</time>
      </trkpt>
      <trkpt lat="52.056418005377054" lon="9.058813014999032">
        <ele>306.31999999999999</ele>
        <time>2017-10-30T17:13:19Z</time>
      </trkpt>
      <trkpt lat="52.056415993720293" lon="9.058862971141934">
        <ele>305.83999999999997</ele>
        <time>2017-10-30T17:13:20Z</time>
      </trkpt>
      <trkpt lat="52.056414987891912" lon="9.058899013325572">
        <ele>305.83999999999997</ele>
        <time>2017-10-30T17:13:21Z</time>
      </trkpt>
      <trkpt lat="52.056413982063532" lon="9.058936983346939">
        <ele>305.83999999999997</ele>
        <time>2017-10-30T17:13:22Z</time>
      </trkpt>
      <trkpt lat="52.056412976235151" lon="9.058975037187338">
        <ele>306.31999999999999</ele>
        <time>2017-10-30T17:13:23Z</time>
      </trkpt>
      <trkpt lat="52.056411970406771" lon="9.059017030522227">
        <ele>306.31999999999999</ele>
        <time>2017-10-30T17:13:24Z</time>
      </trkpt>
      <trkpt lat="52.05641096457839" lon="9.059056006371975">
        <ele>305.83999999999997</ele>
        <time>2017-10-30T17:13:25Z</time>
      </trkpt>
      <trkpt lat="52.05641096457839" lon="9.059056006371975">
        <ele>305.83999999999997</ele>
        <time>2017-10-30T17:13:26Z</time>
      </trkpt>
      <trkpt lat="52.056409036740661" lon="9.0591099858284">
        <ele>305.83999999999997</ele>
        <time>2017-10-30T17:13:27Z</time>
      </trkpt>
      <trkpt lat="52.056409036740661" lon="9.059128006920219">
        <ele>305.83999999999997</ele>
        <time>2017-10-30T17:13:28Z</time>
      </trkpt>
      <trkpt lat="52.056409036740661" lon="9.059128006920219">
        <ele>305.83999999999997</ele>
        <time>2017-10-30T17:13:29Z</time>
      </trkpt>
      <trkpt lat="52.056366037577391" lon="9.059492032974958">
        <ele>306.31999999999999</ele>
        <time>2017-10-30T17:13:46Z</time>
      </trkpt>
      <trkpt lat="52.056366037577391" lon="9.059492032974958">
        <ele>306.31999999999999</ele>
        <time>2017-10-30T17:14:26Z</time>
      </trkpt>
    </trkseg>
  </trk>

</gpx>